<?xml version="1.0" encoding="UTF-8" standalone="no" ?>
<gpx xmlns="http://www.topografix.com/GPX/1/1" xmlns:xsi="http://www.w3.org/2001/XMLSchema-instance" xsi:schemaLocation="http://www.topografix.com/GPX/1/1 http://www.topografix.com/GPX/1/1/gpx.xsd" version="1.1" creator="VisuGPX - https://www.visugpx.com">
  <metadata>
    <name>83 - V - Entrecasteaux </name>
    <desc><![CDATA[83 - V - Entrecasteaux :  la Bresque 
16-04-22]]></desc>
  </metadata>
  <trk>
    <name><![CDATA[Entrecasteaux la bresque 16-04-22]]></name>
    <desc><![CDATA[comment ...]]></desc>
    <trkseg>
      <trkpt lat="43.48628" lon="6.23458">
        <ele>117</ele>
        <time>2022-04-15T11:50:15Z</time>
      </trkpt>
      <trkpt lat="43.48628" lon="6.23458">
        <ele>117</ele>
        <time>2022-04-15T11:50:16Z</time>
      </trkpt>
      <trkpt lat="43.48628" lon="6.23458">
        <ele>117</ele>
        <time>2022-04-15T11:50:17Z</time>
      </trkpt>
      <trkpt lat="43.48628" lon="6.23458">
        <ele>117</ele>
        <time>2022-04-15T11:50:18Z</time>
      </trkpt>
      <trkpt lat="43.48628" lon="6.23458">
        <ele>117</ele>
        <time>2022-04-15T11:50:19Z</time>
      </trkpt>
      <trkpt lat="43.48628" lon="6.23458">
        <ele>118</ele>
        <time>2022-04-15T11:50:20Z</time>
      </trkpt>
      <trkpt lat="43.48628" lon="6.23458">
        <ele>118</ele>
        <time>2022-04-15T11:50:21Z</time>
      </trkpt>
      <trkpt lat="43.48628" lon="6.23458">
        <ele>118</ele>
        <time>2022-04-15T11:50:22Z</time>
      </trkpt>
      <trkpt lat="43.48628" lon="6.23458">
        <ele>118</ele>
        <time>2022-04-15T11:50:23Z</time>
      </trkpt>
      <trkpt lat="43.48628" lon="6.23458">
        <ele>118</ele>
        <time>2022-04-15T11:50:24Z</time>
      </trkpt>
      <trkpt lat="43.48628" lon="6.23458">
        <ele>118</ele>
        <time>2022-04-15T11:50:25Z</time>
      </trkpt>
      <trkpt lat="43.48628" lon="6.23458">
        <ele>118</ele>
        <time>2022-04-15T11:50:26Z</time>
      </trkpt>
      <trkpt lat="43.48628" lon="6.23458">
        <ele>118</ele>
        <time>2022-04-15T11:50:27Z</time>
      </trkpt>
      <trkpt lat="43.48628" lon="6.23458">
        <ele>119</ele>
        <time>2022-04-15T11:50:28Z</time>
      </trkpt>
      <trkpt lat="43.48628" lon="6.23458">
        <ele>119</ele>
        <time>2022-04-15T11:50:29Z</time>
      </trkpt>
      <trkpt lat="43.48628" lon="6.23458">
        <ele>119</ele>
        <time>2022-04-15T11:50:30Z</time>
      </trkpt>
      <trkpt lat="43.48628" lon="6.23458">
        <ele>119</ele>
        <time>2022-04-15T11:50:31Z</time>
      </trkpt>
      <trkpt lat="43.48628" lon="6.23458">
        <ele>119</ele>
        <time>2022-04-15T11:50:32Z</time>
      </trkpt>
      <trkpt lat="43.48628" lon="6.23458">
        <ele>119</ele>
        <time>2022-04-15T11:50:33Z</time>
      </trkpt>
      <trkpt lat="43.48628" lon="6.23458">
        <ele>119</ele>
        <time>2022-04-15T11:50:34Z</time>
      </trkpt>
      <trkpt lat="43.48628" lon="6.23458">
        <ele>119</ele>
        <time>2022-04-15T11:50:35Z</time>
      </trkpt>
      <trkpt lat="43.48628" lon="6.23458">
        <ele>120</ele>
        <time>2022-04-15T11:50:36Z</time>
      </trkpt>
      <trkpt lat="43.48628" lon="6.23458">
        <ele>120</ele>
        <time>2022-04-15T11:50:37Z</time>
      </trkpt>
      <trkpt lat="43.48628" lon="6.23458">
        <ele>120</ele>
        <time>2022-04-15T11:50:38Z</time>
      </trkpt>
      <trkpt lat="43.48628" lon="6.23458">
        <ele>120</ele>
        <time>2022-04-15T11:50:39Z</time>
      </trkpt>
      <trkpt lat="43.48628" lon="6.23458">
        <ele>120</ele>
        <time>2022-04-15T11:50:40Z</time>
      </trkpt>
      <trkpt lat="43.48628" lon="6.23458">
        <ele>120</ele>
        <time>2022-04-15T11:50:41Z</time>
      </trkpt>
      <trkpt lat="43.48628" lon="6.23458">
        <ele>120</ele>
        <time>2022-04-15T11:50:42Z</time>
      </trkpt>
      <trkpt lat="43.48628" lon="6.23458">
        <ele>120</ele>
        <time>2022-04-15T11:50:43Z</time>
      </trkpt>
      <trkpt lat="43.48628" lon="6.23458">
        <ele>120</ele>
        <time>2022-04-15T11:50:44Z</time>
      </trkpt>
      <trkpt lat="43.48628" lon="6.23458">
        <ele>120</ele>
        <time>2022-04-15T11:50:45Z</time>
      </trkpt>
      <trkpt lat="43.48628" lon="6.23458">
        <ele>120</ele>
        <time>2022-04-15T11:50:46Z</time>
      </trkpt>
      <trkpt lat="43.48628" lon="6.23458">
        <ele>121</ele>
        <time>2022-04-15T11:50:47Z</time>
      </trkpt>
      <trkpt lat="43.48628" lon="6.23458">
        <ele>121</ele>
        <time>2022-04-15T11:50:48Z</time>
      </trkpt>
      <trkpt lat="43.48628" lon="6.23458">
        <ele>121</ele>
        <time>2022-04-15T11:50:49Z</time>
      </trkpt>
      <trkpt lat="43.48628" lon="6.23458">
        <ele>121</ele>
        <time>2022-04-15T11:50:50Z</time>
      </trkpt>
      <trkpt lat="43.48628" lon="6.23458">
        <ele>121</ele>
        <time>2022-04-15T11:50:51Z</time>
      </trkpt>
      <trkpt lat="43.48628" lon="6.23458">
        <ele>121</ele>
        <time>2022-04-15T11:50:52Z</time>
      </trkpt>
      <trkpt lat="43.48628" lon="6.23458">
        <ele>121</ele>
        <time>2022-04-15T11:50:53Z</time>
      </trkpt>
      <trkpt lat="43.48628" lon="6.23458">
        <ele>121</ele>
        <time>2022-04-15T11:50:54Z</time>
      </trkpt>
      <trkpt lat="43.48628" lon="6.23458">
        <ele>121</ele>
        <time>2022-04-15T11:50:55Z</time>
      </trkpt>
      <trkpt lat="43.48628" lon="6.23458">
        <ele>121</ele>
        <time>2022-04-15T11:50:56Z</time>
      </trkpt>
      <trkpt lat="43.48628" lon="6.23458">
        <ele>121</ele>
        <time>2022-04-15T11:50:57Z</time>
      </trkpt>
      <trkpt lat="43.48628" lon="6.23458">
        <ele>121</ele>
        <time>2022-04-15T11:50:58Z</time>
      </trkpt>
      <trkpt lat="43.48628" lon="6.23458">
        <ele>121</ele>
        <time>2022-04-15T11:50:59Z</time>
      </trkpt>
      <trkpt lat="43.48628" lon="6.23458">
        <ele>122</ele>
        <time>2022-04-15T11:51:00Z</time>
      </trkpt>
      <trkpt lat="43.48628" lon="6.23458">
        <ele>122</ele>
        <time>2022-04-15T11:51:01Z</time>
      </trkpt>
      <trkpt lat="43.48628" lon="6.23458">
        <ele>122</ele>
        <time>2022-04-15T11:51:02Z</time>
      </trkpt>
      <trkpt lat="43.48628" lon="6.23458">
        <ele>122</ele>
        <time>2022-04-15T11:51:03Z</time>
      </trkpt>
      <trkpt lat="43.48628" lon="6.23458">
        <ele>122</ele>
        <time>2022-04-15T11:51:04Z</time>
      </trkpt>
      <trkpt lat="43.48628" lon="6.23458">
        <ele>122</ele>
        <time>2022-04-15T11:51:05Z</time>
      </trkpt>
      <trkpt lat="43.48628" lon="6.23458">
        <ele>122</ele>
        <time>2022-04-15T11:51:06Z</time>
      </trkpt>
      <trkpt lat="43.48628" lon="6.23458">
        <ele>122</ele>
        <time>2022-04-15T11:51:07Z</time>
      </trkpt>
      <trkpt lat="43.48628" lon="6.23458">
        <ele>122</ele>
        <time>2022-04-15T11:51:08Z</time>
      </trkpt>
      <trkpt lat="43.48628" lon="6.23458">
        <ele>122</ele>
        <time>2022-04-15T11:51:09Z</time>
      </trkpt>
      <trkpt lat="43.48628" lon="6.23458">
        <ele>122</ele>
        <time>2022-04-15T11:51:10Z</time>
      </trkpt>
      <trkpt lat="43.48628" lon="6.23458">
        <ele>122</ele>
        <time>2022-04-15T11:51:11Z</time>
      </trkpt>
      <trkpt lat="43.48628" lon="6.23458">
        <ele>122</ele>
        <time>2022-04-15T11:51:12Z</time>
      </trkpt>
      <trkpt lat="43.48628" lon="6.23458">
        <ele>122</ele>
        <time>2022-04-15T11:51:13Z</time>
      </trkpt>
      <trkpt lat="43.48628" lon="6.23458">
        <ele>122</ele>
        <time>2022-04-15T11:51:14Z</time>
      </trkpt>
      <trkpt lat="43.48628" lon="6.23458">
        <ele>122</ele>
        <time>2022-04-15T11:51:15Z</time>
      </trkpt>
      <trkpt lat="43.48628" lon="6.23458">
        <ele>122</ele>
        <time>2022-04-15T11:51:16Z</time>
      </trkpt>
      <trkpt lat="43.48628" lon="6.23458">
        <ele>123</ele>
        <time>2022-04-15T11:51:17Z</time>
      </trkpt>
      <trkpt lat="43.48628" lon="6.23458">
        <ele>123</ele>
        <time>2022-04-15T11:51:18Z</time>
      </trkpt>
      <trkpt lat="43.48628" lon="6.23458">
        <ele>123</ele>
        <time>2022-04-15T11:51:19Z</time>
      </trkpt>
      <trkpt lat="43.48628" lon="6.23458">
        <ele>123</ele>
        <time>2022-04-15T11:51:20Z</time>
      </trkpt>
      <trkpt lat="43.48628" lon="6.23458">
        <ele>123</ele>
        <time>2022-04-15T11:51:21Z</time>
      </trkpt>
      <trkpt lat="43.48628" lon="6.23458">
        <ele>123</ele>
        <time>2022-04-15T11:51:22Z</time>
      </trkpt>
      <trkpt lat="43.48628" lon="6.23458">
        <ele>123</ele>
        <time>2022-04-15T11:51:23Z</time>
      </trkpt>
      <trkpt lat="43.48628" lon="6.23458">
        <ele>123</ele>
        <time>2022-04-15T11:51:24Z</time>
      </trkpt>
      <trkpt lat="43.48628" lon="6.23458">
        <ele>123</ele>
        <time>2022-04-15T11:51:25Z</time>
      </trkpt>
      <trkpt lat="43.48628" lon="6.23458">
        <ele>123</ele>
        <time>2022-04-15T11:51:26Z</time>
      </trkpt>
      <trkpt lat="43.48628" lon="6.23458">
        <ele>123</ele>
        <time>2022-04-15T11:51:27Z</time>
      </trkpt>
      <trkpt lat="43.48628" lon="6.23458">
        <ele>123</ele>
        <time>2022-04-15T11:51:28Z</time>
      </trkpt>
      <trkpt lat="43.48628" lon="6.23458">
        <ele>123</ele>
        <time>2022-04-15T11:51:29Z</time>
      </trkpt>
      <trkpt lat="43.48628" lon="6.23458">
        <ele>123</ele>
        <time>2022-04-15T11:51:30Z</time>
      </trkpt>
      <trkpt lat="43.48628" lon="6.23458">
        <ele>123</ele>
        <time>2022-04-15T11:51:31Z</time>
      </trkpt>
      <trkpt lat="43.48628" lon="6.23458">
        <ele>123</ele>
        <time>2022-04-15T11:51:32Z</time>
      </trkpt>
      <trkpt lat="43.48628" lon="6.23458">
        <ele>123</ele>
        <time>2022-04-15T11:51:33Z</time>
      </trkpt>
      <trkpt lat="43.48628" lon="6.23458">
        <ele>123</ele>
        <time>2022-04-15T11:51:34Z</time>
      </trkpt>
      <trkpt lat="43.48628" lon="6.23458">
        <ele>123</ele>
        <time>2022-04-15T11:51:35Z</time>
      </trkpt>
      <trkpt lat="43.48628" lon="6.23458">
        <ele>123</ele>
        <time>2022-04-15T11:51:36Z</time>
      </trkpt>
      <trkpt lat="43.48628" lon="6.23458">
        <ele>123</ele>
        <time>2022-04-15T11:51:37Z</time>
      </trkpt>
      <trkpt lat="43.48628" lon="6.23458">
        <ele>123</ele>
        <time>2022-04-15T11:51:38Z</time>
      </trkpt>
      <trkpt lat="43.48628" lon="6.23458">
        <ele>123</ele>
        <time>2022-04-15T11:51:39Z</time>
      </trkpt>
      <trkpt lat="43.48628" lon="6.23458">
        <ele>124</ele>
        <time>2022-04-15T11:51:40Z</time>
      </trkpt>
      <trkpt lat="43.48628" lon="6.23458">
        <ele>124</ele>
        <time>2022-04-15T11:51:41Z</time>
      </trkpt>
      <trkpt lat="43.48628" lon="6.23458">
        <ele>124</ele>
        <time>2022-04-15T11:51:42Z</time>
      </trkpt>
      <trkpt lat="43.48628" lon="6.23458">
        <ele>124</ele>
        <time>2022-04-15T11:51:43Z</time>
      </trkpt>
      <trkpt lat="43.48628" lon="6.23458">
        <ele>124</ele>
        <time>2022-04-15T11:51:44Z</time>
      </trkpt>
      <trkpt lat="43.48628" lon="6.23458">
        <ele>124</ele>
        <time>2022-04-15T11:51:45Z</time>
      </trkpt>
      <trkpt lat="43.48628" lon="6.23458">
        <ele>124</ele>
        <time>2022-04-15T11:51:46Z</time>
      </trkpt>
      <trkpt lat="43.48628" lon="6.23458">
        <ele>124</ele>
        <time>2022-04-15T11:51:47Z</time>
      </trkpt>
      <trkpt lat="43.48628" lon="6.23458">
        <ele>124</ele>
        <time>2022-04-15T11:51:48Z</time>
      </trkpt>
      <trkpt lat="43.48628" lon="6.23458">
        <ele>124</ele>
        <time>2022-04-15T11:51:49Z</time>
      </trkpt>
      <trkpt lat="43.48628" lon="6.23458">
        <ele>124</ele>
        <time>2022-04-15T11:51:50Z</time>
      </trkpt>
      <trkpt lat="43.48628" lon="6.23458">
        <ele>124</ele>
        <time>2022-04-15T11:51:51Z</time>
      </trkpt>
      <trkpt lat="43.48628" lon="6.23458">
        <ele>124</ele>
        <time>2022-04-15T11:51:52Z</time>
      </trkpt>
      <trkpt lat="43.48628" lon="6.23458">
        <ele>124</ele>
        <time>2022-04-15T11:51:53Z</time>
      </trkpt>
      <trkpt lat="43.48628" lon="6.23458">
        <ele>124</ele>
        <time>2022-04-15T11:51:54Z</time>
      </trkpt>
      <trkpt lat="43.48628" lon="6.23458">
        <ele>124</ele>
        <time>2022-04-15T11:51:55Z</time>
      </trkpt>
      <trkpt lat="43.48628" lon="6.23458">
        <ele>124</ele>
        <time>2022-04-15T11:51:56Z</time>
      </trkpt>
      <trkpt lat="43.48628" lon="6.23458">
        <ele>124</ele>
        <time>2022-04-15T11:51:57Z</time>
      </trkpt>
      <trkpt lat="43.48628" lon="6.23458">
        <ele>124</ele>
        <time>2022-04-15T11:51:58Z</time>
      </trkpt>
      <trkpt lat="43.48628" lon="6.23458">
        <ele>124</ele>
        <time>2022-04-15T11:51:59Z</time>
      </trkpt>
      <trkpt lat="43.48628" lon="6.23458">
        <ele>124</ele>
        <time>2022-04-15T11:52:00Z</time>
      </trkpt>
      <trkpt lat="43.48628" lon="6.23458">
        <ele>124</ele>
        <time>2022-04-15T11:52:01Z</time>
      </trkpt>
      <trkpt lat="43.48628" lon="6.23458">
        <ele>124</ele>
        <time>2022-04-15T11:52:02Z</time>
      </trkpt>
      <trkpt lat="43.48628" lon="6.23458">
        <ele>124</ele>
        <time>2022-04-15T11:52:03Z</time>
      </trkpt>
      <trkpt lat="43.48628" lon="6.23458">
        <ele>124</ele>
        <time>2022-04-15T11:52:04Z</time>
      </trkpt>
      <trkpt lat="43.48628" lon="6.23458">
        <ele>124</ele>
        <time>2022-04-15T11:52:05Z</time>
      </trkpt>
      <trkpt lat="43.48628" lon="6.23458">
        <ele>124</ele>
        <time>2022-04-15T11:52:06Z</time>
      </trkpt>
      <trkpt lat="43.48628" lon="6.23458">
        <ele>124</ele>
        <time>2022-04-15T11:52:07Z</time>
      </trkpt>
      <trkpt lat="43.48628" lon="6.23458">
        <ele>124</ele>
        <time>2022-04-15T11:52:08Z</time>
      </trkpt>
      <trkpt lat="43.48628" lon="6.23458">
        <ele>124</ele>
        <time>2022-04-15T11:52:09Z</time>
      </trkpt>
      <trkpt lat="43.48628" lon="6.23458">
        <ele>124</ele>
        <time>2022-04-15T11:52:10Z</time>
      </trkpt>
      <trkpt lat="43.48628" lon="6.23458">
        <ele>124</ele>
        <time>2022-04-15T11:52:11Z</time>
      </trkpt>
      <trkpt lat="43.48628" lon="6.23458">
        <ele>124</ele>
        <time>2022-04-15T11:52:12Z</time>
      </trkpt>
      <trkpt lat="43.48628" lon="6.23458">
        <ele>125</ele>
        <time>2022-04-15T11:52:13Z</time>
      </trkpt>
      <trkpt lat="43.48628" lon="6.23458">
        <ele>125</ele>
        <time>2022-04-15T11:52:14Z</time>
      </trkpt>
      <trkpt lat="43.48628" lon="6.23458">
        <ele>125</ele>
        <time>2022-04-15T11:52:15Z</time>
      </trkpt>
      <trkpt lat="43.48628" lon="6.23458">
        <ele>125</ele>
        <time>2022-04-15T11:52:16Z</time>
      </trkpt>
      <trkpt lat="43.48628" lon="6.23458">
        <ele>125</ele>
        <time>2022-04-15T11:52:17Z</time>
      </trkpt>
      <trkpt lat="43.48628" lon="6.23458">
        <ele>125</ele>
        <time>2022-04-15T11:52:18Z</time>
      </trkpt>
      <trkpt lat="43.48628" lon="6.23458">
        <ele>125</ele>
        <time>2022-04-15T11:52:19Z</time>
      </trkpt>
      <trkpt lat="43.48628" lon="6.23458">
        <ele>125</ele>
        <time>2022-04-15T11:52:20Z</time>
      </trkpt>
      <trkpt lat="43.48628" lon="6.23458">
        <ele>125</ele>
        <time>2022-04-15T11:52:21Z</time>
      </trkpt>
      <trkpt lat="43.48628" lon="6.23458">
        <ele>125</ele>
        <time>2022-04-15T11:52:22Z</time>
      </trkpt>
      <trkpt lat="43.48628" lon="6.23458">
        <ele>125</ele>
        <time>2022-04-15T11:52:23Z</time>
      </trkpt>
      <trkpt lat="43.48628" lon="6.23458">
        <ele>125</ele>
        <time>2022-04-15T11:52:24Z</time>
      </trkpt>
      <trkpt lat="43.48628" lon="6.23458">
        <ele>125</ele>
        <time>2022-04-15T11:52:25Z</time>
      </trkpt>
      <trkpt lat="43.48628" lon="6.23458">
        <ele>125</ele>
        <time>2022-04-15T11:52:26Z</time>
      </trkpt>
      <trkpt lat="43.48628" lon="6.23458">
        <ele>125</ele>
        <time>2022-04-15T11:52:27Z</time>
      </trkpt>
      <trkpt lat="43.48628" lon="6.23458">
        <ele>125</ele>
        <time>2022-04-15T11:52:28Z</time>
      </trkpt>
      <trkpt lat="43.48628" lon="6.23458">
        <ele>125</ele>
        <time>2022-04-15T11:52:29Z</time>
      </trkpt>
      <trkpt lat="43.48628" lon="6.23458">
        <ele>125</ele>
        <time>2022-04-15T11:52:30Z</time>
      </trkpt>
      <trkpt lat="43.48628" lon="6.23458">
        <ele>125</ele>
        <time>2022-04-15T11:52:31Z</time>
      </trkpt>
      <trkpt lat="43.48628" lon="6.23458">
        <ele>125</ele>
        <time>2022-04-15T11:52:32Z</time>
      </trkpt>
      <trkpt lat="43.48628" lon="6.23458">
        <ele>125</ele>
        <time>2022-04-15T11:52:33Z</time>
      </trkpt>
      <trkpt lat="43.48628" lon="6.23458">
        <ele>125</ele>
        <time>2022-04-15T11:52:34Z</time>
      </trkpt>
      <trkpt lat="43.48628" lon="6.23458">
        <ele>125</ele>
        <time>2022-04-15T11:52:35Z</time>
      </trkpt>
      <trkpt lat="43.48628" lon="6.23458">
        <ele>125</ele>
        <time>2022-04-15T11:52:36Z</time>
      </trkpt>
      <trkpt lat="43.48628" lon="6.23458">
        <ele>125</ele>
        <time>2022-04-15T11:52:37Z</time>
      </trkpt>
      <trkpt lat="43.48628" lon="6.23458">
        <ele>125</ele>
        <time>2022-04-15T11:52:38Z</time>
      </trkpt>
      <trkpt lat="43.48628" lon="6.23458">
        <ele>125</ele>
        <time>2022-04-15T11:52:39Z</time>
      </trkpt>
      <trkpt lat="43.48628" lon="6.23458">
        <ele>125</ele>
        <time>2022-04-15T11:52:40Z</time>
      </trkpt>
      <trkpt lat="43.48628" lon="6.23458">
        <ele>125</ele>
        <time>2022-04-15T11:52:41Z</time>
      </trkpt>
      <trkpt lat="43.48628" lon="6.23458">
        <ele>125</ele>
        <time>2022-04-15T11:52:42Z</time>
      </trkpt>
      <trkpt lat="43.48628" lon="6.23458">
        <ele>125</ele>
        <time>2022-04-15T11:52:43Z</time>
      </trkpt>
      <trkpt lat="43.48628" lon="6.23458">
        <ele>125</ele>
        <time>2022-04-15T11:52:44Z</time>
      </trkpt>
      <trkpt lat="43.48628" lon="6.23458">
        <ele>125</ele>
        <time>2022-04-15T11:52:45Z</time>
      </trkpt>
      <trkpt lat="43.48628" lon="6.23458">
        <ele>125</ele>
        <time>2022-04-15T11:52:46Z</time>
      </trkpt>
      <trkpt lat="43.48628" lon="6.23458">
        <ele>125</ele>
        <time>2022-04-15T11:52:47Z</time>
      </trkpt>
      <trkpt lat="43.48628" lon="6.23458">
        <ele>125</ele>
        <time>2022-04-15T11:52:48Z</time>
      </trkpt>
      <trkpt lat="43.48628" lon="6.23458">
        <ele>125</ele>
        <time>2022-04-15T11:52:49Z</time>
      </trkpt>
      <trkpt lat="43.48628" lon="6.23461">
        <ele>125</ele>
        <time>2022-04-15T11:52:50Z</time>
      </trkpt>
      <trkpt lat="43.48628" lon="6.23461">
        <ele>125</ele>
        <time>2022-04-15T11:52:51Z</time>
      </trkpt>
      <trkpt lat="43.48628" lon="6.23461">
        <ele>125</ele>
        <time>2022-04-15T11:52:52Z</time>
      </trkpt>
      <trkpt lat="43.48628" lon="6.23461">
        <ele>125</ele>
        <time>2022-04-15T11:52:53Z</time>
      </trkpt>
      <trkpt lat="43.48628" lon="6.23461">
        <ele>125</ele>
        <time>2022-04-15T11:52:54Z</time>
      </trkpt>
      <trkpt lat="43.48628" lon="6.23461">
        <ele>125</ele>
        <time>2022-04-15T11:52:55Z</time>
      </trkpt>
      <trkpt lat="43.48628" lon="6.23461">
        <ele>125</ele>
        <time>2022-04-15T11:52:56Z</time>
      </trkpt>
      <trkpt lat="43.48628" lon="6.23461">
        <ele>125</ele>
        <time>2022-04-15T11:52:57Z</time>
      </trkpt>
      <trkpt lat="43.48628" lon="6.23461">
        <ele>125</ele>
        <time>2022-04-15T11:52:58Z</time>
      </trkpt>
      <trkpt lat="43.48628" lon="6.23461">
        <ele>125</ele>
        <time>2022-04-15T11:52:59Z</time>
      </trkpt>
      <trkpt lat="43.48628" lon="6.23461">
        <ele>125</ele>
        <time>2022-04-15T11:53:00Z</time>
      </trkpt>
      <trkpt lat="43.48628" lon="6.23461">
        <ele>125</ele>
        <time>2022-04-15T11:53:01Z</time>
      </trkpt>
      <trkpt lat="43.48628" lon="6.23461">
        <ele>125</ele>
        <time>2022-04-15T11:53:02Z</time>
      </trkpt>
      <trkpt lat="43.48628" lon="6.23461">
        <ele>126</ele>
        <time>2022-04-15T11:53:03Z</time>
      </trkpt>
      <trkpt lat="43.48628" lon="6.23461">
        <ele>126</ele>
        <time>2022-04-15T11:53:04Z</time>
      </trkpt>
      <trkpt lat="43.48628" lon="6.23461">
        <ele>126</ele>
        <time>2022-04-15T11:53:05Z</time>
      </trkpt>
      <trkpt lat="43.48628" lon="6.23461">
        <ele>126</ele>
        <time>2022-04-15T11:53:06Z</time>
      </trkpt>
      <trkpt lat="43.48628" lon="6.23461">
        <ele>126</ele>
        <time>2022-04-15T11:53:07Z</time>
      </trkpt>
      <trkpt lat="43.48628" lon="6.23461">
        <ele>126</ele>
        <time>2022-04-15T11:53:08Z</time>
      </trkpt>
      <trkpt lat="43.48628" lon="6.23461">
        <ele>126</ele>
        <time>2022-04-15T11:53:09Z</time>
      </trkpt>
      <trkpt lat="43.48628" lon="6.23461">
        <ele>126</ele>
        <time>2022-04-15T11:53:10Z</time>
      </trkpt>
      <trkpt lat="43.48628" lon="6.23461">
        <ele>126</ele>
        <time>2022-04-15T11:53:11Z</time>
      </trkpt>
      <trkpt lat="43.48628" lon="6.23461">
        <ele>126</ele>
        <time>2022-04-15T11:53:12Z</time>
      </trkpt>
      <trkpt lat="43.48628" lon="6.23461">
        <ele>126</ele>
        <time>2022-04-15T11:53:13Z</time>
      </trkpt>
      <trkpt lat="43.48628" lon="6.23461">
        <ele>126</ele>
        <time>2022-04-15T11:53:14Z</time>
      </trkpt>
      <trkpt lat="43.48628" lon="6.23461">
        <ele>126</ele>
        <time>2022-04-15T11:53:15Z</time>
      </trkpt>
      <trkpt lat="43.48628" lon="6.23461">
        <ele>126</ele>
        <time>2022-04-15T11:53:16Z</time>
      </trkpt>
      <trkpt lat="43.48628" lon="6.23461">
        <ele>126</ele>
        <time>2022-04-15T11:53:17Z</time>
      </trkpt>
      <trkpt lat="43.48628" lon="6.23461">
        <ele>126</ele>
        <time>2022-04-15T11:53:18Z</time>
      </trkpt>
      <trkpt lat="43.48628" lon="6.23461">
        <ele>126</ele>
        <time>2022-04-15T11:53:19Z</time>
      </trkpt>
      <trkpt lat="43.48628" lon="6.23461">
        <ele>126</ele>
        <time>2022-04-15T11:53:20Z</time>
      </trkpt>
      <trkpt lat="43.48627" lon="6.23462">
        <ele>126</ele>
        <time>2022-04-15T11:53:21Z</time>
      </trkpt>
      <trkpt lat="43.48627" lon="6.23462">
        <ele>126</ele>
        <time>2022-04-15T11:53:22Z</time>
      </trkpt>
      <trkpt lat="43.48626" lon="6.23462">
        <ele>126</ele>
        <time>2022-04-15T11:53:23Z</time>
      </trkpt>
      <trkpt lat="43.48626" lon="6.23462">
        <ele>126</ele>
        <time>2022-04-15T11:53:24Z</time>
      </trkpt>
      <trkpt lat="43.48625" lon="6.23462">
        <ele>126</ele>
        <time>2022-04-15T11:53:25Z</time>
      </trkpt>
      <trkpt lat="43.48625" lon="6.23462">
        <ele>126</ele>
        <time>2022-04-15T11:53:26Z</time>
      </trkpt>
      <trkpt lat="43.48624" lon="6.23462">
        <ele>126</ele>
        <time>2022-04-15T11:53:27Z</time>
      </trkpt>
      <trkpt lat="43.48624" lon="6.23462">
        <ele>126</ele>
        <time>2022-04-15T11:53:28Z</time>
      </trkpt>
      <trkpt lat="43.48624" lon="6.23462">
        <ele>126</ele>
        <time>2022-04-15T11:53:29Z</time>
      </trkpt>
      <trkpt lat="43.48624" lon="6.23462">
        <ele>126</ele>
        <time>2022-04-15T11:53:30Z</time>
      </trkpt>
      <trkpt lat="43.48624" lon="6.23462">
        <ele>126</ele>
        <time>2022-04-15T11:53:31Z</time>
      </trkpt>
      <trkpt lat="43.48624" lon="6.23462">
        <ele>126</ele>
        <time>2022-04-15T11:53:32Z</time>
      </trkpt>
      <trkpt lat="43.48623" lon="6.23462">
        <ele>126</ele>
        <time>2022-04-15T11:53:33Z</time>
      </trkpt>
      <trkpt lat="43.48623" lon="6.23462">
        <ele>126</ele>
        <time>2022-04-15T11:53:34Z</time>
      </trkpt>
      <trkpt lat="43.48623" lon="6.23463">
        <ele>126</ele>
        <time>2022-04-15T11:53:35Z</time>
      </trkpt>
      <trkpt lat="43.48622" lon="6.23463">
        <ele>126</ele>
        <time>2022-04-15T11:53:36Z</time>
      </trkpt>
      <trkpt lat="43.48622" lon="6.23463">
        <ele>126</ele>
        <time>2022-04-15T11:53:37Z</time>
      </trkpt>
      <trkpt lat="43.48621" lon="6.23463">
        <ele>126</ele>
        <time>2022-04-15T11:53:38Z</time>
      </trkpt>
      <trkpt lat="43.48621" lon="6.23464">
        <ele>126</ele>
        <time>2022-04-15T11:53:39Z</time>
      </trkpt>
      <trkpt lat="43.4862" lon="6.23465">
        <ele>126</ele>
        <time>2022-04-15T11:53:40Z</time>
      </trkpt>
      <trkpt lat="43.48618" lon="6.23465">
        <ele>126</ele>
        <time>2022-04-15T11:53:41Z</time>
      </trkpt>
      <trkpt lat="43.48618" lon="6.23466">
        <ele>126</ele>
        <time>2022-04-15T11:53:42Z</time>
      </trkpt>
      <trkpt lat="43.48617" lon="6.23466">
        <ele>126</ele>
        <time>2022-04-15T11:53:43Z</time>
      </trkpt>
      <trkpt lat="43.48616" lon="6.23466">
        <ele>126</ele>
        <time>2022-04-15T11:53:44Z</time>
      </trkpt>
      <trkpt lat="43.48615" lon="6.23467">
        <ele>126</ele>
        <time>2022-04-15T11:53:45Z</time>
      </trkpt>
      <trkpt lat="43.48615" lon="6.23467">
        <ele>126</ele>
        <time>2022-04-15T11:53:46Z</time>
      </trkpt>
      <trkpt lat="43.48614" lon="6.23467">
        <ele>126</ele>
        <time>2022-04-15T11:53:47Z</time>
      </trkpt>
      <trkpt lat="43.48613" lon="6.23467">
        <ele>126</ele>
        <time>2022-04-15T11:53:48Z</time>
      </trkpt>
      <trkpt lat="43.48612" lon="6.23467">
        <ele>126</ele>
        <time>2022-04-15T11:53:49Z</time>
      </trkpt>
      <trkpt lat="43.48611" lon="6.23467">
        <ele>126</ele>
        <time>2022-04-15T11:53:50Z</time>
      </trkpt>
      <trkpt lat="43.48611" lon="6.23467">
        <ele>126</ele>
        <time>2022-04-15T11:53:51Z</time>
      </trkpt>
      <trkpt lat="43.4861" lon="6.23467">
        <ele>126</ele>
        <time>2022-04-15T11:53:52Z</time>
      </trkpt>
      <trkpt lat="43.48609" lon="6.23467">
        <ele>128</ele>
        <time>2022-04-15T11:53:53Z</time>
      </trkpt>
      <trkpt lat="43.48609" lon="6.23466">
        <ele>129</ele>
        <time>2022-04-15T11:53:54Z</time>
      </trkpt>
      <trkpt lat="43.48608" lon="6.23466">
        <ele>129</ele>
        <time>2022-04-15T11:53:55Z</time>
      </trkpt>
      <trkpt lat="43.48608" lon="6.23466">
        <ele>129</ele>
        <time>2022-04-15T11:53:56Z</time>
      </trkpt>
      <trkpt lat="43.48607" lon="6.23465">
        <ele>129</ele>
        <time>2022-04-15T11:53:57Z</time>
      </trkpt>
      <trkpt lat="43.48606" lon="6.23464">
        <ele>129</ele>
        <time>2022-04-15T11:53:58Z</time>
      </trkpt>
      <trkpt lat="43.48604" lon="6.23463">
        <ele>130</ele>
        <time>2022-04-15T11:53:59Z</time>
      </trkpt>
      <trkpt lat="43.48603" lon="6.23462">
        <ele>130</ele>
        <time>2022-04-15T11:54:00Z</time>
      </trkpt>
      <trkpt lat="43.48602" lon="6.23461">
        <ele>130</ele>
        <time>2022-04-15T11:54:01Z</time>
      </trkpt>
      <trkpt lat="43.48602" lon="6.2346">
        <ele>130</ele>
        <time>2022-04-15T11:54:02Z</time>
      </trkpt>
      <trkpt lat="43.48601" lon="6.23459">
        <ele>130</ele>
        <time>2022-04-15T11:54:03Z</time>
      </trkpt>
      <trkpt lat="43.486" lon="6.23458">
        <ele>130</ele>
        <time>2022-04-15T11:54:04Z</time>
      </trkpt>
      <trkpt lat="43.486" lon="6.23457">
        <ele>130</ele>
        <time>2022-04-15T11:54:05Z</time>
      </trkpt>
      <trkpt lat="43.486" lon="6.23457">
        <ele>130</ele>
        <time>2022-04-15T11:54:06Z</time>
      </trkpt>
      <trkpt lat="43.48599" lon="6.23456">
        <ele>130</ele>
        <time>2022-04-15T11:54:07Z</time>
      </trkpt>
      <trkpt lat="43.48599" lon="6.23455">
        <ele>130</ele>
        <time>2022-04-15T11:54:08Z</time>
      </trkpt>
      <trkpt lat="43.48599" lon="6.23455">
        <ele>130</ele>
        <time>2022-04-15T11:54:09Z</time>
      </trkpt>
      <trkpt lat="43.48599" lon="6.23453">
        <ele>130</ele>
        <time>2022-04-15T11:54:10Z</time>
      </trkpt>
      <trkpt lat="43.48598" lon="6.23452">
        <ele>130</ele>
        <time>2022-04-15T11:54:11Z</time>
      </trkpt>
      <trkpt lat="43.48598" lon="6.23451">
        <ele>130</ele>
        <time>2022-04-15T11:54:12Z</time>
      </trkpt>
      <trkpt lat="43.48598" lon="6.2345">
        <ele>130</ele>
        <time>2022-04-15T11:54:13Z</time>
      </trkpt>
      <trkpt lat="43.48598" lon="6.23448">
        <ele>130</ele>
        <time>2022-04-15T11:54:14Z</time>
      </trkpt>
      <trkpt lat="43.48597" lon="6.23448">
        <ele>130</ele>
        <time>2022-04-15T11:54:15Z</time>
      </trkpt>
      <trkpt lat="43.48597" lon="6.23447">
        <ele>130</ele>
        <time>2022-04-15T11:54:16Z</time>
      </trkpt>
      <trkpt lat="43.48597" lon="6.23446">
        <ele>130</ele>
        <time>2022-04-15T11:54:17Z</time>
      </trkpt>
      <trkpt lat="43.48597" lon="6.23446">
        <ele>130</ele>
        <time>2022-04-15T11:54:18Z</time>
      </trkpt>
      <trkpt lat="43.48597" lon="6.23444">
        <ele>130</ele>
        <time>2022-04-15T11:54:19Z</time>
      </trkpt>
      <trkpt lat="43.48597" lon="6.23443">
        <ele>130</ele>
        <time>2022-04-15T11:54:20Z</time>
      </trkpt>
      <trkpt lat="43.48597" lon="6.23442">
        <ele>129</ele>
        <time>2022-04-15T11:54:21Z</time>
      </trkpt>
      <trkpt lat="43.48597" lon="6.23441">
        <ele>129</ele>
        <time>2022-04-15T11:54:22Z</time>
      </trkpt>
      <trkpt lat="43.48597" lon="6.2344">
        <ele>129</ele>
        <time>2022-04-15T11:54:23Z</time>
      </trkpt>
      <trkpt lat="43.48597" lon="6.23439">
        <ele>129</ele>
        <time>2022-04-15T11:54:24Z</time>
      </trkpt>
      <trkpt lat="43.48596" lon="6.23438">
        <ele>129</ele>
        <time>2022-04-15T11:54:25Z</time>
      </trkpt>
      <trkpt lat="43.48596" lon="6.23437">
        <ele>128</ele>
        <time>2022-04-15T11:54:26Z</time>
      </trkpt>
      <trkpt lat="43.48596" lon="6.23437">
        <ele>128</ele>
        <time>2022-04-15T11:54:27Z</time>
      </trkpt>
      <trkpt lat="43.48596" lon="6.23436">
        <ele>128</ele>
        <time>2022-04-15T11:54:28Z</time>
      </trkpt>
      <trkpt lat="43.48596" lon="6.23435">
        <ele>128</ele>
        <time>2022-04-15T11:54:29Z</time>
      </trkpt>
      <trkpt lat="43.48596" lon="6.23435">
        <ele>128</ele>
        <time>2022-04-15T11:54:30Z</time>
      </trkpt>
      <trkpt lat="43.48595" lon="6.23434">
        <ele>128</ele>
        <time>2022-04-15T11:54:31Z</time>
      </trkpt>
      <trkpt lat="43.48595" lon="6.23433">
        <ele>127</ele>
        <time>2022-04-15T11:54:32Z</time>
      </trkpt>
      <trkpt lat="43.48595" lon="6.23431">
        <ele>127</ele>
        <time>2022-04-15T11:54:33Z</time>
      </trkpt>
      <trkpt lat="43.48594" lon="6.2343">
        <ele>127</ele>
        <time>2022-04-15T11:54:34Z</time>
      </trkpt>
      <trkpt lat="43.48594" lon="6.23429">
        <ele>127</ele>
        <time>2022-04-15T11:54:35Z</time>
      </trkpt>
      <trkpt lat="43.48594" lon="6.23428">
        <ele>127</ele>
        <time>2022-04-15T11:54:36Z</time>
      </trkpt>
      <trkpt lat="43.48594" lon="6.23426">
        <ele>127</ele>
        <time>2022-04-15T11:54:37Z</time>
      </trkpt>
      <trkpt lat="43.48593" lon="6.23425">
        <ele>127</ele>
        <time>2022-04-15T11:54:38Z</time>
      </trkpt>
      <trkpt lat="43.48593" lon="6.23424">
        <ele>127</ele>
        <time>2022-04-15T11:54:39Z</time>
      </trkpt>
      <trkpt lat="43.48593" lon="6.23423">
        <ele>127</ele>
        <time>2022-04-15T11:54:40Z</time>
      </trkpt>
      <trkpt lat="43.48593" lon="6.23422">
        <ele>127</ele>
        <time>2022-04-15T11:54:41Z</time>
      </trkpt>
      <trkpt lat="43.48592" lon="6.23421">
        <ele>126</ele>
        <time>2022-04-15T11:54:42Z</time>
      </trkpt>
      <trkpt lat="43.48592" lon="6.2342">
        <ele>126</ele>
        <time>2022-04-15T11:54:43Z</time>
      </trkpt>
      <trkpt lat="43.48592" lon="6.23418">
        <ele>126</ele>
        <time>2022-04-15T11:54:44Z</time>
      </trkpt>
      <trkpt lat="43.48592" lon="6.23417">
        <ele>126</ele>
        <time>2022-04-15T11:54:45Z</time>
      </trkpt>
      <trkpt lat="43.48591" lon="6.23416">
        <ele>126</ele>
        <time>2022-04-15T11:54:46Z</time>
      </trkpt>
      <trkpt lat="43.48591" lon="6.23414">
        <ele>126</ele>
        <time>2022-04-15T11:54:47Z</time>
      </trkpt>
      <trkpt lat="43.48591" lon="6.23413">
        <ele>126</ele>
        <time>2022-04-15T11:54:48Z</time>
      </trkpt>
      <trkpt lat="43.48591" lon="6.23412">
        <ele>126</ele>
        <time>2022-04-15T11:54:49Z</time>
      </trkpt>
      <trkpt lat="43.4859" lon="6.23411">
        <ele>125</ele>
        <time>2022-04-15T11:54:50Z</time>
      </trkpt>
      <trkpt lat="43.4859" lon="6.23409">
        <ele>125</ele>
        <time>2022-04-15T11:54:51Z</time>
      </trkpt>
      <trkpt lat="43.4859" lon="6.23408">
        <ele>125</ele>
        <time>2022-04-15T11:54:52Z</time>
      </trkpt>
      <trkpt lat="43.4859" lon="6.23407">
        <ele>125</ele>
        <time>2022-04-15T11:54:53Z</time>
      </trkpt>
      <trkpt lat="43.48589" lon="6.23405">
        <ele>125</ele>
        <time>2022-04-15T11:54:54Z</time>
      </trkpt>
      <trkpt lat="43.48589" lon="6.23404">
        <ele>125</ele>
        <time>2022-04-15T11:54:55Z</time>
      </trkpt>
      <trkpt lat="43.48589" lon="6.23403">
        <ele>125</ele>
        <time>2022-04-15T11:54:56Z</time>
      </trkpt>
      <trkpt lat="43.48589" lon="6.23401">
        <ele>125</ele>
        <time>2022-04-15T11:54:57Z</time>
      </trkpt>
      <trkpt lat="43.48589" lon="6.234">
        <ele>125</ele>
        <time>2022-04-15T11:54:58Z</time>
      </trkpt>
      <trkpt lat="43.48588" lon="6.23398">
        <ele>125</ele>
        <time>2022-04-15T11:54:59Z</time>
      </trkpt>
      <trkpt lat="43.48588" lon="6.23397">
        <ele>125</ele>
        <time>2022-04-15T11:55:00Z</time>
      </trkpt>
      <trkpt lat="43.48588" lon="6.23395">
        <ele>125</ele>
        <time>2022-04-15T11:55:01Z</time>
      </trkpt>
      <trkpt lat="43.48588" lon="6.23394">
        <ele>125</ele>
        <time>2022-04-15T11:55:02Z</time>
      </trkpt>
      <trkpt lat="43.48588" lon="6.23393">
        <ele>125</ele>
        <time>2022-04-15T11:55:03Z</time>
      </trkpt>
      <trkpt lat="43.48588" lon="6.23391">
        <ele>125</ele>
        <time>2022-04-15T11:55:04Z</time>
      </trkpt>
      <trkpt lat="43.48587" lon="6.2339">
        <ele>125</ele>
        <time>2022-04-15T11:55:05Z</time>
      </trkpt>
      <trkpt lat="43.48587" lon="6.23389">
        <ele>125</ele>
        <time>2022-04-15T11:55:06Z</time>
      </trkpt>
      <trkpt lat="43.48586" lon="6.23386">
        <ele>125</ele>
        <time>2022-04-15T11:55:07Z</time>
      </trkpt>
      <trkpt lat="43.48585" lon="6.23384">
        <ele>125</ele>
        <time>2022-04-15T11:55:08Z</time>
      </trkpt>
      <trkpt lat="43.48585" lon="6.23382">
        <ele>124</ele>
        <time>2022-04-15T11:55:09Z</time>
      </trkpt>
      <trkpt lat="43.48584" lon="6.23379">
        <ele>124</ele>
        <time>2022-04-15T11:55:10Z</time>
      </trkpt>
      <trkpt lat="43.48584" lon="6.23377">
        <ele>124</ele>
        <time>2022-04-15T11:55:11Z</time>
      </trkpt>
      <trkpt lat="43.48583" lon="6.23375">
        <ele>124</ele>
        <time>2022-04-15T11:55:12Z</time>
      </trkpt>
      <trkpt lat="43.48582" lon="6.23373">
        <ele>124</ele>
        <time>2022-04-15T11:55:13Z</time>
      </trkpt>
      <trkpt lat="43.48582" lon="6.23372">
        <ele>124</ele>
        <time>2022-04-15T11:55:14Z</time>
      </trkpt>
      <trkpt lat="43.48582" lon="6.2337">
        <ele>124</ele>
        <time>2022-04-15T11:55:15Z</time>
      </trkpt>
      <trkpt lat="43.48582" lon="6.23369">
        <ele>124</ele>
        <time>2022-04-15T11:55:16Z</time>
      </trkpt>
      <trkpt lat="43.48581" lon="6.23367">
        <ele>124</ele>
        <time>2022-04-15T11:55:17Z</time>
      </trkpt>
      <trkpt lat="43.48581" lon="6.23366">
        <ele>124</ele>
        <time>2022-04-15T11:55:18Z</time>
      </trkpt>
      <trkpt lat="43.48581" lon="6.23364">
        <ele>124</ele>
        <time>2022-04-15T11:55:19Z</time>
      </trkpt>
      <trkpt lat="43.4858" lon="6.23363">
        <ele>124</ele>
        <time>2022-04-15T11:55:20Z</time>
      </trkpt>
      <trkpt lat="43.4858" lon="6.23362">
        <ele>124</ele>
        <time>2022-04-15T11:55:21Z</time>
      </trkpt>
      <trkpt lat="43.48579" lon="6.23361">
        <ele>124</ele>
        <time>2022-04-15T11:55:22Z</time>
      </trkpt>
      <trkpt lat="43.48579" lon="6.2336">
        <ele>124</ele>
        <time>2022-04-15T11:55:23Z</time>
      </trkpt>
      <trkpt lat="43.48579" lon="6.23359">
        <ele>124</ele>
        <time>2022-04-15T11:55:24Z</time>
      </trkpt>
      <trkpt lat="43.48579" lon="6.23357">
        <ele>124</ele>
        <time>2022-04-15T11:55:25Z</time>
      </trkpt>
      <trkpt lat="43.48578" lon="6.23356">
        <ele>124</ele>
        <time>2022-04-15T11:55:26Z</time>
      </trkpt>
      <trkpt lat="43.48578" lon="6.23355">
        <ele>124</ele>
        <time>2022-04-15T11:55:27Z</time>
      </trkpt>
      <trkpt lat="43.48578" lon="6.23354">
        <ele>124</ele>
        <time>2022-04-15T11:55:28Z</time>
      </trkpt>
      <trkpt lat="43.48578" lon="6.23353">
        <ele>124</ele>
        <time>2022-04-15T11:55:29Z</time>
      </trkpt>
      <trkpt lat="43.48578" lon="6.23352">
        <ele>124</ele>
        <time>2022-04-15T11:55:30Z</time>
      </trkpt>
      <trkpt lat="43.48578" lon="6.23351">
        <ele>124</ele>
        <time>2022-04-15T11:55:31Z</time>
      </trkpt>
      <trkpt lat="43.48578" lon="6.23349">
        <ele>124</ele>
        <time>2022-04-15T11:55:32Z</time>
      </trkpt>
      <trkpt lat="43.48577" lon="6.23348">
        <ele>124</ele>
        <time>2022-04-15T11:55:33Z</time>
      </trkpt>
      <trkpt lat="43.48577" lon="6.23347">
        <ele>124</ele>
        <time>2022-04-15T11:55:34Z</time>
      </trkpt>
      <trkpt lat="43.48577" lon="6.23346">
        <ele>124</ele>
        <time>2022-04-15T11:55:35Z</time>
      </trkpt>
      <trkpt lat="43.48577" lon="6.23344">
        <ele>124</ele>
        <time>2022-04-15T11:55:36Z</time>
      </trkpt>
      <trkpt lat="43.48577" lon="6.23343">
        <ele>124</ele>
        <time>2022-04-15T11:55:37Z</time>
      </trkpt>
      <trkpt lat="43.48577" lon="6.23342">
        <ele>124</ele>
        <time>2022-04-15T11:55:38Z</time>
      </trkpt>
      <trkpt lat="43.48576" lon="6.2334">
        <ele>124</ele>
        <time>2022-04-15T11:55:39Z</time>
      </trkpt>
      <trkpt lat="43.48576" lon="6.23339">
        <ele>124</ele>
        <time>2022-04-15T11:55:40Z</time>
      </trkpt>
      <trkpt lat="43.48576" lon="6.23338">
        <ele>124</ele>
        <time>2022-04-15T11:55:41Z</time>
      </trkpt>
      <trkpt lat="43.48576" lon="6.23336">
        <ele>124</ele>
        <time>2022-04-15T11:55:42Z</time>
      </trkpt>
      <trkpt lat="43.48576" lon="6.23335">
        <ele>124</ele>
        <time>2022-04-15T11:55:43Z</time>
      </trkpt>
      <trkpt lat="43.48575" lon="6.23334">
        <ele>124</ele>
        <time>2022-04-15T11:55:44Z</time>
      </trkpt>
      <trkpt lat="43.48575" lon="6.23332">
        <ele>124</ele>
        <time>2022-04-15T11:55:45Z</time>
      </trkpt>
      <trkpt lat="43.48575" lon="6.23331">
        <ele>124</ele>
        <time>2022-04-15T11:55:46Z</time>
      </trkpt>
      <trkpt lat="43.48575" lon="6.2333">
        <ele>124</ele>
        <time>2022-04-15T11:55:47Z</time>
      </trkpt>
      <trkpt lat="43.48575" lon="6.23329">
        <ele>124</ele>
        <time>2022-04-15T11:55:48Z</time>
      </trkpt>
      <trkpt lat="43.48575" lon="6.23328">
        <ele>124</ele>
        <time>2022-04-15T11:55:49Z</time>
      </trkpt>
      <trkpt lat="43.48574" lon="6.23327">
        <ele>124</ele>
        <time>2022-04-15T11:55:50Z</time>
      </trkpt>
      <trkpt lat="43.48574" lon="6.23327">
        <ele>124</ele>
        <time>2022-04-15T11:55:51Z</time>
      </trkpt>
      <trkpt lat="43.48574" lon="6.23326">
        <ele>124</ele>
        <time>2022-04-15T11:55:52Z</time>
      </trkpt>
      <trkpt lat="43.48574" lon="6.23325">
        <ele>124</ele>
        <time>2022-04-15T11:55:53Z</time>
      </trkpt>
      <trkpt lat="43.48574" lon="6.23325">
        <ele>124</ele>
        <time>2022-04-15T11:55:54Z</time>
      </trkpt>
      <trkpt lat="43.48573" lon="6.23324">
        <ele>124</ele>
        <time>2022-04-15T11:55:55Z</time>
      </trkpt>
      <trkpt lat="43.48573" lon="6.23323">
        <ele>124</ele>
        <time>2022-04-15T11:55:56Z</time>
      </trkpt>
      <trkpt lat="43.48573" lon="6.23323">
        <ele>124</ele>
        <time>2022-04-15T11:55:57Z</time>
      </trkpt>
      <trkpt lat="43.48573" lon="6.23322">
        <ele>124</ele>
        <time>2022-04-15T11:55:58Z</time>
      </trkpt>
      <trkpt lat="43.48573" lon="6.23322">
        <ele>124</ele>
        <time>2022-04-15T11:55:59Z</time>
      </trkpt>
      <trkpt lat="43.48573" lon="6.23321">
        <ele>124</ele>
        <time>2022-04-15T11:56:00Z</time>
      </trkpt>
      <trkpt lat="43.48573" lon="6.23321">
        <ele>124</ele>
        <time>2022-04-15T11:56:01Z</time>
      </trkpt>
      <trkpt lat="43.48573" lon="6.23321">
        <ele>124</ele>
        <time>2022-04-15T11:56:02Z</time>
      </trkpt>
      <trkpt lat="43.48573" lon="6.23321">
        <ele>124</ele>
        <time>2022-04-15T11:56:03Z</time>
      </trkpt>
      <trkpt lat="43.48573" lon="6.23321">
        <ele>124</ele>
        <time>2022-04-15T11:56:04Z</time>
      </trkpt>
      <trkpt lat="43.48573" lon="6.23321">
        <ele>124</ele>
        <time>2022-04-15T11:56:05Z</time>
      </trkpt>
      <trkpt lat="43.48573" lon="6.23321">
        <ele>124</ele>
        <time>2022-04-15T11:56:06Z</time>
      </trkpt>
      <trkpt lat="43.48572" lon="6.23321">
        <ele>124</ele>
        <time>2022-04-15T11:56:07Z</time>
      </trkpt>
      <trkpt lat="43.48572" lon="6.23321">
        <ele>124</ele>
        <time>2022-04-15T11:56:08Z</time>
      </trkpt>
      <trkpt lat="43.48572" lon="6.23321">
        <ele>124</ele>
        <time>2022-04-15T11:56:09Z</time>
      </trkpt>
      <trkpt lat="43.48572" lon="6.23321">
        <ele>124</ele>
        <time>2022-04-15T11:56:10Z</time>
      </trkpt>
      <trkpt lat="43.48572" lon="6.23321">
        <ele>124</ele>
        <time>2022-04-15T11:56:11Z</time>
      </trkpt>
      <trkpt lat="43.48572" lon="6.23321">
        <ele>124</ele>
        <time>2022-04-15T11:56:12Z</time>
      </trkpt>
      <trkpt lat="43.48571" lon="6.2332">
        <ele>124</ele>
        <time>2022-04-15T11:56:13Z</time>
      </trkpt>
      <trkpt lat="43.4857" lon="6.23321">
        <ele>124</ele>
        <time>2022-04-15T11:56:14Z</time>
      </trkpt>
      <trkpt lat="43.4857" lon="6.23321">
        <ele>124</ele>
        <time>2022-04-15T11:56:15Z</time>
      </trkpt>
      <trkpt lat="43.48569" lon="6.2332">
        <ele>124</ele>
        <time>2022-04-15T11:56:16Z</time>
      </trkpt>
      <trkpt lat="43.48568" lon="6.2332">
        <ele>124</ele>
        <time>2022-04-15T11:56:17Z</time>
      </trkpt>
      <trkpt lat="43.48568" lon="6.2332">
        <ele>124</ele>
        <time>2022-04-15T11:56:18Z</time>
      </trkpt>
      <trkpt lat="43.48567" lon="6.23319">
        <ele>124</ele>
        <time>2022-04-15T11:56:19Z</time>
      </trkpt>
      <trkpt lat="43.48567" lon="6.23319">
        <ele>124</ele>
        <time>2022-04-15T11:56:20Z</time>
      </trkpt>
      <trkpt lat="43.48566" lon="6.23318">
        <ele>124</ele>
        <time>2022-04-15T11:56:21Z</time>
      </trkpt>
      <trkpt lat="43.48565" lon="6.23317">
        <ele>124</ele>
        <time>2022-04-15T11:56:22Z</time>
      </trkpt>
      <trkpt lat="43.48564" lon="6.23317">
        <ele>124</ele>
        <time>2022-04-15T11:56:23Z</time>
      </trkpt>
      <trkpt lat="43.48564" lon="6.23317">
        <ele>124</ele>
        <time>2022-04-15T11:56:24Z</time>
      </trkpt>
      <trkpt lat="43.48563" lon="6.23317">
        <ele>124</ele>
        <time>2022-04-15T11:56:25Z</time>
      </trkpt>
      <trkpt lat="43.48562" lon="6.23317">
        <ele>124</ele>
        <time>2022-04-15T11:56:26Z</time>
      </trkpt>
      <trkpt lat="43.48562" lon="6.23317">
        <ele>124</ele>
        <time>2022-04-15T11:56:27Z</time>
      </trkpt>
      <trkpt lat="43.48562" lon="6.23317">
        <ele>124</ele>
        <time>2022-04-15T11:56:28Z</time>
      </trkpt>
      <trkpt lat="43.48561" lon="6.23317">
        <ele>124</ele>
        <time>2022-04-15T11:56:29Z</time>
      </trkpt>
      <trkpt lat="43.48561" lon="6.23316">
        <ele>124</ele>
        <time>2022-04-15T11:56:30Z</time>
      </trkpt>
      <trkpt lat="43.48561" lon="6.23317">
        <ele>124</ele>
        <time>2022-04-15T11:56:31Z</time>
      </trkpt>
      <trkpt lat="43.48561" lon="6.23317">
        <ele>124</ele>
        <time>2022-04-15T11:56:32Z</time>
      </trkpt>
      <trkpt lat="43.48561" lon="6.23316">
        <ele>124</ele>
        <time>2022-04-15T11:56:33Z</time>
      </trkpt>
      <trkpt lat="43.48561" lon="6.23316">
        <ele>124</ele>
        <time>2022-04-15T11:56:34Z</time>
      </trkpt>
      <trkpt lat="43.48561" lon="6.23316">
        <ele>124</ele>
        <time>2022-04-15T11:56:35Z</time>
      </trkpt>
      <trkpt lat="43.4856" lon="6.23315">
        <ele>124</ele>
        <time>2022-04-15T11:56:36Z</time>
      </trkpt>
      <trkpt lat="43.4856" lon="6.23315">
        <ele>124</ele>
        <time>2022-04-15T11:56:37Z</time>
      </trkpt>
      <trkpt lat="43.4856" lon="6.23314">
        <ele>124</ele>
        <time>2022-04-15T11:56:38Z</time>
      </trkpt>
      <trkpt lat="43.48559" lon="6.23313">
        <ele>124</ele>
        <time>2022-04-15T11:56:39Z</time>
      </trkpt>
      <trkpt lat="43.48559" lon="6.23312">
        <ele>124</ele>
        <time>2022-04-15T11:56:40Z</time>
      </trkpt>
      <trkpt lat="43.48558" lon="6.23312">
        <ele>124</ele>
        <time>2022-04-15T11:56:41Z</time>
      </trkpt>
      <trkpt lat="43.48558" lon="6.23312">
        <ele>124</ele>
        <time>2022-04-15T11:56:42Z</time>
      </trkpt>
      <trkpt lat="43.48557" lon="6.23312">
        <ele>124</ele>
        <time>2022-04-15T11:56:43Z</time>
      </trkpt>
      <trkpt lat="43.48556" lon="6.23312">
        <ele>124</ele>
        <time>2022-04-15T11:56:44Z</time>
      </trkpt>
      <trkpt lat="43.48556" lon="6.23312">
        <ele>124</ele>
        <time>2022-04-15T11:56:45Z</time>
      </trkpt>
      <trkpt lat="43.48555" lon="6.23311">
        <ele>124</ele>
        <time>2022-04-15T11:56:46Z</time>
      </trkpt>
      <trkpt lat="43.48554" lon="6.2331">
        <ele>124</ele>
        <time>2022-04-15T11:56:47Z</time>
      </trkpt>
      <trkpt lat="43.48554" lon="6.23309">
        <ele>124</ele>
        <time>2022-04-15T11:56:48Z</time>
      </trkpt>
      <trkpt lat="43.48554" lon="6.23308">
        <ele>125</ele>
        <time>2022-04-15T11:56:49Z</time>
      </trkpt>
      <trkpt lat="43.48553" lon="6.23306">
        <ele>125</ele>
        <time>2022-04-15T11:56:50Z</time>
      </trkpt>
      <trkpt lat="43.48553" lon="6.23306">
        <ele>125</ele>
        <time>2022-04-15T11:56:51Z</time>
      </trkpt>
      <trkpt lat="43.48552" lon="6.23305">
        <ele>125</ele>
        <time>2022-04-15T11:56:52Z</time>
      </trkpt>
      <trkpt lat="43.48551" lon="6.23305">
        <ele>125</ele>
        <time>2022-04-15T11:56:53Z</time>
      </trkpt>
      <trkpt lat="43.4855" lon="6.23305">
        <ele>125</ele>
        <time>2022-04-15T11:56:54Z</time>
      </trkpt>
      <trkpt lat="43.4855" lon="6.23305">
        <ele>125</ele>
        <time>2022-04-15T11:56:55Z</time>
      </trkpt>
      <trkpt lat="43.48549" lon="6.23306">
        <ele>125</ele>
        <time>2022-04-15T11:56:56Z</time>
      </trkpt>
      <trkpt lat="43.48549" lon="6.23306">
        <ele>125</ele>
        <time>2022-04-15T11:56:57Z</time>
      </trkpt>
      <trkpt lat="43.48549" lon="6.23306">
        <ele>126</ele>
        <time>2022-04-15T11:56:58Z</time>
      </trkpt>
      <trkpt lat="43.48549" lon="6.23306">
        <ele>126</ele>
        <time>2022-04-15T11:56:59Z</time>
      </trkpt>
      <trkpt lat="43.48549" lon="6.23306">
        <ele>126</ele>
        <time>2022-04-15T11:57:00Z</time>
      </trkpt>
      <trkpt lat="43.48549" lon="6.23306">
        <ele>126</ele>
        <time>2022-04-15T11:57:01Z</time>
      </trkpt>
      <trkpt lat="43.48549" lon="6.23306">
        <ele>126</ele>
        <time>2022-04-15T11:57:02Z</time>
      </trkpt>
      <trkpt lat="43.48549" lon="6.23306">
        <ele>126</ele>
        <time>2022-04-15T11:57:03Z</time>
      </trkpt>
      <trkpt lat="43.48549" lon="6.23306">
        <ele>125</ele>
        <time>2022-04-15T11:57:04Z</time>
      </trkpt>
      <trkpt lat="43.48549" lon="6.23306">
        <ele>125</ele>
        <time>2022-04-15T11:57:05Z</time>
      </trkpt>
      <trkpt lat="43.48548" lon="6.23306">
        <ele>125</ele>
        <time>2022-04-15T11:57:06Z</time>
      </trkpt>
      <trkpt lat="43.48547" lon="6.23306">
        <ele>125</ele>
        <time>2022-04-15T11:57:07Z</time>
      </trkpt>
      <trkpt lat="43.48546" lon="6.23306">
        <ele>125</ele>
        <time>2022-04-15T11:57:08Z</time>
      </trkpt>
      <trkpt lat="43.48545" lon="6.23305">
        <ele>125</ele>
        <time>2022-04-15T11:57:09Z</time>
      </trkpt>
      <trkpt lat="43.48544" lon="6.23305">
        <ele>125</ele>
        <time>2022-04-15T11:57:10Z</time>
      </trkpt>
      <trkpt lat="43.48543" lon="6.23305">
        <ele>124</ele>
        <time>2022-04-15T11:57:11Z</time>
      </trkpt>
      <trkpt lat="43.48541" lon="6.23305">
        <ele>124</ele>
        <time>2022-04-15T11:57:12Z</time>
      </trkpt>
      <trkpt lat="43.4854" lon="6.23305">
        <ele>124</ele>
        <time>2022-04-15T11:57:13Z</time>
      </trkpt>
      <trkpt lat="43.48539" lon="6.23305">
        <ele>123</ele>
        <time>2022-04-15T11:57:14Z</time>
      </trkpt>
      <trkpt lat="43.48538" lon="6.23306">
        <ele>123</ele>
        <time>2022-04-15T11:57:15Z</time>
      </trkpt>
      <trkpt lat="43.48537" lon="6.23306">
        <ele>123</ele>
        <time>2022-04-15T11:57:16Z</time>
      </trkpt>
      <trkpt lat="43.48537" lon="6.23306">
        <ele>119</ele>
        <time>2022-04-15T11:57:17Z</time>
      </trkpt>
      <trkpt lat="43.48536" lon="6.23306">
        <ele>118</ele>
        <time>2022-04-15T11:57:18Z</time>
      </trkpt>
      <trkpt lat="43.48535" lon="6.23307">
        <ele>118</ele>
        <time>2022-04-15T11:57:19Z</time>
      </trkpt>
      <trkpt lat="43.48534" lon="6.23307">
        <ele>118</ele>
        <time>2022-04-15T11:57:20Z</time>
      </trkpt>
      <trkpt lat="43.48533" lon="6.23307">
        <ele>117</ele>
        <time>2022-04-15T11:57:21Z</time>
      </trkpt>
      <trkpt lat="43.48532" lon="6.23306">
        <ele>117</ele>
        <time>2022-04-15T11:57:22Z</time>
      </trkpt>
      <trkpt lat="43.48531" lon="6.23305">
        <ele>117</ele>
        <time>2022-04-15T11:57:23Z</time>
      </trkpt>
      <trkpt lat="43.4853" lon="6.23305">
        <ele>117</ele>
        <time>2022-04-15T11:57:24Z</time>
      </trkpt>
      <trkpt lat="43.48529" lon="6.23304">
        <ele>117</ele>
        <time>2022-04-15T11:57:25Z</time>
      </trkpt>
      <trkpt lat="43.48528" lon="6.23304">
        <ele>117</ele>
        <time>2022-04-15T11:57:26Z</time>
      </trkpt>
      <trkpt lat="43.48527" lon="6.23304">
        <ele>117</ele>
        <time>2022-04-15T11:57:27Z</time>
      </trkpt>
      <trkpt lat="43.48526" lon="6.23304">
        <ele>117</ele>
        <time>2022-04-15T11:57:28Z</time>
      </trkpt>
      <trkpt lat="43.48526" lon="6.23304">
        <ele>117</ele>
        <time>2022-04-15T11:57:29Z</time>
      </trkpt>
      <trkpt lat="43.48525" lon="6.23304">
        <ele>117</ele>
        <time>2022-04-15T11:57:30Z</time>
      </trkpt>
      <trkpt lat="43.48524" lon="6.23304">
        <ele>117</ele>
        <time>2022-04-15T11:57:31Z</time>
      </trkpt>
      <trkpt lat="43.48523" lon="6.23303">
        <ele>117</ele>
        <time>2022-04-15T11:57:32Z</time>
      </trkpt>
      <trkpt lat="43.48522" lon="6.23303">
        <ele>117</ele>
        <time>2022-04-15T11:57:33Z</time>
      </trkpt>
      <trkpt lat="43.48521" lon="6.23302">
        <ele>117</ele>
        <time>2022-04-15T11:57:34Z</time>
      </trkpt>
      <trkpt lat="43.4852" lon="6.23302">
        <ele>117</ele>
        <time>2022-04-15T11:57:35Z</time>
      </trkpt>
      <trkpt lat="43.48519" lon="6.23302">
        <ele>117</ele>
        <time>2022-04-15T11:57:36Z</time>
      </trkpt>
      <trkpt lat="43.48518" lon="6.23302">
        <ele>117</ele>
        <time>2022-04-15T11:57:37Z</time>
      </trkpt>
      <trkpt lat="43.48517" lon="6.23302">
        <ele>117</ele>
        <time>2022-04-15T11:57:38Z</time>
      </trkpt>
      <trkpt lat="43.48516" lon="6.23302">
        <ele>117</ele>
        <time>2022-04-15T11:57:39Z</time>
      </trkpt>
      <trkpt lat="43.48515" lon="6.23302">
        <ele>117</ele>
        <time>2022-04-15T11:57:40Z</time>
      </trkpt>
      <trkpt lat="43.48514" lon="6.23302">
        <ele>117</ele>
        <time>2022-04-15T11:57:41Z</time>
      </trkpt>
      <trkpt lat="43.48513" lon="6.23302">
        <ele>117</ele>
        <time>2022-04-15T11:57:42Z</time>
      </trkpt>
      <trkpt lat="43.48512" lon="6.23302">
        <ele>117</ele>
        <time>2022-04-15T11:57:43Z</time>
      </trkpt>
      <trkpt lat="43.48511" lon="6.23302">
        <ele>117</ele>
        <time>2022-04-15T11:57:44Z</time>
      </trkpt>
      <trkpt lat="43.48509" lon="6.23302">
        <ele>117</ele>
        <time>2022-04-15T11:57:45Z</time>
      </trkpt>
      <trkpt lat="43.48508" lon="6.23301">
        <ele>117</ele>
        <time>2022-04-15T11:57:46Z</time>
      </trkpt>
      <trkpt lat="43.48507" lon="6.23301">
        <ele>117</ele>
        <time>2022-04-15T11:57:47Z</time>
      </trkpt>
      <trkpt lat="43.48506" lon="6.233">
        <ele>117</ele>
        <time>2022-04-15T11:57:48Z</time>
      </trkpt>
      <trkpt lat="43.48505" lon="6.233">
        <ele>118</ele>
        <time>2022-04-15T11:57:49Z</time>
      </trkpt>
      <trkpt lat="43.48505" lon="6.233">
        <ele>118</ele>
        <time>2022-04-15T11:57:50Z</time>
      </trkpt>
      <trkpt lat="43.48504" lon="6.233">
        <ele>118</ele>
        <time>2022-04-15T11:57:51Z</time>
      </trkpt>
      <trkpt lat="43.48503" lon="6.233">
        <ele>118</ele>
        <time>2022-04-15T11:57:52Z</time>
      </trkpt>
      <trkpt lat="43.48502" lon="6.233">
        <ele>118</ele>
        <time>2022-04-15T11:57:53Z</time>
      </trkpt>
      <trkpt lat="43.48501" lon="6.233">
        <ele>118</ele>
        <time>2022-04-15T11:57:54Z</time>
      </trkpt>
      <trkpt lat="43.485" lon="6.233">
        <ele>118</ele>
        <time>2022-04-15T11:57:55Z</time>
      </trkpt>
      <trkpt lat="43.48499" lon="6.23299">
        <ele>118</ele>
        <time>2022-04-15T11:57:56Z</time>
      </trkpt>
      <trkpt lat="43.48499" lon="6.23299">
        <ele>118</ele>
        <time>2022-04-15T11:57:57Z</time>
      </trkpt>
      <trkpt lat="43.48498" lon="6.23299">
        <ele>118</ele>
        <time>2022-04-15T11:57:58Z</time>
      </trkpt>
      <trkpt lat="43.48497" lon="6.23299">
        <ele>119</ele>
        <time>2022-04-15T11:57:59Z</time>
      </trkpt>
      <trkpt lat="43.48496" lon="6.23299">
        <ele>119</ele>
        <time>2022-04-15T11:58:00Z</time>
      </trkpt>
      <trkpt lat="43.48496" lon="6.23298">
        <ele>119</ele>
        <time>2022-04-15T11:58:01Z</time>
      </trkpt>
      <trkpt lat="43.48495" lon="6.23298">
        <ele>119</ele>
        <time>2022-04-15T11:58:02Z</time>
      </trkpt>
      <trkpt lat="43.48494" lon="6.23298">
        <ele>119</ele>
        <time>2022-04-15T11:58:03Z</time>
      </trkpt>
      <trkpt lat="43.48494" lon="6.23298">
        <ele>119</ele>
        <time>2022-04-15T11:58:04Z</time>
      </trkpt>
      <trkpt lat="43.48493" lon="6.23298">
        <ele>119</ele>
        <time>2022-04-15T11:58:05Z</time>
      </trkpt>
      <trkpt lat="43.48492" lon="6.23297">
        <ele>119</ele>
        <time>2022-04-15T11:58:06Z</time>
      </trkpt>
      <trkpt lat="43.48491" lon="6.23297">
        <ele>119</ele>
        <time>2022-04-15T11:58:07Z</time>
      </trkpt>
      <trkpt lat="43.4849" lon="6.23297">
        <ele>119</ele>
        <time>2022-04-15T11:58:08Z</time>
      </trkpt>
      <trkpt lat="43.48489" lon="6.23297">
        <ele>119</ele>
        <time>2022-04-15T11:58:09Z</time>
      </trkpt>
      <trkpt lat="43.48488" lon="6.23297">
        <ele>119</ele>
        <time>2022-04-15T11:58:10Z</time>
      </trkpt>
      <trkpt lat="43.48487" lon="6.23297">
        <ele>119</ele>
        <time>2022-04-15T11:58:11Z</time>
      </trkpt>
      <trkpt lat="43.48485" lon="6.23297">
        <ele>119</ele>
        <time>2022-04-15T11:58:12Z</time>
      </trkpt>
      <trkpt lat="43.48484" lon="6.23296">
        <ele>119</ele>
        <time>2022-04-15T11:58:13Z</time>
      </trkpt>
      <trkpt lat="43.48483" lon="6.23296">
        <ele>119</ele>
        <time>2022-04-15T11:58:14Z</time>
      </trkpt>
      <trkpt lat="43.48482" lon="6.23296">
        <ele>118</ele>
        <time>2022-04-15T11:58:15Z</time>
      </trkpt>
      <trkpt lat="43.48481" lon="6.23296">
        <ele>118</ele>
        <time>2022-04-15T11:58:16Z</time>
      </trkpt>
      <trkpt lat="43.4848" lon="6.23296">
        <ele>118</ele>
        <time>2022-04-15T11:58:17Z</time>
      </trkpt>
      <trkpt lat="43.48479" lon="6.23295">
        <ele>118</ele>
        <time>2022-04-15T11:58:18Z</time>
      </trkpt>
      <trkpt lat="43.48478" lon="6.23295">
        <ele>118</ele>
        <time>2022-04-15T11:58:19Z</time>
      </trkpt>
      <trkpt lat="43.48477" lon="6.23295">
        <ele>117</ele>
        <time>2022-04-15T11:58:20Z</time>
      </trkpt>
      <trkpt lat="43.48477" lon="6.23294">
        <ele>117</ele>
        <time>2022-04-15T11:58:21Z</time>
      </trkpt>
      <trkpt lat="43.48476" lon="6.23294">
        <ele>117</ele>
        <time>2022-04-15T11:58:22Z</time>
      </trkpt>
      <trkpt lat="43.48475" lon="6.23294">
        <ele>117</ele>
        <time>2022-04-15T11:58:23Z</time>
      </trkpt>
      <trkpt lat="43.48474" lon="6.23293">
        <ele>117</ele>
        <time>2022-04-15T11:58:24Z</time>
      </trkpt>
      <trkpt lat="43.48473" lon="6.23293">
        <ele>117</ele>
        <time>2022-04-15T11:58:25Z</time>
      </trkpt>
      <trkpt lat="43.48472" lon="6.23293">
        <ele>117</ele>
        <time>2022-04-15T11:58:26Z</time>
      </trkpt>
      <trkpt lat="43.48471" lon="6.23293">
        <ele>117</ele>
        <time>2022-04-15T11:58:27Z</time>
      </trkpt>
      <trkpt lat="43.4847" lon="6.23292">
        <ele>117</ele>
        <time>2022-04-15T11:58:28Z</time>
      </trkpt>
      <trkpt lat="43.4847" lon="6.23292">
        <ele>117</ele>
        <time>2022-04-15T11:58:29Z</time>
      </trkpt>
      <trkpt lat="43.48468" lon="6.23292">
        <ele>117</ele>
        <time>2022-04-15T11:58:30Z</time>
      </trkpt>
      <trkpt lat="43.48467" lon="6.23292">
        <ele>117</ele>
        <time>2022-04-15T11:58:31Z</time>
      </trkpt>
      <trkpt lat="43.48466" lon="6.23292">
        <ele>117</ele>
        <time>2022-04-15T11:58:32Z</time>
      </trkpt>
      <trkpt lat="43.48465" lon="6.23291">
        <ele>117</ele>
        <time>2022-04-15T11:58:33Z</time>
      </trkpt>
      <trkpt lat="43.48464" lon="6.23292">
        <ele>117</ele>
        <time>2022-04-15T11:58:34Z</time>
      </trkpt>
      <trkpt lat="43.48463" lon="6.23292">
        <ele>117</ele>
        <time>2022-04-15T11:58:35Z</time>
      </trkpt>
      <trkpt lat="43.48462" lon="6.23292">
        <ele>117</ele>
        <time>2022-04-15T11:58:36Z</time>
      </trkpt>
      <trkpt lat="43.48461" lon="6.23292">
        <ele>116</ele>
        <time>2022-04-15T11:58:37Z</time>
      </trkpt>
      <trkpt lat="43.4846" lon="6.23292">
        <ele>116</ele>
        <time>2022-04-15T11:58:38Z</time>
      </trkpt>
      <trkpt lat="43.48459" lon="6.23291">
        <ele>116</ele>
        <time>2022-04-15T11:58:39Z</time>
      </trkpt>
      <trkpt lat="43.48458" lon="6.23292">
        <ele>116</ele>
        <time>2022-04-15T11:58:40Z</time>
      </trkpt>
      <trkpt lat="43.48456" lon="6.23292">
        <ele>116</ele>
        <time>2022-04-15T11:58:41Z</time>
      </trkpt>
      <trkpt lat="43.48455" lon="6.23291">
        <ele>116</ele>
        <time>2022-04-15T11:58:42Z</time>
      </trkpt>
      <trkpt lat="43.48454" lon="6.23291">
        <ele>116</ele>
        <time>2022-04-15T11:58:43Z</time>
      </trkpt>
      <trkpt lat="43.48453" lon="6.23291">
        <ele>116</ele>
        <time>2022-04-15T11:58:44Z</time>
      </trkpt>
      <trkpt lat="43.48452" lon="6.2329">
        <ele>116</ele>
        <time>2022-04-15T11:58:45Z</time>
      </trkpt>
      <trkpt lat="43.48451" lon="6.23289">
        <ele>116</ele>
        <time>2022-04-15T11:58:46Z</time>
      </trkpt>
      <trkpt lat="43.4845" lon="6.23289">
        <ele>116</ele>
        <time>2022-04-15T11:58:47Z</time>
      </trkpt>
      <trkpt lat="43.48449" lon="6.23288">
        <ele>116</ele>
        <time>2022-04-15T11:58:48Z</time>
      </trkpt>
      <trkpt lat="43.48448" lon="6.23287">
        <ele>116</ele>
        <time>2022-04-15T11:58:49Z</time>
      </trkpt>
      <trkpt lat="43.48447" lon="6.23286">
        <ele>116</ele>
        <time>2022-04-15T11:58:50Z</time>
      </trkpt>
      <trkpt lat="43.48446" lon="6.23286">
        <ele>116</ele>
        <time>2022-04-15T11:58:51Z</time>
      </trkpt>
      <trkpt lat="43.48446" lon="6.23285">
        <ele>116</ele>
        <time>2022-04-15T11:58:52Z</time>
      </trkpt>
      <trkpt lat="43.48445" lon="6.23284">
        <ele>116</ele>
        <time>2022-04-15T11:58:53Z</time>
      </trkpt>
      <trkpt lat="43.48445" lon="6.23284">
        <ele>117</ele>
        <time>2022-04-15T11:58:54Z</time>
      </trkpt>
      <trkpt lat="43.48444" lon="6.23283">
        <ele>117</ele>
        <time>2022-04-15T11:58:55Z</time>
      </trkpt>
      <trkpt lat="43.48443" lon="6.23283">
        <ele>117</ele>
        <time>2022-04-15T11:58:56Z</time>
      </trkpt>
      <trkpt lat="43.48442" lon="6.23283">
        <ele>117</ele>
        <time>2022-04-15T11:58:57Z</time>
      </trkpt>
      <trkpt lat="43.48442" lon="6.23283">
        <ele>117</ele>
        <time>2022-04-15T11:58:58Z</time>
      </trkpt>
      <trkpt lat="43.48441" lon="6.23283">
        <ele>117</ele>
        <time>2022-04-15T11:58:59Z</time>
      </trkpt>
      <trkpt lat="43.4844" lon="6.23282">
        <ele>117</ele>
        <time>2022-04-15T11:59:00Z</time>
      </trkpt>
      <trkpt lat="43.48439" lon="6.23281">
        <ele>118</ele>
        <time>2022-04-15T11:59:01Z</time>
      </trkpt>
      <trkpt lat="43.48439" lon="6.23281">
        <ele>118</ele>
        <time>2022-04-15T11:59:02Z</time>
      </trkpt>
      <trkpt lat="43.48438" lon="6.23281">
        <ele>118</ele>
        <time>2022-04-15T11:59:03Z</time>
      </trkpt>
      <trkpt lat="43.48437" lon="6.23281">
        <ele>118</ele>
        <time>2022-04-15T11:59:04Z</time>
      </trkpt>
      <trkpt lat="43.48436" lon="6.23281">
        <ele>118</ele>
        <time>2022-04-15T11:59:05Z</time>
      </trkpt>
      <trkpt lat="43.48435" lon="6.2328">
        <ele>118</ele>
        <time>2022-04-15T11:59:06Z</time>
      </trkpt>
      <trkpt lat="43.48434" lon="6.2328">
        <ele>118</ele>
        <time>2022-04-15T11:59:07Z</time>
      </trkpt>
      <trkpt lat="43.48433" lon="6.23279">
        <ele>118</ele>
        <time>2022-04-15T11:59:08Z</time>
      </trkpt>
      <trkpt lat="43.48432" lon="6.23279">
        <ele>118</ele>
        <time>2022-04-15T11:59:09Z</time>
      </trkpt>
      <trkpt lat="43.48431" lon="6.23278">
        <ele>119</ele>
        <time>2022-04-15T11:59:10Z</time>
      </trkpt>
      <trkpt lat="43.4843" lon="6.23278">
        <ele>119</ele>
        <time>2022-04-15T11:59:11Z</time>
      </trkpt>
      <trkpt lat="43.4843" lon="6.23277">
        <ele>119</ele>
        <time>2022-04-15T11:59:12Z</time>
      </trkpt>
      <trkpt lat="43.48429" lon="6.23277">
        <ele>120</ele>
        <time>2022-04-15T11:59:13Z</time>
      </trkpt>
      <trkpt lat="43.48428" lon="6.23277">
        <ele>120</ele>
        <time>2022-04-15T11:59:14Z</time>
      </trkpt>
      <trkpt lat="43.48427" lon="6.23277">
        <ele>120</ele>
        <time>2022-04-15T11:59:15Z</time>
      </trkpt>
      <trkpt lat="43.48426" lon="6.23277">
        <ele>120</ele>
        <time>2022-04-15T11:59:16Z</time>
      </trkpt>
      <trkpt lat="43.48425" lon="6.23277">
        <ele>120</ele>
        <time>2022-04-15T11:59:17Z</time>
      </trkpt>
      <trkpt lat="43.48424" lon="6.23276">
        <ele>121</ele>
        <time>2022-04-15T11:59:18Z</time>
      </trkpt>
      <trkpt lat="43.48423" lon="6.23276">
        <ele>121</ele>
        <time>2022-04-15T11:59:19Z</time>
      </trkpt>
      <trkpt lat="43.48422" lon="6.23276">
        <ele>121</ele>
        <time>2022-04-15T11:59:20Z</time>
      </trkpt>
      <trkpt lat="43.48421" lon="6.23274">
        <ele>121</ele>
        <time>2022-04-15T11:59:21Z</time>
      </trkpt>
      <trkpt lat="43.4842" lon="6.23273">
        <ele>121</ele>
        <time>2022-04-15T11:59:22Z</time>
      </trkpt>
      <trkpt lat="43.48419" lon="6.23273">
        <ele>121</ele>
        <time>2022-04-15T11:59:23Z</time>
      </trkpt>
      <trkpt lat="43.48418" lon="6.23272">
        <ele>121</ele>
        <time>2022-04-15T11:59:24Z</time>
      </trkpt>
      <trkpt lat="43.48417" lon="6.23272">
        <ele>121</ele>
        <time>2022-04-15T11:59:25Z</time>
      </trkpt>
      <trkpt lat="43.48416" lon="6.23272">
        <ele>121</ele>
        <time>2022-04-15T11:59:26Z</time>
      </trkpt>
      <trkpt lat="43.48415" lon="6.23272">
        <ele>121</ele>
        <time>2022-04-15T11:59:27Z</time>
      </trkpt>
      <trkpt lat="43.48414" lon="6.23272">
        <ele>121</ele>
        <time>2022-04-15T11:59:28Z</time>
      </trkpt>
      <trkpt lat="43.48414" lon="6.23271">
        <ele>121</ele>
        <time>2022-04-15T11:59:29Z</time>
      </trkpt>
      <trkpt lat="43.48413" lon="6.23271">
        <ele>121</ele>
        <time>2022-04-15T11:59:30Z</time>
      </trkpt>
      <trkpt lat="43.48412" lon="6.23271">
        <ele>121</ele>
        <time>2022-04-15T11:59:31Z</time>
      </trkpt>
      <trkpt lat="43.48411" lon="6.23271">
        <ele>121</ele>
        <time>2022-04-15T11:59:32Z</time>
      </trkpt>
      <trkpt lat="43.4841" lon="6.23271">
        <ele>121</ele>
        <time>2022-04-15T11:59:33Z</time>
      </trkpt>
      <trkpt lat="43.48409" lon="6.23271">
        <ele>121</ele>
        <time>2022-04-15T11:59:34Z</time>
      </trkpt>
      <trkpt lat="43.48408" lon="6.23271">
        <ele>121</ele>
        <time>2022-04-15T11:59:35Z</time>
      </trkpt>
      <trkpt lat="43.48407" lon="6.23271">
        <ele>121</ele>
        <time>2022-04-15T11:59:36Z</time>
      </trkpt>
      <trkpt lat="43.48406" lon="6.2327">
        <ele>121</ele>
        <time>2022-04-15T11:59:37Z</time>
      </trkpt>
      <trkpt lat="43.48405" lon="6.2327">
        <ele>121</ele>
        <time>2022-04-15T11:59:38Z</time>
      </trkpt>
      <trkpt lat="43.48404" lon="6.2327">
        <ele>120</ele>
        <time>2022-04-15T11:59:39Z</time>
      </trkpt>
      <trkpt lat="43.48403" lon="6.2327">
        <ele>120</ele>
        <time>2022-04-15T11:59:40Z</time>
      </trkpt>
      <trkpt lat="43.48402" lon="6.23269">
        <ele>120</ele>
        <time>2022-04-15T11:59:41Z</time>
      </trkpt>
      <trkpt lat="43.48401" lon="6.23268">
        <ele>120</ele>
        <time>2022-04-15T11:59:42Z</time>
      </trkpt>
      <trkpt lat="43.48399" lon="6.23267">
        <ele>120</ele>
        <time>2022-04-15T11:59:43Z</time>
      </trkpt>
      <trkpt lat="43.48398" lon="6.23267">
        <ele>120</ele>
        <time>2022-04-15T11:59:44Z</time>
      </trkpt>
      <trkpt lat="43.48397" lon="6.23267">
        <ele>121</ele>
        <time>2022-04-15T11:59:45Z</time>
      </trkpt>
      <trkpt lat="43.48397" lon="6.23267">
        <ele>121</ele>
        <time>2022-04-15T11:59:46Z</time>
      </trkpt>
      <trkpt lat="43.48395" lon="6.23267">
        <ele>121</ele>
        <time>2022-04-15T11:59:47Z</time>
      </trkpt>
      <trkpt lat="43.48394" lon="6.23267">
        <ele>121</ele>
        <time>2022-04-15T11:59:48Z</time>
      </trkpt>
      <trkpt lat="43.48393" lon="6.23267">
        <ele>120</ele>
        <time>2022-04-15T11:59:49Z</time>
      </trkpt>
      <trkpt lat="43.48392" lon="6.23267">
        <ele>120</ele>
        <time>2022-04-15T11:59:50Z</time>
      </trkpt>
      <trkpt lat="43.48391" lon="6.23266">
        <ele>120</ele>
        <time>2022-04-15T11:59:51Z</time>
      </trkpt>
      <trkpt lat="43.4839" lon="6.23266">
        <ele>120</ele>
        <time>2022-04-15T11:59:52Z</time>
      </trkpt>
      <trkpt lat="43.48388" lon="6.23266">
        <ele>120</ele>
        <time>2022-04-15T11:59:53Z</time>
      </trkpt>
      <trkpt lat="43.48387" lon="6.23266">
        <ele>120</ele>
        <time>2022-04-15T11:59:54Z</time>
      </trkpt>
      <trkpt lat="43.48386" lon="6.23265">
        <ele>120</ele>
        <time>2022-04-15T11:59:55Z</time>
      </trkpt>
      <trkpt lat="43.48385" lon="6.23265">
        <ele>120</ele>
        <time>2022-04-15T11:59:56Z</time>
      </trkpt>
      <trkpt lat="43.48384" lon="6.23265">
        <ele>120</ele>
        <time>2022-04-15T11:59:57Z</time>
      </trkpt>
      <trkpt lat="43.48383" lon="6.23264">
        <ele>119</ele>
        <time>2022-04-15T11:59:58Z</time>
      </trkpt>
      <trkpt lat="43.48382" lon="6.23264">
        <ele>119</ele>
        <time>2022-04-15T11:59:59Z</time>
      </trkpt>
      <trkpt lat="43.48381" lon="6.23264">
        <ele>119</ele>
        <time>2022-04-15T12:00:00Z</time>
      </trkpt>
      <trkpt lat="43.48379" lon="6.23264">
        <ele>119</ele>
        <time>2022-04-15T12:00:01Z</time>
      </trkpt>
      <trkpt lat="43.48378" lon="6.23264">
        <ele>119</ele>
        <time>2022-04-15T12:00:02Z</time>
      </trkpt>
      <trkpt lat="43.48377" lon="6.23263">
        <ele>120</ele>
        <time>2022-04-15T12:00:03Z</time>
      </trkpt>
      <trkpt lat="43.48375" lon="6.23263">
        <ele>120</ele>
        <time>2022-04-15T12:00:04Z</time>
      </trkpt>
      <trkpt lat="43.48374" lon="6.23263">
        <ele>120</ele>
        <time>2022-04-15T12:00:05Z</time>
      </trkpt>
      <trkpt lat="43.48373" lon="6.23262">
        <ele>120</ele>
        <time>2022-04-15T12:00:06Z</time>
      </trkpt>
      <trkpt lat="43.48371" lon="6.23262">
        <ele>120</ele>
        <time>2022-04-15T12:00:07Z</time>
      </trkpt>
      <trkpt lat="43.4837" lon="6.23262">
        <ele>120</ele>
        <time>2022-04-15T12:00:08Z</time>
      </trkpt>
      <trkpt lat="43.48369" lon="6.23261">
        <ele>120</ele>
        <time>2022-04-15T12:00:09Z</time>
      </trkpt>
      <trkpt lat="43.48368" lon="6.23261">
        <ele>120</ele>
        <time>2022-04-15T12:00:10Z</time>
      </trkpt>
      <trkpt lat="43.48367" lon="6.23261">
        <ele>120</ele>
        <time>2022-04-15T12:00:11Z</time>
      </trkpt>
      <trkpt lat="43.48365" lon="6.2326">
        <ele>120</ele>
        <time>2022-04-15T12:00:12Z</time>
      </trkpt>
      <trkpt lat="43.48364" lon="6.2326">
        <ele>120</ele>
        <time>2022-04-15T12:00:13Z</time>
      </trkpt>
      <trkpt lat="43.48363" lon="6.2326">
        <ele>120</ele>
        <time>2022-04-15T12:00:14Z</time>
      </trkpt>
      <trkpt lat="43.48361" lon="6.2326">
        <ele>120</ele>
        <time>2022-04-15T12:00:15Z</time>
      </trkpt>
      <trkpt lat="43.4836" lon="6.2326">
        <ele>120</ele>
        <time>2022-04-15T12:00:16Z</time>
      </trkpt>
      <trkpt lat="43.48358" lon="6.23259">
        <ele>120</ele>
        <time>2022-04-15T12:00:17Z</time>
      </trkpt>
      <trkpt lat="43.48357" lon="6.23259">
        <ele>121</ele>
        <time>2022-04-15T12:00:18Z</time>
      </trkpt>
      <trkpt lat="43.48356" lon="6.23259">
        <ele>121</ele>
        <time>2022-04-15T12:00:19Z</time>
      </trkpt>
      <trkpt lat="43.48355" lon="6.23259">
        <ele>121</ele>
        <time>2022-04-15T12:00:20Z</time>
      </trkpt>
      <trkpt lat="43.48353" lon="6.23259">
        <ele>121</ele>
        <time>2022-04-15T12:00:21Z</time>
      </trkpt>
      <trkpt lat="43.48352" lon="6.23258">
        <ele>121</ele>
        <time>2022-04-15T12:00:22Z</time>
      </trkpt>
      <trkpt lat="43.48351" lon="6.23258">
        <ele>121</ele>
        <time>2022-04-15T12:00:23Z</time>
      </trkpt>
      <trkpt lat="43.4835" lon="6.23258">
        <ele>121</ele>
        <time>2022-04-15T12:00:24Z</time>
      </trkpt>
      <trkpt lat="43.48348" lon="6.23258">
        <ele>121</ele>
        <time>2022-04-15T12:00:25Z</time>
      </trkpt>
      <trkpt lat="43.48347" lon="6.23259">
        <ele>121</ele>
        <time>2022-04-15T12:00:26Z</time>
      </trkpt>
      <trkpt lat="43.48346" lon="6.23258">
        <ele>121</ele>
        <time>2022-04-15T12:00:27Z</time>
      </trkpt>
      <trkpt lat="43.48345" lon="6.23259">
        <ele>121</ele>
        <time>2022-04-15T12:00:28Z</time>
      </trkpt>
      <trkpt lat="43.48344" lon="6.23259">
        <ele>121</ele>
        <time>2022-04-15T12:00:29Z</time>
      </trkpt>
      <trkpt lat="43.48343" lon="6.23259">
        <ele>121</ele>
        <time>2022-04-15T12:00:30Z</time>
      </trkpt>
      <trkpt lat="43.48342" lon="6.23259">
        <ele>121</ele>
        <time>2022-04-15T12:00:31Z</time>
      </trkpt>
      <trkpt lat="43.48341" lon="6.23259">
        <ele>122</ele>
        <time>2022-04-15T12:00:32Z</time>
      </trkpt>
      <trkpt lat="43.48341" lon="6.2326">
        <ele>122</ele>
        <time>2022-04-15T12:00:33Z</time>
      </trkpt>
      <trkpt lat="43.4834" lon="6.2326">
        <ele>122</ele>
        <time>2022-04-15T12:00:34Z</time>
      </trkpt>
      <trkpt lat="43.48339" lon="6.23261">
        <ele>122</ele>
        <time>2022-04-15T12:00:35Z</time>
      </trkpt>
      <trkpt lat="43.48339" lon="6.23261">
        <ele>122</ele>
        <time>2022-04-15T12:00:36Z</time>
      </trkpt>
      <trkpt lat="43.48338" lon="6.23261">
        <ele>121</ele>
        <time>2022-04-15T12:00:37Z</time>
      </trkpt>
      <trkpt lat="43.48338" lon="6.23262">
        <ele>121</ele>
        <time>2022-04-15T12:00:38Z</time>
      </trkpt>
      <trkpt lat="43.48337" lon="6.23263">
        <ele>121</ele>
        <time>2022-04-15T12:00:39Z</time>
      </trkpt>
      <trkpt lat="43.48337" lon="6.23264">
        <ele>121</ele>
        <time>2022-04-15T12:00:40Z</time>
      </trkpt>
      <trkpt lat="43.48336" lon="6.23265">
        <ele>121</ele>
        <time>2022-04-15T12:00:41Z</time>
      </trkpt>
      <trkpt lat="43.48336" lon="6.23266">
        <ele>121</ele>
        <time>2022-04-15T12:00:42Z</time>
      </trkpt>
      <trkpt lat="43.48335" lon="6.23267">
        <ele>121</ele>
        <time>2022-04-15T12:00:43Z</time>
      </trkpt>
      <trkpt lat="43.48335" lon="6.23268">
        <ele>121</ele>
        <time>2022-04-15T12:00:44Z</time>
      </trkpt>
      <trkpt lat="43.48335" lon="6.23269">
        <ele>120</ele>
        <time>2022-04-15T12:00:45Z</time>
      </trkpt>
      <trkpt lat="43.48334" lon="6.2327">
        <ele>120</ele>
        <time>2022-04-15T12:00:46Z</time>
      </trkpt>
      <trkpt lat="43.48333" lon="6.23271">
        <ele>120</ele>
        <time>2022-04-15T12:00:47Z</time>
      </trkpt>
      <trkpt lat="43.48333" lon="6.23272">
        <ele>120</ele>
        <time>2022-04-15T12:00:48Z</time>
      </trkpt>
      <trkpt lat="43.48332" lon="6.23273">
        <ele>120</ele>
        <time>2022-04-15T12:00:49Z</time>
      </trkpt>
      <trkpt lat="43.48332" lon="6.23273">
        <ele>120</ele>
        <time>2022-04-15T12:00:50Z</time>
      </trkpt>
      <trkpt lat="43.48332" lon="6.23274">
        <ele>120</ele>
        <time>2022-04-15T12:00:51Z</time>
      </trkpt>
      <trkpt lat="43.48332" lon="6.23275">
        <ele>120</ele>
        <time>2022-04-15T12:00:52Z</time>
      </trkpt>
      <trkpt lat="43.48332" lon="6.23276">
        <ele>120</ele>
        <time>2022-04-15T12:00:53Z</time>
      </trkpt>
      <trkpt lat="43.48333" lon="6.23276">
        <ele>120</ele>
        <time>2022-04-15T12:00:54Z</time>
      </trkpt>
      <trkpt lat="43.48333" lon="6.23276">
        <ele>120</ele>
        <time>2022-04-15T12:00:55Z</time>
      </trkpt>
      <trkpt lat="43.48333" lon="6.23276">
        <ele>120</ele>
        <time>2022-04-15T12:00:56Z</time>
      </trkpt>
      <trkpt lat="43.48332" lon="6.23277">
        <ele>120</ele>
        <time>2022-04-15T12:00:57Z</time>
      </trkpt>
      <trkpt lat="43.48332" lon="6.23277">
        <ele>120</ele>
        <time>2022-04-15T12:00:58Z</time>
      </trkpt>
      <trkpt lat="43.48333" lon="6.23277">
        <ele>120</ele>
        <time>2022-04-15T12:00:59Z</time>
      </trkpt>
      <trkpt lat="43.48333" lon="6.23277">
        <ele>120</ele>
        <time>2022-04-15T12:01:00Z</time>
      </trkpt>
      <trkpt lat="43.48333" lon="6.23277">
        <ele>120</ele>
        <time>2022-04-15T12:01:01Z</time>
      </trkpt>
      <trkpt lat="43.48333" lon="6.23277">
        <ele>120</ele>
        <time>2022-04-15T12:01:02Z</time>
      </trkpt>
      <trkpt lat="43.48333" lon="6.23277">
        <ele>120</ele>
        <time>2022-04-15T12:01:03Z</time>
      </trkpt>
      <trkpt lat="43.48333" lon="6.23277">
        <ele>120</ele>
        <time>2022-04-15T12:01:04Z</time>
      </trkpt>
      <trkpt lat="43.48333" lon="6.23277">
        <ele>120</ele>
        <time>2022-04-15T12:01:05Z</time>
      </trkpt>
      <trkpt lat="43.48333" lon="6.23277">
        <ele>120</ele>
        <time>2022-04-15T12:01:06Z</time>
      </trkpt>
      <trkpt lat="43.48333" lon="6.23277">
        <ele>120</ele>
        <time>2022-04-15T12:01:07Z</time>
      </trkpt>
      <trkpt lat="43.48333" lon="6.23277">
        <ele>120</ele>
        <time>2022-04-15T12:01:08Z</time>
      </trkpt>
      <trkpt lat="43.48333" lon="6.23277">
        <ele>120</ele>
        <time>2022-04-15T12:01:09Z</time>
      </trkpt>
      <trkpt lat="43.48333" lon="6.23277">
        <ele>120</ele>
        <time>2022-04-15T12:01:10Z</time>
      </trkpt>
      <trkpt lat="43.48333" lon="6.23277">
        <ele>120</ele>
        <time>2022-04-15T12:01:11Z</time>
      </trkpt>
      <trkpt lat="43.48333" lon="6.23277">
        <ele>120</ele>
        <time>2022-04-15T12:01:12Z</time>
      </trkpt>
      <trkpt lat="43.48333" lon="6.23277">
        <ele>120</ele>
        <time>2022-04-15T12:01:13Z</time>
      </trkpt>
      <trkpt lat="43.48332" lon="6.23274">
        <ele>120</ele>
        <time>2022-04-15T12:01:14Z</time>
      </trkpt>
      <trkpt lat="43.48331" lon="6.23274">
        <ele>120</ele>
        <time>2022-04-15T12:01:15Z</time>
      </trkpt>
      <trkpt lat="43.4833" lon="6.23274">
        <ele>120</ele>
        <time>2022-04-15T12:01:16Z</time>
      </trkpt>
      <trkpt lat="43.48328" lon="6.23274">
        <ele>120</ele>
        <time>2022-04-15T12:01:17Z</time>
      </trkpt>
      <trkpt lat="43.48326" lon="6.23276">
        <ele>120</ele>
        <time>2022-04-15T12:01:18Z</time>
      </trkpt>
      <trkpt lat="43.48324" lon="6.23277">
        <ele>121</ele>
        <time>2022-04-15T12:01:19Z</time>
      </trkpt>
      <trkpt lat="43.48323" lon="6.23277">
        <ele>121</ele>
        <time>2022-04-15T12:01:20Z</time>
      </trkpt>
      <trkpt lat="43.48322" lon="6.23278">
        <ele>120</ele>
        <time>2022-04-15T12:01:21Z</time>
      </trkpt>
      <trkpt lat="43.48321" lon="6.23279">
        <ele>120</ele>
        <time>2022-04-15T12:01:22Z</time>
      </trkpt>
      <trkpt lat="43.4832" lon="6.2328">
        <ele>120</ele>
        <time>2022-04-15T12:01:23Z</time>
      </trkpt>
      <trkpt lat="43.48319" lon="6.2328">
        <ele>120</ele>
        <time>2022-04-15T12:01:24Z</time>
      </trkpt>
      <trkpt lat="43.48319" lon="6.23282">
        <ele>120</ele>
        <time>2022-04-15T12:01:25Z</time>
      </trkpt>
      <trkpt lat="43.48319" lon="6.23283">
        <ele>120</ele>
        <time>2022-04-15T12:01:26Z</time>
      </trkpt>
      <trkpt lat="43.48319" lon="6.23283">
        <ele>120</ele>
        <time>2022-04-15T12:01:27Z</time>
      </trkpt>
      <trkpt lat="43.48319" lon="6.23284">
        <ele>120</ele>
        <time>2022-04-15T12:01:28Z</time>
      </trkpt>
      <trkpt lat="43.48319" lon="6.23285">
        <ele>120</ele>
        <time>2022-04-15T12:01:29Z</time>
      </trkpt>
      <trkpt lat="43.48319" lon="6.23286">
        <ele>120</ele>
        <time>2022-04-15T12:01:30Z</time>
      </trkpt>
      <trkpt lat="43.48319" lon="6.23286">
        <ele>120</ele>
        <time>2022-04-15T12:01:31Z</time>
      </trkpt>
      <trkpt lat="43.48319" lon="6.23287">
        <ele>120</ele>
        <time>2022-04-15T12:01:32Z</time>
      </trkpt>
      <trkpt lat="43.48319" lon="6.23287">
        <ele>120</ele>
        <time>2022-04-15T12:01:33Z</time>
      </trkpt>
      <trkpt lat="43.48319" lon="6.23288">
        <ele>120</ele>
        <time>2022-04-15T12:01:34Z</time>
      </trkpt>
      <trkpt lat="43.48319" lon="6.23288">
        <ele>120</ele>
        <time>2022-04-15T12:01:35Z</time>
      </trkpt>
      <trkpt lat="43.48319" lon="6.23288">
        <ele>120</ele>
        <time>2022-04-15T12:01:36Z</time>
      </trkpt>
      <trkpt lat="43.48319" lon="6.23288">
        <ele>120</ele>
        <time>2022-04-15T12:01:37Z</time>
      </trkpt>
      <trkpt lat="43.48319" lon="6.23288">
        <ele>120</ele>
        <time>2022-04-15T12:01:38Z</time>
      </trkpt>
      <trkpt lat="43.48319" lon="6.23288">
        <ele>120</ele>
        <time>2022-04-15T12:01:39Z</time>
      </trkpt>
      <trkpt lat="43.48319" lon="6.23288">
        <ele>120</ele>
        <time>2022-04-15T12:01:40Z</time>
      </trkpt>
      <trkpt lat="43.48319" lon="6.23288">
        <ele>120</ele>
        <time>2022-04-15T12:01:41Z</time>
      </trkpt>
      <trkpt lat="43.48319" lon="6.23288">
        <ele>120</ele>
        <time>2022-04-15T12:01:42Z</time>
      </trkpt>
      <trkpt lat="43.48318" lon="6.23292">
        <ele>120</ele>
        <time>2022-04-15T12:01:43Z</time>
      </trkpt>
      <trkpt lat="43.48318" lon="6.23292">
        <ele>120</ele>
        <time>2022-04-15T12:01:44Z</time>
      </trkpt>
      <trkpt lat="43.48318" lon="6.23293">
        <ele>120</ele>
        <time>2022-04-15T12:01:45Z</time>
      </trkpt>
      <trkpt lat="43.48318" lon="6.23293">
        <ele>120</ele>
        <time>2022-04-15T12:01:46Z</time>
      </trkpt>
      <trkpt lat="43.48318" lon="6.23293">
        <ele>120</ele>
        <time>2022-04-15T12:01:47Z</time>
      </trkpt>
      <trkpt lat="43.48318" lon="6.23293">
        <ele>120</ele>
        <time>2022-04-15T12:01:48Z</time>
      </trkpt>
      <trkpt lat="43.48318" lon="6.23293">
        <ele>120</ele>
        <time>2022-04-15T12:01:49Z</time>
      </trkpt>
      <trkpt lat="43.48318" lon="6.23293">
        <ele>120</ele>
        <time>2022-04-15T12:01:50Z</time>
      </trkpt>
      <trkpt lat="43.48318" lon="6.23293">
        <ele>120</ele>
        <time>2022-04-15T12:01:51Z</time>
      </trkpt>
      <trkpt lat="43.48318" lon="6.23293">
        <ele>120</ele>
        <time>2022-04-15T12:01:52Z</time>
      </trkpt>
      <trkpt lat="43.48318" lon="6.23293">
        <ele>120</ele>
        <time>2022-04-15T12:01:53Z</time>
      </trkpt>
      <trkpt lat="43.48318" lon="6.23293">
        <ele>120</ele>
        <time>2022-04-15T12:01:54Z</time>
      </trkpt>
      <trkpt lat="43.48318" lon="6.23293">
        <ele>120</ele>
        <time>2022-04-15T12:01:55Z</time>
      </trkpt>
      <trkpt lat="43.48318" lon="6.23293">
        <ele>120</ele>
        <time>2022-04-15T12:01:56Z</time>
      </trkpt>
      <trkpt lat="43.48318" lon="6.23293">
        <ele>120</ele>
        <time>2022-04-15T12:01:57Z</time>
      </trkpt>
      <trkpt lat="43.48318" lon="6.23293">
        <ele>120</ele>
        <time>2022-04-15T12:01:58Z</time>
      </trkpt>
      <trkpt lat="43.48318" lon="6.23293">
        <ele>120</ele>
        <time>2022-04-15T12:01:59Z</time>
      </trkpt>
      <trkpt lat="43.48318" lon="6.23293">
        <ele>120</ele>
        <time>2022-04-15T12:02:00Z</time>
      </trkpt>
      <trkpt lat="43.48318" lon="6.23293">
        <ele>120</ele>
        <time>2022-04-15T12:02:01Z</time>
      </trkpt>
      <trkpt lat="43.48318" lon="6.23293">
        <ele>120</ele>
        <time>2022-04-15T12:02:02Z</time>
      </trkpt>
      <trkpt lat="43.48318" lon="6.23293">
        <ele>120</ele>
        <time>2022-04-15T12:02:03Z</time>
      </trkpt>
      <trkpt lat="43.48318" lon="6.23293">
        <ele>120</ele>
        <time>2022-04-15T12:02:04Z</time>
      </trkpt>
      <trkpt lat="43.48318" lon="6.23293">
        <ele>120</ele>
        <time>2022-04-15T12:02:05Z</time>
      </trkpt>
      <trkpt lat="43.48318" lon="6.23293">
        <ele>120</ele>
        <time>2022-04-15T12:02:06Z</time>
      </trkpt>
      <trkpt lat="43.48318" lon="6.23293">
        <ele>120</ele>
        <time>2022-04-15T12:02:07Z</time>
      </trkpt>
      <trkpt lat="43.48318" lon="6.23293">
        <ele>120</ele>
        <time>2022-04-15T12:02:08Z</time>
      </trkpt>
      <trkpt lat="43.48318" lon="6.23293">
        <ele>120</ele>
        <time>2022-04-15T12:02:09Z</time>
      </trkpt>
      <trkpt lat="43.48318" lon="6.23293">
        <ele>120</ele>
        <time>2022-04-15T12:02:10Z</time>
      </trkpt>
      <trkpt lat="43.48318" lon="6.23293">
        <ele>120</ele>
        <time>2022-04-15T12:02:11Z</time>
      </trkpt>
      <trkpt lat="43.48318" lon="6.23293">
        <ele>120</ele>
        <time>2022-04-15T12:02:12Z</time>
      </trkpt>
      <trkpt lat="43.48318" lon="6.23293">
        <ele>120</ele>
        <time>2022-04-15T12:02:13Z</time>
      </trkpt>
      <trkpt lat="43.48318" lon="6.23293">
        <ele>120</ele>
        <time>2022-04-15T12:02:14Z</time>
      </trkpt>
      <trkpt lat="43.48318" lon="6.23293">
        <ele>120</ele>
        <time>2022-04-15T12:02:15Z</time>
      </trkpt>
      <trkpt lat="43.48318" lon="6.23293">
        <ele>120</ele>
        <time>2022-04-15T12:02:16Z</time>
      </trkpt>
      <trkpt lat="43.48318" lon="6.23293">
        <ele>120</ele>
        <time>2022-04-15T12:02:17Z</time>
      </trkpt>
      <trkpt lat="43.48318" lon="6.23293">
        <ele>120</ele>
        <time>2022-04-15T12:02:18Z</time>
      </trkpt>
      <trkpt lat="43.48318" lon="6.23293">
        <ele>120</ele>
        <time>2022-04-15T12:02:19Z</time>
      </trkpt>
      <trkpt lat="43.48318" lon="6.23293">
        <ele>120</ele>
        <time>2022-04-15T12:02:20Z</time>
      </trkpt>
      <trkpt lat="43.48318" lon="6.23293">
        <ele>120</ele>
        <time>2022-04-15T12:02:21Z</time>
      </trkpt>
      <trkpt lat="43.48318" lon="6.23293">
        <ele>120</ele>
        <time>2022-04-15T12:02:22Z</time>
      </trkpt>
      <trkpt lat="43.48318" lon="6.23293">
        <ele>120</ele>
        <time>2022-04-15T12:02:23Z</time>
      </trkpt>
      <trkpt lat="43.48318" lon="6.23293">
        <ele>120</ele>
        <time>2022-04-15T12:02:24Z</time>
      </trkpt>
      <trkpt lat="43.48318" lon="6.23293">
        <ele>120</ele>
        <time>2022-04-15T12:02:25Z</time>
      </trkpt>
      <trkpt lat="43.48318" lon="6.23293">
        <ele>120</ele>
        <time>2022-04-15T12:02:26Z</time>
      </trkpt>
      <trkpt lat="43.48318" lon="6.23293">
        <ele>120</ele>
        <time>2022-04-15T12:02:27Z</time>
      </trkpt>
      <trkpt lat="43.48318" lon="6.23293">
        <ele>120</ele>
        <time>2022-04-15T12:02:28Z</time>
      </trkpt>
      <trkpt lat="43.48318" lon="6.23293">
        <ele>120</ele>
        <time>2022-04-15T12:02:29Z</time>
      </trkpt>
      <trkpt lat="43.48318" lon="6.23293">
        <ele>120</ele>
        <time>2022-04-15T12:02:30Z</time>
      </trkpt>
      <trkpt lat="43.48318" lon="6.23293">
        <ele>120</ele>
        <time>2022-04-15T12:02:31Z</time>
      </trkpt>
      <trkpt lat="43.48318" lon="6.23293">
        <ele>120</ele>
        <time>2022-04-15T12:02:32Z</time>
      </trkpt>
      <trkpt lat="43.48318" lon="6.23293">
        <ele>120</ele>
        <time>2022-04-15T12:02:33Z</time>
      </trkpt>
      <trkpt lat="43.48318" lon="6.23293">
        <ele>120</ele>
        <time>2022-04-15T12:02:34Z</time>
      </trkpt>
      <trkpt lat="43.48318" lon="6.23293">
        <ele>120</ele>
        <time>2022-04-15T12:02:35Z</time>
      </trkpt>
      <trkpt lat="43.48318" lon="6.23293">
        <ele>120</ele>
        <time>2022-04-15T12:02:36Z</time>
      </trkpt>
      <trkpt lat="43.48318" lon="6.23293">
        <ele>120</ele>
        <time>2022-04-15T12:02:37Z</time>
      </trkpt>
      <trkpt lat="43.48318" lon="6.23293">
        <ele>120</ele>
        <time>2022-04-15T12:02:38Z</time>
      </trkpt>
      <trkpt lat="43.48318" lon="6.23293">
        <ele>120</ele>
        <time>2022-04-15T12:02:39Z</time>
      </trkpt>
      <trkpt lat="43.48318" lon="6.23293">
        <ele>120</ele>
        <time>2022-04-15T12:02:40Z</time>
      </trkpt>
      <trkpt lat="43.48318" lon="6.23293">
        <ele>120</ele>
        <time>2022-04-15T12:02:41Z</time>
      </trkpt>
      <trkpt lat="43.48318" lon="6.23293">
        <ele>120</ele>
        <time>2022-04-15T12:02:42Z</time>
      </trkpt>
      <trkpt lat="43.48318" lon="6.23293">
        <ele>120</ele>
        <time>2022-04-15T12:02:43Z</time>
      </trkpt>
      <trkpt lat="43.48318" lon="6.23293">
        <ele>120</ele>
        <time>2022-04-15T12:02:44Z</time>
      </trkpt>
      <trkpt lat="43.48318" lon="6.23293">
        <ele>120</ele>
        <time>2022-04-15T12:02:45Z</time>
      </trkpt>
      <trkpt lat="43.48318" lon="6.23293">
        <ele>120</ele>
        <time>2022-04-15T12:02:46Z</time>
      </trkpt>
      <trkpt lat="43.48318" lon="6.23293">
        <ele>120</ele>
        <time>2022-04-15T12:02:47Z</time>
      </trkpt>
      <trkpt lat="43.48318" lon="6.23293">
        <ele>120</ele>
        <time>2022-04-15T12:02:48Z</time>
      </trkpt>
      <trkpt lat="43.48318" lon="6.23293">
        <ele>120</ele>
        <time>2022-04-15T12:02:49Z</time>
      </trkpt>
      <trkpt lat="43.48318" lon="6.23293">
        <ele>120</ele>
        <time>2022-04-15T12:02:50Z</time>
      </trkpt>
      <trkpt lat="43.48318" lon="6.23293">
        <ele>120</ele>
        <time>2022-04-15T12:02:51Z</time>
      </trkpt>
      <trkpt lat="43.48318" lon="6.23293">
        <ele>120</ele>
        <time>2022-04-15T12:02:52Z</time>
      </trkpt>
      <trkpt lat="43.48318" lon="6.23293">
        <ele>120</ele>
        <time>2022-04-15T12:02:53Z</time>
      </trkpt>
      <trkpt lat="43.48318" lon="6.23293">
        <ele>120</ele>
        <time>2022-04-15T12:02:54Z</time>
      </trkpt>
      <trkpt lat="43.48318" lon="6.23293">
        <ele>120</ele>
        <time>2022-04-15T12:02:55Z</time>
      </trkpt>
      <trkpt lat="43.48318" lon="6.23293">
        <ele>120</ele>
        <time>2022-04-15T12:02:56Z</time>
      </trkpt>
      <trkpt lat="43.48318" lon="6.23293">
        <ele>120</ele>
        <time>2022-04-15T12:02:57Z</time>
      </trkpt>
      <trkpt lat="43.48318" lon="6.23293">
        <ele>120</ele>
        <time>2022-04-15T12:02:58Z</time>
      </trkpt>
      <trkpt lat="43.48318" lon="6.23293">
        <ele>120</ele>
        <time>2022-04-15T12:02:59Z</time>
      </trkpt>
      <trkpt lat="43.48318" lon="6.23293">
        <ele>120</ele>
        <time>2022-04-15T12:03:00Z</time>
      </trkpt>
      <trkpt lat="43.48318" lon="6.23293">
        <ele>120</ele>
        <time>2022-04-15T12:03:01Z</time>
      </trkpt>
      <trkpt lat="43.48318" lon="6.23293">
        <ele>120</ele>
        <time>2022-04-15T12:03:02Z</time>
      </trkpt>
      <trkpt lat="43.48318" lon="6.23293">
        <ele>120</ele>
        <time>2022-04-15T12:03:03Z</time>
      </trkpt>
      <trkpt lat="43.48318" lon="6.23293">
        <ele>120</ele>
        <time>2022-04-15T12:03:04Z</time>
      </trkpt>
      <trkpt lat="43.48318" lon="6.23293">
        <ele>120</ele>
        <time>2022-04-15T12:03:05Z</time>
      </trkpt>
      <trkpt lat="43.48318" lon="6.23293">
        <ele>120</ele>
        <time>2022-04-15T12:03:06Z</time>
      </trkpt>
      <trkpt lat="43.48318" lon="6.23293">
        <ele>120</ele>
        <time>2022-04-15T12:03:07Z</time>
      </trkpt>
      <trkpt lat="43.48318" lon="6.23293">
        <ele>120</ele>
        <time>2022-04-15T12:03:08Z</time>
      </trkpt>
      <trkpt lat="43.48318" lon="6.23293">
        <ele>120</ele>
        <time>2022-04-15T12:03:09Z</time>
      </trkpt>
      <trkpt lat="43.48318" lon="6.23293">
        <ele>120</ele>
        <time>2022-04-15T12:03:10Z</time>
      </trkpt>
      <trkpt lat="43.48318" lon="6.23293">
        <ele>120</ele>
        <time>2022-04-15T12:03:11Z</time>
      </trkpt>
      <trkpt lat="43.48318" lon="6.23293">
        <ele>120</ele>
        <time>2022-04-15T12:03:12Z</time>
      </trkpt>
      <trkpt lat="43.48318" lon="6.23293">
        <ele>120</ele>
        <time>2022-04-15T12:03:13Z</time>
      </trkpt>
      <trkpt lat="43.48318" lon="6.23293">
        <ele>120</ele>
        <time>2022-04-15T12:03:14Z</time>
      </trkpt>
      <trkpt lat="43.48318" lon="6.23293">
        <ele>120</ele>
        <time>2022-04-15T12:03:15Z</time>
      </trkpt>
      <trkpt lat="43.48318" lon="6.23293">
        <ele>120</ele>
        <time>2022-04-15T12:03:16Z</time>
      </trkpt>
      <trkpt lat="43.48318" lon="6.23293">
        <ele>120</ele>
        <time>2022-04-15T12:03:17Z</time>
      </trkpt>
      <trkpt lat="43.48318" lon="6.23293">
        <ele>120</ele>
        <time>2022-04-15T12:03:18Z</time>
      </trkpt>
      <trkpt lat="43.48318" lon="6.23293">
        <ele>120</ele>
        <time>2022-04-15T12:03:19Z</time>
      </trkpt>
      <trkpt lat="43.48318" lon="6.23293">
        <ele>120</ele>
        <time>2022-04-15T12:03:20Z</time>
      </trkpt>
      <trkpt lat="43.48318" lon="6.23293">
        <ele>120</ele>
        <time>2022-04-15T12:03:21Z</time>
      </trkpt>
      <trkpt lat="43.48318" lon="6.23293">
        <ele>120</ele>
        <time>2022-04-15T12:03:22Z</time>
      </trkpt>
      <trkpt lat="43.48318" lon="6.23293">
        <ele>120</ele>
        <time>2022-04-15T12:03:23Z</time>
      </trkpt>
      <trkpt lat="43.48318" lon="6.23293">
        <ele>120</ele>
        <time>2022-04-15T12:03:24Z</time>
      </trkpt>
      <trkpt lat="43.48318" lon="6.23293">
        <ele>120</ele>
        <time>2022-04-15T12:03:25Z</time>
      </trkpt>
      <trkpt lat="43.48318" lon="6.23293">
        <ele>120</ele>
        <time>2022-04-15T12:03:26Z</time>
      </trkpt>
      <trkpt lat="43.48318" lon="6.23293">
        <ele>120</ele>
        <time>2022-04-15T12:03:27Z</time>
      </trkpt>
      <trkpt lat="43.48318" lon="6.23293">
        <ele>120</ele>
        <time>2022-04-15T12:03:28Z</time>
      </trkpt>
      <trkpt lat="43.48318" lon="6.23293">
        <ele>120</ele>
        <time>2022-04-15T12:03:29Z</time>
      </trkpt>
      <trkpt lat="43.48318" lon="6.23293">
        <ele>120</ele>
        <time>2022-04-15T12:03:30Z</time>
      </trkpt>
      <trkpt lat="43.48318" lon="6.23293">
        <ele>120</ele>
        <time>2022-04-15T12:03:31Z</time>
      </trkpt>
      <trkpt lat="43.48318" lon="6.23293">
        <ele>120</ele>
        <time>2022-04-15T12:03:32Z</time>
      </trkpt>
      <trkpt lat="43.48318" lon="6.23293">
        <ele>120</ele>
        <time>2022-04-15T12:03:33Z</time>
      </trkpt>
      <trkpt lat="43.48318" lon="6.23293">
        <ele>120</ele>
        <time>2022-04-15T12:03:34Z</time>
      </trkpt>
      <trkpt lat="43.48318" lon="6.23294">
        <ele>120</ele>
        <time>2022-04-15T12:03:35Z</time>
      </trkpt>
      <trkpt lat="43.48318" lon="6.23294">
        <ele>120</ele>
        <time>2022-04-15T12:03:36Z</time>
      </trkpt>
      <trkpt lat="43.48318" lon="6.23294">
        <ele>120</ele>
        <time>2022-04-15T12:03:37Z</time>
      </trkpt>
      <trkpt lat="43.48318" lon="6.23294">
        <ele>120</ele>
        <time>2022-04-15T12:03:38Z</time>
      </trkpt>
      <trkpt lat="43.48318" lon="6.23294">
        <ele>120</ele>
        <time>2022-04-15T12:03:39Z</time>
      </trkpt>
      <trkpt lat="43.48318" lon="6.23294">
        <ele>120</ele>
        <time>2022-04-15T12:03:40Z</time>
      </trkpt>
      <trkpt lat="43.48318" lon="6.23294">
        <ele>120</ele>
        <time>2022-04-15T12:03:41Z</time>
      </trkpt>
      <trkpt lat="43.48318" lon="6.23294">
        <ele>120</ele>
        <time>2022-04-15T12:03:42Z</time>
      </trkpt>
      <trkpt lat="43.48318" lon="6.23294">
        <ele>120</ele>
        <time>2022-04-15T12:03:43Z</time>
      </trkpt>
      <trkpt lat="43.48318" lon="6.23294">
        <ele>120</ele>
        <time>2022-04-15T12:03:44Z</time>
      </trkpt>
      <trkpt lat="43.48318" lon="6.23294">
        <ele>120</ele>
        <time>2022-04-15T12:03:45Z</time>
      </trkpt>
      <trkpt lat="43.48318" lon="6.23294">
        <ele>120</ele>
        <time>2022-04-15T12:03:46Z</time>
      </trkpt>
      <trkpt lat="43.48318" lon="6.23294">
        <ele>120</ele>
        <time>2022-04-15T12:03:47Z</time>
      </trkpt>
      <trkpt lat="43.48318" lon="6.23294">
        <ele>120</ele>
        <time>2022-04-15T12:03:48Z</time>
      </trkpt>
      <trkpt lat="43.48318" lon="6.23294">
        <ele>120</ele>
        <time>2022-04-15T12:03:49Z</time>
      </trkpt>
      <trkpt lat="43.48318" lon="6.23294">
        <ele>120</ele>
        <time>2022-04-15T12:03:50Z</time>
      </trkpt>
      <trkpt lat="43.48318" lon="6.23294">
        <ele>120</ele>
        <time>2022-04-15T12:03:51Z</time>
      </trkpt>
      <trkpt lat="43.48318" lon="6.23294">
        <ele>120</ele>
        <time>2022-04-15T12:03:52Z</time>
      </trkpt>
      <trkpt lat="43.48318" lon="6.23295">
        <ele>120</ele>
        <time>2022-04-15T12:03:53Z</time>
      </trkpt>
      <trkpt lat="43.48318" lon="6.23295">
        <ele>120</ele>
        <time>2022-04-15T12:03:54Z</time>
      </trkpt>
      <trkpt lat="43.48318" lon="6.23295">
        <ele>120</ele>
        <time>2022-04-15T12:03:55Z</time>
      </trkpt>
      <trkpt lat="43.48318" lon="6.23295">
        <ele>120</ele>
        <time>2022-04-15T12:03:56Z</time>
      </trkpt>
      <trkpt lat="43.48317" lon="6.23296">
        <ele>120</ele>
        <time>2022-04-15T12:03:57Z</time>
      </trkpt>
      <trkpt lat="43.48317" lon="6.23297">
        <ele>120</ele>
        <time>2022-04-15T12:03:58Z</time>
      </trkpt>
      <trkpt lat="43.48317" lon="6.23297">
        <ele>120</ele>
        <time>2022-04-15T12:03:59Z</time>
      </trkpt>
      <trkpt lat="43.48316" lon="6.23298">
        <ele>120</ele>
        <time>2022-04-15T12:04:00Z</time>
      </trkpt>
      <trkpt lat="43.48316" lon="6.23299">
        <ele>120</ele>
        <time>2022-04-15T12:04:01Z</time>
      </trkpt>
      <trkpt lat="43.48316" lon="6.23299">
        <ele>120</ele>
        <time>2022-04-15T12:04:02Z</time>
      </trkpt>
      <trkpt lat="43.48316" lon="6.233">
        <ele>120</ele>
        <time>2022-04-15T12:04:03Z</time>
      </trkpt>
      <trkpt lat="43.48316" lon="6.233">
        <ele>120</ele>
        <time>2022-04-15T12:04:04Z</time>
      </trkpt>
      <trkpt lat="43.48316" lon="6.233">
        <ele>120</ele>
        <time>2022-04-15T12:04:05Z</time>
      </trkpt>
      <trkpt lat="43.48316" lon="6.233">
        <ele>120</ele>
        <time>2022-04-15T12:04:06Z</time>
      </trkpt>
      <trkpt lat="43.48316" lon="6.233">
        <ele>120</ele>
        <time>2022-04-15T12:04:07Z</time>
      </trkpt>
      <trkpt lat="43.48316" lon="6.233">
        <ele>120</ele>
        <time>2022-04-15T12:04:08Z</time>
      </trkpt>
      <trkpt lat="43.48316" lon="6.233">
        <ele>120</ele>
        <time>2022-04-15T12:04:09Z</time>
      </trkpt>
      <trkpt lat="43.48316" lon="6.233">
        <ele>120</ele>
        <time>2022-04-15T12:04:10Z</time>
      </trkpt>
      <trkpt lat="43.48316" lon="6.233">
        <ele>120</ele>
        <time>2022-04-15T12:04:11Z</time>
      </trkpt>
      <trkpt lat="43.48316" lon="6.233">
        <ele>120</ele>
        <time>2022-04-15T12:04:12Z</time>
      </trkpt>
      <trkpt lat="43.48316" lon="6.233">
        <ele>120</ele>
        <time>2022-04-15T12:04:13Z</time>
      </trkpt>
      <trkpt lat="43.48316" lon="6.233">
        <ele>120</ele>
        <time>2022-04-15T12:04:14Z</time>
      </trkpt>
      <trkpt lat="43.48316" lon="6.233">
        <ele>120</ele>
        <time>2022-04-15T12:04:15Z</time>
      </trkpt>
      <trkpt lat="43.48316" lon="6.233">
        <ele>120</ele>
        <time>2022-04-15T12:04:16Z</time>
      </trkpt>
      <trkpt lat="43.48316" lon="6.233">
        <ele>120</ele>
        <time>2022-04-15T12:04:17Z</time>
      </trkpt>
      <trkpt lat="43.48316" lon="6.233">
        <ele>120</ele>
        <time>2022-04-15T12:04:18Z</time>
      </trkpt>
      <trkpt lat="43.48316" lon="6.233">
        <ele>120</ele>
        <time>2022-04-15T12:04:19Z</time>
      </trkpt>
      <trkpt lat="43.48316" lon="6.233">
        <ele>120</ele>
        <time>2022-04-15T12:04:20Z</time>
      </trkpt>
      <trkpt lat="43.48316" lon="6.233">
        <ele>120</ele>
        <time>2022-04-15T12:04:21Z</time>
      </trkpt>
      <trkpt lat="43.48316" lon="6.233">
        <ele>120</ele>
        <time>2022-04-15T12:04:22Z</time>
      </trkpt>
      <trkpt lat="43.48316" lon="6.233">
        <ele>120</ele>
        <time>2022-04-15T12:04:23Z</time>
      </trkpt>
      <trkpt lat="43.48316" lon="6.233">
        <ele>120</ele>
        <time>2022-04-15T12:04:24Z</time>
      </trkpt>
      <trkpt lat="43.48316" lon="6.233">
        <ele>120</ele>
        <time>2022-04-15T12:04:25Z</time>
      </trkpt>
      <trkpt lat="43.48316" lon="6.233">
        <ele>120</ele>
        <time>2022-04-15T12:04:26Z</time>
      </trkpt>
      <trkpt lat="43.48316" lon="6.233">
        <ele>120</ele>
        <time>2022-04-15T12:04:27Z</time>
      </trkpt>
      <trkpt lat="43.48316" lon="6.233">
        <ele>120</ele>
        <time>2022-04-15T12:04:28Z</time>
      </trkpt>
      <trkpt lat="43.48316" lon="6.233">
        <ele>120</ele>
        <time>2022-04-15T12:04:29Z</time>
      </trkpt>
      <trkpt lat="43.48316" lon="6.233">
        <ele>120</ele>
        <time>2022-04-15T12:04:30Z</time>
      </trkpt>
      <trkpt lat="43.48316" lon="6.233">
        <ele>120</ele>
        <time>2022-04-15T12:04:31Z</time>
      </trkpt>
      <trkpt lat="43.48316" lon="6.233">
        <ele>120</ele>
        <time>2022-04-15T12:04:32Z</time>
      </trkpt>
      <trkpt lat="43.48316" lon="6.233">
        <ele>120</ele>
        <time>2022-04-15T12:04:33Z</time>
      </trkpt>
      <trkpt lat="43.48316" lon="6.233">
        <ele>120</ele>
        <time>2022-04-15T12:04:34Z</time>
      </trkpt>
      <trkpt lat="43.48316" lon="6.233">
        <ele>120</ele>
        <time>2022-04-15T12:04:35Z</time>
      </trkpt>
      <trkpt lat="43.48316" lon="6.233">
        <ele>120</ele>
        <time>2022-04-15T12:04:36Z</time>
      </trkpt>
      <trkpt lat="43.48316" lon="6.233">
        <ele>120</ele>
        <time>2022-04-15T12:04:37Z</time>
      </trkpt>
      <trkpt lat="43.48316" lon="6.233">
        <ele>120</ele>
        <time>2022-04-15T12:04:38Z</time>
      </trkpt>
      <trkpt lat="43.48316" lon="6.233">
        <ele>120</ele>
        <time>2022-04-15T12:04:39Z</time>
      </trkpt>
      <trkpt lat="43.48316" lon="6.233">
        <ele>120</ele>
        <time>2022-04-15T12:04:40Z</time>
      </trkpt>
      <trkpt lat="43.48316" lon="6.233">
        <ele>120</ele>
        <time>2022-04-15T12:04:41Z</time>
      </trkpt>
      <trkpt lat="43.48316" lon="6.233">
        <ele>120</ele>
        <time>2022-04-15T12:04:42Z</time>
      </trkpt>
      <trkpt lat="43.48316" lon="6.233">
        <ele>120</ele>
        <time>2022-04-15T12:04:43Z</time>
      </trkpt>
      <trkpt lat="43.48316" lon="6.233">
        <ele>120</ele>
        <time>2022-04-15T12:04:44Z</time>
      </trkpt>
      <trkpt lat="43.48316" lon="6.233">
        <ele>120</ele>
        <time>2022-04-15T12:04:45Z</time>
      </trkpt>
      <trkpt lat="43.48316" lon="6.233">
        <ele>120</ele>
        <time>2022-04-15T12:04:46Z</time>
      </trkpt>
      <trkpt lat="43.48316" lon="6.233">
        <ele>120</ele>
        <time>2022-04-15T12:04:47Z</time>
      </trkpt>
      <trkpt lat="43.48316" lon="6.233">
        <ele>120</ele>
        <time>2022-04-15T12:04:48Z</time>
      </trkpt>
      <trkpt lat="43.48313" lon="6.23303">
        <ele>120</ele>
        <time>2022-04-15T12:04:49Z</time>
      </trkpt>
      <trkpt lat="43.48312" lon="6.23303">
        <ele>120</ele>
        <time>2022-04-15T12:04:50Z</time>
      </trkpt>
      <trkpt lat="43.48311" lon="6.23303">
        <ele>120</ele>
        <time>2022-04-15T12:04:51Z</time>
      </trkpt>
      <trkpt lat="43.48311" lon="6.23303">
        <ele>120</ele>
        <time>2022-04-15T12:04:52Z</time>
      </trkpt>
      <trkpt lat="43.4831" lon="6.23302">
        <ele>120</ele>
        <time>2022-04-15T12:04:53Z</time>
      </trkpt>
      <trkpt lat="43.4831" lon="6.23302">
        <ele>120</ele>
        <time>2022-04-15T12:04:54Z</time>
      </trkpt>
      <trkpt lat="43.48309" lon="6.23302">
        <ele>120</ele>
        <time>2022-04-15T12:04:55Z</time>
      </trkpt>
      <trkpt lat="43.48309" lon="6.23302">
        <ele>120</ele>
        <time>2022-04-15T12:04:56Z</time>
      </trkpt>
      <trkpt lat="43.48309" lon="6.23302">
        <ele>120</ele>
        <time>2022-04-15T12:04:57Z</time>
      </trkpt>
      <trkpt lat="43.48308" lon="6.23302">
        <ele>120</ele>
        <time>2022-04-15T12:04:58Z</time>
      </trkpt>
      <trkpt lat="43.48307" lon="6.23302">
        <ele>120</ele>
        <time>2022-04-15T12:04:59Z</time>
      </trkpt>
      <trkpt lat="43.48307" lon="6.23302">
        <ele>120</ele>
        <time>2022-04-15T12:05:00Z</time>
      </trkpt>
      <trkpt lat="43.48306" lon="6.23302">
        <ele>120</ele>
        <time>2022-04-15T12:05:01Z</time>
      </trkpt>
      <trkpt lat="43.48305" lon="6.23302">
        <ele>120</ele>
        <time>2022-04-15T12:05:02Z</time>
      </trkpt>
      <trkpt lat="43.48304" lon="6.23302">
        <ele>120</ele>
        <time>2022-04-15T12:05:03Z</time>
      </trkpt>
      <trkpt lat="43.48303" lon="6.23303">
        <ele>120</ele>
        <time>2022-04-15T12:05:04Z</time>
      </trkpt>
      <trkpt lat="43.48303" lon="6.23303">
        <ele>120</ele>
        <time>2022-04-15T12:05:05Z</time>
      </trkpt>
      <trkpt lat="43.48302" lon="6.23303">
        <ele>120</ele>
        <time>2022-04-15T12:05:06Z</time>
      </trkpt>
      <trkpt lat="43.48301" lon="6.23303">
        <ele>120</ele>
        <time>2022-04-15T12:05:07Z</time>
      </trkpt>
      <trkpt lat="43.48301" lon="6.23303">
        <ele>120</ele>
        <time>2022-04-15T12:05:08Z</time>
      </trkpt>
      <trkpt lat="43.48299" lon="6.23304">
        <ele>120</ele>
        <time>2022-04-15T12:05:09Z</time>
      </trkpt>
      <trkpt lat="43.48298" lon="6.23304">
        <ele>120</ele>
        <time>2022-04-15T12:05:10Z</time>
      </trkpt>
      <trkpt lat="43.48297" lon="6.23305">
        <ele>121</ele>
        <time>2022-04-15T12:05:11Z</time>
      </trkpt>
      <trkpt lat="43.48296" lon="6.23305">
        <ele>121</ele>
        <time>2022-04-15T12:05:12Z</time>
      </trkpt>
      <trkpt lat="43.48295" lon="6.23305">
        <ele>121</ele>
        <time>2022-04-15T12:05:13Z</time>
      </trkpt>
      <trkpt lat="43.48294" lon="6.23306">
        <ele>121</ele>
        <time>2022-04-15T12:05:14Z</time>
      </trkpt>
      <trkpt lat="43.48293" lon="6.23306">
        <ele>121</ele>
        <time>2022-04-15T12:05:15Z</time>
      </trkpt>
      <trkpt lat="43.48292" lon="6.23306">
        <ele>121</ele>
        <time>2022-04-15T12:05:16Z</time>
      </trkpt>
      <trkpt lat="43.48291" lon="6.23306">
        <ele>121</ele>
        <time>2022-04-15T12:05:17Z</time>
      </trkpt>
      <trkpt lat="43.4829" lon="6.23307">
        <ele>121</ele>
        <time>2022-04-15T12:05:18Z</time>
      </trkpt>
      <trkpt lat="43.48289" lon="6.23307">
        <ele>121</ele>
        <time>2022-04-15T12:05:19Z</time>
      </trkpt>
      <trkpt lat="43.48288" lon="6.23307">
        <ele>121</ele>
        <time>2022-04-15T12:05:20Z</time>
      </trkpt>
      <trkpt lat="43.48287" lon="6.23308">
        <ele>121</ele>
        <time>2022-04-15T12:05:21Z</time>
      </trkpt>
      <trkpt lat="43.48286" lon="6.23308">
        <ele>122</ele>
        <time>2022-04-15T12:05:22Z</time>
      </trkpt>
      <trkpt lat="43.48285" lon="6.23308">
        <ele>122</ele>
        <time>2022-04-15T12:05:23Z</time>
      </trkpt>
      <trkpt lat="43.48284" lon="6.23308">
        <ele>122</ele>
        <time>2022-04-15T12:05:24Z</time>
      </trkpt>
      <trkpt lat="43.48283" lon="6.23308">
        <ele>122</ele>
        <time>2022-04-15T12:05:25Z</time>
      </trkpt>
      <trkpt lat="43.48281" lon="6.23308">
        <ele>122</ele>
        <time>2022-04-15T12:05:26Z</time>
      </trkpt>
      <trkpt lat="43.4828" lon="6.23308">
        <ele>122</ele>
        <time>2022-04-15T12:05:27Z</time>
      </trkpt>
      <trkpt lat="43.48181" lon="6.23392">
        <ele>102</ele>
        <time>2022-04-15T12:15:50Z</time>
      </trkpt>
      <trkpt lat="43.48181" lon="6.23392">
        <ele>104</ele>
        <time>2022-04-15T12:15:51Z</time>
      </trkpt>
      <trkpt lat="43.48181" lon="6.23392">
        <ele>105</ele>
        <time>2022-04-15T12:15:52Z</time>
      </trkpt>
      <trkpt lat="43.48181" lon="6.23392">
        <ele>106</ele>
        <time>2022-04-15T12:15:53Z</time>
      </trkpt>
      <trkpt lat="43.48181" lon="6.23392">
        <ele>107</ele>
        <time>2022-04-15T12:15:54Z</time>
      </trkpt>
      <trkpt lat="43.48181" lon="6.23392">
        <ele>108</ele>
        <time>2022-04-15T12:15:55Z</time>
      </trkpt>
      <trkpt lat="43.48181" lon="6.23392">
        <ele>108</ele>
        <time>2022-04-15T12:15:56Z</time>
      </trkpt>
      <trkpt lat="43.48181" lon="6.23392">
        <ele>109</ele>
        <time>2022-04-15T12:15:57Z</time>
      </trkpt>
      <trkpt lat="43.48181" lon="6.23392">
        <ele>109</ele>
        <time>2022-04-15T12:15:58Z</time>
      </trkpt>
      <trkpt lat="43.48181" lon="6.23392">
        <ele>109</ele>
        <time>2022-04-15T12:15:59Z</time>
      </trkpt>
      <trkpt lat="43.48181" lon="6.23392">
        <ele>110</ele>
        <time>2022-04-15T12:16:00Z</time>
      </trkpt>
      <trkpt lat="43.48181" lon="6.23392">
        <ele>110</ele>
        <time>2022-04-15T12:16:01Z</time>
      </trkpt>
      <trkpt lat="43.48181" lon="6.23392">
        <ele>110</ele>
        <time>2022-04-15T12:16:02Z</time>
      </trkpt>
      <trkpt lat="43.48181" lon="6.23392">
        <ele>110</ele>
        <time>2022-04-15T12:16:03Z</time>
      </trkpt>
      <trkpt lat="43.48181" lon="6.23392">
        <ele>110</ele>
        <time>2022-04-15T12:16:04Z</time>
      </trkpt>
      <trkpt lat="43.48181" lon="6.23392">
        <ele>110</ele>
        <time>2022-04-15T12:16:05Z</time>
      </trkpt>
      <trkpt lat="43.48181" lon="6.23392">
        <ele>110</ele>
        <time>2022-04-15T12:16:06Z</time>
      </trkpt>
      <trkpt lat="43.48181" lon="6.23392">
        <ele>110</ele>
        <time>2022-04-15T12:16:07Z</time>
      </trkpt>
      <trkpt lat="43.48181" lon="6.23392">
        <ele>110</ele>
        <time>2022-04-15T12:16:08Z</time>
      </trkpt>
      <trkpt lat="43.48181" lon="6.23392">
        <ele>110</ele>
        <time>2022-04-15T12:16:09Z</time>
      </trkpt>
      <trkpt lat="43.48181" lon="6.23392">
        <ele>110</ele>
        <time>2022-04-15T12:16:10Z</time>
      </trkpt>
      <trkpt lat="43.48181" lon="6.23392">
        <ele>110</ele>
        <time>2022-04-15T12:16:11Z</time>
      </trkpt>
      <trkpt lat="43.48181" lon="6.23392">
        <ele>110</ele>
        <time>2022-04-15T12:16:12Z</time>
      </trkpt>
      <trkpt lat="43.48181" lon="6.23392">
        <ele>110</ele>
        <time>2022-04-15T12:16:13Z</time>
      </trkpt>
      <trkpt lat="43.48181" lon="6.23392">
        <ele>110</ele>
        <time>2022-04-15T12:16:14Z</time>
      </trkpt>
      <trkpt lat="43.48181" lon="6.23392">
        <ele>110</ele>
        <time>2022-04-15T12:16:15Z</time>
      </trkpt>
      <trkpt lat="43.48181" lon="6.23392">
        <ele>110</ele>
        <time>2022-04-15T12:16:16Z</time>
      </trkpt>
      <trkpt lat="43.48181" lon="6.23392">
        <ele>110</ele>
        <time>2022-04-15T12:16:17Z</time>
      </trkpt>
      <trkpt lat="43.48181" lon="6.23392">
        <ele>110</ele>
        <time>2022-04-15T12:16:18Z</time>
      </trkpt>
      <trkpt lat="43.48181" lon="6.23392">
        <ele>110</ele>
        <time>2022-04-15T12:16:19Z</time>
      </trkpt>
      <trkpt lat="43.48181" lon="6.23392">
        <ele>110</ele>
        <time>2022-04-15T12:16:20Z</time>
      </trkpt>
      <trkpt lat="43.48181" lon="6.23392">
        <ele>110</ele>
        <time>2022-04-15T12:16:21Z</time>
      </trkpt>
      <trkpt lat="43.48181" lon="6.23392">
        <ele>110</ele>
        <time>2022-04-15T12:16:22Z</time>
      </trkpt>
      <trkpt lat="43.48181" lon="6.23392">
        <ele>110</ele>
        <time>2022-04-15T12:16:23Z</time>
      </trkpt>
      <trkpt lat="43.48181" lon="6.23392">
        <ele>110</ele>
        <time>2022-04-15T12:16:24Z</time>
      </trkpt>
      <trkpt lat="43.48181" lon="6.23392">
        <ele>110</ele>
        <time>2022-04-15T12:16:25Z</time>
      </trkpt>
      <trkpt lat="43.48181" lon="6.23392">
        <ele>110</ele>
        <time>2022-04-15T12:16:26Z</time>
      </trkpt>
      <trkpt lat="43.48181" lon="6.23392">
        <ele>110</ele>
        <time>2022-04-15T12:16:27Z</time>
      </trkpt>
      <trkpt lat="43.48181" lon="6.23392">
        <ele>110</ele>
        <time>2022-04-15T12:16:28Z</time>
      </trkpt>
      <trkpt lat="43.48181" lon="6.23392">
        <ele>110</ele>
        <time>2022-04-15T12:16:29Z</time>
      </trkpt>
      <trkpt lat="43.48181" lon="6.23392">
        <ele>110</ele>
        <time>2022-04-15T12:16:30Z</time>
      </trkpt>
      <trkpt lat="43.48181" lon="6.23392">
        <ele>110</ele>
        <time>2022-04-15T12:16:31Z</time>
      </trkpt>
      <trkpt lat="43.48181" lon="6.23392">
        <ele>110</ele>
        <time>2022-04-15T12:16:32Z</time>
      </trkpt>
      <trkpt lat="43.48181" lon="6.23392">
        <ele>110</ele>
        <time>2022-04-15T12:16:33Z</time>
      </trkpt>
      <trkpt lat="43.48181" lon="6.23392">
        <ele>110</ele>
        <time>2022-04-15T12:16:34Z</time>
      </trkpt>
      <trkpt lat="43.48181" lon="6.23392">
        <ele>110</ele>
        <time>2022-04-15T12:16:35Z</time>
      </trkpt>
      <trkpt lat="43.48181" lon="6.23392">
        <ele>110</ele>
        <time>2022-04-15T12:16:36Z</time>
      </trkpt>
      <trkpt lat="43.48181" lon="6.23392">
        <ele>110</ele>
        <time>2022-04-15T12:16:37Z</time>
      </trkpt>
      <trkpt lat="43.48181" lon="6.23392">
        <ele>110</ele>
        <time>2022-04-15T12:16:38Z</time>
      </trkpt>
      <trkpt lat="43.48181" lon="6.23392">
        <ele>110</ele>
        <time>2022-04-15T12:16:39Z</time>
      </trkpt>
      <trkpt lat="43.48181" lon="6.23392">
        <ele>110</ele>
        <time>2022-04-15T12:16:40Z</time>
      </trkpt>
      <trkpt lat="43.48181" lon="6.23392">
        <ele>110</ele>
        <time>2022-04-15T12:16:41Z</time>
      </trkpt>
      <trkpt lat="43.48181" lon="6.23392">
        <ele>110</ele>
        <time>2022-04-15T12:16:42Z</time>
      </trkpt>
      <trkpt lat="43.48181" lon="6.23392">
        <ele>110</ele>
        <time>2022-04-15T12:16:43Z</time>
      </trkpt>
      <trkpt lat="43.48181" lon="6.23392">
        <ele>110</ele>
        <time>2022-04-15T12:16:44Z</time>
      </trkpt>
      <trkpt lat="43.48181" lon="6.23392">
        <ele>110</ele>
        <time>2022-04-15T12:16:45Z</time>
      </trkpt>
      <trkpt lat="43.48181" lon="6.23392">
        <ele>110</ele>
        <time>2022-04-15T12:16:46Z</time>
      </trkpt>
      <trkpt lat="43.48181" lon="6.23392">
        <ele>110</ele>
        <time>2022-04-15T12:16:47Z</time>
      </trkpt>
      <trkpt lat="43.48181" lon="6.23392">
        <ele>110</ele>
        <time>2022-04-15T12:16:48Z</time>
      </trkpt>
      <trkpt lat="43.48181" lon="6.23392">
        <ele>110</ele>
        <time>2022-04-15T12:16:49Z</time>
      </trkpt>
      <trkpt lat="43.48181" lon="6.23392">
        <ele>110</ele>
        <time>2022-04-15T12:16:50Z</time>
      </trkpt>
      <trkpt lat="43.48181" lon="6.23392">
        <ele>110</ele>
        <time>2022-04-15T12:16:51Z</time>
      </trkpt>
      <trkpt lat="43.48181" lon="6.23392">
        <ele>110</ele>
        <time>2022-04-15T12:16:52Z</time>
      </trkpt>
      <trkpt lat="43.48181" lon="6.23392">
        <ele>110</ele>
        <time>2022-04-15T12:16:53Z</time>
      </trkpt>
      <trkpt lat="43.48181" lon="6.23392">
        <ele>110</ele>
        <time>2022-04-15T12:16:54Z</time>
      </trkpt>
      <trkpt lat="43.48181" lon="6.23392">
        <ele>110</ele>
        <time>2022-04-15T12:16:55Z</time>
      </trkpt>
      <trkpt lat="43.48181" lon="6.23392">
        <ele>110</ele>
        <time>2022-04-15T12:16:56Z</time>
      </trkpt>
      <trkpt lat="43.48181" lon="6.23392">
        <ele>110</ele>
        <time>2022-04-15T12:16:57Z</time>
      </trkpt>
      <trkpt lat="43.48181" lon="6.23392">
        <ele>110</ele>
        <time>2022-04-15T12:16:58Z</time>
      </trkpt>
      <trkpt lat="43.48181" lon="6.23392">
        <ele>110</ele>
        <time>2022-04-15T12:16:59Z</time>
      </trkpt>
      <trkpt lat="43.48181" lon="6.23392">
        <ele>110</ele>
        <time>2022-04-15T12:17:00Z</time>
      </trkpt>
      <trkpt lat="43.48181" lon="6.23392">
        <ele>110</ele>
        <time>2022-04-15T12:17:01Z</time>
      </trkpt>
      <trkpt lat="43.48181" lon="6.23392">
        <ele>110</ele>
        <time>2022-04-15T12:17:02Z</time>
      </trkpt>
      <trkpt lat="43.48181" lon="6.23392">
        <ele>110</ele>
        <time>2022-04-15T12:17:03Z</time>
      </trkpt>
      <trkpt lat="43.48181" lon="6.23392">
        <ele>110</ele>
        <time>2022-04-15T12:17:04Z</time>
      </trkpt>
      <trkpt lat="43.48181" lon="6.23392">
        <ele>110</ele>
        <time>2022-04-15T12:17:05Z</time>
      </trkpt>
      <trkpt lat="43.48181" lon="6.23392">
        <ele>110</ele>
        <time>2022-04-15T12:17:06Z</time>
      </trkpt>
      <trkpt lat="43.48181" lon="6.23392">
        <ele>110</ele>
        <time>2022-04-15T12:17:07Z</time>
      </trkpt>
      <trkpt lat="43.48181" lon="6.23392">
        <ele>110</ele>
        <time>2022-04-15T12:17:08Z</time>
      </trkpt>
      <trkpt lat="43.48181" lon="6.23392">
        <ele>110</ele>
        <time>2022-04-15T12:17:09Z</time>
      </trkpt>
      <trkpt lat="43.48181" lon="6.23392">
        <ele>110</ele>
        <time>2022-04-15T12:17:10Z</time>
      </trkpt>
      <trkpt lat="43.48181" lon="6.23392">
        <ele>110</ele>
        <time>2022-04-15T12:17:11Z</time>
      </trkpt>
      <trkpt lat="43.48181" lon="6.23392">
        <ele>110</ele>
        <time>2022-04-15T12:17:12Z</time>
      </trkpt>
      <trkpt lat="43.48181" lon="6.23392">
        <ele>110</ele>
        <time>2022-04-15T12:17:13Z</time>
      </trkpt>
      <trkpt lat="43.48181" lon="6.23392">
        <ele>110</ele>
        <time>2022-04-15T12:17:14Z</time>
      </trkpt>
      <trkpt lat="43.48181" lon="6.23392">
        <ele>110</ele>
        <time>2022-04-15T12:17:15Z</time>
      </trkpt>
      <trkpt lat="43.48181" lon="6.23392">
        <ele>110</ele>
        <time>2022-04-15T12:17:16Z</time>
      </trkpt>
      <trkpt lat="43.48181" lon="6.23392">
        <ele>110</ele>
        <time>2022-04-15T12:17:17Z</time>
      </trkpt>
      <trkpt lat="43.48181" lon="6.23392">
        <ele>110</ele>
        <time>2022-04-15T12:17:18Z</time>
      </trkpt>
      <trkpt lat="43.48181" lon="6.23392">
        <ele>110</ele>
        <time>2022-04-15T12:17:19Z</time>
      </trkpt>
      <trkpt lat="43.48181" lon="6.23392">
        <ele>110</ele>
        <time>2022-04-15T12:17:20Z</time>
      </trkpt>
      <trkpt lat="43.48181" lon="6.23392">
        <ele>110</ele>
        <time>2022-04-15T12:17:21Z</time>
      </trkpt>
      <trkpt lat="43.48181" lon="6.23392">
        <ele>110</ele>
        <time>2022-04-15T12:17:22Z</time>
      </trkpt>
      <trkpt lat="43.48181" lon="6.23392">
        <ele>110</ele>
        <time>2022-04-15T12:17:23Z</time>
      </trkpt>
      <trkpt lat="43.48181" lon="6.23392">
        <ele>110</ele>
        <time>2022-04-15T12:17:24Z</time>
      </trkpt>
      <trkpt lat="43.48181" lon="6.23392">
        <ele>110</ele>
        <time>2022-04-15T12:17:25Z</time>
      </trkpt>
      <trkpt lat="43.48181" lon="6.23392">
        <ele>110</ele>
        <time>2022-04-15T12:17:26Z</time>
      </trkpt>
      <trkpt lat="43.48181" lon="6.23392">
        <ele>110</ele>
        <time>2022-04-15T12:17:27Z</time>
      </trkpt>
      <trkpt lat="43.48181" lon="6.23392">
        <ele>110</ele>
        <time>2022-04-15T12:17:28Z</time>
      </trkpt>
      <trkpt lat="43.48181" lon="6.23392">
        <ele>110</ele>
        <time>2022-04-15T12:17:29Z</time>
      </trkpt>
      <trkpt lat="43.48181" lon="6.23392">
        <ele>110</ele>
        <time>2022-04-15T12:17:30Z</time>
      </trkpt>
      <trkpt lat="43.48181" lon="6.23392">
        <ele>110</ele>
        <time>2022-04-15T12:17:31Z</time>
      </trkpt>
      <trkpt lat="43.48181" lon="6.23392">
        <ele>110</ele>
        <time>2022-04-15T12:17:32Z</time>
      </trkpt>
      <trkpt lat="43.48181" lon="6.23392">
        <ele>110</ele>
        <time>2022-04-15T12:17:33Z</time>
      </trkpt>
      <trkpt lat="43.48181" lon="6.23392">
        <ele>110</ele>
        <time>2022-04-15T12:17:34Z</time>
      </trkpt>
      <trkpt lat="43.48181" lon="6.23392">
        <ele>110</ele>
        <time>2022-04-15T12:17:35Z</time>
      </trkpt>
      <trkpt lat="43.48181" lon="6.23392">
        <ele>110</ele>
        <time>2022-04-15T12:17:36Z</time>
      </trkpt>
      <trkpt lat="43.48181" lon="6.23392">
        <ele>110</ele>
        <time>2022-04-15T12:17:37Z</time>
      </trkpt>
      <trkpt lat="43.48181" lon="6.23392">
        <ele>110</ele>
        <time>2022-04-15T12:17:38Z</time>
      </trkpt>
      <trkpt lat="43.48181" lon="6.23392">
        <ele>110</ele>
        <time>2022-04-15T12:17:39Z</time>
      </trkpt>
      <trkpt lat="43.48181" lon="6.23392">
        <ele>110</ele>
        <time>2022-04-15T12:17:40Z</time>
      </trkpt>
      <trkpt lat="43.48181" lon="6.23392">
        <ele>110</ele>
        <time>2022-04-15T12:17:41Z</time>
      </trkpt>
      <trkpt lat="43.48181" lon="6.23392">
        <ele>110</ele>
        <time>2022-04-15T12:17:42Z</time>
      </trkpt>
      <trkpt lat="43.48181" lon="6.23392">
        <ele>110</ele>
        <time>2022-04-15T12:17:43Z</time>
      </trkpt>
      <trkpt lat="43.48181" lon="6.23392">
        <ele>110</ele>
        <time>2022-04-15T12:17:44Z</time>
      </trkpt>
      <trkpt lat="43.48181" lon="6.23392">
        <ele>110</ele>
        <time>2022-04-15T12:17:45Z</time>
      </trkpt>
      <trkpt lat="43.48181" lon="6.23392">
        <ele>110</ele>
        <time>2022-04-15T12:17:46Z</time>
      </trkpt>
      <trkpt lat="43.48181" lon="6.23392">
        <ele>110</ele>
        <time>2022-04-15T12:17:47Z</time>
      </trkpt>
      <trkpt lat="43.48181" lon="6.23392">
        <ele>110</ele>
        <time>2022-04-15T12:17:48Z</time>
      </trkpt>
      <trkpt lat="43.48181" lon="6.23392">
        <ele>110</ele>
        <time>2022-04-15T12:17:49Z</time>
      </trkpt>
      <trkpt lat="43.48181" lon="6.23392">
        <ele>110</ele>
        <time>2022-04-15T12:17:50Z</time>
      </trkpt>
      <trkpt lat="43.48181" lon="6.23392">
        <ele>110</ele>
        <time>2022-04-15T12:17:51Z</time>
      </trkpt>
      <trkpt lat="43.48181" lon="6.23392">
        <ele>110</ele>
        <time>2022-04-15T12:17:52Z</time>
      </trkpt>
      <trkpt lat="43.48181" lon="6.23392">
        <ele>110</ele>
        <time>2022-04-15T12:17:53Z</time>
      </trkpt>
      <trkpt lat="43.48181" lon="6.23392">
        <ele>110</ele>
        <time>2022-04-15T12:17:54Z</time>
      </trkpt>
      <trkpt lat="43.48181" lon="6.23392">
        <ele>110</ele>
        <time>2022-04-15T12:17:55Z</time>
      </trkpt>
      <trkpt lat="43.48181" lon="6.23392">
        <ele>110</ele>
        <time>2022-04-15T12:17:56Z</time>
      </trkpt>
      <trkpt lat="43.48181" lon="6.23392">
        <ele>110</ele>
        <time>2022-04-15T12:17:57Z</time>
      </trkpt>
      <trkpt lat="43.48181" lon="6.23392">
        <ele>110</ele>
        <time>2022-04-15T12:17:58Z</time>
      </trkpt>
      <trkpt lat="43.48181" lon="6.23392">
        <ele>110</ele>
        <time>2022-04-15T12:17:59Z</time>
      </trkpt>
      <trkpt lat="43.48181" lon="6.23392">
        <ele>110</ele>
        <time>2022-04-15T12:18:00Z</time>
      </trkpt>
      <trkpt lat="43.48181" lon="6.23392">
        <ele>110</ele>
        <time>2022-04-15T12:18:01Z</time>
      </trkpt>
      <trkpt lat="43.48181" lon="6.23392">
        <ele>110</ele>
        <time>2022-04-15T12:18:02Z</time>
      </trkpt>
      <trkpt lat="43.48181" lon="6.23392">
        <ele>110</ele>
        <time>2022-04-15T12:18:03Z</time>
      </trkpt>
      <trkpt lat="43.48181" lon="6.23392">
        <ele>110</ele>
        <time>2022-04-15T12:18:04Z</time>
      </trkpt>
      <trkpt lat="43.48181" lon="6.23392">
        <ele>110</ele>
        <time>2022-04-15T12:18:05Z</time>
      </trkpt>
      <trkpt lat="43.48181" lon="6.23392">
        <ele>110</ele>
        <time>2022-04-15T12:18:06Z</time>
      </trkpt>
      <trkpt lat="43.48181" lon="6.23392">
        <ele>110</ele>
        <time>2022-04-15T12:18:07Z</time>
      </trkpt>
      <trkpt lat="43.48181" lon="6.23392">
        <ele>110</ele>
        <time>2022-04-15T12:18:08Z</time>
      </trkpt>
      <trkpt lat="43.48181" lon="6.23392">
        <ele>110</ele>
        <time>2022-04-15T12:18:09Z</time>
      </trkpt>
      <trkpt lat="43.48181" lon="6.23392">
        <ele>110</ele>
        <time>2022-04-15T12:18:10Z</time>
      </trkpt>
      <trkpt lat="43.48181" lon="6.23392">
        <ele>110</ele>
        <time>2022-04-15T12:18:11Z</time>
      </trkpt>
      <trkpt lat="43.48181" lon="6.23392">
        <ele>110</ele>
        <time>2022-04-15T12:18:12Z</time>
      </trkpt>
      <trkpt lat="43.48181" lon="6.23392">
        <ele>110</ele>
        <time>2022-04-15T12:18:13Z</time>
      </trkpt>
      <trkpt lat="43.48181" lon="6.23392">
        <ele>110</ele>
        <time>2022-04-15T12:18:14Z</time>
      </trkpt>
      <trkpt lat="43.48181" lon="6.23392">
        <ele>110</ele>
        <time>2022-04-15T12:18:15Z</time>
      </trkpt>
      <trkpt lat="43.48181" lon="6.23392">
        <ele>110</ele>
        <time>2022-04-15T12:18:16Z</time>
      </trkpt>
      <trkpt lat="43.48181" lon="6.23392">
        <ele>110</ele>
        <time>2022-04-15T12:18:17Z</time>
      </trkpt>
      <trkpt lat="43.48181" lon="6.23392">
        <ele>110</ele>
        <time>2022-04-15T12:18:18Z</time>
      </trkpt>
      <trkpt lat="43.48181" lon="6.23392">
        <ele>110</ele>
        <time>2022-04-15T12:18:19Z</time>
      </trkpt>
      <trkpt lat="43.4818" lon="6.23393">
        <ele>110</ele>
        <time>2022-04-15T12:18:20Z</time>
      </trkpt>
      <trkpt lat="43.4818" lon="6.23393">
        <ele>110</ele>
        <time>2022-04-15T12:18:21Z</time>
      </trkpt>
      <trkpt lat="43.4818" lon="6.23393">
        <ele>110</ele>
        <time>2022-04-15T12:18:22Z</time>
      </trkpt>
      <trkpt lat="43.4818" lon="6.23394">
        <ele>112</ele>
        <time>2022-04-15T12:18:23Z</time>
      </trkpt>
      <trkpt lat="43.4818" lon="6.23394">
        <ele>112</ele>
        <time>2022-04-15T12:18:24Z</time>
      </trkpt>
      <trkpt lat="43.4818" lon="6.23395">
        <ele>112</ele>
        <time>2022-04-15T12:18:25Z</time>
      </trkpt>
      <trkpt lat="43.48179" lon="6.23395">
        <ele>112</ele>
        <time>2022-04-15T12:18:26Z</time>
      </trkpt>
      <trkpt lat="43.48179" lon="6.23395">
        <ele>112</ele>
        <time>2022-04-15T12:18:27Z</time>
      </trkpt>
      <trkpt lat="43.48179" lon="6.23395">
        <ele>112</ele>
        <time>2022-04-15T12:18:28Z</time>
      </trkpt>
      <trkpt lat="43.48179" lon="6.23395">
        <ele>112</ele>
        <time>2022-04-15T12:18:29Z</time>
      </trkpt>
      <trkpt lat="43.48179" lon="6.23395">
        <ele>112</ele>
        <time>2022-04-15T12:18:30Z</time>
      </trkpt>
      <trkpt lat="43.48179" lon="6.23395">
        <ele>112</ele>
        <time>2022-04-15T12:18:31Z</time>
      </trkpt>
      <trkpt lat="43.48179" lon="6.23395">
        <ele>112</ele>
        <time>2022-04-15T12:18:32Z</time>
      </trkpt>
      <trkpt lat="43.48179" lon="6.23395">
        <ele>112</ele>
        <time>2022-04-15T12:18:33Z</time>
      </trkpt>
      <trkpt lat="43.48179" lon="6.23395">
        <ele>112</ele>
        <time>2022-04-15T12:18:34Z</time>
      </trkpt>
      <trkpt lat="43.48179" lon="6.23395">
        <ele>112</ele>
        <time>2022-04-15T12:18:35Z</time>
      </trkpt>
      <trkpt lat="43.48179" lon="6.23395">
        <ele>112</ele>
        <time>2022-04-15T12:18:36Z</time>
      </trkpt>
      <trkpt lat="43.48179" lon="6.23395">
        <ele>112</ele>
        <time>2022-04-15T12:18:37Z</time>
      </trkpt>
      <trkpt lat="43.48179" lon="6.23395">
        <ele>112</ele>
        <time>2022-04-15T12:18:38Z</time>
      </trkpt>
      <trkpt lat="43.48179" lon="6.23395">
        <ele>112</ele>
        <time>2022-04-15T12:18:39Z</time>
      </trkpt>
      <trkpt lat="43.48179" lon="6.23395">
        <ele>112</ele>
        <time>2022-04-15T12:18:40Z</time>
      </trkpt>
      <trkpt lat="43.48179" lon="6.23395">
        <ele>112</ele>
        <time>2022-04-15T12:18:41Z</time>
      </trkpt>
      <trkpt lat="43.48179" lon="6.23395">
        <ele>112</ele>
        <time>2022-04-15T12:18:42Z</time>
      </trkpt>
      <trkpt lat="43.48178" lon="6.23397">
        <ele>112</ele>
        <time>2022-04-15T12:18:43Z</time>
      </trkpt>
      <trkpt lat="43.48178" lon="6.23397">
        <ele>112</ele>
        <time>2022-04-15T12:18:44Z</time>
      </trkpt>
      <trkpt lat="43.48178" lon="6.23398">
        <ele>112</ele>
        <time>2022-04-15T12:18:45Z</time>
      </trkpt>
      <trkpt lat="43.48178" lon="6.23398">
        <ele>112</ele>
        <time>2022-04-15T12:18:46Z</time>
      </trkpt>
      <trkpt lat="43.48178" lon="6.23398">
        <ele>112</ele>
        <time>2022-04-15T12:18:47Z</time>
      </trkpt>
      <trkpt lat="43.48178" lon="6.23398">
        <ele>112</ele>
        <time>2022-04-15T12:18:48Z</time>
      </trkpt>
      <trkpt lat="43.48178" lon="6.23398">
        <ele>112</ele>
        <time>2022-04-15T12:18:49Z</time>
      </trkpt>
      <trkpt lat="43.48178" lon="6.23398">
        <ele>112</ele>
        <time>2022-04-15T12:18:50Z</time>
      </trkpt>
      <trkpt lat="43.48178" lon="6.23398">
        <ele>112</ele>
        <time>2022-04-15T12:18:51Z</time>
      </trkpt>
      <trkpt lat="43.48178" lon="6.23398">
        <ele>112</ele>
        <time>2022-04-15T12:18:52Z</time>
      </trkpt>
      <trkpt lat="43.48178" lon="6.23398">
        <ele>112</ele>
        <time>2022-04-15T12:18:53Z</time>
      </trkpt>
      <trkpt lat="43.48178" lon="6.23398">
        <ele>112</ele>
        <time>2022-04-15T12:18:54Z</time>
      </trkpt>
      <trkpt lat="43.48178" lon="6.23398">
        <ele>112</ele>
        <time>2022-04-15T12:18:55Z</time>
      </trkpt>
      <trkpt lat="43.48178" lon="6.23398">
        <ele>112</ele>
        <time>2022-04-15T12:18:56Z</time>
      </trkpt>
      <trkpt lat="43.48178" lon="6.23398">
        <ele>112</ele>
        <time>2022-04-15T12:18:57Z</time>
      </trkpt>
      <trkpt lat="43.48178" lon="6.23398">
        <ele>112</ele>
        <time>2022-04-15T12:18:58Z</time>
      </trkpt>
      <trkpt lat="43.48178" lon="6.23398">
        <ele>112</ele>
        <time>2022-04-15T12:18:59Z</time>
      </trkpt>
      <trkpt lat="43.48178" lon="6.23398">
        <ele>112</ele>
        <time>2022-04-15T12:19:00Z</time>
      </trkpt>
      <trkpt lat="43.48178" lon="6.23398">
        <ele>112</ele>
        <time>2022-04-15T12:19:01Z</time>
      </trkpt>
      <trkpt lat="43.48178" lon="6.23398">
        <ele>112</ele>
        <time>2022-04-15T12:19:02Z</time>
      </trkpt>
      <trkpt lat="43.48178" lon="6.23398">
        <ele>112</ele>
        <time>2022-04-15T12:19:03Z</time>
      </trkpt>
      <trkpt lat="43.48178" lon="6.23398">
        <ele>112</ele>
        <time>2022-04-15T12:19:04Z</time>
      </trkpt>
      <trkpt lat="43.48177" lon="6.23399">
        <ele>112</ele>
        <time>2022-04-15T12:19:05Z</time>
      </trkpt>
      <trkpt lat="43.48177" lon="6.23399">
        <ele>112</ele>
        <time>2022-04-15T12:19:06Z</time>
      </trkpt>
      <trkpt lat="43.48177" lon="6.23399">
        <ele>112</ele>
        <time>2022-04-15T12:19:07Z</time>
      </trkpt>
      <trkpt lat="43.48177" lon="6.23399">
        <ele>112</ele>
        <time>2022-04-15T12:19:08Z</time>
      </trkpt>
      <trkpt lat="43.48177" lon="6.23399">
        <ele>112</ele>
        <time>2022-04-15T12:19:09Z</time>
      </trkpt>
      <trkpt lat="43.48177" lon="6.23399">
        <ele>112</ele>
        <time>2022-04-15T12:19:10Z</time>
      </trkpt>
      <trkpt lat="43.48177" lon="6.23399">
        <ele>112</ele>
        <time>2022-04-15T12:19:11Z</time>
      </trkpt>
      <trkpt lat="43.48176" lon="6.23399">
        <ele>112</ele>
        <time>2022-04-15T12:19:12Z</time>
      </trkpt>
      <trkpt lat="43.48176" lon="6.23399">
        <ele>112</ele>
        <time>2022-04-15T12:19:13Z</time>
      </trkpt>
      <trkpt lat="43.48176" lon="6.23399">
        <ele>112</ele>
        <time>2022-04-15T12:19:14Z</time>
      </trkpt>
      <trkpt lat="43.48176" lon="6.23399">
        <ele>112</ele>
        <time>2022-04-15T12:19:15Z</time>
      </trkpt>
      <trkpt lat="43.48176" lon="6.23399">
        <ele>112</ele>
        <time>2022-04-15T12:19:16Z</time>
      </trkpt>
      <trkpt lat="43.48176" lon="6.23399">
        <ele>112</ele>
        <time>2022-04-15T12:19:17Z</time>
      </trkpt>
      <trkpt lat="43.48176" lon="6.23399">
        <ele>112</ele>
        <time>2022-04-15T12:19:18Z</time>
      </trkpt>
      <trkpt lat="43.48176" lon="6.23399">
        <ele>111</ele>
        <time>2022-04-15T12:19:19Z</time>
      </trkpt>
      <trkpt lat="43.48176" lon="6.23399">
        <ele>111</ele>
        <time>2022-04-15T12:19:20Z</time>
      </trkpt>
      <trkpt lat="43.48176" lon="6.23399">
        <ele>111</ele>
        <time>2022-04-15T12:19:21Z</time>
      </trkpt>
      <trkpt lat="43.48176" lon="6.23399">
        <ele>111</ele>
        <time>2022-04-15T12:19:22Z</time>
      </trkpt>
      <trkpt lat="43.48176" lon="6.23399">
        <ele>111</ele>
        <time>2022-04-15T12:19:23Z</time>
      </trkpt>
      <trkpt lat="43.48176" lon="6.23399">
        <ele>111</ele>
        <time>2022-04-15T12:19:24Z</time>
      </trkpt>
      <trkpt lat="43.48177" lon="6.234">
        <ele>111</ele>
        <time>2022-04-15T12:19:25Z</time>
      </trkpt>
      <trkpt lat="43.48177" lon="6.23401">
        <ele>111</ele>
        <time>2022-04-15T12:19:26Z</time>
      </trkpt>
      <trkpt lat="43.48178" lon="6.23402">
        <ele>111</ele>
        <time>2022-04-15T12:19:27Z</time>
      </trkpt>
      <trkpt lat="43.48178" lon="6.23403">
        <ele>111</ele>
        <time>2022-04-15T12:19:28Z</time>
      </trkpt>
      <trkpt lat="43.48178" lon="6.23404">
        <ele>111</ele>
        <time>2022-04-15T12:19:29Z</time>
      </trkpt>
      <trkpt lat="43.48177" lon="6.23404">
        <ele>111</ele>
        <time>2022-04-15T12:19:30Z</time>
      </trkpt>
      <trkpt lat="43.48176" lon="6.23405">
        <ele>111</ele>
        <time>2022-04-15T12:19:31Z</time>
      </trkpt>
      <trkpt lat="43.48175" lon="6.23406">
        <ele>111</ele>
        <time>2022-04-15T12:19:32Z</time>
      </trkpt>
      <trkpt lat="43.48174" lon="6.23406">
        <ele>111</ele>
        <time>2022-04-15T12:19:33Z</time>
      </trkpt>
      <trkpt lat="43.48173" lon="6.23406">
        <ele>111</ele>
        <time>2022-04-15T12:19:34Z</time>
      </trkpt>
      <trkpt lat="43.48173" lon="6.23406">
        <ele>112</ele>
        <time>2022-04-15T12:19:35Z</time>
      </trkpt>
      <trkpt lat="43.48173" lon="6.23407">
        <ele>112</ele>
        <time>2022-04-15T12:19:36Z</time>
      </trkpt>
      <trkpt lat="43.48172" lon="6.23407">
        <ele>112</ele>
        <time>2022-04-15T12:19:37Z</time>
      </trkpt>
      <trkpt lat="43.48172" lon="6.23407">
        <ele>112</ele>
        <time>2022-04-15T12:19:38Z</time>
      </trkpt>
      <trkpt lat="43.48172" lon="6.23407">
        <ele>112</ele>
        <time>2022-04-15T12:19:39Z</time>
      </trkpt>
      <trkpt lat="43.48171" lon="6.23407">
        <ele>112</ele>
        <time>2022-04-15T12:19:40Z</time>
      </trkpt>
      <trkpt lat="43.48171" lon="6.23408">
        <ele>112</ele>
        <time>2022-04-15T12:19:41Z</time>
      </trkpt>
      <trkpt lat="43.48171" lon="6.23408">
        <ele>112</ele>
        <time>2022-04-15T12:19:42Z</time>
      </trkpt>
      <trkpt lat="43.48171" lon="6.23408">
        <ele>112</ele>
        <time>2022-04-15T12:19:43Z</time>
      </trkpt>
      <trkpt lat="43.48171" lon="6.23408">
        <ele>112</ele>
        <time>2022-04-15T12:19:44Z</time>
      </trkpt>
      <trkpt lat="43.4817" lon="6.23408">
        <ele>112</ele>
        <time>2022-04-15T12:19:45Z</time>
      </trkpt>
      <trkpt lat="43.4817" lon="6.23408">
        <ele>112</ele>
        <time>2022-04-15T12:19:46Z</time>
      </trkpt>
      <trkpt lat="43.4817" lon="6.23408">
        <ele>112</ele>
        <time>2022-04-15T12:19:47Z</time>
      </trkpt>
      <trkpt lat="43.4817" lon="6.23408">
        <ele>112</ele>
        <time>2022-04-15T12:19:48Z</time>
      </trkpt>
      <trkpt lat="43.4817" lon="6.23408">
        <ele>112</ele>
        <time>2022-04-15T12:19:49Z</time>
      </trkpt>
      <trkpt lat="43.4817" lon="6.23408">
        <ele>112</ele>
        <time>2022-04-15T12:19:50Z</time>
      </trkpt>
      <trkpt lat="43.4817" lon="6.23408">
        <ele>112</ele>
        <time>2022-04-15T12:19:51Z</time>
      </trkpt>
      <trkpt lat="43.4817" lon="6.23408">
        <ele>112</ele>
        <time>2022-04-15T12:19:52Z</time>
      </trkpt>
      <trkpt lat="43.4817" lon="6.23409">
        <ele>112</ele>
        <time>2022-04-15T12:19:53Z</time>
      </trkpt>
      <trkpt lat="43.48169" lon="6.23409">
        <ele>112</ele>
        <time>2022-04-15T12:19:54Z</time>
      </trkpt>
      <trkpt lat="43.48169" lon="6.23409">
        <ele>112</ele>
        <time>2022-04-15T12:19:55Z</time>
      </trkpt>
      <trkpt lat="43.48169" lon="6.23409">
        <ele>112</ele>
        <time>2022-04-15T12:19:56Z</time>
      </trkpt>
      <trkpt lat="43.48169" lon="6.2341">
        <ele>112</ele>
        <time>2022-04-15T12:19:57Z</time>
      </trkpt>
      <trkpt lat="43.48169" lon="6.2341">
        <ele>112</ele>
        <time>2022-04-15T12:19:58Z</time>
      </trkpt>
      <trkpt lat="43.48168" lon="6.2341">
        <ele>112</ele>
        <time>2022-04-15T12:19:59Z</time>
      </trkpt>
      <trkpt lat="43.48168" lon="6.23411">
        <ele>112</ele>
        <time>2022-04-15T12:20:00Z</time>
      </trkpt>
      <trkpt lat="43.48168" lon="6.23411">
        <ele>112</ele>
        <time>2022-04-15T12:20:01Z</time>
      </trkpt>
      <trkpt lat="43.48168" lon="6.23411">
        <ele>112</ele>
        <time>2022-04-15T12:20:02Z</time>
      </trkpt>
      <trkpt lat="43.48168" lon="6.23411">
        <ele>112</ele>
        <time>2022-04-15T12:20:03Z</time>
      </trkpt>
      <trkpt lat="43.48168" lon="6.23412">
        <ele>111</ele>
        <time>2022-04-15T12:20:04Z</time>
      </trkpt>
      <trkpt lat="43.48168" lon="6.23412">
        <ele>111</ele>
        <time>2022-04-15T12:20:05Z</time>
      </trkpt>
      <trkpt lat="43.48167" lon="6.23412">
        <ele>111</ele>
        <time>2022-04-15T12:20:06Z</time>
      </trkpt>
      <trkpt lat="43.48167" lon="6.23412">
        <ele>111</ele>
        <time>2022-04-15T12:20:07Z</time>
      </trkpt>
      <trkpt lat="43.48167" lon="6.23412">
        <ele>111</ele>
        <time>2022-04-15T12:20:08Z</time>
      </trkpt>
      <trkpt lat="43.48167" lon="6.23412">
        <ele>111</ele>
        <time>2022-04-15T12:20:09Z</time>
      </trkpt>
      <trkpt lat="43.48167" lon="6.23412">
        <ele>111</ele>
        <time>2022-04-15T12:20:10Z</time>
      </trkpt>
      <trkpt lat="43.48167" lon="6.23413">
        <ele>111</ele>
        <time>2022-04-15T12:20:11Z</time>
      </trkpt>
      <trkpt lat="43.48167" lon="6.23413">
        <ele>111</ele>
        <time>2022-04-15T12:20:12Z</time>
      </trkpt>
      <trkpt lat="43.48167" lon="6.23414">
        <ele>111</ele>
        <time>2022-04-15T12:20:13Z</time>
      </trkpt>
      <trkpt lat="43.48167" lon="6.23414">
        <ele>111</ele>
        <time>2022-04-15T12:20:14Z</time>
      </trkpt>
      <trkpt lat="43.48166" lon="6.23415">
        <ele>110</ele>
        <time>2022-04-15T12:20:15Z</time>
      </trkpt>
      <trkpt lat="43.48166" lon="6.23415">
        <ele>110</ele>
        <time>2022-04-15T12:20:16Z</time>
      </trkpt>
      <trkpt lat="43.48166" lon="6.23415">
        <ele>110</ele>
        <time>2022-04-15T12:20:17Z</time>
      </trkpt>
      <trkpt lat="43.48166" lon="6.23416">
        <ele>110</ele>
        <time>2022-04-15T12:20:18Z</time>
      </trkpt>
      <trkpt lat="43.48166" lon="6.23416">
        <ele>110</ele>
        <time>2022-04-15T12:20:19Z</time>
      </trkpt>
      <trkpt lat="43.48166" lon="6.23416">
        <ele>110</ele>
        <time>2022-04-15T12:20:20Z</time>
      </trkpt>
      <trkpt lat="43.48166" lon="6.23417">
        <ele>110</ele>
        <time>2022-04-15T12:20:21Z</time>
      </trkpt>
      <trkpt lat="43.48166" lon="6.23417">
        <ele>110</ele>
        <time>2022-04-15T12:20:22Z</time>
      </trkpt>
      <trkpt lat="43.48166" lon="6.23417">
        <ele>110</ele>
        <time>2022-04-15T12:20:23Z</time>
      </trkpt>
      <trkpt lat="43.48166" lon="6.23417">
        <ele>109</ele>
        <time>2022-04-15T12:20:24Z</time>
      </trkpt>
      <trkpt lat="43.48166" lon="6.23417">
        <ele>109</ele>
        <time>2022-04-15T12:20:25Z</time>
      </trkpt>
      <trkpt lat="43.48166" lon="6.23417">
        <ele>109</ele>
        <time>2022-04-15T12:20:26Z</time>
      </trkpt>
      <trkpt lat="43.48166" lon="6.23417">
        <ele>109</ele>
        <time>2022-04-15T12:20:27Z</time>
      </trkpt>
      <trkpt lat="43.48166" lon="6.23417">
        <ele>109</ele>
        <time>2022-04-15T12:20:28Z</time>
      </trkpt>
      <trkpt lat="43.48166" lon="6.23417">
        <ele>109</ele>
        <time>2022-04-15T12:20:29Z</time>
      </trkpt>
      <trkpt lat="43.48166" lon="6.23417">
        <ele>109</ele>
        <time>2022-04-15T12:20:30Z</time>
      </trkpt>
      <trkpt lat="43.48166" lon="6.23417">
        <ele>109</ele>
        <time>2022-04-15T12:20:31Z</time>
      </trkpt>
      <trkpt lat="43.48166" lon="6.23418">
        <ele>109</ele>
        <time>2022-04-15T12:20:32Z</time>
      </trkpt>
      <trkpt lat="43.48166" lon="6.23418">
        <ele>109</ele>
        <time>2022-04-15T12:20:33Z</time>
      </trkpt>
      <trkpt lat="43.48165" lon="6.23418">
        <ele>110</ele>
        <time>2022-04-15T12:20:34Z</time>
      </trkpt>
      <trkpt lat="43.48165" lon="6.23419">
        <ele>110</ele>
        <time>2022-04-15T12:20:35Z</time>
      </trkpt>
      <trkpt lat="43.48165" lon="6.23419">
        <ele>110</ele>
        <time>2022-04-15T12:20:36Z</time>
      </trkpt>
      <trkpt lat="43.48164" lon="6.2342">
        <ele>110</ele>
        <time>2022-04-15T12:20:37Z</time>
      </trkpt>
      <trkpt lat="43.48164" lon="6.2342">
        <ele>110</ele>
        <time>2022-04-15T12:20:38Z</time>
      </trkpt>
      <trkpt lat="43.48164" lon="6.23421">
        <ele>110</ele>
        <time>2022-04-15T12:20:39Z</time>
      </trkpt>
      <trkpt lat="43.48163" lon="6.23421">
        <ele>110</ele>
        <time>2022-04-15T12:20:40Z</time>
      </trkpt>
      <trkpt lat="43.48163" lon="6.23422">
        <ele>110</ele>
        <time>2022-04-15T12:20:41Z</time>
      </trkpt>
      <trkpt lat="43.48163" lon="6.23422">
        <ele>110</ele>
        <time>2022-04-15T12:20:42Z</time>
      </trkpt>
      <trkpt lat="43.48162" lon="6.23422">
        <ele>110</ele>
        <time>2022-04-15T12:20:43Z</time>
      </trkpt>
      <trkpt lat="43.48162" lon="6.23422">
        <ele>110</ele>
        <time>2022-04-15T12:20:44Z</time>
      </trkpt>
      <trkpt lat="43.48162" lon="6.23422">
        <ele>110</ele>
        <time>2022-04-15T12:20:45Z</time>
      </trkpt>
      <trkpt lat="43.48161" lon="6.23422">
        <ele>110</ele>
        <time>2022-04-15T12:20:46Z</time>
      </trkpt>
      <trkpt lat="43.48161" lon="6.23422">
        <ele>110</ele>
        <time>2022-04-15T12:20:47Z</time>
      </trkpt>
      <trkpt lat="43.48161" lon="6.23422">
        <ele>110</ele>
        <time>2022-04-15T12:20:48Z</time>
      </trkpt>
      <trkpt lat="43.4816" lon="6.23422">
        <ele>110</ele>
        <time>2022-04-15T12:20:49Z</time>
      </trkpt>
      <trkpt lat="43.4816" lon="6.23422">
        <ele>110</ele>
        <time>2022-04-15T12:20:50Z</time>
      </trkpt>
      <trkpt lat="43.4816" lon="6.23422">
        <ele>110</ele>
        <time>2022-04-15T12:20:51Z</time>
      </trkpt>
      <trkpt lat="43.48159" lon="6.23421">
        <ele>110</ele>
        <time>2022-04-15T12:20:52Z</time>
      </trkpt>
      <trkpt lat="43.48159" lon="6.23421">
        <ele>110</ele>
        <time>2022-04-15T12:20:53Z</time>
      </trkpt>
      <trkpt lat="43.48159" lon="6.23421">
        <ele>110</ele>
        <time>2022-04-15T12:20:54Z</time>
      </trkpt>
      <trkpt lat="43.48158" lon="6.23421">
        <ele>110</ele>
        <time>2022-04-15T12:20:55Z</time>
      </trkpt>
      <trkpt lat="43.48158" lon="6.23421">
        <ele>110</ele>
        <time>2022-04-15T12:20:56Z</time>
      </trkpt>
      <trkpt lat="43.48158" lon="6.2342">
        <ele>110</ele>
        <time>2022-04-15T12:20:57Z</time>
      </trkpt>
      <trkpt lat="43.48158" lon="6.2342">
        <ele>110</ele>
        <time>2022-04-15T12:20:58Z</time>
      </trkpt>
      <trkpt lat="43.48158" lon="6.2342">
        <ele>110</ele>
        <time>2022-04-15T12:20:59Z</time>
      </trkpt>
      <trkpt lat="43.48158" lon="6.2342">
        <ele>110</ele>
        <time>2022-04-15T12:21:00Z</time>
      </trkpt>
      <trkpt lat="43.48157" lon="6.2342">
        <ele>110</ele>
        <time>2022-04-15T12:21:01Z</time>
      </trkpt>
      <trkpt lat="43.48157" lon="6.2342">
        <ele>110</ele>
        <time>2022-04-15T12:21:02Z</time>
      </trkpt>
      <trkpt lat="43.48157" lon="6.2342">
        <ele>110</ele>
        <time>2022-04-15T12:21:03Z</time>
      </trkpt>
      <trkpt lat="43.48157" lon="6.2342">
        <ele>110</ele>
        <time>2022-04-15T12:21:04Z</time>
      </trkpt>
      <trkpt lat="43.48157" lon="6.2342">
        <ele>110</ele>
        <time>2022-04-15T12:21:05Z</time>
      </trkpt>
      <trkpt lat="43.48157" lon="6.23419">
        <ele>110</ele>
        <time>2022-04-15T12:21:06Z</time>
      </trkpt>
      <trkpt lat="43.48157" lon="6.23419">
        <ele>110</ele>
        <time>2022-04-15T12:21:07Z</time>
      </trkpt>
      <trkpt lat="43.48157" lon="6.23419">
        <ele>110</ele>
        <time>2022-04-15T12:21:08Z</time>
      </trkpt>
      <trkpt lat="43.48157" lon="6.23419">
        <ele>110</ele>
        <time>2022-04-15T12:21:09Z</time>
      </trkpt>
      <trkpt lat="43.48157" lon="6.23419">
        <ele>110</ele>
        <time>2022-04-15T12:21:10Z</time>
      </trkpt>
      <trkpt lat="43.48157" lon="6.23419">
        <ele>110</ele>
        <time>2022-04-15T12:21:11Z</time>
      </trkpt>
      <trkpt lat="43.48157" lon="6.23419">
        <ele>110</ele>
        <time>2022-04-15T12:21:12Z</time>
      </trkpt>
      <trkpt lat="43.48157" lon="6.23419">
        <ele>110</ele>
        <time>2022-04-15T12:21:13Z</time>
      </trkpt>
      <trkpt lat="43.48157" lon="6.23419">
        <ele>110</ele>
        <time>2022-04-15T12:21:14Z</time>
      </trkpt>
      <trkpt lat="43.48157" lon="6.23419">
        <ele>110</ele>
        <time>2022-04-15T12:21:15Z</time>
      </trkpt>
      <trkpt lat="43.48157" lon="6.23419">
        <ele>110</ele>
        <time>2022-04-15T12:21:16Z</time>
      </trkpt>
      <trkpt lat="43.48157" lon="6.23419">
        <ele>110</ele>
        <time>2022-04-15T12:21:17Z</time>
      </trkpt>
      <trkpt lat="43.48157" lon="6.23419">
        <ele>110</ele>
        <time>2022-04-15T12:21:18Z</time>
      </trkpt>
      <trkpt lat="43.48157" lon="6.23419">
        <ele>110</ele>
        <time>2022-04-15T12:21:19Z</time>
      </trkpt>
      <trkpt lat="43.48157" lon="6.23419">
        <ele>110</ele>
        <time>2022-04-15T12:21:20Z</time>
      </trkpt>
      <trkpt lat="43.48157" lon="6.23419">
        <ele>110</ele>
        <time>2022-04-15T12:21:21Z</time>
      </trkpt>
      <trkpt lat="43.48157" lon="6.23419">
        <ele>110</ele>
        <time>2022-04-15T12:21:22Z</time>
      </trkpt>
      <trkpt lat="43.48157" lon="6.23419">
        <ele>110</ele>
        <time>2022-04-15T12:21:23Z</time>
      </trkpt>
      <trkpt lat="43.48157" lon="6.23419">
        <ele>110</ele>
        <time>2022-04-15T12:21:24Z</time>
      </trkpt>
      <trkpt lat="43.48157" lon="6.2342">
        <ele>110</ele>
        <time>2022-04-15T12:21:25Z</time>
      </trkpt>
      <trkpt lat="43.48156" lon="6.2342">
        <ele>110</ele>
        <time>2022-04-15T12:21:26Z</time>
      </trkpt>
      <trkpt lat="43.48156" lon="6.23421">
        <ele>110</ele>
        <time>2022-04-15T12:21:27Z</time>
      </trkpt>
      <trkpt lat="43.48156" lon="6.23421">
        <ele>110</ele>
        <time>2022-04-15T12:21:28Z</time>
      </trkpt>
      <trkpt lat="43.48156" lon="6.23422">
        <ele>110</ele>
        <time>2022-04-15T12:21:29Z</time>
      </trkpt>
      <trkpt lat="43.48156" lon="6.23422">
        <ele>110</ele>
        <time>2022-04-15T12:21:30Z</time>
      </trkpt>
      <trkpt lat="43.48156" lon="6.23422">
        <ele>110</ele>
        <time>2022-04-15T12:21:31Z</time>
      </trkpt>
      <trkpt lat="43.48156" lon="6.23422">
        <ele>110</ele>
        <time>2022-04-15T12:21:32Z</time>
      </trkpt>
      <trkpt lat="43.48156" lon="6.23422">
        <ele>110</ele>
        <time>2022-04-15T12:21:33Z</time>
      </trkpt>
      <trkpt lat="43.48156" lon="6.23422">
        <ele>110</ele>
        <time>2022-04-15T12:21:34Z</time>
      </trkpt>
      <trkpt lat="43.48156" lon="6.23422">
        <ele>110</ele>
        <time>2022-04-15T12:21:35Z</time>
      </trkpt>
      <trkpt lat="43.48156" lon="6.23424">
        <ele>110</ele>
        <time>2022-04-15T12:21:36Z</time>
      </trkpt>
      <trkpt lat="43.48156" lon="6.23424">
        <ele>110</ele>
        <time>2022-04-15T12:21:37Z</time>
      </trkpt>
      <trkpt lat="43.48156" lon="6.23424">
        <ele>110</ele>
        <time>2022-04-15T12:21:38Z</time>
      </trkpt>
      <trkpt lat="43.48156" lon="6.23424">
        <ele>110</ele>
        <time>2022-04-15T12:21:39Z</time>
      </trkpt>
      <trkpt lat="43.48156" lon="6.23424">
        <ele>110</ele>
        <time>2022-04-15T12:21:40Z</time>
      </trkpt>
      <trkpt lat="43.48156" lon="6.23424">
        <ele>110</ele>
        <time>2022-04-15T12:21:41Z</time>
      </trkpt>
      <trkpt lat="43.48156" lon="6.23424">
        <ele>110</ele>
        <time>2022-04-15T12:21:42Z</time>
      </trkpt>
      <trkpt lat="43.48156" lon="6.23424">
        <ele>110</ele>
        <time>2022-04-15T12:21:43Z</time>
      </trkpt>
      <trkpt lat="43.48156" lon="6.23424">
        <ele>110</ele>
        <time>2022-04-15T12:21:44Z</time>
      </trkpt>
      <trkpt lat="43.48156" lon="6.23425">
        <ele>110</ele>
        <time>2022-04-15T12:21:45Z</time>
      </trkpt>
      <trkpt lat="43.48156" lon="6.23425">
        <ele>110</ele>
        <time>2022-04-15T12:21:46Z</time>
      </trkpt>
      <trkpt lat="43.48156" lon="6.23425">
        <ele>110</ele>
        <time>2022-04-15T12:21:47Z</time>
      </trkpt>
      <trkpt lat="43.48156" lon="6.23425">
        <ele>110</ele>
        <time>2022-04-15T12:21:48Z</time>
      </trkpt>
      <trkpt lat="43.48156" lon="6.23425">
        <ele>110</ele>
        <time>2022-04-15T12:21:49Z</time>
      </trkpt>
      <trkpt lat="43.48156" lon="6.23425">
        <ele>110</ele>
        <time>2022-04-15T12:21:50Z</time>
      </trkpt>
      <trkpt lat="43.48156" lon="6.23425">
        <ele>110</ele>
        <time>2022-04-15T12:21:51Z</time>
      </trkpt>
      <trkpt lat="43.48156" lon="6.23425">
        <ele>110</ele>
        <time>2022-04-15T12:21:52Z</time>
      </trkpt>
      <trkpt lat="43.48156" lon="6.23425">
        <ele>110</ele>
        <time>2022-04-15T12:21:53Z</time>
      </trkpt>
      <trkpt lat="43.48156" lon="6.23425">
        <ele>110</ele>
        <time>2022-04-15T12:21:54Z</time>
      </trkpt>
      <trkpt lat="43.48156" lon="6.23425">
        <ele>109</ele>
        <time>2022-04-15T12:21:55Z</time>
      </trkpt>
      <trkpt lat="43.48156" lon="6.23425">
        <ele>109</ele>
        <time>2022-04-15T12:21:56Z</time>
      </trkpt>
      <trkpt lat="43.48156" lon="6.23426">
        <ele>109</ele>
        <time>2022-04-15T12:21:57Z</time>
      </trkpt>
      <trkpt lat="43.48156" lon="6.23426">
        <ele>109</ele>
        <time>2022-04-15T12:21:58Z</time>
      </trkpt>
      <trkpt lat="43.48156" lon="6.23427">
        <ele>109</ele>
        <time>2022-04-15T12:21:59Z</time>
      </trkpt>
      <trkpt lat="43.48156" lon="6.23427">
        <ele>109</ele>
        <time>2022-04-15T12:22:00Z</time>
      </trkpt>
      <trkpt lat="43.48156" lon="6.23428">
        <ele>109</ele>
        <time>2022-04-15T12:22:01Z</time>
      </trkpt>
      <trkpt lat="43.48155" lon="6.23429">
        <ele>109</ele>
        <time>2022-04-15T12:22:02Z</time>
      </trkpt>
      <trkpt lat="43.48156" lon="6.2343">
        <ele>109</ele>
        <time>2022-04-15T12:22:03Z</time>
      </trkpt>
      <trkpt lat="43.48156" lon="6.2343">
        <ele>109</ele>
        <time>2022-04-15T12:22:04Z</time>
      </trkpt>
      <trkpt lat="43.48156" lon="6.23431">
        <ele>109</ele>
        <time>2022-04-15T12:22:05Z</time>
      </trkpt>
      <trkpt lat="43.48156" lon="6.23432">
        <ele>109</ele>
        <time>2022-04-15T12:22:06Z</time>
      </trkpt>
      <trkpt lat="43.48156" lon="6.23433">
        <ele>107</ele>
        <time>2022-04-15T12:22:07Z</time>
      </trkpt>
      <trkpt lat="43.48156" lon="6.23434">
        <ele>107</ele>
        <time>2022-04-15T12:22:08Z</time>
      </trkpt>
      <trkpt lat="43.48156" lon="6.23436">
        <ele>106</ele>
        <time>2022-04-15T12:22:09Z</time>
      </trkpt>
      <trkpt lat="43.48156" lon="6.23437">
        <ele>105</ele>
        <time>2022-04-15T12:22:10Z</time>
      </trkpt>
      <trkpt lat="43.48156" lon="6.23438">
        <ele>105</ele>
        <time>2022-04-15T12:22:11Z</time>
      </trkpt>
      <trkpt lat="43.48156" lon="6.23439">
        <ele>104</ele>
        <time>2022-04-15T12:22:12Z</time>
      </trkpt>
      <trkpt lat="43.48156" lon="6.23441">
        <ele>104</ele>
        <time>2022-04-15T12:22:13Z</time>
      </trkpt>
      <trkpt lat="43.48156" lon="6.23443">
        <ele>104</ele>
        <time>2022-04-15T12:22:14Z</time>
      </trkpt>
      <trkpt lat="43.48155" lon="6.23445">
        <ele>103</ele>
        <time>2022-04-15T12:22:15Z</time>
      </trkpt>
      <trkpt lat="43.48155" lon="6.23448">
        <ele>102</ele>
        <time>2022-04-15T12:22:16Z</time>
      </trkpt>
      <trkpt lat="43.48155" lon="6.2345">
        <ele>102</ele>
        <time>2022-04-15T12:22:17Z</time>
      </trkpt>
      <trkpt lat="43.48155" lon="6.23452">
        <ele>102</ele>
        <time>2022-04-15T12:22:18Z</time>
      </trkpt>
      <trkpt lat="43.48155" lon="6.23453">
        <ele>102</ele>
        <time>2022-04-15T12:22:19Z</time>
      </trkpt>
      <trkpt lat="43.48155" lon="6.23454">
        <ele>102</ele>
        <time>2022-04-15T12:22:20Z</time>
      </trkpt>
      <trkpt lat="43.48154" lon="6.23454">
        <ele>102</ele>
        <time>2022-04-15T12:22:21Z</time>
      </trkpt>
      <trkpt lat="43.48154" lon="6.23455">
        <ele>102</ele>
        <time>2022-04-15T12:22:22Z</time>
      </trkpt>
      <trkpt lat="43.48154" lon="6.23456">
        <ele>102</ele>
        <time>2022-04-15T12:22:23Z</time>
      </trkpt>
      <trkpt lat="43.48154" lon="6.23457">
        <ele>102</ele>
        <time>2022-04-15T12:22:24Z</time>
      </trkpt>
      <trkpt lat="43.48154" lon="6.23457">
        <ele>101</ele>
        <time>2022-04-15T12:22:25Z</time>
      </trkpt>
      <trkpt lat="43.48153" lon="6.23458">
        <ele>101</ele>
        <time>2022-04-15T12:22:26Z</time>
      </trkpt>
      <trkpt lat="43.48153" lon="6.23459">
        <ele>101</ele>
        <time>2022-04-15T12:22:27Z</time>
      </trkpt>
      <trkpt lat="43.48153" lon="6.23459">
        <ele>101</ele>
        <time>2022-04-15T12:22:28Z</time>
      </trkpt>
      <trkpt lat="43.48153" lon="6.2346">
        <ele>100</ele>
        <time>2022-04-15T12:22:29Z</time>
      </trkpt>
      <trkpt lat="43.48152" lon="6.2346">
        <ele>100</ele>
        <time>2022-04-15T12:22:30Z</time>
      </trkpt>
      <trkpt lat="43.48152" lon="6.23461">
        <ele>101</ele>
        <time>2022-04-15T12:22:31Z</time>
      </trkpt>
      <trkpt lat="43.48151" lon="6.23462">
        <ele>101</ele>
        <time>2022-04-15T12:22:32Z</time>
      </trkpt>
      <trkpt lat="43.4815" lon="6.23464">
        <ele>101</ele>
        <time>2022-04-15T12:22:33Z</time>
      </trkpt>
      <trkpt lat="43.4815" lon="6.23465">
        <ele>101</ele>
        <time>2022-04-15T12:22:34Z</time>
      </trkpt>
      <trkpt lat="43.48149" lon="6.23467">
        <ele>101</ele>
        <time>2022-04-15T12:22:35Z</time>
      </trkpt>
      <trkpt lat="43.48148" lon="6.23468">
        <ele>101</ele>
        <time>2022-04-15T12:22:36Z</time>
      </trkpt>
      <trkpt lat="43.48147" lon="6.23469">
        <ele>101</ele>
        <time>2022-04-15T12:22:37Z</time>
      </trkpt>
      <trkpt lat="43.48146" lon="6.23471">
        <ele>101</ele>
        <time>2022-04-15T12:22:38Z</time>
      </trkpt>
      <trkpt lat="43.48145" lon="6.23472">
        <ele>102</ele>
        <time>2022-04-15T12:22:39Z</time>
      </trkpt>
      <trkpt lat="43.48143" lon="6.23474">
        <ele>102</ele>
        <time>2022-04-15T12:22:40Z</time>
      </trkpt>
      <trkpt lat="43.48142" lon="6.23477">
        <ele>102</ele>
        <time>2022-04-15T12:22:41Z</time>
      </trkpt>
      <trkpt lat="43.48141" lon="6.23479">
        <ele>102</ele>
        <time>2022-04-15T12:22:42Z</time>
      </trkpt>
      <trkpt lat="43.4814" lon="6.23481">
        <ele>103</ele>
        <time>2022-04-15T12:22:43Z</time>
      </trkpt>
      <trkpt lat="43.48139" lon="6.23482">
        <ele>103</ele>
        <time>2022-04-15T12:22:44Z</time>
      </trkpt>
      <trkpt lat="43.48137" lon="6.23484">
        <ele>103</ele>
        <time>2022-04-15T12:22:45Z</time>
      </trkpt>
      <trkpt lat="43.48136" lon="6.23485">
        <ele>104</ele>
        <time>2022-04-15T12:22:46Z</time>
      </trkpt>
      <trkpt lat="43.48135" lon="6.23487">
        <ele>104</ele>
        <time>2022-04-15T12:22:47Z</time>
      </trkpt>
      <trkpt lat="43.48134" lon="6.23488">
        <ele>104</ele>
        <time>2022-04-15T12:22:48Z</time>
      </trkpt>
      <trkpt lat="43.48133" lon="6.23489">
        <ele>104</ele>
        <time>2022-04-15T12:22:49Z</time>
      </trkpt>
      <trkpt lat="43.48132" lon="6.2349">
        <ele>107</ele>
        <time>2022-04-15T12:22:50Z</time>
      </trkpt>
      <trkpt lat="43.48131" lon="6.23491">
        <ele>107</ele>
        <time>2022-04-15T12:22:51Z</time>
      </trkpt>
      <trkpt lat="43.4813" lon="6.23492">
        <ele>107</ele>
        <time>2022-04-15T12:22:52Z</time>
      </trkpt>
      <trkpt lat="43.4813" lon="6.23493">
        <ele>107</ele>
        <time>2022-04-15T12:22:53Z</time>
      </trkpt>
      <trkpt lat="43.48129" lon="6.23494">
        <ele>107</ele>
        <time>2022-04-15T12:22:54Z</time>
      </trkpt>
      <trkpt lat="43.48128" lon="6.23495">
        <ele>107</ele>
        <time>2022-04-15T12:22:55Z</time>
      </trkpt>
      <trkpt lat="43.48128" lon="6.23496">
        <ele>107</ele>
        <time>2022-04-15T12:22:56Z</time>
      </trkpt>
      <trkpt lat="43.48127" lon="6.23497">
        <ele>107</ele>
        <time>2022-04-15T12:22:57Z</time>
      </trkpt>
      <trkpt lat="43.48126" lon="6.23498">
        <ele>107</ele>
        <time>2022-04-15T12:22:58Z</time>
      </trkpt>
      <trkpt lat="43.48126" lon="6.23499">
        <ele>107</ele>
        <time>2022-04-15T12:22:59Z</time>
      </trkpt>
      <trkpt lat="43.48125" lon="6.235">
        <ele>107</ele>
        <time>2022-04-15T12:23:00Z</time>
      </trkpt>
      <trkpt lat="43.48125" lon="6.23501">
        <ele>107</ele>
        <time>2022-04-15T12:23:01Z</time>
      </trkpt>
      <trkpt lat="43.48124" lon="6.23502">
        <ele>107</ele>
        <time>2022-04-15T12:23:02Z</time>
      </trkpt>
      <trkpt lat="43.48124" lon="6.23502">
        <ele>106</ele>
        <time>2022-04-15T12:23:03Z</time>
      </trkpt>
      <trkpt lat="43.48123" lon="6.23503">
        <ele>106</ele>
        <time>2022-04-15T12:23:04Z</time>
      </trkpt>
      <trkpt lat="43.48123" lon="6.23503">
        <ele>106</ele>
        <time>2022-04-15T12:23:05Z</time>
      </trkpt>
      <trkpt lat="43.48123" lon="6.23504">
        <ele>106</ele>
        <time>2022-04-15T12:23:06Z</time>
      </trkpt>
      <trkpt lat="43.48123" lon="6.23504">
        <ele>105</ele>
        <time>2022-04-15T12:23:07Z</time>
      </trkpt>
      <trkpt lat="43.48122" lon="6.23505">
        <ele>105</ele>
        <time>2022-04-15T12:23:08Z</time>
      </trkpt>
      <trkpt lat="43.48121" lon="6.23507">
        <ele>105</ele>
        <time>2022-04-15T12:23:09Z</time>
      </trkpt>
      <trkpt lat="43.4812" lon="6.23509">
        <ele>105</ele>
        <time>2022-04-15T12:23:10Z</time>
      </trkpt>
      <trkpt lat="43.4812" lon="6.2351">
        <ele>104</ele>
        <time>2022-04-15T12:23:11Z</time>
      </trkpt>
      <trkpt lat="43.48119" lon="6.23512">
        <ele>104</ele>
        <time>2022-04-15T12:23:12Z</time>
      </trkpt>
      <trkpt lat="43.48118" lon="6.23513">
        <ele>104</ele>
        <time>2022-04-15T12:23:13Z</time>
      </trkpt>
      <trkpt lat="43.48118" lon="6.23515">
        <ele>104</ele>
        <time>2022-04-15T12:23:14Z</time>
      </trkpt>
      <trkpt lat="43.48117" lon="6.23517">
        <ele>104</ele>
        <time>2022-04-15T12:23:15Z</time>
      </trkpt>
      <trkpt lat="43.48117" lon="6.23518">
        <ele>104</ele>
        <time>2022-04-15T12:23:16Z</time>
      </trkpt>
      <trkpt lat="43.48116" lon="6.23519">
        <ele>104</ele>
        <time>2022-04-15T12:23:17Z</time>
      </trkpt>
      <trkpt lat="43.48116" lon="6.2352">
        <ele>104</ele>
        <time>2022-04-15T12:23:18Z</time>
      </trkpt>
      <trkpt lat="43.48116" lon="6.23521">
        <ele>104</ele>
        <time>2022-04-15T12:23:19Z</time>
      </trkpt>
      <trkpt lat="43.48115" lon="6.23522">
        <ele>104</ele>
        <time>2022-04-15T12:23:20Z</time>
      </trkpt>
      <trkpt lat="43.48115" lon="6.23523">
        <ele>104</ele>
        <time>2022-04-15T12:23:21Z</time>
      </trkpt>
      <trkpt lat="43.48114" lon="6.23524">
        <ele>104</ele>
        <time>2022-04-15T12:23:22Z</time>
      </trkpt>
      <trkpt lat="43.48114" lon="6.23526">
        <ele>104</ele>
        <time>2022-04-15T12:23:23Z</time>
      </trkpt>
      <trkpt lat="43.48114" lon="6.23527">
        <ele>104</ele>
        <time>2022-04-15T12:23:24Z</time>
      </trkpt>
      <trkpt lat="43.48113" lon="6.23529">
        <ele>104</ele>
        <time>2022-04-15T12:23:25Z</time>
      </trkpt>
      <trkpt lat="43.48113" lon="6.23531">
        <ele>104</ele>
        <time>2022-04-15T12:23:26Z</time>
      </trkpt>
      <trkpt lat="43.48113" lon="6.23532">
        <ele>104</ele>
        <time>2022-04-15T12:23:27Z</time>
      </trkpt>
      <trkpt lat="43.48112" lon="6.23533">
        <ele>105</ele>
        <time>2022-04-15T12:23:28Z</time>
      </trkpt>
      <trkpt lat="43.48112" lon="6.23535">
        <ele>105</ele>
        <time>2022-04-15T12:23:29Z</time>
      </trkpt>
      <trkpt lat="43.48112" lon="6.23537">
        <ele>105</ele>
        <time>2022-04-15T12:23:30Z</time>
      </trkpt>
      <trkpt lat="43.48113" lon="6.23539">
        <ele>105</ele>
        <time>2022-04-15T12:23:31Z</time>
      </trkpt>
      <trkpt lat="43.48113" lon="6.23542">
        <ele>105</ele>
        <time>2022-04-15T12:23:32Z</time>
      </trkpt>
      <trkpt lat="43.48113" lon="6.23544">
        <ele>105</ele>
        <time>2022-04-15T12:23:33Z</time>
      </trkpt>
      <trkpt lat="43.48113" lon="6.23546">
        <ele>106</ele>
        <time>2022-04-15T12:23:34Z</time>
      </trkpt>
      <trkpt lat="43.48113" lon="6.23548">
        <ele>106</ele>
        <time>2022-04-15T12:23:35Z</time>
      </trkpt>
      <trkpt lat="43.48114" lon="6.2355">
        <ele>106</ele>
        <time>2022-04-15T12:23:36Z</time>
      </trkpt>
      <trkpt lat="43.48114" lon="6.23552">
        <ele>106</ele>
        <time>2022-04-15T12:23:37Z</time>
      </trkpt>
      <trkpt lat="43.48114" lon="6.23554">
        <ele>106</ele>
        <time>2022-04-15T12:23:38Z</time>
      </trkpt>
      <trkpt lat="43.48114" lon="6.23556">
        <ele>106</ele>
        <time>2022-04-15T12:23:39Z</time>
      </trkpt>
      <trkpt lat="43.48114" lon="6.23558">
        <ele>107</ele>
        <time>2022-04-15T12:23:40Z</time>
      </trkpt>
      <trkpt lat="43.48114" lon="6.23559">
        <ele>107</ele>
        <time>2022-04-15T12:23:41Z</time>
      </trkpt>
      <trkpt lat="43.48114" lon="6.23561">
        <ele>107</ele>
        <time>2022-04-15T12:23:42Z</time>
      </trkpt>
      <trkpt lat="43.48114" lon="6.23563">
        <ele>107</ele>
        <time>2022-04-15T12:23:43Z</time>
      </trkpt>
      <trkpt lat="43.48114" lon="6.23565">
        <ele>107</ele>
        <time>2022-04-15T12:23:44Z</time>
      </trkpt>
      <trkpt lat="43.48114" lon="6.23566">
        <ele>107</ele>
        <time>2022-04-15T12:23:45Z</time>
      </trkpt>
      <trkpt lat="43.48114" lon="6.23568">
        <ele>107</ele>
        <time>2022-04-15T12:23:46Z</time>
      </trkpt>
      <trkpt lat="43.48114" lon="6.2357">
        <ele>107</ele>
        <time>2022-04-15T12:23:47Z</time>
      </trkpt>
      <trkpt lat="43.48114" lon="6.23572">
        <ele>107</ele>
        <time>2022-04-15T12:23:48Z</time>
      </trkpt>
      <trkpt lat="43.48113" lon="6.23573">
        <ele>107</ele>
        <time>2022-04-15T12:23:49Z</time>
      </trkpt>
      <trkpt lat="43.48113" lon="6.23575">
        <ele>107</ele>
        <time>2022-04-15T12:23:50Z</time>
      </trkpt>
      <trkpt lat="43.48113" lon="6.23577">
        <ele>107</ele>
        <time>2022-04-15T12:23:51Z</time>
      </trkpt>
      <trkpt lat="43.48113" lon="6.23579">
        <ele>107</ele>
        <time>2022-04-15T12:23:52Z</time>
      </trkpt>
      <trkpt lat="43.48112" lon="6.23581">
        <ele>107</ele>
        <time>2022-04-15T12:23:53Z</time>
      </trkpt>
      <trkpt lat="43.48112" lon="6.23582">
        <ele>106</ele>
        <time>2022-04-15T12:23:54Z</time>
      </trkpt>
      <trkpt lat="43.48112" lon="6.23583">
        <ele>106</ele>
        <time>2022-04-15T12:23:55Z</time>
      </trkpt>
      <trkpt lat="43.48112" lon="6.23585">
        <ele>106</ele>
        <time>2022-04-15T12:23:56Z</time>
      </trkpt>
      <trkpt lat="43.48111" lon="6.23586">
        <ele>106</ele>
        <time>2022-04-15T12:23:57Z</time>
      </trkpt>
      <trkpt lat="43.48111" lon="6.23587">
        <ele>106</ele>
        <time>2022-04-15T12:23:58Z</time>
      </trkpt>
      <trkpt lat="43.4811" lon="6.23589">
        <ele>106</ele>
        <time>2022-04-15T12:23:59Z</time>
      </trkpt>
      <trkpt lat="43.4811" lon="6.23592">
        <ele>106</ele>
        <time>2022-04-15T12:24:00Z</time>
      </trkpt>
      <trkpt lat="43.48109" lon="6.23594">
        <ele>106</ele>
        <time>2022-04-15T12:24:01Z</time>
      </trkpt>
      <trkpt lat="43.48108" lon="6.23596">
        <ele>106</ele>
        <time>2022-04-15T12:24:02Z</time>
      </trkpt>
      <trkpt lat="43.48107" lon="6.23598">
        <ele>106</ele>
        <time>2022-04-15T12:24:03Z</time>
      </trkpt>
      <trkpt lat="43.48106" lon="6.23599">
        <ele>106</ele>
        <time>2022-04-15T12:24:04Z</time>
      </trkpt>
      <trkpt lat="43.48105" lon="6.236">
        <ele>106</ele>
        <time>2022-04-15T12:24:05Z</time>
      </trkpt>
      <trkpt lat="43.48104" lon="6.23602">
        <ele>106</ele>
        <time>2022-04-15T12:24:06Z</time>
      </trkpt>
      <trkpt lat="43.48104" lon="6.23602">
        <ele>106</ele>
        <time>2022-04-15T12:24:07Z</time>
      </trkpt>
      <trkpt lat="43.48103" lon="6.23603">
        <ele>106</ele>
        <time>2022-04-15T12:24:08Z</time>
      </trkpt>
      <trkpt lat="43.48102" lon="6.23604">
        <ele>106</ele>
        <time>2022-04-15T12:24:09Z</time>
      </trkpt>
      <trkpt lat="43.48102" lon="6.23605">
        <ele>106</ele>
        <time>2022-04-15T12:24:10Z</time>
      </trkpt>
      <trkpt lat="43.481" lon="6.23606">
        <ele>106</ele>
        <time>2022-04-15T12:24:11Z</time>
      </trkpt>
      <trkpt lat="43.48099" lon="6.23608">
        <ele>106</ele>
        <time>2022-04-15T12:24:12Z</time>
      </trkpt>
      <trkpt lat="43.48098" lon="6.23609">
        <ele>106</ele>
        <time>2022-04-15T12:24:13Z</time>
      </trkpt>
      <trkpt lat="43.48097" lon="6.2361">
        <ele>106</ele>
        <time>2022-04-15T12:24:14Z</time>
      </trkpt>
      <trkpt lat="43.48097" lon="6.23611">
        <ele>106</ele>
        <time>2022-04-15T12:24:15Z</time>
      </trkpt>
      <trkpt lat="43.48097" lon="6.23612">
        <ele>106</ele>
        <time>2022-04-15T12:24:16Z</time>
      </trkpt>
      <trkpt lat="43.48096" lon="6.23613">
        <ele>106</ele>
        <time>2022-04-15T12:24:17Z</time>
      </trkpt>
      <trkpt lat="43.48096" lon="6.23613">
        <ele>107</ele>
        <time>2022-04-15T12:24:18Z</time>
      </trkpt>
      <trkpt lat="43.48096" lon="6.23614">
        <ele>107</ele>
        <time>2022-04-15T12:24:19Z</time>
      </trkpt>
      <trkpt lat="43.48096" lon="6.23614">
        <ele>107</ele>
        <time>2022-04-15T12:24:20Z</time>
      </trkpt>
      <trkpt lat="43.48095" lon="6.23615">
        <ele>106</ele>
        <time>2022-04-15T12:24:21Z</time>
      </trkpt>
      <trkpt lat="43.48095" lon="6.23616">
        <ele>106</ele>
        <time>2022-04-15T12:24:22Z</time>
      </trkpt>
      <trkpt lat="43.48095" lon="6.23618">
        <ele>106</ele>
        <time>2022-04-15T12:24:23Z</time>
      </trkpt>
      <trkpt lat="43.48094" lon="6.2362">
        <ele>106</ele>
        <time>2022-04-15T12:24:24Z</time>
      </trkpt>
      <trkpt lat="43.48094" lon="6.23621">
        <ele>106</ele>
        <time>2022-04-15T12:24:25Z</time>
      </trkpt>
      <trkpt lat="43.48093" lon="6.23622">
        <ele>106</ele>
        <time>2022-04-15T12:24:26Z</time>
      </trkpt>
      <trkpt lat="43.48093" lon="6.23623">
        <ele>106</ele>
        <time>2022-04-15T12:24:27Z</time>
      </trkpt>
      <trkpt lat="43.48093" lon="6.23624">
        <ele>106</ele>
        <time>2022-04-15T12:24:28Z</time>
      </trkpt>
      <trkpt lat="43.48092" lon="6.23625">
        <ele>106</ele>
        <time>2022-04-15T12:24:29Z</time>
      </trkpt>
      <trkpt lat="43.48091" lon="6.23627">
        <ele>105</ele>
        <time>2022-04-15T12:24:30Z</time>
      </trkpt>
      <trkpt lat="43.4809" lon="6.23629">
        <ele>105</ele>
        <time>2022-04-15T12:24:31Z</time>
      </trkpt>
      <trkpt lat="43.48089" lon="6.2363">
        <ele>105</ele>
        <time>2022-04-15T12:24:32Z</time>
      </trkpt>
      <trkpt lat="43.48088" lon="6.23631">
        <ele>105</ele>
        <time>2022-04-15T12:24:33Z</time>
      </trkpt>
      <trkpt lat="43.48088" lon="6.23632">
        <ele>105</ele>
        <time>2022-04-15T12:24:34Z</time>
      </trkpt>
      <trkpt lat="43.48087" lon="6.23633">
        <ele>105</ele>
        <time>2022-04-15T12:24:35Z</time>
      </trkpt>
      <trkpt lat="43.48086" lon="6.23635">
        <ele>103</ele>
        <time>2022-04-15T12:24:36Z</time>
      </trkpt>
      <trkpt lat="43.48085" lon="6.23636">
        <ele>102</ele>
        <time>2022-04-15T12:24:37Z</time>
      </trkpt>
      <trkpt lat="43.48084" lon="6.23637">
        <ele>102</ele>
        <time>2022-04-15T12:24:38Z</time>
      </trkpt>
      <trkpt lat="43.48083" lon="6.23638">
        <ele>101</ele>
        <time>2022-04-15T12:24:39Z</time>
      </trkpt>
      <trkpt lat="43.48082" lon="6.23639">
        <ele>101</ele>
        <time>2022-04-15T12:24:40Z</time>
      </trkpt>
      <trkpt lat="43.48082" lon="6.2364">
        <ele>101</ele>
        <time>2022-04-15T12:24:41Z</time>
      </trkpt>
      <trkpt lat="43.48081" lon="6.23641">
        <ele>101</ele>
        <time>2022-04-15T12:24:42Z</time>
      </trkpt>
      <trkpt lat="43.4808" lon="6.23643">
        <ele>101</ele>
        <time>2022-04-15T12:24:43Z</time>
      </trkpt>
      <trkpt lat="43.4808" lon="6.23644">
        <ele>101</ele>
        <time>2022-04-15T12:24:44Z</time>
      </trkpt>
      <trkpt lat="43.48079" lon="6.23645">
        <ele>101</ele>
        <time>2022-04-15T12:24:45Z</time>
      </trkpt>
      <trkpt lat="43.48078" lon="6.23646">
        <ele>101</ele>
        <time>2022-04-15T12:24:46Z</time>
      </trkpt>
      <trkpt lat="43.48077" lon="6.23648">
        <ele>100</ele>
        <time>2022-04-15T12:24:47Z</time>
      </trkpt>
      <trkpt lat="43.48077" lon="6.23649">
        <ele>100</ele>
        <time>2022-04-15T12:24:48Z</time>
      </trkpt>
      <trkpt lat="43.48076" lon="6.23651">
        <ele>100</ele>
        <time>2022-04-15T12:24:49Z</time>
      </trkpt>
      <trkpt lat="43.48075" lon="6.23652">
        <ele>100</ele>
        <time>2022-04-15T12:24:50Z</time>
      </trkpt>
      <trkpt lat="43.48075" lon="6.23654">
        <ele>100</ele>
        <time>2022-04-15T12:24:51Z</time>
      </trkpt>
      <trkpt lat="43.48074" lon="6.23655">
        <ele>100</ele>
        <time>2022-04-15T12:24:52Z</time>
      </trkpt>
      <trkpt lat="43.48074" lon="6.23657">
        <ele>100</ele>
        <time>2022-04-15T12:24:53Z</time>
      </trkpt>
      <trkpt lat="43.48074" lon="6.23657">
        <ele>100</ele>
        <time>2022-04-15T12:24:54Z</time>
      </trkpt>
      <trkpt lat="43.48074" lon="6.23658">
        <ele>100</ele>
        <time>2022-04-15T12:24:55Z</time>
      </trkpt>
      <trkpt lat="43.48074" lon="6.23659">
        <ele>100</ele>
        <time>2022-04-15T12:24:56Z</time>
      </trkpt>
      <trkpt lat="43.48073" lon="6.23659">
        <ele>100</ele>
        <time>2022-04-15T12:24:57Z</time>
      </trkpt>
      <trkpt lat="43.48073" lon="6.2366">
        <ele>100</ele>
        <time>2022-04-15T12:24:58Z</time>
      </trkpt>
      <trkpt lat="43.48073" lon="6.23662">
        <ele>100</ele>
        <time>2022-04-15T12:24:59Z</time>
      </trkpt>
      <trkpt lat="43.48072" lon="6.23664">
        <ele>100</ele>
        <time>2022-04-15T12:25:00Z</time>
      </trkpt>
      <trkpt lat="43.48072" lon="6.23666">
        <ele>100</ele>
        <time>2022-04-15T12:25:01Z</time>
      </trkpt>
      <trkpt lat="43.48072" lon="6.23667">
        <ele>101</ele>
        <time>2022-04-15T12:25:02Z</time>
      </trkpt>
      <trkpt lat="43.48071" lon="6.23669">
        <ele>101</ele>
        <time>2022-04-15T12:25:03Z</time>
      </trkpt>
      <trkpt lat="43.48071" lon="6.23671">
        <ele>101</ele>
        <time>2022-04-15T12:25:04Z</time>
      </trkpt>
      <trkpt lat="43.4807" lon="6.23673">
        <ele>101</ele>
        <time>2022-04-15T12:25:05Z</time>
      </trkpt>
      <trkpt lat="43.48069" lon="6.23676">
        <ele>101</ele>
        <time>2022-04-15T12:25:06Z</time>
      </trkpt>
      <trkpt lat="43.48069" lon="6.23678">
        <ele>101</ele>
        <time>2022-04-15T12:25:07Z</time>
      </trkpt>
      <trkpt lat="43.48068" lon="6.23681">
        <ele>101</ele>
        <time>2022-04-15T12:25:08Z</time>
      </trkpt>
      <trkpt lat="43.48067" lon="6.23683">
        <ele>101</ele>
        <time>2022-04-15T12:25:09Z</time>
      </trkpt>
      <trkpt lat="43.48067" lon="6.23685">
        <ele>101</ele>
        <time>2022-04-15T12:25:10Z</time>
      </trkpt>
      <trkpt lat="43.48066" lon="6.23687">
        <ele>101</ele>
        <time>2022-04-15T12:25:11Z</time>
      </trkpt>
      <trkpt lat="43.48065" lon="6.23689">
        <ele>101</ele>
        <time>2022-04-15T12:25:12Z</time>
      </trkpt>
      <trkpt lat="43.48065" lon="6.23691">
        <ele>101</ele>
        <time>2022-04-15T12:25:13Z</time>
      </trkpt>
      <trkpt lat="43.48064" lon="6.23693">
        <ele>102</ele>
        <time>2022-04-15T12:25:14Z</time>
      </trkpt>
      <trkpt lat="43.48063" lon="6.23695">
        <ele>102</ele>
        <time>2022-04-15T12:25:15Z</time>
      </trkpt>
      <trkpt lat="43.48063" lon="6.23696">
        <ele>102</ele>
        <time>2022-04-15T12:25:16Z</time>
      </trkpt>
      <trkpt lat="43.48062" lon="6.23698">
        <ele>102</ele>
        <time>2022-04-15T12:25:17Z</time>
      </trkpt>
      <trkpt lat="43.48061" lon="6.23699">
        <ele>102</ele>
        <time>2022-04-15T12:25:18Z</time>
      </trkpt>
      <trkpt lat="43.48061" lon="6.23701">
        <ele>102</ele>
        <time>2022-04-15T12:25:19Z</time>
      </trkpt>
      <trkpt lat="43.4806" lon="6.23702">
        <ele>102</ele>
        <time>2022-04-15T12:25:20Z</time>
      </trkpt>
      <trkpt lat="43.48059" lon="6.23704">
        <ele>102</ele>
        <time>2022-04-15T12:25:21Z</time>
      </trkpt>
      <trkpt lat="43.48059" lon="6.23705">
        <ele>103</ele>
        <time>2022-04-15T12:25:22Z</time>
      </trkpt>
      <trkpt lat="43.48058" lon="6.23706">
        <ele>103</ele>
        <time>2022-04-15T12:25:23Z</time>
      </trkpt>
      <trkpt lat="43.48058" lon="6.23706">
        <ele>103</ele>
        <time>2022-04-15T12:25:24Z</time>
      </trkpt>
      <trkpt lat="43.48057" lon="6.23707">
        <ele>103</ele>
        <time>2022-04-15T12:25:25Z</time>
      </trkpt>
      <trkpt lat="43.48056" lon="6.23708">
        <ele>103</ele>
        <time>2022-04-15T12:25:26Z</time>
      </trkpt>
      <trkpt lat="43.48056" lon="6.23708">
        <ele>103</ele>
        <time>2022-04-15T12:25:27Z</time>
      </trkpt>
      <trkpt lat="43.48055" lon="6.23709">
        <ele>103</ele>
        <time>2022-04-15T12:25:28Z</time>
      </trkpt>
      <trkpt lat="43.48054" lon="6.23709">
        <ele>103</ele>
        <time>2022-04-15T12:25:29Z</time>
      </trkpt>
      <trkpt lat="43.48053" lon="6.2371">
        <ele>103</ele>
        <time>2022-04-15T12:25:30Z</time>
      </trkpt>
      <trkpt lat="43.48053" lon="6.2371">
        <ele>103</ele>
        <time>2022-04-15T12:25:31Z</time>
      </trkpt>
      <trkpt lat="43.48052" lon="6.23711">
        <ele>103</ele>
        <time>2022-04-15T12:25:32Z</time>
      </trkpt>
      <trkpt lat="43.48052" lon="6.23711">
        <ele>103</ele>
        <time>2022-04-15T12:25:33Z</time>
      </trkpt>
      <trkpt lat="43.48051" lon="6.23712">
        <ele>102</ele>
        <time>2022-04-15T12:25:34Z</time>
      </trkpt>
      <trkpt lat="43.4805" lon="6.23713">
        <ele>102</ele>
        <time>2022-04-15T12:25:35Z</time>
      </trkpt>
      <trkpt lat="43.4805" lon="6.23713">
        <ele>102</ele>
        <time>2022-04-15T12:25:36Z</time>
      </trkpt>
      <trkpt lat="43.48049" lon="6.23714">
        <ele>102</ele>
        <time>2022-04-15T12:25:37Z</time>
      </trkpt>
      <trkpt lat="43.48049" lon="6.23714">
        <ele>102</ele>
        <time>2022-04-15T12:25:38Z</time>
      </trkpt>
      <trkpt lat="43.48048" lon="6.23715">
        <ele>102</ele>
        <time>2022-04-15T12:25:39Z</time>
      </trkpt>
      <trkpt lat="43.48047" lon="6.23715">
        <ele>102</ele>
        <time>2022-04-15T12:25:40Z</time>
      </trkpt>
      <trkpt lat="43.48046" lon="6.23715">
        <ele>102</ele>
        <time>2022-04-15T12:25:41Z</time>
      </trkpt>
      <trkpt lat="43.48046" lon="6.23716">
        <ele>102</ele>
        <time>2022-04-15T12:25:42Z</time>
      </trkpt>
      <trkpt lat="43.48045" lon="6.23716">
        <ele>102</ele>
        <time>2022-04-15T12:25:43Z</time>
      </trkpt>
      <trkpt lat="43.48045" lon="6.23716">
        <ele>102</ele>
        <time>2022-04-15T12:25:44Z</time>
      </trkpt>
      <trkpt lat="43.48044" lon="6.23717">
        <ele>102</ele>
        <time>2022-04-15T12:25:45Z</time>
      </trkpt>
      <trkpt lat="43.48043" lon="6.23717">
        <ele>102</ele>
        <time>2022-04-15T12:25:46Z</time>
      </trkpt>
      <trkpt lat="43.48042" lon="6.23718">
        <ele>102</ele>
        <time>2022-04-15T12:25:47Z</time>
      </trkpt>
      <trkpt lat="43.48041" lon="6.23718">
        <ele>102</ele>
        <time>2022-04-15T12:25:48Z</time>
      </trkpt>
      <trkpt lat="43.4804" lon="6.23719">
        <ele>102</ele>
        <time>2022-04-15T12:25:49Z</time>
      </trkpt>
      <trkpt lat="43.4804" lon="6.2372">
        <ele>102</ele>
        <time>2022-04-15T12:25:50Z</time>
      </trkpt>
      <trkpt lat="43.48039" lon="6.23721">
        <ele>103</ele>
        <time>2022-04-15T12:25:51Z</time>
      </trkpt>
      <trkpt lat="43.48038" lon="6.23722">
        <ele>104</ele>
        <time>2022-04-15T12:25:52Z</time>
      </trkpt>
      <trkpt lat="43.48037" lon="6.23723">
        <ele>104</ele>
        <time>2022-04-15T12:25:53Z</time>
      </trkpt>
      <trkpt lat="43.48036" lon="6.23724">
        <ele>104</ele>
        <time>2022-04-15T12:25:54Z</time>
      </trkpt>
      <trkpt lat="43.48035" lon="6.23726">
        <ele>104</ele>
        <time>2022-04-15T12:25:55Z</time>
      </trkpt>
      <trkpt lat="43.48035" lon="6.23727">
        <ele>104</ele>
        <time>2022-04-15T12:25:56Z</time>
      </trkpt>
      <trkpt lat="43.48034" lon="6.23728">
        <ele>105</ele>
        <time>2022-04-15T12:25:57Z</time>
      </trkpt>
      <trkpt lat="43.48033" lon="6.23729">
        <ele>105</ele>
        <time>2022-04-15T12:25:58Z</time>
      </trkpt>
      <trkpt lat="43.48032" lon="6.2373">
        <ele>105</ele>
        <time>2022-04-15T12:25:59Z</time>
      </trkpt>
      <trkpt lat="43.48032" lon="6.2373">
        <ele>105</ele>
        <time>2022-04-15T12:26:00Z</time>
      </trkpt>
      <trkpt lat="43.48031" lon="6.23731">
        <ele>105</ele>
        <time>2022-04-15T12:26:01Z</time>
      </trkpt>
      <trkpt lat="43.4803" lon="6.23732">
        <ele>105</ele>
        <time>2022-04-15T12:26:02Z</time>
      </trkpt>
      <trkpt lat="43.48029" lon="6.23733">
        <ele>105</ele>
        <time>2022-04-15T12:26:03Z</time>
      </trkpt>
      <trkpt lat="43.48028" lon="6.23734">
        <ele>105</ele>
        <time>2022-04-15T12:26:04Z</time>
      </trkpt>
      <trkpt lat="43.48028" lon="6.23735">
        <ele>105</ele>
        <time>2022-04-15T12:26:05Z</time>
      </trkpt>
      <trkpt lat="43.48027" lon="6.23735">
        <ele>105</ele>
        <time>2022-04-15T12:26:06Z</time>
      </trkpt>
      <trkpt lat="43.48026" lon="6.23736">
        <ele>105</ele>
        <time>2022-04-15T12:26:07Z</time>
      </trkpt>
      <trkpt lat="43.48025" lon="6.23737">
        <ele>105</ele>
        <time>2022-04-15T12:26:08Z</time>
      </trkpt>
      <trkpt lat="43.48024" lon="6.23737">
        <ele>105</ele>
        <time>2022-04-15T12:26:09Z</time>
      </trkpt>
      <trkpt lat="43.48023" lon="6.23738">
        <ele>105</ele>
        <time>2022-04-15T12:26:10Z</time>
      </trkpt>
      <trkpt lat="43.48022" lon="6.23738">
        <ele>105</ele>
        <time>2022-04-15T12:26:11Z</time>
      </trkpt>
      <trkpt lat="43.48021" lon="6.23739">
        <ele>104</ele>
        <time>2022-04-15T12:26:12Z</time>
      </trkpt>
      <trkpt lat="43.4802" lon="6.2374">
        <ele>104</ele>
        <time>2022-04-15T12:26:13Z</time>
      </trkpt>
      <trkpt lat="43.48019" lon="6.23741">
        <ele>103</ele>
        <time>2022-04-15T12:26:14Z</time>
      </trkpt>
      <trkpt lat="43.48019" lon="6.23742">
        <ele>103</ele>
        <time>2022-04-15T12:26:15Z</time>
      </trkpt>
      <trkpt lat="43.48018" lon="6.23743">
        <ele>103</ele>
        <time>2022-04-15T12:26:16Z</time>
      </trkpt>
      <trkpt lat="43.48017" lon="6.23743">
        <ele>103</ele>
        <time>2022-04-15T12:26:17Z</time>
      </trkpt>
      <trkpt lat="43.48017" lon="6.23744">
        <ele>103</ele>
        <time>2022-04-15T12:26:18Z</time>
      </trkpt>
      <trkpt lat="43.48016" lon="6.23745">
        <ele>103</ele>
        <time>2022-04-15T12:26:19Z</time>
      </trkpt>
      <trkpt lat="43.48016" lon="6.23745">
        <ele>103</ele>
        <time>2022-04-15T12:26:20Z</time>
      </trkpt>
      <trkpt lat="43.48015" lon="6.23745">
        <ele>103</ele>
        <time>2022-04-15T12:26:21Z</time>
      </trkpt>
      <trkpt lat="43.48015" lon="6.23744">
        <ele>103</ele>
        <time>2022-04-15T12:26:22Z</time>
      </trkpt>
      <trkpt lat="43.48014" lon="6.23743">
        <ele>103</ele>
        <time>2022-04-15T12:26:23Z</time>
      </trkpt>
      <trkpt lat="43.48014" lon="6.23742">
        <ele>103</ele>
        <time>2022-04-15T12:26:24Z</time>
      </trkpt>
      <trkpt lat="43.48014" lon="6.23742">
        <ele>103</ele>
        <time>2022-04-15T12:26:25Z</time>
      </trkpt>
      <trkpt lat="43.48014" lon="6.23742">
        <ele>103</ele>
        <time>2022-04-15T12:26:26Z</time>
      </trkpt>
      <trkpt lat="43.48014" lon="6.23742">
        <ele>103</ele>
        <time>2022-04-15T12:26:27Z</time>
      </trkpt>
      <trkpt lat="43.48015" lon="6.23742">
        <ele>103</ele>
        <time>2022-04-15T12:26:28Z</time>
      </trkpt>
      <trkpt lat="43.48015" lon="6.23742">
        <ele>103</ele>
        <time>2022-04-15T12:26:29Z</time>
      </trkpt>
      <trkpt lat="43.48016" lon="6.23741">
        <ele>103</ele>
        <time>2022-04-15T12:26:30Z</time>
      </trkpt>
      <trkpt lat="43.48017" lon="6.23741">
        <ele>103</ele>
        <time>2022-04-15T12:26:31Z</time>
      </trkpt>
      <trkpt lat="43.48017" lon="6.23741">
        <ele>103</ele>
        <time>2022-04-15T12:26:32Z</time>
      </trkpt>
      <trkpt lat="43.48017" lon="6.2374">
        <ele>103</ele>
        <time>2022-04-15T12:26:33Z</time>
      </trkpt>
      <trkpt lat="43.48017" lon="6.2374">
        <ele>103</ele>
        <time>2022-04-15T12:26:34Z</time>
      </trkpt>
      <trkpt lat="43.48017" lon="6.2374">
        <ele>103</ele>
        <time>2022-04-15T12:26:35Z</time>
      </trkpt>
      <trkpt lat="43.48017" lon="6.2374">
        <ele>103</ele>
        <time>2022-04-15T12:26:36Z</time>
      </trkpt>
      <trkpt lat="43.48017" lon="6.2374">
        <ele>103</ele>
        <time>2022-04-15T12:26:37Z</time>
      </trkpt>
      <trkpt lat="43.48017" lon="6.2374">
        <ele>103</ele>
        <time>2022-04-15T12:26:38Z</time>
      </trkpt>
      <trkpt lat="43.48017" lon="6.2374">
        <ele>103</ele>
        <time>2022-04-15T12:26:39Z</time>
      </trkpt>
      <trkpt lat="43.48017" lon="6.2374">
        <ele>103</ele>
        <time>2022-04-15T12:26:40Z</time>
      </trkpt>
      <trkpt lat="43.48017" lon="6.2374">
        <ele>103</ele>
        <time>2022-04-15T12:26:41Z</time>
      </trkpt>
      <trkpt lat="43.48017" lon="6.2374">
        <ele>103</ele>
        <time>2022-04-15T12:26:42Z</time>
      </trkpt>
      <trkpt lat="43.48017" lon="6.2374">
        <ele>104</ele>
        <time>2022-04-15T12:26:43Z</time>
      </trkpt>
      <trkpt lat="43.48017" lon="6.2374">
        <ele>104</ele>
        <time>2022-04-15T12:26:44Z</time>
      </trkpt>
      <trkpt lat="43.48017" lon="6.2374">
        <ele>104</ele>
        <time>2022-04-15T12:26:45Z</time>
      </trkpt>
      <trkpt lat="43.48017" lon="6.2374">
        <ele>104</ele>
        <time>2022-04-15T12:26:46Z</time>
      </trkpt>
      <trkpt lat="43.48017" lon="6.2374">
        <ele>104</ele>
        <time>2022-04-15T12:26:47Z</time>
      </trkpt>
      <trkpt lat="43.48017" lon="6.2374">
        <ele>104</ele>
        <time>2022-04-15T12:26:48Z</time>
      </trkpt>
      <trkpt lat="43.48017" lon="6.2374">
        <ele>104</ele>
        <time>2022-04-15T12:26:49Z</time>
      </trkpt>
      <trkpt lat="43.48017" lon="6.2374">
        <ele>104</ele>
        <time>2022-04-15T12:26:50Z</time>
      </trkpt>
      <trkpt lat="43.48017" lon="6.2374">
        <ele>104</ele>
        <time>2022-04-15T12:26:51Z</time>
      </trkpt>
      <trkpt lat="43.48017" lon="6.2374">
        <ele>104</ele>
        <time>2022-04-15T12:26:52Z</time>
      </trkpt>
      <trkpt lat="43.48022" lon="6.23739">
        <ele>104</ele>
        <time>2022-04-15T12:26:53Z</time>
      </trkpt>
      <trkpt lat="43.48023" lon="6.2374">
        <ele>104</ele>
        <time>2022-04-15T12:26:54Z</time>
      </trkpt>
      <trkpt lat="43.48023" lon="6.2374">
        <ele>104</ele>
        <time>2022-04-15T12:26:55Z</time>
      </trkpt>
      <trkpt lat="43.48023" lon="6.2374">
        <ele>104</ele>
        <time>2022-04-15T12:26:56Z</time>
      </trkpt>
      <trkpt lat="43.48023" lon="6.2374">
        <ele>104</ele>
        <time>2022-04-15T12:26:57Z</time>
      </trkpt>
      <trkpt lat="43.48023" lon="6.2374">
        <ele>104</ele>
        <time>2022-04-15T12:26:58Z</time>
      </trkpt>
      <trkpt lat="43.48023" lon="6.2374">
        <ele>104</ele>
        <time>2022-04-15T12:26:59Z</time>
      </trkpt>
      <trkpt lat="43.48023" lon="6.2374">
        <ele>104</ele>
        <time>2022-04-15T12:27:00Z</time>
      </trkpt>
      <trkpt lat="43.48023" lon="6.2374">
        <ele>104</ele>
        <time>2022-04-15T12:27:01Z</time>
      </trkpt>
      <trkpt lat="43.48023" lon="6.2374">
        <ele>104</ele>
        <time>2022-04-15T12:27:02Z</time>
      </trkpt>
      <trkpt lat="43.48023" lon="6.2374">
        <ele>104</ele>
        <time>2022-04-15T12:27:03Z</time>
      </trkpt>
      <trkpt lat="43.48023" lon="6.2374">
        <ele>104</ele>
        <time>2022-04-15T12:27:04Z</time>
      </trkpt>
      <trkpt lat="43.48023" lon="6.2374">
        <ele>104</ele>
        <time>2022-04-15T12:27:05Z</time>
      </trkpt>
      <trkpt lat="43.48023" lon="6.2374">
        <ele>104</ele>
        <time>2022-04-15T12:27:06Z</time>
      </trkpt>
      <trkpt lat="43.48023" lon="6.2374">
        <ele>104</ele>
        <time>2022-04-15T12:27:07Z</time>
      </trkpt>
      <trkpt lat="43.48023" lon="6.2374">
        <ele>104</ele>
        <time>2022-04-15T12:27:08Z</time>
      </trkpt>
      <trkpt lat="43.48023" lon="6.2374">
        <ele>104</ele>
        <time>2022-04-15T12:27:09Z</time>
      </trkpt>
      <trkpt lat="43.48023" lon="6.2374">
        <ele>104</ele>
        <time>2022-04-15T12:27:10Z</time>
      </trkpt>
      <trkpt lat="43.48023" lon="6.2374">
        <ele>104</ele>
        <time>2022-04-15T12:27:11Z</time>
      </trkpt>
      <trkpt lat="43.48023" lon="6.2374">
        <ele>104</ele>
        <time>2022-04-15T12:27:12Z</time>
      </trkpt>
      <trkpt lat="43.48023" lon="6.2374">
        <ele>104</ele>
        <time>2022-04-15T12:27:13Z</time>
      </trkpt>
      <trkpt lat="43.48023" lon="6.2374">
        <ele>104</ele>
        <time>2022-04-15T12:27:14Z</time>
      </trkpt>
      <trkpt lat="43.48023" lon="6.2374">
        <ele>104</ele>
        <time>2022-04-15T12:27:15Z</time>
      </trkpt>
      <trkpt lat="43.48023" lon="6.2374">
        <ele>104</ele>
        <time>2022-04-15T12:27:16Z</time>
      </trkpt>
      <trkpt lat="43.48023" lon="6.2374">
        <ele>104</ele>
        <time>2022-04-15T12:27:17Z</time>
      </trkpt>
      <trkpt lat="43.48023" lon="6.2374">
        <ele>104</ele>
        <time>2022-04-15T12:27:18Z</time>
      </trkpt>
      <trkpt lat="43.48023" lon="6.2374">
        <ele>104</ele>
        <time>2022-04-15T12:27:19Z</time>
      </trkpt>
      <trkpt lat="43.48023" lon="6.2374">
        <ele>104</ele>
        <time>2022-04-15T12:27:20Z</time>
      </trkpt>
      <trkpt lat="43.48023" lon="6.2374">
        <ele>104</ele>
        <time>2022-04-15T12:27:21Z</time>
      </trkpt>
      <trkpt lat="43.48023" lon="6.2374">
        <ele>104</ele>
        <time>2022-04-15T12:27:22Z</time>
      </trkpt>
      <trkpt lat="43.48023" lon="6.2374">
        <ele>104</ele>
        <time>2022-04-15T12:27:23Z</time>
      </trkpt>
      <trkpt lat="43.48023" lon="6.2374">
        <ele>104</ele>
        <time>2022-04-15T12:27:24Z</time>
      </trkpt>
      <trkpt lat="43.48023" lon="6.2374">
        <ele>104</ele>
        <time>2022-04-15T12:27:25Z</time>
      </trkpt>
      <trkpt lat="43.48023" lon="6.2374">
        <ele>104</ele>
        <time>2022-04-15T12:27:26Z</time>
      </trkpt>
      <trkpt lat="43.48023" lon="6.23741">
        <ele>104</ele>
        <time>2022-04-15T12:27:27Z</time>
      </trkpt>
      <trkpt lat="43.48023" lon="6.23741">
        <ele>104</ele>
        <time>2022-04-15T12:27:28Z</time>
      </trkpt>
      <trkpt lat="43.48023" lon="6.23741">
        <ele>104</ele>
        <time>2022-04-15T12:27:29Z</time>
      </trkpt>
      <trkpt lat="43.48023" lon="6.23741">
        <ele>104</ele>
        <time>2022-04-15T12:27:30Z</time>
      </trkpt>
      <trkpt lat="43.48024" lon="6.23741">
        <ele>104</ele>
        <time>2022-04-15T12:27:31Z</time>
      </trkpt>
      <trkpt lat="43.48024" lon="6.23741">
        <ele>104</ele>
        <time>2022-04-15T12:27:32Z</time>
      </trkpt>
      <trkpt lat="43.48025" lon="6.2374">
        <ele>104</ele>
        <time>2022-04-15T12:27:33Z</time>
      </trkpt>
      <trkpt lat="43.48026" lon="6.2374">
        <ele>104</ele>
        <time>2022-04-15T12:27:34Z</time>
      </trkpt>
      <trkpt lat="43.48026" lon="6.2374">
        <ele>104</ele>
        <time>2022-04-15T12:27:35Z</time>
      </trkpt>
      <trkpt lat="43.48026" lon="6.2374">
        <ele>104</ele>
        <time>2022-04-15T12:27:36Z</time>
      </trkpt>
      <trkpt lat="43.48026" lon="6.23741">
        <ele>105</ele>
        <time>2022-04-15T12:27:37Z</time>
      </trkpt>
      <trkpt lat="43.48026" lon="6.23741">
        <ele>105</ele>
        <time>2022-04-15T12:27:38Z</time>
      </trkpt>
      <trkpt lat="43.48026" lon="6.23741">
        <ele>105</ele>
        <time>2022-04-15T12:27:39Z</time>
      </trkpt>
      <trkpt lat="43.48026" lon="6.23741">
        <ele>105</ele>
        <time>2022-04-15T12:27:40Z</time>
      </trkpt>
      <trkpt lat="43.48026" lon="6.23741">
        <ele>105</ele>
        <time>2022-04-15T12:27:41Z</time>
      </trkpt>
      <trkpt lat="43.48027" lon="6.23741">
        <ele>105</ele>
        <time>2022-04-15T12:27:42Z</time>
      </trkpt>
      <trkpt lat="43.48027" lon="6.23741">
        <ele>105</ele>
        <time>2022-04-15T12:27:43Z</time>
      </trkpt>
      <trkpt lat="43.48027" lon="6.23741">
        <ele>105</ele>
        <time>2022-04-15T12:27:44Z</time>
      </trkpt>
      <trkpt lat="43.48027" lon="6.23741">
        <ele>105</ele>
        <time>2022-04-15T12:27:45Z</time>
      </trkpt>
      <trkpt lat="43.48027" lon="6.23741">
        <ele>105</ele>
        <time>2022-04-15T12:27:46Z</time>
      </trkpt>
      <trkpt lat="43.48027" lon="6.23741">
        <ele>105</ele>
        <time>2022-04-15T12:27:47Z</time>
      </trkpt>
      <trkpt lat="43.48027" lon="6.23741">
        <ele>105</ele>
        <time>2022-04-15T12:27:48Z</time>
      </trkpt>
      <trkpt lat="43.48027" lon="6.23741">
        <ele>105</ele>
        <time>2022-04-15T12:27:49Z</time>
      </trkpt>
      <trkpt lat="43.48027" lon="6.23741">
        <ele>105</ele>
        <time>2022-04-15T12:27:50Z</time>
      </trkpt>
      <trkpt lat="43.48027" lon="6.2374">
        <ele>105</ele>
        <time>2022-04-15T12:27:51Z</time>
      </trkpt>
      <trkpt lat="43.48027" lon="6.2374">
        <ele>105</ele>
        <time>2022-04-15T12:27:52Z</time>
      </trkpt>
      <trkpt lat="43.48028" lon="6.2374">
        <ele>105</ele>
        <time>2022-04-15T12:27:53Z</time>
      </trkpt>
      <trkpt lat="43.48028" lon="6.23739">
        <ele>105</ele>
        <time>2022-04-15T12:27:54Z</time>
      </trkpt>
      <trkpt lat="43.48028" lon="6.23739">
        <ele>105</ele>
        <time>2022-04-15T12:27:55Z</time>
      </trkpt>
      <trkpt lat="43.48028" lon="6.23739">
        <ele>105</ele>
        <time>2022-04-15T12:27:56Z</time>
      </trkpt>
      <trkpt lat="43.48028" lon="6.23739">
        <ele>105</ele>
        <time>2022-04-15T12:27:57Z</time>
      </trkpt>
      <trkpt lat="43.48028" lon="6.23739">
        <ele>105</ele>
        <time>2022-04-15T12:27:58Z</time>
      </trkpt>
      <trkpt lat="43.48028" lon="6.23739">
        <ele>105</ele>
        <time>2022-04-15T12:27:59Z</time>
      </trkpt>
      <trkpt lat="43.48028" lon="6.23739">
        <ele>105</ele>
        <time>2022-04-15T12:28:00Z</time>
      </trkpt>
      <trkpt lat="43.48028" lon="6.23739">
        <ele>105</ele>
        <time>2022-04-15T12:28:01Z</time>
      </trkpt>
      <trkpt lat="43.48028" lon="6.23739">
        <ele>105</ele>
        <time>2022-04-15T12:28:02Z</time>
      </trkpt>
      <trkpt lat="43.48028" lon="6.23739">
        <ele>105</ele>
        <time>2022-04-15T12:28:03Z</time>
      </trkpt>
      <trkpt lat="43.48028" lon="6.23739">
        <ele>105</ele>
        <time>2022-04-15T12:28:04Z</time>
      </trkpt>
      <trkpt lat="43.48028" lon="6.23739">
        <ele>105</ele>
        <time>2022-04-15T12:28:05Z</time>
      </trkpt>
      <trkpt lat="43.48028" lon="6.23739">
        <ele>105</ele>
        <time>2022-04-15T12:28:06Z</time>
      </trkpt>
      <trkpt lat="43.48028" lon="6.23739">
        <ele>105</ele>
        <time>2022-04-15T12:28:07Z</time>
      </trkpt>
      <trkpt lat="43.48028" lon="6.23739">
        <ele>105</ele>
        <time>2022-04-15T12:28:08Z</time>
      </trkpt>
      <trkpt lat="43.48028" lon="6.23739">
        <ele>105</ele>
        <time>2022-04-15T12:28:09Z</time>
      </trkpt>
      <trkpt lat="43.48028" lon="6.23739">
        <ele>105</ele>
        <time>2022-04-15T12:28:10Z</time>
      </trkpt>
      <trkpt lat="43.48028" lon="6.23739">
        <ele>105</ele>
        <time>2022-04-15T12:28:11Z</time>
      </trkpt>
      <trkpt lat="43.48028" lon="6.23739">
        <ele>106</ele>
        <time>2022-04-15T12:28:12Z</time>
      </trkpt>
      <trkpt lat="43.48028" lon="6.23739">
        <ele>106</ele>
        <time>2022-04-15T12:28:13Z</time>
      </trkpt>
      <trkpt lat="43.48028" lon="6.23739">
        <ele>106</ele>
        <time>2022-04-15T12:28:14Z</time>
      </trkpt>
      <trkpt lat="43.48028" lon="6.23739">
        <ele>106</ele>
        <time>2022-04-15T12:28:15Z</time>
      </trkpt>
      <trkpt lat="43.48028" lon="6.23739">
        <ele>106</ele>
        <time>2022-04-15T12:28:16Z</time>
      </trkpt>
      <trkpt lat="43.48028" lon="6.23739">
        <ele>106</ele>
        <time>2022-04-15T12:28:17Z</time>
      </trkpt>
      <trkpt lat="43.48028" lon="6.23739">
        <ele>106</ele>
        <time>2022-04-15T12:28:18Z</time>
      </trkpt>
      <trkpt lat="43.48028" lon="6.23739">
        <ele>106</ele>
        <time>2022-04-15T12:28:19Z</time>
      </trkpt>
      <trkpt lat="43.48028" lon="6.23739">
        <ele>106</ele>
        <time>2022-04-15T12:28:20Z</time>
      </trkpt>
      <trkpt lat="43.48028" lon="6.23739">
        <ele>106</ele>
        <time>2022-04-15T12:28:21Z</time>
      </trkpt>
      <trkpt lat="43.48028" lon="6.23739">
        <ele>106</ele>
        <time>2022-04-15T12:28:22Z</time>
      </trkpt>
      <trkpt lat="43.48028" lon="6.23739">
        <ele>106</ele>
        <time>2022-04-15T12:28:23Z</time>
      </trkpt>
      <trkpt lat="43.48028" lon="6.23739">
        <ele>106</ele>
        <time>2022-04-15T12:28:24Z</time>
      </trkpt>
      <trkpt lat="43.48028" lon="6.23739">
        <ele>106</ele>
        <time>2022-04-15T12:28:25Z</time>
      </trkpt>
      <trkpt lat="43.48028" lon="6.23739">
        <ele>106</ele>
        <time>2022-04-15T12:28:26Z</time>
      </trkpt>
      <trkpt lat="43.48028" lon="6.23739">
        <ele>106</ele>
        <time>2022-04-15T12:28:27Z</time>
      </trkpt>
      <trkpt lat="43.48028" lon="6.23739">
        <ele>106</ele>
        <time>2022-04-15T12:28:28Z</time>
      </trkpt>
      <trkpt lat="43.48028" lon="6.23739">
        <ele>106</ele>
        <time>2022-04-15T12:28:29Z</time>
      </trkpt>
      <trkpt lat="43.48028" lon="6.23739">
        <ele>106</ele>
        <time>2022-04-15T12:28:30Z</time>
      </trkpt>
      <trkpt lat="43.48028" lon="6.23739">
        <ele>106</ele>
        <time>2022-04-15T12:28:31Z</time>
      </trkpt>
      <trkpt lat="43.48028" lon="6.23739">
        <ele>106</ele>
        <time>2022-04-15T12:28:32Z</time>
      </trkpt>
      <trkpt lat="43.48028" lon="6.23739">
        <ele>106</ele>
        <time>2022-04-15T12:28:33Z</time>
      </trkpt>
      <trkpt lat="43.48028" lon="6.23739">
        <ele>106</ele>
        <time>2022-04-15T12:28:34Z</time>
      </trkpt>
      <trkpt lat="43.48028" lon="6.23739">
        <ele>106</ele>
        <time>2022-04-15T12:28:35Z</time>
      </trkpt>
      <trkpt lat="43.48028" lon="6.23739">
        <ele>106</ele>
        <time>2022-04-15T12:28:36Z</time>
      </trkpt>
      <trkpt lat="43.48028" lon="6.23739">
        <ele>106</ele>
        <time>2022-04-15T12:28:37Z</time>
      </trkpt>
      <trkpt lat="43.48028" lon="6.23739">
        <ele>106</ele>
        <time>2022-04-15T12:28:38Z</time>
      </trkpt>
      <trkpt lat="43.48028" lon="6.23739">
        <ele>106</ele>
        <time>2022-04-15T12:28:39Z</time>
      </trkpt>
      <trkpt lat="43.48029" lon="6.23739">
        <ele>106</ele>
        <time>2022-04-15T12:28:40Z</time>
      </trkpt>
      <trkpt lat="43.48029" lon="6.23739">
        <ele>106</ele>
        <time>2022-04-15T12:28:41Z</time>
      </trkpt>
      <trkpt lat="43.48029" lon="6.23739">
        <ele>106</ele>
        <time>2022-04-15T12:28:42Z</time>
      </trkpt>
      <trkpt lat="43.48029" lon="6.23738">
        <ele>106</ele>
        <time>2022-04-15T12:28:43Z</time>
      </trkpt>
      <trkpt lat="43.48029" lon="6.23738">
        <ele>106</ele>
        <time>2022-04-15T12:28:44Z</time>
      </trkpt>
      <trkpt lat="43.48029" lon="6.23738">
        <ele>106</ele>
        <time>2022-04-15T12:28:45Z</time>
      </trkpt>
      <trkpt lat="43.48029" lon="6.23738">
        <ele>106</ele>
        <time>2022-04-15T12:28:46Z</time>
      </trkpt>
      <trkpt lat="43.48029" lon="6.23738">
        <ele>106</ele>
        <time>2022-04-15T12:28:47Z</time>
      </trkpt>
      <trkpt lat="43.48029" lon="6.23737">
        <ele>106</ele>
        <time>2022-04-15T12:28:48Z</time>
      </trkpt>
      <trkpt lat="43.48029" lon="6.23737">
        <ele>106</ele>
        <time>2022-04-15T12:28:49Z</time>
      </trkpt>
      <trkpt lat="43.4803" lon="6.23737">
        <ele>106</ele>
        <time>2022-04-15T12:28:50Z</time>
      </trkpt>
      <trkpt lat="43.4803" lon="6.23737">
        <ele>106</ele>
        <time>2022-04-15T12:28:51Z</time>
      </trkpt>
      <trkpt lat="43.4803" lon="6.23738">
        <ele>106</ele>
        <time>2022-04-15T12:28:52Z</time>
      </trkpt>
      <trkpt lat="43.48031" lon="6.23738">
        <ele>106</ele>
        <time>2022-04-15T12:28:53Z</time>
      </trkpt>
      <trkpt lat="43.48032" lon="6.23738">
        <ele>106</ele>
        <time>2022-04-15T12:28:54Z</time>
      </trkpt>
      <trkpt lat="43.48033" lon="6.23737">
        <ele>106</ele>
        <time>2022-04-15T12:28:55Z</time>
      </trkpt>
      <trkpt lat="43.48034" lon="6.23737">
        <ele>106</ele>
        <time>2022-04-15T12:28:56Z</time>
      </trkpt>
      <trkpt lat="43.48035" lon="6.23737">
        <ele>106</ele>
        <time>2022-04-15T12:28:57Z</time>
      </trkpt>
      <trkpt lat="43.48036" lon="6.23737">
        <ele>106</ele>
        <time>2022-04-15T12:28:58Z</time>
      </trkpt>
      <trkpt lat="43.48036" lon="6.23737">
        <ele>108</ele>
        <time>2022-04-15T12:28:59Z</time>
      </trkpt>
      <trkpt lat="43.48037" lon="6.23737">
        <ele>109</ele>
        <time>2022-04-15T12:29:00Z</time>
      </trkpt>
      <trkpt lat="43.48037" lon="6.23737">
        <ele>109</ele>
        <time>2022-04-15T12:29:01Z</time>
      </trkpt>
      <trkpt lat="43.48037" lon="6.23737">
        <ele>109</ele>
        <time>2022-04-15T12:29:02Z</time>
      </trkpt>
      <trkpt lat="43.48038" lon="6.23737">
        <ele>109</ele>
        <time>2022-04-15T12:29:03Z</time>
      </trkpt>
      <trkpt lat="43.48038" lon="6.23737">
        <ele>109</ele>
        <time>2022-04-15T12:29:04Z</time>
      </trkpt>
      <trkpt lat="43.48038" lon="6.23737">
        <ele>109</ele>
        <time>2022-04-15T12:29:05Z</time>
      </trkpt>
      <trkpt lat="43.48038" lon="6.23736">
        <ele>109</ele>
        <time>2022-04-15T12:29:06Z</time>
      </trkpt>
      <trkpt lat="43.48038" lon="6.23736">
        <ele>109</ele>
        <time>2022-04-15T12:29:07Z</time>
      </trkpt>
      <trkpt lat="43.48038" lon="6.23736">
        <ele>109</ele>
        <time>2022-04-15T12:29:08Z</time>
      </trkpt>
      <trkpt lat="43.48038" lon="6.23736">
        <ele>109</ele>
        <time>2022-04-15T12:29:09Z</time>
      </trkpt>
      <trkpt lat="43.48038" lon="6.23736">
        <ele>109</ele>
        <time>2022-04-15T12:29:10Z</time>
      </trkpt>
      <trkpt lat="43.48038" lon="6.23736">
        <ele>109</ele>
        <time>2022-04-15T12:29:11Z</time>
      </trkpt>
      <trkpt lat="43.48038" lon="6.23736">
        <ele>109</ele>
        <time>2022-04-15T12:29:12Z</time>
      </trkpt>
      <trkpt lat="43.48038" lon="6.23736">
        <ele>109</ele>
        <time>2022-04-15T12:29:13Z</time>
      </trkpt>
      <trkpt lat="43.48039" lon="6.23735">
        <ele>109</ele>
        <time>2022-04-15T12:29:14Z</time>
      </trkpt>
      <trkpt lat="43.4804" lon="6.23734">
        <ele>109</ele>
        <time>2022-04-15T12:29:15Z</time>
      </trkpt>
      <trkpt lat="43.4804" lon="6.23733">
        <ele>109</ele>
        <time>2022-04-15T12:29:16Z</time>
      </trkpt>
      <trkpt lat="43.48041" lon="6.23732">
        <ele>109</ele>
        <time>2022-04-15T12:29:17Z</time>
      </trkpt>
      <trkpt lat="43.48041" lon="6.23731">
        <ele>109</ele>
        <time>2022-04-15T12:29:18Z</time>
      </trkpt>
      <trkpt lat="43.48042" lon="6.2373">
        <ele>109</ele>
        <time>2022-04-15T12:29:19Z</time>
      </trkpt>
      <trkpt lat="43.48042" lon="6.23729">
        <ele>110</ele>
        <time>2022-04-15T12:29:20Z</time>
      </trkpt>
      <trkpt lat="43.48042" lon="6.23728">
        <ele>111</ele>
        <time>2022-04-15T12:29:21Z</time>
      </trkpt>
      <trkpt lat="43.48043" lon="6.23727">
        <ele>111</ele>
        <time>2022-04-15T12:29:22Z</time>
      </trkpt>
      <trkpt lat="43.48043" lon="6.23726">
        <ele>111</ele>
        <time>2022-04-15T12:29:23Z</time>
      </trkpt>
      <trkpt lat="43.48044" lon="6.23725">
        <ele>112</ele>
        <time>2022-04-15T12:29:24Z</time>
      </trkpt>
      <trkpt lat="43.48045" lon="6.23724">
        <ele>112</ele>
        <time>2022-04-15T12:29:25Z</time>
      </trkpt>
      <trkpt lat="43.48046" lon="6.23722">
        <ele>112</ele>
        <time>2022-04-15T12:29:26Z</time>
      </trkpt>
      <trkpt lat="43.48047" lon="6.23721">
        <ele>112</ele>
        <time>2022-04-15T12:29:27Z</time>
      </trkpt>
      <trkpt lat="43.48048" lon="6.2372">
        <ele>112</ele>
        <time>2022-04-15T12:29:28Z</time>
      </trkpt>
      <trkpt lat="43.48049" lon="6.23719">
        <ele>112</ele>
        <time>2022-04-15T12:29:29Z</time>
      </trkpt>
      <trkpt lat="43.48049" lon="6.23718">
        <ele>113</ele>
        <time>2022-04-15T12:29:30Z</time>
      </trkpt>
      <trkpt lat="43.4805" lon="6.23718">
        <ele>113</ele>
        <time>2022-04-15T12:29:31Z</time>
      </trkpt>
      <trkpt lat="43.4805" lon="6.23717">
        <ele>113</ele>
        <time>2022-04-15T12:29:32Z</time>
      </trkpt>
      <trkpt lat="43.48051" lon="6.23716">
        <ele>113</ele>
        <time>2022-04-15T12:29:33Z</time>
      </trkpt>
      <trkpt lat="43.48052" lon="6.23715">
        <ele>113</ele>
        <time>2022-04-15T12:29:34Z</time>
      </trkpt>
      <trkpt lat="43.48053" lon="6.23713">
        <ele>113</ele>
        <time>2022-04-15T12:29:35Z</time>
      </trkpt>
      <trkpt lat="43.48053" lon="6.23712">
        <ele>113</ele>
        <time>2022-04-15T12:29:36Z</time>
      </trkpt>
      <trkpt lat="43.48054" lon="6.23711">
        <ele>113</ele>
        <time>2022-04-15T12:29:37Z</time>
      </trkpt>
      <trkpt lat="43.48054" lon="6.23711">
        <ele>113</ele>
        <time>2022-04-15T12:29:38Z</time>
      </trkpt>
      <trkpt lat="43.48055" lon="6.2371">
        <ele>113</ele>
        <time>2022-04-15T12:29:39Z</time>
      </trkpt>
      <trkpt lat="43.48055" lon="6.23709">
        <ele>113</ele>
        <time>2022-04-15T12:29:40Z</time>
      </trkpt>
      <trkpt lat="43.48056" lon="6.23708">
        <ele>113</ele>
        <time>2022-04-15T12:29:41Z</time>
      </trkpt>
      <trkpt lat="43.48057" lon="6.23707">
        <ele>113</ele>
        <time>2022-04-15T12:29:42Z</time>
      </trkpt>
      <trkpt lat="43.48057" lon="6.23705">
        <ele>113</ele>
        <time>2022-04-15T12:29:43Z</time>
      </trkpt>
      <trkpt lat="43.48058" lon="6.23704">
        <ele>113</ele>
        <time>2022-04-15T12:29:44Z</time>
      </trkpt>
      <trkpt lat="43.48058" lon="6.23703">
        <ele>113</ele>
        <time>2022-04-15T12:29:45Z</time>
      </trkpt>
      <trkpt lat="43.48059" lon="6.23702">
        <ele>113</ele>
        <time>2022-04-15T12:29:46Z</time>
      </trkpt>
      <trkpt lat="43.48059" lon="6.23701">
        <ele>113</ele>
        <time>2022-04-15T12:29:47Z</time>
      </trkpt>
      <trkpt lat="43.4806" lon="6.23699">
        <ele>113</ele>
        <time>2022-04-15T12:29:48Z</time>
      </trkpt>
      <trkpt lat="43.48061" lon="6.23698">
        <ele>113</ele>
        <time>2022-04-15T12:29:49Z</time>
      </trkpt>
      <trkpt lat="43.48061" lon="6.23697">
        <ele>113</ele>
        <time>2022-04-15T12:29:50Z</time>
      </trkpt>
      <trkpt lat="43.48062" lon="6.23696">
        <ele>113</ele>
        <time>2022-04-15T12:29:51Z</time>
      </trkpt>
      <trkpt lat="43.48062" lon="6.23695">
        <ele>113</ele>
        <time>2022-04-15T12:29:52Z</time>
      </trkpt>
      <trkpt lat="43.48062" lon="6.23694">
        <ele>113</ele>
        <time>2022-04-15T12:29:53Z</time>
      </trkpt>
      <trkpt lat="43.48062" lon="6.23693">
        <ele>113</ele>
        <time>2022-04-15T12:29:54Z</time>
      </trkpt>
      <trkpt lat="43.48063" lon="6.23693">
        <ele>113</ele>
        <time>2022-04-15T12:29:55Z</time>
      </trkpt>
      <trkpt lat="43.48063" lon="6.23691">
        <ele>113</ele>
        <time>2022-04-15T12:29:56Z</time>
      </trkpt>
      <trkpt lat="43.48064" lon="6.23689">
        <ele>113</ele>
        <time>2022-04-15T12:29:57Z</time>
      </trkpt>
      <trkpt lat="43.48064" lon="6.23688">
        <ele>113</ele>
        <time>2022-04-15T12:29:58Z</time>
      </trkpt>
      <trkpt lat="43.48064" lon="6.23686">
        <ele>112</ele>
        <time>2022-04-15T12:29:59Z</time>
      </trkpt>
      <trkpt lat="43.48065" lon="6.23685">
        <ele>112</ele>
        <time>2022-04-15T12:30:00Z</time>
      </trkpt>
      <trkpt lat="43.48065" lon="6.23684">
        <ele>112</ele>
        <time>2022-04-15T12:30:01Z</time>
      </trkpt>
      <trkpt lat="43.48066" lon="6.23683">
        <ele>112</ele>
        <time>2022-04-15T12:30:02Z</time>
      </trkpt>
      <trkpt lat="43.48066" lon="6.23682">
        <ele>112</ele>
        <time>2022-04-15T12:30:03Z</time>
      </trkpt>
      <trkpt lat="43.48067" lon="6.23681">
        <ele>112</ele>
        <time>2022-04-15T12:30:04Z</time>
      </trkpt>
      <trkpt lat="43.48067" lon="6.23679">
        <ele>112</ele>
        <time>2022-04-15T12:30:05Z</time>
      </trkpt>
      <trkpt lat="43.48068" lon="6.23678">
        <ele>112</ele>
        <time>2022-04-15T12:30:06Z</time>
      </trkpt>
      <trkpt lat="43.48068" lon="6.23677">
        <ele>112</ele>
        <time>2022-04-15T12:30:07Z</time>
      </trkpt>
      <trkpt lat="43.48068" lon="6.23676">
        <ele>112</ele>
        <time>2022-04-15T12:30:08Z</time>
      </trkpt>
      <trkpt lat="43.48069" lon="6.23675">
        <ele>112</ele>
        <time>2022-04-15T12:30:09Z</time>
      </trkpt>
      <trkpt lat="43.48069" lon="6.23674">
        <ele>112</ele>
        <time>2022-04-15T12:30:10Z</time>
      </trkpt>
      <trkpt lat="43.48069" lon="6.23673">
        <ele>112</ele>
        <time>2022-04-15T12:30:11Z</time>
      </trkpt>
      <trkpt lat="43.4807" lon="6.23672">
        <ele>112</ele>
        <time>2022-04-15T12:30:12Z</time>
      </trkpt>
      <trkpt lat="43.4807" lon="6.2367">
        <ele>112</ele>
        <time>2022-04-15T12:30:13Z</time>
      </trkpt>
      <trkpt lat="43.48071" lon="6.23669">
        <ele>112</ele>
        <time>2022-04-15T12:30:14Z</time>
      </trkpt>
      <trkpt lat="43.48071" lon="6.23667">
        <ele>111</ele>
        <time>2022-04-15T12:30:15Z</time>
      </trkpt>
      <trkpt lat="43.48071" lon="6.23665">
        <ele>111</ele>
        <time>2022-04-15T12:30:16Z</time>
      </trkpt>
      <trkpt lat="43.48072" lon="6.23664">
        <ele>111</ele>
        <time>2022-04-15T12:30:17Z</time>
      </trkpt>
      <trkpt lat="43.48072" lon="6.23662">
        <ele>111</ele>
        <time>2022-04-15T12:30:18Z</time>
      </trkpt>
      <trkpt lat="43.48073" lon="6.23661">
        <ele>111</ele>
        <time>2022-04-15T12:30:19Z</time>
      </trkpt>
      <trkpt lat="43.48073" lon="6.23659">
        <ele>111</ele>
        <time>2022-04-15T12:30:20Z</time>
      </trkpt>
      <trkpt lat="43.48074" lon="6.23658">
        <ele>111</ele>
        <time>2022-04-15T12:30:21Z</time>
      </trkpt>
      <trkpt lat="43.48074" lon="6.23657">
        <ele>111</ele>
        <time>2022-04-15T12:30:22Z</time>
      </trkpt>
      <trkpt lat="43.48074" lon="6.23656">
        <ele>111</ele>
        <time>2022-04-15T12:30:23Z</time>
      </trkpt>
      <trkpt lat="43.48075" lon="6.23655">
        <ele>111</ele>
        <time>2022-04-15T12:30:24Z</time>
      </trkpt>
      <trkpt lat="43.48075" lon="6.23654">
        <ele>111</ele>
        <time>2022-04-15T12:30:25Z</time>
      </trkpt>
      <trkpt lat="43.48075" lon="6.23653">
        <ele>111</ele>
        <time>2022-04-15T12:30:26Z</time>
      </trkpt>
      <trkpt lat="43.48075" lon="6.23652">
        <ele>111</ele>
        <time>2022-04-15T12:30:27Z</time>
      </trkpt>
      <trkpt lat="43.48076" lon="6.23651">
        <ele>110</ele>
        <time>2022-04-15T12:30:28Z</time>
      </trkpt>
      <trkpt lat="43.48076" lon="6.23649">
        <ele>110</ele>
        <time>2022-04-15T12:30:29Z</time>
      </trkpt>
      <trkpt lat="43.48077" lon="6.23647">
        <ele>110</ele>
        <time>2022-04-15T12:30:30Z</time>
      </trkpt>
      <trkpt lat="43.48078" lon="6.23644">
        <ele>110</ele>
        <time>2022-04-15T12:30:31Z</time>
      </trkpt>
      <trkpt lat="43.48078" lon="6.23642">
        <ele>110</ele>
        <time>2022-04-15T12:30:32Z</time>
      </trkpt>
      <trkpt lat="43.48079" lon="6.23641">
        <ele>110</ele>
        <time>2022-04-15T12:30:33Z</time>
      </trkpt>
      <trkpt lat="43.4808" lon="6.2364">
        <ele>110</ele>
        <time>2022-04-15T12:30:34Z</time>
      </trkpt>
      <trkpt lat="43.4808" lon="6.23639">
        <ele>110</ele>
        <time>2022-04-15T12:30:35Z</time>
      </trkpt>
      <trkpt lat="43.4808" lon="6.23639">
        <ele>110</ele>
        <time>2022-04-15T12:30:36Z</time>
      </trkpt>
      <trkpt lat="43.4808" lon="6.23638">
        <ele>110</ele>
        <time>2022-04-15T12:30:37Z</time>
      </trkpt>
      <trkpt lat="43.4808" lon="6.23638">
        <ele>110</ele>
        <time>2022-04-15T12:30:38Z</time>
      </trkpt>
      <trkpt lat="43.48081" lon="6.23637">
        <ele>110</ele>
        <time>2022-04-15T12:30:39Z</time>
      </trkpt>
      <trkpt lat="43.48081" lon="6.23636">
        <ele>110</ele>
        <time>2022-04-15T12:30:40Z</time>
      </trkpt>
      <trkpt lat="43.48082" lon="6.23635">
        <ele>110</ele>
        <time>2022-04-15T12:30:41Z</time>
      </trkpt>
      <trkpt lat="43.48082" lon="6.23634">
        <ele>110</ele>
        <time>2022-04-15T12:30:42Z</time>
      </trkpt>
      <trkpt lat="43.48083" lon="6.23634">
        <ele>110</ele>
        <time>2022-04-15T12:30:43Z</time>
      </trkpt>
      <trkpt lat="43.48083" lon="6.23633">
        <ele>110</ele>
        <time>2022-04-15T12:30:44Z</time>
      </trkpt>
      <trkpt lat="43.48083" lon="6.23633">
        <ele>110</ele>
        <time>2022-04-15T12:30:45Z</time>
      </trkpt>
      <trkpt lat="43.48084" lon="6.23632">
        <ele>110</ele>
        <time>2022-04-15T12:30:46Z</time>
      </trkpt>
      <trkpt lat="43.48084" lon="6.23632">
        <ele>111</ele>
        <time>2022-04-15T12:30:47Z</time>
      </trkpt>
      <trkpt lat="43.48085" lon="6.23631">
        <ele>111</ele>
        <time>2022-04-15T12:30:48Z</time>
      </trkpt>
      <trkpt lat="43.48085" lon="6.2363">
        <ele>111</ele>
        <time>2022-04-15T12:30:49Z</time>
      </trkpt>
      <trkpt lat="43.48086" lon="6.23629">
        <ele>111</ele>
        <time>2022-04-15T12:30:50Z</time>
      </trkpt>
      <trkpt lat="43.48087" lon="6.23628">
        <ele>112</ele>
        <time>2022-04-15T12:30:51Z</time>
      </trkpt>
      <trkpt lat="43.48087" lon="6.23628">
        <ele>112</ele>
        <time>2022-04-15T12:30:52Z</time>
      </trkpt>
      <trkpt lat="43.48088" lon="6.23627">
        <ele>112</ele>
        <time>2022-04-15T12:30:53Z</time>
      </trkpt>
      <trkpt lat="43.48088" lon="6.23627">
        <ele>112</ele>
        <time>2022-04-15T12:30:54Z</time>
      </trkpt>
      <trkpt lat="43.48088" lon="6.23627">
        <ele>112</ele>
        <time>2022-04-15T12:30:55Z</time>
      </trkpt>
      <trkpt lat="43.48088" lon="6.23627">
        <ele>113</ele>
        <time>2022-04-15T12:30:56Z</time>
      </trkpt>
      <trkpt lat="43.48088" lon="6.23627">
        <ele>113</ele>
        <time>2022-04-15T12:30:57Z</time>
      </trkpt>
      <trkpt lat="43.48088" lon="6.23627">
        <ele>113</ele>
        <time>2022-04-15T12:30:58Z</time>
      </trkpt>
      <trkpt lat="43.48089" lon="6.23626">
        <ele>113</ele>
        <time>2022-04-15T12:30:59Z</time>
      </trkpt>
      <trkpt lat="43.48089" lon="6.23625">
        <ele>113</ele>
        <time>2022-04-15T12:31:00Z</time>
      </trkpt>
      <trkpt lat="43.48089" lon="6.23625">
        <ele>113</ele>
        <time>2022-04-15T12:31:01Z</time>
      </trkpt>
      <trkpt lat="43.4809" lon="6.23625">
        <ele>113</ele>
        <time>2022-04-15T12:31:02Z</time>
      </trkpt>
      <trkpt lat="43.4809" lon="6.23624">
        <ele>113</ele>
        <time>2022-04-15T12:31:03Z</time>
      </trkpt>
      <trkpt lat="43.4809" lon="6.23624">
        <ele>113</ele>
        <time>2022-04-15T12:31:04Z</time>
      </trkpt>
      <trkpt lat="43.4809" lon="6.23624">
        <ele>113</ele>
        <time>2022-04-15T12:31:05Z</time>
      </trkpt>
      <trkpt lat="43.4809" lon="6.23624">
        <ele>113</ele>
        <time>2022-04-15T12:31:06Z</time>
      </trkpt>
      <trkpt lat="43.4809" lon="6.23623">
        <ele>113</ele>
        <time>2022-04-15T12:31:07Z</time>
      </trkpt>
      <trkpt lat="43.4809" lon="6.23623">
        <ele>113</ele>
        <time>2022-04-15T12:31:08Z</time>
      </trkpt>
      <trkpt lat="43.4809" lon="6.23623">
        <ele>113</ele>
        <time>2022-04-15T12:31:09Z</time>
      </trkpt>
      <trkpt lat="43.4809" lon="6.23623">
        <ele>113</ele>
        <time>2022-04-15T12:31:10Z</time>
      </trkpt>
      <trkpt lat="43.4809" lon="6.23623">
        <ele>113</ele>
        <time>2022-04-15T12:31:11Z</time>
      </trkpt>
      <trkpt lat="43.4809" lon="6.23623">
        <ele>113</ele>
        <time>2022-04-15T12:31:12Z</time>
      </trkpt>
      <trkpt lat="43.4809" lon="6.23623">
        <ele>113</ele>
        <time>2022-04-15T12:31:13Z</time>
      </trkpt>
      <trkpt lat="43.4809" lon="6.23623">
        <ele>113</ele>
        <time>2022-04-15T12:31:14Z</time>
      </trkpt>
      <trkpt lat="43.4809" lon="6.23623">
        <ele>113</ele>
        <time>2022-04-15T12:31:15Z</time>
      </trkpt>
      <trkpt lat="43.4809" lon="6.23623">
        <ele>113</ele>
        <time>2022-04-15T12:31:16Z</time>
      </trkpt>
      <trkpt lat="43.4809" lon="6.23623">
        <ele>113</ele>
        <time>2022-04-15T12:31:17Z</time>
      </trkpt>
      <trkpt lat="43.4809" lon="6.23623">
        <ele>113</ele>
        <time>2022-04-15T12:31:18Z</time>
      </trkpt>
      <trkpt lat="43.4809" lon="6.23623">
        <ele>113</ele>
        <time>2022-04-15T12:31:19Z</time>
      </trkpt>
      <trkpt lat="43.4809" lon="6.23623">
        <ele>113</ele>
        <time>2022-04-15T12:31:20Z</time>
      </trkpt>
      <trkpt lat="43.4809" lon="6.23623">
        <ele>113</ele>
        <time>2022-04-15T12:31:21Z</time>
      </trkpt>
      <trkpt lat="43.4809" lon="6.23623">
        <ele>113</ele>
        <time>2022-04-15T12:31:22Z</time>
      </trkpt>
      <trkpt lat="43.4809" lon="6.23623">
        <ele>113</ele>
        <time>2022-04-15T12:31:23Z</time>
      </trkpt>
      <trkpt lat="43.4809" lon="6.23623">
        <ele>113</ele>
        <time>2022-04-15T12:31:24Z</time>
      </trkpt>
      <trkpt lat="43.4809" lon="6.23623">
        <ele>113</ele>
        <time>2022-04-15T12:31:25Z</time>
      </trkpt>
      <trkpt lat="43.4809" lon="6.23623">
        <ele>113</ele>
        <time>2022-04-15T12:31:26Z</time>
      </trkpt>
      <trkpt lat="43.4809" lon="6.23623">
        <ele>113</ele>
        <time>2022-04-15T12:31:27Z</time>
      </trkpt>
      <trkpt lat="43.4809" lon="6.23623">
        <ele>113</ele>
        <time>2022-04-15T12:31:28Z</time>
      </trkpt>
      <trkpt lat="43.4809" lon="6.23622">
        <ele>113</ele>
        <time>2022-04-15T12:31:29Z</time>
      </trkpt>
      <trkpt lat="43.4809" lon="6.23622">
        <ele>113</ele>
        <time>2022-04-15T12:31:30Z</time>
      </trkpt>
      <trkpt lat="43.4809" lon="6.23622">
        <ele>113</ele>
        <time>2022-04-15T12:31:31Z</time>
      </trkpt>
      <trkpt lat="43.4809" lon="6.23622">
        <ele>113</ele>
        <time>2022-04-15T12:31:32Z</time>
      </trkpt>
      <trkpt lat="43.4809" lon="6.23622">
        <ele>113</ele>
        <time>2022-04-15T12:31:33Z</time>
      </trkpt>
      <trkpt lat="43.4809" lon="6.23622">
        <ele>113</ele>
        <time>2022-04-15T12:31:34Z</time>
      </trkpt>
      <trkpt lat="43.4809" lon="6.23622">
        <ele>113</ele>
        <time>2022-04-15T12:31:35Z</time>
      </trkpt>
      <trkpt lat="43.4809" lon="6.23622">
        <ele>113</ele>
        <time>2022-04-15T12:31:36Z</time>
      </trkpt>
      <trkpt lat="43.4809" lon="6.23622">
        <ele>113</ele>
        <time>2022-04-15T12:31:37Z</time>
      </trkpt>
      <trkpt lat="43.4809" lon="6.23622">
        <ele>113</ele>
        <time>2022-04-15T12:31:38Z</time>
      </trkpt>
      <trkpt lat="43.4809" lon="6.23622">
        <ele>113</ele>
        <time>2022-04-15T12:31:39Z</time>
      </trkpt>
      <trkpt lat="43.4809" lon="6.23622">
        <ele>113</ele>
        <time>2022-04-15T12:31:40Z</time>
      </trkpt>
      <trkpt lat="43.4809" lon="6.23622">
        <ele>113</ele>
        <time>2022-04-15T12:31:41Z</time>
      </trkpt>
      <trkpt lat="43.4809" lon="6.23622">
        <ele>113</ele>
        <time>2022-04-15T12:31:42Z</time>
      </trkpt>
      <trkpt lat="43.4809" lon="6.23622">
        <ele>113</ele>
        <time>2022-04-15T12:31:43Z</time>
      </trkpt>
      <trkpt lat="43.4809" lon="6.23623">
        <ele>114</ele>
        <time>2022-04-15T12:31:44Z</time>
      </trkpt>
      <trkpt lat="43.4809" lon="6.23623">
        <ele>114</ele>
        <time>2022-04-15T12:31:45Z</time>
      </trkpt>
      <trkpt lat="43.48091" lon="6.23623">
        <ele>114</ele>
        <time>2022-04-15T12:31:46Z</time>
      </trkpt>
      <trkpt lat="43.48091" lon="6.23623">
        <ele>114</ele>
        <time>2022-04-15T12:31:47Z</time>
      </trkpt>
      <trkpt lat="43.48092" lon="6.23623">
        <ele>114</ele>
        <time>2022-04-15T12:31:48Z</time>
      </trkpt>
      <trkpt lat="43.48092" lon="6.23623">
        <ele>114</ele>
        <time>2022-04-15T12:31:49Z</time>
      </trkpt>
      <trkpt lat="43.48092" lon="6.23622">
        <ele>114</ele>
        <time>2022-04-15T12:31:50Z</time>
      </trkpt>
      <trkpt lat="43.48093" lon="6.23622">
        <ele>114</ele>
        <time>2022-04-15T12:31:51Z</time>
      </trkpt>
      <trkpt lat="43.48093" lon="6.23622">
        <ele>114</ele>
        <time>2022-04-15T12:31:52Z</time>
      </trkpt>
      <trkpt lat="43.48093" lon="6.23622">
        <ele>114</ele>
        <time>2022-04-15T12:31:53Z</time>
      </trkpt>
      <trkpt lat="43.48093" lon="6.23621">
        <ele>114</ele>
        <time>2022-04-15T12:31:54Z</time>
      </trkpt>
      <trkpt lat="43.48094" lon="6.23621">
        <ele>114</ele>
        <time>2022-04-15T12:31:55Z</time>
      </trkpt>
      <trkpt lat="43.48094" lon="6.2362">
        <ele>114</ele>
        <time>2022-04-15T12:31:56Z</time>
      </trkpt>
      <trkpt lat="43.48094" lon="6.23619">
        <ele>114</ele>
        <time>2022-04-15T12:31:57Z</time>
      </trkpt>
      <trkpt lat="43.48094" lon="6.23619">
        <ele>114</ele>
        <time>2022-04-15T12:31:58Z</time>
      </trkpt>
      <trkpt lat="43.48095" lon="6.23618">
        <ele>114</ele>
        <time>2022-04-15T12:31:59Z</time>
      </trkpt>
      <trkpt lat="43.48095" lon="6.23617">
        <ele>114</ele>
        <time>2022-04-15T12:32:00Z</time>
      </trkpt>
      <trkpt lat="43.48096" lon="6.23617">
        <ele>114</ele>
        <time>2022-04-15T12:32:01Z</time>
      </trkpt>
      <trkpt lat="43.48097" lon="6.23616">
        <ele>114</ele>
        <time>2022-04-15T12:32:02Z</time>
      </trkpt>
      <trkpt lat="43.48098" lon="6.23615">
        <ele>115</ele>
        <time>2022-04-15T12:32:03Z</time>
      </trkpt>
      <trkpt lat="43.48099" lon="6.23614">
        <ele>115</ele>
        <time>2022-04-15T12:32:04Z</time>
      </trkpt>
      <trkpt lat="43.48099" lon="6.23613">
        <ele>115</ele>
        <time>2022-04-15T12:32:05Z</time>
      </trkpt>
      <trkpt lat="43.481" lon="6.23613">
        <ele>115</ele>
        <time>2022-04-15T12:32:06Z</time>
      </trkpt>
      <trkpt lat="43.481" lon="6.23612">
        <ele>115</ele>
        <time>2022-04-15T12:32:07Z</time>
      </trkpt>
      <trkpt lat="43.48101" lon="6.23612">
        <ele>115</ele>
        <time>2022-04-15T12:32:08Z</time>
      </trkpt>
      <trkpt lat="43.48101" lon="6.23611">
        <ele>115</ele>
        <time>2022-04-15T12:32:09Z</time>
      </trkpt>
      <trkpt lat="43.48102" lon="6.23611">
        <ele>115</ele>
        <time>2022-04-15T12:32:10Z</time>
      </trkpt>
      <trkpt lat="43.48102" lon="6.2361">
        <ele>115</ele>
        <time>2022-04-15T12:32:11Z</time>
      </trkpt>
      <trkpt lat="43.48103" lon="6.23609">
        <ele>116</ele>
        <time>2022-04-15T12:32:12Z</time>
      </trkpt>
      <trkpt lat="43.48103" lon="6.23608">
        <ele>117</ele>
        <time>2022-04-15T12:32:13Z</time>
      </trkpt>
      <trkpt lat="43.48103" lon="6.23607">
        <ele>117</ele>
        <time>2022-04-15T12:32:14Z</time>
      </trkpt>
      <trkpt lat="43.48104" lon="6.23607">
        <ele>117</ele>
        <time>2022-04-15T12:32:15Z</time>
      </trkpt>
      <trkpt lat="43.48104" lon="6.23606">
        <ele>117</ele>
        <time>2022-04-15T12:32:16Z</time>
      </trkpt>
      <trkpt lat="43.48104" lon="6.23606">
        <ele>117</ele>
        <time>2022-04-15T12:32:17Z</time>
      </trkpt>
      <trkpt lat="43.48104" lon="6.23605">
        <ele>117</ele>
        <time>2022-04-15T12:32:18Z</time>
      </trkpt>
      <trkpt lat="43.48105" lon="6.23604">
        <ele>117</ele>
        <time>2022-04-15T12:32:19Z</time>
      </trkpt>
      <trkpt lat="43.48105" lon="6.23602">
        <ele>117</ele>
        <time>2022-04-15T12:32:20Z</time>
      </trkpt>
      <trkpt lat="43.48106" lon="6.236">
        <ele>117</ele>
        <time>2022-04-15T12:32:21Z</time>
      </trkpt>
      <trkpt lat="43.48106" lon="6.23599">
        <ele>117</ele>
        <time>2022-04-15T12:32:22Z</time>
      </trkpt>
      <trkpt lat="43.48107" lon="6.23597">
        <ele>117</ele>
        <time>2022-04-15T12:32:23Z</time>
      </trkpt>
      <trkpt lat="43.48107" lon="6.23596">
        <ele>117</ele>
        <time>2022-04-15T12:32:24Z</time>
      </trkpt>
      <trkpt lat="43.48108" lon="6.23595">
        <ele>117</ele>
        <time>2022-04-15T12:32:25Z</time>
      </trkpt>
      <trkpt lat="43.48108" lon="6.23594">
        <ele>117</ele>
        <time>2022-04-15T12:32:26Z</time>
      </trkpt>
      <trkpt lat="43.48108" lon="6.23593">
        <ele>117</ele>
        <time>2022-04-15T12:32:27Z</time>
      </trkpt>
      <trkpt lat="43.48108" lon="6.23593">
        <ele>117</ele>
        <time>2022-04-15T12:32:28Z</time>
      </trkpt>
      <trkpt lat="43.48108" lon="6.23592">
        <ele>117</ele>
        <time>2022-04-15T12:32:29Z</time>
      </trkpt>
      <trkpt lat="43.48108" lon="6.23591">
        <ele>117</ele>
        <time>2022-04-15T12:32:30Z</time>
      </trkpt>
      <trkpt lat="43.48108" lon="6.2359">
        <ele>117</ele>
        <time>2022-04-15T12:32:31Z</time>
      </trkpt>
      <trkpt lat="43.48108" lon="6.23589">
        <ele>117</ele>
        <time>2022-04-15T12:32:32Z</time>
      </trkpt>
      <trkpt lat="43.48109" lon="6.23588">
        <ele>117</ele>
        <time>2022-04-15T12:32:33Z</time>
      </trkpt>
      <trkpt lat="43.48109" lon="6.23586">
        <ele>117</ele>
        <time>2022-04-15T12:32:34Z</time>
      </trkpt>
      <trkpt lat="43.48109" lon="6.23585">
        <ele>118</ele>
        <time>2022-04-15T12:32:35Z</time>
      </trkpt>
      <trkpt lat="43.4811" lon="6.23583">
        <ele>118</ele>
        <time>2022-04-15T12:32:36Z</time>
      </trkpt>
      <trkpt lat="43.4811" lon="6.23582">
        <ele>118</ele>
        <time>2022-04-15T12:32:37Z</time>
      </trkpt>
      <trkpt lat="43.4811" lon="6.23581">
        <ele>118</ele>
        <time>2022-04-15T12:32:38Z</time>
      </trkpt>
      <trkpt lat="43.4811" lon="6.2358">
        <ele>118</ele>
        <time>2022-04-15T12:32:39Z</time>
      </trkpt>
      <trkpt lat="43.4811" lon="6.23579">
        <ele>118</ele>
        <time>2022-04-15T12:32:40Z</time>
      </trkpt>
      <trkpt lat="43.4811" lon="6.23577">
        <ele>119</ele>
        <time>2022-04-15T12:32:41Z</time>
      </trkpt>
      <trkpt lat="43.4811" lon="6.23576">
        <ele>119</ele>
        <time>2022-04-15T12:32:42Z</time>
      </trkpt>
      <trkpt lat="43.4811" lon="6.23575">
        <ele>119</ele>
        <time>2022-04-15T12:32:43Z</time>
      </trkpt>
      <trkpt lat="43.4811" lon="6.23573">
        <ele>119</ele>
        <time>2022-04-15T12:32:44Z</time>
      </trkpt>
      <trkpt lat="43.4811" lon="6.23571">
        <ele>119</ele>
        <time>2022-04-15T12:32:45Z</time>
      </trkpt>
      <trkpt lat="43.48111" lon="6.2357">
        <ele>119</ele>
        <time>2022-04-15T12:32:46Z</time>
      </trkpt>
      <trkpt lat="43.48111" lon="6.23568">
        <ele>119</ele>
        <time>2022-04-15T12:32:47Z</time>
      </trkpt>
      <trkpt lat="43.48111" lon="6.23566">
        <ele>120</ele>
        <time>2022-04-15T12:32:48Z</time>
      </trkpt>
      <trkpt lat="43.48111" lon="6.23564">
        <ele>122</ele>
        <time>2022-04-15T12:32:49Z</time>
      </trkpt>
      <trkpt lat="43.48112" lon="6.23563">
        <ele>123</ele>
        <time>2022-04-15T12:32:50Z</time>
      </trkpt>
      <trkpt lat="43.48112" lon="6.23561">
        <ele>124</ele>
        <time>2022-04-15T12:32:51Z</time>
      </trkpt>
      <trkpt lat="43.48112" lon="6.2356">
        <ele>124</ele>
        <time>2022-04-15T12:32:52Z</time>
      </trkpt>
      <trkpt lat="43.48112" lon="6.23559">
        <ele>125</ele>
        <time>2022-04-15T12:32:53Z</time>
      </trkpt>
      <trkpt lat="43.48112" lon="6.23559">
        <ele>125</ele>
        <time>2022-04-15T12:32:54Z</time>
      </trkpt>
      <trkpt lat="43.48113" lon="6.23558">
        <ele>125</ele>
        <time>2022-04-15T12:32:55Z</time>
      </trkpt>
      <trkpt lat="43.48113" lon="6.23556">
        <ele>126</ele>
        <time>2022-04-15T12:32:56Z</time>
      </trkpt>
      <trkpt lat="43.48114" lon="6.23554">
        <ele>126</ele>
        <time>2022-04-15T12:32:57Z</time>
      </trkpt>
      <trkpt lat="43.48114" lon="6.23552">
        <ele>126</ele>
        <time>2022-04-15T12:32:58Z</time>
      </trkpt>
      <trkpt lat="43.48114" lon="6.2355">
        <ele>126</ele>
        <time>2022-04-15T12:32:59Z</time>
      </trkpt>
      <trkpt lat="43.48114" lon="6.23549">
        <ele>127</ele>
        <time>2022-04-15T12:33:00Z</time>
      </trkpt>
      <trkpt lat="43.48114" lon="6.23549">
        <ele>127</ele>
        <time>2022-04-15T12:33:01Z</time>
      </trkpt>
      <trkpt lat="43.48114" lon="6.23548">
        <ele>127</ele>
        <time>2022-04-15T12:33:02Z</time>
      </trkpt>
      <trkpt lat="43.48114" lon="6.23547">
        <ele>127</ele>
        <time>2022-04-15T12:33:03Z</time>
      </trkpt>
      <trkpt lat="43.48114" lon="6.23545">
        <ele>127</ele>
        <time>2022-04-15T12:33:04Z</time>
      </trkpt>
      <trkpt lat="43.48114" lon="6.23544">
        <ele>127</ele>
        <time>2022-04-15T12:33:05Z</time>
      </trkpt>
      <trkpt lat="43.48114" lon="6.23541">
        <ele>127</ele>
        <time>2022-04-15T12:33:06Z</time>
      </trkpt>
      <trkpt lat="43.48114" lon="6.2354">
        <ele>127</ele>
        <time>2022-04-15T12:33:07Z</time>
      </trkpt>
      <trkpt lat="43.48114" lon="6.23538">
        <ele>127</ele>
        <time>2022-04-15T12:33:08Z</time>
      </trkpt>
      <trkpt lat="43.48114" lon="6.23536">
        <ele>127</ele>
        <time>2022-04-15T12:33:09Z</time>
      </trkpt>
      <trkpt lat="43.48114" lon="6.23535">
        <ele>127</ele>
        <time>2022-04-15T12:33:10Z</time>
      </trkpt>
      <trkpt lat="43.48114" lon="6.23534">
        <ele>127</ele>
        <time>2022-04-15T12:33:11Z</time>
      </trkpt>
      <trkpt lat="43.48114" lon="6.23532">
        <ele>127</ele>
        <time>2022-04-15T12:33:12Z</time>
      </trkpt>
      <trkpt lat="43.48114" lon="6.2353">
        <ele>127</ele>
        <time>2022-04-15T12:33:13Z</time>
      </trkpt>
      <trkpt lat="43.48115" lon="6.23528">
        <ele>127</ele>
        <time>2022-04-15T12:33:14Z</time>
      </trkpt>
      <trkpt lat="43.48116" lon="6.23525">
        <ele>127</ele>
        <time>2022-04-15T12:33:15Z</time>
      </trkpt>
      <trkpt lat="43.48117" lon="6.23523">
        <ele>127</ele>
        <time>2022-04-15T12:33:16Z</time>
      </trkpt>
      <trkpt lat="43.48117" lon="6.23521">
        <ele>127</ele>
        <time>2022-04-15T12:33:17Z</time>
      </trkpt>
      <trkpt lat="43.48118" lon="6.23519">
        <ele>127</ele>
        <time>2022-04-15T12:33:18Z</time>
      </trkpt>
      <trkpt lat="43.48119" lon="6.23517">
        <ele>127</ele>
        <time>2022-04-15T12:33:19Z</time>
      </trkpt>
      <trkpt lat="43.4812" lon="6.23515">
        <ele>127</ele>
        <time>2022-04-15T12:33:20Z</time>
      </trkpt>
      <trkpt lat="43.4812" lon="6.23514">
        <ele>127</ele>
        <time>2022-04-15T12:33:21Z</time>
      </trkpt>
      <trkpt lat="43.48121" lon="6.23512">
        <ele>126</ele>
        <time>2022-04-15T12:33:22Z</time>
      </trkpt>
      <trkpt lat="43.48122" lon="6.2351">
        <ele>126</ele>
        <time>2022-04-15T12:33:23Z</time>
      </trkpt>
      <trkpt lat="43.48122" lon="6.23509">
        <ele>126</ele>
        <time>2022-04-15T12:33:24Z</time>
      </trkpt>
      <trkpt lat="43.48123" lon="6.23508">
        <ele>125</ele>
        <time>2022-04-15T12:33:25Z</time>
      </trkpt>
      <trkpt lat="43.48123" lon="6.23507">
        <ele>125</ele>
        <time>2022-04-15T12:33:26Z</time>
      </trkpt>
      <trkpt lat="43.48124" lon="6.23506">
        <ele>125</ele>
        <time>2022-04-15T12:33:27Z</time>
      </trkpt>
      <trkpt lat="43.48124" lon="6.23504">
        <ele>125</ele>
        <time>2022-04-15T12:33:28Z</time>
      </trkpt>
      <trkpt lat="43.48125" lon="6.23502">
        <ele>124</ele>
        <time>2022-04-15T12:33:29Z</time>
      </trkpt>
      <trkpt lat="43.48126" lon="6.23501">
        <ele>123</ele>
        <time>2022-04-15T12:33:30Z</time>
      </trkpt>
      <trkpt lat="43.48126" lon="6.23501">
        <ele>123</ele>
        <time>2022-04-15T12:33:31Z</time>
      </trkpt>
      <trkpt lat="43.48126" lon="6.235">
        <ele>123</ele>
        <time>2022-04-15T12:33:32Z</time>
      </trkpt>
      <trkpt lat="43.48127" lon="6.235">
        <ele>123</ele>
        <time>2022-04-15T12:33:33Z</time>
      </trkpt>
      <trkpt lat="43.48127" lon="6.235">
        <ele>123</ele>
        <time>2022-04-15T12:33:34Z</time>
      </trkpt>
      <trkpt lat="43.48127" lon="6.235">
        <ele>123</ele>
        <time>2022-04-15T12:33:35Z</time>
      </trkpt>
      <trkpt lat="43.48128" lon="6.23499">
        <ele>123</ele>
        <time>2022-04-15T12:33:36Z</time>
      </trkpt>
      <trkpt lat="43.48128" lon="6.23499">
        <ele>123</ele>
        <time>2022-04-15T12:33:37Z</time>
      </trkpt>
      <trkpt lat="43.48128" lon="6.23498">
        <ele>123</ele>
        <time>2022-04-15T12:33:38Z</time>
      </trkpt>
      <trkpt lat="43.48129" lon="6.23498">
        <ele>123</ele>
        <time>2022-04-15T12:33:39Z</time>
      </trkpt>
      <trkpt lat="43.4813" lon="6.23497">
        <ele>122</ele>
        <time>2022-04-15T12:33:40Z</time>
      </trkpt>
      <trkpt lat="43.48131" lon="6.23496">
        <ele>122</ele>
        <time>2022-04-15T12:33:41Z</time>
      </trkpt>
      <trkpt lat="43.48131" lon="6.23496">
        <ele>122</ele>
        <time>2022-04-15T12:33:42Z</time>
      </trkpt>
      <trkpt lat="43.48132" lon="6.23495">
        <ele>122</ele>
        <time>2022-04-15T12:33:43Z</time>
      </trkpt>
      <trkpt lat="43.48133" lon="6.23495">
        <ele>122</ele>
        <time>2022-04-15T12:33:44Z</time>
      </trkpt>
      <trkpt lat="43.48134" lon="6.23494">
        <ele>122</ele>
        <time>2022-04-15T12:33:45Z</time>
      </trkpt>
      <trkpt lat="43.48134" lon="6.23494">
        <ele>122</ele>
        <time>2022-04-15T12:33:46Z</time>
      </trkpt>
      <trkpt lat="43.48135" lon="6.23493">
        <ele>122</ele>
        <time>2022-04-15T12:33:47Z</time>
      </trkpt>
      <trkpt lat="43.48135" lon="6.23493">
        <ele>122</ele>
        <time>2022-04-15T12:33:48Z</time>
      </trkpt>
      <trkpt lat="43.48136" lon="6.23492">
        <ele>121</ele>
        <time>2022-04-15T12:33:49Z</time>
      </trkpt>
      <trkpt lat="43.48136" lon="6.23491">
        <ele>121</ele>
        <time>2022-04-15T12:33:50Z</time>
      </trkpt>
      <trkpt lat="43.48136" lon="6.23491">
        <ele>121</ele>
        <time>2022-04-15T12:33:51Z</time>
      </trkpt>
      <trkpt lat="43.48137" lon="6.23491">
        <ele>121</ele>
        <time>2022-04-15T12:33:52Z</time>
      </trkpt>
      <trkpt lat="43.48137" lon="6.2349">
        <ele>121</ele>
        <time>2022-04-15T12:33:53Z</time>
      </trkpt>
      <trkpt lat="43.48137" lon="6.23489">
        <ele>121</ele>
        <time>2022-04-15T12:33:54Z</time>
      </trkpt>
      <trkpt lat="43.48138" lon="6.23488">
        <ele>121</ele>
        <time>2022-04-15T12:33:55Z</time>
      </trkpt>
      <trkpt lat="43.48138" lon="6.23487">
        <ele>121</ele>
        <time>2022-04-15T12:33:56Z</time>
      </trkpt>
      <trkpt lat="43.48139" lon="6.23486">
        <ele>122</ele>
        <time>2022-04-15T12:33:57Z</time>
      </trkpt>
      <trkpt lat="43.4814" lon="6.23485">
        <ele>122</ele>
        <time>2022-04-15T12:33:58Z</time>
      </trkpt>
      <trkpt lat="43.4814" lon="6.23484">
        <ele>122</ele>
        <time>2022-04-15T12:33:59Z</time>
      </trkpt>
      <trkpt lat="43.48141" lon="6.23483">
        <ele>122</ele>
        <time>2022-04-15T12:34:00Z</time>
      </trkpt>
      <trkpt lat="43.48141" lon="6.23483">
        <ele>123</ele>
        <time>2022-04-15T12:34:01Z</time>
      </trkpt>
      <trkpt lat="43.48141" lon="6.23482">
        <ele>124</ele>
        <time>2022-04-15T12:34:02Z</time>
      </trkpt>
      <trkpt lat="43.48142" lon="6.23482">
        <ele>124</ele>
        <time>2022-04-15T12:34:03Z</time>
      </trkpt>
      <trkpt lat="43.48143" lon="6.23481">
        <ele>125</ele>
        <time>2022-04-15T12:34:04Z</time>
      </trkpt>
      <trkpt lat="43.48144" lon="6.2348">
        <ele>125</ele>
        <time>2022-04-15T12:34:05Z</time>
      </trkpt>
      <trkpt lat="43.48145" lon="6.23479">
        <ele>125</ele>
        <time>2022-04-15T12:34:06Z</time>
      </trkpt>
      <trkpt lat="43.48146" lon="6.23478">
        <ele>125</ele>
        <time>2022-04-15T12:34:07Z</time>
      </trkpt>
      <trkpt lat="43.48147" lon="6.23477">
        <ele>126</ele>
        <time>2022-04-15T12:34:08Z</time>
      </trkpt>
      <trkpt lat="43.48148" lon="6.23476">
        <ele>126</ele>
        <time>2022-04-15T12:34:09Z</time>
      </trkpt>
      <trkpt lat="43.48149" lon="6.23475">
        <ele>126</ele>
        <time>2022-04-15T12:34:10Z</time>
      </trkpt>
      <trkpt lat="43.48149" lon="6.23473">
        <ele>126</ele>
        <time>2022-04-15T12:34:11Z</time>
      </trkpt>
      <trkpt lat="43.4815" lon="6.23472">
        <ele>126</ele>
        <time>2022-04-15T12:34:12Z</time>
      </trkpt>
      <trkpt lat="43.4815" lon="6.2347">
        <ele>127</ele>
        <time>2022-04-15T12:34:13Z</time>
      </trkpt>
      <trkpt lat="43.4815" lon="6.23469">
        <ele>127</ele>
        <time>2022-04-15T12:34:14Z</time>
      </trkpt>
      <trkpt lat="43.4815" lon="6.23468">
        <ele>126</ele>
        <time>2022-04-15T12:34:15Z</time>
      </trkpt>
      <trkpt lat="43.4815" lon="6.23467">
        <ele>126</ele>
        <time>2022-04-15T12:34:16Z</time>
      </trkpt>
      <trkpt lat="43.48149" lon="6.23466">
        <ele>126</ele>
        <time>2022-04-15T12:34:17Z</time>
      </trkpt>
      <trkpt lat="43.48149" lon="6.23464">
        <ele>126</ele>
        <time>2022-04-15T12:34:18Z</time>
      </trkpt>
      <trkpt lat="43.48149" lon="6.23463">
        <ele>126</ele>
        <time>2022-04-15T12:34:19Z</time>
      </trkpt>
      <trkpt lat="43.48149" lon="6.23461">
        <ele>126</ele>
        <time>2022-04-15T12:34:20Z</time>
      </trkpt>
      <trkpt lat="43.48149" lon="6.23459">
        <ele>126</ele>
        <time>2022-04-15T12:34:21Z</time>
      </trkpt>
      <trkpt lat="43.48149" lon="6.23458">
        <ele>126</ele>
        <time>2022-04-15T12:34:22Z</time>
      </trkpt>
      <trkpt lat="43.48148" lon="6.23457">
        <ele>125</ele>
        <time>2022-04-15T12:34:23Z</time>
      </trkpt>
      <trkpt lat="43.48148" lon="6.23455">
        <ele>125</ele>
        <time>2022-04-15T12:34:24Z</time>
      </trkpt>
      <trkpt lat="43.48148" lon="6.23454">
        <ele>125</ele>
        <time>2022-04-15T12:34:25Z</time>
      </trkpt>
      <trkpt lat="43.48149" lon="6.23452">
        <ele>125</ele>
        <time>2022-04-15T12:34:26Z</time>
      </trkpt>
      <trkpt lat="43.48148" lon="6.2345">
        <ele>125</ele>
        <time>2022-04-15T12:34:27Z</time>
      </trkpt>
      <trkpt lat="43.48148" lon="6.23449">
        <ele>125</ele>
        <time>2022-04-15T12:34:28Z</time>
      </trkpt>
      <trkpt lat="43.48148" lon="6.23448">
        <ele>123</ele>
        <time>2022-04-15T12:34:29Z</time>
      </trkpt>
      <trkpt lat="43.48148" lon="6.23447">
        <ele>122</ele>
        <time>2022-04-15T12:34:30Z</time>
      </trkpt>
      <trkpt lat="43.48148" lon="6.23445">
        <ele>122</ele>
        <time>2022-04-15T12:34:31Z</time>
      </trkpt>
      <trkpt lat="43.48148" lon="6.23444">
        <ele>122</ele>
        <time>2022-04-15T12:34:32Z</time>
      </trkpt>
      <trkpt lat="43.48148" lon="6.23443">
        <ele>122</ele>
        <time>2022-04-15T12:34:33Z</time>
      </trkpt>
      <trkpt lat="43.48148" lon="6.23442">
        <ele>122</ele>
        <time>2022-04-15T12:34:34Z</time>
      </trkpt>
      <trkpt lat="43.48148" lon="6.23441">
        <ele>122</ele>
        <time>2022-04-15T12:34:35Z</time>
      </trkpt>
      <trkpt lat="43.48148" lon="6.2344">
        <ele>122</ele>
        <time>2022-04-15T12:34:36Z</time>
      </trkpt>
      <trkpt lat="43.48148" lon="6.2344">
        <ele>122</ele>
        <time>2022-04-15T12:34:37Z</time>
      </trkpt>
      <trkpt lat="43.48148" lon="6.23439">
        <ele>122</ele>
        <time>2022-04-15T12:34:38Z</time>
      </trkpt>
      <trkpt lat="43.48148" lon="6.23439">
        <ele>122</ele>
        <time>2022-04-15T12:34:39Z</time>
      </trkpt>
      <trkpt lat="43.48148" lon="6.23438">
        <ele>122</ele>
        <time>2022-04-15T12:34:40Z</time>
      </trkpt>
      <trkpt lat="43.48148" lon="6.23438">
        <ele>122</ele>
        <time>2022-04-15T12:34:41Z</time>
      </trkpt>
      <trkpt lat="43.48148" lon="6.23437">
        <ele>121</ele>
        <time>2022-04-15T12:34:42Z</time>
      </trkpt>
      <trkpt lat="43.48148" lon="6.23437">
        <ele>121</ele>
        <time>2022-04-15T12:34:43Z</time>
      </trkpt>
      <trkpt lat="43.48148" lon="6.23436">
        <ele>121</ele>
        <time>2022-04-15T12:34:44Z</time>
      </trkpt>
      <trkpt lat="43.48148" lon="6.23435">
        <ele>121</ele>
        <time>2022-04-15T12:34:45Z</time>
      </trkpt>
      <trkpt lat="43.48149" lon="6.23435">
        <ele>121</ele>
        <time>2022-04-15T12:34:46Z</time>
      </trkpt>
      <trkpt lat="43.48149" lon="6.23434">
        <ele>121</ele>
        <time>2022-04-15T12:34:47Z</time>
      </trkpt>
      <trkpt lat="43.4815" lon="6.23433">
        <ele>121</ele>
        <time>2022-04-15T12:34:48Z</time>
      </trkpt>
      <trkpt lat="43.4815" lon="6.23433">
        <ele>121</ele>
        <time>2022-04-15T12:34:49Z</time>
      </trkpt>
      <trkpt lat="43.4815" lon="6.23432">
        <ele>121</ele>
        <time>2022-04-15T12:34:50Z</time>
      </trkpt>
      <trkpt lat="43.48151" lon="6.23432">
        <ele>121</ele>
        <time>2022-04-15T12:34:51Z</time>
      </trkpt>
      <trkpt lat="43.48151" lon="6.23431">
        <ele>121</ele>
        <time>2022-04-15T12:34:52Z</time>
      </trkpt>
      <trkpt lat="43.48151" lon="6.23431">
        <ele>121</ele>
        <time>2022-04-15T12:34:53Z</time>
      </trkpt>
      <trkpt lat="43.48151" lon="6.23431">
        <ele>121</ele>
        <time>2022-04-15T12:34:54Z</time>
      </trkpt>
      <trkpt lat="43.48151" lon="6.2343">
        <ele>121</ele>
        <time>2022-04-15T12:34:55Z</time>
      </trkpt>
      <trkpt lat="43.48151" lon="6.2343">
        <ele>121</ele>
        <time>2022-04-15T12:34:56Z</time>
      </trkpt>
      <trkpt lat="43.48151" lon="6.23429">
        <ele>121</ele>
        <time>2022-04-15T12:34:57Z</time>
      </trkpt>
      <trkpt lat="43.48151" lon="6.23429">
        <ele>121</ele>
        <time>2022-04-15T12:34:58Z</time>
      </trkpt>
      <trkpt lat="43.48151" lon="6.23428">
        <ele>121</ele>
        <time>2022-04-15T12:34:59Z</time>
      </trkpt>
      <trkpt lat="43.48152" lon="6.23428">
        <ele>121</ele>
        <time>2022-04-15T12:35:00Z</time>
      </trkpt>
      <trkpt lat="43.48152" lon="6.23428">
        <ele>121</ele>
        <time>2022-04-15T12:35:01Z</time>
      </trkpt>
      <trkpt lat="43.48152" lon="6.23427">
        <ele>121</ele>
        <time>2022-04-15T12:35:02Z</time>
      </trkpt>
      <trkpt lat="43.48152" lon="6.23427">
        <ele>121</ele>
        <time>2022-04-15T12:35:03Z</time>
      </trkpt>
      <trkpt lat="43.48152" lon="6.23427">
        <ele>121</ele>
        <time>2022-04-15T12:35:04Z</time>
      </trkpt>
      <trkpt lat="43.48152" lon="6.23427">
        <ele>121</ele>
        <time>2022-04-15T12:35:05Z</time>
      </trkpt>
      <trkpt lat="43.48152" lon="6.23426">
        <ele>121</ele>
        <time>2022-04-15T12:35:06Z</time>
      </trkpt>
      <trkpt lat="43.48152" lon="6.23427">
        <ele>121</ele>
        <time>2022-04-15T12:35:07Z</time>
      </trkpt>
      <trkpt lat="43.48153" lon="6.23427">
        <ele>121</ele>
        <time>2022-04-15T12:35:08Z</time>
      </trkpt>
      <trkpt lat="43.48153" lon="6.23428">
        <ele>121</ele>
        <time>2022-04-15T12:35:09Z</time>
      </trkpt>
      <trkpt lat="43.48153" lon="6.23428">
        <ele>121</ele>
        <time>2022-04-15T12:35:10Z</time>
      </trkpt>
      <trkpt lat="43.48153" lon="6.23428">
        <ele>121</ele>
        <time>2022-04-15T12:35:11Z</time>
      </trkpt>
      <trkpt lat="43.48153" lon="6.23428">
        <ele>121</ele>
        <time>2022-04-15T12:35:12Z</time>
      </trkpt>
      <trkpt lat="43.48153" lon="6.23428">
        <ele>121</ele>
        <time>2022-04-15T12:35:13Z</time>
      </trkpt>
      <trkpt lat="43.48153" lon="6.23428">
        <ele>121</ele>
        <time>2022-04-15T12:35:14Z</time>
      </trkpt>
      <trkpt lat="43.48153" lon="6.23428">
        <ele>122</ele>
        <time>2022-04-15T12:35:15Z</time>
      </trkpt>
      <trkpt lat="43.48153" lon="6.23428">
        <ele>122</ele>
        <time>2022-04-15T12:35:16Z</time>
      </trkpt>
      <trkpt lat="43.48153" lon="6.23428">
        <ele>122</ele>
        <time>2022-04-15T12:35:17Z</time>
      </trkpt>
      <trkpt lat="43.48153" lon="6.23428">
        <ele>122</ele>
        <time>2022-04-15T12:35:18Z</time>
      </trkpt>
      <trkpt lat="43.48153" lon="6.23428">
        <ele>122</ele>
        <time>2022-04-15T12:35:19Z</time>
      </trkpt>
      <trkpt lat="43.48153" lon="6.23428">
        <ele>122</ele>
        <time>2022-04-15T12:35:20Z</time>
      </trkpt>
      <trkpt lat="43.48153" lon="6.23428">
        <ele>122</ele>
        <time>2022-04-15T12:35:21Z</time>
      </trkpt>
      <trkpt lat="43.48153" lon="6.23428">
        <ele>122</ele>
        <time>2022-04-15T12:35:22Z</time>
      </trkpt>
      <trkpt lat="43.48153" lon="6.23428">
        <ele>122</ele>
        <time>2022-04-15T12:35:23Z</time>
      </trkpt>
      <trkpt lat="43.48153" lon="6.23428">
        <ele>122</ele>
        <time>2022-04-15T12:35:24Z</time>
      </trkpt>
      <trkpt lat="43.48153" lon="6.23428">
        <ele>122</ele>
        <time>2022-04-15T12:35:25Z</time>
      </trkpt>
      <trkpt lat="43.48153" lon="6.23428">
        <ele>122</ele>
        <time>2022-04-15T12:35:26Z</time>
      </trkpt>
      <trkpt lat="43.48153" lon="6.23428">
        <ele>122</ele>
        <time>2022-04-15T12:35:27Z</time>
      </trkpt>
      <trkpt lat="43.48153" lon="6.23428">
        <ele>122</ele>
        <time>2022-04-15T12:35:28Z</time>
      </trkpt>
      <trkpt lat="43.48153" lon="6.23428">
        <ele>122</ele>
        <time>2022-04-15T12:35:29Z</time>
      </trkpt>
      <trkpt lat="43.48153" lon="6.23428">
        <ele>122</ele>
        <time>2022-04-15T12:35:30Z</time>
      </trkpt>
      <trkpt lat="43.48153" lon="6.23428">
        <ele>122</ele>
        <time>2022-04-15T12:35:31Z</time>
      </trkpt>
      <trkpt lat="43.48153" lon="6.23428">
        <ele>122</ele>
        <time>2022-04-15T12:35:32Z</time>
      </trkpt>
      <trkpt lat="43.48153" lon="6.23428">
        <ele>122</ele>
        <time>2022-04-15T12:35:33Z</time>
      </trkpt>
      <trkpt lat="43.48153" lon="6.2343">
        <ele>122</ele>
        <time>2022-04-15T12:35:34Z</time>
      </trkpt>
      <trkpt lat="43.48153" lon="6.2343">
        <ele>122</ele>
        <time>2022-04-15T12:35:35Z</time>
      </trkpt>
      <trkpt lat="43.48153" lon="6.2343">
        <ele>122</ele>
        <time>2022-04-15T12:35:36Z</time>
      </trkpt>
      <trkpt lat="43.48153" lon="6.23431">
        <ele>122</ele>
        <time>2022-04-15T12:35:37Z</time>
      </trkpt>
      <trkpt lat="43.48153" lon="6.23431">
        <ele>122</ele>
        <time>2022-04-15T12:35:38Z</time>
      </trkpt>
      <trkpt lat="43.48153" lon="6.23431">
        <ele>122</ele>
        <time>2022-04-15T12:35:39Z</time>
      </trkpt>
      <trkpt lat="43.48153" lon="6.23431">
        <ele>122</ele>
        <time>2022-04-15T12:35:40Z</time>
      </trkpt>
      <trkpt lat="43.48153" lon="6.23431">
        <ele>122</ele>
        <time>2022-04-15T12:35:41Z</time>
      </trkpt>
      <trkpt lat="43.48154" lon="6.2343">
        <ele>122</ele>
        <time>2022-04-15T12:35:42Z</time>
      </trkpt>
      <trkpt lat="43.48154" lon="6.23429">
        <ele>122</ele>
        <time>2022-04-15T12:35:43Z</time>
      </trkpt>
      <trkpt lat="43.48155" lon="6.23428">
        <ele>122</ele>
        <time>2022-04-15T12:35:44Z</time>
      </trkpt>
      <trkpt lat="43.48156" lon="6.23427">
        <ele>122</ele>
        <time>2022-04-15T12:35:45Z</time>
      </trkpt>
      <trkpt lat="43.48156" lon="6.23427">
        <ele>122</ele>
        <time>2022-04-15T12:35:46Z</time>
      </trkpt>
      <trkpt lat="43.48157" lon="6.23427">
        <ele>122</ele>
        <time>2022-04-15T12:35:47Z</time>
      </trkpt>
      <trkpt lat="43.48157" lon="6.23426">
        <ele>122</ele>
        <time>2022-04-15T12:35:48Z</time>
      </trkpt>
      <trkpt lat="43.48158" lon="6.23426">
        <ele>122</ele>
        <time>2022-04-15T12:35:49Z</time>
      </trkpt>
      <trkpt lat="43.48158" lon="6.23426">
        <ele>122</ele>
        <time>2022-04-15T12:35:50Z</time>
      </trkpt>
      <trkpt lat="43.48159" lon="6.23426">
        <ele>122</ele>
        <time>2022-04-15T12:35:51Z</time>
      </trkpt>
      <trkpt lat="43.48159" lon="6.23426">
        <ele>122</ele>
        <time>2022-04-15T12:35:52Z</time>
      </trkpt>
      <trkpt lat="43.4816" lon="6.23426">
        <ele>122</ele>
        <time>2022-04-15T12:35:53Z</time>
      </trkpt>
      <trkpt lat="43.48161" lon="6.23427">
        <ele>122</ele>
        <time>2022-04-15T12:35:54Z</time>
      </trkpt>
      <trkpt lat="43.48161" lon="6.23427">
        <ele>123</ele>
        <time>2022-04-15T12:35:55Z</time>
      </trkpt>
      <trkpt lat="43.48161" lon="6.23427">
        <ele>123</ele>
        <time>2022-04-15T12:35:56Z</time>
      </trkpt>
      <trkpt lat="43.48162" lon="6.23427">
        <ele>123</ele>
        <time>2022-04-15T12:35:57Z</time>
      </trkpt>
      <trkpt lat="43.48162" lon="6.23428">
        <ele>123</ele>
        <time>2022-04-15T12:35:58Z</time>
      </trkpt>
      <trkpt lat="43.48162" lon="6.23428">
        <ele>123</ele>
        <time>2022-04-15T12:35:59Z</time>
      </trkpt>
      <trkpt lat="43.48162" lon="6.23428">
        <ele>123</ele>
        <time>2022-04-15T12:36:00Z</time>
      </trkpt>
      <trkpt lat="43.48163" lon="6.23428">
        <ele>123</ele>
        <time>2022-04-15T12:36:01Z</time>
      </trkpt>
      <trkpt lat="43.48163" lon="6.23428">
        <ele>123</ele>
        <time>2022-04-15T12:36:02Z</time>
      </trkpt>
      <trkpt lat="43.48163" lon="6.23428">
        <ele>123</ele>
        <time>2022-04-15T12:36:03Z</time>
      </trkpt>
      <trkpt lat="43.48163" lon="6.23428">
        <ele>123</ele>
        <time>2022-04-15T12:36:04Z</time>
      </trkpt>
      <trkpt lat="43.48163" lon="6.23428">
        <ele>123</ele>
        <time>2022-04-15T12:36:05Z</time>
      </trkpt>
      <trkpt lat="43.48163" lon="6.23428">
        <ele>123</ele>
        <time>2022-04-15T12:36:06Z</time>
      </trkpt>
      <trkpt lat="43.48163" lon="6.23428">
        <ele>123</ele>
        <time>2022-04-15T12:36:07Z</time>
      </trkpt>
      <trkpt lat="43.48163" lon="6.23428">
        <ele>123</ele>
        <time>2022-04-15T12:36:08Z</time>
      </trkpt>
      <trkpt lat="43.48163" lon="6.23428">
        <ele>123</ele>
        <time>2022-04-15T12:36:09Z</time>
      </trkpt>
      <trkpt lat="43.48163" lon="6.23428">
        <ele>123</ele>
        <time>2022-04-15T12:36:10Z</time>
      </trkpt>
      <trkpt lat="43.48163" lon="6.23428">
        <ele>123</ele>
        <time>2022-04-15T12:36:11Z</time>
      </trkpt>
      <trkpt lat="43.48163" lon="6.23428">
        <ele>123</ele>
        <time>2022-04-15T12:36:12Z</time>
      </trkpt>
      <trkpt lat="43.48163" lon="6.23428">
        <ele>123</ele>
        <time>2022-04-15T12:36:13Z</time>
      </trkpt>
      <trkpt lat="43.48163" lon="6.23428">
        <ele>123</ele>
        <time>2022-04-15T12:36:14Z</time>
      </trkpt>
      <trkpt lat="43.48163" lon="6.23428">
        <ele>123</ele>
        <time>2022-04-15T12:36:15Z</time>
      </trkpt>
      <trkpt lat="43.48163" lon="6.23428">
        <ele>123</ele>
        <time>2022-04-15T12:36:16Z</time>
      </trkpt>
      <trkpt lat="43.48163" lon="6.23428">
        <ele>123</ele>
        <time>2022-04-15T12:36:17Z</time>
      </trkpt>
      <trkpt lat="43.48163" lon="6.23428">
        <ele>123</ele>
        <time>2022-04-15T12:36:18Z</time>
      </trkpt>
      <trkpt lat="43.48163" lon="6.23428">
        <ele>123</ele>
        <time>2022-04-15T12:36:19Z</time>
      </trkpt>
      <trkpt lat="43.48163" lon="6.23428">
        <ele>123</ele>
        <time>2022-04-15T12:36:20Z</time>
      </trkpt>
      <trkpt lat="43.48164" lon="6.23428">
        <ele>123</ele>
        <time>2022-04-15T12:36:21Z</time>
      </trkpt>
      <trkpt lat="43.48164" lon="6.23428">
        <ele>123</ele>
        <time>2022-04-15T12:36:22Z</time>
      </trkpt>
      <trkpt lat="43.48164" lon="6.23428">
        <ele>123</ele>
        <time>2022-04-15T12:36:23Z</time>
      </trkpt>
      <trkpt lat="43.48164" lon="6.23428">
        <ele>123</ele>
        <time>2022-04-15T12:36:24Z</time>
      </trkpt>
      <trkpt lat="43.48164" lon="6.23428">
        <ele>123</ele>
        <time>2022-04-15T12:36:25Z</time>
      </trkpt>
      <trkpt lat="43.48164" lon="6.23428">
        <ele>123</ele>
        <time>2022-04-15T12:36:26Z</time>
      </trkpt>
      <trkpt lat="43.48164" lon="6.23428">
        <ele>123</ele>
        <time>2022-04-15T12:36:27Z</time>
      </trkpt>
      <trkpt lat="43.48164" lon="6.23428">
        <ele>123</ele>
        <time>2022-04-15T12:36:28Z</time>
      </trkpt>
      <trkpt lat="43.48164" lon="6.23428">
        <ele>123</ele>
        <time>2022-04-15T12:36:29Z</time>
      </trkpt>
      <trkpt lat="43.48164" lon="6.23428">
        <ele>123</ele>
        <time>2022-04-15T12:36:30Z</time>
      </trkpt>
      <trkpt lat="43.48164" lon="6.23428">
        <ele>123</ele>
        <time>2022-04-15T12:36:31Z</time>
      </trkpt>
      <trkpt lat="43.48164" lon="6.23428">
        <ele>123</ele>
        <time>2022-04-15T12:36:32Z</time>
      </trkpt>
      <trkpt lat="43.48164" lon="6.23428">
        <ele>123</ele>
        <time>2022-04-15T12:36:33Z</time>
      </trkpt>
      <trkpt lat="43.48164" lon="6.23428">
        <ele>123</ele>
        <time>2022-04-15T12:36:34Z</time>
      </trkpt>
      <trkpt lat="43.48164" lon="6.23428">
        <ele>123</ele>
        <time>2022-04-15T12:36:35Z</time>
      </trkpt>
      <trkpt lat="43.48164" lon="6.23428">
        <ele>123</ele>
        <time>2022-04-15T12:36:36Z</time>
      </trkpt>
      <trkpt lat="43.48164" lon="6.23428">
        <ele>123</ele>
        <time>2022-04-15T12:36:37Z</time>
      </trkpt>
      <trkpt lat="43.48164" lon="6.23428">
        <ele>123</ele>
        <time>2022-04-15T12:36:38Z</time>
      </trkpt>
      <trkpt lat="43.48164" lon="6.23428">
        <ele>123</ele>
        <time>2022-04-15T12:36:39Z</time>
      </trkpt>
      <trkpt lat="43.48164" lon="6.23428">
        <ele>123</ele>
        <time>2022-04-15T12:36:40Z</time>
      </trkpt>
      <trkpt lat="43.48164" lon="6.23428">
        <ele>123</ele>
        <time>2022-04-15T12:36:41Z</time>
      </trkpt>
      <trkpt lat="43.48164" lon="6.23428">
        <ele>123</ele>
        <time>2022-04-15T12:36:42Z</time>
      </trkpt>
      <trkpt lat="43.48164" lon="6.23428">
        <ele>123</ele>
        <time>2022-04-15T12:36:43Z</time>
      </trkpt>
      <trkpt lat="43.48164" lon="6.23428">
        <ele>123</ele>
        <time>2022-04-15T12:36:44Z</time>
      </trkpt>
      <trkpt lat="43.48164" lon="6.23428">
        <ele>123</ele>
        <time>2022-04-15T12:36:45Z</time>
      </trkpt>
      <trkpt lat="43.48164" lon="6.23428">
        <ele>123</ele>
        <time>2022-04-15T12:36:46Z</time>
      </trkpt>
      <trkpt lat="43.48164" lon="6.23428">
        <ele>123</ele>
        <time>2022-04-15T12:36:47Z</time>
      </trkpt>
      <trkpt lat="43.48164" lon="6.23428">
        <ele>123</ele>
        <time>2022-04-15T12:36:48Z</time>
      </trkpt>
      <trkpt lat="43.48164" lon="6.23428">
        <ele>123</ele>
        <time>2022-04-15T12:36:49Z</time>
      </trkpt>
      <trkpt lat="43.48164" lon="6.23428">
        <ele>123</ele>
        <time>2022-04-15T12:36:50Z</time>
      </trkpt>
      <trkpt lat="43.48164" lon="6.23428">
        <ele>123</ele>
        <time>2022-04-15T12:36:51Z</time>
      </trkpt>
      <trkpt lat="43.48164" lon="6.23428">
        <ele>123</ele>
        <time>2022-04-15T12:36:52Z</time>
      </trkpt>
      <trkpt lat="43.48164" lon="6.23428">
        <ele>123</ele>
        <time>2022-04-15T12:36:53Z</time>
      </trkpt>
      <trkpt lat="43.48165" lon="6.23428">
        <ele>123</ele>
        <time>2022-04-15T12:36:54Z</time>
      </trkpt>
      <trkpt lat="43.48165" lon="6.23427">
        <ele>123</ele>
        <time>2022-04-15T12:36:55Z</time>
      </trkpt>
      <trkpt lat="43.48165" lon="6.23427">
        <ele>123</ele>
        <time>2022-04-15T12:36:56Z</time>
      </trkpt>
      <trkpt lat="43.48165" lon="6.23426">
        <ele>123</ele>
        <time>2022-04-15T12:36:57Z</time>
      </trkpt>
      <trkpt lat="43.48166" lon="6.23426">
        <ele>123</ele>
        <time>2022-04-15T12:36:58Z</time>
      </trkpt>
      <trkpt lat="43.48166" lon="6.23426">
        <ele>123</ele>
        <time>2022-04-15T12:36:59Z</time>
      </trkpt>
      <trkpt lat="43.48166" lon="6.23426">
        <ele>123</ele>
        <time>2022-04-15T12:37:00Z</time>
      </trkpt>
      <trkpt lat="43.48166" lon="6.23425">
        <ele>123</ele>
        <time>2022-04-15T12:37:01Z</time>
      </trkpt>
      <trkpt lat="43.48166" lon="6.23425">
        <ele>123</ele>
        <time>2022-04-15T12:37:02Z</time>
      </trkpt>
      <trkpt lat="43.48166" lon="6.23425">
        <ele>123</ele>
        <time>2022-04-15T12:37:03Z</time>
      </trkpt>
      <trkpt lat="43.48167" lon="6.23425">
        <ele>123</ele>
        <time>2022-04-15T12:37:04Z</time>
      </trkpt>
      <trkpt lat="43.48167" lon="6.23425">
        <ele>123</ele>
        <time>2022-04-15T12:37:05Z</time>
      </trkpt>
      <trkpt lat="43.48167" lon="6.23425">
        <ele>123</ele>
        <time>2022-04-15T12:37:06Z</time>
      </trkpt>
      <trkpt lat="43.48167" lon="6.23425">
        <ele>123</ele>
        <time>2022-04-15T12:37:07Z</time>
      </trkpt>
      <trkpt lat="43.48167" lon="6.23425">
        <ele>123</ele>
        <time>2022-04-15T12:37:08Z</time>
      </trkpt>
      <trkpt lat="43.48167" lon="6.23425">
        <ele>123</ele>
        <time>2022-04-15T12:37:09Z</time>
      </trkpt>
      <trkpt lat="43.48167" lon="6.23425">
        <ele>123</ele>
        <time>2022-04-15T12:37:10Z</time>
      </trkpt>
      <trkpt lat="43.48167" lon="6.23425">
        <ele>123</ele>
        <time>2022-04-15T12:37:11Z</time>
      </trkpt>
      <trkpt lat="43.48167" lon="6.23425">
        <ele>123</ele>
        <time>2022-04-15T12:37:12Z</time>
      </trkpt>
      <trkpt lat="43.48167" lon="6.23425">
        <ele>123</ele>
        <time>2022-04-15T12:37:13Z</time>
      </trkpt>
      <trkpt lat="43.48167" lon="6.23425">
        <ele>123</ele>
        <time>2022-04-15T12:37:14Z</time>
      </trkpt>
      <trkpt lat="43.48167" lon="6.23425">
        <ele>123</ele>
        <time>2022-04-15T12:37:15Z</time>
      </trkpt>
      <trkpt lat="43.48167" lon="6.23425">
        <ele>123</ele>
        <time>2022-04-15T12:37:16Z</time>
      </trkpt>
      <trkpt lat="43.48167" lon="6.23425">
        <ele>123</ele>
        <time>2022-04-15T12:37:17Z</time>
      </trkpt>
      <trkpt lat="43.48167" lon="6.23425">
        <ele>123</ele>
        <time>2022-04-15T12:37:18Z</time>
      </trkpt>
      <trkpt lat="43.48167" lon="6.23425">
        <ele>123</ele>
        <time>2022-04-15T12:37:19Z</time>
      </trkpt>
      <trkpt lat="43.48167" lon="6.23425">
        <ele>123</ele>
        <time>2022-04-15T12:37:20Z</time>
      </trkpt>
      <trkpt lat="43.48167" lon="6.23424">
        <ele>123</ele>
        <time>2022-04-15T12:37:21Z</time>
      </trkpt>
      <trkpt lat="43.48167" lon="6.23424">
        <ele>123</ele>
        <time>2022-04-15T12:37:22Z</time>
      </trkpt>
      <trkpt lat="43.48167" lon="6.23424">
        <ele>123</ele>
        <time>2022-04-15T12:37:23Z</time>
      </trkpt>
      <trkpt lat="43.48167" lon="6.23424">
        <ele>123</ele>
        <time>2022-04-15T12:37:24Z</time>
      </trkpt>
      <trkpt lat="43.48167" lon="6.23424">
        <ele>123</ele>
        <time>2022-04-15T12:37:25Z</time>
      </trkpt>
      <trkpt lat="43.48167" lon="6.23424">
        <ele>123</ele>
        <time>2022-04-15T12:37:26Z</time>
      </trkpt>
      <trkpt lat="43.48167" lon="6.23424">
        <ele>123</ele>
        <time>2022-04-15T12:37:27Z</time>
      </trkpt>
      <trkpt lat="43.48167" lon="6.23424">
        <ele>123</ele>
        <time>2022-04-15T12:37:28Z</time>
      </trkpt>
      <trkpt lat="43.48167" lon="6.23424">
        <ele>123</ele>
        <time>2022-04-15T12:37:29Z</time>
      </trkpt>
      <trkpt lat="43.48167" lon="6.23424">
        <ele>123</ele>
        <time>2022-04-15T12:37:30Z</time>
      </trkpt>
      <trkpt lat="43.48167" lon="6.23424">
        <ele>123</ele>
        <time>2022-04-15T12:37:31Z</time>
      </trkpt>
      <trkpt lat="43.48167" lon="6.23424">
        <ele>123</ele>
        <time>2022-04-15T12:37:32Z</time>
      </trkpt>
      <trkpt lat="43.48167" lon="6.23424">
        <ele>123</ele>
        <time>2022-04-15T12:37:33Z</time>
      </trkpt>
      <trkpt lat="43.48167" lon="6.23424">
        <ele>123</ele>
        <time>2022-04-15T12:37:34Z</time>
      </trkpt>
      <trkpt lat="43.48167" lon="6.23424">
        <ele>123</ele>
        <time>2022-04-15T12:37:35Z</time>
      </trkpt>
      <trkpt lat="43.48167" lon="6.23424">
        <ele>123</ele>
        <time>2022-04-15T12:37:36Z</time>
      </trkpt>
      <trkpt lat="43.48167" lon="6.23424">
        <ele>123</ele>
        <time>2022-04-15T12:37:37Z</time>
      </trkpt>
      <trkpt lat="43.48167" lon="6.23424">
        <ele>123</ele>
        <time>2022-04-15T12:37:38Z</time>
      </trkpt>
      <trkpt lat="43.48167" lon="6.23424">
        <ele>123</ele>
        <time>2022-04-15T12:37:39Z</time>
      </trkpt>
      <trkpt lat="43.48167" lon="6.23424">
        <ele>123</ele>
        <time>2022-04-15T12:37:40Z</time>
      </trkpt>
      <trkpt lat="43.48167" lon="6.23424">
        <ele>123</ele>
        <time>2022-04-15T12:37:41Z</time>
      </trkpt>
      <trkpt lat="43.48167" lon="6.23424">
        <ele>123</ele>
        <time>2022-04-15T12:37:42Z</time>
      </trkpt>
      <trkpt lat="43.48167" lon="6.23424">
        <ele>123</ele>
        <time>2022-04-15T12:37:43Z</time>
      </trkpt>
      <trkpt lat="43.48167" lon="6.23424">
        <ele>124</ele>
        <time>2022-04-15T12:37:44Z</time>
      </trkpt>
      <trkpt lat="43.48167" lon="6.23424">
        <ele>124</ele>
        <time>2022-04-15T12:37:45Z</time>
      </trkpt>
      <trkpt lat="43.48167" lon="6.23424">
        <ele>124</ele>
        <time>2022-04-15T12:37:46Z</time>
      </trkpt>
      <trkpt lat="43.48167" lon="6.23424">
        <ele>124</ele>
        <time>2022-04-15T12:37:47Z</time>
      </trkpt>
      <trkpt lat="43.48167" lon="6.23424">
        <ele>124</ele>
        <time>2022-04-15T12:37:48Z</time>
      </trkpt>
      <trkpt lat="43.48167" lon="6.23424">
        <ele>124</ele>
        <time>2022-04-15T12:37:49Z</time>
      </trkpt>
      <trkpt lat="43.48167" lon="6.23424">
        <ele>124</ele>
        <time>2022-04-15T12:37:50Z</time>
      </trkpt>
      <trkpt lat="43.48167" lon="6.23424">
        <ele>124</ele>
        <time>2022-04-15T12:37:51Z</time>
      </trkpt>
      <trkpt lat="43.48167" lon="6.23424">
        <ele>124</ele>
        <time>2022-04-15T12:37:52Z</time>
      </trkpt>
      <trkpt lat="43.48167" lon="6.23423">
        <ele>124</ele>
        <time>2022-04-15T12:37:53Z</time>
      </trkpt>
      <trkpt lat="43.48167" lon="6.23423">
        <ele>124</ele>
        <time>2022-04-15T12:37:54Z</time>
      </trkpt>
      <trkpt lat="43.48168" lon="6.23422">
        <ele>124</ele>
        <time>2022-04-15T12:37:55Z</time>
      </trkpt>
      <trkpt lat="43.48168" lon="6.23421">
        <ele>124</ele>
        <time>2022-04-15T12:37:56Z</time>
      </trkpt>
      <trkpt lat="43.48168" lon="6.2342">
        <ele>124</ele>
        <time>2022-04-15T12:37:57Z</time>
      </trkpt>
      <trkpt lat="43.48169" lon="6.23418">
        <ele>124</ele>
        <time>2022-04-15T12:37:58Z</time>
      </trkpt>
      <trkpt lat="43.48169" lon="6.23417">
        <ele>123</ele>
        <time>2022-04-15T12:37:59Z</time>
      </trkpt>
      <trkpt lat="43.48169" lon="6.23416">
        <ele>123</ele>
        <time>2022-04-15T12:38:00Z</time>
      </trkpt>
      <trkpt lat="43.4817" lon="6.23414">
        <ele>123</ele>
        <time>2022-04-15T12:38:01Z</time>
      </trkpt>
      <trkpt lat="43.4817" lon="6.23413">
        <ele>123</ele>
        <time>2022-04-15T12:38:02Z</time>
      </trkpt>
      <trkpt lat="43.4817" lon="6.23412">
        <ele>123</ele>
        <time>2022-04-15T12:38:03Z</time>
      </trkpt>
      <trkpt lat="43.4817" lon="6.23411">
        <ele>123</ele>
        <time>2022-04-15T12:38:04Z</time>
      </trkpt>
      <trkpt lat="43.4817" lon="6.2341">
        <ele>123</ele>
        <time>2022-04-15T12:38:05Z</time>
      </trkpt>
      <trkpt lat="43.4817" lon="6.2341">
        <ele>123</ele>
        <time>2022-04-15T12:38:06Z</time>
      </trkpt>
      <trkpt lat="43.4817" lon="6.23409">
        <ele>123</ele>
        <time>2022-04-15T12:38:07Z</time>
      </trkpt>
      <trkpt lat="43.4817" lon="6.23409">
        <ele>123</ele>
        <time>2022-04-15T12:38:08Z</time>
      </trkpt>
      <trkpt lat="43.4817" lon="6.23408">
        <ele>123</ele>
        <time>2022-04-15T12:38:09Z</time>
      </trkpt>
      <trkpt lat="43.4817" lon="6.23407">
        <ele>123</ele>
        <time>2022-04-15T12:38:10Z</time>
      </trkpt>
      <trkpt lat="43.48171" lon="6.23407">
        <ele>123</ele>
        <time>2022-04-15T12:38:11Z</time>
      </trkpt>
      <trkpt lat="43.48171" lon="6.23405">
        <ele>124</ele>
        <time>2022-04-15T12:38:12Z</time>
      </trkpt>
      <trkpt lat="43.48172" lon="6.23404">
        <ele>124</ele>
        <time>2022-04-15T12:38:13Z</time>
      </trkpt>
      <trkpt lat="43.48172" lon="6.23404">
        <ele>124</ele>
        <time>2022-04-15T12:38:14Z</time>
      </trkpt>
      <trkpt lat="43.48173" lon="6.23402">
        <ele>124</ele>
        <time>2022-04-15T12:38:15Z</time>
      </trkpt>
      <trkpt lat="43.48173" lon="6.23401">
        <ele>124</ele>
        <time>2022-04-15T12:38:16Z</time>
      </trkpt>
      <trkpt lat="43.48175" lon="6.234">
        <ele>124</ele>
        <time>2022-04-15T12:38:17Z</time>
      </trkpt>
      <trkpt lat="43.48177" lon="6.23396">
        <ele>124</ele>
        <time>2022-04-15T12:38:18Z</time>
      </trkpt>
      <trkpt lat="43.48179" lon="6.23394">
        <ele>124</ele>
        <time>2022-04-15T12:38:19Z</time>
      </trkpt>
      <trkpt lat="43.48181" lon="6.23392">
        <ele>124</ele>
        <time>2022-04-15T12:38:20Z</time>
      </trkpt>
      <trkpt lat="43.48182" lon="6.23391">
        <ele>124</ele>
        <time>2022-04-15T12:38:21Z</time>
      </trkpt>
      <trkpt lat="43.48183" lon="6.2339">
        <ele>124</ele>
        <time>2022-04-15T12:38:22Z</time>
      </trkpt>
      <trkpt lat="43.48184" lon="6.23389">
        <ele>124</ele>
        <time>2022-04-15T12:38:23Z</time>
      </trkpt>
      <trkpt lat="43.48185" lon="6.23388">
        <ele>124</ele>
        <time>2022-04-15T12:38:24Z</time>
      </trkpt>
      <trkpt lat="43.48186" lon="6.23387">
        <ele>124</ele>
        <time>2022-04-15T12:38:25Z</time>
      </trkpt>
      <trkpt lat="43.48187" lon="6.23386">
        <ele>124</ele>
        <time>2022-04-15T12:38:26Z</time>
      </trkpt>
      <trkpt lat="43.48188" lon="6.23386">
        <ele>123</ele>
        <time>2022-04-15T12:38:27Z</time>
      </trkpt>
      <trkpt lat="43.48189" lon="6.23385">
        <ele>123</ele>
        <time>2022-04-15T12:38:28Z</time>
      </trkpt>
      <trkpt lat="43.48189" lon="6.23385">
        <ele>123</ele>
        <time>2022-04-15T12:38:29Z</time>
      </trkpt>
      <trkpt lat="43.4819" lon="6.23384">
        <ele>123</ele>
        <time>2022-04-15T12:38:30Z</time>
      </trkpt>
      <trkpt lat="43.4819" lon="6.23383">
        <ele>123</ele>
        <time>2022-04-15T12:38:31Z</time>
      </trkpt>
      <trkpt lat="43.48191" lon="6.23382">
        <ele>123</ele>
        <time>2022-04-15T12:38:32Z</time>
      </trkpt>
      <trkpt lat="43.48193" lon="6.23379">
        <ele>123</ele>
        <time>2022-04-15T12:38:33Z</time>
      </trkpt>
      <trkpt lat="43.48195" lon="6.23376">
        <ele>123</ele>
        <time>2022-04-15T12:38:34Z</time>
      </trkpt>
      <trkpt lat="43.48196" lon="6.23374">
        <ele>123</ele>
        <time>2022-04-15T12:38:35Z</time>
      </trkpt>
      <trkpt lat="43.48197" lon="6.23372">
        <ele>123</ele>
        <time>2022-04-15T12:38:36Z</time>
      </trkpt>
      <trkpt lat="43.48198" lon="6.23371">
        <ele>123</ele>
        <time>2022-04-15T12:38:37Z</time>
      </trkpt>
      <trkpt lat="43.48198" lon="6.2337">
        <ele>123</ele>
        <time>2022-04-15T12:38:38Z</time>
      </trkpt>
      <trkpt lat="43.48198" lon="6.23369">
        <ele>123</ele>
        <time>2022-04-15T12:38:39Z</time>
      </trkpt>
      <trkpt lat="43.48199" lon="6.23367">
        <ele>123</ele>
        <time>2022-04-15T12:38:40Z</time>
      </trkpt>
      <trkpt lat="43.48199" lon="6.23366">
        <ele>123</ele>
        <time>2022-04-15T12:38:41Z</time>
      </trkpt>
      <trkpt lat="43.48199" lon="6.23365">
        <ele>123</ele>
        <time>2022-04-15T12:38:42Z</time>
      </trkpt>
      <trkpt lat="43.48199" lon="6.23364">
        <ele>123</ele>
        <time>2022-04-15T12:38:43Z</time>
      </trkpt>
      <trkpt lat="43.482" lon="6.23363">
        <ele>123</ele>
        <time>2022-04-15T12:38:44Z</time>
      </trkpt>
      <trkpt lat="43.482" lon="6.23361">
        <ele>123</ele>
        <time>2022-04-15T12:38:45Z</time>
      </trkpt>
      <trkpt lat="43.482" lon="6.2336">
        <ele>123</ele>
        <time>2022-04-15T12:38:46Z</time>
      </trkpt>
      <trkpt lat="43.48201" lon="6.23358">
        <ele>123</ele>
        <time>2022-04-15T12:38:47Z</time>
      </trkpt>
      <trkpt lat="43.48201" lon="6.23357">
        <ele>122</ele>
        <time>2022-04-15T12:38:48Z</time>
      </trkpt>
      <trkpt lat="43.48202" lon="6.23355">
        <ele>122</ele>
        <time>2022-04-15T12:38:49Z</time>
      </trkpt>
      <trkpt lat="43.48203" lon="6.23354">
        <ele>122</ele>
        <time>2022-04-15T12:38:50Z</time>
      </trkpt>
      <trkpt lat="43.48203" lon="6.23352">
        <ele>122</ele>
        <time>2022-04-15T12:38:51Z</time>
      </trkpt>
      <trkpt lat="43.48204" lon="6.23351">
        <ele>123</ele>
        <time>2022-04-15T12:38:52Z</time>
      </trkpt>
      <trkpt lat="43.48204" lon="6.2335">
        <ele>123</ele>
        <time>2022-04-15T12:38:53Z</time>
      </trkpt>
      <trkpt lat="43.48205" lon="6.2335">
        <ele>123</ele>
        <time>2022-04-15T12:38:54Z</time>
      </trkpt>
      <trkpt lat="43.48205" lon="6.23349">
        <ele>123</ele>
        <time>2022-04-15T12:38:55Z</time>
      </trkpt>
      <trkpt lat="43.48205" lon="6.23348">
        <ele>123</ele>
        <time>2022-04-15T12:38:56Z</time>
      </trkpt>
      <trkpt lat="43.48206" lon="6.23348">
        <ele>123</ele>
        <time>2022-04-15T12:38:57Z</time>
      </trkpt>
      <trkpt lat="43.48206" lon="6.23347">
        <ele>123</ele>
        <time>2022-04-15T12:38:58Z</time>
      </trkpt>
      <trkpt lat="43.48207" lon="6.23347">
        <ele>123</ele>
        <time>2022-04-15T12:38:59Z</time>
      </trkpt>
      <trkpt lat="43.48207" lon="6.23346">
        <ele>123</ele>
        <time>2022-04-15T12:39:00Z</time>
      </trkpt>
      <trkpt lat="43.48208" lon="6.23346">
        <ele>123</ele>
        <time>2022-04-15T12:39:01Z</time>
      </trkpt>
      <trkpt lat="43.48209" lon="6.23345">
        <ele>123</ele>
        <time>2022-04-15T12:39:02Z</time>
      </trkpt>
      <trkpt lat="43.4821" lon="6.23345">
        <ele>123</ele>
        <time>2022-04-15T12:39:03Z</time>
      </trkpt>
      <trkpt lat="43.48212" lon="6.23343">
        <ele>123</ele>
        <time>2022-04-15T12:39:04Z</time>
      </trkpt>
      <trkpt lat="43.48213" lon="6.23342">
        <ele>123</ele>
        <time>2022-04-15T12:39:05Z</time>
      </trkpt>
      <trkpt lat="43.48214" lon="6.23342">
        <ele>122</ele>
        <time>2022-04-15T12:39:06Z</time>
      </trkpt>
      <trkpt lat="43.48214" lon="6.23341">
        <ele>122</ele>
        <time>2022-04-15T12:39:07Z</time>
      </trkpt>
      <trkpt lat="43.48214" lon="6.23341">
        <ele>122</ele>
        <time>2022-04-15T12:39:08Z</time>
      </trkpt>
      <trkpt lat="43.48215" lon="6.23341">
        <ele>122</ele>
        <time>2022-04-15T12:39:09Z</time>
      </trkpt>
      <trkpt lat="43.48215" lon="6.23341">
        <ele>122</ele>
        <time>2022-04-15T12:39:10Z</time>
      </trkpt>
      <trkpt lat="43.48215" lon="6.2334">
        <ele>122</ele>
        <time>2022-04-15T12:39:11Z</time>
      </trkpt>
      <trkpt lat="43.48215" lon="6.2334">
        <ele>122</ele>
        <time>2022-04-15T12:39:12Z</time>
      </trkpt>
      <trkpt lat="43.48215" lon="6.2334">
        <ele>122</ele>
        <time>2022-04-15T12:39:13Z</time>
      </trkpt>
      <trkpt lat="43.48215" lon="6.2334">
        <ele>122</ele>
        <time>2022-04-15T12:39:14Z</time>
      </trkpt>
      <trkpt lat="43.48215" lon="6.2334">
        <ele>122</ele>
        <time>2022-04-15T12:39:15Z</time>
      </trkpt>
      <trkpt lat="43.48216" lon="6.2334">
        <ele>122</ele>
        <time>2022-04-15T12:39:16Z</time>
      </trkpt>
      <trkpt lat="43.48216" lon="6.23339">
        <ele>122</ele>
        <time>2022-04-15T12:39:17Z</time>
      </trkpt>
      <trkpt lat="43.48217" lon="6.23339">
        <ele>122</ele>
        <time>2022-04-15T12:39:18Z</time>
      </trkpt>
      <trkpt lat="43.48218" lon="6.23338">
        <ele>122</ele>
        <time>2022-04-15T12:39:19Z</time>
      </trkpt>
      <trkpt lat="43.48219" lon="6.23337">
        <ele>122</ele>
        <time>2022-04-15T12:39:20Z</time>
      </trkpt>
      <trkpt lat="43.48219" lon="6.23337">
        <ele>123</ele>
        <time>2022-04-15T12:39:21Z</time>
      </trkpt>
      <trkpt lat="43.48219" lon="6.23336">
        <ele>123</ele>
        <time>2022-04-15T12:39:22Z</time>
      </trkpt>
      <trkpt lat="43.4822" lon="6.23336">
        <ele>123</ele>
        <time>2022-04-15T12:39:23Z</time>
      </trkpt>
      <trkpt lat="43.48221" lon="6.23335">
        <ele>123</ele>
        <time>2022-04-15T12:39:24Z</time>
      </trkpt>
      <trkpt lat="43.48222" lon="6.23335">
        <ele>123</ele>
        <time>2022-04-15T12:39:25Z</time>
      </trkpt>
      <trkpt lat="43.48223" lon="6.23334">
        <ele>123</ele>
        <time>2022-04-15T12:39:26Z</time>
      </trkpt>
      <trkpt lat="43.48223" lon="6.23334">
        <ele>123</ele>
        <time>2022-04-15T12:39:27Z</time>
      </trkpt>
      <trkpt lat="43.48224" lon="6.23333">
        <ele>123</ele>
        <time>2022-04-15T12:39:28Z</time>
      </trkpt>
      <trkpt lat="43.48224" lon="6.23333">
        <ele>123</ele>
        <time>2022-04-15T12:39:29Z</time>
      </trkpt>
      <trkpt lat="43.48224" lon="6.23333">
        <ele>123</ele>
        <time>2022-04-15T12:39:30Z</time>
      </trkpt>
      <trkpt lat="43.48224" lon="6.23332">
        <ele>123</ele>
        <time>2022-04-15T12:39:31Z</time>
      </trkpt>
      <trkpt lat="43.48225" lon="6.23332">
        <ele>123</ele>
        <time>2022-04-15T12:39:32Z</time>
      </trkpt>
      <trkpt lat="43.48225" lon="6.23332">
        <ele>123</ele>
        <time>2022-04-15T12:39:33Z</time>
      </trkpt>
      <trkpt lat="43.48225" lon="6.23332">
        <ele>123</ele>
        <time>2022-04-15T12:39:34Z</time>
      </trkpt>
      <trkpt lat="43.48225" lon="6.23332">
        <ele>123</ele>
        <time>2022-04-15T12:39:35Z</time>
      </trkpt>
      <trkpt lat="43.48225" lon="6.23332">
        <ele>123</ele>
        <time>2022-04-15T12:39:36Z</time>
      </trkpt>
      <trkpt lat="43.48225" lon="6.23332">
        <ele>123</ele>
        <time>2022-04-15T12:39:37Z</time>
      </trkpt>
      <trkpt lat="43.48225" lon="6.23332">
        <ele>123</ele>
        <time>2022-04-15T12:39:38Z</time>
      </trkpt>
      <trkpt lat="43.48225" lon="6.23332">
        <ele>123</ele>
        <time>2022-04-15T12:39:39Z</time>
      </trkpt>
      <trkpt lat="43.48225" lon="6.23332">
        <ele>123</ele>
        <time>2022-04-15T12:39:40Z</time>
      </trkpt>
      <trkpt lat="43.48226" lon="6.23331">
        <ele>123</ele>
        <time>2022-04-15T12:39:41Z</time>
      </trkpt>
      <trkpt lat="43.48226" lon="6.2333">
        <ele>123</ele>
        <time>2022-04-15T12:39:42Z</time>
      </trkpt>
      <trkpt lat="43.48226" lon="6.2333">
        <ele>123</ele>
        <time>2022-04-15T12:39:43Z</time>
      </trkpt>
      <trkpt lat="43.48227" lon="6.2333">
        <ele>123</ele>
        <time>2022-04-15T12:39:44Z</time>
      </trkpt>
      <trkpt lat="43.48227" lon="6.23329">
        <ele>123</ele>
        <time>2022-04-15T12:39:45Z</time>
      </trkpt>
      <trkpt lat="43.48227" lon="6.23329">
        <ele>123</ele>
        <time>2022-04-15T12:39:46Z</time>
      </trkpt>
      <trkpt lat="43.48228" lon="6.23329">
        <ele>123</ele>
        <time>2022-04-15T12:39:47Z</time>
      </trkpt>
      <trkpt lat="43.48228" lon="6.23329">
        <ele>123</ele>
        <time>2022-04-15T12:39:48Z</time>
      </trkpt>
      <trkpt lat="43.48228" lon="6.23328">
        <ele>123</ele>
        <time>2022-04-15T12:39:49Z</time>
      </trkpt>
      <trkpt lat="43.48228" lon="6.23328">
        <ele>123</ele>
        <time>2022-04-15T12:39:50Z</time>
      </trkpt>
      <trkpt lat="43.48229" lon="6.23328">
        <ele>123</ele>
        <time>2022-04-15T12:39:51Z</time>
      </trkpt>
      <trkpt lat="43.48229" lon="6.23328">
        <ele>123</ele>
        <time>2022-04-15T12:39:52Z</time>
      </trkpt>
      <trkpt lat="43.48229" lon="6.23328">
        <ele>123</ele>
        <time>2022-04-15T12:39:53Z</time>
      </trkpt>
      <trkpt lat="43.48229" lon="6.23328">
        <ele>123</ele>
        <time>2022-04-15T12:39:54Z</time>
      </trkpt>
      <trkpt lat="43.48229" lon="6.23327">
        <ele>123</ele>
        <time>2022-04-15T12:39:55Z</time>
      </trkpt>
      <trkpt lat="43.48229" lon="6.23327">
        <ele>123</ele>
        <time>2022-04-15T12:39:56Z</time>
      </trkpt>
      <trkpt lat="43.48229" lon="6.23327">
        <ele>123</ele>
        <time>2022-04-15T12:39:57Z</time>
      </trkpt>
      <trkpt lat="43.4823" lon="6.23327">
        <ele>123</ele>
        <time>2022-04-15T12:39:58Z</time>
      </trkpt>
      <trkpt lat="43.4823" lon="6.23327">
        <ele>123</ele>
        <time>2022-04-15T12:39:59Z</time>
      </trkpt>
      <trkpt lat="43.4823" lon="6.23327">
        <ele>123</ele>
        <time>2022-04-15T12:40:00Z</time>
      </trkpt>
      <trkpt lat="43.48231" lon="6.23327">
        <ele>123</ele>
        <time>2022-04-15T12:40:01Z</time>
      </trkpt>
      <trkpt lat="43.48232" lon="6.23327">
        <ele>123</ele>
        <time>2022-04-15T12:40:02Z</time>
      </trkpt>
      <trkpt lat="43.48233" lon="6.23327">
        <ele>123</ele>
        <time>2022-04-15T12:40:03Z</time>
      </trkpt>
      <trkpt lat="43.48234" lon="6.23327">
        <ele>124</ele>
        <time>2022-04-15T12:40:04Z</time>
      </trkpt>
      <trkpt lat="43.48235" lon="6.23327">
        <ele>124</ele>
        <time>2022-04-15T12:40:05Z</time>
      </trkpt>
      <trkpt lat="43.48236" lon="6.23326">
        <ele>124</ele>
        <time>2022-04-15T12:40:06Z</time>
      </trkpt>
      <trkpt lat="43.48237" lon="6.23326">
        <ele>124</ele>
        <time>2022-04-15T12:40:07Z</time>
      </trkpt>
      <trkpt lat="43.48237" lon="6.23326">
        <ele>124</ele>
        <time>2022-04-15T12:40:08Z</time>
      </trkpt>
      <trkpt lat="43.48238" lon="6.23326">
        <ele>124</ele>
        <time>2022-04-15T12:40:09Z</time>
      </trkpt>
      <trkpt lat="43.48238" lon="6.23325">
        <ele>124</ele>
        <time>2022-04-15T12:40:10Z</time>
      </trkpt>
      <trkpt lat="43.48239" lon="6.23325">
        <ele>124</ele>
        <time>2022-04-15T12:40:11Z</time>
      </trkpt>
      <trkpt lat="43.48239" lon="6.23325">
        <ele>124</ele>
        <time>2022-04-15T12:40:12Z</time>
      </trkpt>
      <trkpt lat="43.48239" lon="6.23325">
        <ele>124</ele>
        <time>2022-04-15T12:40:13Z</time>
      </trkpt>
      <trkpt lat="43.4824" lon="6.23325">
        <ele>124</ele>
        <time>2022-04-15T12:40:14Z</time>
      </trkpt>
      <trkpt lat="43.4824" lon="6.23325">
        <ele>124</ele>
        <time>2022-04-15T12:40:15Z</time>
      </trkpt>
      <trkpt lat="43.4824" lon="6.23325">
        <ele>124</ele>
        <time>2022-04-15T12:40:16Z</time>
      </trkpt>
      <trkpt lat="43.4824" lon="6.23325">
        <ele>124</ele>
        <time>2022-04-15T12:40:17Z</time>
      </trkpt>
      <trkpt lat="43.4824" lon="6.23325">
        <ele>124</ele>
        <time>2022-04-15T12:40:18Z</time>
      </trkpt>
      <trkpt lat="43.4824" lon="6.23325">
        <ele>124</ele>
        <time>2022-04-15T12:40:19Z</time>
      </trkpt>
      <trkpt lat="43.4824" lon="6.23325">
        <ele>124</ele>
        <time>2022-04-15T12:40:20Z</time>
      </trkpt>
      <trkpt lat="43.4824" lon="6.23325">
        <ele>124</ele>
        <time>2022-04-15T12:40:21Z</time>
      </trkpt>
      <trkpt lat="43.4824" lon="6.23324">
        <ele>124</ele>
        <time>2022-04-15T12:40:22Z</time>
      </trkpt>
      <trkpt lat="43.4824" lon="6.23324">
        <ele>124</ele>
        <time>2022-04-15T12:40:23Z</time>
      </trkpt>
      <trkpt lat="43.4824" lon="6.23324">
        <ele>124</ele>
        <time>2022-04-15T12:40:24Z</time>
      </trkpt>
      <trkpt lat="43.4824" lon="6.23324">
        <ele>124</ele>
        <time>2022-04-15T12:40:25Z</time>
      </trkpt>
      <trkpt lat="43.4824" lon="6.23324">
        <ele>124</ele>
        <time>2022-04-15T12:40:26Z</time>
      </trkpt>
      <trkpt lat="43.4824" lon="6.23324">
        <ele>124</ele>
        <time>2022-04-15T12:40:27Z</time>
      </trkpt>
      <trkpt lat="43.48241" lon="6.23323">
        <ele>124</ele>
        <time>2022-04-15T12:40:28Z</time>
      </trkpt>
      <trkpt lat="43.48241" lon="6.23323">
        <ele>124</ele>
        <time>2022-04-15T12:40:29Z</time>
      </trkpt>
      <trkpt lat="43.48242" lon="6.23323">
        <ele>124</ele>
        <time>2022-04-15T12:40:30Z</time>
      </trkpt>
      <trkpt lat="43.48242" lon="6.23322">
        <ele>124</ele>
        <time>2022-04-15T12:40:31Z</time>
      </trkpt>
      <trkpt lat="43.48244" lon="6.23322">
        <ele>124</ele>
        <time>2022-04-15T12:40:32Z</time>
      </trkpt>
      <trkpt lat="43.48246" lon="6.23321">
        <ele>124</ele>
        <time>2022-04-15T12:40:33Z</time>
      </trkpt>
      <trkpt lat="43.48248" lon="6.2332">
        <ele>124</ele>
        <time>2022-04-15T12:40:34Z</time>
      </trkpt>
      <trkpt lat="43.48249" lon="6.2332">
        <ele>124</ele>
        <time>2022-04-15T12:40:35Z</time>
      </trkpt>
      <trkpt lat="43.48251" lon="6.2332">
        <ele>124</ele>
        <time>2022-04-15T12:40:36Z</time>
      </trkpt>
      <trkpt lat="43.48251" lon="6.2332">
        <ele>124</ele>
        <time>2022-04-15T12:40:37Z</time>
      </trkpt>
      <trkpt lat="43.48252" lon="6.23319">
        <ele>124</ele>
        <time>2022-04-15T12:40:38Z</time>
      </trkpt>
      <trkpt lat="43.48253" lon="6.23319">
        <ele>123</ele>
        <time>2022-04-15T12:40:39Z</time>
      </trkpt>
      <trkpt lat="43.48254" lon="6.23319">
        <ele>123</ele>
        <time>2022-04-15T12:40:40Z</time>
      </trkpt>
      <trkpt lat="43.48255" lon="6.23319">
        <ele>123</ele>
        <time>2022-04-15T12:40:41Z</time>
      </trkpt>
      <trkpt lat="43.48257" lon="6.23319">
        <ele>123</ele>
        <time>2022-04-15T12:40:42Z</time>
      </trkpt>
      <trkpt lat="43.48257" lon="6.23319">
        <ele>123</ele>
        <time>2022-04-15T12:40:43Z</time>
      </trkpt>
      <trkpt lat="43.48258" lon="6.23319">
        <ele>123</ele>
        <time>2022-04-15T12:40:44Z</time>
      </trkpt>
      <trkpt lat="43.48259" lon="6.23319">
        <ele>123</ele>
        <time>2022-04-15T12:40:45Z</time>
      </trkpt>
      <trkpt lat="43.48259" lon="6.23318">
        <ele>123</ele>
        <time>2022-04-15T12:40:46Z</time>
      </trkpt>
      <trkpt lat="43.4826" lon="6.23318">
        <ele>123</ele>
        <time>2022-04-15T12:40:47Z</time>
      </trkpt>
      <trkpt lat="43.48261" lon="6.23317">
        <ele>124</ele>
        <time>2022-04-15T12:40:48Z</time>
      </trkpt>
      <trkpt lat="43.48261" lon="6.23317">
        <ele>124</ele>
        <time>2022-04-15T12:40:49Z</time>
      </trkpt>
      <trkpt lat="43.48262" lon="6.23317">
        <ele>124</ele>
        <time>2022-04-15T12:40:50Z</time>
      </trkpt>
      <trkpt lat="43.48263" lon="6.23316">
        <ele>124</ele>
        <time>2022-04-15T12:40:51Z</time>
      </trkpt>
      <trkpt lat="43.48263" lon="6.23316">
        <ele>124</ele>
        <time>2022-04-15T12:40:52Z</time>
      </trkpt>
      <trkpt lat="43.48264" lon="6.23316">
        <ele>124</ele>
        <time>2022-04-15T12:40:53Z</time>
      </trkpt>
      <trkpt lat="43.48265" lon="6.23316">
        <ele>124</ele>
        <time>2022-04-15T12:40:54Z</time>
      </trkpt>
      <trkpt lat="43.48265" lon="6.23316">
        <ele>124</ele>
        <time>2022-04-15T12:40:55Z</time>
      </trkpt>
      <trkpt lat="43.48267" lon="6.23315">
        <ele>124</ele>
        <time>2022-04-15T12:40:56Z</time>
      </trkpt>
      <trkpt lat="43.48269" lon="6.23315">
        <ele>124</ele>
        <time>2022-04-15T12:40:57Z</time>
      </trkpt>
      <trkpt lat="43.48271" lon="6.23315">
        <ele>124</ele>
        <time>2022-04-15T12:40:58Z</time>
      </trkpt>
      <trkpt lat="43.48272" lon="6.23315">
        <ele>124</ele>
        <time>2022-04-15T12:40:59Z</time>
      </trkpt>
      <trkpt lat="43.48273" lon="6.23315">
        <ele>124</ele>
        <time>2022-04-15T12:41:00Z</time>
      </trkpt>
      <trkpt lat="43.48274" lon="6.23315">
        <ele>124</ele>
        <time>2022-04-15T12:41:01Z</time>
      </trkpt>
      <trkpt lat="43.48274" lon="6.23314">
        <ele>124</ele>
        <time>2022-04-15T12:41:02Z</time>
      </trkpt>
      <trkpt lat="43.48275" lon="6.23314">
        <ele>124</ele>
        <time>2022-04-15T12:41:03Z</time>
      </trkpt>
      <trkpt lat="43.48275" lon="6.23314">
        <ele>124</ele>
        <time>2022-04-15T12:41:04Z</time>
      </trkpt>
      <trkpt lat="43.48276" lon="6.23314">
        <ele>124</ele>
        <time>2022-04-15T12:41:05Z</time>
      </trkpt>
      <trkpt lat="43.48277" lon="6.23313">
        <ele>124</ele>
        <time>2022-04-15T12:41:06Z</time>
      </trkpt>
      <trkpt lat="43.48279" lon="6.23313">
        <ele>124</ele>
        <time>2022-04-15T12:41:07Z</time>
      </trkpt>
      <trkpt lat="43.48281" lon="6.23312">
        <ele>124</ele>
        <time>2022-04-15T12:41:08Z</time>
      </trkpt>
      <trkpt lat="43.48282" lon="6.23311">
        <ele>125</ele>
        <time>2022-04-15T12:41:09Z</time>
      </trkpt>
      <trkpt lat="43.48283" lon="6.23311">
        <ele>126</ele>
        <time>2022-04-15T12:41:10Z</time>
      </trkpt>
      <trkpt lat="43.48284" lon="6.23311">
        <ele>126</ele>
        <time>2022-04-15T12:41:11Z</time>
      </trkpt>
      <trkpt lat="43.48285" lon="6.23311">
        <ele>126</ele>
        <time>2022-04-15T12:41:12Z</time>
      </trkpt>
      <trkpt lat="43.48286" lon="6.23311">
        <ele>126</ele>
        <time>2022-04-15T12:41:13Z</time>
      </trkpt>
      <trkpt lat="43.48287" lon="6.23311">
        <ele>126</ele>
        <time>2022-04-15T12:41:14Z</time>
      </trkpt>
      <trkpt lat="43.48288" lon="6.2331">
        <ele>126</ele>
        <time>2022-04-15T12:41:15Z</time>
      </trkpt>
      <trkpt lat="43.48289" lon="6.2331">
        <ele>126</ele>
        <time>2022-04-15T12:41:16Z</time>
      </trkpt>
      <trkpt lat="43.4829" lon="6.2331">
        <ele>126</ele>
        <time>2022-04-15T12:41:17Z</time>
      </trkpt>
      <trkpt lat="43.4829" lon="6.2331">
        <ele>126</ele>
        <time>2022-04-15T12:41:18Z</time>
      </trkpt>
      <trkpt lat="43.48291" lon="6.2331">
        <ele>126</ele>
        <time>2022-04-15T12:41:19Z</time>
      </trkpt>
      <trkpt lat="43.48291" lon="6.2331">
        <ele>126</ele>
        <time>2022-04-15T12:41:20Z</time>
      </trkpt>
      <trkpt lat="43.48292" lon="6.23309">
        <ele>126</ele>
        <time>2022-04-15T12:41:21Z</time>
      </trkpt>
      <trkpt lat="43.48292" lon="6.23309">
        <ele>126</ele>
        <time>2022-04-15T12:41:22Z</time>
      </trkpt>
      <trkpt lat="43.48292" lon="6.23309">
        <ele>126</ele>
        <time>2022-04-15T12:41:23Z</time>
      </trkpt>
      <trkpt lat="43.48292" lon="6.23309">
        <ele>126</ele>
        <time>2022-04-15T12:41:24Z</time>
      </trkpt>
      <trkpt lat="43.48293" lon="6.23309">
        <ele>126</ele>
        <time>2022-04-15T12:41:25Z</time>
      </trkpt>
      <trkpt lat="43.48293" lon="6.23309">
        <ele>126</ele>
        <time>2022-04-15T12:41:26Z</time>
      </trkpt>
      <trkpt lat="43.48293" lon="6.23309">
        <ele>126</ele>
        <time>2022-04-15T12:41:27Z</time>
      </trkpt>
      <trkpt lat="43.48294" lon="6.23309">
        <ele>126</ele>
        <time>2022-04-15T12:41:28Z</time>
      </trkpt>
      <trkpt lat="43.48294" lon="6.23309">
        <ele>126</ele>
        <time>2022-04-15T12:41:29Z</time>
      </trkpt>
      <trkpt lat="43.48295" lon="6.23309">
        <ele>126</ele>
        <time>2022-04-15T12:41:30Z</time>
      </trkpt>
      <trkpt lat="43.48295" lon="6.23309">
        <ele>126</ele>
        <time>2022-04-15T12:41:31Z</time>
      </trkpt>
      <trkpt lat="43.48295" lon="6.23309">
        <ele>126</ele>
        <time>2022-04-15T12:41:32Z</time>
      </trkpt>
      <trkpt lat="43.48296" lon="6.23309">
        <ele>126</ele>
        <time>2022-04-15T12:41:33Z</time>
      </trkpt>
      <trkpt lat="43.48296" lon="6.23309">
        <ele>126</ele>
        <time>2022-04-15T12:41:34Z</time>
      </trkpt>
      <trkpt lat="43.48296" lon="6.23309">
        <ele>126</ele>
        <time>2022-04-15T12:41:35Z</time>
      </trkpt>
      <trkpt lat="43.48296" lon="6.23309">
        <ele>126</ele>
        <time>2022-04-15T12:41:36Z</time>
      </trkpt>
      <trkpt lat="43.48296" lon="6.23309">
        <ele>126</ele>
        <time>2022-04-15T12:41:37Z</time>
      </trkpt>
      <trkpt lat="43.48297" lon="6.23309">
        <ele>126</ele>
        <time>2022-04-15T12:41:38Z</time>
      </trkpt>
      <trkpt lat="43.48297" lon="6.23309">
        <ele>126</ele>
        <time>2022-04-15T12:41:39Z</time>
      </trkpt>
      <trkpt lat="43.48298" lon="6.2331">
        <ele>125</ele>
        <time>2022-04-15T12:41:40Z</time>
      </trkpt>
      <trkpt lat="43.48299" lon="6.2331">
        <ele>125</ele>
        <time>2022-04-15T12:41:41Z</time>
      </trkpt>
      <trkpt lat="43.483" lon="6.23311">
        <ele>125</ele>
        <time>2022-04-15T12:41:42Z</time>
      </trkpt>
      <trkpt lat="43.48301" lon="6.23311">
        <ele>125</ele>
        <time>2022-04-15T12:41:43Z</time>
      </trkpt>
      <trkpt lat="43.48301" lon="6.23311">
        <ele>125</ele>
        <time>2022-04-15T12:41:44Z</time>
      </trkpt>
      <trkpt lat="43.48302" lon="6.23311">
        <ele>125</ele>
        <time>2022-04-15T12:41:45Z</time>
      </trkpt>
      <trkpt lat="43.48302" lon="6.23311">
        <ele>125</ele>
        <time>2022-04-15T12:41:46Z</time>
      </trkpt>
      <trkpt lat="43.48303" lon="6.23311">
        <ele>125</ele>
        <time>2022-04-15T12:41:47Z</time>
      </trkpt>
      <trkpt lat="43.48303" lon="6.23311">
        <ele>125</ele>
        <time>2022-04-15T12:41:48Z</time>
      </trkpt>
      <trkpt lat="43.48304" lon="6.23311">
        <ele>125</ele>
        <time>2022-04-15T12:41:49Z</time>
      </trkpt>
      <trkpt lat="43.48304" lon="6.23311">
        <ele>125</ele>
        <time>2022-04-15T12:41:50Z</time>
      </trkpt>
      <trkpt lat="43.48305" lon="6.23311">
        <ele>125</ele>
        <time>2022-04-15T12:41:51Z</time>
      </trkpt>
      <trkpt lat="43.48306" lon="6.23312">
        <ele>125</ele>
        <time>2022-04-15T12:41:52Z</time>
      </trkpt>
      <trkpt lat="43.48307" lon="6.23313">
        <ele>125</ele>
        <time>2022-04-15T12:41:53Z</time>
      </trkpt>
      <trkpt lat="43.48309" lon="6.23315">
        <ele>125</ele>
        <time>2022-04-15T12:41:54Z</time>
      </trkpt>
      <trkpt lat="43.48311" lon="6.23316">
        <ele>125</ele>
        <time>2022-04-15T12:41:55Z</time>
      </trkpt>
      <trkpt lat="43.48312" lon="6.23317">
        <ele>125</ele>
        <time>2022-04-15T12:41:56Z</time>
      </trkpt>
      <trkpt lat="43.48313" lon="6.23318">
        <ele>125</ele>
        <time>2022-04-15T12:41:57Z</time>
      </trkpt>
      <trkpt lat="43.48313" lon="6.23319">
        <ele>125</ele>
        <time>2022-04-15T12:41:58Z</time>
      </trkpt>
      <trkpt lat="43.48314" lon="6.23321">
        <ele>125</ele>
        <time>2022-04-15T12:41:59Z</time>
      </trkpt>
      <trkpt lat="43.48315" lon="6.23322">
        <ele>125</ele>
        <time>2022-04-15T12:42:00Z</time>
      </trkpt>
      <trkpt lat="43.48316" lon="6.23325">
        <ele>125</ele>
        <time>2022-04-15T12:42:01Z</time>
      </trkpt>
      <trkpt lat="43.48317" lon="6.23327">
        <ele>125</ele>
        <time>2022-04-15T12:42:02Z</time>
      </trkpt>
      <trkpt lat="43.48318" lon="6.23329">
        <ele>125</ele>
        <time>2022-04-15T12:42:03Z</time>
      </trkpt>
      <trkpt lat="43.48318" lon="6.23331">
        <ele>125</ele>
        <time>2022-04-15T12:42:04Z</time>
      </trkpt>
      <trkpt lat="43.48319" lon="6.23333">
        <ele>125</ele>
        <time>2022-04-15T12:42:05Z</time>
      </trkpt>
      <trkpt lat="43.48319" lon="6.23335">
        <ele>125</ele>
        <time>2022-04-15T12:42:06Z</time>
      </trkpt>
      <trkpt lat="43.48319" lon="6.23336">
        <ele>125</ele>
        <time>2022-04-15T12:42:07Z</time>
      </trkpt>
      <trkpt lat="43.4832" lon="6.23338">
        <ele>125</ele>
        <time>2022-04-15T12:42:08Z</time>
      </trkpt>
      <trkpt lat="43.4832" lon="6.23339">
        <ele>125</ele>
        <time>2022-04-15T12:42:09Z</time>
      </trkpt>
      <trkpt lat="43.48321" lon="6.23341">
        <ele>125</ele>
        <time>2022-04-15T12:42:10Z</time>
      </trkpt>
      <trkpt lat="43.48321" lon="6.23342">
        <ele>125</ele>
        <time>2022-04-15T12:42:11Z</time>
      </trkpt>
      <trkpt lat="43.48322" lon="6.23344">
        <ele>125</ele>
        <time>2022-04-15T12:42:12Z</time>
      </trkpt>
      <trkpt lat="43.48322" lon="6.23345">
        <ele>125</ele>
        <time>2022-04-15T12:42:13Z</time>
      </trkpt>
      <trkpt lat="43.48322" lon="6.23347">
        <ele>125</ele>
        <time>2022-04-15T12:42:14Z</time>
      </trkpt>
      <trkpt lat="43.48323" lon="6.23348">
        <ele>125</ele>
        <time>2022-04-15T12:42:15Z</time>
      </trkpt>
      <trkpt lat="43.48323" lon="6.23349">
        <ele>125</ele>
        <time>2022-04-15T12:42:16Z</time>
      </trkpt>
      <trkpt lat="43.48323" lon="6.23351">
        <ele>125</ele>
        <time>2022-04-15T12:42:17Z</time>
      </trkpt>
      <trkpt lat="43.48323" lon="6.23352">
        <ele>125</ele>
        <time>2022-04-15T12:42:18Z</time>
      </trkpt>
      <trkpt lat="43.48324" lon="6.23353">
        <ele>125</ele>
        <time>2022-04-15T12:42:19Z</time>
      </trkpt>
      <trkpt lat="43.48324" lon="6.23354">
        <ele>125</ele>
        <time>2022-04-15T12:42:20Z</time>
      </trkpt>
      <trkpt lat="43.48324" lon="6.23354">
        <ele>125</ele>
        <time>2022-04-15T12:42:21Z</time>
      </trkpt>
      <trkpt lat="43.48324" lon="6.23355">
        <ele>125</ele>
        <time>2022-04-15T12:42:22Z</time>
      </trkpt>
      <trkpt lat="43.48324" lon="6.23355">
        <ele>125</ele>
        <time>2022-04-15T12:42:23Z</time>
      </trkpt>
      <trkpt lat="43.48324" lon="6.23356">
        <ele>125</ele>
        <time>2022-04-15T12:42:24Z</time>
      </trkpt>
      <trkpt lat="43.48324" lon="6.23357">
        <ele>125</ele>
        <time>2022-04-15T12:42:25Z</time>
      </trkpt>
      <trkpt lat="43.48324" lon="6.2336">
        <ele>125</ele>
        <time>2022-04-15T12:42:26Z</time>
      </trkpt>
      <trkpt lat="43.48324" lon="6.23363">
        <ele>125</ele>
        <time>2022-04-15T12:42:27Z</time>
      </trkpt>
      <trkpt lat="43.48325" lon="6.23365">
        <ele>125</ele>
        <time>2022-04-15T12:42:28Z</time>
      </trkpt>
      <trkpt lat="43.48325" lon="6.23366">
        <ele>125</ele>
        <time>2022-04-15T12:42:29Z</time>
      </trkpt>
      <trkpt lat="43.48325" lon="6.23367">
        <ele>125</ele>
        <time>2022-04-15T12:42:30Z</time>
      </trkpt>
      <trkpt lat="43.48325" lon="6.23368">
        <ele>125</ele>
        <time>2022-04-15T12:42:31Z</time>
      </trkpt>
      <trkpt lat="43.48325" lon="6.23369">
        <ele>125</ele>
        <time>2022-04-15T12:42:32Z</time>
      </trkpt>
      <trkpt lat="43.48325" lon="6.2337">
        <ele>125</ele>
        <time>2022-04-15T12:42:33Z</time>
      </trkpt>
      <trkpt lat="43.48325" lon="6.23371">
        <ele>125</ele>
        <time>2022-04-15T12:42:34Z</time>
      </trkpt>
      <trkpt lat="43.48325" lon="6.23373">
        <ele>125</ele>
        <time>2022-04-15T12:42:35Z</time>
      </trkpt>
      <trkpt lat="43.48325" lon="6.23375">
        <ele>125</ele>
        <time>2022-04-15T12:42:36Z</time>
      </trkpt>
      <trkpt lat="43.48325" lon="6.23377">
        <ele>125</ele>
        <time>2022-04-15T12:42:37Z</time>
      </trkpt>
      <trkpt lat="43.48325" lon="6.23378">
        <ele>125</ele>
        <time>2022-04-15T12:42:38Z</time>
      </trkpt>
      <trkpt lat="43.48325" lon="6.23379">
        <ele>125</ele>
        <time>2022-04-15T12:42:39Z</time>
      </trkpt>
      <trkpt lat="43.48325" lon="6.23381">
        <ele>125</ele>
        <time>2022-04-15T12:42:40Z</time>
      </trkpt>
      <trkpt lat="43.48325" lon="6.23382">
        <ele>125</ele>
        <time>2022-04-15T12:42:41Z</time>
      </trkpt>
      <trkpt lat="43.48325" lon="6.23383">
        <ele>125</ele>
        <time>2022-04-15T12:42:42Z</time>
      </trkpt>
      <trkpt lat="43.48325" lon="6.23384">
        <ele>125</ele>
        <time>2022-04-15T12:42:43Z</time>
      </trkpt>
      <trkpt lat="43.48325" lon="6.23385">
        <ele>124</ele>
        <time>2022-04-15T12:42:44Z</time>
      </trkpt>
      <trkpt lat="43.48326" lon="6.23386">
        <ele>124</ele>
        <time>2022-04-15T12:42:45Z</time>
      </trkpt>
      <trkpt lat="43.48326" lon="6.23387">
        <ele>124</ele>
        <time>2022-04-15T12:42:46Z</time>
      </trkpt>
      <trkpt lat="43.48326" lon="6.23388">
        <ele>125</ele>
        <time>2022-04-15T12:42:47Z</time>
      </trkpt>
      <trkpt lat="43.48326" lon="6.23389">
        <ele>125</ele>
        <time>2022-04-15T12:42:48Z</time>
      </trkpt>
      <trkpt lat="43.48326" lon="6.2339">
        <ele>125</ele>
        <time>2022-04-15T12:42:49Z</time>
      </trkpt>
      <trkpt lat="43.48326" lon="6.23391">
        <ele>125</ele>
        <time>2022-04-15T12:42:50Z</time>
      </trkpt>
      <trkpt lat="43.48327" lon="6.23392">
        <ele>125</ele>
        <time>2022-04-15T12:42:51Z</time>
      </trkpt>
      <trkpt lat="43.48327" lon="6.23393">
        <ele>125</ele>
        <time>2022-04-15T12:42:52Z</time>
      </trkpt>
      <trkpt lat="43.48327" lon="6.23396">
        <ele>125</ele>
        <time>2022-04-15T12:42:53Z</time>
      </trkpt>
      <trkpt lat="43.48328" lon="6.23398">
        <ele>125</ele>
        <time>2022-04-15T12:42:54Z</time>
      </trkpt>
      <trkpt lat="43.48328" lon="6.234">
        <ele>126</ele>
        <time>2022-04-15T12:42:55Z</time>
      </trkpt>
      <trkpt lat="43.48329" lon="6.23402">
        <ele>126</ele>
        <time>2022-04-15T12:42:56Z</time>
      </trkpt>
      <trkpt lat="43.48329" lon="6.23404">
        <ele>126</ele>
        <time>2022-04-15T12:42:57Z</time>
      </trkpt>
      <trkpt lat="43.48329" lon="6.23406">
        <ele>126</ele>
        <time>2022-04-15T12:42:58Z</time>
      </trkpt>
      <trkpt lat="43.4833" lon="6.23409">
        <ele>126</ele>
        <time>2022-04-15T12:42:59Z</time>
      </trkpt>
      <trkpt lat="43.4833" lon="6.23411">
        <ele>126</ele>
        <time>2022-04-15T12:43:00Z</time>
      </trkpt>
      <trkpt lat="43.48331" lon="6.23413">
        <ele>126</ele>
        <time>2022-04-15T12:43:01Z</time>
      </trkpt>
      <trkpt lat="43.48331" lon="6.23416">
        <ele>126</ele>
        <time>2022-04-15T12:43:02Z</time>
      </trkpt>
      <trkpt lat="43.48331" lon="6.23418">
        <ele>126</ele>
        <time>2022-04-15T12:43:03Z</time>
      </trkpt>
      <trkpt lat="43.48332" lon="6.23419">
        <ele>126</ele>
        <time>2022-04-15T12:43:04Z</time>
      </trkpt>
      <trkpt lat="43.48332" lon="6.23421">
        <ele>126</ele>
        <time>2022-04-15T12:43:05Z</time>
      </trkpt>
      <trkpt lat="43.48332" lon="6.23423">
        <ele>126</ele>
        <time>2022-04-15T12:43:06Z</time>
      </trkpt>
      <trkpt lat="43.48332" lon="6.23425">
        <ele>126</ele>
        <time>2022-04-15T12:43:07Z</time>
      </trkpt>
      <trkpt lat="43.48333" lon="6.23426">
        <ele>126</ele>
        <time>2022-04-15T12:43:08Z</time>
      </trkpt>
      <trkpt lat="43.48333" lon="6.23428">
        <ele>126</ele>
        <time>2022-04-15T12:43:09Z</time>
      </trkpt>
      <trkpt lat="43.48333" lon="6.23429">
        <ele>126</ele>
        <time>2022-04-15T12:43:10Z</time>
      </trkpt>
      <trkpt lat="43.48333" lon="6.23431">
        <ele>126</ele>
        <time>2022-04-15T12:43:11Z</time>
      </trkpt>
      <trkpt lat="43.48333" lon="6.23432">
        <ele>126</ele>
        <time>2022-04-15T12:43:12Z</time>
      </trkpt>
      <trkpt lat="43.48334" lon="6.23434">
        <ele>126</ele>
        <time>2022-04-15T12:43:13Z</time>
      </trkpt>
      <trkpt lat="43.48334" lon="6.23436">
        <ele>126</ele>
        <time>2022-04-15T12:43:14Z</time>
      </trkpt>
      <trkpt lat="43.48334" lon="6.23438">
        <ele>126</ele>
        <time>2022-04-15T12:43:15Z</time>
      </trkpt>
      <trkpt lat="43.48334" lon="6.2344">
        <ele>126</ele>
        <time>2022-04-15T12:43:16Z</time>
      </trkpt>
      <trkpt lat="43.48334" lon="6.23442">
        <ele>126</ele>
        <time>2022-04-15T12:43:17Z</time>
      </trkpt>
      <trkpt lat="43.48334" lon="6.23444">
        <ele>126</ele>
        <time>2022-04-15T12:43:18Z</time>
      </trkpt>
      <trkpt lat="43.48334" lon="6.23445">
        <ele>126</ele>
        <time>2022-04-15T12:43:19Z</time>
      </trkpt>
      <trkpt lat="43.48334" lon="6.23447">
        <ele>126</ele>
        <time>2022-04-15T12:43:20Z</time>
      </trkpt>
      <trkpt lat="43.48334" lon="6.23448">
        <ele>126</ele>
        <time>2022-04-15T12:43:21Z</time>
      </trkpt>
      <trkpt lat="43.48335" lon="6.2345">
        <ele>126</ele>
        <time>2022-04-15T12:43:22Z</time>
      </trkpt>
      <trkpt lat="43.48335" lon="6.23451">
        <ele>126</ele>
        <time>2022-04-15T12:43:23Z</time>
      </trkpt>
      <trkpt lat="43.48335" lon="6.23453">
        <ele>126</ele>
        <time>2022-04-15T12:43:24Z</time>
      </trkpt>
      <trkpt lat="43.48336" lon="6.23454">
        <ele>125</ele>
        <time>2022-04-15T12:43:25Z</time>
      </trkpt>
      <trkpt lat="43.48336" lon="6.23456">
        <ele>125</ele>
        <time>2022-04-15T12:43:26Z</time>
      </trkpt>
      <trkpt lat="43.48336" lon="6.23457">
        <ele>125</ele>
        <time>2022-04-15T12:43:27Z</time>
      </trkpt>
      <trkpt lat="43.48337" lon="6.23458">
        <ele>125</ele>
        <time>2022-04-15T12:43:28Z</time>
      </trkpt>
      <trkpt lat="43.48337" lon="6.23459">
        <ele>125</ele>
        <time>2022-04-15T12:43:29Z</time>
      </trkpt>
      <trkpt lat="43.48338" lon="6.2346">
        <ele>125</ele>
        <time>2022-04-15T12:43:30Z</time>
      </trkpt>
      <trkpt lat="43.48339" lon="6.23461">
        <ele>125</ele>
        <time>2022-04-15T12:43:31Z</time>
      </trkpt>
      <trkpt lat="43.4834" lon="6.23462">
        <ele>125</ele>
        <time>2022-04-15T12:43:32Z</time>
      </trkpt>
      <trkpt lat="43.4834" lon="6.23463">
        <ele>125</ele>
        <time>2022-04-15T12:43:33Z</time>
      </trkpt>
      <trkpt lat="43.48341" lon="6.23464">
        <ele>125</ele>
        <time>2022-04-15T12:43:34Z</time>
      </trkpt>
      <trkpt lat="43.48342" lon="6.23465">
        <ele>125</ele>
        <time>2022-04-15T12:43:35Z</time>
      </trkpt>
      <trkpt lat="43.48343" lon="6.23466">
        <ele>125</ele>
        <time>2022-04-15T12:43:36Z</time>
      </trkpt>
      <trkpt lat="43.48344" lon="6.23467">
        <ele>125</ele>
        <time>2022-04-15T12:43:37Z</time>
      </trkpt>
      <trkpt lat="43.48345" lon="6.23467">
        <ele>125</ele>
        <time>2022-04-15T12:43:38Z</time>
      </trkpt>
      <trkpt lat="43.48345" lon="6.23468">
        <ele>125</ele>
        <time>2022-04-15T12:43:39Z</time>
      </trkpt>
      <trkpt lat="43.48346" lon="6.23468">
        <ele>125</ele>
        <time>2022-04-15T12:43:40Z</time>
      </trkpt>
      <trkpt lat="43.48347" lon="6.23469">
        <ele>125</ele>
        <time>2022-04-15T12:43:41Z</time>
      </trkpt>
      <trkpt lat="43.48348" lon="6.2347">
        <ele>125</ele>
        <time>2022-04-15T12:43:42Z</time>
      </trkpt>
      <trkpt lat="43.48349" lon="6.2347">
        <ele>125</ele>
        <time>2022-04-15T12:43:43Z</time>
      </trkpt>
      <trkpt lat="43.4835" lon="6.23471">
        <ele>126</ele>
        <time>2022-04-15T12:43:44Z</time>
      </trkpt>
      <trkpt lat="43.48351" lon="6.23472">
        <ele>126</ele>
        <time>2022-04-15T12:43:45Z</time>
      </trkpt>
      <trkpt lat="43.48352" lon="6.23473">
        <ele>126</ele>
        <time>2022-04-15T12:43:46Z</time>
      </trkpt>
      <trkpt lat="43.48353" lon="6.23473">
        <ele>126</ele>
        <time>2022-04-15T12:43:47Z</time>
      </trkpt>
      <trkpt lat="43.48354" lon="6.23474">
        <ele>126</ele>
        <time>2022-04-15T12:43:48Z</time>
      </trkpt>
      <trkpt lat="43.48355" lon="6.23474">
        <ele>126</ele>
        <time>2022-04-15T12:43:49Z</time>
      </trkpt>
      <trkpt lat="43.48356" lon="6.23475">
        <ele>126</ele>
        <time>2022-04-15T12:43:50Z</time>
      </trkpt>
      <trkpt lat="43.48357" lon="6.23476">
        <ele>126</ele>
        <time>2022-04-15T12:43:51Z</time>
      </trkpt>
      <trkpt lat="43.48358" lon="6.23477">
        <ele>126</ele>
        <time>2022-04-15T12:43:52Z</time>
      </trkpt>
      <trkpt lat="43.48358" lon="6.23477">
        <ele>126</ele>
        <time>2022-04-15T12:43:53Z</time>
      </trkpt>
      <trkpt lat="43.48359" lon="6.23478">
        <ele>126</ele>
        <time>2022-04-15T12:43:54Z</time>
      </trkpt>
      <trkpt lat="43.4836" lon="6.23479">
        <ele>126</ele>
        <time>2022-04-15T12:43:55Z</time>
      </trkpt>
      <trkpt lat="43.4836" lon="6.2348">
        <ele>126</ele>
        <time>2022-04-15T12:43:56Z</time>
      </trkpt>
      <trkpt lat="43.48361" lon="6.23481">
        <ele>127</ele>
        <time>2022-04-15T12:43:57Z</time>
      </trkpt>
      <trkpt lat="43.48362" lon="6.23482">
        <ele>127</ele>
        <time>2022-04-15T12:43:58Z</time>
      </trkpt>
      <trkpt lat="43.48363" lon="6.23483">
        <ele>127</ele>
        <time>2022-04-15T12:43:59Z</time>
      </trkpt>
      <trkpt lat="43.48364" lon="6.23484">
        <ele>127</ele>
        <time>2022-04-15T12:44:00Z</time>
      </trkpt>
      <trkpt lat="43.48365" lon="6.23485">
        <ele>127</ele>
        <time>2022-04-15T12:44:01Z</time>
      </trkpt>
      <trkpt lat="43.48366" lon="6.23486">
        <ele>127</ele>
        <time>2022-04-15T12:44:02Z</time>
      </trkpt>
      <trkpt lat="43.48367" lon="6.23487">
        <ele>127</ele>
        <time>2022-04-15T12:44:03Z</time>
      </trkpt>
      <trkpt lat="43.48367" lon="6.23488">
        <ele>127</ele>
        <time>2022-04-15T12:44:04Z</time>
      </trkpt>
      <trkpt lat="43.48368" lon="6.23489">
        <ele>127</ele>
        <time>2022-04-15T12:44:05Z</time>
      </trkpt>
      <trkpt lat="43.48369" lon="6.2349">
        <ele>127</ele>
        <time>2022-04-15T12:44:06Z</time>
      </trkpt>
      <trkpt lat="43.48369" lon="6.23491">
        <ele>126</ele>
        <time>2022-04-15T12:44:07Z</time>
      </trkpt>
      <trkpt lat="43.4837" lon="6.23493">
        <ele>126</ele>
        <time>2022-04-15T12:44:08Z</time>
      </trkpt>
      <trkpt lat="43.48371" lon="6.23494">
        <ele>126</ele>
        <time>2022-04-15T12:44:09Z</time>
      </trkpt>
      <trkpt lat="43.48371" lon="6.23496">
        <ele>126</ele>
        <time>2022-04-15T12:44:10Z</time>
      </trkpt>
      <trkpt lat="43.48371" lon="6.23498">
        <ele>126</ele>
        <time>2022-04-15T12:44:11Z</time>
      </trkpt>
      <trkpt lat="43.48371" lon="6.235">
        <ele>126</ele>
        <time>2022-04-15T12:44:12Z</time>
      </trkpt>
      <trkpt lat="43.48371" lon="6.23502">
        <ele>125</ele>
        <time>2022-04-15T12:44:13Z</time>
      </trkpt>
      <trkpt lat="43.48371" lon="6.23503">
        <ele>125</ele>
        <time>2022-04-15T12:44:14Z</time>
      </trkpt>
      <trkpt lat="43.48371" lon="6.23505">
        <ele>125</ele>
        <time>2022-04-15T12:44:15Z</time>
      </trkpt>
      <trkpt lat="43.48371" lon="6.23507">
        <ele>125</ele>
        <time>2022-04-15T12:44:16Z</time>
      </trkpt>
      <trkpt lat="43.48371" lon="6.23509">
        <ele>124</ele>
        <time>2022-04-15T12:44:17Z</time>
      </trkpt>
      <trkpt lat="43.48371" lon="6.2351">
        <ele>124</ele>
        <time>2022-04-15T12:44:18Z</time>
      </trkpt>
      <trkpt lat="43.4837" lon="6.23512">
        <ele>124</ele>
        <time>2022-04-15T12:44:19Z</time>
      </trkpt>
      <trkpt lat="43.4837" lon="6.23513">
        <ele>124</ele>
        <time>2022-04-15T12:44:20Z</time>
      </trkpt>
      <trkpt lat="43.4837" lon="6.23514">
        <ele>124</ele>
        <time>2022-04-15T12:44:21Z</time>
      </trkpt>
      <trkpt lat="43.4837" lon="6.23516">
        <ele>124</ele>
        <time>2022-04-15T12:44:22Z</time>
      </trkpt>
      <trkpt lat="43.48369" lon="6.23517">
        <ele>124</ele>
        <time>2022-04-15T12:44:23Z</time>
      </trkpt>
      <trkpt lat="43.48369" lon="6.23519">
        <ele>124</ele>
        <time>2022-04-15T12:44:24Z</time>
      </trkpt>
      <trkpt lat="43.48369" lon="6.2352">
        <ele>124</ele>
        <time>2022-04-15T12:44:25Z</time>
      </trkpt>
      <trkpt lat="43.48368" lon="6.23522">
        <ele>124</ele>
        <time>2022-04-15T12:44:26Z</time>
      </trkpt>
      <trkpt lat="43.48368" lon="6.23523">
        <ele>124</ele>
        <time>2022-04-15T12:44:27Z</time>
      </trkpt>
      <trkpt lat="43.48368" lon="6.23524">
        <ele>124</ele>
        <time>2022-04-15T12:44:28Z</time>
      </trkpt>
      <trkpt lat="43.48368" lon="6.23526">
        <ele>124</ele>
        <time>2022-04-15T12:44:29Z</time>
      </trkpt>
      <trkpt lat="43.48367" lon="6.23528">
        <ele>124</ele>
        <time>2022-04-15T12:44:30Z</time>
      </trkpt>
      <trkpt lat="43.48367" lon="6.23529">
        <ele>124</ele>
        <time>2022-04-15T12:44:31Z</time>
      </trkpt>
      <trkpt lat="43.48367" lon="6.23531">
        <ele>124</ele>
        <time>2022-04-15T12:44:32Z</time>
      </trkpt>
      <trkpt lat="43.48367" lon="6.23532">
        <ele>124</ele>
        <time>2022-04-15T12:44:33Z</time>
      </trkpt>
      <trkpt lat="43.48367" lon="6.23534">
        <ele>124</ele>
        <time>2022-04-15T12:44:34Z</time>
      </trkpt>
      <trkpt lat="43.48367" lon="6.23536">
        <ele>124</ele>
        <time>2022-04-15T12:44:35Z</time>
      </trkpt>
      <trkpt lat="43.48367" lon="6.23537">
        <ele>124</ele>
        <time>2022-04-15T12:44:36Z</time>
      </trkpt>
      <trkpt lat="43.48366" lon="6.23539">
        <ele>124</ele>
        <time>2022-04-15T12:44:37Z</time>
      </trkpt>
      <trkpt lat="43.48366" lon="6.2354">
        <ele>124</ele>
        <time>2022-04-15T12:44:38Z</time>
      </trkpt>
      <trkpt lat="43.48365" lon="6.23542">
        <ele>124</ele>
        <time>2022-04-15T12:44:39Z</time>
      </trkpt>
      <trkpt lat="43.48365" lon="6.23543">
        <ele>124</ele>
        <time>2022-04-15T12:44:40Z</time>
      </trkpt>
      <trkpt lat="43.48365" lon="6.23544">
        <ele>124</ele>
        <time>2022-04-15T12:44:41Z</time>
      </trkpt>
      <trkpt lat="43.48365" lon="6.23545">
        <ele>124</ele>
        <time>2022-04-15T12:44:42Z</time>
      </trkpt>
      <trkpt lat="43.48364" lon="6.23547">
        <ele>123</ele>
        <time>2022-04-15T12:44:43Z</time>
      </trkpt>
      <trkpt lat="43.48364" lon="6.23548">
        <ele>123</ele>
        <time>2022-04-15T12:44:44Z</time>
      </trkpt>
      <trkpt lat="43.48364" lon="6.2355">
        <ele>123</ele>
        <time>2022-04-15T12:44:45Z</time>
      </trkpt>
      <trkpt lat="43.48364" lon="6.23551">
        <ele>123</ele>
        <time>2022-04-15T12:44:46Z</time>
      </trkpt>
      <trkpt lat="43.48364" lon="6.23553">
        <ele>123</ele>
        <time>2022-04-15T12:44:47Z</time>
      </trkpt>
      <trkpt lat="43.48363" lon="6.23554">
        <ele>123</ele>
        <time>2022-04-15T12:44:48Z</time>
      </trkpt>
      <trkpt lat="43.48363" lon="6.23556">
        <ele>123</ele>
        <time>2022-04-15T12:44:49Z</time>
      </trkpt>
      <trkpt lat="43.48363" lon="6.23557">
        <ele>123</ele>
        <time>2022-04-15T12:44:50Z</time>
      </trkpt>
      <trkpt lat="43.48363" lon="6.23559">
        <ele>123</ele>
        <time>2022-04-15T12:44:51Z</time>
      </trkpt>
      <trkpt lat="43.48362" lon="6.23561">
        <ele>123</ele>
        <time>2022-04-15T12:44:52Z</time>
      </trkpt>
      <trkpt lat="43.48362" lon="6.23562">
        <ele>123</ele>
        <time>2022-04-15T12:44:53Z</time>
      </trkpt>
      <trkpt lat="43.48361" lon="6.23564">
        <ele>123</ele>
        <time>2022-04-15T12:44:54Z</time>
      </trkpt>
      <trkpt lat="43.48361" lon="6.23566">
        <ele>123</ele>
        <time>2022-04-15T12:44:55Z</time>
      </trkpt>
      <trkpt lat="43.48361" lon="6.23568">
        <ele>123</ele>
        <time>2022-04-15T12:44:56Z</time>
      </trkpt>
      <trkpt lat="43.48361" lon="6.23569">
        <ele>122</ele>
        <time>2022-04-15T12:44:57Z</time>
      </trkpt>
      <trkpt lat="43.48361" lon="6.23571">
        <ele>122</ele>
        <time>2022-04-15T12:44:58Z</time>
      </trkpt>
      <trkpt lat="43.48361" lon="6.23572">
        <ele>122</ele>
        <time>2022-04-15T12:44:59Z</time>
      </trkpt>
      <trkpt lat="43.4836" lon="6.23574">
        <ele>122</ele>
        <time>2022-04-15T12:45:00Z</time>
      </trkpt>
      <trkpt lat="43.4836" lon="6.23575">
        <ele>122</ele>
        <time>2022-04-15T12:45:01Z</time>
      </trkpt>
      <trkpt lat="43.4836" lon="6.23576">
        <ele>121</ele>
        <time>2022-04-15T12:45:02Z</time>
      </trkpt>
      <trkpt lat="43.4836" lon="6.23576">
        <ele>121</ele>
        <time>2022-04-15T12:45:03Z</time>
      </trkpt>
      <trkpt lat="43.48359" lon="6.23577">
        <ele>121</ele>
        <time>2022-04-15T12:45:04Z</time>
      </trkpt>
      <trkpt lat="43.48359" lon="6.23578">
        <ele>121</ele>
        <time>2022-04-15T12:45:05Z</time>
      </trkpt>
      <trkpt lat="43.48359" lon="6.23578">
        <ele>121</ele>
        <time>2022-04-15T12:45:06Z</time>
      </trkpt>
      <trkpt lat="43.48358" lon="6.23579">
        <ele>121</ele>
        <time>2022-04-15T12:45:07Z</time>
      </trkpt>
      <trkpt lat="43.48358" lon="6.23579">
        <ele>121</ele>
        <time>2022-04-15T12:45:08Z</time>
      </trkpt>
      <trkpt lat="43.48357" lon="6.2358">
        <ele>121</ele>
        <time>2022-04-15T12:45:09Z</time>
      </trkpt>
      <trkpt lat="43.48357" lon="6.23581">
        <ele>121</ele>
        <time>2022-04-15T12:45:10Z</time>
      </trkpt>
      <trkpt lat="43.48357" lon="6.23582">
        <ele>121</ele>
        <time>2022-04-15T12:45:11Z</time>
      </trkpt>
      <trkpt lat="43.48356" lon="6.23584">
        <ele>121</ele>
        <time>2022-04-15T12:45:12Z</time>
      </trkpt>
      <trkpt lat="43.48356" lon="6.23585">
        <ele>121</ele>
        <time>2022-04-15T12:45:13Z</time>
      </trkpt>
      <trkpt lat="43.48356" lon="6.23586">
        <ele>121</ele>
        <time>2022-04-15T12:45:14Z</time>
      </trkpt>
      <trkpt lat="43.48356" lon="6.23587">
        <ele>121</ele>
        <time>2022-04-15T12:45:15Z</time>
      </trkpt>
      <trkpt lat="43.48356" lon="6.23589">
        <ele>121</ele>
        <time>2022-04-15T12:45:16Z</time>
      </trkpt>
      <trkpt lat="43.48356" lon="6.2359">
        <ele>121</ele>
        <time>2022-04-15T12:45:17Z</time>
      </trkpt>
      <trkpt lat="43.48356" lon="6.23591">
        <ele>121</ele>
        <time>2022-04-15T12:45:18Z</time>
      </trkpt>
      <trkpt lat="43.48355" lon="6.23592">
        <ele>121</ele>
        <time>2022-04-15T12:45:19Z</time>
      </trkpt>
      <trkpt lat="43.48355" lon="6.23593">
        <ele>121</ele>
        <time>2022-04-15T12:45:20Z</time>
      </trkpt>
      <trkpt lat="43.48356" lon="6.23594">
        <ele>121</ele>
        <time>2022-04-15T12:45:21Z</time>
      </trkpt>
      <trkpt lat="43.48355" lon="6.23594">
        <ele>121</ele>
        <time>2022-04-15T12:45:22Z</time>
      </trkpt>
      <trkpt lat="43.48355" lon="6.23595">
        <ele>121</ele>
        <time>2022-04-15T12:45:23Z</time>
      </trkpt>
      <trkpt lat="43.48355" lon="6.23596">
        <ele>121</ele>
        <time>2022-04-15T12:45:24Z</time>
      </trkpt>
      <trkpt lat="43.48355" lon="6.23596">
        <ele>121</ele>
        <time>2022-04-15T12:45:25Z</time>
      </trkpt>
      <trkpt lat="43.48355" lon="6.23597">
        <ele>121</ele>
        <time>2022-04-15T12:45:26Z</time>
      </trkpt>
      <trkpt lat="43.48355" lon="6.23599">
        <ele>122</ele>
        <time>2022-04-15T12:45:27Z</time>
      </trkpt>
      <trkpt lat="43.48355" lon="6.236">
        <ele>122</ele>
        <time>2022-04-15T12:45:28Z</time>
      </trkpt>
      <trkpt lat="43.48355" lon="6.23601">
        <ele>122</ele>
        <time>2022-04-15T12:45:29Z</time>
      </trkpt>
      <trkpt lat="43.48355" lon="6.23602">
        <ele>122</ele>
        <time>2022-04-15T12:45:30Z</time>
      </trkpt>
      <trkpt lat="43.48355" lon="6.23604">
        <ele>122</ele>
        <time>2022-04-15T12:45:31Z</time>
      </trkpt>
      <trkpt lat="43.48354" lon="6.23605">
        <ele>122</ele>
        <time>2022-04-15T12:45:32Z</time>
      </trkpt>
      <trkpt lat="43.48355" lon="6.23606">
        <ele>122</ele>
        <time>2022-04-15T12:45:33Z</time>
      </trkpt>
      <trkpt lat="43.48355" lon="6.23608">
        <ele>122</ele>
        <time>2022-04-15T12:45:34Z</time>
      </trkpt>
      <trkpt lat="43.48355" lon="6.23609">
        <ele>122</ele>
        <time>2022-04-15T12:45:35Z</time>
      </trkpt>
      <trkpt lat="43.48355" lon="6.2361">
        <ele>122</ele>
        <time>2022-04-15T12:45:36Z</time>
      </trkpt>
      <trkpt lat="43.48355" lon="6.23611">
        <ele>122</ele>
        <time>2022-04-15T12:45:37Z</time>
      </trkpt>
      <trkpt lat="43.48355" lon="6.23612">
        <ele>122</ele>
        <time>2022-04-15T12:45:38Z</time>
      </trkpt>
      <trkpt lat="43.48355" lon="6.23614">
        <ele>122</ele>
        <time>2022-04-15T12:45:39Z</time>
      </trkpt>
      <trkpt lat="43.48356" lon="6.23615">
        <ele>122</ele>
        <time>2022-04-15T12:45:40Z</time>
      </trkpt>
      <trkpt lat="43.48356" lon="6.23617">
        <ele>122</ele>
        <time>2022-04-15T12:45:41Z</time>
      </trkpt>
      <trkpt lat="43.48356" lon="6.23618">
        <ele>122</ele>
        <time>2022-04-15T12:45:42Z</time>
      </trkpt>
      <trkpt lat="43.48356" lon="6.2362">
        <ele>122</ele>
        <time>2022-04-15T12:45:43Z</time>
      </trkpt>
      <trkpt lat="43.48357" lon="6.23621">
        <ele>122</ele>
        <time>2022-04-15T12:45:44Z</time>
      </trkpt>
      <trkpt lat="43.48357" lon="6.23623">
        <ele>122</ele>
        <time>2022-04-15T12:45:45Z</time>
      </trkpt>
      <trkpt lat="43.48357" lon="6.23624">
        <ele>122</ele>
        <time>2022-04-15T12:45:46Z</time>
      </trkpt>
      <trkpt lat="43.48357" lon="6.23625">
        <ele>122</ele>
        <time>2022-04-15T12:45:47Z</time>
      </trkpt>
      <trkpt lat="43.48357" lon="6.23626">
        <ele>122</ele>
        <time>2022-04-15T12:45:48Z</time>
      </trkpt>
      <trkpt lat="43.48358" lon="6.23627">
        <ele>122</ele>
        <time>2022-04-15T12:45:49Z</time>
      </trkpt>
      <trkpt lat="43.48358" lon="6.23628">
        <ele>122</ele>
        <time>2022-04-15T12:45:50Z</time>
      </trkpt>
      <trkpt lat="43.48359" lon="6.23629">
        <ele>122</ele>
        <time>2022-04-15T12:45:51Z</time>
      </trkpt>
      <trkpt lat="43.48359" lon="6.2363">
        <ele>122</ele>
        <time>2022-04-15T12:45:52Z</time>
      </trkpt>
      <trkpt lat="43.48359" lon="6.23631">
        <ele>122</ele>
        <time>2022-04-15T12:45:53Z</time>
      </trkpt>
      <trkpt lat="43.48359" lon="6.23632">
        <ele>122</ele>
        <time>2022-04-15T12:45:54Z</time>
      </trkpt>
      <trkpt lat="43.4836" lon="6.23634">
        <ele>123</ele>
        <time>2022-04-15T12:45:55Z</time>
      </trkpt>
      <trkpt lat="43.4836" lon="6.23635">
        <ele>124</ele>
        <time>2022-04-15T12:45:56Z</time>
      </trkpt>
      <trkpt lat="43.4836" lon="6.23636">
        <ele>124</ele>
        <time>2022-04-15T12:45:57Z</time>
      </trkpt>
      <trkpt lat="43.48361" lon="6.23638">
        <ele>124</ele>
        <time>2022-04-15T12:45:58Z</time>
      </trkpt>
      <trkpt lat="43.48362" lon="6.23639">
        <ele>124</ele>
        <time>2022-04-15T12:45:59Z</time>
      </trkpt>
      <trkpt lat="43.48362" lon="6.2364">
        <ele>125</ele>
        <time>2022-04-15T12:46:00Z</time>
      </trkpt>
      <trkpt lat="43.48362" lon="6.23641">
        <ele>125</ele>
        <time>2022-04-15T12:46:01Z</time>
      </trkpt>
      <trkpt lat="43.48363" lon="6.23642">
        <ele>125</ele>
        <time>2022-04-15T12:46:02Z</time>
      </trkpt>
      <trkpt lat="43.48364" lon="6.23642">
        <ele>125</ele>
        <time>2022-04-15T12:46:03Z</time>
      </trkpt>
      <trkpt lat="43.48365" lon="6.23643">
        <ele>125</ele>
        <time>2022-04-15T12:46:04Z</time>
      </trkpt>
      <trkpt lat="43.48365" lon="6.23644">
        <ele>124</ele>
        <time>2022-04-15T12:46:05Z</time>
      </trkpt>
      <trkpt lat="43.48366" lon="6.23645">
        <ele>124</ele>
        <time>2022-04-15T12:46:06Z</time>
      </trkpt>
      <trkpt lat="43.48367" lon="6.23645">
        <ele>124</ele>
        <time>2022-04-15T12:46:07Z</time>
      </trkpt>
      <trkpt lat="43.48368" lon="6.23646">
        <ele>124</ele>
        <time>2022-04-15T12:46:08Z</time>
      </trkpt>
      <trkpt lat="43.48369" lon="6.23647">
        <ele>124</ele>
        <time>2022-04-15T12:46:09Z</time>
      </trkpt>
      <trkpt lat="43.4837" lon="6.23648">
        <ele>124</ele>
        <time>2022-04-15T12:46:10Z</time>
      </trkpt>
      <trkpt lat="43.48371" lon="6.23649">
        <ele>124</ele>
        <time>2022-04-15T12:46:11Z</time>
      </trkpt>
      <trkpt lat="43.48372" lon="6.23649">
        <ele>124</ele>
        <time>2022-04-15T12:46:12Z</time>
      </trkpt>
      <trkpt lat="43.48373" lon="6.23649">
        <ele>124</ele>
        <time>2022-04-15T12:46:13Z</time>
      </trkpt>
      <trkpt lat="43.48374" lon="6.23649">
        <ele>124</ele>
        <time>2022-04-15T12:46:14Z</time>
      </trkpt>
      <trkpt lat="43.48375" lon="6.23649">
        <ele>124</ele>
        <time>2022-04-15T12:46:15Z</time>
      </trkpt>
      <trkpt lat="43.48376" lon="6.23649">
        <ele>124</ele>
        <time>2022-04-15T12:46:16Z</time>
      </trkpt>
      <trkpt lat="43.48377" lon="6.23649">
        <ele>122</ele>
        <time>2022-04-15T12:46:17Z</time>
      </trkpt>
      <trkpt lat="43.48378" lon="6.23649">
        <ele>122</ele>
        <time>2022-04-15T12:46:18Z</time>
      </trkpt>
      <trkpt lat="43.48379" lon="6.23649">
        <ele>121</ele>
        <time>2022-04-15T12:46:19Z</time>
      </trkpt>
      <trkpt lat="43.4838" lon="6.23649">
        <ele>121</ele>
        <time>2022-04-15T12:46:20Z</time>
      </trkpt>
      <trkpt lat="43.48381" lon="6.23649">
        <ele>121</ele>
        <time>2022-04-15T12:46:21Z</time>
      </trkpt>
      <trkpt lat="43.48382" lon="6.23649">
        <ele>121</ele>
        <time>2022-04-15T12:46:22Z</time>
      </trkpt>
      <trkpt lat="43.48383" lon="6.23648">
        <ele>120</ele>
        <time>2022-04-15T12:46:23Z</time>
      </trkpt>
      <trkpt lat="43.48384" lon="6.23648">
        <ele>120</ele>
        <time>2022-04-15T12:46:24Z</time>
      </trkpt>
      <trkpt lat="43.48385" lon="6.23647">
        <ele>120</ele>
        <time>2022-04-15T12:46:25Z</time>
      </trkpt>
      <trkpt lat="43.48386" lon="6.23646">
        <ele>120</ele>
        <time>2022-04-15T12:46:26Z</time>
      </trkpt>
      <trkpt lat="43.48387" lon="6.23646">
        <ele>120</ele>
        <time>2022-04-15T12:46:27Z</time>
      </trkpt>
      <trkpt lat="43.48388" lon="6.23645">
        <ele>119</ele>
        <time>2022-04-15T12:46:28Z</time>
      </trkpt>
      <trkpt lat="43.48389" lon="6.23644">
        <ele>119</ele>
        <time>2022-04-15T12:46:29Z</time>
      </trkpt>
      <trkpt lat="43.48389" lon="6.23643">
        <ele>119</ele>
        <time>2022-04-15T12:46:30Z</time>
      </trkpt>
      <trkpt lat="43.4839" lon="6.23643">
        <ele>119</ele>
        <time>2022-04-15T12:46:31Z</time>
      </trkpt>
      <trkpt lat="43.48391" lon="6.23642">
        <ele>119</ele>
        <time>2022-04-15T12:46:32Z</time>
      </trkpt>
      <trkpt lat="43.48392" lon="6.23642">
        <ele>119</ele>
        <time>2022-04-15T12:46:33Z</time>
      </trkpt>
      <trkpt lat="43.48392" lon="6.23642">
        <ele>119</ele>
        <time>2022-04-15T12:46:34Z</time>
      </trkpt>
      <trkpt lat="43.48393" lon="6.23641">
        <ele>119</ele>
        <time>2022-04-15T12:46:35Z</time>
      </trkpt>
      <trkpt lat="43.48394" lon="6.23642">
        <ele>119</ele>
        <time>2022-04-15T12:46:36Z</time>
      </trkpt>
      <trkpt lat="43.48394" lon="6.23642">
        <ele>119</ele>
        <time>2022-04-15T12:46:37Z</time>
      </trkpt>
      <trkpt lat="43.48395" lon="6.23642">
        <ele>120</ele>
        <time>2022-04-15T12:46:38Z</time>
      </trkpt>
      <trkpt lat="43.48396" lon="6.23642">
        <ele>120</ele>
        <time>2022-04-15T12:46:39Z</time>
      </trkpt>
      <trkpt lat="43.48397" lon="6.23643">
        <ele>120</ele>
        <time>2022-04-15T12:46:40Z</time>
      </trkpt>
      <trkpt lat="43.48397" lon="6.23643">
        <ele>120</ele>
        <time>2022-04-15T12:46:41Z</time>
      </trkpt>
      <trkpt lat="43.48398" lon="6.23643">
        <ele>120</ele>
        <time>2022-04-15T12:46:42Z</time>
      </trkpt>
      <trkpt lat="43.48399" lon="6.23643">
        <ele>120</ele>
        <time>2022-04-15T12:46:43Z</time>
      </trkpt>
      <trkpt lat="43.484" lon="6.23643">
        <ele>120</ele>
        <time>2022-04-15T12:46:44Z</time>
      </trkpt>
      <trkpt lat="43.48402" lon="6.23644">
        <ele>120</ele>
        <time>2022-04-15T12:46:45Z</time>
      </trkpt>
      <trkpt lat="43.48403" lon="6.23644">
        <ele>120</ele>
        <time>2022-04-15T12:46:46Z</time>
      </trkpt>
      <trkpt lat="43.48404" lon="6.23645">
        <ele>121</ele>
        <time>2022-04-15T12:46:47Z</time>
      </trkpt>
      <trkpt lat="43.48405" lon="6.23646">
        <ele>121</ele>
        <time>2022-04-15T12:46:48Z</time>
      </trkpt>
      <trkpt lat="43.48407" lon="6.23647">
        <ele>121</ele>
        <time>2022-04-15T12:46:49Z</time>
      </trkpt>
      <trkpt lat="43.48408" lon="6.23647">
        <ele>120</ele>
        <time>2022-04-15T12:46:50Z</time>
      </trkpt>
      <trkpt lat="43.48408" lon="6.23648">
        <ele>120</ele>
        <time>2022-04-15T12:46:51Z</time>
      </trkpt>
      <trkpt lat="43.48409" lon="6.23649">
        <ele>120</ele>
        <time>2022-04-15T12:46:52Z</time>
      </trkpt>
      <trkpt lat="43.48409" lon="6.2365">
        <ele>121</ele>
        <time>2022-04-15T12:46:53Z</time>
      </trkpt>
      <trkpt lat="43.4841" lon="6.23652">
        <ele>121</ele>
        <time>2022-04-15T12:46:54Z</time>
      </trkpt>
      <trkpt lat="43.48411" lon="6.23653">
        <ele>121</ele>
        <time>2022-04-15T12:46:55Z</time>
      </trkpt>
      <trkpt lat="43.48411" lon="6.23654">
        <ele>121</ele>
        <time>2022-04-15T12:46:56Z</time>
      </trkpt>
      <trkpt lat="43.48412" lon="6.23655">
        <ele>121</ele>
        <time>2022-04-15T12:46:57Z</time>
      </trkpt>
      <trkpt lat="43.48412" lon="6.23657">
        <ele>121</ele>
        <time>2022-04-15T12:46:58Z</time>
      </trkpt>
      <trkpt lat="43.48413" lon="6.23658">
        <ele>121</ele>
        <time>2022-04-15T12:46:59Z</time>
      </trkpt>
      <trkpt lat="43.48414" lon="6.2366">
        <ele>121</ele>
        <time>2022-04-15T12:47:00Z</time>
      </trkpt>
      <trkpt lat="43.48414" lon="6.23661">
        <ele>121</ele>
        <time>2022-04-15T12:47:01Z</time>
      </trkpt>
      <trkpt lat="43.48415" lon="6.23663">
        <ele>121</ele>
        <time>2022-04-15T12:47:02Z</time>
      </trkpt>
      <trkpt lat="43.48415" lon="6.23665">
        <ele>121</ele>
        <time>2022-04-15T12:47:03Z</time>
      </trkpt>
      <trkpt lat="43.48416" lon="6.23666">
        <ele>122</ele>
        <time>2022-04-15T12:47:04Z</time>
      </trkpt>
      <trkpt lat="43.48417" lon="6.23667">
        <ele>122</ele>
        <time>2022-04-15T12:47:05Z</time>
      </trkpt>
      <trkpt lat="43.48417" lon="6.2367">
        <ele>123</ele>
        <time>2022-04-15T12:47:06Z</time>
      </trkpt>
      <trkpt lat="43.48418" lon="6.23672">
        <ele>123</ele>
        <time>2022-04-15T12:47:07Z</time>
      </trkpt>
      <trkpt lat="43.48418" lon="6.23674">
        <ele>123</ele>
        <time>2022-04-15T12:47:08Z</time>
      </trkpt>
      <trkpt lat="43.48419" lon="6.23675">
        <ele>123</ele>
        <time>2022-04-15T12:47:09Z</time>
      </trkpt>
      <trkpt lat="43.48419" lon="6.23676">
        <ele>123</ele>
        <time>2022-04-15T12:47:10Z</time>
      </trkpt>
      <trkpt lat="43.4842" lon="6.23678">
        <ele>123</ele>
        <time>2022-04-15T12:47:11Z</time>
      </trkpt>
      <trkpt lat="43.4842" lon="6.23679">
        <ele>123</ele>
        <time>2022-04-15T12:47:12Z</time>
      </trkpt>
      <trkpt lat="43.48421" lon="6.23681">
        <ele>123</ele>
        <time>2022-04-15T12:47:13Z</time>
      </trkpt>
      <trkpt lat="43.48421" lon="6.23682">
        <ele>123</ele>
        <time>2022-04-15T12:47:14Z</time>
      </trkpt>
      <trkpt lat="43.48421" lon="6.23684">
        <ele>124</ele>
        <time>2022-04-15T12:47:15Z</time>
      </trkpt>
      <trkpt lat="43.48421" lon="6.23685">
        <ele>124</ele>
        <time>2022-04-15T12:47:16Z</time>
      </trkpt>
      <trkpt lat="43.48421" lon="6.23686">
        <ele>124</ele>
        <time>2022-04-15T12:47:17Z</time>
      </trkpt>
      <trkpt lat="43.48422" lon="6.23688">
        <ele>124</ele>
        <time>2022-04-15T12:47:18Z</time>
      </trkpt>
      <trkpt lat="43.48422" lon="6.23689">
        <ele>124</ele>
        <time>2022-04-15T12:47:19Z</time>
      </trkpt>
      <trkpt lat="43.48422" lon="6.23691">
        <ele>126</ele>
        <time>2022-04-15T12:47:20Z</time>
      </trkpt>
      <trkpt lat="43.48422" lon="6.23692">
        <ele>126</ele>
        <time>2022-04-15T12:47:21Z</time>
      </trkpt>
      <trkpt lat="43.48422" lon="6.23693">
        <ele>126</ele>
        <time>2022-04-15T12:47:22Z</time>
      </trkpt>
      <trkpt lat="43.48423" lon="6.23695">
        <ele>126</ele>
        <time>2022-04-15T12:47:23Z</time>
      </trkpt>
      <trkpt lat="43.48423" lon="6.23696">
        <ele>126</ele>
        <time>2022-04-15T12:47:24Z</time>
      </trkpt>
      <trkpt lat="43.48423" lon="6.23698">
        <ele>126</ele>
        <time>2022-04-15T12:47:25Z</time>
      </trkpt>
      <trkpt lat="43.48423" lon="6.237">
        <ele>126</ele>
        <time>2022-04-15T12:47:26Z</time>
      </trkpt>
      <trkpt lat="43.48423" lon="6.23702">
        <ele>127</ele>
        <time>2022-04-15T12:47:27Z</time>
      </trkpt>
      <trkpt lat="43.48424" lon="6.23703">
        <ele>127</ele>
        <time>2022-04-15T12:47:28Z</time>
      </trkpt>
      <trkpt lat="43.48424" lon="6.23705">
        <ele>127</ele>
        <time>2022-04-15T12:47:29Z</time>
      </trkpt>
      <trkpt lat="43.48424" lon="6.23707">
        <ele>127</ele>
        <time>2022-04-15T12:47:30Z</time>
      </trkpt>
      <trkpt lat="43.48424" lon="6.23709">
        <ele>127</ele>
        <time>2022-04-15T12:47:31Z</time>
      </trkpt>
      <trkpt lat="43.48425" lon="6.23711">
        <ele>127</ele>
        <time>2022-04-15T12:47:32Z</time>
      </trkpt>
      <trkpt lat="43.48425" lon="6.23712">
        <ele>127</ele>
        <time>2022-04-15T12:47:33Z</time>
      </trkpt>
      <trkpt lat="43.48425" lon="6.23714">
        <ele>127</ele>
        <time>2022-04-15T12:47:34Z</time>
      </trkpt>
      <trkpt lat="43.48425" lon="6.23715">
        <ele>127</ele>
        <time>2022-04-15T12:47:35Z</time>
      </trkpt>
      <trkpt lat="43.48426" lon="6.23717">
        <ele>127</ele>
        <time>2022-04-15T12:47:36Z</time>
      </trkpt>
      <trkpt lat="43.48426" lon="6.23718">
        <ele>127</ele>
        <time>2022-04-15T12:47:37Z</time>
      </trkpt>
      <trkpt lat="43.48426" lon="6.2372">
        <ele>127</ele>
        <time>2022-04-15T12:47:38Z</time>
      </trkpt>
      <trkpt lat="43.48426" lon="6.23722">
        <ele>127</ele>
        <time>2022-04-15T12:47:39Z</time>
      </trkpt>
      <trkpt lat="43.48427" lon="6.23724">
        <ele>128</ele>
        <time>2022-04-15T12:47:40Z</time>
      </trkpt>
      <trkpt lat="43.48427" lon="6.23726">
        <ele>128</ele>
        <time>2022-04-15T12:47:41Z</time>
      </trkpt>
      <trkpt lat="43.48427" lon="6.23727">
        <ele>128</ele>
        <time>2022-04-15T12:47:42Z</time>
      </trkpt>
      <trkpt lat="43.48427" lon="6.23728">
        <ele>129</ele>
        <time>2022-04-15T12:47:43Z</time>
      </trkpt>
      <trkpt lat="43.48428" lon="6.2373">
        <ele>129</ele>
        <time>2022-04-15T12:47:44Z</time>
      </trkpt>
      <trkpt lat="43.48429" lon="6.23732">
        <ele>129</ele>
        <time>2022-04-15T12:47:45Z</time>
      </trkpt>
      <trkpt lat="43.4843" lon="6.23733">
        <ele>129</ele>
        <time>2022-04-15T12:47:46Z</time>
      </trkpt>
      <trkpt lat="43.48431" lon="6.23734">
        <ele>129</ele>
        <time>2022-04-15T12:47:47Z</time>
      </trkpt>
      <trkpt lat="43.48432" lon="6.23735">
        <ele>130</ele>
        <time>2022-04-15T12:47:48Z</time>
      </trkpt>
      <trkpt lat="43.48432" lon="6.23736">
        <ele>130</ele>
        <time>2022-04-15T12:47:49Z</time>
      </trkpt>
      <trkpt lat="43.48433" lon="6.23737">
        <ele>131</ele>
        <time>2022-04-15T12:47:50Z</time>
      </trkpt>
      <trkpt lat="43.48433" lon="6.23739">
        <ele>131</ele>
        <time>2022-04-15T12:47:51Z</time>
      </trkpt>
      <trkpt lat="43.48433" lon="6.2374">
        <ele>131</ele>
        <time>2022-04-15T12:47:52Z</time>
      </trkpt>
      <trkpt lat="43.48434" lon="6.23741">
        <ele>131</ele>
        <time>2022-04-15T12:47:53Z</time>
      </trkpt>
      <trkpt lat="43.48434" lon="6.23742">
        <ele>131</ele>
        <time>2022-04-15T12:47:54Z</time>
      </trkpt>
      <trkpt lat="43.48435" lon="6.23743">
        <ele>131</ele>
        <time>2022-04-15T12:47:55Z</time>
      </trkpt>
      <trkpt lat="43.48435" lon="6.23745">
        <ele>131</ele>
        <time>2022-04-15T12:47:56Z</time>
      </trkpt>
      <trkpt lat="43.48436" lon="6.23746">
        <ele>130</ele>
        <time>2022-04-15T12:47:57Z</time>
      </trkpt>
      <trkpt lat="43.48436" lon="6.23747">
        <ele>130</ele>
        <time>2022-04-15T12:47:58Z</time>
      </trkpt>
      <trkpt lat="43.48436" lon="6.23748">
        <ele>130</ele>
        <time>2022-04-15T12:47:59Z</time>
      </trkpt>
      <trkpt lat="43.48437" lon="6.2375">
        <ele>130</ele>
        <time>2022-04-15T12:48:00Z</time>
      </trkpt>
      <trkpt lat="43.48437" lon="6.23751">
        <ele>130</ele>
        <time>2022-04-15T12:48:01Z</time>
      </trkpt>
      <trkpt lat="43.48437" lon="6.23752">
        <ele>130</ele>
        <time>2022-04-15T12:48:02Z</time>
      </trkpt>
      <trkpt lat="43.48438" lon="6.23754">
        <ele>130</ele>
        <time>2022-04-15T12:48:03Z</time>
      </trkpt>
      <trkpt lat="43.48438" lon="6.23755">
        <ele>130</ele>
        <time>2022-04-15T12:48:04Z</time>
      </trkpt>
      <trkpt lat="43.48438" lon="6.23756">
        <ele>130</ele>
        <time>2022-04-15T12:48:05Z</time>
      </trkpt>
      <trkpt lat="43.48439" lon="6.23758">
        <ele>130</ele>
        <time>2022-04-15T12:48:06Z</time>
      </trkpt>
      <trkpt lat="43.48439" lon="6.23759">
        <ele>130</ele>
        <time>2022-04-15T12:48:07Z</time>
      </trkpt>
      <trkpt lat="43.48439" lon="6.23761">
        <ele>130</ele>
        <time>2022-04-15T12:48:08Z</time>
      </trkpt>
      <trkpt lat="43.48439" lon="6.23762">
        <ele>130</ele>
        <time>2022-04-15T12:48:09Z</time>
      </trkpt>
      <trkpt lat="43.48439" lon="6.23763">
        <ele>130</ele>
        <time>2022-04-15T12:48:10Z</time>
      </trkpt>
      <trkpt lat="43.48439" lon="6.23764">
        <ele>130</ele>
        <time>2022-04-15T12:48:11Z</time>
      </trkpt>
      <trkpt lat="43.48439" lon="6.23765">
        <ele>130</ele>
        <time>2022-04-15T12:48:12Z</time>
      </trkpt>
      <trkpt lat="43.4844" lon="6.23767">
        <ele>130</ele>
        <time>2022-04-15T12:48:13Z</time>
      </trkpt>
      <trkpt lat="43.4844" lon="6.23768">
        <ele>130</ele>
        <time>2022-04-15T12:48:14Z</time>
      </trkpt>
      <trkpt lat="43.4844" lon="6.2377">
        <ele>130</ele>
        <time>2022-04-15T12:48:15Z</time>
      </trkpt>
      <trkpt lat="43.4844" lon="6.23771">
        <ele>130</ele>
        <time>2022-04-15T12:48:16Z</time>
      </trkpt>
      <trkpt lat="43.48441" lon="6.23773">
        <ele>130</ele>
        <time>2022-04-15T12:48:17Z</time>
      </trkpt>
      <trkpt lat="43.48441" lon="6.23774">
        <ele>130</ele>
        <time>2022-04-15T12:48:18Z</time>
      </trkpt>
      <trkpt lat="43.48441" lon="6.23776">
        <ele>130</ele>
        <time>2022-04-15T12:48:19Z</time>
      </trkpt>
      <trkpt lat="43.48441" lon="6.23778">
        <ele>131</ele>
        <time>2022-04-15T12:48:20Z</time>
      </trkpt>
      <trkpt lat="43.48441" lon="6.23779">
        <ele>131</ele>
        <time>2022-04-15T12:48:21Z</time>
      </trkpt>
      <trkpt lat="43.48441" lon="6.23781">
        <ele>131</ele>
        <time>2022-04-15T12:48:22Z</time>
      </trkpt>
      <trkpt lat="43.48441" lon="6.23783">
        <ele>131</ele>
        <time>2022-04-15T12:48:23Z</time>
      </trkpt>
      <trkpt lat="43.48441" lon="6.23784">
        <ele>131</ele>
        <time>2022-04-15T12:48:24Z</time>
      </trkpt>
      <trkpt lat="43.48441" lon="6.23785">
        <ele>132</ele>
        <time>2022-04-15T12:48:25Z</time>
      </trkpt>
      <trkpt lat="43.48442" lon="6.23786">
        <ele>132</ele>
        <time>2022-04-15T12:48:26Z</time>
      </trkpt>
      <trkpt lat="43.48442" lon="6.23788">
        <ele>132</ele>
        <time>2022-04-15T12:48:27Z</time>
      </trkpt>
      <trkpt lat="43.48442" lon="6.23789">
        <ele>132</ele>
        <time>2022-04-15T12:48:28Z</time>
      </trkpt>
      <trkpt lat="43.48442" lon="6.23791">
        <ele>132</ele>
        <time>2022-04-15T12:48:29Z</time>
      </trkpt>
      <trkpt lat="43.48442" lon="6.23792">
        <ele>132</ele>
        <time>2022-04-15T12:48:30Z</time>
      </trkpt>
      <trkpt lat="43.48442" lon="6.23794">
        <ele>132</ele>
        <time>2022-04-15T12:48:31Z</time>
      </trkpt>
      <trkpt lat="43.48442" lon="6.23795">
        <ele>132</ele>
        <time>2022-04-15T12:48:32Z</time>
      </trkpt>
      <trkpt lat="43.48441" lon="6.23797">
        <ele>132</ele>
        <time>2022-04-15T12:48:33Z</time>
      </trkpt>
      <trkpt lat="43.48441" lon="6.23799">
        <ele>132</ele>
        <time>2022-04-15T12:48:34Z</time>
      </trkpt>
      <trkpt lat="43.48441" lon="6.238">
        <ele>132</ele>
        <time>2022-04-15T12:48:35Z</time>
      </trkpt>
      <trkpt lat="43.48441" lon="6.23802">
        <ele>133</ele>
        <time>2022-04-15T12:48:36Z</time>
      </trkpt>
      <trkpt lat="43.48441" lon="6.23804">
        <ele>133</ele>
        <time>2022-04-15T12:48:37Z</time>
      </trkpt>
      <trkpt lat="43.48441" lon="6.23805">
        <ele>133</ele>
        <time>2022-04-15T12:48:38Z</time>
      </trkpt>
      <trkpt lat="43.48441" lon="6.23807">
        <ele>133</ele>
        <time>2022-04-15T12:48:39Z</time>
      </trkpt>
      <trkpt lat="43.48442" lon="6.23808">
        <ele>133</ele>
        <time>2022-04-15T12:48:40Z</time>
      </trkpt>
      <trkpt lat="43.48442" lon="6.2381">
        <ele>133</ele>
        <time>2022-04-15T12:48:41Z</time>
      </trkpt>
      <trkpt lat="43.48442" lon="6.23812">
        <ele>133</ele>
        <time>2022-04-15T12:48:42Z</time>
      </trkpt>
      <trkpt lat="43.48442" lon="6.23814">
        <ele>133</ele>
        <time>2022-04-15T12:48:43Z</time>
      </trkpt>
      <trkpt lat="43.48442" lon="6.23816">
        <ele>133</ele>
        <time>2022-04-15T12:48:44Z</time>
      </trkpt>
      <trkpt lat="43.48442" lon="6.23817">
        <ele>133</ele>
        <time>2022-04-15T12:48:45Z</time>
      </trkpt>
      <trkpt lat="43.48442" lon="6.23819">
        <ele>133</ele>
        <time>2022-04-15T12:48:46Z</time>
      </trkpt>
      <trkpt lat="43.48442" lon="6.23821">
        <ele>133</ele>
        <time>2022-04-15T12:48:47Z</time>
      </trkpt>
      <trkpt lat="43.48442" lon="6.23823">
        <ele>133</ele>
        <time>2022-04-15T12:48:48Z</time>
      </trkpt>
      <trkpt lat="43.48442" lon="6.23825">
        <ele>133</ele>
        <time>2022-04-15T12:48:49Z</time>
      </trkpt>
      <trkpt lat="43.48442" lon="6.23826">
        <ele>133</ele>
        <time>2022-04-15T12:48:50Z</time>
      </trkpt>
      <trkpt lat="43.48442" lon="6.23828">
        <ele>133</ele>
        <time>2022-04-15T12:48:51Z</time>
      </trkpt>
      <trkpt lat="43.48442" lon="6.23829">
        <ele>134</ele>
        <time>2022-04-15T12:48:52Z</time>
      </trkpt>
      <trkpt lat="43.48443" lon="6.23831">
        <ele>134</ele>
        <time>2022-04-15T12:48:53Z</time>
      </trkpt>
      <trkpt lat="43.48443" lon="6.23833">
        <ele>134</ele>
        <time>2022-04-15T12:48:54Z</time>
      </trkpt>
      <trkpt lat="43.48443" lon="6.23835">
        <ele>134</ele>
        <time>2022-04-15T12:48:55Z</time>
      </trkpt>
      <trkpt lat="43.48443" lon="6.23836">
        <ele>134</ele>
        <time>2022-04-15T12:48:56Z</time>
      </trkpt>
      <trkpt lat="43.48443" lon="6.23838">
        <ele>134</ele>
        <time>2022-04-15T12:48:57Z</time>
      </trkpt>
      <trkpt lat="43.48443" lon="6.2384">
        <ele>135</ele>
        <time>2022-04-15T12:48:58Z</time>
      </trkpt>
      <trkpt lat="43.48444" lon="6.23842">
        <ele>135</ele>
        <time>2022-04-15T12:48:59Z</time>
      </trkpt>
      <trkpt lat="43.48444" lon="6.23843">
        <ele>135</ele>
        <time>2022-04-15T12:49:00Z</time>
      </trkpt>
      <trkpt lat="43.48444" lon="6.23844">
        <ele>135</ele>
        <time>2022-04-15T12:49:01Z</time>
      </trkpt>
      <trkpt lat="43.48445" lon="6.23846">
        <ele>135</ele>
        <time>2022-04-15T12:49:02Z</time>
      </trkpt>
      <trkpt lat="43.48445" lon="6.23847">
        <ele>135</ele>
        <time>2022-04-15T12:49:03Z</time>
      </trkpt>
      <trkpt lat="43.48445" lon="6.23849">
        <ele>135</ele>
        <time>2022-04-15T12:49:04Z</time>
      </trkpt>
      <trkpt lat="43.48446" lon="6.23851">
        <ele>135</ele>
        <time>2022-04-15T12:49:05Z</time>
      </trkpt>
      <trkpt lat="43.48446" lon="6.23853">
        <ele>135</ele>
        <time>2022-04-15T12:49:06Z</time>
      </trkpt>
      <trkpt lat="43.48446" lon="6.23854">
        <ele>135</ele>
        <time>2022-04-15T12:49:07Z</time>
      </trkpt>
      <trkpt lat="43.48447" lon="6.23856">
        <ele>135</ele>
        <time>2022-04-15T12:49:08Z</time>
      </trkpt>
      <trkpt lat="43.48447" lon="6.23857">
        <ele>135</ele>
        <time>2022-04-15T12:49:09Z</time>
      </trkpt>
      <trkpt lat="43.48448" lon="6.23859">
        <ele>135</ele>
        <time>2022-04-15T12:49:10Z</time>
      </trkpt>
      <trkpt lat="43.48448" lon="6.2386">
        <ele>135</ele>
        <time>2022-04-15T12:49:11Z</time>
      </trkpt>
      <trkpt lat="43.48449" lon="6.23862">
        <ele>136</ele>
        <time>2022-04-15T12:49:12Z</time>
      </trkpt>
      <trkpt lat="43.48449" lon="6.23863">
        <ele>136</ele>
        <time>2022-04-15T12:49:13Z</time>
      </trkpt>
      <trkpt lat="43.48449" lon="6.23864">
        <ele>137</ele>
        <time>2022-04-15T12:49:14Z</time>
      </trkpt>
      <trkpt lat="43.4845" lon="6.23865">
        <ele>137</ele>
        <time>2022-04-15T12:49:15Z</time>
      </trkpt>
      <trkpt lat="43.4845" lon="6.23867">
        <ele>137</ele>
        <time>2022-04-15T12:49:16Z</time>
      </trkpt>
      <trkpt lat="43.48451" lon="6.23869">
        <ele>137</ele>
        <time>2022-04-15T12:49:17Z</time>
      </trkpt>
      <trkpt lat="43.48451" lon="6.23871">
        <ele>137</ele>
        <time>2022-04-15T12:49:18Z</time>
      </trkpt>
      <trkpt lat="43.48452" lon="6.23873">
        <ele>137</ele>
        <time>2022-04-15T12:49:19Z</time>
      </trkpt>
      <trkpt lat="43.48453" lon="6.23875">
        <ele>137</ele>
        <time>2022-04-15T12:49:20Z</time>
      </trkpt>
      <trkpt lat="43.48453" lon="6.23877">
        <ele>137</ele>
        <time>2022-04-15T12:49:21Z</time>
      </trkpt>
      <trkpt lat="43.48454" lon="6.23879">
        <ele>137</ele>
        <time>2022-04-15T12:49:22Z</time>
      </trkpt>
      <trkpt lat="43.48454" lon="6.23881">
        <ele>137</ele>
        <time>2022-04-15T12:49:23Z</time>
      </trkpt>
      <trkpt lat="43.48454" lon="6.23883">
        <ele>136</ele>
        <time>2022-04-15T12:49:24Z</time>
      </trkpt>
      <trkpt lat="43.48455" lon="6.23885">
        <ele>136</ele>
        <time>2022-04-15T12:49:25Z</time>
      </trkpt>
      <trkpt lat="43.48455" lon="6.23886">
        <ele>136</ele>
        <time>2022-04-15T12:49:26Z</time>
      </trkpt>
      <trkpt lat="43.48455" lon="6.23887">
        <ele>136</ele>
        <time>2022-04-15T12:49:27Z</time>
      </trkpt>
      <trkpt lat="43.48455" lon="6.23888">
        <ele>136</ele>
        <time>2022-04-15T12:49:28Z</time>
      </trkpt>
      <trkpt lat="43.48455" lon="6.23889">
        <ele>136</ele>
        <time>2022-04-15T12:49:29Z</time>
      </trkpt>
      <trkpt lat="43.48455" lon="6.2389">
        <ele>136</ele>
        <time>2022-04-15T12:49:30Z</time>
      </trkpt>
      <trkpt lat="43.48456" lon="6.23892">
        <ele>135</ele>
        <time>2022-04-15T12:49:31Z</time>
      </trkpt>
      <trkpt lat="43.48456" lon="6.23893">
        <ele>135</ele>
        <time>2022-04-15T12:49:32Z</time>
      </trkpt>
      <trkpt lat="43.48456" lon="6.23894">
        <ele>135</ele>
        <time>2022-04-15T12:49:33Z</time>
      </trkpt>
      <trkpt lat="43.48457" lon="6.23895">
        <ele>135</ele>
        <time>2022-04-15T12:49:34Z</time>
      </trkpt>
      <trkpt lat="43.48457" lon="6.23896">
        <ele>135</ele>
        <time>2022-04-15T12:49:35Z</time>
      </trkpt>
      <trkpt lat="43.48456" lon="6.23897">
        <ele>135</ele>
        <time>2022-04-15T12:49:36Z</time>
      </trkpt>
      <trkpt lat="43.48456" lon="6.23898">
        <ele>134</ele>
        <time>2022-04-15T12:49:37Z</time>
      </trkpt>
      <trkpt lat="43.48456" lon="6.239">
        <ele>134</ele>
        <time>2022-04-15T12:49:38Z</time>
      </trkpt>
      <trkpt lat="43.48457" lon="6.23901">
        <ele>134</ele>
        <time>2022-04-15T12:49:39Z</time>
      </trkpt>
      <trkpt lat="43.48457" lon="6.23903">
        <ele>134</ele>
        <time>2022-04-15T12:49:40Z</time>
      </trkpt>
      <trkpt lat="43.48458" lon="6.23904">
        <ele>134</ele>
        <time>2022-04-15T12:49:41Z</time>
      </trkpt>
      <trkpt lat="43.48459" lon="6.23905">
        <ele>134</ele>
        <time>2022-04-15T12:49:42Z</time>
      </trkpt>
      <trkpt lat="43.48459" lon="6.23906">
        <ele>135</ele>
        <time>2022-04-15T12:49:43Z</time>
      </trkpt>
      <trkpt lat="43.48459" lon="6.23907">
        <ele>135</ele>
        <time>2022-04-15T12:49:44Z</time>
      </trkpt>
      <trkpt lat="43.48459" lon="6.23909">
        <ele>135</ele>
        <time>2022-04-15T12:49:45Z</time>
      </trkpt>
      <trkpt lat="43.48459" lon="6.2391">
        <ele>135</ele>
        <time>2022-04-15T12:49:46Z</time>
      </trkpt>
      <trkpt lat="43.48459" lon="6.23911">
        <ele>135</ele>
        <time>2022-04-15T12:49:47Z</time>
      </trkpt>
      <trkpt lat="43.48459" lon="6.23913">
        <ele>135</ele>
        <time>2022-04-15T12:49:48Z</time>
      </trkpt>
      <trkpt lat="43.4846" lon="6.23915">
        <ele>135</ele>
        <time>2022-04-15T12:49:49Z</time>
      </trkpt>
      <trkpt lat="43.48461" lon="6.23917">
        <ele>135</ele>
        <time>2022-04-15T12:49:50Z</time>
      </trkpt>
      <trkpt lat="43.48461" lon="6.23918">
        <ele>135</ele>
        <time>2022-04-15T12:49:51Z</time>
      </trkpt>
      <trkpt lat="43.48461" lon="6.23919">
        <ele>135</ele>
        <time>2022-04-15T12:49:52Z</time>
      </trkpt>
      <trkpt lat="43.48462" lon="6.2392">
        <ele>135</ele>
        <time>2022-04-15T12:49:53Z</time>
      </trkpt>
      <trkpt lat="43.48462" lon="6.23922">
        <ele>135</ele>
        <time>2022-04-15T12:49:54Z</time>
      </trkpt>
      <trkpt lat="43.48462" lon="6.23923">
        <ele>135</ele>
        <time>2022-04-15T12:49:55Z</time>
      </trkpt>
      <trkpt lat="43.48463" lon="6.23925">
        <ele>135</ele>
        <time>2022-04-15T12:49:56Z</time>
      </trkpt>
      <trkpt lat="43.48463" lon="6.23926">
        <ele>135</ele>
        <time>2022-04-15T12:49:57Z</time>
      </trkpt>
      <trkpt lat="43.48464" lon="6.23928">
        <ele>135</ele>
        <time>2022-04-15T12:49:58Z</time>
      </trkpt>
      <trkpt lat="43.48465" lon="6.23929">
        <ele>135</ele>
        <time>2022-04-15T12:49:59Z</time>
      </trkpt>
      <trkpt lat="43.48465" lon="6.23931">
        <ele>135</ele>
        <time>2022-04-15T12:50:00Z</time>
      </trkpt>
      <trkpt lat="43.48466" lon="6.23932">
        <ele>135</ele>
        <time>2022-04-15T12:50:01Z</time>
      </trkpt>
      <trkpt lat="43.48467" lon="6.23934">
        <ele>135</ele>
        <time>2022-04-15T12:50:02Z</time>
      </trkpt>
      <trkpt lat="43.48468" lon="6.23935">
        <ele>135</ele>
        <time>2022-04-15T12:50:03Z</time>
      </trkpt>
      <trkpt lat="43.48468" lon="6.23936">
        <ele>135</ele>
        <time>2022-04-15T12:50:04Z</time>
      </trkpt>
      <trkpt lat="43.48469" lon="6.23938">
        <ele>135</ele>
        <time>2022-04-15T12:50:05Z</time>
      </trkpt>
      <trkpt lat="43.4847" lon="6.23939">
        <ele>135</ele>
        <time>2022-04-15T12:50:06Z</time>
      </trkpt>
      <trkpt lat="43.48471" lon="6.2394">
        <ele>135</ele>
        <time>2022-04-15T12:50:07Z</time>
      </trkpt>
      <trkpt lat="43.48472" lon="6.23941">
        <ele>134</ele>
        <time>2022-04-15T12:50:08Z</time>
      </trkpt>
      <trkpt lat="43.48472" lon="6.23943">
        <ele>134</ele>
        <time>2022-04-15T12:50:09Z</time>
      </trkpt>
      <trkpt lat="43.48473" lon="6.23943">
        <ele>134</ele>
        <time>2022-04-15T12:50:10Z</time>
      </trkpt>
      <trkpt lat="43.48474" lon="6.23944">
        <ele>134</ele>
        <time>2022-04-15T12:50:11Z</time>
      </trkpt>
      <trkpt lat="43.48475" lon="6.23946">
        <ele>134</ele>
        <time>2022-04-15T12:50:12Z</time>
      </trkpt>
      <trkpt lat="43.48476" lon="6.23947">
        <ele>134</ele>
        <time>2022-04-15T12:50:13Z</time>
      </trkpt>
      <trkpt lat="43.48476" lon="6.23948">
        <ele>134</ele>
        <time>2022-04-15T12:50:14Z</time>
      </trkpt>
      <trkpt lat="43.48477" lon="6.23949">
        <ele>134</ele>
        <time>2022-04-15T12:50:15Z</time>
      </trkpt>
      <trkpt lat="43.48478" lon="6.2395">
        <ele>134</ele>
        <time>2022-04-15T12:50:16Z</time>
      </trkpt>
      <trkpt lat="43.48479" lon="6.23951">
        <ele>133</ele>
        <time>2022-04-15T12:50:17Z</time>
      </trkpt>
      <trkpt lat="43.4848" lon="6.23952">
        <ele>132</ele>
        <time>2022-04-15T12:50:18Z</time>
      </trkpt>
      <trkpt lat="43.48481" lon="6.23954">
        <ele>132</ele>
        <time>2022-04-15T12:50:19Z</time>
      </trkpt>
      <trkpt lat="43.48482" lon="6.23955">
        <ele>132</ele>
        <time>2022-04-15T12:50:20Z</time>
      </trkpt>
      <trkpt lat="43.48482" lon="6.23956">
        <ele>132</ele>
        <time>2022-04-15T12:50:21Z</time>
      </trkpt>
      <trkpt lat="43.48483" lon="6.23957">
        <ele>132</ele>
        <time>2022-04-15T12:50:22Z</time>
      </trkpt>
      <trkpt lat="43.48484" lon="6.23959">
        <ele>132</ele>
        <time>2022-04-15T12:50:23Z</time>
      </trkpt>
      <trkpt lat="43.48484" lon="6.2396">
        <ele>132</ele>
        <time>2022-04-15T12:50:24Z</time>
      </trkpt>
      <trkpt lat="43.48485" lon="6.23961">
        <ele>132</ele>
        <time>2022-04-15T12:50:25Z</time>
      </trkpt>
      <trkpt lat="43.48486" lon="6.23962">
        <ele>132</ele>
        <time>2022-04-15T12:50:26Z</time>
      </trkpt>
      <trkpt lat="43.48486" lon="6.23964">
        <ele>132</ele>
        <time>2022-04-15T12:50:27Z</time>
      </trkpt>
      <trkpt lat="43.48487" lon="6.23965">
        <ele>133</ele>
        <time>2022-04-15T12:50:28Z</time>
      </trkpt>
      <trkpt lat="43.48487" lon="6.23967">
        <ele>133</ele>
        <time>2022-04-15T12:50:29Z</time>
      </trkpt>
      <trkpt lat="43.48488" lon="6.23968">
        <ele>133</ele>
        <time>2022-04-15T12:50:30Z</time>
      </trkpt>
      <trkpt lat="43.48489" lon="6.2397">
        <ele>133</ele>
        <time>2022-04-15T12:50:31Z</time>
      </trkpt>
      <trkpt lat="43.48489" lon="6.23971">
        <ele>133</ele>
        <time>2022-04-15T12:50:32Z</time>
      </trkpt>
      <trkpt lat="43.4849" lon="6.23973">
        <ele>133</ele>
        <time>2022-04-15T12:50:33Z</time>
      </trkpt>
      <trkpt lat="43.4849" lon="6.23974">
        <ele>133</ele>
        <time>2022-04-15T12:50:34Z</time>
      </trkpt>
      <trkpt lat="43.4849" lon="6.23975">
        <ele>133</ele>
        <time>2022-04-15T12:50:35Z</time>
      </trkpt>
      <trkpt lat="43.48491" lon="6.23977">
        <ele>133</ele>
        <time>2022-04-15T12:50:36Z</time>
      </trkpt>
      <trkpt lat="43.48491" lon="6.23978">
        <ele>133</ele>
        <time>2022-04-15T12:50:37Z</time>
      </trkpt>
      <trkpt lat="43.48492" lon="6.2398">
        <ele>133</ele>
        <time>2022-04-15T12:50:38Z</time>
      </trkpt>
      <trkpt lat="43.48492" lon="6.23981">
        <ele>133</ele>
        <time>2022-04-15T12:50:39Z</time>
      </trkpt>
      <trkpt lat="43.48493" lon="6.23983">
        <ele>133</ele>
        <time>2022-04-15T12:50:40Z</time>
      </trkpt>
      <trkpt lat="43.48493" lon="6.23984">
        <ele>133</ele>
        <time>2022-04-15T12:50:41Z</time>
      </trkpt>
      <trkpt lat="43.48494" lon="6.23986">
        <ele>133</ele>
        <time>2022-04-15T12:50:42Z</time>
      </trkpt>
      <trkpt lat="43.48494" lon="6.23987">
        <ele>133</ele>
        <time>2022-04-15T12:50:43Z</time>
      </trkpt>
      <trkpt lat="43.48495" lon="6.23988">
        <ele>133</ele>
        <time>2022-04-15T12:50:44Z</time>
      </trkpt>
      <trkpt lat="43.48495" lon="6.23989">
        <ele>133</ele>
        <time>2022-04-15T12:50:45Z</time>
      </trkpt>
      <trkpt lat="43.48495" lon="6.23991">
        <ele>133</ele>
        <time>2022-04-15T12:50:46Z</time>
      </trkpt>
      <trkpt lat="43.48496" lon="6.23992">
        <ele>133</ele>
        <time>2022-04-15T12:50:47Z</time>
      </trkpt>
      <trkpt lat="43.48496" lon="6.23993">
        <ele>132</ele>
        <time>2022-04-15T12:50:48Z</time>
      </trkpt>
      <trkpt lat="43.48496" lon="6.23995">
        <ele>132</ele>
        <time>2022-04-15T12:50:49Z</time>
      </trkpt>
      <trkpt lat="43.48497" lon="6.23996">
        <ele>132</ele>
        <time>2022-04-15T12:50:50Z</time>
      </trkpt>
      <trkpt lat="43.48497" lon="6.23997">
        <ele>132</ele>
        <time>2022-04-15T12:50:51Z</time>
      </trkpt>
      <trkpt lat="43.48497" lon="6.23998">
        <ele>132</ele>
        <time>2022-04-15T12:50:52Z</time>
      </trkpt>
      <trkpt lat="43.48498" lon="6.24">
        <ele>132</ele>
        <time>2022-04-15T12:50:53Z</time>
      </trkpt>
      <trkpt lat="43.48498" lon="6.24001">
        <ele>132</ele>
        <time>2022-04-15T12:50:54Z</time>
      </trkpt>
      <trkpt lat="43.48498" lon="6.24002">
        <ele>132</ele>
        <time>2022-04-15T12:50:55Z</time>
      </trkpt>
      <trkpt lat="43.48499" lon="6.24004">
        <ele>132</ele>
        <time>2022-04-15T12:50:56Z</time>
      </trkpt>
      <trkpt lat="43.48499" lon="6.24006">
        <ele>132</ele>
        <time>2022-04-15T12:50:57Z</time>
      </trkpt>
      <trkpt lat="43.485" lon="6.24007">
        <ele>132</ele>
        <time>2022-04-15T12:50:58Z</time>
      </trkpt>
      <trkpt lat="43.485" lon="6.24009">
        <ele>132</ele>
        <time>2022-04-15T12:50:59Z</time>
      </trkpt>
      <trkpt lat="43.48501" lon="6.2401">
        <ele>132</ele>
        <time>2022-04-15T12:51:00Z</time>
      </trkpt>
      <trkpt lat="43.48501" lon="6.24012">
        <ele>132</ele>
        <time>2022-04-15T12:51:01Z</time>
      </trkpt>
      <trkpt lat="43.48502" lon="6.24013">
        <ele>132</ele>
        <time>2022-04-15T12:51:02Z</time>
      </trkpt>
      <trkpt lat="43.48502" lon="6.24015">
        <ele>132</ele>
        <time>2022-04-15T12:51:03Z</time>
      </trkpt>
      <trkpt lat="43.48503" lon="6.24016">
        <ele>132</ele>
        <time>2022-04-15T12:51:04Z</time>
      </trkpt>
      <trkpt lat="43.48503" lon="6.24018">
        <ele>132</ele>
        <time>2022-04-15T12:51:05Z</time>
      </trkpt>
      <trkpt lat="43.48504" lon="6.2402">
        <ele>132</ele>
        <time>2022-04-15T12:51:06Z</time>
      </trkpt>
      <trkpt lat="43.48504" lon="6.24021">
        <ele>132</ele>
        <time>2022-04-15T12:51:07Z</time>
      </trkpt>
      <trkpt lat="43.48504" lon="6.24023">
        <ele>132</ele>
        <time>2022-04-15T12:51:08Z</time>
      </trkpt>
      <trkpt lat="43.48505" lon="6.24025">
        <ele>132</ele>
        <time>2022-04-15T12:51:09Z</time>
      </trkpt>
      <trkpt lat="43.48505" lon="6.24026">
        <ele>132</ele>
        <time>2022-04-15T12:51:10Z</time>
      </trkpt>
      <trkpt lat="43.48505" lon="6.24028">
        <ele>132</ele>
        <time>2022-04-15T12:51:11Z</time>
      </trkpt>
      <trkpt lat="43.48506" lon="6.24029">
        <ele>132</ele>
        <time>2022-04-15T12:51:12Z</time>
      </trkpt>
      <trkpt lat="43.48506" lon="6.24031">
        <ele>132</ele>
        <time>2022-04-15T12:51:13Z</time>
      </trkpt>
      <trkpt lat="43.48507" lon="6.24032">
        <ele>132</ele>
        <time>2022-04-15T12:51:14Z</time>
      </trkpt>
      <trkpt lat="43.48507" lon="6.24034">
        <ele>132</ele>
        <time>2022-04-15T12:51:15Z</time>
      </trkpt>
      <trkpt lat="43.48507" lon="6.24035">
        <ele>132</ele>
        <time>2022-04-15T12:51:16Z</time>
      </trkpt>
      <trkpt lat="43.48508" lon="6.24037">
        <ele>132</ele>
        <time>2022-04-15T12:51:17Z</time>
      </trkpt>
      <trkpt lat="43.48508" lon="6.24038">
        <ele>132</ele>
        <time>2022-04-15T12:51:18Z</time>
      </trkpt>
      <trkpt lat="43.48508" lon="6.2404">
        <ele>132</ele>
        <time>2022-04-15T12:51:19Z</time>
      </trkpt>
      <trkpt lat="43.48509" lon="6.24042">
        <ele>132</ele>
        <time>2022-04-15T12:51:20Z</time>
      </trkpt>
      <trkpt lat="43.48509" lon="6.24043">
        <ele>132</ele>
        <time>2022-04-15T12:51:21Z</time>
      </trkpt>
      <trkpt lat="43.4851" lon="6.24045">
        <ele>132</ele>
        <time>2022-04-15T12:51:22Z</time>
      </trkpt>
      <trkpt lat="43.4851" lon="6.24047">
        <ele>132</ele>
        <time>2022-04-15T12:51:23Z</time>
      </trkpt>
      <trkpt lat="43.48511" lon="6.24048">
        <ele>132</ele>
        <time>2022-04-15T12:51:24Z</time>
      </trkpt>
      <trkpt lat="43.48512" lon="6.2405">
        <ele>132</ele>
        <time>2022-04-15T12:51:25Z</time>
      </trkpt>
      <trkpt lat="43.48512" lon="6.24052">
        <ele>132</ele>
        <time>2022-04-15T12:51:26Z</time>
      </trkpt>
      <trkpt lat="43.48513" lon="6.24053">
        <ele>132</ele>
        <time>2022-04-15T12:51:27Z</time>
      </trkpt>
      <trkpt lat="43.48514" lon="6.24055">
        <ele>133</ele>
        <time>2022-04-15T12:51:28Z</time>
      </trkpt>
      <trkpt lat="43.48515" lon="6.24057">
        <ele>133</ele>
        <time>2022-04-15T12:51:29Z</time>
      </trkpt>
      <trkpt lat="43.48515" lon="6.24058">
        <ele>133</ele>
        <time>2022-04-15T12:51:30Z</time>
      </trkpt>
      <trkpt lat="43.48516" lon="6.2406">
        <ele>133</ele>
        <time>2022-04-15T12:51:31Z</time>
      </trkpt>
      <trkpt lat="43.48517" lon="6.24061">
        <ele>133</ele>
        <time>2022-04-15T12:51:32Z</time>
      </trkpt>
      <trkpt lat="43.48517" lon="6.24063">
        <ele>133</ele>
        <time>2022-04-15T12:51:33Z</time>
      </trkpt>
      <trkpt lat="43.48518" lon="6.24065">
        <ele>133</ele>
        <time>2022-04-15T12:51:34Z</time>
      </trkpt>
      <trkpt lat="43.48518" lon="6.24066">
        <ele>133</ele>
        <time>2022-04-15T12:51:35Z</time>
      </trkpt>
      <trkpt lat="43.48519" lon="6.24068">
        <ele>133</ele>
        <time>2022-04-15T12:51:36Z</time>
      </trkpt>
      <trkpt lat="43.4852" lon="6.24069">
        <ele>133</ele>
        <time>2022-04-15T12:51:37Z</time>
      </trkpt>
      <trkpt lat="43.4852" lon="6.2407">
        <ele>133</ele>
        <time>2022-04-15T12:51:38Z</time>
      </trkpt>
      <trkpt lat="43.48521" lon="6.24071">
        <ele>133</ele>
        <time>2022-04-15T12:51:39Z</time>
      </trkpt>
      <trkpt lat="43.48522" lon="6.24072">
        <ele>133</ele>
        <time>2022-04-15T12:51:40Z</time>
      </trkpt>
      <trkpt lat="43.48523" lon="6.24073">
        <ele>133</ele>
        <time>2022-04-15T12:51:41Z</time>
      </trkpt>
      <trkpt lat="43.48523" lon="6.24074">
        <ele>134</ele>
        <time>2022-04-15T12:51:42Z</time>
      </trkpt>
      <trkpt lat="43.48524" lon="6.24076">
        <ele>134</ele>
        <time>2022-04-15T12:51:43Z</time>
      </trkpt>
      <trkpt lat="43.48525" lon="6.24077">
        <ele>134</ele>
        <time>2022-04-15T12:51:44Z</time>
      </trkpt>
      <trkpt lat="43.48526" lon="6.24078">
        <ele>134</ele>
        <time>2022-04-15T12:51:45Z</time>
      </trkpt>
      <trkpt lat="43.48527" lon="6.2408">
        <ele>134</ele>
        <time>2022-04-15T12:51:46Z</time>
      </trkpt>
      <trkpt lat="43.48527" lon="6.24081">
        <ele>134</ele>
        <time>2022-04-15T12:51:47Z</time>
      </trkpt>
      <trkpt lat="43.48528" lon="6.24082">
        <ele>134</ele>
        <time>2022-04-15T12:51:48Z</time>
      </trkpt>
      <trkpt lat="43.48529" lon="6.24084">
        <ele>134</ele>
        <time>2022-04-15T12:51:49Z</time>
      </trkpt>
      <trkpt lat="43.48529" lon="6.24085">
        <ele>134</ele>
        <time>2022-04-15T12:51:50Z</time>
      </trkpt>
      <trkpt lat="43.4853" lon="6.24086">
        <ele>135</ele>
        <time>2022-04-15T12:51:51Z</time>
      </trkpt>
      <trkpt lat="43.4853" lon="6.24087">
        <ele>135</ele>
        <time>2022-04-15T12:51:52Z</time>
      </trkpt>
      <trkpt lat="43.48531" lon="6.24089">
        <ele>135</ele>
        <time>2022-04-15T12:51:53Z</time>
      </trkpt>
      <trkpt lat="43.48532" lon="6.2409">
        <ele>135</ele>
        <time>2022-04-15T12:51:54Z</time>
      </trkpt>
      <trkpt lat="43.48532" lon="6.24092">
        <ele>135</ele>
        <time>2022-04-15T12:51:55Z</time>
      </trkpt>
      <trkpt lat="43.48533" lon="6.24093">
        <ele>135</ele>
        <time>2022-04-15T12:51:56Z</time>
      </trkpt>
      <trkpt lat="43.48533" lon="6.24094">
        <ele>135</ele>
        <time>2022-04-15T12:51:56Z</time>
      </trkpt>
      <trkpt lat="43.48533" lon="6.24096">
        <ele>135</ele>
        <time>2022-04-15T12:51:57Z</time>
      </trkpt>
      <trkpt lat="43.48534" lon="6.24098">
        <ele>135</ele>
        <time>2022-04-15T12:51:58Z</time>
      </trkpt>
      <trkpt lat="43.48534" lon="6.24099">
        <ele>135</ele>
        <time>2022-04-15T12:51:59Z</time>
      </trkpt>
      <trkpt lat="43.48535" lon="6.24101">
        <ele>135</ele>
        <time>2022-04-15T12:52:00Z</time>
      </trkpt>
      <trkpt lat="43.48535" lon="6.24102">
        <ele>135</ele>
        <time>2022-04-15T12:52:01Z</time>
      </trkpt>
      <trkpt lat="43.48536" lon="6.24104">
        <ele>135</ele>
        <time>2022-04-15T12:52:02Z</time>
      </trkpt>
      <trkpt lat="43.48536" lon="6.24106">
        <ele>135</ele>
        <time>2022-04-15T12:52:03Z</time>
      </trkpt>
      <trkpt lat="43.48536" lon="6.24107">
        <ele>135</ele>
        <time>2022-04-15T12:52:04Z</time>
      </trkpt>
      <trkpt lat="43.48537" lon="6.24109">
        <ele>135</ele>
        <time>2022-04-15T12:52:05Z</time>
      </trkpt>
      <trkpt lat="43.48537" lon="6.2411">
        <ele>135</ele>
        <time>2022-04-15T12:52:06Z</time>
      </trkpt>
      <trkpt lat="43.48537" lon="6.24112">
        <ele>135</ele>
        <time>2022-04-15T12:52:07Z</time>
      </trkpt>
      <trkpt lat="43.48538" lon="6.24113">
        <ele>135</ele>
        <time>2022-04-15T12:52:08Z</time>
      </trkpt>
      <trkpt lat="43.48538" lon="6.24114">
        <ele>135</ele>
        <time>2022-04-15T12:52:09Z</time>
      </trkpt>
      <trkpt lat="43.48538" lon="6.24116">
        <ele>135</ele>
        <time>2022-04-15T12:52:10Z</time>
      </trkpt>
      <trkpt lat="43.48539" lon="6.24117">
        <ele>135</ele>
        <time>2022-04-15T12:52:11Z</time>
      </trkpt>
      <trkpt lat="43.48539" lon="6.24118">
        <ele>135</ele>
        <time>2022-04-15T12:52:12Z</time>
      </trkpt>
      <trkpt lat="43.4854" lon="6.2412">
        <ele>135</ele>
        <time>2022-04-15T12:52:13Z</time>
      </trkpt>
      <trkpt lat="43.4854" lon="6.24121">
        <ele>135</ele>
        <time>2022-04-15T12:52:14Z</time>
      </trkpt>
      <trkpt lat="43.4854" lon="6.24122">
        <ele>135</ele>
        <time>2022-04-15T12:52:15Z</time>
      </trkpt>
      <trkpt lat="43.48541" lon="6.24122">
        <ele>135</ele>
        <time>2022-04-15T12:52:16Z</time>
      </trkpt>
      <trkpt lat="43.48542" lon="6.24123">
        <ele>136</ele>
        <time>2022-04-15T12:52:17Z</time>
      </trkpt>
      <trkpt lat="43.48543" lon="6.24123">
        <ele>136</ele>
        <time>2022-04-15T12:52:18Z</time>
      </trkpt>
      <trkpt lat="43.48544" lon="6.24123">
        <ele>136</ele>
        <time>2022-04-15T12:52:19Z</time>
      </trkpt>
      <trkpt lat="43.48545" lon="6.24123">
        <ele>136</ele>
        <time>2022-04-15T12:52:20Z</time>
      </trkpt>
      <trkpt lat="43.48545" lon="6.24123">
        <ele>136</ele>
        <time>2022-04-15T12:52:21Z</time>
      </trkpt>
      <trkpt lat="43.48545" lon="6.24123">
        <ele>136</ele>
        <time>2022-04-15T12:52:22Z</time>
      </trkpt>
      <trkpt lat="43.48545" lon="6.24123">
        <ele>136</ele>
        <time>2022-04-15T12:52:23Z</time>
      </trkpt>
      <trkpt lat="43.48545" lon="6.24123">
        <ele>136</ele>
        <time>2022-04-15T12:52:24Z</time>
      </trkpt>
      <trkpt lat="43.48545" lon="6.24123">
        <ele>136</ele>
        <time>2022-04-15T12:52:25Z</time>
      </trkpt>
      <trkpt lat="43.48545" lon="6.24123">
        <ele>136</ele>
        <time>2022-04-15T12:52:26Z</time>
      </trkpt>
      <trkpt lat="43.48545" lon="6.24123">
        <ele>136</ele>
        <time>2022-04-15T12:52:27Z</time>
      </trkpt>
      <trkpt lat="43.48545" lon="6.24123">
        <ele>136</ele>
        <time>2022-04-15T12:52:28Z</time>
      </trkpt>
      <trkpt lat="43.48545" lon="6.24123">
        <ele>136</ele>
        <time>2022-04-15T12:52:29Z</time>
      </trkpt>
      <trkpt lat="43.48545" lon="6.24124">
        <ele>136</ele>
        <time>2022-04-15T12:52:30Z</time>
      </trkpt>
      <trkpt lat="43.48545" lon="6.24123">
        <ele>136</ele>
        <time>2022-04-15T12:52:31Z</time>
      </trkpt>
      <trkpt lat="43.48546" lon="6.24122">
        <ele>136</ele>
        <time>2022-04-15T12:52:32Z</time>
      </trkpt>
      <trkpt lat="43.48546" lon="6.24121">
        <ele>136</ele>
        <time>2022-04-15T12:52:33Z</time>
      </trkpt>
      <trkpt lat="43.48546" lon="6.2412">
        <ele>136</ele>
        <time>2022-04-15T12:52:34Z</time>
      </trkpt>
      <trkpt lat="43.48546" lon="6.24118">
        <ele>136</ele>
        <time>2022-04-15T12:52:35Z</time>
      </trkpt>
      <trkpt lat="43.48545" lon="6.24117">
        <ele>136</ele>
        <time>2022-04-15T12:52:36Z</time>
      </trkpt>
      <trkpt lat="43.48545" lon="6.24115">
        <ele>136</ele>
        <time>2022-04-15T12:52:37Z</time>
      </trkpt>
      <trkpt lat="43.48545" lon="6.24114">
        <ele>136</ele>
        <time>2022-04-15T12:52:38Z</time>
      </trkpt>
      <trkpt lat="43.48546" lon="6.24112">
        <ele>136</ele>
        <time>2022-04-15T12:52:39Z</time>
      </trkpt>
      <trkpt lat="43.48546" lon="6.2411">
        <ele>136</ele>
        <time>2022-04-15T12:52:40Z</time>
      </trkpt>
      <trkpt lat="43.48546" lon="6.24109">
        <ele>136</ele>
        <time>2022-04-15T12:52:41Z</time>
      </trkpt>
      <trkpt lat="43.48546" lon="6.24108">
        <ele>136</ele>
        <time>2022-04-15T12:52:42Z</time>
      </trkpt>
      <trkpt lat="43.48546" lon="6.24107">
        <ele>136</ele>
        <time>2022-04-15T12:52:43Z</time>
      </trkpt>
      <trkpt lat="43.48546" lon="6.24105">
        <ele>136</ele>
        <time>2022-04-15T12:52:44Z</time>
      </trkpt>
      <trkpt lat="43.48547" lon="6.24104">
        <ele>135</ele>
        <time>2022-04-15T12:52:45Z</time>
      </trkpt>
      <trkpt lat="43.48547" lon="6.24103">
        <ele>135</ele>
        <time>2022-04-15T12:52:46Z</time>
      </trkpt>
      <trkpt lat="43.48547" lon="6.24101">
        <ele>135</ele>
        <time>2022-04-15T12:52:47Z</time>
      </trkpt>
      <trkpt lat="43.48547" lon="6.241">
        <ele>135</ele>
        <time>2022-04-15T12:52:48Z</time>
      </trkpt>
      <trkpt lat="43.48548" lon="6.24099">
        <ele>135</ele>
        <time>2022-04-15T12:52:49Z</time>
      </trkpt>
      <trkpt lat="43.48548" lon="6.24098">
        <ele>132</ele>
        <time>2022-04-15T12:52:50Z</time>
      </trkpt>
      <trkpt lat="43.48548" lon="6.24096">
        <ele>131</ele>
        <time>2022-04-15T12:52:51Z</time>
      </trkpt>
      <trkpt lat="43.48549" lon="6.24095">
        <ele>130</ele>
        <time>2022-04-15T12:52:52Z</time>
      </trkpt>
      <trkpt lat="43.48549" lon="6.24093">
        <ele>130</ele>
        <time>2022-04-15T12:52:53Z</time>
      </trkpt>
      <trkpt lat="43.48549" lon="6.24092">
        <ele>129</ele>
        <time>2022-04-15T12:52:54Z</time>
      </trkpt>
      <trkpt lat="43.4855" lon="6.2409">
        <ele>129</ele>
        <time>2022-04-15T12:52:55Z</time>
      </trkpt>
      <trkpt lat="43.4855" lon="6.24089">
        <ele>129</ele>
        <time>2022-04-15T12:52:56Z</time>
      </trkpt>
      <trkpt lat="43.48551" lon="6.24087">
        <ele>128</ele>
        <time>2022-04-15T12:52:57Z</time>
      </trkpt>
      <trkpt lat="43.48551" lon="6.24085">
        <ele>128</ele>
        <time>2022-04-15T12:52:58Z</time>
      </trkpt>
      <trkpt lat="43.48551" lon="6.24084">
        <ele>128</ele>
        <time>2022-04-15T12:52:59Z</time>
      </trkpt>
      <trkpt lat="43.48551" lon="6.24082">
        <ele>128</ele>
        <time>2022-04-15T12:53:00Z</time>
      </trkpt>
      <trkpt lat="43.48552" lon="6.2408">
        <ele>128</ele>
        <time>2022-04-15T12:53:01Z</time>
      </trkpt>
      <trkpt lat="43.48552" lon="6.24079">
        <ele>128</ele>
        <time>2022-04-15T12:53:02Z</time>
      </trkpt>
      <trkpt lat="43.48552" lon="6.24077">
        <ele>128</ele>
        <time>2022-04-15T12:53:03Z</time>
      </trkpt>
      <trkpt lat="43.48552" lon="6.24076">
        <ele>128</ele>
        <time>2022-04-15T12:53:04Z</time>
      </trkpt>
      <trkpt lat="43.48552" lon="6.24074">
        <ele>127</ele>
        <time>2022-04-15T12:53:05Z</time>
      </trkpt>
      <trkpt lat="43.48552" lon="6.24072">
        <ele>127</ele>
        <time>2022-04-15T12:53:06Z</time>
      </trkpt>
      <trkpt lat="43.48552" lon="6.24071">
        <ele>126</ele>
        <time>2022-04-15T12:53:07Z</time>
      </trkpt>
      <trkpt lat="43.48553" lon="6.2407">
        <ele>126</ele>
        <time>2022-04-15T12:53:08Z</time>
      </trkpt>
      <trkpt lat="43.48553" lon="6.24068">
        <ele>126</ele>
        <time>2022-04-15T12:53:09Z</time>
      </trkpt>
      <trkpt lat="43.48553" lon="6.24067">
        <ele>126</ele>
        <time>2022-04-15T12:53:10Z</time>
      </trkpt>
      <trkpt lat="43.48553" lon="6.24065">
        <ele>126</ele>
        <time>2022-04-15T12:53:11Z</time>
      </trkpt>
      <trkpt lat="43.48554" lon="6.24064">
        <ele>126</ele>
        <time>2022-04-15T12:53:12Z</time>
      </trkpt>
      <trkpt lat="43.48554" lon="6.24062">
        <ele>126</ele>
        <time>2022-04-15T12:53:13Z</time>
      </trkpt>
      <trkpt lat="43.48555" lon="6.24061">
        <ele>126</ele>
        <time>2022-04-15T12:53:14Z</time>
      </trkpt>
      <trkpt lat="43.48556" lon="6.24059">
        <ele>125</ele>
        <time>2022-04-15T12:53:15Z</time>
      </trkpt>
      <trkpt lat="43.48557" lon="6.24058">
        <ele>125</ele>
        <time>2022-04-15T12:53:16Z</time>
      </trkpt>
      <trkpt lat="43.48558" lon="6.24057">
        <ele>125</ele>
        <time>2022-04-15T12:53:17Z</time>
      </trkpt>
      <trkpt lat="43.48559" lon="6.24056">
        <ele>125</ele>
        <time>2022-04-15T12:53:18Z</time>
      </trkpt>
      <trkpt lat="43.4856" lon="6.24056">
        <ele>125</ele>
        <time>2022-04-15T12:53:19Z</time>
      </trkpt>
      <trkpt lat="43.48561" lon="6.24055">
        <ele>125</ele>
        <time>2022-04-15T12:53:20Z</time>
      </trkpt>
      <trkpt lat="43.48562" lon="6.24055">
        <ele>125</ele>
        <time>2022-04-15T12:53:21Z</time>
      </trkpt>
      <trkpt lat="43.48564" lon="6.24055">
        <ele>125</ele>
        <time>2022-04-15T12:53:22Z</time>
      </trkpt>
      <trkpt lat="43.48565" lon="6.24055">
        <ele>125</ele>
        <time>2022-04-15T12:53:23Z</time>
      </trkpt>
      <trkpt lat="43.48566" lon="6.24055">
        <ele>125</ele>
        <time>2022-04-15T12:53:24Z</time>
      </trkpt>
      <trkpt lat="43.48568" lon="6.24055">
        <ele>125</ele>
        <time>2022-04-15T12:53:25Z</time>
      </trkpt>
      <trkpt lat="43.48569" lon="6.24055">
        <ele>125</ele>
        <time>2022-04-15T12:53:26Z</time>
      </trkpt>
      <trkpt lat="43.48571" lon="6.24055">
        <ele>125</ele>
        <time>2022-04-15T12:53:27Z</time>
      </trkpt>
      <trkpt lat="43.48572" lon="6.24056">
        <ele>125</ele>
        <time>2022-04-15T12:53:28Z</time>
      </trkpt>
      <trkpt lat="43.48573" lon="6.24056">
        <ele>125</ele>
        <time>2022-04-15T12:53:29Z</time>
      </trkpt>
      <trkpt lat="43.48575" lon="6.24056">
        <ele>125</ele>
        <time>2022-04-15T12:53:30Z</time>
      </trkpt>
      <trkpt lat="43.48576" lon="6.24056">
        <ele>125</ele>
        <time>2022-04-15T12:53:31Z</time>
      </trkpt>
      <trkpt lat="43.48577" lon="6.24057">
        <ele>124</ele>
        <time>2022-04-15T12:53:32Z</time>
      </trkpt>
      <trkpt lat="43.48578" lon="6.24057">
        <ele>124</ele>
        <time>2022-04-15T12:53:33Z</time>
      </trkpt>
      <trkpt lat="43.48579" lon="6.24057">
        <ele>124</ele>
        <time>2022-04-15T12:53:34Z</time>
      </trkpt>
      <trkpt lat="43.4858" lon="6.24058">
        <ele>124</ele>
        <time>2022-04-15T12:53:35Z</time>
      </trkpt>
      <trkpt lat="43.48581" lon="6.24058">
        <ele>124</ele>
        <time>2022-04-15T12:53:36Z</time>
      </trkpt>
      <trkpt lat="43.48582" lon="6.24058">
        <ele>124</ele>
        <time>2022-04-15T12:53:37Z</time>
      </trkpt>
      <trkpt lat="43.48583" lon="6.24058">
        <ele>124</ele>
        <time>2022-04-15T12:53:38Z</time>
      </trkpt>
      <trkpt lat="43.48584" lon="6.24059">
        <ele>124</ele>
        <time>2022-04-15T12:53:39Z</time>
      </trkpt>
      <trkpt lat="43.48585" lon="6.24059">
        <ele>124</ele>
        <time>2022-04-15T12:53:40Z</time>
      </trkpt>
      <trkpt lat="43.48587" lon="6.24059">
        <ele>124</ele>
        <time>2022-04-15T12:53:41Z</time>
      </trkpt>
      <trkpt lat="43.48588" lon="6.24059">
        <ele>124</ele>
        <time>2022-04-15T12:53:42Z</time>
      </trkpt>
      <trkpt lat="43.48589" lon="6.2406">
        <ele>124</ele>
        <time>2022-04-15T12:53:43Z</time>
      </trkpt>
      <trkpt lat="43.4859" lon="6.2406">
        <ele>124</ele>
        <time>2022-04-15T12:53:44Z</time>
      </trkpt>
      <trkpt lat="43.48591" lon="6.2406">
        <ele>124</ele>
        <time>2022-04-15T12:53:45Z</time>
      </trkpt>
      <trkpt lat="43.48592" lon="6.24061">
        <ele>124</ele>
        <time>2022-04-15T12:53:46Z</time>
      </trkpt>
      <trkpt lat="43.48593" lon="6.24061">
        <ele>124</ele>
        <time>2022-04-15T12:53:47Z</time>
      </trkpt>
      <trkpt lat="43.48594" lon="6.24061">
        <ele>124</ele>
        <time>2022-04-15T12:53:48Z</time>
      </trkpt>
      <trkpt lat="43.48595" lon="6.24062">
        <ele>124</ele>
        <time>2022-04-15T12:53:49Z</time>
      </trkpt>
      <trkpt lat="43.48596" lon="6.24062">
        <ele>124</ele>
        <time>2022-04-15T12:53:50Z</time>
      </trkpt>
      <trkpt lat="43.48597" lon="6.24063">
        <ele>124</ele>
        <time>2022-04-15T12:53:51Z</time>
      </trkpt>
      <trkpt lat="43.48598" lon="6.24063">
        <ele>124</ele>
        <time>2022-04-15T12:53:52Z</time>
      </trkpt>
      <trkpt lat="43.48599" lon="6.24064">
        <ele>124</ele>
        <time>2022-04-15T12:53:53Z</time>
      </trkpt>
      <trkpt lat="43.486" lon="6.24064">
        <ele>124</ele>
        <time>2022-04-15T12:53:54Z</time>
      </trkpt>
      <trkpt lat="43.48601" lon="6.24064">
        <ele>124</ele>
        <time>2022-04-15T12:53:55Z</time>
      </trkpt>
      <trkpt lat="43.48602" lon="6.24065">
        <ele>124</ele>
        <time>2022-04-15T12:53:56Z</time>
      </trkpt>
      <trkpt lat="43.48604" lon="6.24065">
        <ele>124</ele>
        <time>2022-04-15T12:53:57Z</time>
      </trkpt>
      <trkpt lat="43.48605" lon="6.24066">
        <ele>124</ele>
        <time>2022-04-15T12:53:58Z</time>
      </trkpt>
      <trkpt lat="43.48606" lon="6.24066">
        <ele>124</ele>
        <time>2022-04-15T12:53:59Z</time>
      </trkpt>
      <trkpt lat="43.48607" lon="6.24066">
        <ele>124</ele>
        <time>2022-04-15T12:54:00Z</time>
      </trkpt>
      <trkpt lat="43.48608" lon="6.24067">
        <ele>124</ele>
        <time>2022-04-15T12:54:01Z</time>
      </trkpt>
      <trkpt lat="43.48609" lon="6.24067">
        <ele>124</ele>
        <time>2022-04-15T12:54:02Z</time>
      </trkpt>
      <trkpt lat="43.4861" lon="6.24068">
        <ele>124</ele>
        <time>2022-04-15T12:54:03Z</time>
      </trkpt>
      <trkpt lat="43.48611" lon="6.24068">
        <ele>124</ele>
        <time>2022-04-15T12:54:04Z</time>
      </trkpt>
      <trkpt lat="43.48613" lon="6.24069">
        <ele>124</ele>
        <time>2022-04-15T12:54:05Z</time>
      </trkpt>
      <trkpt lat="43.48614" lon="6.24069">
        <ele>124</ele>
        <time>2022-04-15T12:54:06Z</time>
      </trkpt>
      <trkpt lat="43.48615" lon="6.2407">
        <ele>124</ele>
        <time>2022-04-15T12:54:07Z</time>
      </trkpt>
      <trkpt lat="43.48616" lon="6.2407">
        <ele>124</ele>
        <time>2022-04-15T12:54:08Z</time>
      </trkpt>
      <trkpt lat="43.48617" lon="6.2407">
        <ele>124</ele>
        <time>2022-04-15T12:54:09Z</time>
      </trkpt>
      <trkpt lat="43.48618" lon="6.24071">
        <ele>124</ele>
        <time>2022-04-15T12:54:10Z</time>
      </trkpt>
      <trkpt lat="43.48619" lon="6.24072">
        <ele>124</ele>
        <time>2022-04-15T12:54:11Z</time>
      </trkpt>
      <trkpt lat="43.4862" lon="6.24072">
        <ele>124</ele>
        <time>2022-04-15T12:54:12Z</time>
      </trkpt>
      <trkpt lat="43.48622" lon="6.24072">
        <ele>124</ele>
        <time>2022-04-15T12:54:13Z</time>
      </trkpt>
      <trkpt lat="43.48623" lon="6.24073">
        <ele>124</ele>
        <time>2022-04-15T12:54:14Z</time>
      </trkpt>
      <trkpt lat="43.48624" lon="6.24073">
        <ele>124</ele>
        <time>2022-04-15T12:54:15Z</time>
      </trkpt>
      <trkpt lat="43.48625" lon="6.24073">
        <ele>124</ele>
        <time>2022-04-15T12:54:16Z</time>
      </trkpt>
      <trkpt lat="43.48626" lon="6.24073">
        <ele>124</ele>
        <time>2022-04-15T12:54:17Z</time>
      </trkpt>
      <trkpt lat="43.48627" lon="6.24074">
        <ele>124</ele>
        <time>2022-04-15T12:54:18Z</time>
      </trkpt>
      <trkpt lat="43.48628" lon="6.24074">
        <ele>124</ele>
        <time>2022-04-15T12:54:19Z</time>
      </trkpt>
      <trkpt lat="43.48629" lon="6.24074">
        <ele>124</ele>
        <time>2022-04-15T12:54:20Z</time>
      </trkpt>
      <trkpt lat="43.48631" lon="6.24074">
        <ele>124</ele>
        <time>2022-04-15T12:54:21Z</time>
      </trkpt>
      <trkpt lat="43.48632" lon="6.24075">
        <ele>124</ele>
        <time>2022-04-15T12:54:22Z</time>
      </trkpt>
      <trkpt lat="43.48633" lon="6.24075">
        <ele>124</ele>
        <time>2022-04-15T12:54:23Z</time>
      </trkpt>
      <trkpt lat="43.48634" lon="6.24075">
        <ele>123</ele>
        <time>2022-04-15T12:54:24Z</time>
      </trkpt>
      <trkpt lat="43.48636" lon="6.24076">
        <ele>123</ele>
        <time>2022-04-15T12:54:25Z</time>
      </trkpt>
      <trkpt lat="43.48637" lon="6.24076">
        <ele>123</ele>
        <time>2022-04-15T12:54:26Z</time>
      </trkpt>
      <trkpt lat="43.48637" lon="6.24076">
        <ele>123</ele>
        <time>2022-04-15T12:54:27Z</time>
      </trkpt>
      <trkpt lat="43.48638" lon="6.24076">
        <ele>122</ele>
        <time>2022-04-15T12:54:28Z</time>
      </trkpt>
      <trkpt lat="43.48639" lon="6.24076">
        <ele>122</ele>
        <time>2022-04-15T12:54:29Z</time>
      </trkpt>
      <trkpt lat="43.4864" lon="6.24077">
        <ele>122</ele>
        <time>2022-04-15T12:54:30Z</time>
      </trkpt>
      <trkpt lat="43.48641" lon="6.24077">
        <ele>122</ele>
        <time>2022-04-15T12:54:31Z</time>
      </trkpt>
      <trkpt lat="43.48642" lon="6.24077">
        <ele>122</ele>
        <time>2022-04-15T12:54:32Z</time>
      </trkpt>
      <trkpt lat="43.48643" lon="6.24077">
        <ele>122</ele>
        <time>2022-04-15T12:54:33Z</time>
      </trkpt>
      <trkpt lat="43.48644" lon="6.24078">
        <ele>122</ele>
        <time>2022-04-15T12:54:34Z</time>
      </trkpt>
      <trkpt lat="43.48645" lon="6.24078">
        <ele>122</ele>
        <time>2022-04-15T12:54:35Z</time>
      </trkpt>
      <trkpt lat="43.48647" lon="6.24078">
        <ele>122</ele>
        <time>2022-04-15T12:54:36Z</time>
      </trkpt>
      <trkpt lat="43.48648" lon="6.24079">
        <ele>122</ele>
        <time>2022-04-15T12:54:37Z</time>
      </trkpt>
      <trkpt lat="43.48649" lon="6.24079">
        <ele>122</ele>
        <time>2022-04-15T12:54:38Z</time>
      </trkpt>
      <trkpt lat="43.4865" lon="6.24079">
        <ele>122</ele>
        <time>2022-04-15T12:54:39Z</time>
      </trkpt>
      <trkpt lat="43.48652" lon="6.2408">
        <ele>122</ele>
        <time>2022-04-15T12:54:40Z</time>
      </trkpt>
      <trkpt lat="43.48653" lon="6.2408">
        <ele>122</ele>
        <time>2022-04-15T12:54:41Z</time>
      </trkpt>
      <trkpt lat="43.48654" lon="6.2408">
        <ele>122</ele>
        <time>2022-04-15T12:54:42Z</time>
      </trkpt>
      <trkpt lat="43.48655" lon="6.2408">
        <ele>122</ele>
        <time>2022-04-15T12:54:43Z</time>
      </trkpt>
      <trkpt lat="43.48656" lon="6.2408">
        <ele>122</ele>
        <time>2022-04-15T12:54:44Z</time>
      </trkpt>
      <trkpt lat="43.48657" lon="6.24081">
        <ele>122</ele>
        <time>2022-04-15T12:54:45Z</time>
      </trkpt>
      <trkpt lat="43.48658" lon="6.24081">
        <ele>122</ele>
        <time>2022-04-15T12:54:46Z</time>
      </trkpt>
      <trkpt lat="43.48659" lon="6.24081">
        <ele>122</ele>
        <time>2022-04-15T12:54:47Z</time>
      </trkpt>
      <trkpt lat="43.4866" lon="6.24082">
        <ele>122</ele>
        <time>2022-04-15T12:54:48Z</time>
      </trkpt>
      <trkpt lat="43.48661" lon="6.24082">
        <ele>122</ele>
        <time>2022-04-15T12:54:49Z</time>
      </trkpt>
      <trkpt lat="43.48662" lon="6.24082">
        <ele>122</ele>
        <time>2022-04-15T12:54:50Z</time>
      </trkpt>
      <trkpt lat="43.48663" lon="6.24082">
        <ele>122</ele>
        <time>2022-04-15T12:54:51Z</time>
      </trkpt>
      <trkpt lat="43.48665" lon="6.24082">
        <ele>122</ele>
        <time>2022-04-15T12:54:52Z</time>
      </trkpt>
      <trkpt lat="43.48666" lon="6.24082">
        <ele>122</ele>
        <time>2022-04-15T12:54:53Z</time>
      </trkpt>
      <trkpt lat="43.48667" lon="6.24083">
        <ele>122</ele>
        <time>2022-04-15T12:54:54Z</time>
      </trkpt>
      <trkpt lat="43.48668" lon="6.24083">
        <ele>122</ele>
        <time>2022-04-15T12:54:55Z</time>
      </trkpt>
      <trkpt lat="43.48669" lon="6.24083">
        <ele>122</ele>
        <time>2022-04-15T12:54:56Z</time>
      </trkpt>
      <trkpt lat="43.4867" lon="6.24083">
        <ele>122</ele>
        <time>2022-04-15T12:54:57Z</time>
      </trkpt>
      <trkpt lat="43.48671" lon="6.24083">
        <ele>122</ele>
        <time>2022-04-15T12:54:58Z</time>
      </trkpt>
      <trkpt lat="43.48672" lon="6.24083">
        <ele>122</ele>
        <time>2022-04-15T12:54:59Z</time>
      </trkpt>
      <trkpt lat="43.48674" lon="6.24083">
        <ele>122</ele>
        <time>2022-04-15T12:55:00Z</time>
      </trkpt>
      <trkpt lat="43.48675" lon="6.24084">
        <ele>122</ele>
        <time>2022-04-15T12:55:01Z</time>
      </trkpt>
      <trkpt lat="43.48676" lon="6.24084">
        <ele>122</ele>
        <time>2022-04-15T12:55:02Z</time>
      </trkpt>
      <trkpt lat="43.48678" lon="6.24084">
        <ele>122</ele>
        <time>2022-04-15T12:55:03Z</time>
      </trkpt>
      <trkpt lat="43.48679" lon="6.24084">
        <ele>122</ele>
        <time>2022-04-15T12:55:04Z</time>
      </trkpt>
      <trkpt lat="43.4868" lon="6.24084">
        <ele>122</ele>
        <time>2022-04-15T12:55:05Z</time>
      </trkpt>
      <trkpt lat="43.48681" lon="6.24084">
        <ele>122</ele>
        <time>2022-04-15T12:55:06Z</time>
      </trkpt>
      <trkpt lat="43.48682" lon="6.24083">
        <ele>122</ele>
        <time>2022-04-15T12:55:07Z</time>
      </trkpt>
      <trkpt lat="43.48684" lon="6.24083">
        <ele>122</ele>
        <time>2022-04-15T12:55:08Z</time>
      </trkpt>
      <trkpt lat="43.48685" lon="6.24083">
        <ele>121</ele>
        <time>2022-04-15T12:55:09Z</time>
      </trkpt>
      <trkpt lat="43.48686" lon="6.24083">
        <ele>121</ele>
        <time>2022-04-15T12:55:10Z</time>
      </trkpt>
      <trkpt lat="43.48687" lon="6.24083">
        <ele>121</ele>
        <time>2022-04-15T12:55:11Z</time>
      </trkpt>
      <trkpt lat="43.48689" lon="6.24083">
        <ele>121</ele>
        <time>2022-04-15T12:55:12Z</time>
      </trkpt>
      <trkpt lat="43.4869" lon="6.24084">
        <ele>121</ele>
        <time>2022-04-15T12:55:13Z</time>
      </trkpt>
      <trkpt lat="43.48691" lon="6.24084">
        <ele>121</ele>
        <time>2022-04-15T12:55:14Z</time>
      </trkpt>
      <trkpt lat="43.48692" lon="6.24084">
        <ele>121</ele>
        <time>2022-04-15T12:55:15Z</time>
      </trkpt>
      <trkpt lat="43.48693" lon="6.24084">
        <ele>121</ele>
        <time>2022-04-15T12:55:16Z</time>
      </trkpt>
      <trkpt lat="43.48695" lon="6.24085">
        <ele>121</ele>
        <time>2022-04-15T12:55:17Z</time>
      </trkpt>
      <trkpt lat="43.48696" lon="6.24085">
        <ele>121</ele>
        <time>2022-04-15T12:55:18Z</time>
      </trkpt>
      <trkpt lat="43.48697" lon="6.24085">
        <ele>121</ele>
        <time>2022-04-15T12:55:19Z</time>
      </trkpt>
      <trkpt lat="43.48698" lon="6.24086">
        <ele>121</ele>
        <time>2022-04-15T12:55:20Z</time>
      </trkpt>
      <trkpt lat="43.48699" lon="6.24086">
        <ele>121</ele>
        <time>2022-04-15T12:55:21Z</time>
      </trkpt>
      <trkpt lat="43.487" lon="6.24087">
        <ele>121</ele>
        <time>2022-04-15T12:55:22Z</time>
      </trkpt>
      <trkpt lat="43.48701" lon="6.24088">
        <ele>121</ele>
        <time>2022-04-15T12:55:23Z</time>
      </trkpt>
      <trkpt lat="43.48702" lon="6.24088">
        <ele>121</ele>
        <time>2022-04-15T12:55:24Z</time>
      </trkpt>
      <trkpt lat="43.48703" lon="6.24089">
        <ele>121</ele>
        <time>2022-04-15T12:55:25Z</time>
      </trkpt>
      <trkpt lat="43.48705" lon="6.2409">
        <ele>121</ele>
        <time>2022-04-15T12:55:26Z</time>
      </trkpt>
      <trkpt lat="43.48706" lon="6.24091">
        <ele>121</ele>
        <time>2022-04-15T12:55:27Z</time>
      </trkpt>
      <trkpt lat="43.48707" lon="6.24092">
        <ele>121</ele>
        <time>2022-04-15T12:55:28Z</time>
      </trkpt>
      <trkpt lat="43.48708" lon="6.24092">
        <ele>121</ele>
        <time>2022-04-15T12:55:29Z</time>
      </trkpt>
      <trkpt lat="43.4871" lon="6.24093">
        <ele>121</ele>
        <time>2022-04-15T12:55:30Z</time>
      </trkpt>
      <trkpt lat="43.48711" lon="6.24094">
        <ele>121</ele>
        <time>2022-04-15T12:55:31Z</time>
      </trkpt>
      <trkpt lat="43.48713" lon="6.24094">
        <ele>121</ele>
        <time>2022-04-15T12:55:32Z</time>
      </trkpt>
      <trkpt lat="43.48714" lon="6.24095">
        <ele>121</ele>
        <time>2022-04-15T12:55:33Z</time>
      </trkpt>
      <trkpt lat="43.48715" lon="6.24095">
        <ele>121</ele>
        <time>2022-04-15T12:55:34Z</time>
      </trkpt>
      <trkpt lat="43.48716" lon="6.24095">
        <ele>121</ele>
        <time>2022-04-15T12:55:35Z</time>
      </trkpt>
      <trkpt lat="43.48717" lon="6.24096">
        <ele>121</ele>
        <time>2022-04-15T12:55:36Z</time>
      </trkpt>
      <trkpt lat="43.48719" lon="6.24096">
        <ele>121</ele>
        <time>2022-04-15T12:55:37Z</time>
      </trkpt>
      <trkpt lat="43.4872" lon="6.24096">
        <ele>121</ele>
        <time>2022-04-15T12:55:38Z</time>
      </trkpt>
      <trkpt lat="43.48721" lon="6.24096">
        <ele>121</ele>
        <time>2022-04-15T12:55:39Z</time>
      </trkpt>
      <trkpt lat="43.48722" lon="6.24096">
        <ele>121</ele>
        <time>2022-04-15T12:55:40Z</time>
      </trkpt>
      <trkpt lat="43.48723" lon="6.24096">
        <ele>121</ele>
        <time>2022-04-15T12:55:41Z</time>
      </trkpt>
      <trkpt lat="43.48725" lon="6.24095">
        <ele>121</ele>
        <time>2022-04-15T12:55:42Z</time>
      </trkpt>
      <trkpt lat="43.48726" lon="6.24095">
        <ele>121</ele>
        <time>2022-04-15T12:55:43Z</time>
      </trkpt>
      <trkpt lat="43.48727" lon="6.24095">
        <ele>121</ele>
        <time>2022-04-15T12:55:44Z</time>
      </trkpt>
      <trkpt lat="43.48728" lon="6.24094">
        <ele>121</ele>
        <time>2022-04-15T12:55:45Z</time>
      </trkpt>
      <trkpt lat="43.48729" lon="6.24094">
        <ele>121</ele>
        <time>2022-04-15T12:55:46Z</time>
      </trkpt>
      <trkpt lat="43.4873" lon="6.24093">
        <ele>121</ele>
        <time>2022-04-15T12:55:47Z</time>
      </trkpt>
      <trkpt lat="43.48731" lon="6.24093">
        <ele>121</ele>
        <time>2022-04-15T12:55:48Z</time>
      </trkpt>
      <trkpt lat="43.48731" lon="6.24092">
        <ele>121</ele>
        <time>2022-04-15T12:55:49Z</time>
      </trkpt>
      <trkpt lat="43.48732" lon="6.24091">
        <ele>121</ele>
        <time>2022-04-15T12:55:50Z</time>
      </trkpt>
      <trkpt lat="43.48733" lon="6.2409">
        <ele>121</ele>
        <time>2022-04-15T12:55:51Z</time>
      </trkpt>
      <trkpt lat="43.48733" lon="6.24089">
        <ele>121</ele>
        <time>2022-04-15T12:55:52Z</time>
      </trkpt>
      <trkpt lat="43.48734" lon="6.24088">
        <ele>121</ele>
        <time>2022-04-15T12:55:53Z</time>
      </trkpt>
      <trkpt lat="43.48734" lon="6.24087">
        <ele>122</ele>
        <time>2022-04-15T12:55:54Z</time>
      </trkpt>
      <trkpt lat="43.48735" lon="6.24085">
        <ele>122</ele>
        <time>2022-04-15T12:55:55Z</time>
      </trkpt>
      <trkpt lat="43.48735" lon="6.24084">
        <ele>122</ele>
        <time>2022-04-15T12:55:56Z</time>
      </trkpt>
      <trkpt lat="43.48736" lon="6.24083">
        <ele>122</ele>
        <time>2022-04-15T12:55:57Z</time>
      </trkpt>
      <trkpt lat="43.48737" lon="6.24082">
        <ele>122</ele>
        <time>2022-04-15T12:55:58Z</time>
      </trkpt>
      <trkpt lat="43.48737" lon="6.24081">
        <ele>122</ele>
        <time>2022-04-15T12:55:59Z</time>
      </trkpt>
      <trkpt lat="43.48737" lon="6.2408">
        <ele>122</ele>
        <time>2022-04-15T12:56:00Z</time>
      </trkpt>
      <trkpt lat="43.48738" lon="6.24079">
        <ele>122</ele>
        <time>2022-04-15T12:56:01Z</time>
      </trkpt>
      <trkpt lat="43.48738" lon="6.24077">
        <ele>122</ele>
        <time>2022-04-15T12:56:02Z</time>
      </trkpt>
      <trkpt lat="43.48739" lon="6.24076">
        <ele>122</ele>
        <time>2022-04-15T12:56:03Z</time>
      </trkpt>
      <trkpt lat="43.48739" lon="6.24075">
        <ele>122</ele>
        <time>2022-04-15T12:56:04Z</time>
      </trkpt>
      <trkpt lat="43.4874" lon="6.24074">
        <ele>122</ele>
        <time>2022-04-15T12:56:05Z</time>
      </trkpt>
      <trkpt lat="43.48741" lon="6.24072">
        <ele>122</ele>
        <time>2022-04-15T12:56:06Z</time>
      </trkpt>
      <trkpt lat="43.48741" lon="6.24071">
        <ele>122</ele>
        <time>2022-04-15T12:56:07Z</time>
      </trkpt>
      <trkpt lat="43.48742" lon="6.2407">
        <ele>122</ele>
        <time>2022-04-15T12:56:08Z</time>
      </trkpt>
      <trkpt lat="43.48742" lon="6.24069">
        <ele>122</ele>
        <time>2022-04-15T12:56:09Z</time>
      </trkpt>
      <trkpt lat="43.48743" lon="6.24068">
        <ele>122</ele>
        <time>2022-04-15T12:56:10Z</time>
      </trkpt>
      <trkpt lat="43.48743" lon="6.24067">
        <ele>123</ele>
        <time>2022-04-15T12:56:11Z</time>
      </trkpt>
      <trkpt lat="43.48744" lon="6.24066">
        <ele>123</ele>
        <time>2022-04-15T12:56:12Z</time>
      </trkpt>
      <trkpt lat="43.48744" lon="6.24065">
        <ele>123</ele>
        <time>2022-04-15T12:56:13Z</time>
      </trkpt>
      <trkpt lat="43.48745" lon="6.24063">
        <ele>123</ele>
        <time>2022-04-15T12:56:14Z</time>
      </trkpt>
      <trkpt lat="43.48746" lon="6.24062">
        <ele>123</ele>
        <time>2022-04-15T12:56:15Z</time>
      </trkpt>
      <trkpt lat="43.48746" lon="6.24061">
        <ele>123</ele>
        <time>2022-04-15T12:56:16Z</time>
      </trkpt>
      <trkpt lat="43.48747" lon="6.24059">
        <ele>123</ele>
        <time>2022-04-15T12:56:17Z</time>
      </trkpt>
      <trkpt lat="43.48748" lon="6.24058">
        <ele>123</ele>
        <time>2022-04-15T12:56:18Z</time>
      </trkpt>
      <trkpt lat="43.48749" lon="6.24057">
        <ele>123</ele>
        <time>2022-04-15T12:56:19Z</time>
      </trkpt>
      <trkpt lat="43.48749" lon="6.24055">
        <ele>123</ele>
        <time>2022-04-15T12:56:20Z</time>
      </trkpt>
      <trkpt lat="43.4875" lon="6.24054">
        <ele>123</ele>
        <time>2022-04-15T12:56:21Z</time>
      </trkpt>
      <trkpt lat="43.48751" lon="6.24053">
        <ele>123</ele>
        <time>2022-04-15T12:56:22Z</time>
      </trkpt>
      <trkpt lat="43.48751" lon="6.24052">
        <ele>124</ele>
        <time>2022-04-15T12:56:23Z</time>
      </trkpt>
      <trkpt lat="43.48752" lon="6.24051">
        <ele>124</ele>
        <time>2022-04-15T12:56:24Z</time>
      </trkpt>
      <trkpt lat="43.48752" lon="6.2405">
        <ele>124</ele>
        <time>2022-04-15T12:56:25Z</time>
      </trkpt>
      <trkpt lat="43.48753" lon="6.24049">
        <ele>124</ele>
        <time>2022-04-15T12:56:26Z</time>
      </trkpt>
      <trkpt lat="43.48754" lon="6.24049">
        <ele>124</ele>
        <time>2022-04-15T12:56:27Z</time>
      </trkpt>
      <trkpt lat="43.48754" lon="6.24048">
        <ele>124</ele>
        <time>2022-04-15T12:56:28Z</time>
      </trkpt>
      <trkpt lat="43.48755" lon="6.24047">
        <ele>124</ele>
        <time>2022-04-15T12:56:29Z</time>
      </trkpt>
      <trkpt lat="43.48756" lon="6.24046">
        <ele>124</ele>
        <time>2022-04-15T12:56:30Z</time>
      </trkpt>
      <trkpt lat="43.48756" lon="6.24045">
        <ele>126</ele>
        <time>2022-04-15T12:56:31Z</time>
      </trkpt>
      <trkpt lat="43.48757" lon="6.24044">
        <ele>126</ele>
        <time>2022-04-15T12:56:32Z</time>
      </trkpt>
      <trkpt lat="43.48758" lon="6.24042">
        <ele>127</ele>
        <time>2022-04-15T12:56:33Z</time>
      </trkpt>
      <trkpt lat="43.48758" lon="6.24041">
        <ele>127</ele>
        <time>2022-04-15T12:56:34Z</time>
      </trkpt>
      <trkpt lat="43.48758" lon="6.2404">
        <ele>127</ele>
        <time>2022-04-15T12:56:35Z</time>
      </trkpt>
      <trkpt lat="43.48759" lon="6.24039">
        <ele>127</ele>
        <time>2022-04-15T12:56:36Z</time>
      </trkpt>
      <trkpt lat="43.48759" lon="6.24038">
        <ele>127</ele>
        <time>2022-04-15T12:56:37Z</time>
      </trkpt>
      <trkpt lat="43.4876" lon="6.24037">
        <ele>127</ele>
        <time>2022-04-15T12:56:38Z</time>
      </trkpt>
      <trkpt lat="43.4876" lon="6.24036">
        <ele>127</ele>
        <time>2022-04-15T12:56:39Z</time>
      </trkpt>
      <trkpt lat="43.4876" lon="6.24035">
        <ele>127</ele>
        <time>2022-04-15T12:56:40Z</time>
      </trkpt>
      <trkpt lat="43.4876" lon="6.24033">
        <ele>127</ele>
        <time>2022-04-15T12:56:41Z</time>
      </trkpt>
      <trkpt lat="43.48761" lon="6.24032">
        <ele>128</ele>
        <time>2022-04-15T12:56:42Z</time>
      </trkpt>
      <trkpt lat="43.48761" lon="6.24031">
        <ele>128</ele>
        <time>2022-04-15T12:56:43Z</time>
      </trkpt>
      <trkpt lat="43.48762" lon="6.2403">
        <ele>128</ele>
        <time>2022-04-15T12:56:44Z</time>
      </trkpt>
      <trkpt lat="43.48762" lon="6.24029">
        <ele>128</ele>
        <time>2022-04-15T12:56:45Z</time>
      </trkpt>
      <trkpt lat="43.48762" lon="6.24029">
        <ele>128</ele>
        <time>2022-04-15T12:56:46Z</time>
      </trkpt>
      <trkpt lat="43.48763" lon="6.24028">
        <ele>128</ele>
        <time>2022-04-15T12:56:47Z</time>
      </trkpt>
      <trkpt lat="43.48763" lon="6.24026">
        <ele>128</ele>
        <time>2022-04-15T12:56:48Z</time>
      </trkpt>
      <trkpt lat="43.48764" lon="6.24025">
        <ele>128</ele>
        <time>2022-04-15T12:56:49Z</time>
      </trkpt>
      <trkpt lat="43.48765" lon="6.24024">
        <ele>128</ele>
        <time>2022-04-15T12:56:50Z</time>
      </trkpt>
      <trkpt lat="43.48765" lon="6.24023">
        <ele>128</ele>
        <time>2022-04-15T12:56:51Z</time>
      </trkpt>
      <trkpt lat="43.48766" lon="6.24022">
        <ele>128</ele>
        <time>2022-04-15T12:56:52Z</time>
      </trkpt>
      <trkpt lat="43.48766" lon="6.24022">
        <ele>128</ele>
        <time>2022-04-15T12:56:53Z</time>
      </trkpt>
      <trkpt lat="43.48767" lon="6.24021">
        <ele>128</ele>
        <time>2022-04-15T12:56:54Z</time>
      </trkpt>
      <trkpt lat="43.48768" lon="6.2402">
        <ele>128</ele>
        <time>2022-04-15T12:56:55Z</time>
      </trkpt>
      <trkpt lat="43.48768" lon="6.24019">
        <ele>128</ele>
        <time>2022-04-15T12:56:56Z</time>
      </trkpt>
      <trkpt lat="43.48769" lon="6.24018">
        <ele>128</ele>
        <time>2022-04-15T12:56:57Z</time>
      </trkpt>
      <trkpt lat="43.48769" lon="6.24017">
        <ele>128</ele>
        <time>2022-04-15T12:56:58Z</time>
      </trkpt>
      <trkpt lat="43.4877" lon="6.24016">
        <ele>127</ele>
        <time>2022-04-15T12:56:59Z</time>
      </trkpt>
      <trkpt lat="43.48771" lon="6.24014">
        <ele>127</ele>
        <time>2022-04-15T12:57:00Z</time>
      </trkpt>
      <trkpt lat="43.48772" lon="6.24013">
        <ele>127</ele>
        <time>2022-04-15T12:57:01Z</time>
      </trkpt>
      <trkpt lat="43.48772" lon="6.24012">
        <ele>127</ele>
        <time>2022-04-15T12:57:02Z</time>
      </trkpt>
      <trkpt lat="43.48773" lon="6.24011">
        <ele>127</ele>
        <time>2022-04-15T12:57:03Z</time>
      </trkpt>
      <trkpt lat="43.48774" lon="6.2401">
        <ele>127</ele>
        <time>2022-04-15T12:57:04Z</time>
      </trkpt>
      <trkpt lat="43.48775" lon="6.24009">
        <ele>127</ele>
        <time>2022-04-15T12:57:05Z</time>
      </trkpt>
      <trkpt lat="43.48776" lon="6.24008">
        <ele>127</ele>
        <time>2022-04-15T12:57:06Z</time>
      </trkpt>
      <trkpt lat="43.48776" lon="6.24008">
        <ele>127</ele>
        <time>2022-04-15T12:57:07Z</time>
      </trkpt>
      <trkpt lat="43.48777" lon="6.24007">
        <ele>127</ele>
        <time>2022-04-15T12:57:08Z</time>
      </trkpt>
      <trkpt lat="43.48778" lon="6.24006">
        <ele>127</ele>
        <time>2022-04-15T12:57:09Z</time>
      </trkpt>
      <trkpt lat="43.48779" lon="6.24005">
        <ele>127</ele>
        <time>2022-04-15T12:57:10Z</time>
      </trkpt>
      <trkpt lat="43.4878" lon="6.24004">
        <ele>127</ele>
        <time>2022-04-15T12:57:11Z</time>
      </trkpt>
      <trkpt lat="43.48781" lon="6.24003">
        <ele>127</ele>
        <time>2022-04-15T12:57:12Z</time>
      </trkpt>
      <trkpt lat="43.48782" lon="6.24002">
        <ele>127</ele>
        <time>2022-04-15T12:57:13Z</time>
      </trkpt>
      <trkpt lat="43.48782" lon="6.24001">
        <ele>127</ele>
        <time>2022-04-15T12:57:14Z</time>
      </trkpt>
      <trkpt lat="43.48783" lon="6.24">
        <ele>127</ele>
        <time>2022-04-15T12:57:15Z</time>
      </trkpt>
      <trkpt lat="43.48784" lon="6.23999">
        <ele>127</ele>
        <time>2022-04-15T12:57:16Z</time>
      </trkpt>
      <trkpt lat="43.48785" lon="6.23998">
        <ele>127</ele>
        <time>2022-04-15T12:57:17Z</time>
      </trkpt>
      <trkpt lat="43.48786" lon="6.23997">
        <ele>127</ele>
        <time>2022-04-15T12:57:18Z</time>
      </trkpt>
      <trkpt lat="43.48786" lon="6.23996">
        <ele>126</ele>
        <time>2022-04-15T12:57:19Z</time>
      </trkpt>
      <trkpt lat="43.48787" lon="6.23995">
        <ele>126</ele>
        <time>2022-04-15T12:57:20Z</time>
      </trkpt>
      <trkpt lat="43.48788" lon="6.23994">
        <ele>126</ele>
        <time>2022-04-15T12:57:21Z</time>
      </trkpt>
      <trkpt lat="43.48789" lon="6.23993">
        <ele>125</ele>
        <time>2022-04-15T12:57:22Z</time>
      </trkpt>
      <trkpt lat="43.4879" lon="6.23992">
        <ele>125</ele>
        <time>2022-04-15T12:57:23Z</time>
      </trkpt>
      <trkpt lat="43.48791" lon="6.23991">
        <ele>125</ele>
        <time>2022-04-15T12:57:24Z</time>
      </trkpt>
      <trkpt lat="43.48791" lon="6.2399">
        <ele>124</ele>
        <time>2022-04-15T12:57:25Z</time>
      </trkpt>
      <trkpt lat="43.48792" lon="6.23989">
        <ele>124</ele>
        <time>2022-04-15T12:57:26Z</time>
      </trkpt>
      <trkpt lat="43.48793" lon="6.23988">
        <ele>124</ele>
        <time>2022-04-15T12:57:27Z</time>
      </trkpt>
      <trkpt lat="43.48794" lon="6.23987">
        <ele>124</ele>
        <time>2022-04-15T12:57:28Z</time>
      </trkpt>
      <trkpt lat="43.48795" lon="6.23986">
        <ele>123</ele>
        <time>2022-04-15T12:57:29Z</time>
      </trkpt>
      <trkpt lat="43.48796" lon="6.23985">
        <ele>123</ele>
        <time>2022-04-15T12:57:30Z</time>
      </trkpt>
      <trkpt lat="43.48797" lon="6.23983">
        <ele>123</ele>
        <time>2022-04-15T12:57:31Z</time>
      </trkpt>
      <trkpt lat="43.48798" lon="6.23982">
        <ele>123</ele>
        <time>2022-04-15T12:57:32Z</time>
      </trkpt>
      <trkpt lat="43.48799" lon="6.23981">
        <ele>123</ele>
        <time>2022-04-15T12:57:33Z</time>
      </trkpt>
      <trkpt lat="43.488" lon="6.2398">
        <ele>123</ele>
        <time>2022-04-15T12:57:34Z</time>
      </trkpt>
      <trkpt lat="43.488" lon="6.23979">
        <ele>123</ele>
        <time>2022-04-15T12:57:35Z</time>
      </trkpt>
      <trkpt lat="43.48801" lon="6.23978">
        <ele>122</ele>
        <time>2022-04-15T12:57:36Z</time>
      </trkpt>
      <trkpt lat="43.48802" lon="6.23977">
        <ele>122</ele>
        <time>2022-04-15T12:57:37Z</time>
      </trkpt>
      <trkpt lat="43.48803" lon="6.23975">
        <ele>122</ele>
        <time>2022-04-15T12:57:38Z</time>
      </trkpt>
      <trkpt lat="43.48803" lon="6.23974">
        <ele>122</ele>
        <time>2022-04-15T12:57:39Z</time>
      </trkpt>
      <trkpt lat="43.48804" lon="6.23973">
        <ele>122</ele>
        <time>2022-04-15T12:57:40Z</time>
      </trkpt>
      <trkpt lat="43.48804" lon="6.23971">
        <ele>122</ele>
        <time>2022-04-15T12:57:41Z</time>
      </trkpt>
      <trkpt lat="43.48804" lon="6.2397">
        <ele>122</ele>
        <time>2022-04-15T12:57:42Z</time>
      </trkpt>
      <trkpt lat="43.48804" lon="6.23969">
        <ele>122</ele>
        <time>2022-04-15T12:57:43Z</time>
      </trkpt>
      <trkpt lat="43.48803" lon="6.23968">
        <ele>121</ele>
        <time>2022-04-15T12:57:44Z</time>
      </trkpt>
      <trkpt lat="43.48803" lon="6.23967">
        <ele>121</ele>
        <time>2022-04-15T12:57:45Z</time>
      </trkpt>
      <trkpt lat="43.48803" lon="6.23965">
        <ele>121</ele>
        <time>2022-04-15T12:57:46Z</time>
      </trkpt>
      <trkpt lat="43.48803" lon="6.23964">
        <ele>121</ele>
        <time>2022-04-15T12:57:47Z</time>
      </trkpt>
      <trkpt lat="43.48803" lon="6.23963">
        <ele>121</ele>
        <time>2022-04-15T12:57:48Z</time>
      </trkpt>
      <trkpt lat="43.48803" lon="6.23961">
        <ele>121</ele>
        <time>2022-04-15T12:57:49Z</time>
      </trkpt>
      <trkpt lat="43.48803" lon="6.2396">
        <ele>120</ele>
        <time>2022-04-15T12:57:50Z</time>
      </trkpt>
      <trkpt lat="43.48803" lon="6.23959">
        <ele>119</ele>
        <time>2022-04-15T12:57:51Z</time>
      </trkpt>
      <trkpt lat="43.48803" lon="6.23958">
        <ele>119</ele>
        <time>2022-04-15T12:57:52Z</time>
      </trkpt>
      <trkpt lat="43.48803" lon="6.23958">
        <ele>119</ele>
        <time>2022-04-15T12:57:53Z</time>
      </trkpt>
      <trkpt lat="43.48803" lon="6.23957">
        <ele>119</ele>
        <time>2022-04-15T12:57:54Z</time>
      </trkpt>
      <trkpt lat="43.48803" lon="6.23957">
        <ele>119</ele>
        <time>2022-04-15T12:57:55Z</time>
      </trkpt>
      <trkpt lat="43.48804" lon="6.23957">
        <ele>119</ele>
        <time>2022-04-15T12:57:56Z</time>
      </trkpt>
      <trkpt lat="43.48805" lon="6.23958">
        <ele>119</ele>
        <time>2022-04-15T12:57:57Z</time>
      </trkpt>
      <trkpt lat="43.48805" lon="6.23958">
        <ele>119</ele>
        <time>2022-04-15T12:57:58Z</time>
      </trkpt>
      <trkpt lat="43.48806" lon="6.23958">
        <ele>119</ele>
        <time>2022-04-15T12:57:59Z</time>
      </trkpt>
      <trkpt lat="43.48806" lon="6.23959">
        <ele>119</ele>
        <time>2022-04-15T12:58:00Z</time>
      </trkpt>
      <trkpt lat="43.48806" lon="6.2396">
        <ele>119</ele>
        <time>2022-04-15T12:58:01Z</time>
      </trkpt>
      <trkpt lat="43.48807" lon="6.23962">
        <ele>119</ele>
        <time>2022-04-15T12:58:02Z</time>
      </trkpt>
      <trkpt lat="43.48807" lon="6.23964">
        <ele>119</ele>
        <time>2022-04-15T12:58:03Z</time>
      </trkpt>
      <trkpt lat="43.48808" lon="6.23964">
        <ele>119</ele>
        <time>2022-04-15T12:58:04Z</time>
      </trkpt>
      <trkpt lat="43.48808" lon="6.23964">
        <ele>119</ele>
        <time>2022-04-15T12:58:05Z</time>
      </trkpt>
      <trkpt lat="43.4881" lon="6.23963">
        <ele>119</ele>
        <time>2022-04-15T12:58:06Z</time>
      </trkpt>
      <trkpt lat="43.48811" lon="6.23963">
        <ele>119</ele>
        <time>2022-04-15T12:58:07Z</time>
      </trkpt>
      <trkpt lat="43.48812" lon="6.23963">
        <ele>119</ele>
        <time>2022-04-15T12:58:08Z</time>
      </trkpt>
      <trkpt lat="43.48813" lon="6.23963">
        <ele>119</ele>
        <time>2022-04-15T12:58:09Z</time>
      </trkpt>
      <trkpt lat="43.48814" lon="6.23963">
        <ele>119</ele>
        <time>2022-04-15T12:58:10Z</time>
      </trkpt>
      <trkpt lat="43.48814" lon="6.23963">
        <ele>119</ele>
        <time>2022-04-15T12:58:11Z</time>
      </trkpt>
      <trkpt lat="43.48815" lon="6.23962">
        <ele>119</ele>
        <time>2022-04-15T12:58:12Z</time>
      </trkpt>
      <trkpt lat="43.48815" lon="6.23962">
        <ele>119</ele>
        <time>2022-04-15T12:58:13Z</time>
      </trkpt>
      <trkpt lat="43.48816" lon="6.23963">
        <ele>119</ele>
        <time>2022-04-15T12:58:14Z</time>
      </trkpt>
      <trkpt lat="43.48817" lon="6.23963">
        <ele>119</ele>
        <time>2022-04-15T12:58:15Z</time>
      </trkpt>
      <trkpt lat="43.48818" lon="6.23963">
        <ele>119</ele>
        <time>2022-04-15T12:58:16Z</time>
      </trkpt>
      <trkpt lat="43.48819" lon="6.23963">
        <ele>119</ele>
        <time>2022-04-15T12:58:17Z</time>
      </trkpt>
      <trkpt lat="43.4882" lon="6.23963">
        <ele>119</ele>
        <time>2022-04-15T12:58:18Z</time>
      </trkpt>
      <trkpt lat="43.48821" lon="6.23963">
        <ele>119</ele>
        <time>2022-04-15T12:58:19Z</time>
      </trkpt>
      <trkpt lat="43.48822" lon="6.23963">
        <ele>119</ele>
        <time>2022-04-15T12:58:20Z</time>
      </trkpt>
      <trkpt lat="43.48824" lon="6.23963">
        <ele>119</ele>
        <time>2022-04-15T12:58:21Z</time>
      </trkpt>
      <trkpt lat="43.48825" lon="6.23963">
        <ele>119</ele>
        <time>2022-04-15T12:58:22Z</time>
      </trkpt>
      <trkpt lat="43.48826" lon="6.23963">
        <ele>119</ele>
        <time>2022-04-15T12:58:23Z</time>
      </trkpt>
      <trkpt lat="43.48827" lon="6.23962">
        <ele>120</ele>
        <time>2022-04-15T12:58:24Z</time>
      </trkpt>
      <trkpt lat="43.48829" lon="6.23962">
        <ele>120</ele>
        <time>2022-04-15T12:58:25Z</time>
      </trkpt>
      <trkpt lat="43.4883" lon="6.23962">
        <ele>121</ele>
        <time>2022-04-15T12:58:26Z</time>
      </trkpt>
      <trkpt lat="43.4883" lon="6.23961">
        <ele>122</ele>
        <time>2022-04-15T12:58:27Z</time>
      </trkpt>
      <trkpt lat="43.48831" lon="6.23961">
        <ele>122</ele>
        <time>2022-04-15T12:58:28Z</time>
      </trkpt>
      <trkpt lat="43.48832" lon="6.23961">
        <ele>122</ele>
        <time>2022-04-15T12:58:29Z</time>
      </trkpt>
      <trkpt lat="43.48833" lon="6.2396">
        <ele>122</ele>
        <time>2022-04-15T12:58:30Z</time>
      </trkpt>
      <trkpt lat="43.48834" lon="6.23959">
        <ele>122</ele>
        <time>2022-04-15T12:58:31Z</time>
      </trkpt>
      <trkpt lat="43.48836" lon="6.23959">
        <ele>122</ele>
        <time>2022-04-15T12:58:32Z</time>
      </trkpt>
      <trkpt lat="43.48838" lon="6.23958">
        <ele>123</ele>
        <time>2022-04-15T12:58:33Z</time>
      </trkpt>
      <trkpt lat="43.48839" lon="6.23958">
        <ele>123</ele>
        <time>2022-04-15T12:58:34Z</time>
      </trkpt>
      <trkpt lat="43.48841" lon="6.23957">
        <ele>123</ele>
        <time>2022-04-15T12:58:35Z</time>
      </trkpt>
      <trkpt lat="43.48842" lon="6.23957">
        <ele>123</ele>
        <time>2022-04-15T12:58:36Z</time>
      </trkpt>
      <trkpt lat="43.48843" lon="6.23956">
        <ele>123</ele>
        <time>2022-04-15T12:58:37Z</time>
      </trkpt>
      <trkpt lat="43.48843" lon="6.23956">
        <ele>123</ele>
        <time>2022-04-15T12:58:38Z</time>
      </trkpt>
      <trkpt lat="43.48844" lon="6.23956">
        <ele>123</ele>
        <time>2022-04-15T12:58:39Z</time>
      </trkpt>
      <trkpt lat="43.48844" lon="6.23956">
        <ele>123</ele>
        <time>2022-04-15T12:58:40Z</time>
      </trkpt>
      <trkpt lat="43.48845" lon="6.23955">
        <ele>123</ele>
        <time>2022-04-15T12:58:41Z</time>
      </trkpt>
      <trkpt lat="43.48846" lon="6.23955">
        <ele>123</ele>
        <time>2022-04-15T12:58:42Z</time>
      </trkpt>
      <trkpt lat="43.48849" lon="6.23953">
        <ele>123</ele>
        <time>2022-04-15T12:58:43Z</time>
      </trkpt>
      <trkpt lat="43.48851" lon="6.23952">
        <ele>123</ele>
        <time>2022-04-15T12:58:44Z</time>
      </trkpt>
      <trkpt lat="43.48853" lon="6.23951">
        <ele>123</ele>
        <time>2022-04-15T12:58:45Z</time>
      </trkpt>
      <trkpt lat="43.48855" lon="6.2395">
        <ele>123</ele>
        <time>2022-04-15T12:58:46Z</time>
      </trkpt>
      <trkpt lat="43.48856" lon="6.23949">
        <ele>123</ele>
        <time>2022-04-15T12:58:47Z</time>
      </trkpt>
      <trkpt lat="43.48858" lon="6.23949">
        <ele>123</ele>
        <time>2022-04-15T12:58:48Z</time>
      </trkpt>
      <trkpt lat="43.48859" lon="6.23948">
        <ele>123</ele>
        <time>2022-04-15T12:58:49Z</time>
      </trkpt>
      <trkpt lat="43.4886" lon="6.23947">
        <ele>123</ele>
        <time>2022-04-15T12:58:50Z</time>
      </trkpt>
      <trkpt lat="43.48861" lon="6.23946">
        <ele>123</ele>
        <time>2022-04-15T12:58:51Z</time>
      </trkpt>
      <trkpt lat="43.48863" lon="6.23945">
        <ele>123</ele>
        <time>2022-04-15T12:58:52Z</time>
      </trkpt>
      <trkpt lat="43.48864" lon="6.23944">
        <ele>123</ele>
        <time>2022-04-15T12:58:53Z</time>
      </trkpt>
      <trkpt lat="43.48865" lon="6.23943">
        <ele>123</ele>
        <time>2022-04-15T12:58:54Z</time>
      </trkpt>
      <trkpt lat="43.48866" lon="6.23942">
        <ele>123</ele>
        <time>2022-04-15T12:58:55Z</time>
      </trkpt>
      <trkpt lat="43.48867" lon="6.23942">
        <ele>123</ele>
        <time>2022-04-15T12:58:56Z</time>
      </trkpt>
      <trkpt lat="43.48868" lon="6.23941">
        <ele>123</ele>
        <time>2022-04-15T12:58:57Z</time>
      </trkpt>
      <trkpt lat="43.48869" lon="6.2394">
        <ele>123</ele>
        <time>2022-04-15T12:58:58Z</time>
      </trkpt>
      <trkpt lat="43.4887" lon="6.2394">
        <ele>123</ele>
        <time>2022-04-15T12:58:59Z</time>
      </trkpt>
      <trkpt lat="43.48871" lon="6.23939">
        <ele>123</ele>
        <time>2022-04-15T12:59:00Z</time>
      </trkpt>
      <trkpt lat="43.48872" lon="6.23939">
        <ele>123</ele>
        <time>2022-04-15T12:59:01Z</time>
      </trkpt>
      <trkpt lat="43.48873" lon="6.23938">
        <ele>123</ele>
        <time>2022-04-15T12:59:02Z</time>
      </trkpt>
      <trkpt lat="43.48875" lon="6.23938">
        <ele>123</ele>
        <time>2022-04-15T12:59:03Z</time>
      </trkpt>
      <trkpt lat="43.48876" lon="6.23937">
        <ele>123</ele>
        <time>2022-04-15T12:59:04Z</time>
      </trkpt>
      <trkpt lat="43.48877" lon="6.23937">
        <ele>123</ele>
        <time>2022-04-15T12:59:05Z</time>
      </trkpt>
      <trkpt lat="43.48878" lon="6.23936">
        <ele>123</ele>
        <time>2022-04-15T12:59:06Z</time>
      </trkpt>
      <trkpt lat="43.48879" lon="6.23936">
        <ele>122</ele>
        <time>2022-04-15T12:59:07Z</time>
      </trkpt>
      <trkpt lat="43.4888" lon="6.23936">
        <ele>122</ele>
        <time>2022-04-15T12:59:08Z</time>
      </trkpt>
      <trkpt lat="43.48881" lon="6.23936">
        <ele>121</ele>
        <time>2022-04-15T12:59:09Z</time>
      </trkpt>
      <trkpt lat="43.48882" lon="6.23935">
        <ele>121</ele>
        <time>2022-04-15T12:59:10Z</time>
      </trkpt>
      <trkpt lat="43.48883" lon="6.23935">
        <ele>121</ele>
        <time>2022-04-15T12:59:11Z</time>
      </trkpt>
      <trkpt lat="43.48884" lon="6.23935">
        <ele>121</ele>
        <time>2022-04-15T12:59:12Z</time>
      </trkpt>
      <trkpt lat="43.48885" lon="6.23934">
        <ele>121</ele>
        <time>2022-04-15T12:59:13Z</time>
      </trkpt>
      <trkpt lat="43.48887" lon="6.23934">
        <ele>121</ele>
        <time>2022-04-15T12:59:14Z</time>
      </trkpt>
      <trkpt lat="43.48888" lon="6.23934">
        <ele>120</ele>
        <time>2022-04-15T12:59:15Z</time>
      </trkpt>
      <trkpt lat="43.48889" lon="6.23933">
        <ele>120</ele>
        <time>2022-04-15T12:59:16Z</time>
      </trkpt>
      <trkpt lat="43.4889" lon="6.23933">
        <ele>120</ele>
        <time>2022-04-15T12:59:17Z</time>
      </trkpt>
      <trkpt lat="43.48891" lon="6.23932">
        <ele>120</ele>
        <time>2022-04-15T12:59:18Z</time>
      </trkpt>
      <trkpt lat="43.48893" lon="6.23932">
        <ele>120</ele>
        <time>2022-04-15T12:59:19Z</time>
      </trkpt>
      <trkpt lat="43.48894" lon="6.23932">
        <ele>120</ele>
        <time>2022-04-15T12:59:20Z</time>
      </trkpt>
      <trkpt lat="43.48895" lon="6.23931">
        <ele>120</ele>
        <time>2022-04-15T12:59:21Z</time>
      </trkpt>
      <trkpt lat="43.48896" lon="6.23931">
        <ele>120</ele>
        <time>2022-04-15T12:59:22Z</time>
      </trkpt>
      <trkpt lat="43.48897" lon="6.23931">
        <ele>120</ele>
        <time>2022-04-15T12:59:23Z</time>
      </trkpt>
      <trkpt lat="43.48897" lon="6.23931">
        <ele>119</ele>
        <time>2022-04-15T12:59:24Z</time>
      </trkpt>
      <trkpt lat="43.48898" lon="6.23931">
        <ele>119</ele>
        <time>2022-04-15T12:59:25Z</time>
      </trkpt>
      <trkpt lat="43.48899" lon="6.2393">
        <ele>119</ele>
        <time>2022-04-15T12:59:26Z</time>
      </trkpt>
      <trkpt lat="43.489" lon="6.2393">
        <ele>119</ele>
        <time>2022-04-15T12:59:27Z</time>
      </trkpt>
      <trkpt lat="43.489" lon="6.2393">
        <ele>119</ele>
        <time>2022-04-15T12:59:28Z</time>
      </trkpt>
      <trkpt lat="43.48901" lon="6.2393">
        <ele>119</ele>
        <time>2022-04-15T12:59:29Z</time>
      </trkpt>
      <trkpt lat="43.48902" lon="6.2393">
        <ele>119</ele>
        <time>2022-04-15T12:59:30Z</time>
      </trkpt>
      <trkpt lat="43.48902" lon="6.23929">
        <ele>119</ele>
        <time>2022-04-15T12:59:31Z</time>
      </trkpt>
      <trkpt lat="43.48903" lon="6.23929">
        <ele>119</ele>
        <time>2022-04-15T12:59:32Z</time>
      </trkpt>
      <trkpt lat="43.48904" lon="6.23929">
        <ele>119</ele>
        <time>2022-04-15T12:59:33Z</time>
      </trkpt>
      <trkpt lat="43.48905" lon="6.23929">
        <ele>119</ele>
        <time>2022-04-15T12:59:34Z</time>
      </trkpt>
      <trkpt lat="43.48906" lon="6.23929">
        <ele>119</ele>
        <time>2022-04-15T12:59:35Z</time>
      </trkpt>
      <trkpt lat="43.48908" lon="6.23928">
        <ele>119</ele>
        <time>2022-04-15T12:59:36Z</time>
      </trkpt>
      <trkpt lat="43.4891" lon="6.23928">
        <ele>119</ele>
        <time>2022-04-15T12:59:37Z</time>
      </trkpt>
      <trkpt lat="43.48911" lon="6.23927">
        <ele>120</ele>
        <time>2022-04-15T12:59:38Z</time>
      </trkpt>
      <trkpt lat="43.48912" lon="6.23927">
        <ele>120</ele>
        <time>2022-04-15T12:59:39Z</time>
      </trkpt>
      <trkpt lat="43.48913" lon="6.23927">
        <ele>120</ele>
        <time>2022-04-15T12:59:40Z</time>
      </trkpt>
      <trkpt lat="43.48913" lon="6.23927">
        <ele>120</ele>
        <time>2022-04-15T12:59:41Z</time>
      </trkpt>
      <trkpt lat="43.48914" lon="6.23927">
        <ele>121</ele>
        <time>2022-04-15T12:59:42Z</time>
      </trkpt>
      <trkpt lat="43.48915" lon="6.23927">
        <ele>121</ele>
        <time>2022-04-15T12:59:43Z</time>
      </trkpt>
      <trkpt lat="43.48915" lon="6.23928">
        <ele>121</ele>
        <time>2022-04-15T12:59:44Z</time>
      </trkpt>
      <trkpt lat="43.48916" lon="6.23928">
        <ele>121</ele>
        <time>2022-04-15T12:59:45Z</time>
      </trkpt>
      <trkpt lat="43.48917" lon="6.23928">
        <ele>121</ele>
        <time>2022-04-15T12:59:46Z</time>
      </trkpt>
      <trkpt lat="43.48917" lon="6.23928">
        <ele>122</ele>
        <time>2022-04-15T12:59:47Z</time>
      </trkpt>
      <trkpt lat="43.48918" lon="6.23928">
        <ele>122</ele>
        <time>2022-04-15T12:59:48Z</time>
      </trkpt>
      <trkpt lat="43.48918" lon="6.23928">
        <ele>122</ele>
        <time>2022-04-15T12:59:49Z</time>
      </trkpt>
      <trkpt lat="43.48918" lon="6.23928">
        <ele>122</ele>
        <time>2022-04-15T12:59:50Z</time>
      </trkpt>
      <trkpt lat="43.48919" lon="6.23928">
        <ele>122</ele>
        <time>2022-04-15T12:59:51Z</time>
      </trkpt>
      <trkpt lat="43.48919" lon="6.23928">
        <ele>122</ele>
        <time>2022-04-15T12:59:52Z</time>
      </trkpt>
      <trkpt lat="43.4892" lon="6.23928">
        <ele>122</ele>
        <time>2022-04-15T12:59:53Z</time>
      </trkpt>
      <trkpt lat="43.4892" lon="6.23928">
        <ele>122</ele>
        <time>2022-04-15T12:59:54Z</time>
      </trkpt>
      <trkpt lat="43.48921" lon="6.23927">
        <ele>122</ele>
        <time>2022-04-15T12:59:55Z</time>
      </trkpt>
      <trkpt lat="43.48922" lon="6.23927">
        <ele>122</ele>
        <time>2022-04-15T12:59:56Z</time>
      </trkpt>
      <trkpt lat="43.48923" lon="6.23927">
        <ele>122</ele>
        <time>2022-04-15T12:59:57Z</time>
      </trkpt>
      <trkpt lat="43.48924" lon="6.23926">
        <ele>122</ele>
        <time>2022-04-15T12:59:58Z</time>
      </trkpt>
      <trkpt lat="43.48925" lon="6.23926">
        <ele>122</ele>
        <time>2022-04-15T12:59:59Z</time>
      </trkpt>
      <trkpt lat="43.48926" lon="6.23926">
        <ele>122</ele>
        <time>2022-04-15T13:00:00Z</time>
      </trkpt>
      <trkpt lat="43.48927" lon="6.23925">
        <ele>123</ele>
        <time>2022-04-15T13:00:01Z</time>
      </trkpt>
      <trkpt lat="43.48928" lon="6.23925">
        <ele>123</ele>
        <time>2022-04-15T13:00:02Z</time>
      </trkpt>
      <trkpt lat="43.48929" lon="6.23925">
        <ele>123</ele>
        <time>2022-04-15T13:00:03Z</time>
      </trkpt>
      <trkpt lat="43.4893" lon="6.23925">
        <ele>123</ele>
        <time>2022-04-15T13:00:04Z</time>
      </trkpt>
      <trkpt lat="43.4893" lon="6.23925">
        <ele>123</ele>
        <time>2022-04-15T13:00:05Z</time>
      </trkpt>
      <trkpt lat="43.4893" lon="6.23925">
        <ele>123</ele>
        <time>2022-04-15T13:00:06Z</time>
      </trkpt>
      <trkpt lat="43.48931" lon="6.23924">
        <ele>123</ele>
        <time>2022-04-15T13:00:07Z</time>
      </trkpt>
      <trkpt lat="43.48931" lon="6.23924">
        <ele>123</ele>
        <time>2022-04-15T13:00:08Z</time>
      </trkpt>
      <trkpt lat="43.48932" lon="6.23924">
        <ele>123</ele>
        <time>2022-04-15T13:00:09Z</time>
      </trkpt>
      <trkpt lat="43.48933" lon="6.23923">
        <ele>123</ele>
        <time>2022-04-15T13:00:10Z</time>
      </trkpt>
      <trkpt lat="43.48934" lon="6.23923">
        <ele>123</ele>
        <time>2022-04-15T13:00:11Z</time>
      </trkpt>
      <trkpt lat="43.48936" lon="6.23922">
        <ele>123</ele>
        <time>2022-04-15T13:00:12Z</time>
      </trkpt>
      <trkpt lat="43.48937" lon="6.23922">
        <ele>123</ele>
        <time>2022-04-15T13:00:13Z</time>
      </trkpt>
      <trkpt lat="43.48938" lon="6.23921">
        <ele>123</ele>
        <time>2022-04-15T13:00:14Z</time>
      </trkpt>
      <trkpt lat="43.48939" lon="6.2392">
        <ele>123</ele>
        <time>2022-04-15T13:00:15Z</time>
      </trkpt>
      <trkpt lat="43.48941" lon="6.2392">
        <ele>123</ele>
        <time>2022-04-15T13:00:16Z</time>
      </trkpt>
      <trkpt lat="43.48942" lon="6.23919">
        <ele>123</ele>
        <time>2022-04-15T13:00:17Z</time>
      </trkpt>
      <trkpt lat="43.48943" lon="6.23919">
        <ele>123</ele>
        <time>2022-04-15T13:00:18Z</time>
      </trkpt>
      <trkpt lat="43.48944" lon="6.23918">
        <ele>123</ele>
        <time>2022-04-15T13:00:19Z</time>
      </trkpt>
      <trkpt lat="43.48946" lon="6.23918">
        <ele>122</ele>
        <time>2022-04-15T13:00:20Z</time>
      </trkpt>
      <trkpt lat="43.48947" lon="6.23917">
        <ele>122</ele>
        <time>2022-04-15T13:00:21Z</time>
      </trkpt>
      <trkpt lat="43.48948" lon="6.23917">
        <ele>122</ele>
        <time>2022-04-15T13:00:22Z</time>
      </trkpt>
      <trkpt lat="43.48949" lon="6.23916">
        <ele>122</ele>
        <time>2022-04-15T13:00:23Z</time>
      </trkpt>
      <trkpt lat="43.48951" lon="6.23916">
        <ele>122</ele>
        <time>2022-04-15T13:00:24Z</time>
      </trkpt>
      <trkpt lat="43.48951" lon="6.23915">
        <ele>122</ele>
        <time>2022-04-15T13:00:25Z</time>
      </trkpt>
      <trkpt lat="43.48952" lon="6.23915">
        <ele>121</ele>
        <time>2022-04-15T13:00:26Z</time>
      </trkpt>
      <trkpt lat="43.48953" lon="6.23915">
        <ele>121</ele>
        <time>2022-04-15T13:00:27Z</time>
      </trkpt>
      <trkpt lat="43.48953" lon="6.23914">
        <ele>121</ele>
        <time>2022-04-15T13:00:28Z</time>
      </trkpt>
      <trkpt lat="43.48954" lon="6.23914">
        <ele>121</ele>
        <time>2022-04-15T13:00:29Z</time>
      </trkpt>
      <trkpt lat="43.48955" lon="6.23913">
        <ele>121</ele>
        <time>2022-04-15T13:00:30Z</time>
      </trkpt>
      <trkpt lat="43.48956" lon="6.23913">
        <ele>121</ele>
        <time>2022-04-15T13:00:31Z</time>
      </trkpt>
      <trkpt lat="43.48956" lon="6.23913">
        <ele>122</ele>
        <time>2022-04-15T13:00:32Z</time>
      </trkpt>
      <trkpt lat="43.48957" lon="6.23912">
        <ele>122</ele>
        <time>2022-04-15T13:00:33Z</time>
      </trkpt>
      <trkpt lat="43.48958" lon="6.23912">
        <ele>122</ele>
        <time>2022-04-15T13:00:34Z</time>
      </trkpt>
      <trkpt lat="43.4896" lon="6.23911">
        <ele>122</ele>
        <time>2022-04-15T13:00:35Z</time>
      </trkpt>
      <trkpt lat="43.48962" lon="6.2391">
        <ele>122</ele>
        <time>2022-04-15T13:00:36Z</time>
      </trkpt>
      <trkpt lat="43.48963" lon="6.2391">
        <ele>122</ele>
        <time>2022-04-15T13:00:37Z</time>
      </trkpt>
      <trkpt lat="43.48964" lon="6.23909">
        <ele>122</ele>
        <time>2022-04-15T13:00:38Z</time>
      </trkpt>
      <trkpt lat="43.48966" lon="6.23908">
        <ele>122</ele>
        <time>2022-04-15T13:00:39Z</time>
      </trkpt>
      <trkpt lat="43.48967" lon="6.23907">
        <ele>122</ele>
        <time>2022-04-15T13:00:40Z</time>
      </trkpt>
      <trkpt lat="43.48968" lon="6.23907">
        <ele>122</ele>
        <time>2022-04-15T13:00:41Z</time>
      </trkpt>
      <trkpt lat="43.4897" lon="6.23906">
        <ele>122</ele>
        <time>2022-04-15T13:00:42Z</time>
      </trkpt>
      <trkpt lat="43.48971" lon="6.23906">
        <ele>122</ele>
        <time>2022-04-15T13:00:43Z</time>
      </trkpt>
      <trkpt lat="43.48972" lon="6.23905">
        <ele>122</ele>
        <time>2022-04-15T13:00:44Z</time>
      </trkpt>
      <trkpt lat="43.48973" lon="6.23904">
        <ele>122</ele>
        <time>2022-04-15T13:00:45Z</time>
      </trkpt>
      <trkpt lat="43.48974" lon="6.23904">
        <ele>122</ele>
        <time>2022-04-15T13:00:46Z</time>
      </trkpt>
      <trkpt lat="43.48975" lon="6.23903">
        <ele>122</ele>
        <time>2022-04-15T13:00:47Z</time>
      </trkpt>
      <trkpt lat="43.48977" lon="6.23903">
        <ele>122</ele>
        <time>2022-04-15T13:00:48Z</time>
      </trkpt>
      <trkpt lat="43.48978" lon="6.23902">
        <ele>122</ele>
        <time>2022-04-15T13:00:49Z</time>
      </trkpt>
      <trkpt lat="43.48979" lon="6.23902">
        <ele>122</ele>
        <time>2022-04-15T13:00:50Z</time>
      </trkpt>
      <trkpt lat="43.4898" lon="6.23901">
        <ele>122</ele>
        <time>2022-04-15T13:00:51Z</time>
      </trkpt>
      <trkpt lat="43.4898" lon="6.23901">
        <ele>123</ele>
        <time>2022-04-15T13:00:52Z</time>
      </trkpt>
      <trkpt lat="43.48981" lon="6.23901">
        <ele>123</ele>
        <time>2022-04-15T13:00:53Z</time>
      </trkpt>
      <trkpt lat="43.48981" lon="6.23901">
        <ele>123</ele>
        <time>2022-04-15T13:00:54Z</time>
      </trkpt>
      <trkpt lat="43.48982" lon="6.23901">
        <ele>123</ele>
        <time>2022-04-15T13:00:55Z</time>
      </trkpt>
      <trkpt lat="43.48983" lon="6.239">
        <ele>123</ele>
        <time>2022-04-15T13:00:56Z</time>
      </trkpt>
      <trkpt lat="43.48985" lon="6.239">
        <ele>123</ele>
        <time>2022-04-15T13:00:57Z</time>
      </trkpt>
      <trkpt lat="43.48987" lon="6.23899">
        <ele>123</ele>
        <time>2022-04-15T13:00:58Z</time>
      </trkpt>
      <trkpt lat="43.48989" lon="6.23899">
        <ele>123</ele>
        <time>2022-04-15T13:00:59Z</time>
      </trkpt>
      <trkpt lat="43.4899" lon="6.23898">
        <ele>123</ele>
        <time>2022-04-15T13:01:00Z</time>
      </trkpt>
      <trkpt lat="43.48992" lon="6.23898">
        <ele>123</ele>
        <time>2022-04-15T13:01:01Z</time>
      </trkpt>
      <trkpt lat="43.48993" lon="6.23898">
        <ele>123</ele>
        <time>2022-04-15T13:01:02Z</time>
      </trkpt>
      <trkpt lat="43.48994" lon="6.23898">
        <ele>123</ele>
        <time>2022-04-15T13:01:03Z</time>
      </trkpt>
      <trkpt lat="43.48996" lon="6.23898">
        <ele>123</ele>
        <time>2022-04-15T13:01:04Z</time>
      </trkpt>
      <trkpt lat="43.48997" lon="6.23897">
        <ele>123</ele>
        <time>2022-04-15T13:01:05Z</time>
      </trkpt>
      <trkpt lat="43.48998" lon="6.23897">
        <ele>123</ele>
        <time>2022-04-15T13:01:06Z</time>
      </trkpt>
      <trkpt lat="43.48999" lon="6.23897">
        <ele>123</ele>
        <time>2022-04-15T13:01:07Z</time>
      </trkpt>
      <trkpt lat="43.49" lon="6.23897">
        <ele>123</ele>
        <time>2022-04-15T13:01:08Z</time>
      </trkpt>
      <trkpt lat="43.49001" lon="6.23897">
        <ele>124</ele>
        <time>2022-04-15T13:01:09Z</time>
      </trkpt>
      <trkpt lat="43.49002" lon="6.23897">
        <ele>124</ele>
        <time>2022-04-15T13:01:10Z</time>
      </trkpt>
      <trkpt lat="43.49003" lon="6.23897">
        <ele>124</ele>
        <time>2022-04-15T13:01:11Z</time>
      </trkpt>
      <trkpt lat="43.49004" lon="6.23896">
        <ele>124</ele>
        <time>2022-04-15T13:01:12Z</time>
      </trkpt>
      <trkpt lat="43.49005" lon="6.23896">
        <ele>124</ele>
        <time>2022-04-15T13:01:13Z</time>
      </trkpt>
      <trkpt lat="43.49006" lon="6.23896">
        <ele>124</ele>
        <time>2022-04-15T13:01:14Z</time>
      </trkpt>
      <trkpt lat="43.49007" lon="6.23896">
        <ele>124</ele>
        <time>2022-04-15T13:01:15Z</time>
      </trkpt>
      <trkpt lat="43.49008" lon="6.23895">
        <ele>124</ele>
        <time>2022-04-15T13:01:16Z</time>
      </trkpt>
      <trkpt lat="43.49009" lon="6.23895">
        <ele>124</ele>
        <time>2022-04-15T13:01:17Z</time>
      </trkpt>
      <trkpt lat="43.4901" lon="6.23895">
        <ele>124</ele>
        <time>2022-04-15T13:01:18Z</time>
      </trkpt>
      <trkpt lat="43.49011" lon="6.23895">
        <ele>124</ele>
        <time>2022-04-15T13:01:19Z</time>
      </trkpt>
      <trkpt lat="43.49012" lon="6.23894">
        <ele>124</ele>
        <time>2022-04-15T13:01:20Z</time>
      </trkpt>
      <trkpt lat="43.49013" lon="6.23894">
        <ele>125</ele>
        <time>2022-04-15T13:01:21Z</time>
      </trkpt>
      <trkpt lat="43.49014" lon="6.23894">
        <ele>126</ele>
        <time>2022-04-15T13:01:22Z</time>
      </trkpt>
      <trkpt lat="43.49014" lon="6.23894">
        <ele>126</ele>
        <time>2022-04-15T13:01:23Z</time>
      </trkpt>
      <trkpt lat="43.49015" lon="6.23893">
        <ele>126</ele>
        <time>2022-04-15T13:01:24Z</time>
      </trkpt>
      <trkpt lat="43.49015" lon="6.23893">
        <ele>126</ele>
        <time>2022-04-15T13:01:25Z</time>
      </trkpt>
      <trkpt lat="43.49016" lon="6.23893">
        <ele>126</ele>
        <time>2022-04-15T13:01:26Z</time>
      </trkpt>
      <trkpt lat="43.49017" lon="6.23892">
        <ele>126</ele>
        <time>2022-04-15T13:01:27Z</time>
      </trkpt>
      <trkpt lat="43.49019" lon="6.23892">
        <ele>126</ele>
        <time>2022-04-15T13:01:28Z</time>
      </trkpt>
      <trkpt lat="43.49021" lon="6.23891">
        <ele>126</ele>
        <time>2022-04-15T13:01:29Z</time>
      </trkpt>
      <trkpt lat="43.49022" lon="6.2389">
        <ele>126</ele>
        <time>2022-04-15T13:01:30Z</time>
      </trkpt>
      <trkpt lat="43.49024" lon="6.2389">
        <ele>126</ele>
        <time>2022-04-15T13:01:31Z</time>
      </trkpt>
      <trkpt lat="43.49025" lon="6.23889">
        <ele>126</ele>
        <time>2022-04-15T13:01:32Z</time>
      </trkpt>
      <trkpt lat="43.49026" lon="6.23889">
        <ele>126</ele>
        <time>2022-04-15T13:01:33Z</time>
      </trkpt>
      <trkpt lat="43.49028" lon="6.23888">
        <ele>126</ele>
        <time>2022-04-15T13:01:34Z</time>
      </trkpt>
      <trkpt lat="43.49029" lon="6.23888">
        <ele>126</ele>
        <time>2022-04-15T13:01:35Z</time>
      </trkpt>
      <trkpt lat="43.4903" lon="6.23888">
        <ele>126</ele>
        <time>2022-04-15T13:01:36Z</time>
      </trkpt>
      <trkpt lat="43.49032" lon="6.23888">
        <ele>126</ele>
        <time>2022-04-15T13:01:37Z</time>
      </trkpt>
      <trkpt lat="43.49033" lon="6.23887">
        <ele>126</ele>
        <time>2022-04-15T13:01:38Z</time>
      </trkpt>
      <trkpt lat="43.49034" lon="6.23887">
        <ele>126</ele>
        <time>2022-04-15T13:01:39Z</time>
      </trkpt>
      <trkpt lat="43.49036" lon="6.23887">
        <ele>126</ele>
        <time>2022-04-15T13:01:40Z</time>
      </trkpt>
      <trkpt lat="43.49037" lon="6.23887">
        <ele>126</ele>
        <time>2022-04-15T13:01:41Z</time>
      </trkpt>
      <trkpt lat="43.49038" lon="6.23886">
        <ele>126</ele>
        <time>2022-04-15T13:01:42Z</time>
      </trkpt>
      <trkpt lat="43.4904" lon="6.23886">
        <ele>126</ele>
        <time>2022-04-15T13:01:43Z</time>
      </trkpt>
      <trkpt lat="43.49041" lon="6.23885">
        <ele>126</ele>
        <time>2022-04-15T13:01:44Z</time>
      </trkpt>
      <trkpt lat="43.49042" lon="6.23885">
        <ele>126</ele>
        <time>2022-04-15T13:01:45Z</time>
      </trkpt>
      <trkpt lat="43.49044" lon="6.23885">
        <ele>126</ele>
        <time>2022-04-15T13:01:46Z</time>
      </trkpt>
      <trkpt lat="43.49045" lon="6.23885">
        <ele>126</ele>
        <time>2022-04-15T13:01:47Z</time>
      </trkpt>
      <trkpt lat="43.49046" lon="6.23884">
        <ele>127</ele>
        <time>2022-04-15T13:01:48Z</time>
      </trkpt>
      <trkpt lat="43.49047" lon="6.23884">
        <ele>127</ele>
        <time>2022-04-15T13:01:49Z</time>
      </trkpt>
      <trkpt lat="43.49049" lon="6.23884">
        <ele>127</ele>
        <time>2022-04-15T13:01:50Z</time>
      </trkpt>
      <trkpt lat="43.4905" lon="6.23884">
        <ele>127</ele>
        <time>2022-04-15T13:01:51Z</time>
      </trkpt>
      <trkpt lat="43.49051" lon="6.23883">
        <ele>127</ele>
        <time>2022-04-15T13:01:52Z</time>
      </trkpt>
      <trkpt lat="43.49052" lon="6.23883">
        <ele>127</ele>
        <time>2022-04-15T13:01:53Z</time>
      </trkpt>
      <trkpt lat="43.49053" lon="6.23883">
        <ele>127</ele>
        <time>2022-04-15T13:01:54Z</time>
      </trkpt>
      <trkpt lat="43.49055" lon="6.23883">
        <ele>127</ele>
        <time>2022-04-15T13:01:55Z</time>
      </trkpt>
      <trkpt lat="43.49056" lon="6.23882">
        <ele>127</ele>
        <time>2022-04-15T13:01:56Z</time>
      </trkpt>
      <trkpt lat="43.49057" lon="6.23882">
        <ele>127</ele>
        <time>2022-04-15T13:01:57Z</time>
      </trkpt>
      <trkpt lat="43.49058" lon="6.23882">
        <ele>127</ele>
        <time>2022-04-15T13:01:58Z</time>
      </trkpt>
      <trkpt lat="43.4906" lon="6.23881">
        <ele>127</ele>
        <time>2022-04-15T13:01:59Z</time>
      </trkpt>
      <trkpt lat="43.49061" lon="6.23881">
        <ele>127</ele>
        <time>2022-04-15T13:02:00Z</time>
      </trkpt>
      <trkpt lat="43.49062" lon="6.23881">
        <ele>127</ele>
        <time>2022-04-15T13:02:01Z</time>
      </trkpt>
      <trkpt lat="43.49063" lon="6.23881">
        <ele>127</ele>
        <time>2022-04-15T13:02:02Z</time>
      </trkpt>
      <trkpt lat="43.49063" lon="6.23881">
        <ele>127</ele>
        <time>2022-04-15T13:02:03Z</time>
      </trkpt>
      <trkpt lat="43.49064" lon="6.23881">
        <ele>127</ele>
        <time>2022-04-15T13:02:04Z</time>
      </trkpt>
      <trkpt lat="43.49064" lon="6.23881">
        <ele>127</ele>
        <time>2022-04-15T13:02:05Z</time>
      </trkpt>
      <trkpt lat="43.49065" lon="6.23881">
        <ele>127</ele>
        <time>2022-04-15T13:02:06Z</time>
      </trkpt>
      <trkpt lat="43.49065" lon="6.23881">
        <ele>127</ele>
        <time>2022-04-15T13:02:07Z</time>
      </trkpt>
      <trkpt lat="43.49067" lon="6.23881">
        <ele>127</ele>
        <time>2022-04-15T13:02:08Z</time>
      </trkpt>
      <trkpt lat="43.49069" lon="6.23881">
        <ele>127</ele>
        <time>2022-04-15T13:02:09Z</time>
      </trkpt>
      <trkpt lat="43.49072" lon="6.23882">
        <ele>127</ele>
        <time>2022-04-15T13:02:10Z</time>
      </trkpt>
      <trkpt lat="43.49074" lon="6.23882">
        <ele>127</ele>
        <time>2022-04-15T13:02:11Z</time>
      </trkpt>
      <trkpt lat="43.49076" lon="6.23883">
        <ele>127</ele>
        <time>2022-04-15T13:02:12Z</time>
      </trkpt>
      <trkpt lat="43.49078" lon="6.23883">
        <ele>127</ele>
        <time>2022-04-15T13:02:13Z</time>
      </trkpt>
      <trkpt lat="43.4908" lon="6.23884">
        <ele>127</ele>
        <time>2022-04-15T13:02:14Z</time>
      </trkpt>
      <trkpt lat="43.49082" lon="6.23884">
        <ele>127</ele>
        <time>2022-04-15T13:02:15Z</time>
      </trkpt>
      <trkpt lat="43.49083" lon="6.23885">
        <ele>127</ele>
        <time>2022-04-15T13:02:16Z</time>
      </trkpt>
      <trkpt lat="43.49085" lon="6.23885">
        <ele>128</ele>
        <time>2022-04-15T13:02:17Z</time>
      </trkpt>
      <trkpt lat="43.49087" lon="6.23886">
        <ele>128</ele>
        <time>2022-04-15T13:02:18Z</time>
      </trkpt>
      <trkpt lat="43.49088" lon="6.23886">
        <ele>128</ele>
        <time>2022-04-15T13:02:19Z</time>
      </trkpt>
      <trkpt lat="43.4909" lon="6.23886">
        <ele>128</ele>
        <time>2022-04-15T13:02:20Z</time>
      </trkpt>
      <trkpt lat="43.49091" lon="6.23887">
        <ele>128</ele>
        <time>2022-04-15T13:02:21Z</time>
      </trkpt>
      <trkpt lat="43.49092" lon="6.23887">
        <ele>128</ele>
        <time>2022-04-15T13:02:22Z</time>
      </trkpt>
      <trkpt lat="43.49094" lon="6.23887">
        <ele>128</ele>
        <time>2022-04-15T13:02:23Z</time>
      </trkpt>
      <trkpt lat="43.49095" lon="6.23888">
        <ele>128</ele>
        <time>2022-04-15T13:02:24Z</time>
      </trkpt>
      <trkpt lat="43.49096" lon="6.23888">
        <ele>128</ele>
        <time>2022-04-15T13:02:25Z</time>
      </trkpt>
      <trkpt lat="43.49097" lon="6.23888">
        <ele>128</ele>
        <time>2022-04-15T13:02:26Z</time>
      </trkpt>
      <trkpt lat="43.49099" lon="6.23889">
        <ele>128</ele>
        <time>2022-04-15T13:02:27Z</time>
      </trkpt>
      <trkpt lat="43.491" lon="6.23889">
        <ele>128</ele>
        <time>2022-04-15T13:02:28Z</time>
      </trkpt>
      <trkpt lat="43.49101" lon="6.2389">
        <ele>129</ele>
        <time>2022-04-15T13:02:29Z</time>
      </trkpt>
      <trkpt lat="43.49102" lon="6.2389">
        <ele>129</ele>
        <time>2022-04-15T13:02:30Z</time>
      </trkpt>
      <trkpt lat="43.49103" lon="6.2389">
        <ele>129</ele>
        <time>2022-04-15T13:02:31Z</time>
      </trkpt>
      <trkpt lat="43.49105" lon="6.23891">
        <ele>129</ele>
        <time>2022-04-15T13:02:32Z</time>
      </trkpt>
      <trkpt lat="43.49106" lon="6.23891">
        <ele>128</ele>
        <time>2022-04-15T13:02:33Z</time>
      </trkpt>
      <trkpt lat="43.49107" lon="6.23892">
        <ele>128</ele>
        <time>2022-04-15T13:02:34Z</time>
      </trkpt>
      <trkpt lat="43.49109" lon="6.23893">
        <ele>128</ele>
        <time>2022-04-15T13:02:35Z</time>
      </trkpt>
      <trkpt lat="43.4911" lon="6.23893">
        <ele>128</ele>
        <time>2022-04-15T13:02:36Z</time>
      </trkpt>
      <trkpt lat="43.49112" lon="6.23894">
        <ele>128</ele>
        <time>2022-04-15T13:02:37Z</time>
      </trkpt>
      <trkpt lat="43.49114" lon="6.23894">
        <ele>128</ele>
        <time>2022-04-15T13:02:38Z</time>
      </trkpt>
      <trkpt lat="43.49115" lon="6.23894">
        <ele>128</ele>
        <time>2022-04-15T13:02:39Z</time>
      </trkpt>
      <trkpt lat="43.49116" lon="6.23895">
        <ele>128</ele>
        <time>2022-04-15T13:02:40Z</time>
      </trkpt>
      <trkpt lat="43.49118" lon="6.23895">
        <ele>128</ele>
        <time>2022-04-15T13:02:41Z</time>
      </trkpt>
      <trkpt lat="43.49119" lon="6.23895">
        <ele>128</ele>
        <time>2022-04-15T13:02:42Z</time>
      </trkpt>
      <trkpt lat="43.49121" lon="6.23895">
        <ele>128</ele>
        <time>2022-04-15T13:02:43Z</time>
      </trkpt>
      <trkpt lat="43.49122" lon="6.23896">
        <ele>128</ele>
        <time>2022-04-15T13:02:44Z</time>
      </trkpt>
      <trkpt lat="43.49124" lon="6.23896">
        <ele>128</ele>
        <time>2022-04-15T13:02:45Z</time>
      </trkpt>
      <trkpt lat="43.49125" lon="6.23897">
        <ele>128</ele>
        <time>2022-04-15T13:02:46Z</time>
      </trkpt>
      <trkpt lat="43.49127" lon="6.23897">
        <ele>128</ele>
        <time>2022-04-15T13:02:47Z</time>
      </trkpt>
      <trkpt lat="43.49128" lon="6.23898">
        <ele>129</ele>
        <time>2022-04-15T13:02:48Z</time>
      </trkpt>
      <trkpt lat="43.49129" lon="6.23898">
        <ele>129</ele>
        <time>2022-04-15T13:02:49Z</time>
      </trkpt>
      <trkpt lat="43.49132" lon="6.23899">
        <ele>129</ele>
        <time>2022-04-15T13:02:50Z</time>
      </trkpt>
      <trkpt lat="43.49134" lon="6.239">
        <ele>129</ele>
        <time>2022-04-15T13:02:51Z</time>
      </trkpt>
      <trkpt lat="43.49136" lon="6.239">
        <ele>129</ele>
        <time>2022-04-15T13:02:52Z</time>
      </trkpt>
      <trkpt lat="43.49138" lon="6.23901">
        <ele>128</ele>
        <time>2022-04-15T13:02:53Z</time>
      </trkpt>
      <trkpt lat="43.49139" lon="6.23901">
        <ele>128</ele>
        <time>2022-04-15T13:02:54Z</time>
      </trkpt>
      <trkpt lat="43.49141" lon="6.23901">
        <ele>128</ele>
        <time>2022-04-15T13:02:55Z</time>
      </trkpt>
      <trkpt lat="43.49142" lon="6.23901">
        <ele>128</ele>
        <time>2022-04-15T13:02:56Z</time>
      </trkpt>
      <trkpt lat="43.49144" lon="6.23901">
        <ele>128</ele>
        <time>2022-04-15T13:02:57Z</time>
      </trkpt>
      <trkpt lat="43.49145" lon="6.23901">
        <ele>128</ele>
        <time>2022-04-15T13:02:58Z</time>
      </trkpt>
      <trkpt lat="43.49146" lon="6.23901">
        <ele>128</ele>
        <time>2022-04-15T13:02:59Z</time>
      </trkpt>
      <trkpt lat="43.49147" lon="6.23901">
        <ele>127</ele>
        <time>2022-04-15T13:03:00Z</time>
      </trkpt>
      <trkpt lat="43.49148" lon="6.23901">
        <ele>127</ele>
        <time>2022-04-15T13:03:01Z</time>
      </trkpt>
      <trkpt lat="43.49149" lon="6.23901">
        <ele>127</ele>
        <time>2022-04-15T13:03:02Z</time>
      </trkpt>
      <trkpt lat="43.4915" lon="6.23901">
        <ele>127</ele>
        <time>2022-04-15T13:03:03Z</time>
      </trkpt>
      <trkpt lat="43.49151" lon="6.239">
        <ele>127</ele>
        <time>2022-04-15T13:03:04Z</time>
      </trkpt>
      <trkpt lat="43.49152" lon="6.239">
        <ele>127</ele>
        <time>2022-04-15T13:03:05Z</time>
      </trkpt>
      <trkpt lat="43.49153" lon="6.239">
        <ele>127</ele>
        <time>2022-04-15T13:03:06Z</time>
      </trkpt>
      <trkpt lat="43.49154" lon="6.239">
        <ele>127</ele>
        <time>2022-04-15T13:03:07Z</time>
      </trkpt>
      <trkpt lat="43.49155" lon="6.23899">
        <ele>126</ele>
        <time>2022-04-15T13:03:08Z</time>
      </trkpt>
      <trkpt lat="43.49156" lon="6.23899">
        <ele>126</ele>
        <time>2022-04-15T13:03:09Z</time>
      </trkpt>
      <trkpt lat="43.49157" lon="6.23899">
        <ele>126</ele>
        <time>2022-04-15T13:03:10Z</time>
      </trkpt>
      <trkpt lat="43.49158" lon="6.23899">
        <ele>126</ele>
        <time>2022-04-15T13:03:11Z</time>
      </trkpt>
      <trkpt lat="43.49159" lon="6.23899">
        <ele>127</ele>
        <time>2022-04-15T13:03:12Z</time>
      </trkpt>
      <trkpt lat="43.4916" lon="6.23899">
        <ele>127</ele>
        <time>2022-04-15T13:03:13Z</time>
      </trkpt>
      <trkpt lat="43.49161" lon="6.23898">
        <ele>127</ele>
        <time>2022-04-15T13:03:14Z</time>
      </trkpt>
      <trkpt lat="43.49162" lon="6.23898">
        <ele>127</ele>
        <time>2022-04-15T13:03:15Z</time>
      </trkpt>
      <trkpt lat="43.49163" lon="6.23898">
        <ele>127</ele>
        <time>2022-04-15T13:03:16Z</time>
      </trkpt>
      <trkpt lat="43.49164" lon="6.23899">
        <ele>127</ele>
        <time>2022-04-15T13:03:17Z</time>
      </trkpt>
      <trkpt lat="43.49165" lon="6.23899">
        <ele>127</ele>
        <time>2022-04-15T13:03:18Z</time>
      </trkpt>
      <trkpt lat="43.49166" lon="6.23899">
        <ele>127</ele>
        <time>2022-04-15T13:03:19Z</time>
      </trkpt>
      <trkpt lat="43.49167" lon="6.23899">
        <ele>127</ele>
        <time>2022-04-15T13:03:20Z</time>
      </trkpt>
      <trkpt lat="43.49168" lon="6.23899">
        <ele>127</ele>
        <time>2022-04-15T13:03:21Z</time>
      </trkpt>
      <trkpt lat="43.4917" lon="6.23899">
        <ele>127</ele>
        <time>2022-04-15T13:03:22Z</time>
      </trkpt>
      <trkpt lat="43.49171" lon="6.23899">
        <ele>127</ele>
        <time>2022-04-15T13:03:23Z</time>
      </trkpt>
      <trkpt lat="43.49172" lon="6.23899">
        <ele>128</ele>
        <time>2022-04-15T13:03:24Z</time>
      </trkpt>
      <trkpt lat="43.49173" lon="6.23899">
        <ele>128</ele>
        <time>2022-04-15T13:03:25Z</time>
      </trkpt>
      <trkpt lat="43.49174" lon="6.239">
        <ele>128</ele>
        <time>2022-04-15T13:03:26Z</time>
      </trkpt>
      <trkpt lat="43.49176" lon="6.239">
        <ele>128</ele>
        <time>2022-04-15T13:03:27Z</time>
      </trkpt>
      <trkpt lat="43.49177" lon="6.239">
        <ele>128</ele>
        <time>2022-04-15T13:03:28Z</time>
      </trkpt>
      <trkpt lat="43.49178" lon="6.239">
        <ele>128</ele>
        <time>2022-04-15T13:03:29Z</time>
      </trkpt>
      <trkpt lat="43.49179" lon="6.23901">
        <ele>128</ele>
        <time>2022-04-15T13:03:30Z</time>
      </trkpt>
      <trkpt lat="43.4918" lon="6.239">
        <ele>128</ele>
        <time>2022-04-15T13:03:31Z</time>
      </trkpt>
      <trkpt lat="43.49181" lon="6.239">
        <ele>128</ele>
        <time>2022-04-15T13:03:32Z</time>
      </trkpt>
      <trkpt lat="43.49183" lon="6.23899">
        <ele>127</ele>
        <time>2022-04-15T13:03:33Z</time>
      </trkpt>
      <trkpt lat="43.49185" lon="6.23899">
        <ele>127</ele>
        <time>2022-04-15T13:03:34Z</time>
      </trkpt>
      <trkpt lat="43.49186" lon="6.23898">
        <ele>127</ele>
        <time>2022-04-15T13:03:35Z</time>
      </trkpt>
      <trkpt lat="43.49187" lon="6.23897">
        <ele>127</ele>
        <time>2022-04-15T13:03:36Z</time>
      </trkpt>
      <trkpt lat="43.49188" lon="6.23896">
        <ele>127</ele>
        <time>2022-04-15T13:03:37Z</time>
      </trkpt>
      <trkpt lat="43.49189" lon="6.23895">
        <ele>126</ele>
        <time>2022-04-15T13:03:38Z</time>
      </trkpt>
      <trkpt lat="43.4919" lon="6.23894">
        <ele>126</ele>
        <time>2022-04-15T13:03:39Z</time>
      </trkpt>
      <trkpt lat="43.49191" lon="6.23893">
        <ele>126</ele>
        <time>2022-04-15T13:03:40Z</time>
      </trkpt>
      <trkpt lat="43.49192" lon="6.23893">
        <ele>126</ele>
        <time>2022-04-15T13:03:41Z</time>
      </trkpt>
      <trkpt lat="43.49193" lon="6.23892">
        <ele>125</ele>
        <time>2022-04-15T13:03:42Z</time>
      </trkpt>
      <trkpt lat="43.49193" lon="6.23891">
        <ele>125</ele>
        <time>2022-04-15T13:03:43Z</time>
      </trkpt>
      <trkpt lat="43.49194" lon="6.2389">
        <ele>125</ele>
        <time>2022-04-15T13:03:44Z</time>
      </trkpt>
      <trkpt lat="43.49195" lon="6.23889">
        <ele>125</ele>
        <time>2022-04-15T13:03:45Z</time>
      </trkpt>
      <trkpt lat="43.49195" lon="6.23888">
        <ele>125</ele>
        <time>2022-04-15T13:03:46Z</time>
      </trkpt>
      <trkpt lat="43.49196" lon="6.23886">
        <ele>125</ele>
        <time>2022-04-15T13:03:47Z</time>
      </trkpt>
      <trkpt lat="43.49197" lon="6.23885">
        <ele>125</ele>
        <time>2022-04-15T13:03:48Z</time>
      </trkpt>
      <trkpt lat="43.49197" lon="6.23883">
        <ele>125</ele>
        <time>2022-04-15T13:03:49Z</time>
      </trkpt>
      <trkpt lat="43.49198" lon="6.23882">
        <ele>125</ele>
        <time>2022-04-15T13:03:50Z</time>
      </trkpt>
      <trkpt lat="43.49199" lon="6.2388">
        <ele>125</ele>
        <time>2022-04-15T13:03:51Z</time>
      </trkpt>
      <trkpt lat="43.49199" lon="6.23879">
        <ele>125</ele>
        <time>2022-04-15T13:03:52Z</time>
      </trkpt>
      <trkpt lat="43.492" lon="6.23878">
        <ele>124</ele>
        <time>2022-04-15T13:03:53Z</time>
      </trkpt>
      <trkpt lat="43.492" lon="6.23877">
        <ele>123</ele>
        <time>2022-04-15T13:03:54Z</time>
      </trkpt>
      <trkpt lat="43.49199" lon="6.23876">
        <ele>123</ele>
        <time>2022-04-15T13:03:55Z</time>
      </trkpt>
      <trkpt lat="43.49198" lon="6.23875">
        <ele>123</ele>
        <time>2022-04-15T13:03:56Z</time>
      </trkpt>
      <trkpt lat="43.49198" lon="6.23873">
        <ele>123</ele>
        <time>2022-04-15T13:03:57Z</time>
      </trkpt>
      <trkpt lat="43.49197" lon="6.23872">
        <ele>123</ele>
        <time>2022-04-15T13:03:58Z</time>
      </trkpt>
      <trkpt lat="43.49196" lon="6.23872">
        <ele>123</ele>
        <time>2022-04-15T13:03:59Z</time>
      </trkpt>
      <trkpt lat="43.49196" lon="6.23871">
        <ele>123</ele>
        <time>2022-04-15T13:04:00Z</time>
      </trkpt>
      <trkpt lat="43.49195" lon="6.23871">
        <ele>123</ele>
        <time>2022-04-15T13:04:01Z</time>
      </trkpt>
      <trkpt lat="43.49196" lon="6.23871">
        <ele>123</ele>
        <time>2022-04-15T13:04:02Z</time>
      </trkpt>
      <trkpt lat="43.49197" lon="6.2387">
        <ele>122</ele>
        <time>2022-04-15T13:04:03Z</time>
      </trkpt>
      <trkpt lat="43.49198" lon="6.23869">
        <ele>123</ele>
        <time>2022-04-15T13:04:04Z</time>
      </trkpt>
      <trkpt lat="43.49198" lon="6.23868">
        <ele>123</ele>
        <time>2022-04-15T13:04:05Z</time>
      </trkpt>
      <trkpt lat="43.49199" lon="6.23866">
        <ele>123</ele>
        <time>2022-04-15T13:04:06Z</time>
      </trkpt>
      <trkpt lat="43.492" lon="6.23865">
        <ele>123</ele>
        <time>2022-04-15T13:04:07Z</time>
      </trkpt>
      <trkpt lat="43.492" lon="6.23864">
        <ele>123</ele>
        <time>2022-04-15T13:04:08Z</time>
      </trkpt>
      <trkpt lat="43.49201" lon="6.23863">
        <ele>123</ele>
        <time>2022-04-15T13:04:09Z</time>
      </trkpt>
      <trkpt lat="43.49201" lon="6.23862">
        <ele>123</ele>
        <time>2022-04-15T13:04:10Z</time>
      </trkpt>
      <trkpt lat="43.49202" lon="6.23861">
        <ele>123</ele>
        <time>2022-04-15T13:04:11Z</time>
      </trkpt>
      <trkpt lat="43.49202" lon="6.2386">
        <ele>123</ele>
        <time>2022-04-15T13:04:12Z</time>
      </trkpt>
      <trkpt lat="43.49202" lon="6.23858">
        <ele>122</ele>
        <time>2022-04-15T13:04:13Z</time>
      </trkpt>
      <trkpt lat="43.49203" lon="6.23857">
        <ele>122</ele>
        <time>2022-04-15T13:04:14Z</time>
      </trkpt>
      <trkpt lat="43.49204" lon="6.23856">
        <ele>122</ele>
        <time>2022-04-15T13:04:15Z</time>
      </trkpt>
      <trkpt lat="43.49204" lon="6.23854">
        <ele>122</ele>
        <time>2022-04-15T13:04:16Z</time>
      </trkpt>
      <trkpt lat="43.49205" lon="6.23853">
        <ele>122</ele>
        <time>2022-04-15T13:04:17Z</time>
      </trkpt>
      <trkpt lat="43.49206" lon="6.23852">
        <ele>122</ele>
        <time>2022-04-15T13:04:18Z</time>
      </trkpt>
      <trkpt lat="43.49206" lon="6.23851">
        <ele>122</ele>
        <time>2022-04-15T13:04:19Z</time>
      </trkpt>
      <trkpt lat="43.49207" lon="6.2385">
        <ele>122</ele>
        <time>2022-04-15T13:04:20Z</time>
      </trkpt>
      <trkpt lat="43.49208" lon="6.23849">
        <ele>122</ele>
        <time>2022-04-15T13:04:21Z</time>
      </trkpt>
      <trkpt lat="43.49209" lon="6.23847">
        <ele>122</ele>
        <time>2022-04-15T13:04:22Z</time>
      </trkpt>
      <trkpt lat="43.49209" lon="6.23847">
        <ele>122</ele>
        <time>2022-04-15T13:04:23Z</time>
      </trkpt>
      <trkpt lat="43.4921" lon="6.23845">
        <ele>122</ele>
        <time>2022-04-15T13:04:24Z</time>
      </trkpt>
      <trkpt lat="43.4921" lon="6.23844">
        <ele>122</ele>
        <time>2022-04-15T13:04:25Z</time>
      </trkpt>
      <trkpt lat="43.49211" lon="6.23843">
        <ele>122</ele>
        <time>2022-04-15T13:04:26Z</time>
      </trkpt>
      <trkpt lat="43.49211" lon="6.23842">
        <ele>122</ele>
        <time>2022-04-15T13:04:27Z</time>
      </trkpt>
      <trkpt lat="43.49212" lon="6.23841">
        <ele>122</ele>
        <time>2022-04-15T13:04:28Z</time>
      </trkpt>
      <trkpt lat="43.49213" lon="6.2384">
        <ele>122</ele>
        <time>2022-04-15T13:04:29Z</time>
      </trkpt>
      <trkpt lat="43.49213" lon="6.23839">
        <ele>121</ele>
        <time>2022-04-15T13:04:30Z</time>
      </trkpt>
      <trkpt lat="43.49214" lon="6.23838">
        <ele>121</ele>
        <time>2022-04-15T13:04:31Z</time>
      </trkpt>
      <trkpt lat="43.49214" lon="6.23837">
        <ele>121</ele>
        <time>2022-04-15T13:04:32Z</time>
      </trkpt>
      <trkpt lat="43.49215" lon="6.23837">
        <ele>121</ele>
        <time>2022-04-15T13:04:33Z</time>
      </trkpt>
      <trkpt lat="43.49216" lon="6.23836">
        <ele>121</ele>
        <time>2022-04-15T13:04:34Z</time>
      </trkpt>
      <trkpt lat="43.49217" lon="6.23836">
        <ele>121</ele>
        <time>2022-04-15T13:04:35Z</time>
      </trkpt>
      <trkpt lat="43.49218" lon="6.23835">
        <ele>121</ele>
        <time>2022-04-15T13:04:36Z</time>
      </trkpt>
      <trkpt lat="43.49219" lon="6.23834">
        <ele>120</ele>
        <time>2022-04-15T13:04:37Z</time>
      </trkpt>
      <trkpt lat="43.4922" lon="6.23833">
        <ele>120</ele>
        <time>2022-04-15T13:04:38Z</time>
      </trkpt>
      <trkpt lat="43.49221" lon="6.23833">
        <ele>120</ele>
        <time>2022-04-15T13:04:39Z</time>
      </trkpt>
      <trkpt lat="43.49222" lon="6.23833">
        <ele>120</ele>
        <time>2022-04-15T13:04:40Z</time>
      </trkpt>
      <trkpt lat="43.49222" lon="6.23833">
        <ele>120</ele>
        <time>2022-04-15T13:04:41Z</time>
      </trkpt>
      <trkpt lat="43.49223" lon="6.23832">
        <ele>120</ele>
        <time>2022-04-15T13:04:42Z</time>
      </trkpt>
      <trkpt lat="43.49224" lon="6.23832">
        <ele>120</ele>
        <time>2022-04-15T13:04:43Z</time>
      </trkpt>
      <trkpt lat="43.49225" lon="6.23831">
        <ele>120</ele>
        <time>2022-04-15T13:04:44Z</time>
      </trkpt>
      <trkpt lat="43.49226" lon="6.23831">
        <ele>120</ele>
        <time>2022-04-15T13:04:45Z</time>
      </trkpt>
      <trkpt lat="43.49228" lon="6.23831">
        <ele>120</ele>
        <time>2022-04-15T13:04:46Z</time>
      </trkpt>
      <trkpt lat="43.49229" lon="6.23831">
        <ele>120</ele>
        <time>2022-04-15T13:04:47Z</time>
      </trkpt>
      <trkpt lat="43.4923" lon="6.23831">
        <ele>120</ele>
        <time>2022-04-15T13:04:48Z</time>
      </trkpt>
      <trkpt lat="43.49231" lon="6.23831">
        <ele>120</ele>
        <time>2022-04-15T13:04:49Z</time>
      </trkpt>
      <trkpt lat="43.49232" lon="6.23831">
        <ele>120</ele>
        <time>2022-04-15T13:04:50Z</time>
      </trkpt>
      <trkpt lat="43.49234" lon="6.23831">
        <ele>120</ele>
        <time>2022-04-15T13:04:51Z</time>
      </trkpt>
      <trkpt lat="43.49235" lon="6.23831">
        <ele>120</ele>
        <time>2022-04-15T13:04:52Z</time>
      </trkpt>
      <trkpt lat="43.49236" lon="6.23831">
        <ele>120</ele>
        <time>2022-04-15T13:04:53Z</time>
      </trkpt>
      <trkpt lat="43.49238" lon="6.23831">
        <ele>120</ele>
        <time>2022-04-15T13:04:54Z</time>
      </trkpt>
      <trkpt lat="43.49239" lon="6.23831">
        <ele>120</ele>
        <time>2022-04-15T13:04:55Z</time>
      </trkpt>
      <trkpt lat="43.4924" lon="6.23831">
        <ele>119</ele>
        <time>2022-04-15T13:04:56Z</time>
      </trkpt>
      <trkpt lat="43.49241" lon="6.23831">
        <ele>119</ele>
        <time>2022-04-15T13:04:57Z</time>
      </trkpt>
      <trkpt lat="43.49242" lon="6.23831">
        <ele>119</ele>
        <time>2022-04-15T13:04:58Z</time>
      </trkpt>
      <trkpt lat="43.49243" lon="6.2383">
        <ele>119</ele>
        <time>2022-04-15T13:04:59Z</time>
      </trkpt>
      <trkpt lat="43.49245" lon="6.2383">
        <ele>119</ele>
        <time>2022-04-15T13:05:00Z</time>
      </trkpt>
      <trkpt lat="43.49246" lon="6.2383">
        <ele>119</ele>
        <time>2022-04-15T13:05:01Z</time>
      </trkpt>
      <trkpt lat="43.49247" lon="6.2383">
        <ele>119</ele>
        <time>2022-04-15T13:05:02Z</time>
      </trkpt>
      <trkpt lat="43.49249" lon="6.2383">
        <ele>119</ele>
        <time>2022-04-15T13:05:03Z</time>
      </trkpt>
      <trkpt lat="43.4925" lon="6.23829">
        <ele>119</ele>
        <time>2022-04-15T13:05:04Z</time>
      </trkpt>
      <trkpt lat="43.49251" lon="6.23829">
        <ele>119</ele>
        <time>2022-04-15T13:05:05Z</time>
      </trkpt>
      <trkpt lat="43.49252" lon="6.23829">
        <ele>119</ele>
        <time>2022-04-15T13:05:06Z</time>
      </trkpt>
      <trkpt lat="43.49253" lon="6.23829">
        <ele>119</ele>
        <time>2022-04-15T13:05:07Z</time>
      </trkpt>
      <trkpt lat="43.49254" lon="6.23829">
        <ele>119</ele>
        <time>2022-04-15T13:05:08Z</time>
      </trkpt>
      <trkpt lat="43.49255" lon="6.23829">
        <ele>119</ele>
        <time>2022-04-15T13:05:09Z</time>
      </trkpt>
      <trkpt lat="43.49257" lon="6.23828">
        <ele>119</ele>
        <time>2022-04-15T13:05:10Z</time>
      </trkpt>
      <trkpt lat="43.49258" lon="6.23828">
        <ele>119</ele>
        <time>2022-04-15T13:05:11Z</time>
      </trkpt>
      <trkpt lat="43.49259" lon="6.23828">
        <ele>119</ele>
        <time>2022-04-15T13:05:12Z</time>
      </trkpt>
      <trkpt lat="43.4926" lon="6.23828">
        <ele>119</ele>
        <time>2022-04-15T13:05:13Z</time>
      </trkpt>
      <trkpt lat="43.49261" lon="6.23827">
        <ele>119</ele>
        <time>2022-04-15T13:05:14Z</time>
      </trkpt>
      <trkpt lat="43.49262" lon="6.23827">
        <ele>119</ele>
        <time>2022-04-15T13:05:15Z</time>
      </trkpt>
      <trkpt lat="43.49263" lon="6.23828">
        <ele>120</ele>
        <time>2022-04-15T13:05:16Z</time>
      </trkpt>
      <trkpt lat="43.49264" lon="6.23828">
        <ele>120</ele>
        <time>2022-04-15T13:05:17Z</time>
      </trkpt>
      <trkpt lat="43.49265" lon="6.23827">
        <ele>120</ele>
        <time>2022-04-15T13:05:18Z</time>
      </trkpt>
      <trkpt lat="43.49266" lon="6.23827">
        <ele>120</ele>
        <time>2022-04-15T13:05:19Z</time>
      </trkpt>
      <trkpt lat="43.49267" lon="6.23827">
        <ele>120</ele>
        <time>2022-04-15T13:05:20Z</time>
      </trkpt>
      <trkpt lat="43.49268" lon="6.23826">
        <ele>120</ele>
        <time>2022-04-15T13:05:21Z</time>
      </trkpt>
      <trkpt lat="43.49268" lon="6.23826">
        <ele>120</ele>
        <time>2022-04-15T13:05:22Z</time>
      </trkpt>
      <trkpt lat="43.49269" lon="6.23826">
        <ele>120</ele>
        <time>2022-04-15T13:05:23Z</time>
      </trkpt>
      <trkpt lat="43.49271" lon="6.23825">
        <ele>120</ele>
        <time>2022-04-15T13:05:24Z</time>
      </trkpt>
      <trkpt lat="43.49272" lon="6.23825">
        <ele>120</ele>
        <time>2022-04-15T13:05:25Z</time>
      </trkpt>
      <trkpt lat="43.49273" lon="6.23824">
        <ele>120</ele>
        <time>2022-04-15T13:05:26Z</time>
      </trkpt>
      <trkpt lat="43.49274" lon="6.23823">
        <ele>120</ele>
        <time>2022-04-15T13:05:27Z</time>
      </trkpt>
      <trkpt lat="43.49275" lon="6.23823">
        <ele>120</ele>
        <time>2022-04-15T13:05:28Z</time>
      </trkpt>
      <trkpt lat="43.49277" lon="6.23822">
        <ele>120</ele>
        <time>2022-04-15T13:05:29Z</time>
      </trkpt>
      <trkpt lat="43.49278" lon="6.23822">
        <ele>120</ele>
        <time>2022-04-15T13:05:30Z</time>
      </trkpt>
      <trkpt lat="43.49279" lon="6.23822">
        <ele>120</ele>
        <time>2022-04-15T13:05:31Z</time>
      </trkpt>
      <trkpt lat="43.4928" lon="6.23822">
        <ele>120</ele>
        <time>2022-04-15T13:05:32Z</time>
      </trkpt>
      <trkpt lat="43.49281" lon="6.23822">
        <ele>120</ele>
        <time>2022-04-15T13:05:33Z</time>
      </trkpt>
      <trkpt lat="43.49282" lon="6.23823">
        <ele>120</ele>
        <time>2022-04-15T13:05:34Z</time>
      </trkpt>
      <trkpt lat="43.49283" lon="6.23824">
        <ele>120</ele>
        <time>2022-04-15T13:05:35Z</time>
      </trkpt>
      <trkpt lat="43.49284" lon="6.23826">
        <ele>120</ele>
        <time>2022-04-15T13:05:36Z</time>
      </trkpt>
      <trkpt lat="43.49285" lon="6.23827">
        <ele>120</ele>
        <time>2022-04-15T13:05:37Z</time>
      </trkpt>
      <trkpt lat="43.49285" lon="6.23829">
        <ele>121</ele>
        <time>2022-04-15T13:05:38Z</time>
      </trkpt>
      <trkpt lat="43.49286" lon="6.2383">
        <ele>121</ele>
        <time>2022-04-15T13:05:39Z</time>
      </trkpt>
      <trkpt lat="43.49285" lon="6.23831">
        <ele>122</ele>
        <time>2022-04-15T13:05:40Z</time>
      </trkpt>
      <trkpt lat="43.49285" lon="6.23833">
        <ele>122</ele>
        <time>2022-04-15T13:05:41Z</time>
      </trkpt>
      <trkpt lat="43.49286" lon="6.23834">
        <ele>122</ele>
        <time>2022-04-15T13:05:42Z</time>
      </trkpt>
      <trkpt lat="43.49286" lon="6.23835">
        <ele>122</ele>
        <time>2022-04-15T13:05:43Z</time>
      </trkpt>
      <trkpt lat="43.49286" lon="6.23836">
        <ele>122</ele>
        <time>2022-04-15T13:05:44Z</time>
      </trkpt>
      <trkpt lat="43.49286" lon="6.23837">
        <ele>123</ele>
        <time>2022-04-15T13:05:45Z</time>
      </trkpt>
      <trkpt lat="43.49287" lon="6.23839">
        <ele>123</ele>
        <time>2022-04-15T13:05:46Z</time>
      </trkpt>
      <trkpt lat="43.49287" lon="6.2384">
        <ele>123</ele>
        <time>2022-04-15T13:05:47Z</time>
      </trkpt>
      <trkpt lat="43.49287" lon="6.23842">
        <ele>123</ele>
        <time>2022-04-15T13:05:48Z</time>
      </trkpt>
      <trkpt lat="43.49288" lon="6.23844">
        <ele>123</ele>
        <time>2022-04-15T13:05:49Z</time>
      </trkpt>
      <trkpt lat="43.49288" lon="6.23846">
        <ele>123</ele>
        <time>2022-04-15T13:05:50Z</time>
      </trkpt>
      <trkpt lat="43.49288" lon="6.23848">
        <ele>123</ele>
        <time>2022-04-15T13:05:51Z</time>
      </trkpt>
      <trkpt lat="43.49288" lon="6.23849">
        <ele>123</ele>
        <time>2022-04-15T13:05:52Z</time>
      </trkpt>
      <trkpt lat="43.49289" lon="6.23851">
        <ele>123</ele>
        <time>2022-04-15T13:05:53Z</time>
      </trkpt>
      <trkpt lat="43.49289" lon="6.23853">
        <ele>123</ele>
        <time>2022-04-15T13:05:54Z</time>
      </trkpt>
      <trkpt lat="43.49289" lon="6.23854">
        <ele>123</ele>
        <time>2022-04-15T13:05:55Z</time>
      </trkpt>
      <trkpt lat="43.49289" lon="6.23855">
        <ele>123</ele>
        <time>2022-04-15T13:05:56Z</time>
      </trkpt>
      <trkpt lat="43.49289" lon="6.23857">
        <ele>123</ele>
        <time>2022-04-15T13:05:57Z</time>
      </trkpt>
      <trkpt lat="43.4929" lon="6.23858">
        <ele>124</ele>
        <time>2022-04-15T13:05:58Z</time>
      </trkpt>
      <trkpt lat="43.4929" lon="6.2386">
        <ele>124</ele>
        <time>2022-04-15T13:05:59Z</time>
      </trkpt>
      <trkpt lat="43.4929" lon="6.23862">
        <ele>124</ele>
        <time>2022-04-15T13:06:00Z</time>
      </trkpt>
      <trkpt lat="43.4929" lon="6.23863">
        <ele>124</ele>
        <time>2022-04-15T13:06:01Z</time>
      </trkpt>
      <trkpt lat="43.4929" lon="6.23865">
        <ele>124</ele>
        <time>2022-04-15T13:06:02Z</time>
      </trkpt>
      <trkpt lat="43.4929" lon="6.23866">
        <ele>124</ele>
        <time>2022-04-15T13:06:03Z</time>
      </trkpt>
      <trkpt lat="43.49291" lon="6.23867">
        <ele>124</ele>
        <time>2022-04-15T13:06:04Z</time>
      </trkpt>
      <trkpt lat="43.49291" lon="6.23869">
        <ele>124</ele>
        <time>2022-04-15T13:06:05Z</time>
      </trkpt>
      <trkpt lat="43.49291" lon="6.2387">
        <ele>125</ele>
        <time>2022-04-15T13:06:06Z</time>
      </trkpt>
      <trkpt lat="43.49291" lon="6.23872">
        <ele>125</ele>
        <time>2022-04-15T13:06:07Z</time>
      </trkpt>
      <trkpt lat="43.49291" lon="6.23873">
        <ele>125</ele>
        <time>2022-04-15T13:06:08Z</time>
      </trkpt>
      <trkpt lat="43.49291" lon="6.23875">
        <ele>126</ele>
        <time>2022-04-15T13:06:09Z</time>
      </trkpt>
      <trkpt lat="43.49291" lon="6.23876">
        <ele>126</ele>
        <time>2022-04-15T13:06:10Z</time>
      </trkpt>
      <trkpt lat="43.49291" lon="6.23877">
        <ele>126</ele>
        <time>2022-04-15T13:06:11Z</time>
      </trkpt>
      <trkpt lat="43.49291" lon="6.23879">
        <ele>126</ele>
        <time>2022-04-15T13:06:12Z</time>
      </trkpt>
      <trkpt lat="43.49292" lon="6.2388">
        <ele>126</ele>
        <time>2022-04-15T13:06:13Z</time>
      </trkpt>
      <trkpt lat="43.49292" lon="6.23882">
        <ele>126</ele>
        <time>2022-04-15T13:06:14Z</time>
      </trkpt>
      <trkpt lat="43.49292" lon="6.23883">
        <ele>126</ele>
        <time>2022-04-15T13:06:15Z</time>
      </trkpt>
      <trkpt lat="43.49292" lon="6.23885">
        <ele>127</ele>
        <time>2022-04-15T13:06:16Z</time>
      </trkpt>
      <trkpt lat="43.49292" lon="6.23886">
        <ele>127</ele>
        <time>2022-04-15T13:06:17Z</time>
      </trkpt>
      <trkpt lat="43.49293" lon="6.23888">
        <ele>127</ele>
        <time>2022-04-15T13:06:18Z</time>
      </trkpt>
      <trkpt lat="43.49293" lon="6.23889">
        <ele>127</ele>
        <time>2022-04-15T13:06:19Z</time>
      </trkpt>
      <trkpt lat="43.49293" lon="6.23891">
        <ele>127</ele>
        <time>2022-04-15T13:06:20Z</time>
      </trkpt>
      <trkpt lat="43.49293" lon="6.23892">
        <ele>127</ele>
        <time>2022-04-15T13:06:21Z</time>
      </trkpt>
      <trkpt lat="43.49293" lon="6.23894">
        <ele>127</ele>
        <time>2022-04-15T13:06:22Z</time>
      </trkpt>
      <trkpt lat="43.49294" lon="6.23895">
        <ele>127</ele>
        <time>2022-04-15T13:06:23Z</time>
      </trkpt>
      <trkpt lat="43.49294" lon="6.23897">
        <ele>127</ele>
        <time>2022-04-15T13:06:24Z</time>
      </trkpt>
      <trkpt lat="43.49294" lon="6.23898">
        <ele>128</ele>
        <time>2022-04-15T13:06:25Z</time>
      </trkpt>
      <trkpt lat="43.49294" lon="6.23899">
        <ele>128</ele>
        <time>2022-04-15T13:06:26Z</time>
      </trkpt>
      <trkpt lat="43.49295" lon="6.239">
        <ele>128</ele>
        <time>2022-04-15T13:06:27Z</time>
      </trkpt>
      <trkpt lat="43.49295" lon="6.23901">
        <ele>128</ele>
        <time>2022-04-15T13:06:28Z</time>
      </trkpt>
      <trkpt lat="43.49296" lon="6.23902">
        <ele>129</ele>
        <time>2022-04-15T13:06:29Z</time>
      </trkpt>
      <trkpt lat="43.49296" lon="6.23903">
        <ele>129</ele>
        <time>2022-04-15T13:06:30Z</time>
      </trkpt>
      <trkpt lat="43.49296" lon="6.23905">
        <ele>129</ele>
        <time>2022-04-15T13:06:31Z</time>
      </trkpt>
      <trkpt lat="43.49297" lon="6.23906">
        <ele>129</ele>
        <time>2022-04-15T13:06:32Z</time>
      </trkpt>
      <trkpt lat="43.49297" lon="6.23907">
        <ele>129</ele>
        <time>2022-04-15T13:06:33Z</time>
      </trkpt>
      <trkpt lat="43.49297" lon="6.23908">
        <ele>129</ele>
        <time>2022-04-15T13:06:34Z</time>
      </trkpt>
      <trkpt lat="43.49297" lon="6.23909">
        <ele>130</ele>
        <time>2022-04-15T13:06:35Z</time>
      </trkpt>
      <trkpt lat="43.49297" lon="6.23911">
        <ele>130</ele>
        <time>2022-04-15T13:06:36Z</time>
      </trkpt>
      <trkpt lat="43.49297" lon="6.23912">
        <ele>130</ele>
        <time>2022-04-15T13:06:37Z</time>
      </trkpt>
      <trkpt lat="43.49297" lon="6.23913">
        <ele>130</ele>
        <time>2022-04-15T13:06:38Z</time>
      </trkpt>
      <trkpt lat="43.49297" lon="6.23914">
        <ele>130</ele>
        <time>2022-04-15T13:06:39Z</time>
      </trkpt>
      <trkpt lat="43.49297" lon="6.23915">
        <ele>130</ele>
        <time>2022-04-15T13:06:40Z</time>
      </trkpt>
      <trkpt lat="43.49296" lon="6.23914">
        <ele>130</ele>
        <time>2022-04-15T13:06:41Z</time>
      </trkpt>
      <trkpt lat="43.49296" lon="6.23915">
        <ele>130</ele>
        <time>2022-04-15T13:06:42Z</time>
      </trkpt>
      <trkpt lat="43.49295" lon="6.23915">
        <ele>130</ele>
        <time>2022-04-15T13:06:43Z</time>
      </trkpt>
      <trkpt lat="43.49295" lon="6.23915">
        <ele>130</ele>
        <time>2022-04-15T13:06:44Z</time>
      </trkpt>
      <trkpt lat="43.49295" lon="6.23916">
        <ele>130</ele>
        <time>2022-04-15T13:06:45Z</time>
      </trkpt>
      <trkpt lat="43.49295" lon="6.23916">
        <ele>130</ele>
        <time>2022-04-15T13:06:46Z</time>
      </trkpt>
      <trkpt lat="43.49295" lon="6.23917">
        <ele>130</ele>
        <time>2022-04-15T13:06:47Z</time>
      </trkpt>
      <trkpt lat="43.49294" lon="6.23917">
        <ele>130</ele>
        <time>2022-04-15T13:06:48Z</time>
      </trkpt>
      <trkpt lat="43.49294" lon="6.23918">
        <ele>130</ele>
        <time>2022-04-15T13:06:49Z</time>
      </trkpt>
      <trkpt lat="43.49293" lon="6.23918">
        <ele>130</ele>
        <time>2022-04-15T13:06:50Z</time>
      </trkpt>
      <trkpt lat="43.49292" lon="6.23917">
        <ele>130</ele>
        <time>2022-04-15T13:06:51Z</time>
      </trkpt>
      <trkpt lat="43.49292" lon="6.23917">
        <ele>130</ele>
        <time>2022-04-15T13:06:52Z</time>
      </trkpt>
      <trkpt lat="43.49292" lon="6.23916">
        <ele>130</ele>
        <time>2022-04-15T13:06:53Z</time>
      </trkpt>
      <trkpt lat="43.49292" lon="6.23916">
        <ele>130</ele>
        <time>2022-04-15T13:06:54Z</time>
      </trkpt>
      <trkpt lat="43.49292" lon="6.23916">
        <ele>130</ele>
        <time>2022-04-15T13:06:55Z</time>
      </trkpt>
      <trkpt lat="43.49292" lon="6.23916">
        <ele>130</ele>
        <time>2022-04-15T13:06:56Z</time>
      </trkpt>
      <trkpt lat="43.49292" lon="6.23916">
        <ele>130</ele>
        <time>2022-04-15T13:06:57Z</time>
      </trkpt>
      <trkpt lat="43.49292" lon="6.23916">
        <ele>130</ele>
        <time>2022-04-15T13:06:58Z</time>
      </trkpt>
      <trkpt lat="43.49292" lon="6.23916">
        <ele>130</ele>
        <time>2022-04-15T13:06:59Z</time>
      </trkpt>
      <trkpt lat="43.49292" lon="6.23916">
        <ele>130</ele>
        <time>2022-04-15T13:07:00Z</time>
      </trkpt>
      <trkpt lat="43.49292" lon="6.23916">
        <ele>130</ele>
        <time>2022-04-15T13:07:01Z</time>
      </trkpt>
      <trkpt lat="43.49292" lon="6.23916">
        <ele>130</ele>
        <time>2022-04-15T13:07:02Z</time>
      </trkpt>
      <trkpt lat="43.49292" lon="6.23916">
        <ele>130</ele>
        <time>2022-04-15T13:07:03Z</time>
      </trkpt>
      <trkpt lat="43.49292" lon="6.23916">
        <ele>130</ele>
        <time>2022-04-15T13:07:04Z</time>
      </trkpt>
      <trkpt lat="43.49292" lon="6.23916">
        <ele>130</ele>
        <time>2022-04-15T13:07:05Z</time>
      </trkpt>
      <trkpt lat="43.49292" lon="6.23916">
        <ele>130</ele>
        <time>2022-04-15T13:07:06Z</time>
      </trkpt>
      <trkpt lat="43.49292" lon="6.23916">
        <ele>130</ele>
        <time>2022-04-15T13:07:07Z</time>
      </trkpt>
      <trkpt lat="43.49292" lon="6.23916">
        <ele>130</ele>
        <time>2022-04-15T13:07:08Z</time>
      </trkpt>
      <trkpt lat="43.49292" lon="6.23916">
        <ele>130</ele>
        <time>2022-04-15T13:07:09Z</time>
      </trkpt>
      <trkpt lat="43.49292" lon="6.23916">
        <ele>130</ele>
        <time>2022-04-15T13:07:10Z</time>
      </trkpt>
      <trkpt lat="43.49292" lon="6.23916">
        <ele>130</ele>
        <time>2022-04-15T13:07:11Z</time>
      </trkpt>
      <trkpt lat="43.49292" lon="6.23916">
        <ele>130</ele>
        <time>2022-04-15T13:07:12Z</time>
      </trkpt>
      <trkpt lat="43.49292" lon="6.23916">
        <ele>130</ele>
        <time>2022-04-15T13:07:13Z</time>
      </trkpt>
      <trkpt lat="43.49292" lon="6.23916">
        <ele>130</ele>
        <time>2022-04-15T13:07:14Z</time>
      </trkpt>
      <trkpt lat="43.49292" lon="6.23916">
        <ele>130</ele>
        <time>2022-04-15T13:07:15Z</time>
      </trkpt>
      <trkpt lat="43.49294" lon="6.23914">
        <ele>130</ele>
        <time>2022-04-15T13:07:16Z</time>
      </trkpt>
      <trkpt lat="43.49294" lon="6.23915">
        <ele>130</ele>
        <time>2022-04-15T13:07:17Z</time>
      </trkpt>
      <trkpt lat="43.49295" lon="6.23916">
        <ele>130</ele>
        <time>2022-04-15T13:07:18Z</time>
      </trkpt>
      <trkpt lat="43.49295" lon="6.23918">
        <ele>130</ele>
        <time>2022-04-15T13:07:19Z</time>
      </trkpt>
      <trkpt lat="43.49296" lon="6.23919">
        <ele>130</ele>
        <time>2022-04-15T13:07:20Z</time>
      </trkpt>
      <trkpt lat="43.49296" lon="6.23921">
        <ele>130</ele>
        <time>2022-04-15T13:07:21Z</time>
      </trkpt>
      <trkpt lat="43.49297" lon="6.23923">
        <ele>130</ele>
        <time>2022-04-15T13:07:22Z</time>
      </trkpt>
      <trkpt lat="43.49296" lon="6.23925">
        <ele>130</ele>
        <time>2022-04-15T13:07:23Z</time>
      </trkpt>
      <trkpt lat="43.49295" lon="6.23927">
        <ele>130</ele>
        <time>2022-04-15T13:07:24Z</time>
      </trkpt>
      <trkpt lat="43.49294" lon="6.23927">
        <ele>130</ele>
        <time>2022-04-15T13:07:25Z</time>
      </trkpt>
      <trkpt lat="43.49293" lon="6.23927">
        <ele>130</ele>
        <time>2022-04-15T13:07:26Z</time>
      </trkpt>
      <trkpt lat="43.49291" lon="6.23927">
        <ele>130</ele>
        <time>2022-04-15T13:07:27Z</time>
      </trkpt>
      <trkpt lat="43.4929" lon="6.23926">
        <ele>130</ele>
        <time>2022-04-15T13:07:28Z</time>
      </trkpt>
      <trkpt lat="43.49289" lon="6.23925">
        <ele>130</ele>
        <time>2022-04-15T13:07:29Z</time>
      </trkpt>
      <trkpt lat="43.49288" lon="6.23924">
        <ele>130</ele>
        <time>2022-04-15T13:07:30Z</time>
      </trkpt>
      <trkpt lat="43.49287" lon="6.23923">
        <ele>130</ele>
        <time>2022-04-15T13:07:31Z</time>
      </trkpt>
      <trkpt lat="43.49286" lon="6.23922">
        <ele>130</ele>
        <time>2022-04-15T13:07:32Z</time>
      </trkpt>
      <trkpt lat="43.49284" lon="6.23921">
        <ele>130</ele>
        <time>2022-04-15T13:07:33Z</time>
      </trkpt>
      <trkpt lat="43.49284" lon="6.23921">
        <ele>130</ele>
        <time>2022-04-15T13:07:34Z</time>
      </trkpt>
      <trkpt lat="43.49283" lon="6.2392">
        <ele>130</ele>
        <time>2022-04-15T13:07:35Z</time>
      </trkpt>
      <trkpt lat="43.49282" lon="6.2392">
        <ele>130</ele>
        <time>2022-04-15T13:07:36Z</time>
      </trkpt>
      <trkpt lat="43.49282" lon="6.23919">
        <ele>130</ele>
        <time>2022-04-15T13:07:37Z</time>
      </trkpt>
      <trkpt lat="43.49281" lon="6.23919">
        <ele>130</ele>
        <time>2022-04-15T13:07:38Z</time>
      </trkpt>
      <trkpt lat="43.4928" lon="6.23918">
        <ele>130</ele>
        <time>2022-04-15T13:07:39Z</time>
      </trkpt>
      <trkpt lat="43.4928" lon="6.23918">
        <ele>130</ele>
        <time>2022-04-15T13:07:40Z</time>
      </trkpt>
      <trkpt lat="43.49279" lon="6.23917">
        <ele>130</ele>
        <time>2022-04-15T13:07:41Z</time>
      </trkpt>
      <trkpt lat="43.49279" lon="6.23917">
        <ele>130</ele>
        <time>2022-04-15T13:07:42Z</time>
      </trkpt>
      <trkpt lat="43.49278" lon="6.23916">
        <ele>130</ele>
        <time>2022-04-15T13:07:43Z</time>
      </trkpt>
      <trkpt lat="43.49278" lon="6.23916">
        <ele>130</ele>
        <time>2022-04-15T13:07:44Z</time>
      </trkpt>
      <trkpt lat="43.49278" lon="6.23916">
        <ele>130</ele>
        <time>2022-04-15T13:07:45Z</time>
      </trkpt>
      <trkpt lat="43.49278" lon="6.23915">
        <ele>130</ele>
        <time>2022-04-15T13:07:46Z</time>
      </trkpt>
      <trkpt lat="43.49278" lon="6.23915">
        <ele>130</ele>
        <time>2022-04-15T13:07:47Z</time>
      </trkpt>
      <trkpt lat="43.49278" lon="6.23914">
        <ele>130</ele>
        <time>2022-04-15T13:07:48Z</time>
      </trkpt>
      <trkpt lat="43.49279" lon="6.23914">
        <ele>130</ele>
        <time>2022-04-15T13:07:49Z</time>
      </trkpt>
      <trkpt lat="43.49279" lon="6.23914">
        <ele>130</ele>
        <time>2022-04-15T13:07:50Z</time>
      </trkpt>
      <trkpt lat="43.49279" lon="6.23914">
        <ele>131</ele>
        <time>2022-04-15T13:07:51Z</time>
      </trkpt>
      <trkpt lat="43.49279" lon="6.23914">
        <ele>131</ele>
        <time>2022-04-15T13:07:52Z</time>
      </trkpt>
      <trkpt lat="43.49279" lon="6.23914">
        <ele>131</ele>
        <time>2022-04-15T13:07:53Z</time>
      </trkpt>
      <trkpt lat="43.49279" lon="6.23914">
        <ele>131</ele>
        <time>2022-04-15T13:07:54Z</time>
      </trkpt>
      <trkpt lat="43.49279" lon="6.23914">
        <ele>131</ele>
        <time>2022-04-15T13:07:55Z</time>
      </trkpt>
      <trkpt lat="43.4928" lon="6.23915">
        <ele>131</ele>
        <time>2022-04-15T13:07:56Z</time>
      </trkpt>
      <trkpt lat="43.4928" lon="6.23915">
        <ele>131</ele>
        <time>2022-04-15T13:07:57Z</time>
      </trkpt>
      <trkpt lat="43.49281" lon="6.23915">
        <ele>131</ele>
        <time>2022-04-15T13:07:58Z</time>
      </trkpt>
      <trkpt lat="43.49281" lon="6.23915">
        <ele>131</ele>
        <time>2022-04-15T13:07:59Z</time>
      </trkpt>
      <trkpt lat="43.49281" lon="6.23915">
        <ele>131</ele>
        <time>2022-04-15T13:08:00Z</time>
      </trkpt>
      <trkpt lat="43.49281" lon="6.23915">
        <ele>131</ele>
        <time>2022-04-15T13:08:01Z</time>
      </trkpt>
      <trkpt lat="43.49281" lon="6.23915">
        <ele>131</ele>
        <time>2022-04-15T13:08:02Z</time>
      </trkpt>
      <trkpt lat="43.49282" lon="6.23916">
        <ele>131</ele>
        <time>2022-04-15T13:08:03Z</time>
      </trkpt>
      <trkpt lat="43.49282" lon="6.23916">
        <ele>131</ele>
        <time>2022-04-15T13:08:04Z</time>
      </trkpt>
      <trkpt lat="43.49282" lon="6.23916">
        <ele>131</ele>
        <time>2022-04-15T13:08:05Z</time>
      </trkpt>
      <trkpt lat="43.49282" lon="6.23916">
        <ele>131</ele>
        <time>2022-04-15T13:08:06Z</time>
      </trkpt>
      <trkpt lat="43.49282" lon="6.23916">
        <ele>131</ele>
        <time>2022-04-15T13:08:07Z</time>
      </trkpt>
      <trkpt lat="43.49282" lon="6.23916">
        <ele>131</ele>
        <time>2022-04-15T13:08:08Z</time>
      </trkpt>
      <trkpt lat="43.49282" lon="6.23915">
        <ele>131</ele>
        <time>2022-04-15T13:08:09Z</time>
      </trkpt>
      <trkpt lat="43.49282" lon="6.23915">
        <ele>131</ele>
        <time>2022-04-15T13:08:10Z</time>
      </trkpt>
      <trkpt lat="43.49282" lon="6.23915">
        <ele>131</ele>
        <time>2022-04-15T13:08:11Z</time>
      </trkpt>
      <trkpt lat="43.49282" lon="6.23915">
        <ele>131</ele>
        <time>2022-04-15T13:08:12Z</time>
      </trkpt>
      <trkpt lat="43.49282" lon="6.23915">
        <ele>131</ele>
        <time>2022-04-15T13:08:13Z</time>
      </trkpt>
      <trkpt lat="43.49282" lon="6.23915">
        <ele>131</ele>
        <time>2022-04-15T13:08:14Z</time>
      </trkpt>
      <trkpt lat="43.49282" lon="6.23915">
        <ele>131</ele>
        <time>2022-04-15T13:08:15Z</time>
      </trkpt>
      <trkpt lat="43.49282" lon="6.23915">
        <ele>131</ele>
        <time>2022-04-15T13:08:16Z</time>
      </trkpt>
      <trkpt lat="43.49282" lon="6.23915">
        <ele>131</ele>
        <time>2022-04-15T13:08:17Z</time>
      </trkpt>
      <trkpt lat="43.49282" lon="6.23915">
        <ele>131</ele>
        <time>2022-04-15T13:08:18Z</time>
      </trkpt>
      <trkpt lat="43.49282" lon="6.23914">
        <ele>131</ele>
        <time>2022-04-15T13:08:19Z</time>
      </trkpt>
      <trkpt lat="43.49282" lon="6.23914">
        <ele>131</ele>
        <time>2022-04-15T13:08:20Z</time>
      </trkpt>
      <trkpt lat="43.49282" lon="6.23914">
        <ele>131</ele>
        <time>2022-04-15T13:08:21Z</time>
      </trkpt>
      <trkpt lat="43.49282" lon="6.23914">
        <ele>131</ele>
        <time>2022-04-15T13:08:22Z</time>
      </trkpt>
      <trkpt lat="43.49282" lon="6.23914">
        <ele>131</ele>
        <time>2022-04-15T13:08:23Z</time>
      </trkpt>
      <trkpt lat="43.49282" lon="6.23914">
        <ele>131</ele>
        <time>2022-04-15T13:08:24Z</time>
      </trkpt>
      <trkpt lat="43.49282" lon="6.23914">
        <ele>131</ele>
        <time>2022-04-15T13:08:25Z</time>
      </trkpt>
      <trkpt lat="43.49282" lon="6.23914">
        <ele>131</ele>
        <time>2022-04-15T13:08:26Z</time>
      </trkpt>
      <trkpt lat="43.49282" lon="6.23914">
        <ele>131</ele>
        <time>2022-04-15T13:08:27Z</time>
      </trkpt>
      <trkpt lat="43.49282" lon="6.23914">
        <ele>131</ele>
        <time>2022-04-15T13:08:28Z</time>
      </trkpt>
      <trkpt lat="43.49282" lon="6.23914">
        <ele>131</ele>
        <time>2022-04-15T13:08:29Z</time>
      </trkpt>
      <trkpt lat="43.49282" lon="6.23914">
        <ele>131</ele>
        <time>2022-04-15T13:08:30Z</time>
      </trkpt>
      <trkpt lat="43.49282" lon="6.23914">
        <ele>131</ele>
        <time>2022-04-15T13:08:31Z</time>
      </trkpt>
      <trkpt lat="43.49282" lon="6.23914">
        <ele>131</ele>
        <time>2022-04-15T13:08:32Z</time>
      </trkpt>
      <trkpt lat="43.49282" lon="6.23914">
        <ele>131</ele>
        <time>2022-04-15T13:08:33Z</time>
      </trkpt>
      <trkpt lat="43.49282" lon="6.23914">
        <ele>131</ele>
        <time>2022-04-15T13:08:34Z</time>
      </trkpt>
      <trkpt lat="43.49282" lon="6.23914">
        <ele>131</ele>
        <time>2022-04-15T13:08:35Z</time>
      </trkpt>
      <trkpt lat="43.49282" lon="6.23914">
        <ele>131</ele>
        <time>2022-04-15T13:08:36Z</time>
      </trkpt>
      <trkpt lat="43.49282" lon="6.23914">
        <ele>131</ele>
        <time>2022-04-15T13:08:37Z</time>
      </trkpt>
      <trkpt lat="43.49282" lon="6.23914">
        <ele>131</ele>
        <time>2022-04-15T13:08:38Z</time>
      </trkpt>
      <trkpt lat="43.49282" lon="6.23914">
        <ele>131</ele>
        <time>2022-04-15T13:08:39Z</time>
      </trkpt>
      <trkpt lat="43.49282" lon="6.23914">
        <ele>131</ele>
        <time>2022-04-15T13:08:40Z</time>
      </trkpt>
      <trkpt lat="43.49282" lon="6.23914">
        <ele>131</ele>
        <time>2022-04-15T13:08:41Z</time>
      </trkpt>
      <trkpt lat="43.49282" lon="6.23914">
        <ele>131</ele>
        <time>2022-04-15T13:08:42Z</time>
      </trkpt>
      <trkpt lat="43.49282" lon="6.23914">
        <ele>131</ele>
        <time>2022-04-15T13:08:43Z</time>
      </trkpt>
      <trkpt lat="43.49282" lon="6.23914">
        <ele>131</ele>
        <time>2022-04-15T13:08:44Z</time>
      </trkpt>
      <trkpt lat="43.49282" lon="6.23914">
        <ele>131</ele>
        <time>2022-04-15T13:08:45Z</time>
      </trkpt>
      <trkpt lat="43.49282" lon="6.23914">
        <ele>131</ele>
        <time>2022-04-15T13:08:46Z</time>
      </trkpt>
      <trkpt lat="43.49282" lon="6.23914">
        <ele>131</ele>
        <time>2022-04-15T13:08:47Z</time>
      </trkpt>
      <trkpt lat="43.49282" lon="6.23914">
        <ele>131</ele>
        <time>2022-04-15T13:08:48Z</time>
      </trkpt>
      <trkpt lat="43.49282" lon="6.23914">
        <ele>131</ele>
        <time>2022-04-15T13:08:49Z</time>
      </trkpt>
      <trkpt lat="43.49282" lon="6.23914">
        <ele>131</ele>
        <time>2022-04-15T13:08:50Z</time>
      </trkpt>
      <trkpt lat="43.49282" lon="6.23914">
        <ele>131</ele>
        <time>2022-04-15T13:08:51Z</time>
      </trkpt>
      <trkpt lat="43.49282" lon="6.23914">
        <ele>131</ele>
        <time>2022-04-15T13:08:52Z</time>
      </trkpt>
      <trkpt lat="43.49282" lon="6.23914">
        <ele>131</ele>
        <time>2022-04-15T13:08:53Z</time>
      </trkpt>
      <trkpt lat="43.49282" lon="6.23914">
        <ele>131</ele>
        <time>2022-04-15T13:08:54Z</time>
      </trkpt>
      <trkpt lat="43.49282" lon="6.23914">
        <ele>131</ele>
        <time>2022-04-15T13:08:55Z</time>
      </trkpt>
      <trkpt lat="43.49282" lon="6.23914">
        <ele>131</ele>
        <time>2022-04-15T13:08:56Z</time>
      </trkpt>
      <trkpt lat="43.49282" lon="6.23914">
        <ele>131</ele>
        <time>2022-04-15T13:08:57Z</time>
      </trkpt>
      <trkpt lat="43.49282" lon="6.23914">
        <ele>131</ele>
        <time>2022-04-15T13:08:58Z</time>
      </trkpt>
      <trkpt lat="43.49282" lon="6.23914">
        <ele>131</ele>
        <time>2022-04-15T13:08:59Z</time>
      </trkpt>
      <trkpt lat="43.49282" lon="6.23914">
        <ele>131</ele>
        <time>2022-04-15T13:09:00Z</time>
      </trkpt>
      <trkpt lat="43.49282" lon="6.23914">
        <ele>131</ele>
        <time>2022-04-15T13:09:01Z</time>
      </trkpt>
      <trkpt lat="43.49282" lon="6.23914">
        <ele>131</ele>
        <time>2022-04-15T13:09:02Z</time>
      </trkpt>
      <trkpt lat="43.49282" lon="6.23914">
        <ele>131</ele>
        <time>2022-04-15T13:09:03Z</time>
      </trkpt>
      <trkpt lat="43.49282" lon="6.23914">
        <ele>131</ele>
        <time>2022-04-15T13:09:04Z</time>
      </trkpt>
      <trkpt lat="43.49282" lon="6.23914">
        <ele>131</ele>
        <time>2022-04-15T13:09:05Z</time>
      </trkpt>
      <trkpt lat="43.49282" lon="6.23914">
        <ele>131</ele>
        <time>2022-04-15T13:09:06Z</time>
      </trkpt>
      <trkpt lat="43.49282" lon="6.23914">
        <ele>131</ele>
        <time>2022-04-15T13:09:07Z</time>
      </trkpt>
      <trkpt lat="43.49282" lon="6.23914">
        <ele>131</ele>
        <time>2022-04-15T13:09:08Z</time>
      </trkpt>
      <trkpt lat="43.49282" lon="6.23914">
        <ele>131</ele>
        <time>2022-04-15T13:09:09Z</time>
      </trkpt>
      <trkpt lat="43.49282" lon="6.23914">
        <ele>131</ele>
        <time>2022-04-15T13:09:10Z</time>
      </trkpt>
      <trkpt lat="43.49282" lon="6.23914">
        <ele>131</ele>
        <time>2022-04-15T13:09:11Z</time>
      </trkpt>
      <trkpt lat="43.49282" lon="6.23914">
        <ele>131</ele>
        <time>2022-04-15T13:09:12Z</time>
      </trkpt>
      <trkpt lat="43.49282" lon="6.23914">
        <ele>131</ele>
        <time>2022-04-15T13:09:13Z</time>
      </trkpt>
      <trkpt lat="43.49282" lon="6.23914">
        <ele>131</ele>
        <time>2022-04-15T13:09:14Z</time>
      </trkpt>
      <trkpt lat="43.49282" lon="6.23914">
        <ele>131</ele>
        <time>2022-04-15T13:09:15Z</time>
      </trkpt>
      <trkpt lat="43.49282" lon="6.23914">
        <ele>131</ele>
        <time>2022-04-15T13:09:16Z</time>
      </trkpt>
      <trkpt lat="43.49282" lon="6.23914">
        <ele>131</ele>
        <time>2022-04-15T13:09:17Z</time>
      </trkpt>
      <trkpt lat="43.49282" lon="6.23914">
        <ele>131</ele>
        <time>2022-04-15T13:09:18Z</time>
      </trkpt>
      <trkpt lat="43.49282" lon="6.23914">
        <ele>131</ele>
        <time>2022-04-15T13:09:19Z</time>
      </trkpt>
      <trkpt lat="43.49282" lon="6.23914">
        <ele>131</ele>
        <time>2022-04-15T13:09:20Z</time>
      </trkpt>
      <trkpt lat="43.49282" lon="6.23914">
        <ele>131</ele>
        <time>2022-04-15T13:09:21Z</time>
      </trkpt>
      <trkpt lat="43.49282" lon="6.23914">
        <ele>131</ele>
        <time>2022-04-15T13:09:22Z</time>
      </trkpt>
      <trkpt lat="43.49282" lon="6.23914">
        <ele>131</ele>
        <time>2022-04-15T13:09:23Z</time>
      </trkpt>
      <trkpt lat="43.49282" lon="6.23914">
        <ele>131</ele>
        <time>2022-04-15T13:09:24Z</time>
      </trkpt>
      <trkpt lat="43.49282" lon="6.23914">
        <ele>131</ele>
        <time>2022-04-15T13:09:25Z</time>
      </trkpt>
      <trkpt lat="43.49282" lon="6.23914">
        <ele>131</ele>
        <time>2022-04-15T13:09:26Z</time>
      </trkpt>
      <trkpt lat="43.49282" lon="6.23914">
        <ele>131</ele>
        <time>2022-04-15T13:09:27Z</time>
      </trkpt>
      <trkpt lat="43.49282" lon="6.23914">
        <ele>131</ele>
        <time>2022-04-15T13:09:28Z</time>
      </trkpt>
      <trkpt lat="43.49282" lon="6.23914">
        <ele>131</ele>
        <time>2022-04-15T13:09:29Z</time>
      </trkpt>
      <trkpt lat="43.49282" lon="6.23914">
        <ele>131</ele>
        <time>2022-04-15T13:09:30Z</time>
      </trkpt>
      <trkpt lat="43.49282" lon="6.23914">
        <ele>131</ele>
        <time>2022-04-15T13:09:31Z</time>
      </trkpt>
      <trkpt lat="43.49282" lon="6.23914">
        <ele>131</ele>
        <time>2022-04-15T13:09:32Z</time>
      </trkpt>
      <trkpt lat="43.49282" lon="6.23914">
        <ele>131</ele>
        <time>2022-04-15T13:09:33Z</time>
      </trkpt>
      <trkpt lat="43.49282" lon="6.23914">
        <ele>131</ele>
        <time>2022-04-15T13:09:34Z</time>
      </trkpt>
      <trkpt lat="43.49282" lon="6.23914">
        <ele>131</ele>
        <time>2022-04-15T13:09:35Z</time>
      </trkpt>
      <trkpt lat="43.49282" lon="6.23914">
        <ele>131</ele>
        <time>2022-04-15T13:09:36Z</time>
      </trkpt>
      <trkpt lat="43.49282" lon="6.23914">
        <ele>131</ele>
        <time>2022-04-15T13:09:37Z</time>
      </trkpt>
      <trkpt lat="43.49282" lon="6.23914">
        <ele>131</ele>
        <time>2022-04-15T13:09:38Z</time>
      </trkpt>
      <trkpt lat="43.49282" lon="6.23914">
        <ele>131</ele>
        <time>2022-04-15T13:09:39Z</time>
      </trkpt>
      <trkpt lat="43.49282" lon="6.23914">
        <ele>131</ele>
        <time>2022-04-15T13:09:40Z</time>
      </trkpt>
      <trkpt lat="43.49282" lon="6.23914">
        <ele>131</ele>
        <time>2022-04-15T13:09:41Z</time>
      </trkpt>
      <trkpt lat="43.49282" lon="6.23914">
        <ele>131</ele>
        <time>2022-04-15T13:09:42Z</time>
      </trkpt>
      <trkpt lat="43.49282" lon="6.23914">
        <ele>131</ele>
        <time>2022-04-15T13:09:43Z</time>
      </trkpt>
      <trkpt lat="43.49282" lon="6.23914">
        <ele>131</ele>
        <time>2022-04-15T13:09:44Z</time>
      </trkpt>
      <trkpt lat="43.49282" lon="6.23914">
        <ele>131</ele>
        <time>2022-04-15T13:09:45Z</time>
      </trkpt>
      <trkpt lat="43.49282" lon="6.23914">
        <ele>131</ele>
        <time>2022-04-15T13:09:46Z</time>
      </trkpt>
      <trkpt lat="43.49282" lon="6.23914">
        <ele>131</ele>
        <time>2022-04-15T13:09:47Z</time>
      </trkpt>
      <trkpt lat="43.49282" lon="6.23914">
        <ele>131</ele>
        <time>2022-04-15T13:09:48Z</time>
      </trkpt>
      <trkpt lat="43.49282" lon="6.23914">
        <ele>131</ele>
        <time>2022-04-15T13:09:49Z</time>
      </trkpt>
      <trkpt lat="43.49282" lon="6.23914">
        <ele>131</ele>
        <time>2022-04-15T13:09:50Z</time>
      </trkpt>
      <trkpt lat="43.49282" lon="6.23914">
        <ele>131</ele>
        <time>2022-04-15T13:09:51Z</time>
      </trkpt>
      <trkpt lat="43.49282" lon="6.23914">
        <ele>131</ele>
        <time>2022-04-15T13:09:52Z</time>
      </trkpt>
      <trkpt lat="43.49282" lon="6.23914">
        <ele>131</ele>
        <time>2022-04-15T13:09:53Z</time>
      </trkpt>
      <trkpt lat="43.49282" lon="6.23914">
        <ele>131</ele>
        <time>2022-04-15T13:09:54Z</time>
      </trkpt>
      <trkpt lat="43.49282" lon="6.23914">
        <ele>131</ele>
        <time>2022-04-15T13:09:55Z</time>
      </trkpt>
      <trkpt lat="43.49282" lon="6.23914">
        <ele>131</ele>
        <time>2022-04-15T13:09:56Z</time>
      </trkpt>
      <trkpt lat="43.49282" lon="6.23914">
        <ele>131</ele>
        <time>2022-04-15T13:09:57Z</time>
      </trkpt>
      <trkpt lat="43.49282" lon="6.23914">
        <ele>131</ele>
        <time>2022-04-15T13:09:58Z</time>
      </trkpt>
      <trkpt lat="43.49282" lon="6.23914">
        <ele>131</ele>
        <time>2022-04-15T13:09:59Z</time>
      </trkpt>
      <trkpt lat="43.49282" lon="6.23914">
        <ele>131</ele>
        <time>2022-04-15T13:10:00Z</time>
      </trkpt>
      <trkpt lat="43.49282" lon="6.23914">
        <ele>131</ele>
        <time>2022-04-15T13:10:01Z</time>
      </trkpt>
      <trkpt lat="43.49282" lon="6.23914">
        <ele>131</ele>
        <time>2022-04-15T13:10:02Z</time>
      </trkpt>
      <trkpt lat="43.49282" lon="6.23914">
        <ele>131</ele>
        <time>2022-04-15T13:10:03Z</time>
      </trkpt>
      <trkpt lat="43.49282" lon="6.23914">
        <ele>131</ele>
        <time>2022-04-15T13:10:04Z</time>
      </trkpt>
      <trkpt lat="43.49282" lon="6.23914">
        <ele>131</ele>
        <time>2022-04-15T13:10:05Z</time>
      </trkpt>
      <trkpt lat="43.49282" lon="6.23914">
        <ele>131</ele>
        <time>2022-04-15T13:10:06Z</time>
      </trkpt>
      <trkpt lat="43.49282" lon="6.23914">
        <ele>131</ele>
        <time>2022-04-15T13:10:07Z</time>
      </trkpt>
      <trkpt lat="43.49282" lon="6.23914">
        <ele>131</ele>
        <time>2022-04-15T13:10:08Z</time>
      </trkpt>
      <trkpt lat="43.49282" lon="6.23914">
        <ele>131</ele>
        <time>2022-04-15T13:10:09Z</time>
      </trkpt>
      <trkpt lat="43.49282" lon="6.23914">
        <ele>131</ele>
        <time>2022-04-15T13:10:10Z</time>
      </trkpt>
      <trkpt lat="43.49282" lon="6.23914">
        <ele>131</ele>
        <time>2022-04-15T13:10:11Z</time>
      </trkpt>
      <trkpt lat="43.49282" lon="6.23914">
        <ele>131</ele>
        <time>2022-04-15T13:10:12Z</time>
      </trkpt>
      <trkpt lat="43.49282" lon="6.23914">
        <ele>131</ele>
        <time>2022-04-15T13:10:13Z</time>
      </trkpt>
      <trkpt lat="43.49282" lon="6.23914">
        <ele>131</ele>
        <time>2022-04-15T13:10:14Z</time>
      </trkpt>
      <trkpt lat="43.49282" lon="6.23914">
        <ele>131</ele>
        <time>2022-04-15T13:10:15Z</time>
      </trkpt>
      <trkpt lat="43.49282" lon="6.23914">
        <ele>131</ele>
        <time>2022-04-15T13:10:16Z</time>
      </trkpt>
      <trkpt lat="43.49282" lon="6.23914">
        <ele>131</ele>
        <time>2022-04-15T13:10:17Z</time>
      </trkpt>
      <trkpt lat="43.49282" lon="6.23914">
        <ele>131</ele>
        <time>2022-04-15T13:10:18Z</time>
      </trkpt>
      <trkpt lat="43.49282" lon="6.23914">
        <ele>131</ele>
        <time>2022-04-15T13:10:19Z</time>
      </trkpt>
      <trkpt lat="43.49282" lon="6.23914">
        <ele>131</ele>
        <time>2022-04-15T13:10:20Z</time>
      </trkpt>
      <trkpt lat="43.49282" lon="6.23914">
        <ele>131</ele>
        <time>2022-04-15T13:10:21Z</time>
      </trkpt>
      <trkpt lat="43.49282" lon="6.23914">
        <ele>131</ele>
        <time>2022-04-15T13:10:22Z</time>
      </trkpt>
      <trkpt lat="43.49282" lon="6.23914">
        <ele>131</ele>
        <time>2022-04-15T13:10:23Z</time>
      </trkpt>
      <trkpt lat="43.49282" lon="6.23914">
        <ele>131</ele>
        <time>2022-04-15T13:10:24Z</time>
      </trkpt>
      <trkpt lat="43.49282" lon="6.23914">
        <ele>131</ele>
        <time>2022-04-15T13:10:25Z</time>
      </trkpt>
      <trkpt lat="43.49282" lon="6.23914">
        <ele>131</ele>
        <time>2022-04-15T13:10:26Z</time>
      </trkpt>
      <trkpt lat="43.49282" lon="6.23914">
        <ele>132</ele>
        <time>2022-04-15T13:10:27Z</time>
      </trkpt>
      <trkpt lat="43.49282" lon="6.23914">
        <ele>132</ele>
        <time>2022-04-15T13:10:28Z</time>
      </trkpt>
      <trkpt lat="43.49282" lon="6.23914">
        <ele>132</ele>
        <time>2022-04-15T13:10:29Z</time>
      </trkpt>
      <trkpt lat="43.49282" lon="6.23914">
        <ele>132</ele>
        <time>2022-04-15T13:10:30Z</time>
      </trkpt>
      <trkpt lat="43.49282" lon="6.23914">
        <ele>132</ele>
        <time>2022-04-15T13:10:31Z</time>
      </trkpt>
      <trkpt lat="43.49282" lon="6.23914">
        <ele>132</ele>
        <time>2022-04-15T13:10:32Z</time>
      </trkpt>
      <trkpt lat="43.49282" lon="6.23914">
        <ele>132</ele>
        <time>2022-04-15T13:10:33Z</time>
      </trkpt>
      <trkpt lat="43.49282" lon="6.23914">
        <ele>132</ele>
        <time>2022-04-15T13:10:34Z</time>
      </trkpt>
      <trkpt lat="43.49282" lon="6.23914">
        <ele>132</ele>
        <time>2022-04-15T13:10:35Z</time>
      </trkpt>
      <trkpt lat="43.49282" lon="6.23914">
        <ele>132</ele>
        <time>2022-04-15T13:10:36Z</time>
      </trkpt>
      <trkpt lat="43.49282" lon="6.23914">
        <ele>132</ele>
        <time>2022-04-15T13:10:37Z</time>
      </trkpt>
      <trkpt lat="43.49284" lon="6.23915">
        <ele>132</ele>
        <time>2022-04-15T13:10:38Z</time>
      </trkpt>
      <trkpt lat="43.49285" lon="6.23915">
        <ele>132</ele>
        <time>2022-04-15T13:10:39Z</time>
      </trkpt>
      <trkpt lat="43.49285" lon="6.23915">
        <ele>132</ele>
        <time>2022-04-15T13:10:40Z</time>
      </trkpt>
      <trkpt lat="43.49285" lon="6.23915">
        <ele>132</ele>
        <time>2022-04-15T13:10:41Z</time>
      </trkpt>
      <trkpt lat="43.49285" lon="6.23915">
        <ele>132</ele>
        <time>2022-04-15T13:10:42Z</time>
      </trkpt>
      <trkpt lat="43.49285" lon="6.23915">
        <ele>132</ele>
        <time>2022-04-15T13:10:43Z</time>
      </trkpt>
      <trkpt lat="43.49285" lon="6.23915">
        <ele>132</ele>
        <time>2022-04-15T13:10:44Z</time>
      </trkpt>
      <trkpt lat="43.49285" lon="6.23915">
        <ele>132</ele>
        <time>2022-04-15T13:10:45Z</time>
      </trkpt>
      <trkpt lat="43.49285" lon="6.23915">
        <ele>132</ele>
        <time>2022-04-15T13:10:46Z</time>
      </trkpt>
      <trkpt lat="43.49285" lon="6.23915">
        <ele>132</ele>
        <time>2022-04-15T13:10:47Z</time>
      </trkpt>
      <trkpt lat="43.49285" lon="6.23915">
        <ele>132</ele>
        <time>2022-04-15T13:10:48Z</time>
      </trkpt>
      <trkpt lat="43.49285" lon="6.23915">
        <ele>132</ele>
        <time>2022-04-15T13:10:49Z</time>
      </trkpt>
      <trkpt lat="43.49285" lon="6.23915">
        <ele>132</ele>
        <time>2022-04-15T13:10:50Z</time>
      </trkpt>
      <trkpt lat="43.49285" lon="6.23915">
        <ele>132</ele>
        <time>2022-04-15T13:10:51Z</time>
      </trkpt>
      <trkpt lat="43.49285" lon="6.23915">
        <ele>132</ele>
        <time>2022-04-15T13:10:52Z</time>
      </trkpt>
      <trkpt lat="43.49285" lon="6.23915">
        <ele>132</ele>
        <time>2022-04-15T13:10:53Z</time>
      </trkpt>
      <trkpt lat="43.49285" lon="6.23915">
        <ele>132</ele>
        <time>2022-04-15T13:10:54Z</time>
      </trkpt>
      <trkpt lat="43.49285" lon="6.23915">
        <ele>132</ele>
        <time>2022-04-15T13:10:55Z</time>
      </trkpt>
      <trkpt lat="43.49285" lon="6.23915">
        <ele>132</ele>
        <time>2022-04-15T13:10:56Z</time>
      </trkpt>
      <trkpt lat="43.49285" lon="6.23915">
        <ele>132</ele>
        <time>2022-04-15T13:10:57Z</time>
      </trkpt>
      <trkpt lat="43.49285" lon="6.23915">
        <ele>132</ele>
        <time>2022-04-15T13:10:58Z</time>
      </trkpt>
      <trkpt lat="43.49285" lon="6.23915">
        <ele>132</ele>
        <time>2022-04-15T13:10:59Z</time>
      </trkpt>
      <trkpt lat="43.49285" lon="6.23915">
        <ele>132</ele>
        <time>2022-04-15T13:11:00Z</time>
      </trkpt>
      <trkpt lat="43.49285" lon="6.23915">
        <ele>132</ele>
        <time>2022-04-15T13:11:01Z</time>
      </trkpt>
      <trkpt lat="43.49285" lon="6.23915">
        <ele>132</ele>
        <time>2022-04-15T13:11:02Z</time>
      </trkpt>
      <trkpt lat="43.49285" lon="6.23915">
        <ele>132</ele>
        <time>2022-04-15T13:11:03Z</time>
      </trkpt>
      <trkpt lat="43.49285" lon="6.23915">
        <ele>132</ele>
        <time>2022-04-15T13:11:04Z</time>
      </trkpt>
      <trkpt lat="43.49285" lon="6.23915">
        <ele>132</ele>
        <time>2022-04-15T13:11:05Z</time>
      </trkpt>
      <trkpt lat="43.49285" lon="6.23915">
        <ele>132</ele>
        <time>2022-04-15T13:11:06Z</time>
      </trkpt>
      <trkpt lat="43.49285" lon="6.23915">
        <ele>132</ele>
        <time>2022-04-15T13:11:07Z</time>
      </trkpt>
      <trkpt lat="43.49285" lon="6.23915">
        <ele>132</ele>
        <time>2022-04-15T13:11:08Z</time>
      </trkpt>
      <trkpt lat="43.49285" lon="6.23915">
        <ele>132</ele>
        <time>2022-04-15T13:11:09Z</time>
      </trkpt>
      <trkpt lat="43.49285" lon="6.23915">
        <ele>132</ele>
        <time>2022-04-15T13:11:10Z</time>
      </trkpt>
      <trkpt lat="43.49285" lon="6.23915">
        <ele>132</ele>
        <time>2022-04-15T13:11:11Z</time>
      </trkpt>
      <trkpt lat="43.49285" lon="6.23915">
        <ele>132</ele>
        <time>2022-04-15T13:11:12Z</time>
      </trkpt>
      <trkpt lat="43.49285" lon="6.23915">
        <ele>132</ele>
        <time>2022-04-15T13:11:13Z</time>
      </trkpt>
      <trkpt lat="43.49285" lon="6.23915">
        <ele>132</ele>
        <time>2022-04-15T13:11:14Z</time>
      </trkpt>
      <trkpt lat="43.49285" lon="6.23915">
        <ele>132</ele>
        <time>2022-04-15T13:11:15Z</time>
      </trkpt>
      <trkpt lat="43.49285" lon="6.23915">
        <ele>132</ele>
        <time>2022-04-15T13:11:16Z</time>
      </trkpt>
      <trkpt lat="43.49285" lon="6.23915">
        <ele>132</ele>
        <time>2022-04-15T13:11:17Z</time>
      </trkpt>
      <trkpt lat="43.49285" lon="6.23915">
        <ele>132</ele>
        <time>2022-04-15T13:11:18Z</time>
      </trkpt>
      <trkpt lat="43.49285" lon="6.23915">
        <ele>132</ele>
        <time>2022-04-15T13:11:19Z</time>
      </trkpt>
      <trkpt lat="43.49285" lon="6.23915">
        <ele>132</ele>
        <time>2022-04-15T13:11:20Z</time>
      </trkpt>
      <trkpt lat="43.49285" lon="6.23915">
        <ele>132</ele>
        <time>2022-04-15T13:11:21Z</time>
      </trkpt>
      <trkpt lat="43.49285" lon="6.23915">
        <ele>132</ele>
        <time>2022-04-15T13:11:22Z</time>
      </trkpt>
      <trkpt lat="43.49285" lon="6.23915">
        <ele>132</ele>
        <time>2022-04-15T13:11:23Z</time>
      </trkpt>
      <trkpt lat="43.49285" lon="6.23915">
        <ele>132</ele>
        <time>2022-04-15T13:11:24Z</time>
      </trkpt>
      <trkpt lat="43.49285" lon="6.23915">
        <ele>132</ele>
        <time>2022-04-15T13:11:25Z</time>
      </trkpt>
      <trkpt lat="43.49285" lon="6.23917">
        <ele>132</ele>
        <time>2022-04-15T13:11:26Z</time>
      </trkpt>
      <trkpt lat="43.49286" lon="6.23918">
        <ele>132</ele>
        <time>2022-04-15T13:11:27Z</time>
      </trkpt>
      <trkpt lat="43.49286" lon="6.23919">
        <ele>132</ele>
        <time>2022-04-15T13:11:28Z</time>
      </trkpt>
      <trkpt lat="43.49287" lon="6.2392">
        <ele>132</ele>
        <time>2022-04-15T13:11:29Z</time>
      </trkpt>
      <trkpt lat="43.49287" lon="6.23921">
        <ele>132</ele>
        <time>2022-04-15T13:11:30Z</time>
      </trkpt>
      <trkpt lat="43.49287" lon="6.23922">
        <ele>132</ele>
        <time>2022-04-15T13:11:31Z</time>
      </trkpt>
      <trkpt lat="43.49288" lon="6.23923">
        <ele>132</ele>
        <time>2022-04-15T13:11:32Z</time>
      </trkpt>
      <trkpt lat="43.49288" lon="6.23924">
        <ele>132</ele>
        <time>2022-04-15T13:11:33Z</time>
      </trkpt>
      <trkpt lat="43.49289" lon="6.23925">
        <ele>132</ele>
        <time>2022-04-15T13:11:34Z</time>
      </trkpt>
      <trkpt lat="43.49289" lon="6.23926">
        <ele>132</ele>
        <time>2022-04-15T13:11:35Z</time>
      </trkpt>
      <trkpt lat="43.49289" lon="6.23927">
        <ele>132</ele>
        <time>2022-04-15T13:11:36Z</time>
      </trkpt>
      <trkpt lat="43.4929" lon="6.23928">
        <ele>132</ele>
        <time>2022-04-15T13:11:37Z</time>
      </trkpt>
      <trkpt lat="43.4929" lon="6.23928">
        <ele>132</ele>
        <time>2022-04-15T13:11:38Z</time>
      </trkpt>
      <trkpt lat="43.4929" lon="6.23929">
        <ele>132</ele>
        <time>2022-04-15T13:11:39Z</time>
      </trkpt>
      <trkpt lat="43.4929" lon="6.2393">
        <ele>132</ele>
        <time>2022-04-15T13:11:40Z</time>
      </trkpt>
      <trkpt lat="43.49291" lon="6.2393">
        <ele>132</ele>
        <time>2022-04-15T13:11:41Z</time>
      </trkpt>
      <trkpt lat="43.49291" lon="6.23931">
        <ele>132</ele>
        <time>2022-04-15T13:11:42Z</time>
      </trkpt>
      <trkpt lat="43.49291" lon="6.23931">
        <ele>132</ele>
        <time>2022-04-15T13:11:43Z</time>
      </trkpt>
      <trkpt lat="43.49291" lon="6.23932">
        <ele>132</ele>
        <time>2022-04-15T13:11:44Z</time>
      </trkpt>
      <trkpt lat="43.49292" lon="6.23932">
        <ele>132</ele>
        <time>2022-04-15T13:11:45Z</time>
      </trkpt>
      <trkpt lat="43.49292" lon="6.23932">
        <ele>132</ele>
        <time>2022-04-15T13:11:46Z</time>
      </trkpt>
      <trkpt lat="43.49292" lon="6.23932">
        <ele>132</ele>
        <time>2022-04-15T13:11:47Z</time>
      </trkpt>
      <trkpt lat="43.49292" lon="6.23932">
        <ele>132</ele>
        <time>2022-04-15T13:11:48Z</time>
      </trkpt>
      <trkpt lat="43.49293" lon="6.23932">
        <ele>132</ele>
        <time>2022-04-15T13:11:49Z</time>
      </trkpt>
      <trkpt lat="43.49293" lon="6.23932">
        <ele>132</ele>
        <time>2022-04-15T13:11:50Z</time>
      </trkpt>
      <trkpt lat="43.49293" lon="6.23932">
        <ele>132</ele>
        <time>2022-04-15T13:11:51Z</time>
      </trkpt>
      <trkpt lat="43.49294" lon="6.23931">
        <ele>132</ele>
        <time>2022-04-15T13:11:52Z</time>
      </trkpt>
      <trkpt lat="43.49294" lon="6.2393">
        <ele>132</ele>
        <time>2022-04-15T13:11:53Z</time>
      </trkpt>
      <trkpt lat="43.49295" lon="6.23929">
        <ele>132</ele>
        <time>2022-04-15T13:11:54Z</time>
      </trkpt>
      <trkpt lat="43.49295" lon="6.23928">
        <ele>132</ele>
        <time>2022-04-15T13:11:55Z</time>
      </trkpt>
      <trkpt lat="43.49295" lon="6.23927">
        <ele>131</ele>
        <time>2022-04-15T13:11:56Z</time>
      </trkpt>
      <trkpt lat="43.49295" lon="6.23926">
        <ele>131</ele>
        <time>2022-04-15T13:11:57Z</time>
      </trkpt>
      <trkpt lat="43.49295" lon="6.23926">
        <ele>131</ele>
        <time>2022-04-15T13:11:58Z</time>
      </trkpt>
      <trkpt lat="43.49296" lon="6.23925">
        <ele>131</ele>
        <time>2022-04-15T13:11:59Z</time>
      </trkpt>
      <trkpt lat="43.49296" lon="6.23925">
        <ele>131</ele>
        <time>2022-04-15T13:12:00Z</time>
      </trkpt>
      <trkpt lat="43.49296" lon="6.23924">
        <ele>131</ele>
        <time>2022-04-15T13:12:01Z</time>
      </trkpt>
      <trkpt lat="43.49296" lon="6.23924">
        <ele>131</ele>
        <time>2022-04-15T13:12:02Z</time>
      </trkpt>
      <trkpt lat="43.49296" lon="6.23923">
        <ele>131</ele>
        <time>2022-04-15T13:12:03Z</time>
      </trkpt>
      <trkpt lat="43.49296" lon="6.23923">
        <ele>131</ele>
        <time>2022-04-15T13:12:04Z</time>
      </trkpt>
      <trkpt lat="43.49296" lon="6.23923">
        <ele>131</ele>
        <time>2022-04-15T13:12:05Z</time>
      </trkpt>
      <trkpt lat="43.49296" lon="6.23922">
        <ele>131</ele>
        <time>2022-04-15T13:12:06Z</time>
      </trkpt>
      <trkpt lat="43.49297" lon="6.23922">
        <ele>131</ele>
        <time>2022-04-15T13:12:07Z</time>
      </trkpt>
      <trkpt lat="43.49297" lon="6.23921">
        <ele>131</ele>
        <time>2022-04-15T13:12:08Z</time>
      </trkpt>
      <trkpt lat="43.49297" lon="6.23921">
        <ele>130</ele>
        <time>2022-04-15T13:12:09Z</time>
      </trkpt>
      <trkpt lat="43.49297" lon="6.23921">
        <ele>130</ele>
        <time>2022-04-15T13:12:10Z</time>
      </trkpt>
      <trkpt lat="43.49297" lon="6.23921">
        <ele>130</ele>
        <time>2022-04-15T13:12:11Z</time>
      </trkpt>
      <trkpt lat="43.49297" lon="6.2392">
        <ele>130</ele>
        <time>2022-04-15T13:12:12Z</time>
      </trkpt>
      <trkpt lat="43.49297" lon="6.2392">
        <ele>130</ele>
        <time>2022-04-15T13:12:13Z</time>
      </trkpt>
      <trkpt lat="43.49297" lon="6.2392">
        <ele>130</ele>
        <time>2022-04-15T13:12:14Z</time>
      </trkpt>
      <trkpt lat="43.49298" lon="6.2392">
        <ele>130</ele>
        <time>2022-04-15T13:12:15Z</time>
      </trkpt>
      <trkpt lat="43.49298" lon="6.2392">
        <ele>130</ele>
        <time>2022-04-15T13:12:16Z</time>
      </trkpt>
      <trkpt lat="43.49298" lon="6.2392">
        <ele>130</ele>
        <time>2022-04-15T13:12:17Z</time>
      </trkpt>
      <trkpt lat="43.49298" lon="6.23919">
        <ele>130</ele>
        <time>2022-04-15T13:12:18Z</time>
      </trkpt>
      <trkpt lat="43.49298" lon="6.23919">
        <ele>130</ele>
        <time>2022-04-15T13:12:19Z</time>
      </trkpt>
      <trkpt lat="43.49298" lon="6.23918">
        <ele>130</ele>
        <time>2022-04-15T13:12:20Z</time>
      </trkpt>
      <trkpt lat="43.49298" lon="6.23917">
        <ele>130</ele>
        <time>2022-04-15T13:12:21Z</time>
      </trkpt>
      <trkpt lat="43.49297" lon="6.23915">
        <ele>130</ele>
        <time>2022-04-15T13:12:22Z</time>
      </trkpt>
      <trkpt lat="43.49297" lon="6.23914">
        <ele>130</ele>
        <time>2022-04-15T13:12:23Z</time>
      </trkpt>
      <trkpt lat="43.49297" lon="6.23913">
        <ele>130</ele>
        <time>2022-04-15T13:12:24Z</time>
      </trkpt>
      <trkpt lat="43.49296" lon="6.23912">
        <ele>130</ele>
        <time>2022-04-15T13:12:25Z</time>
      </trkpt>
      <trkpt lat="43.49296" lon="6.23911">
        <ele>129</ele>
        <time>2022-04-15T13:12:26Z</time>
      </trkpt>
      <trkpt lat="43.49295" lon="6.23909">
        <ele>129</ele>
        <time>2022-04-15T13:12:27Z</time>
      </trkpt>
      <trkpt lat="43.49294" lon="6.23908">
        <ele>129</ele>
        <time>2022-04-15T13:12:28Z</time>
      </trkpt>
      <trkpt lat="43.49294" lon="6.23907">
        <ele>129</ele>
        <time>2022-04-15T13:12:29Z</time>
      </trkpt>
      <trkpt lat="43.49293" lon="6.23905">
        <ele>129</ele>
        <time>2022-04-15T13:12:30Z</time>
      </trkpt>
      <trkpt lat="43.49293" lon="6.23903">
        <ele>129</ele>
        <time>2022-04-15T13:12:31Z</time>
      </trkpt>
      <trkpt lat="43.49292" lon="6.239">
        <ele>129</ele>
        <time>2022-04-15T13:12:32Z</time>
      </trkpt>
      <trkpt lat="43.49291" lon="6.23899">
        <ele>129</ele>
        <time>2022-04-15T13:12:33Z</time>
      </trkpt>
      <trkpt lat="43.49291" lon="6.23898">
        <ele>128</ele>
        <time>2022-04-15T13:12:34Z</time>
      </trkpt>
      <trkpt lat="43.49291" lon="6.23896">
        <ele>128</ele>
        <time>2022-04-15T13:12:35Z</time>
      </trkpt>
      <trkpt lat="43.4929" lon="6.23895">
        <ele>127</ele>
        <time>2022-04-15T13:12:36Z</time>
      </trkpt>
      <trkpt lat="43.4929" lon="6.23893">
        <ele>127</ele>
        <time>2022-04-15T13:12:37Z</time>
      </trkpt>
      <trkpt lat="43.49289" lon="6.2389">
        <ele>127</ele>
        <time>2022-04-15T13:12:38Z</time>
      </trkpt>
      <trkpt lat="43.49289" lon="6.23887">
        <ele>127</ele>
        <time>2022-04-15T13:12:39Z</time>
      </trkpt>
      <trkpt lat="43.49288" lon="6.23885">
        <ele>127</ele>
        <time>2022-04-15T13:12:40Z</time>
      </trkpt>
      <trkpt lat="43.49288" lon="6.23883">
        <ele>127</ele>
        <time>2022-04-15T13:12:41Z</time>
      </trkpt>
      <trkpt lat="43.49288" lon="6.23882">
        <ele>127</ele>
        <time>2022-04-15T13:12:42Z</time>
      </trkpt>
      <trkpt lat="43.49288" lon="6.2388">
        <ele>127</ele>
        <time>2022-04-15T13:12:43Z</time>
      </trkpt>
      <trkpt lat="43.49287" lon="6.23879">
        <ele>127</ele>
        <time>2022-04-15T13:12:44Z</time>
      </trkpt>
      <trkpt lat="43.49287" lon="6.23877">
        <ele>127</ele>
        <time>2022-04-15T13:12:45Z</time>
      </trkpt>
      <trkpt lat="43.49287" lon="6.23876">
        <ele>126</ele>
        <time>2022-04-15T13:12:46Z</time>
      </trkpt>
      <trkpt lat="43.49287" lon="6.23874">
        <ele>126</ele>
        <time>2022-04-15T13:12:47Z</time>
      </trkpt>
      <trkpt lat="43.49287" lon="6.23872">
        <ele>126</ele>
        <time>2022-04-15T13:12:48Z</time>
      </trkpt>
      <trkpt lat="43.49286" lon="6.23871">
        <ele>126</ele>
        <time>2022-04-15T13:12:49Z</time>
      </trkpt>
      <trkpt lat="43.49286" lon="6.23869">
        <ele>126</ele>
        <time>2022-04-15T13:12:50Z</time>
      </trkpt>
      <trkpt lat="43.49286" lon="6.23868">
        <ele>126</ele>
        <time>2022-04-15T13:12:51Z</time>
      </trkpt>
      <trkpt lat="43.49286" lon="6.23868">
        <ele>126</ele>
        <time>2022-04-15T13:12:52Z</time>
      </trkpt>
      <trkpt lat="43.49286" lon="6.23867">
        <ele>126</ele>
        <time>2022-04-15T13:12:53Z</time>
      </trkpt>
      <trkpt lat="43.49286" lon="6.23866">
        <ele>126</ele>
        <time>2022-04-15T13:12:54Z</time>
      </trkpt>
      <trkpt lat="43.49286" lon="6.23864">
        <ele>126</ele>
        <time>2022-04-15T13:12:55Z</time>
      </trkpt>
      <trkpt lat="43.49285" lon="6.23863">
        <ele>126</ele>
        <time>2022-04-15T13:12:56Z</time>
      </trkpt>
      <trkpt lat="43.49285" lon="6.23861">
        <ele>126</ele>
        <time>2022-04-15T13:12:57Z</time>
      </trkpt>
      <trkpt lat="43.49285" lon="6.23859">
        <ele>126</ele>
        <time>2022-04-15T13:12:58Z</time>
      </trkpt>
      <trkpt lat="43.49285" lon="6.23858">
        <ele>126</ele>
        <time>2022-04-15T13:12:59Z</time>
      </trkpt>
      <trkpt lat="43.49285" lon="6.23856">
        <ele>126</ele>
        <time>2022-04-15T13:13:00Z</time>
      </trkpt>
      <trkpt lat="43.49285" lon="6.23855">
        <ele>126</ele>
        <time>2022-04-15T13:13:01Z</time>
      </trkpt>
      <trkpt lat="43.49285" lon="6.23854">
        <ele>126</ele>
        <time>2022-04-15T13:13:02Z</time>
      </trkpt>
      <trkpt lat="43.49285" lon="6.23853">
        <ele>126</ele>
        <time>2022-04-15T13:13:03Z</time>
      </trkpt>
      <trkpt lat="43.49285" lon="6.23852">
        <ele>126</ele>
        <time>2022-04-15T13:13:04Z</time>
      </trkpt>
      <trkpt lat="43.49285" lon="6.2385">
        <ele>126</ele>
        <time>2022-04-15T13:13:05Z</time>
      </trkpt>
      <trkpt lat="43.49285" lon="6.23848">
        <ele>126</ele>
        <time>2022-04-15T13:13:06Z</time>
      </trkpt>
      <trkpt lat="43.49285" lon="6.23846">
        <ele>126</ele>
        <time>2022-04-15T13:13:07Z</time>
      </trkpt>
      <trkpt lat="43.49285" lon="6.23844">
        <ele>126</ele>
        <time>2022-04-15T13:13:08Z</time>
      </trkpt>
      <trkpt lat="43.49285" lon="6.23843">
        <ele>126</ele>
        <time>2022-04-15T13:13:09Z</time>
      </trkpt>
      <trkpt lat="43.49284" lon="6.23841">
        <ele>126</ele>
        <time>2022-04-15T13:13:10Z</time>
      </trkpt>
      <trkpt lat="43.49284" lon="6.2384">
        <ele>126</ele>
        <time>2022-04-15T13:13:11Z</time>
      </trkpt>
      <trkpt lat="43.49284" lon="6.23839">
        <ele>125</ele>
        <time>2022-04-15T13:13:12Z</time>
      </trkpt>
      <trkpt lat="43.49284" lon="6.23838">
        <ele>125</ele>
        <time>2022-04-15T13:13:13Z</time>
      </trkpt>
      <trkpt lat="43.49283" lon="6.23836">
        <ele>125</ele>
        <time>2022-04-15T13:13:14Z</time>
      </trkpt>
      <trkpt lat="43.49283" lon="6.23834">
        <ele>125</ele>
        <time>2022-04-15T13:13:15Z</time>
      </trkpt>
      <trkpt lat="43.49283" lon="6.23832">
        <ele>125</ele>
        <time>2022-04-15T13:13:16Z</time>
      </trkpt>
      <trkpt lat="43.49282" lon="6.2383">
        <ele>125</ele>
        <time>2022-04-15T13:13:17Z</time>
      </trkpt>
      <trkpt lat="43.49282" lon="6.23828">
        <ele>125</ele>
        <time>2022-04-15T13:13:18Z</time>
      </trkpt>
      <trkpt lat="43.49282" lon="6.23826">
        <ele>125</ele>
        <time>2022-04-15T13:13:19Z</time>
      </trkpt>
      <trkpt lat="43.49282" lon="6.23825">
        <ele>125</ele>
        <time>2022-04-15T13:13:20Z</time>
      </trkpt>
      <trkpt lat="43.49282" lon="6.23823">
        <ele>125</ele>
        <time>2022-04-15T13:13:21Z</time>
      </trkpt>
      <trkpt lat="43.49282" lon="6.23821">
        <ele>125</ele>
        <time>2022-04-15T13:13:22Z</time>
      </trkpt>
      <trkpt lat="43.49282" lon="6.2382">
        <ele>125</ele>
        <time>2022-04-15T13:13:23Z</time>
      </trkpt>
      <trkpt lat="43.49282" lon="6.23817">
        <ele>125</ele>
        <time>2022-04-15T13:13:24Z</time>
      </trkpt>
      <trkpt lat="43.49282" lon="6.23815">
        <ele>125</ele>
        <time>2022-04-15T13:13:25Z</time>
      </trkpt>
      <trkpt lat="43.49282" lon="6.23812">
        <ele>125</ele>
        <time>2022-04-15T13:13:26Z</time>
      </trkpt>
      <trkpt lat="43.49283" lon="6.23809">
        <ele>125</ele>
        <time>2022-04-15T13:13:27Z</time>
      </trkpt>
      <trkpt lat="43.49283" lon="6.23807">
        <ele>125</ele>
        <time>2022-04-15T13:13:28Z</time>
      </trkpt>
      <trkpt lat="43.49283" lon="6.23805">
        <ele>125</ele>
        <time>2022-04-15T13:13:29Z</time>
      </trkpt>
      <trkpt lat="43.49284" lon="6.23803">
        <ele>125</ele>
        <time>2022-04-15T13:13:30Z</time>
      </trkpt>
      <trkpt lat="43.49284" lon="6.238">
        <ele>125</ele>
        <time>2022-04-15T13:13:31Z</time>
      </trkpt>
      <trkpt lat="43.49284" lon="6.23798">
        <ele>125</ele>
        <time>2022-04-15T13:13:32Z</time>
      </trkpt>
      <trkpt lat="43.49285" lon="6.23797">
        <ele>125</ele>
        <time>2022-04-15T13:13:33Z</time>
      </trkpt>
      <trkpt lat="43.49285" lon="6.23795">
        <ele>125</ele>
        <time>2022-04-15T13:13:34Z</time>
      </trkpt>
      <trkpt lat="43.49285" lon="6.23793">
        <ele>125</ele>
        <time>2022-04-15T13:13:35Z</time>
      </trkpt>
      <trkpt lat="43.49285" lon="6.23791">
        <ele>125</ele>
        <time>2022-04-15T13:13:36Z</time>
      </trkpt>
      <trkpt lat="43.49285" lon="6.23789">
        <ele>125</ele>
        <time>2022-04-15T13:13:37Z</time>
      </trkpt>
      <trkpt lat="43.49285" lon="6.23788">
        <ele>125</ele>
        <time>2022-04-15T13:13:38Z</time>
      </trkpt>
      <trkpt lat="43.49285" lon="6.23786">
        <ele>125</ele>
        <time>2022-04-15T13:13:39Z</time>
      </trkpt>
      <trkpt lat="43.49285" lon="6.23784">
        <ele>125</ele>
        <time>2022-04-15T13:13:40Z</time>
      </trkpt>
      <trkpt lat="43.49285" lon="6.23782">
        <ele>125</ele>
        <time>2022-04-15T13:13:41Z</time>
      </trkpt>
      <trkpt lat="43.49285" lon="6.2378">
        <ele>125</ele>
        <time>2022-04-15T13:13:42Z</time>
      </trkpt>
      <trkpt lat="43.49285" lon="6.23778">
        <ele>125</ele>
        <time>2022-04-15T13:13:43Z</time>
      </trkpt>
      <trkpt lat="43.49285" lon="6.23777">
        <ele>125</ele>
        <time>2022-04-15T13:13:44Z</time>
      </trkpt>
      <trkpt lat="43.49284" lon="6.23775">
        <ele>125</ele>
        <time>2022-04-15T13:13:45Z</time>
      </trkpt>
      <trkpt lat="43.49284" lon="6.23773">
        <ele>125</ele>
        <time>2022-04-15T13:13:46Z</time>
      </trkpt>
      <trkpt lat="43.49284" lon="6.23772">
        <ele>125</ele>
        <time>2022-04-15T13:13:47Z</time>
      </trkpt>
      <trkpt lat="43.49283" lon="6.23771">
        <ele>125</ele>
        <time>2022-04-15T13:13:48Z</time>
      </trkpt>
      <trkpt lat="43.49283" lon="6.2377">
        <ele>125</ele>
        <time>2022-04-15T13:13:49Z</time>
      </trkpt>
      <trkpt lat="43.49283" lon="6.23769">
        <ele>125</ele>
        <time>2022-04-15T13:13:50Z</time>
      </trkpt>
      <trkpt lat="43.49284" lon="6.23768">
        <ele>125</ele>
        <time>2022-04-15T13:13:51Z</time>
      </trkpt>
      <trkpt lat="43.49284" lon="6.23767">
        <ele>125</ele>
        <time>2022-04-15T13:13:52Z</time>
      </trkpt>
      <trkpt lat="43.49283" lon="6.23767">
        <ele>125</ele>
        <time>2022-04-15T13:13:53Z</time>
      </trkpt>
      <trkpt lat="43.49283" lon="6.23766">
        <ele>126</ele>
        <time>2022-04-15T13:13:54Z</time>
      </trkpt>
      <trkpt lat="43.49283" lon="6.23765">
        <ele>126</ele>
        <time>2022-04-15T13:13:55Z</time>
      </trkpt>
      <trkpt lat="43.49283" lon="6.23764">
        <ele>126</ele>
        <time>2022-04-15T13:13:56Z</time>
      </trkpt>
      <trkpt lat="43.49284" lon="6.23763">
        <ele>126</ele>
        <time>2022-04-15T13:13:57Z</time>
      </trkpt>
      <trkpt lat="43.49284" lon="6.23762">
        <ele>126</ele>
        <time>2022-04-15T13:13:58Z</time>
      </trkpt>
      <trkpt lat="43.49284" lon="6.2376">
        <ele>126</ele>
        <time>2022-04-15T13:13:59Z</time>
      </trkpt>
      <trkpt lat="43.49284" lon="6.23759">
        <ele>126</ele>
        <time>2022-04-15T13:14:00Z</time>
      </trkpt>
      <trkpt lat="43.49285" lon="6.23757">
        <ele>126</ele>
        <time>2022-04-15T13:14:01Z</time>
      </trkpt>
      <trkpt lat="43.49285" lon="6.23756">
        <ele>126</ele>
        <time>2022-04-15T13:14:02Z</time>
      </trkpt>
      <trkpt lat="43.49285" lon="6.23755">
        <ele>126</ele>
        <time>2022-04-15T13:14:03Z</time>
      </trkpt>
      <trkpt lat="43.49286" lon="6.23754">
        <ele>126</ele>
        <time>2022-04-15T13:14:04Z</time>
      </trkpt>
      <trkpt lat="43.49286" lon="6.23752">
        <ele>126</ele>
        <time>2022-04-15T13:14:05Z</time>
      </trkpt>
      <trkpt lat="43.49287" lon="6.23751">
        <ele>126</ele>
        <time>2022-04-15T13:14:06Z</time>
      </trkpt>
      <trkpt lat="43.49287" lon="6.2375">
        <ele>126</ele>
        <time>2022-04-15T13:14:07Z</time>
      </trkpt>
      <trkpt lat="43.49287" lon="6.23749">
        <ele>126</ele>
        <time>2022-04-15T13:14:08Z</time>
      </trkpt>
      <trkpt lat="43.49287" lon="6.23748">
        <ele>126</ele>
        <time>2022-04-15T13:14:09Z</time>
      </trkpt>
      <trkpt lat="43.49288" lon="6.23747">
        <ele>126</ele>
        <time>2022-04-15T13:14:10Z</time>
      </trkpt>
      <trkpt lat="43.49289" lon="6.23748">
        <ele>126</ele>
        <time>2022-04-15T13:14:11Z</time>
      </trkpt>
      <trkpt lat="43.4929" lon="6.23748">
        <ele>126</ele>
        <time>2022-04-15T13:14:12Z</time>
      </trkpt>
      <trkpt lat="43.49291" lon="6.23748">
        <ele>126</ele>
        <time>2022-04-15T13:14:13Z</time>
      </trkpt>
      <trkpt lat="43.49292" lon="6.23748">
        <ele>126</ele>
        <time>2022-04-15T13:14:14Z</time>
      </trkpt>
      <trkpt lat="43.49292" lon="6.23747">
        <ele>126</ele>
        <time>2022-04-15T13:14:15Z</time>
      </trkpt>
      <trkpt lat="43.49292" lon="6.23746">
        <ele>125</ele>
        <time>2022-04-15T13:14:16Z</time>
      </trkpt>
      <trkpt lat="43.49293" lon="6.23744">
        <ele>125</ele>
        <time>2022-04-15T13:14:17Z</time>
      </trkpt>
      <trkpt lat="43.49293" lon="6.23743">
        <ele>125</ele>
        <time>2022-04-15T13:14:18Z</time>
      </trkpt>
      <trkpt lat="43.49293" lon="6.23742">
        <ele>125</ele>
        <time>2022-04-15T13:14:19Z</time>
      </trkpt>
      <trkpt lat="43.49294" lon="6.23741">
        <ele>125</ele>
        <time>2022-04-15T13:14:20Z</time>
      </trkpt>
      <trkpt lat="43.49294" lon="6.2374">
        <ele>125</ele>
        <time>2022-04-15T13:14:21Z</time>
      </trkpt>
      <trkpt lat="43.49294" lon="6.23739">
        <ele>125</ele>
        <time>2022-04-15T13:14:22Z</time>
      </trkpt>
      <trkpt lat="43.49294" lon="6.23737">
        <ele>125</ele>
        <time>2022-04-15T13:14:23Z</time>
      </trkpt>
      <trkpt lat="43.49295" lon="6.23736">
        <ele>125</ele>
        <time>2022-04-15T13:14:24Z</time>
      </trkpt>
      <trkpt lat="43.49295" lon="6.23734">
        <ele>125</ele>
        <time>2022-04-15T13:14:25Z</time>
      </trkpt>
      <trkpt lat="43.49295" lon="6.23732">
        <ele>125</ele>
        <time>2022-04-15T13:14:26Z</time>
      </trkpt>
      <trkpt lat="43.49295" lon="6.23731">
        <ele>125</ele>
        <time>2022-04-15T13:14:27Z</time>
      </trkpt>
      <trkpt lat="43.49295" lon="6.23729">
        <ele>124</ele>
        <time>2022-04-15T13:14:28Z</time>
      </trkpt>
      <trkpt lat="43.49295" lon="6.23728">
        <ele>124</ele>
        <time>2022-04-15T13:14:29Z</time>
      </trkpt>
      <trkpt lat="43.49295" lon="6.23727">
        <ele>124</ele>
        <time>2022-04-15T13:14:30Z</time>
      </trkpt>
      <trkpt lat="43.49295" lon="6.23725">
        <ele>124</ele>
        <time>2022-04-15T13:14:31Z</time>
      </trkpt>
      <trkpt lat="43.49295" lon="6.23724">
        <ele>124</ele>
        <time>2022-04-15T13:14:32Z</time>
      </trkpt>
      <trkpt lat="43.49295" lon="6.23722">
        <ele>123</ele>
        <time>2022-04-15T13:14:33Z</time>
      </trkpt>
      <trkpt lat="43.49295" lon="6.2372">
        <ele>123</ele>
        <time>2022-04-15T13:14:34Z</time>
      </trkpt>
      <trkpt lat="43.49295" lon="6.23719">
        <ele>123</ele>
        <time>2022-04-15T13:14:35Z</time>
      </trkpt>
      <trkpt lat="43.49295" lon="6.23717">
        <ele>123</ele>
        <time>2022-04-15T13:14:36Z</time>
      </trkpt>
      <trkpt lat="43.49295" lon="6.23715">
        <ele>123</ele>
        <time>2022-04-15T13:14:37Z</time>
      </trkpt>
      <trkpt lat="43.49296" lon="6.23714">
        <ele>124</ele>
        <time>2022-04-15T13:14:38Z</time>
      </trkpt>
      <trkpt lat="43.49296" lon="6.23712">
        <ele>124</ele>
        <time>2022-04-15T13:14:39Z</time>
      </trkpt>
      <trkpt lat="43.49296" lon="6.23711">
        <ele>124</ele>
        <time>2022-04-15T13:14:40Z</time>
      </trkpt>
      <trkpt lat="43.49296" lon="6.23709">
        <ele>124</ele>
        <time>2022-04-15T13:14:41Z</time>
      </trkpt>
      <trkpt lat="43.49295" lon="6.23707">
        <ele>124</ele>
        <time>2022-04-15T13:14:42Z</time>
      </trkpt>
      <trkpt lat="43.49295" lon="6.23705">
        <ele>124</ele>
        <time>2022-04-15T13:14:43Z</time>
      </trkpt>
      <trkpt lat="43.49294" lon="6.23703">
        <ele>124</ele>
        <time>2022-04-15T13:14:44Z</time>
      </trkpt>
      <trkpt lat="43.49294" lon="6.23702">
        <ele>124</ele>
        <time>2022-04-15T13:14:45Z</time>
      </trkpt>
      <trkpt lat="43.49293" lon="6.237">
        <ele>124</ele>
        <time>2022-04-15T13:14:46Z</time>
      </trkpt>
      <trkpt lat="43.49293" lon="6.23699">
        <ele>124</ele>
        <time>2022-04-15T13:14:47Z</time>
      </trkpt>
      <trkpt lat="43.49293" lon="6.23698">
        <ele>124</ele>
        <time>2022-04-15T13:14:48Z</time>
      </trkpt>
      <trkpt lat="43.49292" lon="6.23696">
        <ele>124</ele>
        <time>2022-04-15T13:14:49Z</time>
      </trkpt>
      <trkpt lat="43.49292" lon="6.23695">
        <ele>124</ele>
        <time>2022-04-15T13:14:50Z</time>
      </trkpt>
      <trkpt lat="43.49291" lon="6.23693">
        <ele>124</ele>
        <time>2022-04-15T13:14:51Z</time>
      </trkpt>
      <trkpt lat="43.49291" lon="6.23692">
        <ele>124</ele>
        <time>2022-04-15T13:14:52Z</time>
      </trkpt>
      <trkpt lat="43.49291" lon="6.2369">
        <ele>124</ele>
        <time>2022-04-15T13:14:53Z</time>
      </trkpt>
      <trkpt lat="43.4929" lon="6.23688">
        <ele>124</ele>
        <time>2022-04-15T13:14:54Z</time>
      </trkpt>
      <trkpt lat="43.4929" lon="6.23687">
        <ele>124</ele>
        <time>2022-04-15T13:14:55Z</time>
      </trkpt>
      <trkpt lat="43.4929" lon="6.23685">
        <ele>124</ele>
        <time>2022-04-15T13:14:56Z</time>
      </trkpt>
      <trkpt lat="43.49289" lon="6.23683">
        <ele>124</ele>
        <time>2022-04-15T13:14:57Z</time>
      </trkpt>
      <trkpt lat="43.49289" lon="6.23682">
        <ele>124</ele>
        <time>2022-04-15T13:14:58Z</time>
      </trkpt>
      <trkpt lat="43.49289" lon="6.2368">
        <ele>125</ele>
        <time>2022-04-15T13:14:59Z</time>
      </trkpt>
      <trkpt lat="43.49288" lon="6.23678">
        <ele>126</ele>
        <time>2022-04-15T13:15:00Z</time>
      </trkpt>
      <trkpt lat="43.49289" lon="6.23676">
        <ele>126</ele>
        <time>2022-04-15T13:15:01Z</time>
      </trkpt>
      <trkpt lat="43.49289" lon="6.23674">
        <ele>126</ele>
        <time>2022-04-15T13:15:02Z</time>
      </trkpt>
      <trkpt lat="43.49289" lon="6.23673">
        <ele>126</ele>
        <time>2022-04-15T13:15:03Z</time>
      </trkpt>
      <trkpt lat="43.49289" lon="6.23671">
        <ele>126</ele>
        <time>2022-04-15T13:15:04Z</time>
      </trkpt>
      <trkpt lat="43.49289" lon="6.23669">
        <ele>126</ele>
        <time>2022-04-15T13:15:05Z</time>
      </trkpt>
      <trkpt lat="43.49289" lon="6.23668">
        <ele>126</ele>
        <time>2022-04-15T13:15:06Z</time>
      </trkpt>
      <trkpt lat="43.49289" lon="6.23666">
        <ele>126</ele>
        <time>2022-04-15T13:15:07Z</time>
      </trkpt>
      <trkpt lat="43.49289" lon="6.23664">
        <ele>126</ele>
        <time>2022-04-15T13:15:08Z</time>
      </trkpt>
      <trkpt lat="43.49289" lon="6.23662">
        <ele>126</ele>
        <time>2022-04-15T13:15:09Z</time>
      </trkpt>
      <trkpt lat="43.49289" lon="6.23661">
        <ele>126</ele>
        <time>2022-04-15T13:15:10Z</time>
      </trkpt>
      <trkpt lat="43.49289" lon="6.23659">
        <ele>126</ele>
        <time>2022-04-15T13:15:11Z</time>
      </trkpt>
      <trkpt lat="43.49289" lon="6.23657">
        <ele>126</ele>
        <time>2022-04-15T13:15:12Z</time>
      </trkpt>
      <trkpt lat="43.49289" lon="6.23656">
        <ele>126</ele>
        <time>2022-04-15T13:15:13Z</time>
      </trkpt>
      <trkpt lat="43.49289" lon="6.23654">
        <ele>126</ele>
        <time>2022-04-15T13:15:14Z</time>
      </trkpt>
      <trkpt lat="43.49289" lon="6.23653">
        <ele>126</ele>
        <time>2022-04-15T13:15:15Z</time>
      </trkpt>
      <trkpt lat="43.49289" lon="6.23651">
        <ele>126</ele>
        <time>2022-04-15T13:15:16Z</time>
      </trkpt>
      <trkpt lat="43.49289" lon="6.23649">
        <ele>126</ele>
        <time>2022-04-15T13:15:17Z</time>
      </trkpt>
      <trkpt lat="43.49289" lon="6.23648">
        <ele>126</ele>
        <time>2022-04-15T13:15:18Z</time>
      </trkpt>
      <trkpt lat="43.49289" lon="6.23646">
        <ele>126</ele>
        <time>2022-04-15T13:15:19Z</time>
      </trkpt>
      <trkpt lat="43.49289" lon="6.23644">
        <ele>126</ele>
        <time>2022-04-15T13:15:20Z</time>
      </trkpt>
      <trkpt lat="43.49289" lon="6.23642">
        <ele>126</ele>
        <time>2022-04-15T13:15:21Z</time>
      </trkpt>
      <trkpt lat="43.49289" lon="6.23641">
        <ele>126</ele>
        <time>2022-04-15T13:15:22Z</time>
      </trkpt>
      <trkpt lat="43.49289" lon="6.2364">
        <ele>126</ele>
        <time>2022-04-15T13:15:23Z</time>
      </trkpt>
      <trkpt lat="43.49289" lon="6.23638">
        <ele>126</ele>
        <time>2022-04-15T13:15:24Z</time>
      </trkpt>
      <trkpt lat="43.49289" lon="6.23637">
        <ele>126</ele>
        <time>2022-04-15T13:15:25Z</time>
      </trkpt>
      <trkpt lat="43.49289" lon="6.23635">
        <ele>126</ele>
        <time>2022-04-15T13:15:26Z</time>
      </trkpt>
      <trkpt lat="43.49289" lon="6.23633">
        <ele>125</ele>
        <time>2022-04-15T13:15:27Z</time>
      </trkpt>
      <trkpt lat="43.49289" lon="6.23632">
        <ele>125</ele>
        <time>2022-04-15T13:15:28Z</time>
      </trkpt>
      <trkpt lat="43.49289" lon="6.2363">
        <ele>125</ele>
        <time>2022-04-15T13:15:29Z</time>
      </trkpt>
      <trkpt lat="43.49289" lon="6.23628">
        <ele>125</ele>
        <time>2022-04-15T13:15:30Z</time>
      </trkpt>
      <trkpt lat="43.49289" lon="6.23627">
        <ele>125</ele>
        <time>2022-04-15T13:15:31Z</time>
      </trkpt>
      <trkpt lat="43.49289" lon="6.23625">
        <ele>125</ele>
        <time>2022-04-15T13:15:32Z</time>
      </trkpt>
      <trkpt lat="43.49289" lon="6.23624">
        <ele>125</ele>
        <time>2022-04-15T13:15:33Z</time>
      </trkpt>
      <trkpt lat="43.49289" lon="6.23622">
        <ele>125</ele>
        <time>2022-04-15T13:15:34Z</time>
      </trkpt>
      <trkpt lat="43.49289" lon="6.23621">
        <ele>125</ele>
        <time>2022-04-15T13:15:35Z</time>
      </trkpt>
      <trkpt lat="43.49289" lon="6.23619">
        <ele>125</ele>
        <time>2022-04-15T13:15:36Z</time>
      </trkpt>
      <trkpt lat="43.49289" lon="6.23617">
        <ele>125</ele>
        <time>2022-04-15T13:15:37Z</time>
      </trkpt>
      <trkpt lat="43.49289" lon="6.23616">
        <ele>125</ele>
        <time>2022-04-15T13:15:38Z</time>
      </trkpt>
      <trkpt lat="43.49289" lon="6.23614">
        <ele>125</ele>
        <time>2022-04-15T13:15:39Z</time>
      </trkpt>
      <trkpt lat="43.49289" lon="6.23612">
        <ele>125</ele>
        <time>2022-04-15T13:15:40Z</time>
      </trkpt>
      <trkpt lat="43.49289" lon="6.23611">
        <ele>125</ele>
        <time>2022-04-15T13:15:41Z</time>
      </trkpt>
      <trkpt lat="43.4929" lon="6.2361">
        <ele>125</ele>
        <time>2022-04-15T13:15:42Z</time>
      </trkpt>
      <trkpt lat="43.4929" lon="6.23608">
        <ele>125</ele>
        <time>2022-04-15T13:15:43Z</time>
      </trkpt>
      <trkpt lat="43.4929" lon="6.23607">
        <ele>125</ele>
        <time>2022-04-15T13:15:44Z</time>
      </trkpt>
      <trkpt lat="43.4929" lon="6.23605">
        <ele>125</ele>
        <time>2022-04-15T13:15:45Z</time>
      </trkpt>
      <trkpt lat="43.4929" lon="6.23603">
        <ele>125</ele>
        <time>2022-04-15T13:15:46Z</time>
      </trkpt>
      <trkpt lat="43.4929" lon="6.23602">
        <ele>125</ele>
        <time>2022-04-15T13:15:47Z</time>
      </trkpt>
      <trkpt lat="43.4929" lon="6.236">
        <ele>126</ele>
        <time>2022-04-15T13:15:48Z</time>
      </trkpt>
      <trkpt lat="43.4929" lon="6.23599">
        <ele>126</ele>
        <time>2022-04-15T13:15:49Z</time>
      </trkpt>
      <trkpt lat="43.4929" lon="6.23597">
        <ele>126</ele>
        <time>2022-04-15T13:15:50Z</time>
      </trkpt>
      <trkpt lat="43.49291" lon="6.23596">
        <ele>126</ele>
        <time>2022-04-15T13:15:51Z</time>
      </trkpt>
      <trkpt lat="43.49291" lon="6.23594">
        <ele>126</ele>
        <time>2022-04-15T13:15:52Z</time>
      </trkpt>
      <trkpt lat="43.49291" lon="6.23593">
        <ele>126</ele>
        <time>2022-04-15T13:15:53Z</time>
      </trkpt>
      <trkpt lat="43.49291" lon="6.23591">
        <ele>127</ele>
        <time>2022-04-15T13:15:54Z</time>
      </trkpt>
      <trkpt lat="43.49292" lon="6.23589">
        <ele>127</ele>
        <time>2022-04-15T13:15:55Z</time>
      </trkpt>
      <trkpt lat="43.49292" lon="6.23587">
        <ele>127</ele>
        <time>2022-04-15T13:15:56Z</time>
      </trkpt>
      <trkpt lat="43.49293" lon="6.23585">
        <ele>127</ele>
        <time>2022-04-15T13:15:57Z</time>
      </trkpt>
      <trkpt lat="43.49293" lon="6.23583">
        <ele>127</ele>
        <time>2022-04-15T13:15:58Z</time>
      </trkpt>
      <trkpt lat="43.49293" lon="6.23581">
        <ele>128</ele>
        <time>2022-04-15T13:15:59Z</time>
      </trkpt>
      <trkpt lat="43.49293" lon="6.23579">
        <ele>128</ele>
        <time>2022-04-15T13:16:00Z</time>
      </trkpt>
      <trkpt lat="43.49293" lon="6.23578">
        <ele>128</ele>
        <time>2022-04-15T13:16:01Z</time>
      </trkpt>
      <trkpt lat="43.49293" lon="6.23576">
        <ele>128</ele>
        <time>2022-04-15T13:16:02Z</time>
      </trkpt>
      <trkpt lat="43.49293" lon="6.23575">
        <ele>128</ele>
        <time>2022-04-15T13:16:03Z</time>
      </trkpt>
      <trkpt lat="43.49292" lon="6.23574">
        <ele>128</ele>
        <time>2022-04-15T13:16:04Z</time>
      </trkpt>
      <trkpt lat="43.49292" lon="6.23573">
        <ele>128</ele>
        <time>2022-04-15T13:16:05Z</time>
      </trkpt>
      <trkpt lat="43.49291" lon="6.23572">
        <ele>128</ele>
        <time>2022-04-15T13:16:06Z</time>
      </trkpt>
      <trkpt lat="43.49291" lon="6.23571">
        <ele>128</ele>
        <time>2022-04-15T13:16:07Z</time>
      </trkpt>
      <trkpt lat="43.4929" lon="6.23571">
        <ele>128</ele>
        <time>2022-04-15T13:16:08Z</time>
      </trkpt>
      <trkpt lat="43.49289" lon="6.2357">
        <ele>128</ele>
        <time>2022-04-15T13:16:09Z</time>
      </trkpt>
      <trkpt lat="43.49288" lon="6.23569">
        <ele>128</ele>
        <time>2022-04-15T13:16:10Z</time>
      </trkpt>
      <trkpt lat="43.49287" lon="6.23568">
        <ele>128</ele>
        <time>2022-04-15T13:16:11Z</time>
      </trkpt>
      <trkpt lat="43.49286" lon="6.23567">
        <ele>128</ele>
        <time>2022-04-15T13:16:12Z</time>
      </trkpt>
      <trkpt lat="43.49285" lon="6.23567">
        <ele>128</ele>
        <time>2022-04-15T13:16:13Z</time>
      </trkpt>
      <trkpt lat="43.49285" lon="6.23566">
        <ele>128</ele>
        <time>2022-04-15T13:16:14Z</time>
      </trkpt>
      <trkpt lat="43.49284" lon="6.23565">
        <ele>128</ele>
        <time>2022-04-15T13:16:15Z</time>
      </trkpt>
      <trkpt lat="43.49284" lon="6.23564">
        <ele>128</ele>
        <time>2022-04-15T13:16:16Z</time>
      </trkpt>
      <trkpt lat="43.49283" lon="6.23563">
        <ele>128</ele>
        <time>2022-04-15T13:16:17Z</time>
      </trkpt>
      <trkpt lat="43.49282" lon="6.23562">
        <ele>128</ele>
        <time>2022-04-15T13:16:18Z</time>
      </trkpt>
      <trkpt lat="43.49282" lon="6.23561">
        <ele>128</ele>
        <time>2022-04-15T13:16:19Z</time>
      </trkpt>
      <trkpt lat="43.49281" lon="6.2356">
        <ele>128</ele>
        <time>2022-04-15T13:16:20Z</time>
      </trkpt>
      <trkpt lat="43.49281" lon="6.2356">
        <ele>128</ele>
        <time>2022-04-15T13:16:21Z</time>
      </trkpt>
      <trkpt lat="43.4928" lon="6.23559">
        <ele>128</ele>
        <time>2022-04-15T13:16:22Z</time>
      </trkpt>
      <trkpt lat="43.49279" lon="6.23557">
        <ele>128</ele>
        <time>2022-04-15T13:16:23Z</time>
      </trkpt>
      <trkpt lat="43.49278" lon="6.23556">
        <ele>128</ele>
        <time>2022-04-15T13:16:24Z</time>
      </trkpt>
      <trkpt lat="43.49277" lon="6.23555">
        <ele>128</ele>
        <time>2022-04-15T13:16:25Z</time>
      </trkpt>
      <trkpt lat="43.49276" lon="6.23553">
        <ele>128</ele>
        <time>2022-04-15T13:16:26Z</time>
      </trkpt>
      <trkpt lat="43.49275" lon="6.23552">
        <ele>128</ele>
        <time>2022-04-15T13:16:27Z</time>
      </trkpt>
      <trkpt lat="43.49275" lon="6.23551">
        <ele>128</ele>
        <time>2022-04-15T13:16:28Z</time>
      </trkpt>
      <trkpt lat="43.49274" lon="6.23551">
        <ele>128</ele>
        <time>2022-04-15T13:16:29Z</time>
      </trkpt>
      <trkpt lat="43.49274" lon="6.2355">
        <ele>128</ele>
        <time>2022-04-15T13:16:30Z</time>
      </trkpt>
      <trkpt lat="43.49274" lon="6.2355">
        <ele>128</ele>
        <time>2022-04-15T13:16:31Z</time>
      </trkpt>
      <trkpt lat="43.49274" lon="6.2355">
        <ele>129</ele>
        <time>2022-04-15T13:16:32Z</time>
      </trkpt>
      <trkpt lat="43.49273" lon="6.23549">
        <ele>130</ele>
        <time>2022-04-15T13:16:33Z</time>
      </trkpt>
      <trkpt lat="43.49273" lon="6.23548">
        <ele>130</ele>
        <time>2022-04-15T13:16:34Z</time>
      </trkpt>
      <trkpt lat="43.49272" lon="6.23547">
        <ele>130</ele>
        <time>2022-04-15T13:16:35Z</time>
      </trkpt>
      <trkpt lat="43.49272" lon="6.23546">
        <ele>130</ele>
        <time>2022-04-15T13:16:36Z</time>
      </trkpt>
      <trkpt lat="43.49271" lon="6.23545">
        <ele>131</ele>
        <time>2022-04-15T13:16:37Z</time>
      </trkpt>
      <trkpt lat="43.49271" lon="6.23545">
        <ele>131</ele>
        <time>2022-04-15T13:16:38Z</time>
      </trkpt>
      <trkpt lat="43.4927" lon="6.23544">
        <ele>131</ele>
        <time>2022-04-15T13:16:39Z</time>
      </trkpt>
      <trkpt lat="43.4927" lon="6.23543">
        <ele>131</ele>
        <time>2022-04-15T13:16:40Z</time>
      </trkpt>
      <trkpt lat="43.49269" lon="6.23542">
        <ele>131</ele>
        <time>2022-04-15T13:16:41Z</time>
      </trkpt>
      <trkpt lat="43.49268" lon="6.23541">
        <ele>131</ele>
        <time>2022-04-15T13:16:42Z</time>
      </trkpt>
      <trkpt lat="43.49268" lon="6.2354">
        <ele>131</ele>
        <time>2022-04-15T13:16:43Z</time>
      </trkpt>
      <trkpt lat="43.49267" lon="6.23539">
        <ele>131</ele>
        <time>2022-04-15T13:16:44Z</time>
      </trkpt>
      <trkpt lat="43.49266" lon="6.23537">
        <ele>131</ele>
        <time>2022-04-15T13:16:45Z</time>
      </trkpt>
      <trkpt lat="43.49266" lon="6.23536">
        <ele>131</ele>
        <time>2022-04-15T13:16:46Z</time>
      </trkpt>
      <trkpt lat="43.49265" lon="6.23535">
        <ele>131</ele>
        <time>2022-04-15T13:16:47Z</time>
      </trkpt>
      <trkpt lat="43.49265" lon="6.23534">
        <ele>131</ele>
        <time>2022-04-15T13:16:48Z</time>
      </trkpt>
      <trkpt lat="43.49264" lon="6.23533">
        <ele>130</ele>
        <time>2022-04-15T13:16:49Z</time>
      </trkpt>
      <trkpt lat="43.49263" lon="6.23531">
        <ele>130</ele>
        <time>2022-04-15T13:16:50Z</time>
      </trkpt>
      <trkpt lat="43.49263" lon="6.2353">
        <ele>130</ele>
        <time>2022-04-15T13:16:51Z</time>
      </trkpt>
      <trkpt lat="43.49262" lon="6.23528">
        <ele>130</ele>
        <time>2022-04-15T13:16:52Z</time>
      </trkpt>
      <trkpt lat="43.49261" lon="6.23527">
        <ele>130</ele>
        <time>2022-04-15T13:16:53Z</time>
      </trkpt>
      <trkpt lat="43.4926" lon="6.23525">
        <ele>129</ele>
        <time>2022-04-15T13:16:54Z</time>
      </trkpt>
      <trkpt lat="43.4926" lon="6.23524">
        <ele>129</ele>
        <time>2022-04-15T13:16:55Z</time>
      </trkpt>
      <trkpt lat="43.49259" lon="6.23522">
        <ele>129</ele>
        <time>2022-04-15T13:16:56Z</time>
      </trkpt>
      <trkpt lat="43.49258" lon="6.23521">
        <ele>129</ele>
        <time>2022-04-15T13:16:57Z</time>
      </trkpt>
      <trkpt lat="43.49257" lon="6.2352">
        <ele>129</ele>
        <time>2022-04-15T13:16:58Z</time>
      </trkpt>
      <trkpt lat="43.49257" lon="6.23519">
        <ele>129</ele>
        <time>2022-04-15T13:16:59Z</time>
      </trkpt>
      <trkpt lat="43.49256" lon="6.23518">
        <ele>129</ele>
        <time>2022-04-15T13:17:00Z</time>
      </trkpt>
      <trkpt lat="43.49255" lon="6.23519">
        <ele>129</ele>
        <time>2022-04-15T13:17:01Z</time>
      </trkpt>
      <trkpt lat="43.49254" lon="6.2352">
        <ele>129</ele>
        <time>2022-04-15T13:17:02Z</time>
      </trkpt>
      <trkpt lat="43.49253" lon="6.2352">
        <ele>130</ele>
        <time>2022-04-15T13:17:03Z</time>
      </trkpt>
      <trkpt lat="43.49252" lon="6.23521">
        <ele>130</ele>
        <time>2022-04-15T13:17:04Z</time>
      </trkpt>
      <trkpt lat="43.49252" lon="6.23521">
        <ele>130</ele>
        <time>2022-04-15T13:17:05Z</time>
      </trkpt>
      <trkpt lat="43.49252" lon="6.2352">
        <ele>130</ele>
        <time>2022-04-15T13:17:06Z</time>
      </trkpt>
      <trkpt lat="43.49252" lon="6.23518">
        <ele>130</ele>
        <time>2022-04-15T13:17:07Z</time>
      </trkpt>
      <trkpt lat="43.49251" lon="6.23516">
        <ele>131</ele>
        <time>2022-04-15T13:17:08Z</time>
      </trkpt>
      <trkpt lat="43.4925" lon="6.23514">
        <ele>132</ele>
        <time>2022-04-15T13:17:09Z</time>
      </trkpt>
      <trkpt lat="43.4925" lon="6.23514">
        <ele>133</ele>
        <time>2022-04-15T13:17:10Z</time>
      </trkpt>
      <trkpt lat="43.4925" lon="6.23513">
        <ele>133</ele>
        <time>2022-04-15T13:17:11Z</time>
      </trkpt>
      <trkpt lat="43.4925" lon="6.23513">
        <ele>133</ele>
        <time>2022-04-15T13:17:12Z</time>
      </trkpt>
      <trkpt lat="43.4925" lon="6.23513">
        <ele>133</ele>
        <time>2022-04-15T13:17:13Z</time>
      </trkpt>
      <trkpt lat="43.49249" lon="6.23513">
        <ele>133</ele>
        <time>2022-04-15T13:17:14Z</time>
      </trkpt>
      <trkpt lat="43.49249" lon="6.23513">
        <ele>133</ele>
        <time>2022-04-15T13:17:15Z</time>
      </trkpt>
      <trkpt lat="43.49249" lon="6.23512">
        <ele>133</ele>
        <time>2022-04-15T13:17:16Z</time>
      </trkpt>
      <trkpt lat="43.49249" lon="6.23512">
        <ele>133</ele>
        <time>2022-04-15T13:17:17Z</time>
      </trkpt>
      <trkpt lat="43.49248" lon="6.23512">
        <ele>133</ele>
        <time>2022-04-15T13:17:18Z</time>
      </trkpt>
      <trkpt lat="43.49248" lon="6.23512">
        <ele>133</ele>
        <time>2022-04-15T13:17:19Z</time>
      </trkpt>
      <trkpt lat="43.49248" lon="6.23512">
        <ele>133</ele>
        <time>2022-04-15T13:17:20Z</time>
      </trkpt>
      <trkpt lat="43.49248" lon="6.23512">
        <ele>133</ele>
        <time>2022-04-15T13:17:21Z</time>
      </trkpt>
      <trkpt lat="43.49248" lon="6.23511">
        <ele>133</ele>
        <time>2022-04-15T13:17:22Z</time>
      </trkpt>
      <trkpt lat="43.49248" lon="6.23511">
        <ele>133</ele>
        <time>2022-04-15T13:17:23Z</time>
      </trkpt>
      <trkpt lat="43.49248" lon="6.2351">
        <ele>134</ele>
        <time>2022-04-15T13:17:24Z</time>
      </trkpt>
      <trkpt lat="43.49247" lon="6.23508">
        <ele>134</ele>
        <time>2022-04-15T13:17:25Z</time>
      </trkpt>
      <trkpt lat="43.49246" lon="6.23507">
        <ele>134</ele>
        <time>2022-04-15T13:17:26Z</time>
      </trkpt>
      <trkpt lat="43.49245" lon="6.23506">
        <ele>134</ele>
        <time>2022-04-15T13:17:27Z</time>
      </trkpt>
      <trkpt lat="43.49245" lon="6.23504">
        <ele>134</ele>
        <time>2022-04-15T13:17:28Z</time>
      </trkpt>
      <trkpt lat="43.49244" lon="6.23503">
        <ele>134</ele>
        <time>2022-04-15T13:17:29Z</time>
      </trkpt>
      <trkpt lat="43.49243" lon="6.23501">
        <ele>134</ele>
        <time>2022-04-15T13:17:30Z</time>
      </trkpt>
      <trkpt lat="43.49243" lon="6.235">
        <ele>134</ele>
        <time>2022-04-15T13:17:31Z</time>
      </trkpt>
      <trkpt lat="43.49242" lon="6.23499">
        <ele>134</ele>
        <time>2022-04-15T13:17:32Z</time>
      </trkpt>
      <trkpt lat="43.49241" lon="6.23498">
        <ele>134</ele>
        <time>2022-04-15T13:17:33Z</time>
      </trkpt>
      <trkpt lat="43.49241" lon="6.23497">
        <ele>134</ele>
        <time>2022-04-15T13:17:34Z</time>
      </trkpt>
      <trkpt lat="43.4924" lon="6.23496">
        <ele>135</ele>
        <time>2022-04-15T13:17:35Z</time>
      </trkpt>
      <trkpt lat="43.4924" lon="6.23495">
        <ele>135</ele>
        <time>2022-04-15T13:17:36Z</time>
      </trkpt>
      <trkpt lat="43.4924" lon="6.23494">
        <ele>135</ele>
        <time>2022-04-15T13:17:37Z</time>
      </trkpt>
      <trkpt lat="43.49239" lon="6.23493">
        <ele>135</ele>
        <time>2022-04-15T13:17:38Z</time>
      </trkpt>
      <trkpt lat="43.49239" lon="6.23492">
        <ele>135</ele>
        <time>2022-04-15T13:17:39Z</time>
      </trkpt>
      <trkpt lat="43.49238" lon="6.23491">
        <ele>135</ele>
        <time>2022-04-15T13:17:40Z</time>
      </trkpt>
      <trkpt lat="43.49238" lon="6.2349">
        <ele>135</ele>
        <time>2022-04-15T13:17:41Z</time>
      </trkpt>
      <trkpt lat="43.49238" lon="6.23489">
        <ele>135</ele>
        <time>2022-04-15T13:17:42Z</time>
      </trkpt>
      <trkpt lat="43.49237" lon="6.23487">
        <ele>135</ele>
        <time>2022-04-15T13:17:43Z</time>
      </trkpt>
      <trkpt lat="43.49236" lon="6.23485">
        <ele>135</ele>
        <time>2022-04-15T13:17:44Z</time>
      </trkpt>
      <trkpt lat="43.49234" lon="6.23483">
        <ele>135</ele>
        <time>2022-04-15T13:17:45Z</time>
      </trkpt>
      <trkpt lat="43.49233" lon="6.23481">
        <ele>135</ele>
        <time>2022-04-15T13:17:46Z</time>
      </trkpt>
      <trkpt lat="43.49233" lon="6.2348">
        <ele>135</ele>
        <time>2022-04-15T13:17:47Z</time>
      </trkpt>
      <trkpt lat="43.49232" lon="6.23479">
        <ele>134</ele>
        <time>2022-04-15T13:17:48Z</time>
      </trkpt>
      <trkpt lat="43.49231" lon="6.23478">
        <ele>134</ele>
        <time>2022-04-15T13:17:49Z</time>
      </trkpt>
      <trkpt lat="43.4923" lon="6.23477">
        <ele>134</ele>
        <time>2022-04-15T13:17:50Z</time>
      </trkpt>
      <trkpt lat="43.49229" lon="6.23475">
        <ele>134</ele>
        <time>2022-04-15T13:17:51Z</time>
      </trkpt>
      <trkpt lat="43.49228" lon="6.23473">
        <ele>133</ele>
        <time>2022-04-15T13:17:52Z</time>
      </trkpt>
      <trkpt lat="43.49227" lon="6.23472">
        <ele>133</ele>
        <time>2022-04-15T13:17:53Z</time>
      </trkpt>
      <trkpt lat="43.49226" lon="6.23471">
        <ele>133</ele>
        <time>2022-04-15T13:17:54Z</time>
      </trkpt>
      <trkpt lat="43.49225" lon="6.2347">
        <ele>133</ele>
        <time>2022-04-15T13:17:55Z</time>
      </trkpt>
      <trkpt lat="43.49224" lon="6.23469">
        <ele>133</ele>
        <time>2022-04-15T13:17:56Z</time>
      </trkpt>
      <trkpt lat="43.49223" lon="6.23468">
        <ele>133</ele>
        <time>2022-04-15T13:17:57Z</time>
      </trkpt>
      <trkpt lat="43.49222" lon="6.23467">
        <ele>133</ele>
        <time>2022-04-15T13:17:58Z</time>
      </trkpt>
      <trkpt lat="43.49221" lon="6.23466">
        <ele>133</ele>
        <time>2022-04-15T13:17:59Z</time>
      </trkpt>
      <trkpt lat="43.4922" lon="6.23465">
        <ele>133</ele>
        <time>2022-04-15T13:18:00Z</time>
      </trkpt>
      <trkpt lat="43.4922" lon="6.23464">
        <ele>133</ele>
        <time>2022-04-15T13:18:01Z</time>
      </trkpt>
      <trkpt lat="43.49219" lon="6.23464">
        <ele>132</ele>
        <time>2022-04-15T13:18:02Z</time>
      </trkpt>
      <trkpt lat="43.49219" lon="6.23463">
        <ele>132</ele>
        <time>2022-04-15T13:18:03Z</time>
      </trkpt>
      <trkpt lat="43.49219" lon="6.23463">
        <ele>132</ele>
        <time>2022-04-15T13:18:04Z</time>
      </trkpt>
      <trkpt lat="43.49218" lon="6.23462">
        <ele>132</ele>
        <time>2022-04-15T13:18:05Z</time>
      </trkpt>
      <trkpt lat="43.49218" lon="6.23461">
        <ele>131</ele>
        <time>2022-04-15T13:18:06Z</time>
      </trkpt>
      <trkpt lat="43.49217" lon="6.2346">
        <ele>131</ele>
        <time>2022-04-15T13:18:07Z</time>
      </trkpt>
      <trkpt lat="43.49216" lon="6.23458">
        <ele>131</ele>
        <time>2022-04-15T13:18:08Z</time>
      </trkpt>
      <trkpt lat="43.49215" lon="6.23457">
        <ele>131</ele>
        <time>2022-04-15T13:18:09Z</time>
      </trkpt>
      <trkpt lat="43.49213" lon="6.23455">
        <ele>131</ele>
        <time>2022-04-15T13:18:10Z</time>
      </trkpt>
      <trkpt lat="43.49211" lon="6.23452">
        <ele>131</ele>
        <time>2022-04-15T13:18:11Z</time>
      </trkpt>
      <trkpt lat="43.4921" lon="6.2345">
        <ele>131</ele>
        <time>2022-04-15T13:18:12Z</time>
      </trkpt>
      <trkpt lat="43.49208" lon="6.23448">
        <ele>131</ele>
        <time>2022-04-15T13:18:13Z</time>
      </trkpt>
      <trkpt lat="43.49207" lon="6.23446">
        <ele>131</ele>
        <time>2022-04-15T13:18:14Z</time>
      </trkpt>
      <trkpt lat="43.49206" lon="6.23444">
        <ele>131</ele>
        <time>2022-04-15T13:18:15Z</time>
      </trkpt>
      <trkpt lat="43.49205" lon="6.23443">
        <ele>131</ele>
        <time>2022-04-15T13:18:16Z</time>
      </trkpt>
      <trkpt lat="43.49204" lon="6.23441">
        <ele>131</ele>
        <time>2022-04-15T13:18:17Z</time>
      </trkpt>
      <trkpt lat="43.49203" lon="6.2344">
        <ele>131</ele>
        <time>2022-04-15T13:18:18Z</time>
      </trkpt>
      <trkpt lat="43.49202" lon="6.23438">
        <ele>131</ele>
        <time>2022-04-15T13:18:19Z</time>
      </trkpt>
      <trkpt lat="43.49201" lon="6.23437">
        <ele>131</ele>
        <time>2022-04-15T13:18:20Z</time>
      </trkpt>
      <trkpt lat="43.492" lon="6.23436">
        <ele>131</ele>
        <time>2022-04-15T13:18:21Z</time>
      </trkpt>
      <trkpt lat="43.492" lon="6.23434">
        <ele>131</ele>
        <time>2022-04-15T13:18:22Z</time>
      </trkpt>
      <trkpt lat="43.49199" lon="6.23433">
        <ele>131</ele>
        <time>2022-04-15T13:18:23Z</time>
      </trkpt>
      <trkpt lat="43.49199" lon="6.23431">
        <ele>131</ele>
        <time>2022-04-15T13:18:24Z</time>
      </trkpt>
      <trkpt lat="43.49198" lon="6.2343">
        <ele>131</ele>
        <time>2022-04-15T13:18:25Z</time>
      </trkpt>
      <trkpt lat="43.49197" lon="6.23428">
        <ele>131</ele>
        <time>2022-04-15T13:18:26Z</time>
      </trkpt>
      <trkpt lat="43.49196" lon="6.23427">
        <ele>132</ele>
        <time>2022-04-15T13:18:27Z</time>
      </trkpt>
      <trkpt lat="43.49196" lon="6.23425">
        <ele>132</ele>
        <time>2022-04-15T13:18:28Z</time>
      </trkpt>
      <trkpt lat="43.49195" lon="6.23424">
        <ele>132</ele>
        <time>2022-04-15T13:18:29Z</time>
      </trkpt>
      <trkpt lat="43.49194" lon="6.23422">
        <ele>132</ele>
        <time>2022-04-15T13:18:30Z</time>
      </trkpt>
      <trkpt lat="43.49194" lon="6.2342">
        <ele>132</ele>
        <time>2022-04-15T13:18:31Z</time>
      </trkpt>
      <trkpt lat="43.49193" lon="6.23419">
        <ele>132</ele>
        <time>2022-04-15T13:18:32Z</time>
      </trkpt>
      <trkpt lat="43.49192" lon="6.23418">
        <ele>132</ele>
        <time>2022-04-15T13:18:33Z</time>
      </trkpt>
      <trkpt lat="43.49192" lon="6.23416">
        <ele>132</ele>
        <time>2022-04-15T13:18:34Z</time>
      </trkpt>
      <trkpt lat="43.49191" lon="6.23415">
        <ele>132</ele>
        <time>2022-04-15T13:18:35Z</time>
      </trkpt>
      <trkpt lat="43.49191" lon="6.23414">
        <ele>132</ele>
        <time>2022-04-15T13:18:36Z</time>
      </trkpt>
      <trkpt lat="43.4919" lon="6.23412">
        <ele>132</ele>
        <time>2022-04-15T13:18:37Z</time>
      </trkpt>
      <trkpt lat="43.49189" lon="6.23411">
        <ele>132</ele>
        <time>2022-04-15T13:18:38Z</time>
      </trkpt>
      <trkpt lat="43.49188" lon="6.23409">
        <ele>132</ele>
        <time>2022-04-15T13:18:39Z</time>
      </trkpt>
      <trkpt lat="43.49188" lon="6.23408">
        <ele>132</ele>
        <time>2022-04-15T13:18:40Z</time>
      </trkpt>
      <trkpt lat="43.49187" lon="6.23406">
        <ele>132</ele>
        <time>2022-04-15T13:18:41Z</time>
      </trkpt>
      <trkpt lat="43.49186" lon="6.23405">
        <ele>132</ele>
        <time>2022-04-15T13:18:42Z</time>
      </trkpt>
      <trkpt lat="43.49186" lon="6.23403">
        <ele>132</ele>
        <time>2022-04-15T13:18:43Z</time>
      </trkpt>
      <trkpt lat="43.49185" lon="6.23402">
        <ele>132</ele>
        <time>2022-04-15T13:18:44Z</time>
      </trkpt>
      <trkpt lat="43.49184" lon="6.23401">
        <ele>132</ele>
        <time>2022-04-15T13:18:45Z</time>
      </trkpt>
      <trkpt lat="43.49183" lon="6.234">
        <ele>131</ele>
        <time>2022-04-15T13:18:46Z</time>
      </trkpt>
      <trkpt lat="43.49182" lon="6.23399">
        <ele>131</ele>
        <time>2022-04-15T13:18:47Z</time>
      </trkpt>
      <trkpt lat="43.49182" lon="6.23399">
        <ele>131</ele>
        <time>2022-04-15T13:18:48Z</time>
      </trkpt>
      <trkpt lat="43.49181" lon="6.23399">
        <ele>131</ele>
        <time>2022-04-15T13:18:49Z</time>
      </trkpt>
      <trkpt lat="43.49181" lon="6.23398">
        <ele>131</ele>
        <time>2022-04-15T13:18:50Z</time>
      </trkpt>
      <trkpt lat="43.49181" lon="6.23398">
        <ele>131</ele>
        <time>2022-04-15T13:18:51Z</time>
      </trkpt>
      <trkpt lat="43.49181" lon="6.23398">
        <ele>131</ele>
        <time>2022-04-15T13:18:52Z</time>
      </trkpt>
      <trkpt lat="43.49181" lon="6.23397">
        <ele>131</ele>
        <time>2022-04-15T13:18:53Z</time>
      </trkpt>
      <trkpt lat="43.4918" lon="6.23396">
        <ele>131</ele>
        <time>2022-04-15T13:18:54Z</time>
      </trkpt>
      <trkpt lat="43.4918" lon="6.23395">
        <ele>130</ele>
        <time>2022-04-15T13:18:55Z</time>
      </trkpt>
      <trkpt lat="43.4918" lon="6.23394">
        <ele>130</ele>
        <time>2022-04-15T13:18:56Z</time>
      </trkpt>
      <trkpt lat="43.49179" lon="6.23393">
        <ele>130</ele>
        <time>2022-04-15T13:18:57Z</time>
      </trkpt>
      <trkpt lat="43.49179" lon="6.23391">
        <ele>130</ele>
        <time>2022-04-15T13:18:58Z</time>
      </trkpt>
      <trkpt lat="43.49179" lon="6.2339">
        <ele>130</ele>
        <time>2022-04-15T13:18:59Z</time>
      </trkpt>
      <trkpt lat="43.49179" lon="6.23388">
        <ele>129</ele>
        <time>2022-04-15T13:19:00Z</time>
      </trkpt>
      <trkpt lat="43.4918" lon="6.23387">
        <ele>129</ele>
        <time>2022-04-15T13:19:01Z</time>
      </trkpt>
      <trkpt lat="43.4918" lon="6.23386">
        <ele>128</ele>
        <time>2022-04-15T13:19:02Z</time>
      </trkpt>
      <trkpt lat="43.4918" lon="6.23385">
        <ele>128</ele>
        <time>2022-04-15T13:19:03Z</time>
      </trkpt>
      <trkpt lat="43.49179" lon="6.23384">
        <ele>128</ele>
        <time>2022-04-15T13:19:04Z</time>
      </trkpt>
      <trkpt lat="43.49179" lon="6.23383">
        <ele>128</ele>
        <time>2022-04-15T13:19:05Z</time>
      </trkpt>
      <trkpt lat="43.49178" lon="6.23382">
        <ele>128</ele>
        <time>2022-04-15T13:19:06Z</time>
      </trkpt>
      <trkpt lat="43.49178" lon="6.23381">
        <ele>128</ele>
        <time>2022-04-15T13:19:07Z</time>
      </trkpt>
      <trkpt lat="43.49177" lon="6.2338">
        <ele>128</ele>
        <time>2022-04-15T13:19:08Z</time>
      </trkpt>
      <trkpt lat="43.49177" lon="6.23379">
        <ele>128</ele>
        <time>2022-04-15T13:19:09Z</time>
      </trkpt>
      <trkpt lat="43.49176" lon="6.23377">
        <ele>128</ele>
        <time>2022-04-15T13:19:10Z</time>
      </trkpt>
      <trkpt lat="43.49175" lon="6.23376">
        <ele>127</ele>
        <time>2022-04-15T13:19:11Z</time>
      </trkpt>
      <trkpt lat="43.49175" lon="6.23374">
        <ele>127</ele>
        <time>2022-04-15T13:19:12Z</time>
      </trkpt>
      <trkpt lat="43.49174" lon="6.23373">
        <ele>127</ele>
        <time>2022-04-15T13:19:13Z</time>
      </trkpt>
      <trkpt lat="43.49173" lon="6.23371">
        <ele>127</ele>
        <time>2022-04-15T13:19:14Z</time>
      </trkpt>
      <trkpt lat="43.49172" lon="6.2337">
        <ele>128</ele>
        <time>2022-04-15T13:19:15Z</time>
      </trkpt>
      <trkpt lat="43.49171" lon="6.23369">
        <ele>128</ele>
        <time>2022-04-15T13:19:16Z</time>
      </trkpt>
      <trkpt lat="43.4917" lon="6.23367">
        <ele>128</ele>
        <time>2022-04-15T13:19:17Z</time>
      </trkpt>
      <trkpt lat="43.49169" lon="6.23366">
        <ele>128</ele>
        <time>2022-04-15T13:19:18Z</time>
      </trkpt>
      <trkpt lat="43.49168" lon="6.23365">
        <ele>128</ele>
        <time>2022-04-15T13:19:19Z</time>
      </trkpt>
      <trkpt lat="43.49167" lon="6.23364">
        <ele>128</ele>
        <time>2022-04-15T13:19:20Z</time>
      </trkpt>
      <trkpt lat="43.49167" lon="6.23363">
        <ele>128</ele>
        <time>2022-04-15T13:19:21Z</time>
      </trkpt>
      <trkpt lat="43.49166" lon="6.23361">
        <ele>128</ele>
        <time>2022-04-15T13:19:22Z</time>
      </trkpt>
      <trkpt lat="43.49165" lon="6.2336">
        <ele>129</ele>
        <time>2022-04-15T13:19:23Z</time>
      </trkpt>
      <trkpt lat="43.49164" lon="6.2336">
        <ele>129</ele>
        <time>2022-04-15T13:19:24Z</time>
      </trkpt>
      <trkpt lat="43.49163" lon="6.23359">
        <ele>129</ele>
        <time>2022-04-15T13:19:25Z</time>
      </trkpt>
      <trkpt lat="43.49162" lon="6.23357">
        <ele>129</ele>
        <time>2022-04-15T13:19:26Z</time>
      </trkpt>
      <trkpt lat="43.49162" lon="6.23356">
        <ele>129</ele>
        <time>2022-04-15T13:19:27Z</time>
      </trkpt>
      <trkpt lat="43.49161" lon="6.23355">
        <ele>129</ele>
        <time>2022-04-15T13:19:28Z</time>
      </trkpt>
      <trkpt lat="43.4916" lon="6.23354">
        <ele>129</ele>
        <time>2022-04-15T13:19:29Z</time>
      </trkpt>
      <trkpt lat="43.49159" lon="6.23353">
        <ele>129</ele>
        <time>2022-04-15T13:19:30Z</time>
      </trkpt>
      <trkpt lat="43.49158" lon="6.23351">
        <ele>129</ele>
        <time>2022-04-15T13:19:31Z</time>
      </trkpt>
      <trkpt lat="43.49157" lon="6.2335">
        <ele>129</ele>
        <time>2022-04-15T13:19:32Z</time>
      </trkpt>
      <trkpt lat="43.49156" lon="6.23349">
        <ele>129</ele>
        <time>2022-04-15T13:19:33Z</time>
      </trkpt>
      <trkpt lat="43.49155" lon="6.23347">
        <ele>128</ele>
        <time>2022-04-15T13:19:34Z</time>
      </trkpt>
      <trkpt lat="43.49154" lon="6.23346">
        <ele>128</ele>
        <time>2022-04-15T13:19:35Z</time>
      </trkpt>
      <trkpt lat="43.49152" lon="6.23345">
        <ele>128</ele>
        <time>2022-04-15T13:19:36Z</time>
      </trkpt>
      <trkpt lat="43.49151" lon="6.23344">
        <ele>128</ele>
        <time>2022-04-15T13:19:37Z</time>
      </trkpt>
      <trkpt lat="43.49151" lon="6.23343">
        <ele>128</ele>
        <time>2022-04-15T13:19:38Z</time>
      </trkpt>
      <trkpt lat="43.4915" lon="6.23341">
        <ele>128</ele>
        <time>2022-04-15T13:19:39Z</time>
      </trkpt>
      <trkpt lat="43.49149" lon="6.2334">
        <ele>127</ele>
        <time>2022-04-15T13:19:40Z</time>
      </trkpt>
      <trkpt lat="43.49148" lon="6.23339">
        <ele>127</ele>
        <time>2022-04-15T13:19:41Z</time>
      </trkpt>
      <trkpt lat="43.49147" lon="6.23338">
        <ele>127</ele>
        <time>2022-04-15T13:19:42Z</time>
      </trkpt>
      <trkpt lat="43.49146" lon="6.23337">
        <ele>127</ele>
        <time>2022-04-15T13:19:43Z</time>
      </trkpt>
      <trkpt lat="43.49144" lon="6.23336">
        <ele>127</ele>
        <time>2022-04-15T13:19:44Z</time>
      </trkpt>
      <trkpt lat="43.49143" lon="6.23336">
        <ele>127</ele>
        <time>2022-04-15T13:19:45Z</time>
      </trkpt>
      <trkpt lat="43.49142" lon="6.23335">
        <ele>127</ele>
        <time>2022-04-15T13:19:46Z</time>
      </trkpt>
      <trkpt lat="43.49142" lon="6.23334">
        <ele>127</ele>
        <time>2022-04-15T13:19:47Z</time>
      </trkpt>
      <trkpt lat="43.49141" lon="6.23333">
        <ele>127</ele>
        <time>2022-04-15T13:19:48Z</time>
      </trkpt>
      <trkpt lat="43.49141" lon="6.23333">
        <ele>127</ele>
        <time>2022-04-15T13:19:49Z</time>
      </trkpt>
      <trkpt lat="43.4914" lon="6.23332">
        <ele>127</ele>
        <time>2022-04-15T13:19:50Z</time>
      </trkpt>
      <trkpt lat="43.4914" lon="6.23332">
        <ele>127</ele>
        <time>2022-04-15T13:19:51Z</time>
      </trkpt>
      <trkpt lat="43.4914" lon="6.23332">
        <ele>127</ele>
        <time>2022-04-15T13:19:52Z</time>
      </trkpt>
      <trkpt lat="43.49141" lon="6.23332">
        <ele>127</ele>
        <time>2022-04-15T13:19:53Z</time>
      </trkpt>
      <trkpt lat="43.49141" lon="6.23332">
        <ele>127</ele>
        <time>2022-04-15T13:19:54Z</time>
      </trkpt>
      <trkpt lat="43.49141" lon="6.23331">
        <ele>127</ele>
        <time>2022-04-15T13:19:55Z</time>
      </trkpt>
      <trkpt lat="43.49141" lon="6.23331">
        <ele>127</ele>
        <time>2022-04-15T13:19:56Z</time>
      </trkpt>
      <trkpt lat="43.4914" lon="6.2333">
        <ele>127</ele>
        <time>2022-04-15T13:19:57Z</time>
      </trkpt>
      <trkpt lat="43.4914" lon="6.23329">
        <ele>127</ele>
        <time>2022-04-15T13:19:58Z</time>
      </trkpt>
      <trkpt lat="43.49139" lon="6.23328">
        <ele>128</ele>
        <time>2022-04-15T13:19:59Z</time>
      </trkpt>
      <trkpt lat="43.49139" lon="6.23328">
        <ele>128</ele>
        <time>2022-04-15T13:20:00Z</time>
      </trkpt>
      <trkpt lat="43.49138" lon="6.23328">
        <ele>128</ele>
        <time>2022-04-15T13:20:01Z</time>
      </trkpt>
      <trkpt lat="43.49138" lon="6.23328">
        <ele>128</ele>
        <time>2022-04-15T13:20:02Z</time>
      </trkpt>
      <trkpt lat="43.49138" lon="6.23327">
        <ele>128</ele>
        <time>2022-04-15T13:20:03Z</time>
      </trkpt>
      <trkpt lat="43.49137" lon="6.23327">
        <ele>128</ele>
        <time>2022-04-15T13:20:04Z</time>
      </trkpt>
      <trkpt lat="43.49136" lon="6.23327">
        <ele>128</ele>
        <time>2022-04-15T13:20:05Z</time>
      </trkpt>
      <trkpt lat="43.49135" lon="6.23326">
        <ele>128</ele>
        <time>2022-04-15T13:20:06Z</time>
      </trkpt>
      <trkpt lat="43.49135" lon="6.23326">
        <ele>128</ele>
        <time>2022-04-15T13:20:07Z</time>
      </trkpt>
      <trkpt lat="43.49134" lon="6.23325">
        <ele>128</ele>
        <time>2022-04-15T13:20:08Z</time>
      </trkpt>
      <trkpt lat="43.49132" lon="6.23325">
        <ele>129</ele>
        <time>2022-04-15T13:20:09Z</time>
      </trkpt>
      <trkpt lat="43.49131" lon="6.23324">
        <ele>129</ele>
        <time>2022-04-15T13:20:10Z</time>
      </trkpt>
      <trkpt lat="43.4913" lon="6.23323">
        <ele>129</ele>
        <time>2022-04-15T13:20:11Z</time>
      </trkpt>
      <trkpt lat="43.4913" lon="6.23323">
        <ele>129</ele>
        <time>2022-04-15T13:20:12Z</time>
      </trkpt>
      <trkpt lat="43.49129" lon="6.23322">
        <ele>129</ele>
        <time>2022-04-15T13:20:13Z</time>
      </trkpt>
      <trkpt lat="43.49128" lon="6.23322">
        <ele>129</ele>
        <time>2022-04-15T13:20:14Z</time>
      </trkpt>
      <trkpt lat="43.49128" lon="6.23321">
        <ele>129</ele>
        <time>2022-04-15T13:20:15Z</time>
      </trkpt>
      <trkpt lat="43.49127" lon="6.23321">
        <ele>129</ele>
        <time>2022-04-15T13:20:16Z</time>
      </trkpt>
      <trkpt lat="43.49126" lon="6.23321">
        <ele>130</ele>
        <time>2022-04-15T13:20:17Z</time>
      </trkpt>
      <trkpt lat="43.49126" lon="6.2332">
        <ele>130</ele>
        <time>2022-04-15T13:20:18Z</time>
      </trkpt>
      <trkpt lat="43.49126" lon="6.2332">
        <ele>130</ele>
        <time>2022-04-15T13:20:19Z</time>
      </trkpt>
      <trkpt lat="43.49125" lon="6.2332">
        <ele>130</ele>
        <time>2022-04-15T13:20:20Z</time>
      </trkpt>
      <trkpt lat="43.49124" lon="6.23319">
        <ele>130</ele>
        <time>2022-04-15T13:20:21Z</time>
      </trkpt>
      <trkpt lat="43.49124" lon="6.23318">
        <ele>131</ele>
        <time>2022-04-15T13:20:22Z</time>
      </trkpt>
      <trkpt lat="43.49123" lon="6.23317">
        <ele>131</ele>
        <time>2022-04-15T13:20:23Z</time>
      </trkpt>
      <trkpt lat="43.49122" lon="6.23317">
        <ele>131</ele>
        <time>2022-04-15T13:20:24Z</time>
      </trkpt>
      <trkpt lat="43.49122" lon="6.23316">
        <ele>131</ele>
        <time>2022-04-15T13:20:25Z</time>
      </trkpt>
      <trkpt lat="43.49121" lon="6.23316">
        <ele>131</ele>
        <time>2022-04-15T13:20:26Z</time>
      </trkpt>
      <trkpt lat="43.4912" lon="6.23315">
        <ele>131</ele>
        <time>2022-04-15T13:20:27Z</time>
      </trkpt>
      <trkpt lat="43.49119" lon="6.23313">
        <ele>131</ele>
        <time>2022-04-15T13:20:28Z</time>
      </trkpt>
      <trkpt lat="43.49117" lon="6.23312">
        <ele>131</ele>
        <time>2022-04-15T13:20:29Z</time>
      </trkpt>
      <trkpt lat="43.49116" lon="6.23311">
        <ele>131</ele>
        <time>2022-04-15T13:20:30Z</time>
      </trkpt>
      <trkpt lat="43.49116" lon="6.2331">
        <ele>131</ele>
        <time>2022-04-15T13:20:31Z</time>
      </trkpt>
      <trkpt lat="43.49115" lon="6.2331">
        <ele>131</ele>
        <time>2022-04-15T13:20:32Z</time>
      </trkpt>
      <trkpt lat="43.49114" lon="6.23309">
        <ele>131</ele>
        <time>2022-04-15T13:20:33Z</time>
      </trkpt>
      <trkpt lat="43.49113" lon="6.23307">
        <ele>131</ele>
        <time>2022-04-15T13:20:34Z</time>
      </trkpt>
      <trkpt lat="43.49112" lon="6.23306">
        <ele>131</ele>
        <time>2022-04-15T13:20:35Z</time>
      </trkpt>
      <trkpt lat="43.49112" lon="6.23305">
        <ele>131</ele>
        <time>2022-04-15T13:20:36Z</time>
      </trkpt>
      <trkpt lat="43.49111" lon="6.23303">
        <ele>131</ele>
        <time>2022-04-15T13:20:37Z</time>
      </trkpt>
      <trkpt lat="43.4911" lon="6.23302">
        <ele>131</ele>
        <time>2022-04-15T13:20:38Z</time>
      </trkpt>
      <trkpt lat="43.49109" lon="6.23302">
        <ele>131</ele>
        <time>2022-04-15T13:20:39Z</time>
      </trkpt>
      <trkpt lat="43.49109" lon="6.23301">
        <ele>131</ele>
        <time>2022-04-15T13:20:40Z</time>
      </trkpt>
      <trkpt lat="43.49109" lon="6.233">
        <ele>131</ele>
        <time>2022-04-15T13:20:41Z</time>
      </trkpt>
      <trkpt lat="43.49108" lon="6.233">
        <ele>131</ele>
        <time>2022-04-15T13:20:42Z</time>
      </trkpt>
      <trkpt lat="43.49107" lon="6.23299">
        <ele>131</ele>
        <time>2022-04-15T13:20:43Z</time>
      </trkpt>
      <trkpt lat="43.49106" lon="6.23298">
        <ele>132</ele>
        <time>2022-04-15T13:20:44Z</time>
      </trkpt>
      <trkpt lat="43.49105" lon="6.23297">
        <ele>132</ele>
        <time>2022-04-15T13:20:45Z</time>
      </trkpt>
      <trkpt lat="43.49104" lon="6.23296">
        <ele>132</ele>
        <time>2022-04-15T13:20:46Z</time>
      </trkpt>
      <trkpt lat="43.49102" lon="6.23295">
        <ele>132</ele>
        <time>2022-04-15T13:20:47Z</time>
      </trkpt>
      <trkpt lat="43.49101" lon="6.23294">
        <ele>132</ele>
        <time>2022-04-15T13:20:48Z</time>
      </trkpt>
      <trkpt lat="43.491" lon="6.23293">
        <ele>132</ele>
        <time>2022-04-15T13:20:49Z</time>
      </trkpt>
      <trkpt lat="43.49099" lon="6.23292">
        <ele>132</ele>
        <time>2022-04-15T13:20:50Z</time>
      </trkpt>
      <trkpt lat="43.49098" lon="6.23291">
        <ele>132</ele>
        <time>2022-04-15T13:20:51Z</time>
      </trkpt>
      <trkpt lat="43.49097" lon="6.2329">
        <ele>132</ele>
        <time>2022-04-15T13:20:52Z</time>
      </trkpt>
      <trkpt lat="43.49096" lon="6.23289">
        <ele>132</ele>
        <time>2022-04-15T13:20:53Z</time>
      </trkpt>
      <trkpt lat="43.49095" lon="6.23288">
        <ele>132</ele>
        <time>2022-04-15T13:20:54Z</time>
      </trkpt>
      <trkpt lat="43.49094" lon="6.23286">
        <ele>132</ele>
        <time>2022-04-15T13:20:55Z</time>
      </trkpt>
      <trkpt lat="43.49092" lon="6.23284">
        <ele>132</ele>
        <time>2022-04-15T13:20:56Z</time>
      </trkpt>
      <trkpt lat="43.4909" lon="6.23282">
        <ele>132</ele>
        <time>2022-04-15T13:20:57Z</time>
      </trkpt>
      <trkpt lat="43.49089" lon="6.2328">
        <ele>132</ele>
        <time>2022-04-15T13:20:58Z</time>
      </trkpt>
      <trkpt lat="43.49088" lon="6.23279">
        <ele>132</ele>
        <time>2022-04-15T13:20:59Z</time>
      </trkpt>
      <trkpt lat="43.49087" lon="6.23278">
        <ele>131</ele>
        <time>2022-04-15T13:21:00Z</time>
      </trkpt>
      <trkpt lat="43.49086" lon="6.23276">
        <ele>131</ele>
        <time>2022-04-15T13:21:01Z</time>
      </trkpt>
      <trkpt lat="43.49085" lon="6.23275">
        <ele>131</ele>
        <time>2022-04-15T13:21:02Z</time>
      </trkpt>
      <trkpt lat="43.49084" lon="6.23273">
        <ele>131</ele>
        <time>2022-04-15T13:21:03Z</time>
      </trkpt>
      <trkpt lat="43.49083" lon="6.23272">
        <ele>131</ele>
        <time>2022-04-15T13:21:04Z</time>
      </trkpt>
      <trkpt lat="43.49082" lon="6.2327">
        <ele>131</ele>
        <time>2022-04-15T13:21:05Z</time>
      </trkpt>
      <trkpt lat="43.49081" lon="6.23269">
        <ele>130</ele>
        <time>2022-04-15T13:21:06Z</time>
      </trkpt>
      <trkpt lat="43.4908" lon="6.23267">
        <ele>130</ele>
        <time>2022-04-15T13:21:07Z</time>
      </trkpt>
      <trkpt lat="43.4908" lon="6.23266">
        <ele>130</ele>
        <time>2022-04-15T13:21:08Z</time>
      </trkpt>
      <trkpt lat="43.49079" lon="6.23264">
        <ele>130</ele>
        <time>2022-04-15T13:21:09Z</time>
      </trkpt>
      <trkpt lat="43.49078" lon="6.23263">
        <ele>130</ele>
        <time>2022-04-15T13:21:10Z</time>
      </trkpt>
      <trkpt lat="43.49077" lon="6.23261">
        <ele>130</ele>
        <time>2022-04-15T13:21:11Z</time>
      </trkpt>
      <trkpt lat="43.49077" lon="6.2326">
        <ele>130</ele>
        <time>2022-04-15T13:21:12Z</time>
      </trkpt>
      <trkpt lat="43.49076" lon="6.23258">
        <ele>130</ele>
        <time>2022-04-15T13:21:13Z</time>
      </trkpt>
      <trkpt lat="43.49075" lon="6.23256">
        <ele>130</ele>
        <time>2022-04-15T13:21:14Z</time>
      </trkpt>
      <trkpt lat="43.49074" lon="6.23255">
        <ele>130</ele>
        <time>2022-04-15T13:21:15Z</time>
      </trkpt>
      <trkpt lat="43.49074" lon="6.23253">
        <ele>130</ele>
        <time>2022-04-15T13:21:16Z</time>
      </trkpt>
      <trkpt lat="43.49073" lon="6.23252">
        <ele>130</ele>
        <time>2022-04-15T13:21:17Z</time>
      </trkpt>
      <trkpt lat="43.49072" lon="6.23251">
        <ele>130</ele>
        <time>2022-04-15T13:21:18Z</time>
      </trkpt>
      <trkpt lat="43.49071" lon="6.2325">
        <ele>130</ele>
        <time>2022-04-15T13:21:19Z</time>
      </trkpt>
      <trkpt lat="43.49071" lon="6.23248">
        <ele>130</ele>
        <time>2022-04-15T13:21:20Z</time>
      </trkpt>
      <trkpt lat="43.4907" lon="6.23247">
        <ele>130</ele>
        <time>2022-04-15T13:21:21Z</time>
      </trkpt>
      <trkpt lat="43.49069" lon="6.23246">
        <ele>130</ele>
        <time>2022-04-15T13:21:22Z</time>
      </trkpt>
      <trkpt lat="43.49068" lon="6.23245">
        <ele>130</ele>
        <time>2022-04-15T13:21:23Z</time>
      </trkpt>
      <trkpt lat="43.49068" lon="6.23244">
        <ele>130</ele>
        <time>2022-04-15T13:21:24Z</time>
      </trkpt>
      <trkpt lat="43.49067" lon="6.23243">
        <ele>130</ele>
        <time>2022-04-15T13:21:25Z</time>
      </trkpt>
      <trkpt lat="43.49066" lon="6.23242">
        <ele>130</ele>
        <time>2022-04-15T13:21:26Z</time>
      </trkpt>
      <trkpt lat="43.49066" lon="6.23241">
        <ele>130</ele>
        <time>2022-04-15T13:21:27Z</time>
      </trkpt>
      <trkpt lat="43.49065" lon="6.23239">
        <ele>130</ele>
        <time>2022-04-15T13:21:28Z</time>
      </trkpt>
      <trkpt lat="43.49064" lon="6.23238">
        <ele>131</ele>
        <time>2022-04-15T13:21:29Z</time>
      </trkpt>
      <trkpt lat="43.49064" lon="6.23237">
        <ele>131</ele>
        <time>2022-04-15T13:21:30Z</time>
      </trkpt>
      <trkpt lat="43.49063" lon="6.23235">
        <ele>131</ele>
        <time>2022-04-15T13:21:31Z</time>
      </trkpt>
      <trkpt lat="43.49062" lon="6.23234">
        <ele>131</ele>
        <time>2022-04-15T13:21:32Z</time>
      </trkpt>
      <trkpt lat="43.49062" lon="6.23232">
        <ele>131</ele>
        <time>2022-04-15T13:21:33Z</time>
      </trkpt>
      <trkpt lat="43.49061" lon="6.23231">
        <ele>131</ele>
        <time>2022-04-15T13:21:34Z</time>
      </trkpt>
      <trkpt lat="43.4906" lon="6.23229">
        <ele>131</ele>
        <time>2022-04-15T13:21:35Z</time>
      </trkpt>
      <trkpt lat="43.49059" lon="6.23228">
        <ele>131</ele>
        <time>2022-04-15T13:21:36Z</time>
      </trkpt>
      <trkpt lat="43.49059" lon="6.23226">
        <ele>131</ele>
        <time>2022-04-15T13:21:37Z</time>
      </trkpt>
      <trkpt lat="43.49058" lon="6.23225">
        <ele>131</ele>
        <time>2022-04-15T13:21:38Z</time>
      </trkpt>
      <trkpt lat="43.49057" lon="6.23223">
        <ele>131</ele>
        <time>2022-04-15T13:21:39Z</time>
      </trkpt>
      <trkpt lat="43.49057" lon="6.23222">
        <ele>131</ele>
        <time>2022-04-15T13:21:40Z</time>
      </trkpt>
      <trkpt lat="43.49056" lon="6.2322">
        <ele>131</ele>
        <time>2022-04-15T13:21:41Z</time>
      </trkpt>
      <trkpt lat="43.49056" lon="6.23219">
        <ele>131</ele>
        <time>2022-04-15T13:21:42Z</time>
      </trkpt>
      <trkpt lat="43.49055" lon="6.23218">
        <ele>131</ele>
        <time>2022-04-15T13:21:43Z</time>
      </trkpt>
      <trkpt lat="43.49054" lon="6.23216">
        <ele>130</ele>
        <time>2022-04-15T13:21:44Z</time>
      </trkpt>
      <trkpt lat="43.49053" lon="6.23215">
        <ele>130</ele>
        <time>2022-04-15T13:21:45Z</time>
      </trkpt>
      <trkpt lat="43.49053" lon="6.23214">
        <ele>130</ele>
        <time>2022-04-15T13:21:46Z</time>
      </trkpt>
      <trkpt lat="43.49052" lon="6.23213">
        <ele>130</ele>
        <time>2022-04-15T13:21:47Z</time>
      </trkpt>
      <trkpt lat="43.49051" lon="6.23211">
        <ele>130</ele>
        <time>2022-04-15T13:21:48Z</time>
      </trkpt>
      <trkpt lat="43.4905" lon="6.2321">
        <ele>130</ele>
        <time>2022-04-15T13:21:49Z</time>
      </trkpt>
      <trkpt lat="43.49049" lon="6.23209">
        <ele>130</ele>
        <time>2022-04-15T13:21:50Z</time>
      </trkpt>
      <trkpt lat="43.49048" lon="6.23209">
        <ele>130</ele>
        <time>2022-04-15T13:21:51Z</time>
      </trkpt>
      <trkpt lat="43.49046" lon="6.23208">
        <ele>130</ele>
        <time>2022-04-15T13:21:52Z</time>
      </trkpt>
      <trkpt lat="43.49045" lon="6.23207">
        <ele>130</ele>
        <time>2022-04-15T13:21:53Z</time>
      </trkpt>
      <trkpt lat="43.49044" lon="6.23206">
        <ele>129</ele>
        <time>2022-04-15T13:21:54Z</time>
      </trkpt>
      <trkpt lat="43.49043" lon="6.23206">
        <ele>129</ele>
        <time>2022-04-15T13:21:55Z</time>
      </trkpt>
      <trkpt lat="43.49042" lon="6.23205">
        <ele>129</ele>
        <time>2022-04-15T13:21:56Z</time>
      </trkpt>
      <trkpt lat="43.49041" lon="6.23204">
        <ele>128</ele>
        <time>2022-04-15T13:21:57Z</time>
      </trkpt>
      <trkpt lat="43.4904" lon="6.23204">
        <ele>128</ele>
        <time>2022-04-15T13:21:58Z</time>
      </trkpt>
      <trkpt lat="43.49039" lon="6.23203">
        <ele>128</ele>
        <time>2022-04-15T13:21:59Z</time>
      </trkpt>
      <trkpt lat="43.49037" lon="6.23202">
        <ele>128</ele>
        <time>2022-04-15T13:22:00Z</time>
      </trkpt>
      <trkpt lat="43.49036" lon="6.23201">
        <ele>128</ele>
        <time>2022-04-15T13:22:01Z</time>
      </trkpt>
      <trkpt lat="43.49035" lon="6.232">
        <ele>128</ele>
        <time>2022-04-15T13:22:02Z</time>
      </trkpt>
      <trkpt lat="43.49034" lon="6.232">
        <ele>128</ele>
        <time>2022-04-15T13:22:03Z</time>
      </trkpt>
      <trkpt lat="43.49033" lon="6.23199">
        <ele>128</ele>
        <time>2022-04-15T13:22:04Z</time>
      </trkpt>
      <trkpt lat="43.49032" lon="6.23198">
        <ele>128</ele>
        <time>2022-04-15T13:22:05Z</time>
      </trkpt>
      <trkpt lat="43.49031" lon="6.23197">
        <ele>128</ele>
        <time>2022-04-15T13:22:06Z</time>
      </trkpt>
      <trkpt lat="43.4903" lon="6.23196">
        <ele>128</ele>
        <time>2022-04-15T13:22:07Z</time>
      </trkpt>
      <trkpt lat="43.49029" lon="6.23195">
        <ele>128</ele>
        <time>2022-04-15T13:22:08Z</time>
      </trkpt>
      <trkpt lat="43.49028" lon="6.23194">
        <ele>128</ele>
        <time>2022-04-15T13:22:09Z</time>
      </trkpt>
      <trkpt lat="43.49027" lon="6.23192">
        <ele>128</ele>
        <time>2022-04-15T13:22:10Z</time>
      </trkpt>
      <trkpt lat="43.49027" lon="6.23191">
        <ele>127</ele>
        <time>2022-04-15T13:22:11Z</time>
      </trkpt>
      <trkpt lat="43.49026" lon="6.2319">
        <ele>127</ele>
        <time>2022-04-15T13:22:12Z</time>
      </trkpt>
      <trkpt lat="43.49025" lon="6.23188">
        <ele>127</ele>
        <time>2022-04-15T13:22:13Z</time>
      </trkpt>
      <trkpt lat="43.49025" lon="6.23187">
        <ele>127</ele>
        <time>2022-04-15T13:22:14Z</time>
      </trkpt>
      <trkpt lat="43.49024" lon="6.23186">
        <ele>126</ele>
        <time>2022-04-15T13:22:15Z</time>
      </trkpt>
      <trkpt lat="43.49023" lon="6.23185">
        <ele>126</ele>
        <time>2022-04-15T13:22:16Z</time>
      </trkpt>
      <trkpt lat="43.49023" lon="6.23184">
        <ele>126</ele>
        <time>2022-04-15T13:22:17Z</time>
      </trkpt>
      <trkpt lat="43.49022" lon="6.23183">
        <ele>126</ele>
        <time>2022-04-15T13:22:18Z</time>
      </trkpt>
      <trkpt lat="43.49021" lon="6.23181">
        <ele>126</ele>
        <time>2022-04-15T13:22:19Z</time>
      </trkpt>
      <trkpt lat="43.49021" lon="6.2318">
        <ele>126</ele>
        <time>2022-04-15T13:22:20Z</time>
      </trkpt>
      <trkpt lat="43.4902" lon="6.23179">
        <ele>126</ele>
        <time>2022-04-15T13:22:21Z</time>
      </trkpt>
      <trkpt lat="43.4902" lon="6.23177">
        <ele>126</ele>
        <time>2022-04-15T13:22:22Z</time>
      </trkpt>
      <trkpt lat="43.49019" lon="6.23176">
        <ele>126</ele>
        <time>2022-04-15T13:22:23Z</time>
      </trkpt>
      <trkpt lat="43.49019" lon="6.23175">
        <ele>126</ele>
        <time>2022-04-15T13:22:24Z</time>
      </trkpt>
      <trkpt lat="43.49019" lon="6.23174">
        <ele>126</ele>
        <time>2022-04-15T13:22:25Z</time>
      </trkpt>
      <trkpt lat="43.49018" lon="6.23172">
        <ele>126</ele>
        <time>2022-04-15T13:22:26Z</time>
      </trkpt>
      <trkpt lat="43.49018" lon="6.23171">
        <ele>126</ele>
        <time>2022-04-15T13:22:27Z</time>
      </trkpt>
      <trkpt lat="43.49018" lon="6.2317">
        <ele>126</ele>
        <time>2022-04-15T13:22:28Z</time>
      </trkpt>
      <trkpt lat="43.49017" lon="6.23168">
        <ele>127</ele>
        <time>2022-04-15T13:22:29Z</time>
      </trkpt>
      <trkpt lat="43.49017" lon="6.23167">
        <ele>127</ele>
        <time>2022-04-15T13:22:30Z</time>
      </trkpt>
      <trkpt lat="43.49017" lon="6.23166">
        <ele>127</ele>
        <time>2022-04-15T13:22:31Z</time>
      </trkpt>
      <trkpt lat="43.49017" lon="6.23166">
        <ele>127</ele>
        <time>2022-04-15T13:22:32Z</time>
      </trkpt>
      <trkpt lat="43.49016" lon="6.23165">
        <ele>127</ele>
        <time>2022-04-15T13:22:33Z</time>
      </trkpt>
      <trkpt lat="43.49015" lon="6.23164">
        <ele>127</ele>
        <time>2022-04-15T13:22:34Z</time>
      </trkpt>
      <trkpt lat="43.49015" lon="6.23163">
        <ele>127</ele>
        <time>2022-04-15T13:22:35Z</time>
      </trkpt>
      <trkpt lat="43.49014" lon="6.23162">
        <ele>127</ele>
        <time>2022-04-15T13:22:36Z</time>
      </trkpt>
      <trkpt lat="43.49014" lon="6.23161">
        <ele>127</ele>
        <time>2022-04-15T13:22:37Z</time>
      </trkpt>
      <trkpt lat="43.49013" lon="6.23159">
        <ele>127</ele>
        <time>2022-04-15T13:22:38Z</time>
      </trkpt>
      <trkpt lat="43.49012" lon="6.23158">
        <ele>127</ele>
        <time>2022-04-15T13:22:39Z</time>
      </trkpt>
      <trkpt lat="43.49012" lon="6.23157">
        <ele>127</ele>
        <time>2022-04-15T13:22:40Z</time>
      </trkpt>
      <trkpt lat="43.49011" lon="6.23155">
        <ele>127</ele>
        <time>2022-04-15T13:22:41Z</time>
      </trkpt>
      <trkpt lat="43.4901" lon="6.23154">
        <ele>128</ele>
        <time>2022-04-15T13:22:42Z</time>
      </trkpt>
      <trkpt lat="43.49009" lon="6.23153">
        <ele>129</ele>
        <time>2022-04-15T13:22:43Z</time>
      </trkpt>
      <trkpt lat="43.49008" lon="6.23151">
        <ele>130</ele>
        <time>2022-04-15T13:22:44Z</time>
      </trkpt>
      <trkpt lat="43.49007" lon="6.2315">
        <ele>131</ele>
        <time>2022-04-15T13:22:45Z</time>
      </trkpt>
      <trkpt lat="43.49006" lon="6.23148">
        <ele>131</ele>
        <time>2022-04-15T13:22:46Z</time>
      </trkpt>
      <trkpt lat="43.49005" lon="6.23147">
        <ele>131</ele>
        <time>2022-04-15T13:22:47Z</time>
      </trkpt>
      <trkpt lat="43.49005" lon="6.23145">
        <ele>132</ele>
        <time>2022-04-15T13:22:48Z</time>
      </trkpt>
      <trkpt lat="43.49004" lon="6.23144">
        <ele>132</ele>
        <time>2022-04-15T13:22:49Z</time>
      </trkpt>
      <trkpt lat="43.49003" lon="6.23143">
        <ele>132</ele>
        <time>2022-04-15T13:22:50Z</time>
      </trkpt>
      <trkpt lat="43.49002" lon="6.23141">
        <ele>132</ele>
        <time>2022-04-15T13:22:51Z</time>
      </trkpt>
      <trkpt lat="43.49002" lon="6.2314">
        <ele>132</ele>
        <time>2022-04-15T13:22:52Z</time>
      </trkpt>
      <trkpt lat="43.49001" lon="6.23139">
        <ele>133</ele>
        <time>2022-04-15T13:22:53Z</time>
      </trkpt>
      <trkpt lat="43.49001" lon="6.23137">
        <ele>133</ele>
        <time>2022-04-15T13:22:54Z</time>
      </trkpt>
      <trkpt lat="43.49" lon="6.23135">
        <ele>133</ele>
        <time>2022-04-15T13:22:55Z</time>
      </trkpt>
      <trkpt lat="43.48999" lon="6.23134">
        <ele>133</ele>
        <time>2022-04-15T13:22:56Z</time>
      </trkpt>
      <trkpt lat="43.48998" lon="6.23132">
        <ele>133</ele>
        <time>2022-04-15T13:22:57Z</time>
      </trkpt>
      <trkpt lat="43.48998" lon="6.2313">
        <ele>133</ele>
        <time>2022-04-15T13:22:58Z</time>
      </trkpt>
      <trkpt lat="43.48997" lon="6.23128">
        <ele>133</ele>
        <time>2022-04-15T13:22:59Z</time>
      </trkpt>
      <trkpt lat="43.48997" lon="6.23127">
        <ele>133</ele>
        <time>2022-04-15T13:23:00Z</time>
      </trkpt>
      <trkpt lat="43.48997" lon="6.23125">
        <ele>135</ele>
        <time>2022-04-15T13:23:01Z</time>
      </trkpt>
      <trkpt lat="43.48996" lon="6.23123">
        <ele>135</ele>
        <time>2022-04-15T13:23:02Z</time>
      </trkpt>
      <trkpt lat="43.48996" lon="6.23122">
        <ele>135</ele>
        <time>2022-04-15T13:23:03Z</time>
      </trkpt>
      <trkpt lat="43.48995" lon="6.2312">
        <ele>135</ele>
        <time>2022-04-15T13:23:04Z</time>
      </trkpt>
      <trkpt lat="43.48995" lon="6.23119">
        <ele>135</ele>
        <time>2022-04-15T13:23:05Z</time>
      </trkpt>
      <trkpt lat="43.48995" lon="6.23118">
        <ele>135</ele>
        <time>2022-04-15T13:23:06Z</time>
      </trkpt>
      <trkpt lat="43.48995" lon="6.23117">
        <ele>135</ele>
        <time>2022-04-15T13:23:07Z</time>
      </trkpt>
      <trkpt lat="43.48994" lon="6.23115">
        <ele>135</ele>
        <time>2022-04-15T13:23:08Z</time>
      </trkpt>
      <trkpt lat="43.48994" lon="6.23114">
        <ele>135</ele>
        <time>2022-04-15T13:23:09Z</time>
      </trkpt>
      <trkpt lat="43.48994" lon="6.23112">
        <ele>135</ele>
        <time>2022-04-15T13:23:10Z</time>
      </trkpt>
      <trkpt lat="43.48994" lon="6.2311">
        <ele>135</ele>
        <time>2022-04-15T13:23:11Z</time>
      </trkpt>
      <trkpt lat="43.48994" lon="6.23108">
        <ele>135</ele>
        <time>2022-04-15T13:23:12Z</time>
      </trkpt>
      <trkpt lat="43.48994" lon="6.23107">
        <ele>135</ele>
        <time>2022-04-15T13:23:13Z</time>
      </trkpt>
      <trkpt lat="43.48993" lon="6.23105">
        <ele>134</ele>
        <time>2022-04-15T13:23:14Z</time>
      </trkpt>
      <trkpt lat="43.48993" lon="6.23103">
        <ele>134</ele>
        <time>2022-04-15T13:23:15Z</time>
      </trkpt>
      <trkpt lat="43.48993" lon="6.23101">
        <ele>134</ele>
        <time>2022-04-15T13:23:16Z</time>
      </trkpt>
      <trkpt lat="43.48993" lon="6.23099">
        <ele>134</ele>
        <time>2022-04-15T13:23:17Z</time>
      </trkpt>
      <trkpt lat="43.48993" lon="6.23098">
        <ele>134</ele>
        <time>2022-04-15T13:23:18Z</time>
      </trkpt>
      <trkpt lat="43.48993" lon="6.23096">
        <ele>134</ele>
        <time>2022-04-15T13:23:19Z</time>
      </trkpt>
      <trkpt lat="43.48995" lon="6.23096">
        <ele>131</ele>
        <time>2022-04-15T13:23:20Z</time>
      </trkpt>
      <trkpt lat="43.48996" lon="6.23096">
        <ele>131</ele>
        <time>2022-04-15T13:23:21Z</time>
      </trkpt>
      <trkpt lat="43.48997" lon="6.23097">
        <ele>131</ele>
        <time>2022-04-15T13:23:22Z</time>
      </trkpt>
      <trkpt lat="43.48998" lon="6.23097">
        <ele>130</ele>
        <time>2022-04-15T13:23:23Z</time>
      </trkpt>
      <trkpt lat="43.48999" lon="6.23098">
        <ele>130</ele>
        <time>2022-04-15T13:23:24Z</time>
      </trkpt>
      <trkpt lat="43.48999" lon="6.23098">
        <ele>130</ele>
        <time>2022-04-15T13:23:25Z</time>
      </trkpt>
      <trkpt lat="43.49" lon="6.23099">
        <ele>130</ele>
        <time>2022-04-15T13:23:26Z</time>
      </trkpt>
      <trkpt lat="43.49" lon="6.23099">
        <ele>130</ele>
        <time>2022-04-15T13:23:27Z</time>
      </trkpt>
      <trkpt lat="43.49" lon="6.23098">
        <ele>130</ele>
        <time>2022-04-15T13:23:28Z</time>
      </trkpt>
      <trkpt lat="43.49" lon="6.23098">
        <ele>130</ele>
        <time>2022-04-15T13:23:29Z</time>
      </trkpt>
      <trkpt lat="43.49" lon="6.23097">
        <ele>130</ele>
        <time>2022-04-15T13:23:30Z</time>
      </trkpt>
      <trkpt lat="43.49" lon="6.23097">
        <ele>130</ele>
        <time>2022-04-15T13:23:31Z</time>
      </trkpt>
      <trkpt lat="43.49" lon="6.23096">
        <ele>130</ele>
        <time>2022-04-15T13:23:32Z</time>
      </trkpt>
      <trkpt lat="43.49" lon="6.23096">
        <ele>130</ele>
        <time>2022-04-15T13:23:33Z</time>
      </trkpt>
      <trkpt lat="43.49" lon="6.23096">
        <ele>130</ele>
        <time>2022-04-15T13:23:34Z</time>
      </trkpt>
      <trkpt lat="43.48999" lon="6.23095">
        <ele>130</ele>
        <time>2022-04-15T13:23:35Z</time>
      </trkpt>
      <trkpt lat="43.48999" lon="6.23095">
        <ele>130</ele>
        <time>2022-04-15T13:23:36Z</time>
      </trkpt>
      <trkpt lat="43.48999" lon="6.23095">
        <ele>130</ele>
        <time>2022-04-15T13:23:37Z</time>
      </trkpt>
      <trkpt lat="43.48999" lon="6.23094">
        <ele>130</ele>
        <time>2022-04-15T13:23:38Z</time>
      </trkpt>
      <trkpt lat="43.48999" lon="6.23094">
        <ele>130</ele>
        <time>2022-04-15T13:23:39Z</time>
      </trkpt>
      <trkpt lat="43.48998" lon="6.23094">
        <ele>130</ele>
        <time>2022-04-15T13:23:40Z</time>
      </trkpt>
      <trkpt lat="43.48998" lon="6.23094">
        <ele>130</ele>
        <time>2022-04-15T13:23:41Z</time>
      </trkpt>
      <trkpt lat="43.48998" lon="6.23093">
        <ele>130</ele>
        <time>2022-04-15T13:23:42Z</time>
      </trkpt>
      <trkpt lat="43.48998" lon="6.23093">
        <ele>130</ele>
        <time>2022-04-15T13:23:43Z</time>
      </trkpt>
      <trkpt lat="43.48998" lon="6.23092">
        <ele>130</ele>
        <time>2022-04-15T13:23:44Z</time>
      </trkpt>
      <trkpt lat="43.48999" lon="6.2309">
        <ele>130</ele>
        <time>2022-04-15T13:23:45Z</time>
      </trkpt>
      <trkpt lat="43.48999" lon="6.23088">
        <ele>130</ele>
        <time>2022-04-15T13:23:46Z</time>
      </trkpt>
      <trkpt lat="43.48999" lon="6.23087">
        <ele>130</ele>
        <time>2022-04-15T13:23:47Z</time>
      </trkpt>
      <trkpt lat="43.49" lon="6.23085">
        <ele>130</ele>
        <time>2022-04-15T13:23:48Z</time>
      </trkpt>
      <trkpt lat="43.49" lon="6.23084">
        <ele>130</ele>
        <time>2022-04-15T13:23:49Z</time>
      </trkpt>
      <trkpt lat="43.49" lon="6.23083">
        <ele>129</ele>
        <time>2022-04-15T13:23:50Z</time>
      </trkpt>
      <trkpt lat="43.49001" lon="6.23081">
        <ele>129</ele>
        <time>2022-04-15T13:23:51Z</time>
      </trkpt>
      <trkpt lat="43.49001" lon="6.2308">
        <ele>129</ele>
        <time>2022-04-15T13:23:52Z</time>
      </trkpt>
      <trkpt lat="43.49002" lon="6.23079">
        <ele>129</ele>
        <time>2022-04-15T13:23:53Z</time>
      </trkpt>
      <trkpt lat="43.49002" lon="6.23078">
        <ele>129</ele>
        <time>2022-04-15T13:23:54Z</time>
      </trkpt>
      <trkpt lat="43.49003" lon="6.23077">
        <ele>129</ele>
        <time>2022-04-15T13:23:55Z</time>
      </trkpt>
      <trkpt lat="43.49004" lon="6.23076">
        <ele>129</ele>
        <time>2022-04-15T13:23:56Z</time>
      </trkpt>
      <trkpt lat="43.49005" lon="6.23075">
        <ele>129</ele>
        <time>2022-04-15T13:23:57Z</time>
      </trkpt>
      <trkpt lat="43.49005" lon="6.23074">
        <ele>129</ele>
        <time>2022-04-15T13:23:58Z</time>
      </trkpt>
      <trkpt lat="43.49006" lon="6.23073">
        <ele>128</ele>
        <time>2022-04-15T13:23:59Z</time>
      </trkpt>
      <trkpt lat="43.49007" lon="6.23072">
        <ele>128</ele>
        <time>2022-04-15T13:24:00Z</time>
      </trkpt>
      <trkpt lat="43.49008" lon="6.23071">
        <ele>128</ele>
        <time>2022-04-15T13:24:01Z</time>
      </trkpt>
      <trkpt lat="43.49008" lon="6.2307">
        <ele>128</ele>
        <time>2022-04-15T13:24:02Z</time>
      </trkpt>
      <trkpt lat="43.49009" lon="6.23069">
        <ele>128</ele>
        <time>2022-04-15T13:24:03Z</time>
      </trkpt>
      <trkpt lat="43.4901" lon="6.23069">
        <ele>128</ele>
        <time>2022-04-15T13:24:04Z</time>
      </trkpt>
      <trkpt lat="43.4901" lon="6.23068">
        <ele>128</ele>
        <time>2022-04-15T13:24:05Z</time>
      </trkpt>
      <trkpt lat="43.49011" lon="6.23068">
        <ele>128</ele>
        <time>2022-04-15T13:24:06Z</time>
      </trkpt>
      <trkpt lat="43.49012" lon="6.23067">
        <ele>128</ele>
        <time>2022-04-15T13:24:07Z</time>
      </trkpt>
      <trkpt lat="43.49012" lon="6.23067">
        <ele>128</ele>
        <time>2022-04-15T13:24:08Z</time>
      </trkpt>
      <trkpt lat="43.49013" lon="6.23066">
        <ele>128</ele>
        <time>2022-04-15T13:24:09Z</time>
      </trkpt>
      <trkpt lat="43.49014" lon="6.23065">
        <ele>128</ele>
        <time>2022-04-15T13:24:10Z</time>
      </trkpt>
      <trkpt lat="43.49015" lon="6.23065">
        <ele>127</ele>
        <time>2022-04-15T13:24:11Z</time>
      </trkpt>
      <trkpt lat="43.49015" lon="6.23064">
        <ele>127</ele>
        <time>2022-04-15T13:24:12Z</time>
      </trkpt>
      <trkpt lat="43.49016" lon="6.23064">
        <ele>127</ele>
        <time>2022-04-15T13:24:13Z</time>
      </trkpt>
      <trkpt lat="43.49016" lon="6.23064">
        <ele>127</ele>
        <time>2022-04-15T13:24:14Z</time>
      </trkpt>
      <trkpt lat="43.49016" lon="6.23063">
        <ele>127</ele>
        <time>2022-04-15T13:24:15Z</time>
      </trkpt>
      <trkpt lat="43.49016" lon="6.23063">
        <ele>127</ele>
        <time>2022-04-15T13:24:16Z</time>
      </trkpt>
      <trkpt lat="43.49017" lon="6.23063">
        <ele>127</ele>
        <time>2022-04-15T13:24:17Z</time>
      </trkpt>
      <trkpt lat="43.49017" lon="6.23062">
        <ele>127</ele>
        <time>2022-04-15T13:24:18Z</time>
      </trkpt>
      <trkpt lat="43.49018" lon="6.23061">
        <ele>127</ele>
        <time>2022-04-15T13:24:19Z</time>
      </trkpt>
      <trkpt lat="43.4902" lon="6.2306">
        <ele>127</ele>
        <time>2022-04-15T13:24:20Z</time>
      </trkpt>
      <trkpt lat="43.49022" lon="6.23058">
        <ele>127</ele>
        <time>2022-04-15T13:24:21Z</time>
      </trkpt>
      <trkpt lat="43.49024" lon="6.23057">
        <ele>127</ele>
        <time>2022-04-15T13:24:22Z</time>
      </trkpt>
      <trkpt lat="43.49025" lon="6.23056">
        <ele>127</ele>
        <time>2022-04-15T13:24:23Z</time>
      </trkpt>
      <trkpt lat="43.49026" lon="6.23055">
        <ele>127</ele>
        <time>2022-04-15T13:24:24Z</time>
      </trkpt>
      <trkpt lat="43.49027" lon="6.23054">
        <ele>127</ele>
        <time>2022-04-15T13:24:25Z</time>
      </trkpt>
      <trkpt lat="43.49028" lon="6.23053">
        <ele>127</ele>
        <time>2022-04-15T13:24:26Z</time>
      </trkpt>
      <trkpt lat="43.49028" lon="6.23052">
        <ele>127</ele>
        <time>2022-04-15T13:24:27Z</time>
      </trkpt>
      <trkpt lat="43.49029" lon="6.23051">
        <ele>127</ele>
        <time>2022-04-15T13:24:28Z</time>
      </trkpt>
      <trkpt lat="43.4903" lon="6.2305">
        <ele>129</ele>
        <time>2022-04-15T13:24:29Z</time>
      </trkpt>
      <trkpt lat="43.49031" lon="6.23049">
        <ele>129</ele>
        <time>2022-04-15T13:24:30Z</time>
      </trkpt>
      <trkpt lat="43.49032" lon="6.23049">
        <ele>129</ele>
        <time>2022-04-15T13:24:31Z</time>
      </trkpt>
      <trkpt lat="43.49032" lon="6.23048">
        <ele>130</ele>
        <time>2022-04-15T13:24:32Z</time>
      </trkpt>
      <trkpt lat="43.49033" lon="6.23048">
        <ele>130</ele>
        <time>2022-04-15T13:24:33Z</time>
      </trkpt>
      <trkpt lat="43.49033" lon="6.23048">
        <ele>130</ele>
        <time>2022-04-15T13:24:34Z</time>
      </trkpt>
      <trkpt lat="43.49034" lon="6.23047">
        <ele>130</ele>
        <time>2022-04-15T13:24:35Z</time>
      </trkpt>
      <trkpt lat="43.49036" lon="6.23046">
        <ele>130</ele>
        <time>2022-04-15T13:24:36Z</time>
      </trkpt>
      <trkpt lat="43.49037" lon="6.23046">
        <ele>130</ele>
        <time>2022-04-15T13:24:37Z</time>
      </trkpt>
      <trkpt lat="43.49039" lon="6.23045">
        <ele>131</ele>
        <time>2022-04-15T13:24:38Z</time>
      </trkpt>
      <trkpt lat="43.4904" lon="6.23044">
        <ele>131</ele>
        <time>2022-04-15T13:24:39Z</time>
      </trkpt>
      <trkpt lat="43.49041" lon="6.23043">
        <ele>132</ele>
        <time>2022-04-15T13:24:40Z</time>
      </trkpt>
      <trkpt lat="43.49042" lon="6.23043">
        <ele>132</ele>
        <time>2022-04-15T13:24:41Z</time>
      </trkpt>
      <trkpt lat="43.49042" lon="6.23042">
        <ele>132</ele>
        <time>2022-04-15T13:24:42Z</time>
      </trkpt>
      <trkpt lat="43.49043" lon="6.23042">
        <ele>132</ele>
        <time>2022-04-15T13:24:43Z</time>
      </trkpt>
      <trkpt lat="43.49043" lon="6.23042">
        <ele>132</ele>
        <time>2022-04-15T13:24:44Z</time>
      </trkpt>
      <trkpt lat="43.49044" lon="6.23041">
        <ele>132</ele>
        <time>2022-04-15T13:24:45Z</time>
      </trkpt>
      <trkpt lat="43.49044" lon="6.23041">
        <ele>132</ele>
        <time>2022-04-15T13:24:46Z</time>
      </trkpt>
      <trkpt lat="43.49044" lon="6.23041">
        <ele>132</ele>
        <time>2022-04-15T13:24:47Z</time>
      </trkpt>
      <trkpt lat="43.49045" lon="6.23041">
        <ele>132</ele>
        <time>2022-04-15T13:24:48Z</time>
      </trkpt>
      <trkpt lat="43.49047" lon="6.2304">
        <ele>132</ele>
        <time>2022-04-15T13:24:49Z</time>
      </trkpt>
      <trkpt lat="43.49049" lon="6.23039">
        <ele>133</ele>
        <time>2022-04-15T13:24:50Z</time>
      </trkpt>
      <trkpt lat="43.4905" lon="6.23038">
        <ele>133</ele>
        <time>2022-04-15T13:24:51Z</time>
      </trkpt>
      <trkpt lat="43.4905" lon="6.23038">
        <ele>133</ele>
        <time>2022-04-15T13:24:52Z</time>
      </trkpt>
      <trkpt lat="43.49051" lon="6.23038">
        <ele>133</ele>
        <time>2022-04-15T13:24:53Z</time>
      </trkpt>
      <trkpt lat="43.49052" lon="6.23037">
        <ele>133</ele>
        <time>2022-04-15T13:24:54Z</time>
      </trkpt>
      <trkpt lat="43.49053" lon="6.23037">
        <ele>134</ele>
        <time>2022-04-15T13:24:55Z</time>
      </trkpt>
      <trkpt lat="43.49054" lon="6.23037">
        <ele>134</ele>
        <time>2022-04-15T13:24:56Z</time>
      </trkpt>
      <trkpt lat="43.49055" lon="6.23036">
        <ele>134</ele>
        <time>2022-04-15T13:24:57Z</time>
      </trkpt>
      <trkpt lat="43.49056" lon="6.23036">
        <ele>134</ele>
        <time>2022-04-15T13:24:58Z</time>
      </trkpt>
      <trkpt lat="43.49057" lon="6.23036">
        <ele>134</ele>
        <time>2022-04-15T13:24:59Z</time>
      </trkpt>
      <trkpt lat="43.49058" lon="6.23036">
        <ele>134</ele>
        <time>2022-04-15T13:25:00Z</time>
      </trkpt>
      <trkpt lat="43.49059" lon="6.23036">
        <ele>134</ele>
        <time>2022-04-15T13:25:01Z</time>
      </trkpt>
      <trkpt lat="43.4906" lon="6.23036">
        <ele>134</ele>
        <time>2022-04-15T13:25:02Z</time>
      </trkpt>
      <trkpt lat="43.49061" lon="6.23036">
        <ele>134</ele>
        <time>2022-04-15T13:25:03Z</time>
      </trkpt>
      <trkpt lat="43.49062" lon="6.23036">
        <ele>134</ele>
        <time>2022-04-15T13:25:04Z</time>
      </trkpt>
      <trkpt lat="43.49062" lon="6.23036">
        <ele>134</ele>
        <time>2022-04-15T13:25:05Z</time>
      </trkpt>
      <trkpt lat="43.49063" lon="6.23036">
        <ele>134</ele>
        <time>2022-04-15T13:25:06Z</time>
      </trkpt>
      <trkpt lat="43.49063" lon="6.23036">
        <ele>134</ele>
        <time>2022-04-15T13:25:07Z</time>
      </trkpt>
      <trkpt lat="43.49064" lon="6.23036">
        <ele>134</ele>
        <time>2022-04-15T13:25:08Z</time>
      </trkpt>
      <trkpt lat="43.49065" lon="6.23036">
        <ele>135</ele>
        <time>2022-04-15T13:25:09Z</time>
      </trkpt>
      <trkpt lat="43.49066" lon="6.23036">
        <ele>135</ele>
        <time>2022-04-15T13:25:10Z</time>
      </trkpt>
      <trkpt lat="43.49067" lon="6.23036">
        <ele>135</ele>
        <time>2022-04-15T13:25:11Z</time>
      </trkpt>
      <trkpt lat="43.49068" lon="6.23036">
        <ele>135</ele>
        <time>2022-04-15T13:25:12Z</time>
      </trkpt>
      <trkpt lat="43.49069" lon="6.23036">
        <ele>135</ele>
        <time>2022-04-15T13:25:13Z</time>
      </trkpt>
      <trkpt lat="43.4907" lon="6.23036">
        <ele>135</ele>
        <time>2022-04-15T13:25:14Z</time>
      </trkpt>
      <trkpt lat="43.49071" lon="6.23036">
        <ele>136</ele>
        <time>2022-04-15T13:25:15Z</time>
      </trkpt>
      <trkpt lat="43.49073" lon="6.23036">
        <ele>137</ele>
        <time>2022-04-15T13:25:16Z</time>
      </trkpt>
      <trkpt lat="43.49074" lon="6.23037">
        <ele>137</ele>
        <time>2022-04-15T13:25:17Z</time>
      </trkpt>
      <trkpt lat="43.49075" lon="6.23037">
        <ele>138</ele>
        <time>2022-04-15T13:25:18Z</time>
      </trkpt>
      <trkpt lat="43.49076" lon="6.23037">
        <ele>138</ele>
        <time>2022-04-15T13:25:19Z</time>
      </trkpt>
      <trkpt lat="43.49077" lon="6.23037">
        <ele>138</ele>
        <time>2022-04-15T13:25:20Z</time>
      </trkpt>
      <trkpt lat="43.49078" lon="6.23037">
        <ele>138</ele>
        <time>2022-04-15T13:25:21Z</time>
      </trkpt>
      <trkpt lat="43.49079" lon="6.23037">
        <ele>138</ele>
        <time>2022-04-15T13:25:22Z</time>
      </trkpt>
      <trkpt lat="43.49079" lon="6.23037">
        <ele>138</ele>
        <time>2022-04-15T13:25:23Z</time>
      </trkpt>
      <trkpt lat="43.4908" lon="6.23037">
        <ele>138</ele>
        <time>2022-04-15T13:25:24Z</time>
      </trkpt>
      <trkpt lat="43.49081" lon="6.23037">
        <ele>137</ele>
        <time>2022-04-15T13:25:25Z</time>
      </trkpt>
      <trkpt lat="43.49083" lon="6.23037">
        <ele>137</ele>
        <time>2022-04-15T13:25:26Z</time>
      </trkpt>
      <trkpt lat="43.49085" lon="6.23036">
        <ele>137</ele>
        <time>2022-04-15T13:25:27Z</time>
      </trkpt>
      <trkpt lat="43.49087" lon="6.23036">
        <ele>137</ele>
        <time>2022-04-15T13:25:28Z</time>
      </trkpt>
      <trkpt lat="43.49089" lon="6.23036">
        <ele>137</ele>
        <time>2022-04-15T13:25:29Z</time>
      </trkpt>
      <trkpt lat="43.4909" lon="6.23036">
        <ele>137</ele>
        <time>2022-04-15T13:25:30Z</time>
      </trkpt>
      <trkpt lat="43.49091" lon="6.23035">
        <ele>137</ele>
        <time>2022-04-15T13:25:31Z</time>
      </trkpt>
      <trkpt lat="43.49092" lon="6.23035">
        <ele>137</ele>
        <time>2022-04-15T13:25:32Z</time>
      </trkpt>
      <trkpt lat="43.49093" lon="6.23035">
        <ele>137</ele>
        <time>2022-04-15T13:25:33Z</time>
      </trkpt>
      <trkpt lat="43.49095" lon="6.23034">
        <ele>137</ele>
        <time>2022-04-15T13:25:34Z</time>
      </trkpt>
      <trkpt lat="43.49096" lon="6.23034">
        <ele>137</ele>
        <time>2022-04-15T13:25:35Z</time>
      </trkpt>
      <trkpt lat="43.49097" lon="6.23034">
        <ele>136</ele>
        <time>2022-04-15T13:25:36Z</time>
      </trkpt>
      <trkpt lat="43.49097" lon="6.23034">
        <ele>135</ele>
        <time>2022-04-15T13:25:37Z</time>
      </trkpt>
      <trkpt lat="43.49098" lon="6.23034">
        <ele>135</ele>
        <time>2022-04-15T13:25:38Z</time>
      </trkpt>
      <trkpt lat="43.49099" lon="6.23034">
        <ele>135</ele>
        <time>2022-04-15T13:25:39Z</time>
      </trkpt>
      <trkpt lat="43.491" lon="6.23034">
        <ele>135</ele>
        <time>2022-04-15T13:25:40Z</time>
      </trkpt>
      <trkpt lat="43.49102" lon="6.23033">
        <ele>135</ele>
        <time>2022-04-15T13:25:41Z</time>
      </trkpt>
      <trkpt lat="43.49104" lon="6.23033">
        <ele>134</ele>
        <time>2022-04-15T13:25:42Z</time>
      </trkpt>
      <trkpt lat="43.49105" lon="6.23033">
        <ele>134</ele>
        <time>2022-04-15T13:25:43Z</time>
      </trkpt>
      <trkpt lat="43.49106" lon="6.23032">
        <ele>134</ele>
        <time>2022-04-15T13:25:44Z</time>
      </trkpt>
      <trkpt lat="43.49107" lon="6.23032">
        <ele>134</ele>
        <time>2022-04-15T13:25:45Z</time>
      </trkpt>
      <trkpt lat="43.49107" lon="6.23032">
        <ele>134</ele>
        <time>2022-04-15T13:25:46Z</time>
      </trkpt>
      <trkpt lat="43.49108" lon="6.23032">
        <ele>134</ele>
        <time>2022-04-15T13:25:47Z</time>
      </trkpt>
      <trkpt lat="43.49108" lon="6.23032">
        <ele>134</ele>
        <time>2022-04-15T13:25:48Z</time>
      </trkpt>
      <trkpt lat="43.49109" lon="6.23032">
        <ele>134</ele>
        <time>2022-04-15T13:25:49Z</time>
      </trkpt>
      <trkpt lat="43.49109" lon="6.23032">
        <ele>134</ele>
        <time>2022-04-15T13:25:50Z</time>
      </trkpt>
      <trkpt lat="43.4911" lon="6.23031">
        <ele>134</ele>
        <time>2022-04-15T13:25:51Z</time>
      </trkpt>
      <trkpt lat="43.49111" lon="6.23031">
        <ele>134</ele>
        <time>2022-04-15T13:25:52Z</time>
      </trkpt>
      <trkpt lat="43.49112" lon="6.2303">
        <ele>134</ele>
        <time>2022-04-15T13:25:53Z</time>
      </trkpt>
      <trkpt lat="43.49114" lon="6.23029">
        <ele>134</ele>
        <time>2022-04-15T13:25:54Z</time>
      </trkpt>
      <trkpt lat="43.49116" lon="6.23028">
        <ele>134</ele>
        <time>2022-04-15T13:25:55Z</time>
      </trkpt>
      <trkpt lat="43.49117" lon="6.23027">
        <ele>134</ele>
        <time>2022-04-15T13:25:56Z</time>
      </trkpt>
      <trkpt lat="43.49118" lon="6.23026">
        <ele>135</ele>
        <time>2022-04-15T13:25:57Z</time>
      </trkpt>
      <trkpt lat="43.49119" lon="6.23026">
        <ele>135</ele>
        <time>2022-04-15T13:25:58Z</time>
      </trkpt>
      <trkpt lat="43.4912" lon="6.23025">
        <ele>135</ele>
        <time>2022-04-15T13:25:59Z</time>
      </trkpt>
      <trkpt lat="43.49121" lon="6.23025">
        <ele>135</ele>
        <time>2022-04-15T13:26:00Z</time>
      </trkpt>
      <trkpt lat="43.49122" lon="6.23024">
        <ele>135</ele>
        <time>2022-04-15T13:26:01Z</time>
      </trkpt>
      <trkpt lat="43.49123" lon="6.23023">
        <ele>135</ele>
        <time>2022-04-15T13:26:02Z</time>
      </trkpt>
      <trkpt lat="43.49124" lon="6.23023">
        <ele>135</ele>
        <time>2022-04-15T13:26:03Z</time>
      </trkpt>
      <trkpt lat="43.49124" lon="6.23023">
        <ele>135</ele>
        <time>2022-04-15T13:26:04Z</time>
      </trkpt>
      <trkpt lat="43.49125" lon="6.23023">
        <ele>135</ele>
        <time>2022-04-15T13:26:05Z</time>
      </trkpt>
      <trkpt lat="43.49125" lon="6.23022">
        <ele>135</ele>
        <time>2022-04-15T13:26:06Z</time>
      </trkpt>
      <trkpt lat="43.49126" lon="6.23022">
        <ele>135</ele>
        <time>2022-04-15T13:26:07Z</time>
      </trkpt>
      <trkpt lat="43.49126" lon="6.23022">
        <ele>135</ele>
        <time>2022-04-15T13:26:08Z</time>
      </trkpt>
      <trkpt lat="43.49126" lon="6.23022">
        <ele>135</ele>
        <time>2022-04-15T13:26:09Z</time>
      </trkpt>
      <trkpt lat="43.49127" lon="6.23021">
        <ele>135</ele>
        <time>2022-04-15T13:26:10Z</time>
      </trkpt>
      <trkpt lat="43.49127" lon="6.23021">
        <ele>135</ele>
        <time>2022-04-15T13:26:11Z</time>
      </trkpt>
      <trkpt lat="43.49127" lon="6.23021">
        <ele>135</ele>
        <time>2022-04-15T13:26:12Z</time>
      </trkpt>
      <trkpt lat="43.49127" lon="6.23021">
        <ele>135</ele>
        <time>2022-04-15T13:26:13Z</time>
      </trkpt>
      <trkpt lat="43.49128" lon="6.23021">
        <ele>135</ele>
        <time>2022-04-15T13:26:14Z</time>
      </trkpt>
      <trkpt lat="43.49128" lon="6.23021">
        <ele>135</ele>
        <time>2022-04-15T13:26:15Z</time>
      </trkpt>
      <trkpt lat="43.49128" lon="6.23021">
        <ele>135</ele>
        <time>2022-04-15T13:26:16Z</time>
      </trkpt>
      <trkpt lat="43.49128" lon="6.23021">
        <ele>135</ele>
        <time>2022-04-15T13:26:17Z</time>
      </trkpt>
      <trkpt lat="43.49128" lon="6.23021">
        <ele>135</ele>
        <time>2022-04-15T13:26:18Z</time>
      </trkpt>
      <trkpt lat="43.49128" lon="6.23021">
        <ele>135</ele>
        <time>2022-04-15T13:26:19Z</time>
      </trkpt>
      <trkpt lat="43.49128" lon="6.23021">
        <ele>135</ele>
        <time>2022-04-15T13:26:20Z</time>
      </trkpt>
      <trkpt lat="43.49128" lon="6.23021">
        <ele>135</ele>
        <time>2022-04-15T13:26:21Z</time>
      </trkpt>
      <trkpt lat="43.49128" lon="6.23021">
        <ele>135</ele>
        <time>2022-04-15T13:26:22Z</time>
      </trkpt>
      <trkpt lat="43.49128" lon="6.23021">
        <ele>135</ele>
        <time>2022-04-15T13:26:23Z</time>
      </trkpt>
      <trkpt lat="43.49128" lon="6.23021">
        <ele>135</ele>
        <time>2022-04-15T13:26:24Z</time>
      </trkpt>
      <trkpt lat="43.49128" lon="6.23021">
        <ele>135</ele>
        <time>2022-04-15T13:26:25Z</time>
      </trkpt>
      <trkpt lat="43.49128" lon="6.23021">
        <ele>135</ele>
        <time>2022-04-15T13:26:26Z</time>
      </trkpt>
      <trkpt lat="43.49129" lon="6.2302">
        <ele>135</ele>
        <time>2022-04-15T13:26:27Z</time>
      </trkpt>
      <trkpt lat="43.49129" lon="6.2302">
        <ele>135</ele>
        <time>2022-04-15T13:26:28Z</time>
      </trkpt>
      <trkpt lat="43.49129" lon="6.2302">
        <ele>135</ele>
        <time>2022-04-15T13:26:29Z</time>
      </trkpt>
      <trkpt lat="43.49129" lon="6.2302">
        <ele>135</ele>
        <time>2022-04-15T13:26:30Z</time>
      </trkpt>
      <trkpt lat="43.49129" lon="6.2302">
        <ele>135</ele>
        <time>2022-04-15T13:26:31Z</time>
      </trkpt>
      <trkpt lat="43.49129" lon="6.2302">
        <ele>135</ele>
        <time>2022-04-15T13:26:32Z</time>
      </trkpt>
      <trkpt lat="43.49129" lon="6.2302">
        <ele>135</ele>
        <time>2022-04-15T13:26:33Z</time>
      </trkpt>
      <trkpt lat="43.49129" lon="6.2302">
        <ele>135</ele>
        <time>2022-04-15T13:26:34Z</time>
      </trkpt>
      <trkpt lat="43.49129" lon="6.2302">
        <ele>135</ele>
        <time>2022-04-15T13:26:35Z</time>
      </trkpt>
      <trkpt lat="43.49129" lon="6.2302">
        <ele>135</ele>
        <time>2022-04-15T13:26:36Z</time>
      </trkpt>
      <trkpt lat="43.49129" lon="6.2302">
        <ele>135</ele>
        <time>2022-04-15T13:26:37Z</time>
      </trkpt>
      <trkpt lat="43.49129" lon="6.2302">
        <ele>135</ele>
        <time>2022-04-15T13:26:38Z</time>
      </trkpt>
      <trkpt lat="43.49129" lon="6.2302">
        <ele>135</ele>
        <time>2022-04-15T13:26:39Z</time>
      </trkpt>
      <trkpt lat="43.49129" lon="6.2302">
        <ele>135</ele>
        <time>2022-04-15T13:26:40Z</time>
      </trkpt>
      <trkpt lat="43.49129" lon="6.2302">
        <ele>135</ele>
        <time>2022-04-15T13:26:41Z</time>
      </trkpt>
      <trkpt lat="43.49129" lon="6.2302">
        <ele>135</ele>
        <time>2022-04-15T13:26:42Z</time>
      </trkpt>
      <trkpt lat="43.49129" lon="6.2302">
        <ele>135</ele>
        <time>2022-04-15T13:26:43Z</time>
      </trkpt>
      <trkpt lat="43.49129" lon="6.2302">
        <ele>135</ele>
        <time>2022-04-15T13:26:44Z</time>
      </trkpt>
      <trkpt lat="43.49129" lon="6.2302">
        <ele>135</ele>
        <time>2022-04-15T13:26:45Z</time>
      </trkpt>
      <trkpt lat="43.49129" lon="6.2302">
        <ele>135</ele>
        <time>2022-04-15T13:26:46Z</time>
      </trkpt>
      <trkpt lat="43.49129" lon="6.2302">
        <ele>135</ele>
        <time>2022-04-15T13:26:47Z</time>
      </trkpt>
      <trkpt lat="43.49129" lon="6.2302">
        <ele>135</ele>
        <time>2022-04-15T13:26:48Z</time>
      </trkpt>
      <trkpt lat="43.49129" lon="6.2302">
        <ele>135</ele>
        <time>2022-04-15T13:26:49Z</time>
      </trkpt>
      <trkpt lat="43.49129" lon="6.2302">
        <ele>135</ele>
        <time>2022-04-15T13:26:50Z</time>
      </trkpt>
      <trkpt lat="43.49129" lon="6.2302">
        <ele>135</ele>
        <time>2022-04-15T13:26:51Z</time>
      </trkpt>
      <trkpt lat="43.49129" lon="6.2302">
        <ele>135</ele>
        <time>2022-04-15T13:26:52Z</time>
      </trkpt>
      <trkpt lat="43.49129" lon="6.2302">
        <ele>135</ele>
        <time>2022-04-15T13:26:53Z</time>
      </trkpt>
      <trkpt lat="43.49129" lon="6.2302">
        <ele>135</ele>
        <time>2022-04-15T13:26:54Z</time>
      </trkpt>
      <trkpt lat="43.49129" lon="6.2302">
        <ele>135</ele>
        <time>2022-04-15T13:26:55Z</time>
      </trkpt>
      <trkpt lat="43.49129" lon="6.2302">
        <ele>135</ele>
        <time>2022-04-15T13:26:56Z</time>
      </trkpt>
      <trkpt lat="43.49129" lon="6.2302">
        <ele>135</ele>
        <time>2022-04-15T13:26:57Z</time>
      </trkpt>
      <trkpt lat="43.49129" lon="6.2302">
        <ele>135</ele>
        <time>2022-04-15T13:26:58Z</time>
      </trkpt>
      <trkpt lat="43.49129" lon="6.2302">
        <ele>135</ele>
        <time>2022-04-15T13:26:59Z</time>
      </trkpt>
      <trkpt lat="43.49129" lon="6.2302">
        <ele>135</ele>
        <time>2022-04-15T13:27:00Z</time>
      </trkpt>
      <trkpt lat="43.49129" lon="6.2302">
        <ele>135</ele>
        <time>2022-04-15T13:27:01Z</time>
      </trkpt>
      <trkpt lat="43.49129" lon="6.2302">
        <ele>135</ele>
        <time>2022-04-15T13:27:02Z</time>
      </trkpt>
      <trkpt lat="43.49129" lon="6.2302">
        <ele>135</ele>
        <time>2022-04-15T13:27:03Z</time>
      </trkpt>
      <trkpt lat="43.49129" lon="6.2302">
        <ele>135</ele>
        <time>2022-04-15T13:27:04Z</time>
      </trkpt>
      <trkpt lat="43.49129" lon="6.2302">
        <ele>135</ele>
        <time>2022-04-15T13:27:05Z</time>
      </trkpt>
      <trkpt lat="43.49129" lon="6.2302">
        <ele>135</ele>
        <time>2022-04-15T13:27:06Z</time>
      </trkpt>
      <trkpt lat="43.49129" lon="6.2302">
        <ele>135</ele>
        <time>2022-04-15T13:27:07Z</time>
      </trkpt>
      <trkpt lat="43.49129" lon="6.2302">
        <ele>135</ele>
        <time>2022-04-15T13:27:08Z</time>
      </trkpt>
      <trkpt lat="43.49129" lon="6.2302">
        <ele>135</ele>
        <time>2022-04-15T13:27:09Z</time>
      </trkpt>
      <trkpt lat="43.49129" lon="6.2302">
        <ele>135</ele>
        <time>2022-04-15T13:27:10Z</time>
      </trkpt>
      <trkpt lat="43.49129" lon="6.2302">
        <ele>135</ele>
        <time>2022-04-15T13:27:11Z</time>
      </trkpt>
      <trkpt lat="43.49129" lon="6.2302">
        <ele>135</ele>
        <time>2022-04-15T13:27:12Z</time>
      </trkpt>
      <trkpt lat="43.49129" lon="6.2302">
        <ele>135</ele>
        <time>2022-04-15T13:27:13Z</time>
      </trkpt>
      <trkpt lat="43.49129" lon="6.2302">
        <ele>135</ele>
        <time>2022-04-15T13:27:14Z</time>
      </trkpt>
      <trkpt lat="43.49129" lon="6.2302">
        <ele>135</ele>
        <time>2022-04-15T13:27:15Z</time>
      </trkpt>
      <trkpt lat="43.49129" lon="6.2302">
        <ele>135</ele>
        <time>2022-04-15T13:27:16Z</time>
      </trkpt>
      <trkpt lat="43.49129" lon="6.2302">
        <ele>135</ele>
        <time>2022-04-15T13:27:17Z</time>
      </trkpt>
      <trkpt lat="43.49129" lon="6.2302">
        <ele>135</ele>
        <time>2022-04-15T13:27:18Z</time>
      </trkpt>
      <trkpt lat="43.49129" lon="6.2302">
        <ele>135</ele>
        <time>2022-04-15T13:27:19Z</time>
      </trkpt>
      <trkpt lat="43.49129" lon="6.2302">
        <ele>135</ele>
        <time>2022-04-15T13:27:20Z</time>
      </trkpt>
      <trkpt lat="43.49129" lon="6.2302">
        <ele>135</ele>
        <time>2022-04-15T13:27:21Z</time>
      </trkpt>
      <trkpt lat="43.49129" lon="6.2302">
        <ele>135</ele>
        <time>2022-04-15T13:27:22Z</time>
      </trkpt>
      <trkpt lat="43.49129" lon="6.2302">
        <ele>135</ele>
        <time>2022-04-15T13:27:23Z</time>
      </trkpt>
      <trkpt lat="43.49129" lon="6.2302">
        <ele>135</ele>
        <time>2022-04-15T13:27:24Z</time>
      </trkpt>
      <trkpt lat="43.49129" lon="6.2302">
        <ele>135</ele>
        <time>2022-04-15T13:27:25Z</time>
      </trkpt>
      <trkpt lat="43.49129" lon="6.2302">
        <ele>135</ele>
        <time>2022-04-15T13:27:26Z</time>
      </trkpt>
      <trkpt lat="43.49129" lon="6.2302">
        <ele>135</ele>
        <time>2022-04-15T13:27:27Z</time>
      </trkpt>
      <trkpt lat="43.49129" lon="6.2302">
        <ele>135</ele>
        <time>2022-04-15T13:27:28Z</time>
      </trkpt>
      <trkpt lat="43.49129" lon="6.2302">
        <ele>135</ele>
        <time>2022-04-15T13:27:29Z</time>
      </trkpt>
      <trkpt lat="43.49129" lon="6.2302">
        <ele>135</ele>
        <time>2022-04-15T13:27:30Z</time>
      </trkpt>
      <trkpt lat="43.49129" lon="6.2302">
        <ele>135</ele>
        <time>2022-04-15T13:27:31Z</time>
      </trkpt>
      <trkpt lat="43.4913" lon="6.23019">
        <ele>135</ele>
        <time>2022-04-15T13:27:32Z</time>
      </trkpt>
      <trkpt lat="43.49131" lon="6.23019">
        <ele>135</ele>
        <time>2022-04-15T13:27:33Z</time>
      </trkpt>
      <trkpt lat="43.49131" lon="6.23019">
        <ele>135</ele>
        <time>2022-04-15T13:27:34Z</time>
      </trkpt>
      <trkpt lat="43.49132" lon="6.23019">
        <ele>135</ele>
        <time>2022-04-15T13:27:35Z</time>
      </trkpt>
      <trkpt lat="43.49133" lon="6.23019">
        <ele>135</ele>
        <time>2022-04-15T13:27:36Z</time>
      </trkpt>
      <trkpt lat="43.49134" lon="6.23019">
        <ele>135</ele>
        <time>2022-04-15T13:27:37Z</time>
      </trkpt>
      <trkpt lat="43.49134" lon="6.23019">
        <ele>135</ele>
        <time>2022-04-15T13:27:38Z</time>
      </trkpt>
      <trkpt lat="43.49135" lon="6.23019">
        <ele>135</ele>
        <time>2022-04-15T13:27:39Z</time>
      </trkpt>
      <trkpt lat="43.49136" lon="6.23019">
        <ele>135</ele>
        <time>2022-04-15T13:27:40Z</time>
      </trkpt>
      <trkpt lat="43.49136" lon="6.23019">
        <ele>135</ele>
        <time>2022-04-15T13:27:41Z</time>
      </trkpt>
      <trkpt lat="43.49136" lon="6.23018">
        <ele>135</ele>
        <time>2022-04-15T13:27:42Z</time>
      </trkpt>
      <trkpt lat="43.49136" lon="6.23018">
        <ele>135</ele>
        <time>2022-04-15T13:27:43Z</time>
      </trkpt>
      <trkpt lat="43.49137" lon="6.23018">
        <ele>135</ele>
        <time>2022-04-15T13:27:44Z</time>
      </trkpt>
      <trkpt lat="43.49137" lon="6.23018">
        <ele>135</ele>
        <time>2022-04-15T13:27:45Z</time>
      </trkpt>
      <trkpt lat="43.49137" lon="6.23017">
        <ele>135</ele>
        <time>2022-04-15T13:27:46Z</time>
      </trkpt>
      <trkpt lat="43.49137" lon="6.23017">
        <ele>135</ele>
        <time>2022-04-15T13:27:47Z</time>
      </trkpt>
      <trkpt lat="43.49138" lon="6.23016">
        <ele>135</ele>
        <time>2022-04-15T13:27:48Z</time>
      </trkpt>
      <trkpt lat="43.49138" lon="6.23016">
        <ele>135</ele>
        <time>2022-04-15T13:27:49Z</time>
      </trkpt>
      <trkpt lat="43.49138" lon="6.23015">
        <ele>135</ele>
        <time>2022-04-15T13:27:50Z</time>
      </trkpt>
      <trkpt lat="43.49139" lon="6.23014">
        <ele>135</ele>
        <time>2022-04-15T13:27:51Z</time>
      </trkpt>
      <trkpt lat="43.4914" lon="6.23013">
        <ele>135</ele>
        <time>2022-04-15T13:27:52Z</time>
      </trkpt>
      <trkpt lat="43.4914" lon="6.23013">
        <ele>135</ele>
        <time>2022-04-15T13:27:53Z</time>
      </trkpt>
      <trkpt lat="43.4914" lon="6.23012">
        <ele>135</ele>
        <time>2022-04-15T13:27:54Z</time>
      </trkpt>
      <trkpt lat="43.4914" lon="6.23012">
        <ele>135</ele>
        <time>2022-04-15T13:27:55Z</time>
      </trkpt>
      <trkpt lat="43.4914" lon="6.23012">
        <ele>135</ele>
        <time>2022-04-15T13:27:56Z</time>
      </trkpt>
      <trkpt lat="43.4914" lon="6.23012">
        <ele>135</ele>
        <time>2022-04-15T13:27:57Z</time>
      </trkpt>
      <trkpt lat="43.4914" lon="6.23012">
        <ele>135</ele>
        <time>2022-04-15T13:27:58Z</time>
      </trkpt>
      <trkpt lat="43.4914" lon="6.23012">
        <ele>135</ele>
        <time>2022-04-15T13:27:59Z</time>
      </trkpt>
      <trkpt lat="43.49141" lon="6.23011">
        <ele>135</ele>
        <time>2022-04-15T13:28:00Z</time>
      </trkpt>
      <trkpt lat="43.49142" lon="6.23011">
        <ele>135</ele>
        <time>2022-04-15T13:28:01Z</time>
      </trkpt>
      <trkpt lat="43.49142" lon="6.23011">
        <ele>135</ele>
        <time>2022-04-15T13:28:02Z</time>
      </trkpt>
      <trkpt lat="43.49142" lon="6.23011">
        <ele>135</ele>
        <time>2022-04-15T13:28:03Z</time>
      </trkpt>
      <trkpt lat="43.49143" lon="6.23011">
        <ele>135</ele>
        <time>2022-04-15T13:28:04Z</time>
      </trkpt>
      <trkpt lat="43.49143" lon="6.2301">
        <ele>135</ele>
        <time>2022-04-15T13:28:05Z</time>
      </trkpt>
      <trkpt lat="43.49143" lon="6.2301">
        <ele>135</ele>
        <time>2022-04-15T13:28:06Z</time>
      </trkpt>
      <trkpt lat="43.49143" lon="6.2301">
        <ele>135</ele>
        <time>2022-04-15T13:28:07Z</time>
      </trkpt>
      <trkpt lat="43.49144" lon="6.23009">
        <ele>135</ele>
        <time>2022-04-15T13:28:08Z</time>
      </trkpt>
      <trkpt lat="43.49144" lon="6.23008">
        <ele>135</ele>
        <time>2022-04-15T13:28:09Z</time>
      </trkpt>
      <trkpt lat="43.49145" lon="6.23007">
        <ele>135</ele>
        <time>2022-04-15T13:28:10Z</time>
      </trkpt>
      <trkpt lat="43.49146" lon="6.23007">
        <ele>135</ele>
        <time>2022-04-15T13:28:11Z</time>
      </trkpt>
      <trkpt lat="43.49146" lon="6.23006">
        <ele>135</ele>
        <time>2022-04-15T13:28:12Z</time>
      </trkpt>
      <trkpt lat="43.49147" lon="6.23005">
        <ele>135</ele>
        <time>2022-04-15T13:28:13Z</time>
      </trkpt>
      <trkpt lat="43.49148" lon="6.23004">
        <ele>135</ele>
        <time>2022-04-15T13:28:14Z</time>
      </trkpt>
      <trkpt lat="43.49149" lon="6.23004">
        <ele>135</ele>
        <time>2022-04-15T13:28:15Z</time>
      </trkpt>
      <trkpt lat="43.49149" lon="6.23003">
        <ele>135</ele>
        <time>2022-04-15T13:28:16Z</time>
      </trkpt>
      <trkpt lat="43.49149" lon="6.23003">
        <ele>135</ele>
        <time>2022-04-15T13:28:17Z</time>
      </trkpt>
      <trkpt lat="43.4915" lon="6.23003">
        <ele>135</ele>
        <time>2022-04-15T13:28:18Z</time>
      </trkpt>
      <trkpt lat="43.4915" lon="6.23002">
        <ele>135</ele>
        <time>2022-04-15T13:28:19Z</time>
      </trkpt>
      <trkpt lat="43.49151" lon="6.23002">
        <ele>135</ele>
        <time>2022-04-15T13:28:20Z</time>
      </trkpt>
      <trkpt lat="43.49151" lon="6.23002">
        <ele>135</ele>
        <time>2022-04-15T13:28:21Z</time>
      </trkpt>
      <trkpt lat="43.49151" lon="6.23001">
        <ele>135</ele>
        <time>2022-04-15T13:28:22Z</time>
      </trkpt>
      <trkpt lat="43.49152" lon="6.23001">
        <ele>135</ele>
        <time>2022-04-15T13:28:23Z</time>
      </trkpt>
      <trkpt lat="43.49152" lon="6.23">
        <ele>135</ele>
        <time>2022-04-15T13:28:24Z</time>
      </trkpt>
      <trkpt lat="43.49153" lon="6.23">
        <ele>135</ele>
        <time>2022-04-15T13:28:25Z</time>
      </trkpt>
      <trkpt lat="43.49153" lon="6.22999">
        <ele>135</ele>
        <time>2022-04-15T13:28:26Z</time>
      </trkpt>
      <trkpt lat="43.49154" lon="6.22997">
        <ele>135</ele>
        <time>2022-04-15T13:28:27Z</time>
      </trkpt>
      <trkpt lat="43.49155" lon="6.22996">
        <ele>135</ele>
        <time>2022-04-15T13:28:28Z</time>
      </trkpt>
      <trkpt lat="43.49156" lon="6.22995">
        <ele>135</ele>
        <time>2022-04-15T13:28:29Z</time>
      </trkpt>
      <trkpt lat="43.49157" lon="6.22994">
        <ele>135</ele>
        <time>2022-04-15T13:28:30Z</time>
      </trkpt>
      <trkpt lat="43.49157" lon="6.22993">
        <ele>135</ele>
        <time>2022-04-15T13:28:31Z</time>
      </trkpt>
      <trkpt lat="43.49158" lon="6.22993">
        <ele>135</ele>
        <time>2022-04-15T13:28:32Z</time>
      </trkpt>
      <trkpt lat="43.49158" lon="6.22993">
        <ele>135</ele>
        <time>2022-04-15T13:28:33Z</time>
      </trkpt>
      <trkpt lat="43.49158" lon="6.22992">
        <ele>135</ele>
        <time>2022-04-15T13:28:34Z</time>
      </trkpt>
      <trkpt lat="43.49159" lon="6.22992">
        <ele>135</ele>
        <time>2022-04-15T13:28:35Z</time>
      </trkpt>
      <trkpt lat="43.49159" lon="6.22992">
        <ele>135</ele>
        <time>2022-04-15T13:28:36Z</time>
      </trkpt>
      <trkpt lat="43.49159" lon="6.22991">
        <ele>135</ele>
        <time>2022-04-15T13:28:37Z</time>
      </trkpt>
      <trkpt lat="43.49159" lon="6.22991">
        <ele>135</ele>
        <time>2022-04-15T13:28:38Z</time>
      </trkpt>
      <trkpt lat="43.4916" lon="6.22991">
        <ele>135</ele>
        <time>2022-04-15T13:28:39Z</time>
      </trkpt>
      <trkpt lat="43.4916" lon="6.2299">
        <ele>135</ele>
        <time>2022-04-15T13:28:40Z</time>
      </trkpt>
      <trkpt lat="43.4916" lon="6.2299">
        <ele>135</ele>
        <time>2022-04-15T13:28:41Z</time>
      </trkpt>
      <trkpt lat="43.4916" lon="6.2299">
        <ele>135</ele>
        <time>2022-04-15T13:28:42Z</time>
      </trkpt>
      <trkpt lat="43.49161" lon="6.2299">
        <ele>135</ele>
        <time>2022-04-15T13:28:43Z</time>
      </trkpt>
      <trkpt lat="43.49161" lon="6.2299">
        <ele>135</ele>
        <time>2022-04-15T13:28:44Z</time>
      </trkpt>
      <trkpt lat="43.49161" lon="6.2299">
        <ele>135</ele>
        <time>2022-04-15T13:28:45Z</time>
      </trkpt>
      <trkpt lat="43.49161" lon="6.2299">
        <ele>135</ele>
        <time>2022-04-15T13:28:46Z</time>
      </trkpt>
      <trkpt lat="43.49161" lon="6.22989">
        <ele>135</ele>
        <time>2022-04-15T13:28:47Z</time>
      </trkpt>
      <trkpt lat="43.49162" lon="6.22989">
        <ele>135</ele>
        <time>2022-04-15T13:28:48Z</time>
      </trkpt>
      <trkpt lat="43.49162" lon="6.22989">
        <ele>135</ele>
        <time>2022-04-15T13:28:49Z</time>
      </trkpt>
      <trkpt lat="43.49163" lon="6.22988">
        <ele>135</ele>
        <time>2022-04-15T13:28:50Z</time>
      </trkpt>
      <trkpt lat="43.49165" lon="6.22986">
        <ele>135</ele>
        <time>2022-04-15T13:28:51Z</time>
      </trkpt>
      <trkpt lat="43.49167" lon="6.22984">
        <ele>135</ele>
        <time>2022-04-15T13:28:52Z</time>
      </trkpt>
      <trkpt lat="43.49169" lon="6.22983">
        <ele>135</ele>
        <time>2022-04-15T13:28:53Z</time>
      </trkpt>
      <trkpt lat="43.4917" lon="6.22982">
        <ele>135</ele>
        <time>2022-04-15T13:28:54Z</time>
      </trkpt>
      <trkpt lat="43.49171" lon="6.22981">
        <ele>135</ele>
        <time>2022-04-15T13:28:55Z</time>
      </trkpt>
      <trkpt lat="43.49172" lon="6.2298">
        <ele>135</ele>
        <time>2022-04-15T13:28:56Z</time>
      </trkpt>
      <trkpt lat="43.49173" lon="6.22978">
        <ele>135</ele>
        <time>2022-04-15T13:28:57Z</time>
      </trkpt>
      <trkpt lat="43.49174" lon="6.22977">
        <ele>135</ele>
        <time>2022-04-15T13:28:58Z</time>
      </trkpt>
      <trkpt lat="43.49175" lon="6.22976">
        <ele>135</ele>
        <time>2022-04-15T13:28:59Z</time>
      </trkpt>
      <trkpt lat="43.49176" lon="6.22975">
        <ele>134</ele>
        <time>2022-04-15T13:29:00Z</time>
      </trkpt>
      <trkpt lat="43.49176" lon="6.22974">
        <ele>134</ele>
        <time>2022-04-15T13:29:01Z</time>
      </trkpt>
      <trkpt lat="43.49177" lon="6.22974">
        <ele>134</ele>
        <time>2022-04-15T13:29:02Z</time>
      </trkpt>
      <trkpt lat="43.49177" lon="6.22973">
        <ele>133</ele>
        <time>2022-04-15T13:29:03Z</time>
      </trkpt>
      <trkpt lat="43.49178" lon="6.22972">
        <ele>133</ele>
        <time>2022-04-15T13:29:04Z</time>
      </trkpt>
      <trkpt lat="43.49179" lon="6.22971">
        <ele>133</ele>
        <time>2022-04-15T13:29:05Z</time>
      </trkpt>
      <trkpt lat="43.4918" lon="6.2297">
        <ele>133</ele>
        <time>2022-04-15T13:29:06Z</time>
      </trkpt>
      <trkpt lat="43.4918" lon="6.22968">
        <ele>133</ele>
        <time>2022-04-15T13:29:07Z</time>
      </trkpt>
      <trkpt lat="43.49181" lon="6.22967">
        <ele>133</ele>
        <time>2022-04-15T13:29:08Z</time>
      </trkpt>
      <trkpt lat="43.49182" lon="6.22966">
        <ele>133</ele>
        <time>2022-04-15T13:29:09Z</time>
      </trkpt>
      <trkpt lat="43.49183" lon="6.22965">
        <ele>134</ele>
        <time>2022-04-15T13:29:10Z</time>
      </trkpt>
      <trkpt lat="43.49183" lon="6.22964">
        <ele>134</ele>
        <time>2022-04-15T13:29:11Z</time>
      </trkpt>
      <trkpt lat="43.49184" lon="6.22963">
        <ele>134</ele>
        <time>2022-04-15T13:29:12Z</time>
      </trkpt>
      <trkpt lat="43.49185" lon="6.22962">
        <ele>134</ele>
        <time>2022-04-15T13:29:13Z</time>
      </trkpt>
      <trkpt lat="43.49185" lon="6.22961">
        <ele>133</ele>
        <time>2022-04-15T13:29:14Z</time>
      </trkpt>
      <trkpt lat="43.49186" lon="6.2296">
        <ele>133</ele>
        <time>2022-04-15T13:29:15Z</time>
      </trkpt>
      <trkpt lat="43.49186" lon="6.2296">
        <ele>133</ele>
        <time>2022-04-15T13:29:16Z</time>
      </trkpt>
      <trkpt lat="43.49186" lon="6.22959">
        <ele>133</ele>
        <time>2022-04-15T13:29:17Z</time>
      </trkpt>
      <trkpt lat="43.49187" lon="6.22958">
        <ele>133</ele>
        <time>2022-04-15T13:29:18Z</time>
      </trkpt>
      <trkpt lat="43.49187" lon="6.22957">
        <ele>133</ele>
        <time>2022-04-15T13:29:19Z</time>
      </trkpt>
      <trkpt lat="43.49188" lon="6.22956">
        <ele>133</ele>
        <time>2022-04-15T13:29:20Z</time>
      </trkpt>
      <trkpt lat="43.49189" lon="6.22955">
        <ele>133</ele>
        <time>2022-04-15T13:29:21Z</time>
      </trkpt>
      <trkpt lat="43.49189" lon="6.22954">
        <ele>133</ele>
        <time>2022-04-15T13:29:22Z</time>
      </trkpt>
      <trkpt lat="43.4919" lon="6.22953">
        <ele>133</ele>
        <time>2022-04-15T13:29:23Z</time>
      </trkpt>
      <trkpt lat="43.49191" lon="6.22952">
        <ele>133</ele>
        <time>2022-04-15T13:29:24Z</time>
      </trkpt>
      <trkpt lat="43.49191" lon="6.22951">
        <ele>133</ele>
        <time>2022-04-15T13:29:25Z</time>
      </trkpt>
      <trkpt lat="43.49192" lon="6.22949">
        <ele>133</ele>
        <time>2022-04-15T13:29:26Z</time>
      </trkpt>
      <trkpt lat="43.49192" lon="6.22948">
        <ele>133</ele>
        <time>2022-04-15T13:29:27Z</time>
      </trkpt>
      <trkpt lat="43.49193" lon="6.22947">
        <ele>133</ele>
        <time>2022-04-15T13:29:28Z</time>
      </trkpt>
      <trkpt lat="43.49194" lon="6.22946">
        <ele>134</ele>
        <time>2022-04-15T13:29:29Z</time>
      </trkpt>
      <trkpt lat="43.49194" lon="6.22945">
        <ele>134</ele>
        <time>2022-04-15T13:29:30Z</time>
      </trkpt>
      <trkpt lat="43.49195" lon="6.22943">
        <ele>133</ele>
        <time>2022-04-15T13:29:31Z</time>
      </trkpt>
      <trkpt lat="43.49196" lon="6.22942">
        <ele>133</ele>
        <time>2022-04-15T13:29:32Z</time>
      </trkpt>
      <trkpt lat="43.49196" lon="6.22942">
        <ele>133</ele>
        <time>2022-04-15T13:29:33Z</time>
      </trkpt>
      <trkpt lat="43.49196" lon="6.22941">
        <ele>132</ele>
        <time>2022-04-15T13:29:34Z</time>
      </trkpt>
      <trkpt lat="43.49197" lon="6.2294">
        <ele>132</ele>
        <time>2022-04-15T13:29:35Z</time>
      </trkpt>
      <trkpt lat="43.49197" lon="6.22939">
        <ele>132</ele>
        <time>2022-04-15T13:29:36Z</time>
      </trkpt>
      <trkpt lat="43.49198" lon="6.22937">
        <ele>132</ele>
        <time>2022-04-15T13:29:37Z</time>
      </trkpt>
      <trkpt lat="43.49198" lon="6.22936">
        <ele>132</ele>
        <time>2022-04-15T13:29:38Z</time>
      </trkpt>
      <trkpt lat="43.49199" lon="6.22934">
        <ele>132</ele>
        <time>2022-04-15T13:29:39Z</time>
      </trkpt>
      <trkpt lat="43.49199" lon="6.22933">
        <ele>132</ele>
        <time>2022-04-15T13:29:40Z</time>
      </trkpt>
      <trkpt lat="43.492" lon="6.22931">
        <ele>131</ele>
        <time>2022-04-15T13:29:41Z</time>
      </trkpt>
      <trkpt lat="43.492" lon="6.2293">
        <ele>131</ele>
        <time>2022-04-15T13:29:42Z</time>
      </trkpt>
      <trkpt lat="43.492" lon="6.22928">
        <ele>131</ele>
        <time>2022-04-15T13:29:43Z</time>
      </trkpt>
      <trkpt lat="43.49201" lon="6.22926">
        <ele>131</ele>
        <time>2022-04-15T13:29:44Z</time>
      </trkpt>
      <trkpt lat="43.49201" lon="6.22925">
        <ele>131</ele>
        <time>2022-04-15T13:29:45Z</time>
      </trkpt>
      <trkpt lat="43.49202" lon="6.22923">
        <ele>131</ele>
        <time>2022-04-15T13:29:46Z</time>
      </trkpt>
      <trkpt lat="43.49202" lon="6.22922">
        <ele>131</ele>
        <time>2022-04-15T13:29:47Z</time>
      </trkpt>
      <trkpt lat="43.49202" lon="6.2292">
        <ele>131</ele>
        <time>2022-04-15T13:29:48Z</time>
      </trkpt>
      <trkpt lat="43.49203" lon="6.22918">
        <ele>131</ele>
        <time>2022-04-15T13:29:49Z</time>
      </trkpt>
      <trkpt lat="43.49203" lon="6.22917">
        <ele>131</ele>
        <time>2022-04-15T13:29:50Z</time>
      </trkpt>
      <trkpt lat="43.49203" lon="6.22915">
        <ele>131</ele>
        <time>2022-04-15T13:29:51Z</time>
      </trkpt>
      <trkpt lat="43.49203" lon="6.22913">
        <ele>131</ele>
        <time>2022-04-15T13:29:52Z</time>
      </trkpt>
      <trkpt lat="43.49203" lon="6.22912">
        <ele>131</ele>
        <time>2022-04-15T13:29:53Z</time>
      </trkpt>
      <trkpt lat="43.49203" lon="6.2291">
        <ele>131</ele>
        <time>2022-04-15T13:29:54Z</time>
      </trkpt>
      <trkpt lat="43.49203" lon="6.22909">
        <ele>131</ele>
        <time>2022-04-15T13:29:55Z</time>
      </trkpt>
      <trkpt lat="43.49203" lon="6.22907">
        <ele>131</ele>
        <time>2022-04-15T13:29:56Z</time>
      </trkpt>
      <trkpt lat="43.49203" lon="6.22906">
        <ele>131</ele>
        <time>2022-04-15T13:29:57Z</time>
      </trkpt>
      <trkpt lat="43.49203" lon="6.22904">
        <ele>131</ele>
        <time>2022-04-15T13:29:58Z</time>
      </trkpt>
      <trkpt lat="43.49203" lon="6.22902">
        <ele>131</ele>
        <time>2022-04-15T13:29:59Z</time>
      </trkpt>
      <trkpt lat="43.49203" lon="6.22901">
        <ele>131</ele>
        <time>2022-04-15T13:30:00Z</time>
      </trkpt>
      <trkpt lat="43.49203" lon="6.22899">
        <ele>131</ele>
        <time>2022-04-15T13:30:01Z</time>
      </trkpt>
      <trkpt lat="43.49203" lon="6.22898">
        <ele>131</ele>
        <time>2022-04-15T13:30:02Z</time>
      </trkpt>
      <trkpt lat="43.49203" lon="6.22896">
        <ele>131</ele>
        <time>2022-04-15T13:30:03Z</time>
      </trkpt>
      <trkpt lat="43.49204" lon="6.22894">
        <ele>131</ele>
        <time>2022-04-15T13:30:04Z</time>
      </trkpt>
      <trkpt lat="43.49204" lon="6.22893">
        <ele>131</ele>
        <time>2022-04-15T13:30:05Z</time>
      </trkpt>
      <trkpt lat="43.49204" lon="6.22891">
        <ele>131</ele>
        <time>2022-04-15T13:30:06Z</time>
      </trkpt>
      <trkpt lat="43.49205" lon="6.2289">
        <ele>130</ele>
        <time>2022-04-15T13:30:07Z</time>
      </trkpt>
      <trkpt lat="43.49205" lon="6.22889">
        <ele>130</ele>
        <time>2022-04-15T13:30:08Z</time>
      </trkpt>
      <trkpt lat="43.49206" lon="6.22888">
        <ele>130</ele>
        <time>2022-04-15T13:30:09Z</time>
      </trkpt>
      <trkpt lat="43.49206" lon="6.22887">
        <ele>130</ele>
        <time>2022-04-15T13:30:10Z</time>
      </trkpt>
      <trkpt lat="43.49207" lon="6.22886">
        <ele>130</ele>
        <time>2022-04-15T13:30:11Z</time>
      </trkpt>
      <trkpt lat="43.49208" lon="6.22884">
        <ele>130</ele>
        <time>2022-04-15T13:30:12Z</time>
      </trkpt>
      <trkpt lat="43.49209" lon="6.22883">
        <ele>129</ele>
        <time>2022-04-15T13:30:13Z</time>
      </trkpt>
      <trkpt lat="43.49211" lon="6.22882">
        <ele>129</ele>
        <time>2022-04-15T13:30:14Z</time>
      </trkpt>
      <trkpt lat="43.49212" lon="6.22881">
        <ele>129</ele>
        <time>2022-04-15T13:30:15Z</time>
      </trkpt>
      <trkpt lat="43.49212" lon="6.2288">
        <ele>129</ele>
        <time>2022-04-15T13:30:16Z</time>
      </trkpt>
      <trkpt lat="43.49213" lon="6.22879">
        <ele>129</ele>
        <time>2022-04-15T13:30:17Z</time>
      </trkpt>
      <trkpt lat="43.49215" lon="6.22877">
        <ele>129</ele>
        <time>2022-04-15T13:30:18Z</time>
      </trkpt>
      <trkpt lat="43.49216" lon="6.22875">
        <ele>129</ele>
        <time>2022-04-15T13:30:19Z</time>
      </trkpt>
      <trkpt lat="43.49218" lon="6.22873">
        <ele>130</ele>
        <time>2022-04-15T13:30:20Z</time>
      </trkpt>
      <trkpt lat="43.49219" lon="6.22872">
        <ele>130</ele>
        <time>2022-04-15T13:30:21Z</time>
      </trkpt>
      <trkpt lat="43.4922" lon="6.2287">
        <ele>130</ele>
        <time>2022-04-15T13:30:22Z</time>
      </trkpt>
      <trkpt lat="43.4922" lon="6.22869">
        <ele>130</ele>
        <time>2022-04-15T13:30:23Z</time>
      </trkpt>
      <trkpt lat="43.49221" lon="6.22868">
        <ele>130</ele>
        <time>2022-04-15T13:30:24Z</time>
      </trkpt>
      <trkpt lat="43.49222" lon="6.22867">
        <ele>130</ele>
        <time>2022-04-15T13:30:25Z</time>
      </trkpt>
      <trkpt lat="43.49222" lon="6.22866">
        <ele>130</ele>
        <time>2022-04-15T13:30:26Z</time>
      </trkpt>
      <trkpt lat="43.49223" lon="6.22864">
        <ele>130</ele>
        <time>2022-04-15T13:30:27Z</time>
      </trkpt>
      <trkpt lat="43.49224" lon="6.22863">
        <ele>130</ele>
        <time>2022-04-15T13:30:28Z</time>
      </trkpt>
      <trkpt lat="43.49225" lon="6.22862">
        <ele>130</ele>
        <time>2022-04-15T13:30:29Z</time>
      </trkpt>
      <trkpt lat="43.49225" lon="6.2286">
        <ele>130</ele>
        <time>2022-04-15T13:30:30Z</time>
      </trkpt>
      <trkpt lat="43.49225" lon="6.22859">
        <ele>131</ele>
        <time>2022-04-15T13:30:31Z</time>
      </trkpt>
      <trkpt lat="43.49224" lon="6.22859">
        <ele>131</ele>
        <time>2022-04-15T13:30:32Z</time>
      </trkpt>
      <trkpt lat="43.49223" lon="6.22859">
        <ele>131</ele>
        <time>2022-04-15T13:30:33Z</time>
      </trkpt>
      <trkpt lat="43.49222" lon="6.22858">
        <ele>131</ele>
        <time>2022-04-15T13:30:34Z</time>
      </trkpt>
      <trkpt lat="43.49221" lon="6.22857">
        <ele>131</ele>
        <time>2022-04-15T13:30:35Z</time>
      </trkpt>
      <trkpt lat="43.49221" lon="6.22857">
        <ele>131</ele>
        <time>2022-04-15T13:30:36Z</time>
      </trkpt>
      <trkpt lat="43.49221" lon="6.22855">
        <ele>131</ele>
        <time>2022-04-15T13:30:37Z</time>
      </trkpt>
      <trkpt lat="43.49221" lon="6.22854">
        <ele>131</ele>
        <time>2022-04-15T13:30:38Z</time>
      </trkpt>
      <trkpt lat="43.49221" lon="6.22853">
        <ele>131</ele>
        <time>2022-04-15T13:30:39Z</time>
      </trkpt>
      <trkpt lat="43.49221" lon="6.22853">
        <ele>132</ele>
        <time>2022-04-15T13:30:40Z</time>
      </trkpt>
      <trkpt lat="43.49221" lon="6.22851">
        <ele>131</ele>
        <time>2022-04-15T13:30:41Z</time>
      </trkpt>
      <trkpt lat="43.49221" lon="6.2285">
        <ele>131</ele>
        <time>2022-04-15T13:30:42Z</time>
      </trkpt>
      <trkpt lat="43.49222" lon="6.22849">
        <ele>132</ele>
        <time>2022-04-15T13:30:43Z</time>
      </trkpt>
      <trkpt lat="43.49222" lon="6.22848">
        <ele>132</ele>
        <time>2022-04-15T13:30:44Z</time>
      </trkpt>
      <trkpt lat="43.49223" lon="6.22847">
        <ele>132</ele>
        <time>2022-04-15T13:30:45Z</time>
      </trkpt>
      <trkpt lat="43.49223" lon="6.22847">
        <ele>132</ele>
        <time>2022-04-15T13:30:46Z</time>
      </trkpt>
      <trkpt lat="43.49224" lon="6.22846">
        <ele>132</ele>
        <time>2022-04-15T13:30:47Z</time>
      </trkpt>
      <trkpt lat="43.49224" lon="6.22846">
        <ele>132</ele>
        <time>2022-04-15T13:30:48Z</time>
      </trkpt>
      <trkpt lat="43.49224" lon="6.22845">
        <ele>132</ele>
        <time>2022-04-15T13:30:49Z</time>
      </trkpt>
      <trkpt lat="43.49224" lon="6.22844">
        <ele>132</ele>
        <time>2022-04-15T13:30:50Z</time>
      </trkpt>
      <trkpt lat="43.49224" lon="6.22843">
        <ele>132</ele>
        <time>2022-04-15T13:30:51Z</time>
      </trkpt>
      <trkpt lat="43.49225" lon="6.22842">
        <ele>132</ele>
        <time>2022-04-15T13:30:52Z</time>
      </trkpt>
      <trkpt lat="43.49225" lon="6.22841">
        <ele>132</ele>
        <time>2022-04-15T13:30:53Z</time>
      </trkpt>
      <trkpt lat="43.49224" lon="6.22839">
        <ele>132</ele>
        <time>2022-04-15T13:30:54Z</time>
      </trkpt>
      <trkpt lat="43.49224" lon="6.22838">
        <ele>132</ele>
        <time>2022-04-15T13:30:55Z</time>
      </trkpt>
      <trkpt lat="43.49224" lon="6.22837">
        <ele>132</ele>
        <time>2022-04-15T13:30:56Z</time>
      </trkpt>
      <trkpt lat="43.49224" lon="6.22836">
        <ele>132</ele>
        <time>2022-04-15T13:30:57Z</time>
      </trkpt>
      <trkpt lat="43.49224" lon="6.22836">
        <ele>132</ele>
        <time>2022-04-15T13:30:58Z</time>
      </trkpt>
      <trkpt lat="43.49224" lon="6.22835">
        <ele>132</ele>
        <time>2022-04-15T13:30:59Z</time>
      </trkpt>
      <trkpt lat="43.49223" lon="6.22834">
        <ele>132</ele>
        <time>2022-04-15T13:31:00Z</time>
      </trkpt>
      <trkpt lat="43.49223" lon="6.22833">
        <ele>132</ele>
        <time>2022-04-15T13:31:01Z</time>
      </trkpt>
      <trkpt lat="43.49222" lon="6.22831">
        <ele>132</ele>
        <time>2022-04-15T13:31:02Z</time>
      </trkpt>
      <trkpt lat="43.49221" lon="6.2283">
        <ele>132</ele>
        <time>2022-04-15T13:31:03Z</time>
      </trkpt>
      <trkpt lat="43.4922" lon="6.22828">
        <ele>132</ele>
        <time>2022-04-15T13:31:04Z</time>
      </trkpt>
      <trkpt lat="43.4922" lon="6.22827">
        <ele>132</ele>
        <time>2022-04-15T13:31:05Z</time>
      </trkpt>
      <trkpt lat="43.49219" lon="6.22825">
        <ele>132</ele>
        <time>2022-04-15T13:31:06Z</time>
      </trkpt>
      <trkpt lat="43.49218" lon="6.22823">
        <ele>132</ele>
        <time>2022-04-15T13:31:07Z</time>
      </trkpt>
      <trkpt lat="43.49217" lon="6.22821">
        <ele>132</ele>
        <time>2022-04-15T13:31:08Z</time>
      </trkpt>
      <trkpt lat="43.49216" lon="6.2282">
        <ele>132</ele>
        <time>2022-04-15T13:31:09Z</time>
      </trkpt>
      <trkpt lat="43.49215" lon="6.22818">
        <ele>133</ele>
        <time>2022-04-15T13:31:10Z</time>
      </trkpt>
      <trkpt lat="43.49214" lon="6.22816">
        <ele>134</ele>
        <time>2022-04-15T13:31:11Z</time>
      </trkpt>
      <trkpt lat="43.49213" lon="6.22814">
        <ele>134</ele>
        <time>2022-04-15T13:31:12Z</time>
      </trkpt>
      <trkpt lat="43.49212" lon="6.22812">
        <ele>134</ele>
        <time>2022-04-15T13:31:13Z</time>
      </trkpt>
      <trkpt lat="43.49211" lon="6.2281">
        <ele>134</ele>
        <time>2022-04-15T13:31:14Z</time>
      </trkpt>
      <trkpt lat="43.4921" lon="6.22809">
        <ele>135</ele>
        <time>2022-04-15T13:31:15Z</time>
      </trkpt>
      <trkpt lat="43.49209" lon="6.22807">
        <ele>135</ele>
        <time>2022-04-15T13:31:16Z</time>
      </trkpt>
      <trkpt lat="43.49208" lon="6.22805">
        <ele>135</ele>
        <time>2022-04-15T13:31:17Z</time>
      </trkpt>
      <trkpt lat="43.49208" lon="6.22804">
        <ele>135</ele>
        <time>2022-04-15T13:31:18Z</time>
      </trkpt>
      <trkpt lat="43.49207" lon="6.22802">
        <ele>135</ele>
        <time>2022-04-15T13:31:19Z</time>
      </trkpt>
      <trkpt lat="43.49206" lon="6.22801">
        <ele>135</ele>
        <time>2022-04-15T13:31:20Z</time>
      </trkpt>
      <trkpt lat="43.49205" lon="6.22799">
        <ele>135</ele>
        <time>2022-04-15T13:31:21Z</time>
      </trkpt>
      <trkpt lat="43.49205" lon="6.22798">
        <ele>135</ele>
        <time>2022-04-15T13:31:22Z</time>
      </trkpt>
      <trkpt lat="43.49204" lon="6.22797">
        <ele>135</ele>
        <time>2022-04-15T13:31:23Z</time>
      </trkpt>
      <trkpt lat="43.49203" lon="6.22795">
        <ele>134</ele>
        <time>2022-04-15T13:31:24Z</time>
      </trkpt>
      <trkpt lat="43.49202" lon="6.22794">
        <ele>134</ele>
        <time>2022-04-15T13:31:25Z</time>
      </trkpt>
      <trkpt lat="43.49201" lon="6.22793">
        <ele>134</ele>
        <time>2022-04-15T13:31:26Z</time>
      </trkpt>
      <trkpt lat="43.492" lon="6.22793">
        <ele>133</ele>
        <time>2022-04-15T13:31:27Z</time>
      </trkpt>
      <trkpt lat="43.49199" lon="6.22792">
        <ele>133</ele>
        <time>2022-04-15T13:31:28Z</time>
      </trkpt>
      <trkpt lat="43.49198" lon="6.22791">
        <ele>133</ele>
        <time>2022-04-15T13:31:29Z</time>
      </trkpt>
      <trkpt lat="43.49197" lon="6.2279">
        <ele>133</ele>
        <time>2022-04-15T13:31:30Z</time>
      </trkpt>
      <trkpt lat="43.49196" lon="6.22789">
        <ele>132</ele>
        <time>2022-04-15T13:31:31Z</time>
      </trkpt>
      <trkpt lat="43.49195" lon="6.22788">
        <ele>132</ele>
        <time>2022-04-15T13:31:32Z</time>
      </trkpt>
      <trkpt lat="43.49194" lon="6.22788">
        <ele>132</ele>
        <time>2022-04-15T13:31:33Z</time>
      </trkpt>
      <trkpt lat="43.49193" lon="6.22787">
        <ele>132</ele>
        <time>2022-04-15T13:31:34Z</time>
      </trkpt>
      <trkpt lat="43.49193" lon="6.22787">
        <ele>132</ele>
        <time>2022-04-15T13:31:35Z</time>
      </trkpt>
      <trkpt lat="43.49192" lon="6.22786">
        <ele>132</ele>
        <time>2022-04-15T13:31:36Z</time>
      </trkpt>
      <trkpt lat="43.49191" lon="6.22785">
        <ele>131</ele>
        <time>2022-04-15T13:31:37Z</time>
      </trkpt>
      <trkpt lat="43.4919" lon="6.22784">
        <ele>131</ele>
        <time>2022-04-15T13:31:38Z</time>
      </trkpt>
      <trkpt lat="43.4919" lon="6.22783">
        <ele>131</ele>
        <time>2022-04-15T13:31:39Z</time>
      </trkpt>
      <trkpt lat="43.4919" lon="6.22781">
        <ele>130</ele>
        <time>2022-04-15T13:31:40Z</time>
      </trkpt>
      <trkpt lat="43.49189" lon="6.2278">
        <ele>130</ele>
        <time>2022-04-15T13:31:41Z</time>
      </trkpt>
      <trkpt lat="43.49189" lon="6.22779">
        <ele>130</ele>
        <time>2022-04-15T13:31:42Z</time>
      </trkpt>
      <trkpt lat="43.49188" lon="6.22777">
        <ele>130</ele>
        <time>2022-04-15T13:31:43Z</time>
      </trkpt>
      <trkpt lat="43.49188" lon="6.22776">
        <ele>130</ele>
        <time>2022-04-15T13:31:44Z</time>
      </trkpt>
      <trkpt lat="43.49188" lon="6.22774">
        <ele>130</ele>
        <time>2022-04-15T13:31:45Z</time>
      </trkpt>
      <trkpt lat="43.49188" lon="6.22773">
        <ele>130</ele>
        <time>2022-04-15T13:31:46Z</time>
      </trkpt>
      <trkpt lat="43.49188" lon="6.22771">
        <ele>129</ele>
        <time>2022-04-15T13:31:47Z</time>
      </trkpt>
      <trkpt lat="43.49188" lon="6.2277">
        <ele>129</ele>
        <time>2022-04-15T13:31:48Z</time>
      </trkpt>
      <trkpt lat="43.49188" lon="6.22769">
        <ele>129</ele>
        <time>2022-04-15T13:31:49Z</time>
      </trkpt>
      <trkpt lat="43.49189" lon="6.22768">
        <ele>129</ele>
        <time>2022-04-15T13:31:50Z</time>
      </trkpt>
      <trkpt lat="43.49189" lon="6.22766">
        <ele>129</ele>
        <time>2022-04-15T13:31:51Z</time>
      </trkpt>
      <trkpt lat="43.49189" lon="6.22765">
        <ele>129</ele>
        <time>2022-04-15T13:31:52Z</time>
      </trkpt>
      <trkpt lat="43.4919" lon="6.22764">
        <ele>129</ele>
        <time>2022-04-15T13:31:53Z</time>
      </trkpt>
      <trkpt lat="43.4919" lon="6.22762">
        <ele>129</ele>
        <time>2022-04-15T13:31:54Z</time>
      </trkpt>
      <trkpt lat="43.49191" lon="6.22761">
        <ele>129</ele>
        <time>2022-04-15T13:31:55Z</time>
      </trkpt>
      <trkpt lat="43.49191" lon="6.2276">
        <ele>129</ele>
        <time>2022-04-15T13:31:56Z</time>
      </trkpt>
      <trkpt lat="43.49192" lon="6.22759">
        <ele>129</ele>
        <time>2022-04-15T13:31:57Z</time>
      </trkpt>
      <trkpt lat="43.49192" lon="6.22758">
        <ele>129</ele>
        <time>2022-04-15T13:31:58Z</time>
      </trkpt>
      <trkpt lat="43.49193" lon="6.22759">
        <ele>129</ele>
        <time>2022-04-15T13:31:59Z</time>
      </trkpt>
      <trkpt lat="43.49194" lon="6.22759">
        <ele>129</ele>
        <time>2022-04-15T13:32:00Z</time>
      </trkpt>
      <trkpt lat="43.49194" lon="6.2276">
        <ele>129</ele>
        <time>2022-04-15T13:32:01Z</time>
      </trkpt>
      <trkpt lat="43.49195" lon="6.22761">
        <ele>129</ele>
        <time>2022-04-15T13:32:02Z</time>
      </trkpt>
      <trkpt lat="43.49196" lon="6.22762">
        <ele>128</ele>
        <time>2022-04-15T13:32:03Z</time>
      </trkpt>
      <trkpt lat="43.49196" lon="6.22763">
        <ele>128</ele>
        <time>2022-04-15T13:32:04Z</time>
      </trkpt>
      <trkpt lat="43.49196" lon="6.22763">
        <ele>128</ele>
        <time>2022-04-15T13:32:05Z</time>
      </trkpt>
      <trkpt lat="43.49197" lon="6.22763">
        <ele>128</ele>
        <time>2022-04-15T13:32:06Z</time>
      </trkpt>
      <trkpt lat="43.49197" lon="6.22763">
        <ele>128</ele>
        <time>2022-04-15T13:32:07Z</time>
      </trkpt>
      <trkpt lat="43.49198" lon="6.22763">
        <ele>128</ele>
        <time>2022-04-15T13:32:08Z</time>
      </trkpt>
      <trkpt lat="43.49198" lon="6.22763">
        <ele>128</ele>
        <time>2022-04-15T13:32:09Z</time>
      </trkpt>
      <trkpt lat="43.49199" lon="6.22762">
        <ele>128</ele>
        <time>2022-04-15T13:32:10Z</time>
      </trkpt>
      <trkpt lat="43.49201" lon="6.22761">
        <ele>128</ele>
        <time>2022-04-15T13:32:11Z</time>
      </trkpt>
      <trkpt lat="43.49202" lon="6.22761">
        <ele>128</ele>
        <time>2022-04-15T13:32:12Z</time>
      </trkpt>
      <trkpt lat="43.49204" lon="6.22761">
        <ele>128</ele>
        <time>2022-04-15T13:32:13Z</time>
      </trkpt>
      <trkpt lat="43.49205" lon="6.22761">
        <ele>128</ele>
        <time>2022-04-15T13:32:14Z</time>
      </trkpt>
      <trkpt lat="43.49206" lon="6.22761">
        <ele>128</ele>
        <time>2022-04-15T13:32:15Z</time>
      </trkpt>
      <trkpt lat="43.49207" lon="6.22761">
        <ele>128</ele>
        <time>2022-04-15T13:32:16Z</time>
      </trkpt>
      <trkpt lat="43.49209" lon="6.2276">
        <ele>128</ele>
        <time>2022-04-15T13:32:17Z</time>
      </trkpt>
      <trkpt lat="43.4921" lon="6.2276">
        <ele>128</ele>
        <time>2022-04-15T13:32:18Z</time>
      </trkpt>
      <trkpt lat="43.49211" lon="6.2276">
        <ele>127</ele>
        <time>2022-04-15T13:32:19Z</time>
      </trkpt>
      <trkpt lat="43.49212" lon="6.22759">
        <ele>127</ele>
        <time>2022-04-15T13:32:20Z</time>
      </trkpt>
      <trkpt lat="43.49213" lon="6.22758">
        <ele>127</ele>
        <time>2022-04-15T13:32:21Z</time>
      </trkpt>
      <trkpt lat="43.49214" lon="6.22757">
        <ele>127</ele>
        <time>2022-04-15T13:32:22Z</time>
      </trkpt>
      <trkpt lat="43.49216" lon="6.22756">
        <ele>127</ele>
        <time>2022-04-15T13:32:23Z</time>
      </trkpt>
      <trkpt lat="43.49217" lon="6.22755">
        <ele>127</ele>
        <time>2022-04-15T13:32:24Z</time>
      </trkpt>
      <trkpt lat="43.49218" lon="6.22754">
        <ele>126</ele>
        <time>2022-04-15T13:32:25Z</time>
      </trkpt>
      <trkpt lat="43.49219" lon="6.22753">
        <ele>126</ele>
        <time>2022-04-15T13:32:26Z</time>
      </trkpt>
      <trkpt lat="43.4922" lon="6.22752">
        <ele>125</ele>
        <time>2022-04-15T13:32:27Z</time>
      </trkpt>
      <trkpt lat="43.49221" lon="6.22751">
        <ele>126</ele>
        <time>2022-04-15T13:32:28Z</time>
      </trkpt>
      <trkpt lat="43.49222" lon="6.2275">
        <ele>126</ele>
        <time>2022-04-15T13:32:29Z</time>
      </trkpt>
      <trkpt lat="43.49223" lon="6.2275">
        <ele>126</ele>
        <time>2022-04-15T13:32:30Z</time>
      </trkpt>
      <trkpt lat="43.49224" lon="6.22749">
        <ele>126</ele>
        <time>2022-04-15T13:32:31Z</time>
      </trkpt>
      <trkpt lat="43.49225" lon="6.22748">
        <ele>126</ele>
        <time>2022-04-15T13:32:32Z</time>
      </trkpt>
      <trkpt lat="43.49226" lon="6.22747">
        <ele>126</ele>
        <time>2022-04-15T13:32:33Z</time>
      </trkpt>
      <trkpt lat="43.49226" lon="6.22747">
        <ele>126</ele>
        <time>2022-04-15T13:32:34Z</time>
      </trkpt>
      <trkpt lat="43.49227" lon="6.22746">
        <ele>126</ele>
        <time>2022-04-15T13:32:35Z</time>
      </trkpt>
      <trkpt lat="43.49227" lon="6.22745">
        <ele>126</ele>
        <time>2022-04-15T13:32:36Z</time>
      </trkpt>
      <trkpt lat="43.49229" lon="6.22744">
        <ele>126</ele>
        <time>2022-04-15T13:32:37Z</time>
      </trkpt>
      <trkpt lat="43.4923" lon="6.22743">
        <ele>126</ele>
        <time>2022-04-15T13:32:38Z</time>
      </trkpt>
      <trkpt lat="43.4923" lon="6.22742">
        <ele>125</ele>
        <time>2022-04-15T13:32:39Z</time>
      </trkpt>
      <trkpt lat="43.49231" lon="6.22742">
        <ele>125</ele>
        <time>2022-04-15T13:32:40Z</time>
      </trkpt>
      <trkpt lat="43.49231" lon="6.22741">
        <ele>125</ele>
        <time>2022-04-15T13:32:41Z</time>
      </trkpt>
      <trkpt lat="43.49232" lon="6.2274">
        <ele>125</ele>
        <time>2022-04-15T13:32:42Z</time>
      </trkpt>
      <trkpt lat="43.49232" lon="6.22739">
        <ele>125</ele>
        <time>2022-04-15T13:32:43Z</time>
      </trkpt>
      <trkpt lat="43.49233" lon="6.22738">
        <ele>125</ele>
        <time>2022-04-15T13:32:44Z</time>
      </trkpt>
      <trkpt lat="43.49234" lon="6.22736">
        <ele>125</ele>
        <time>2022-04-15T13:32:45Z</time>
      </trkpt>
      <trkpt lat="43.49234" lon="6.22735">
        <ele>125</ele>
        <time>2022-04-15T13:32:46Z</time>
      </trkpt>
      <trkpt lat="43.49235" lon="6.22734">
        <ele>125</ele>
        <time>2022-04-15T13:32:47Z</time>
      </trkpt>
      <trkpt lat="43.49235" lon="6.22732">
        <ele>125</ele>
        <time>2022-04-15T13:32:48Z</time>
      </trkpt>
      <trkpt lat="43.49236" lon="6.22731">
        <ele>125</ele>
        <time>2022-04-15T13:32:49Z</time>
      </trkpt>
      <trkpt lat="43.49237" lon="6.2273">
        <ele>124</ele>
        <time>2022-04-15T13:32:50Z</time>
      </trkpt>
      <trkpt lat="43.49237" lon="6.22729">
        <ele>124</ele>
        <time>2022-04-15T13:32:51Z</time>
      </trkpt>
      <trkpt lat="43.49238" lon="6.22727">
        <ele>124</ele>
        <time>2022-04-15T13:32:52Z</time>
      </trkpt>
      <trkpt lat="43.49238" lon="6.22726">
        <ele>124</ele>
        <time>2022-04-15T13:32:53Z</time>
      </trkpt>
      <trkpt lat="43.49239" lon="6.22725">
        <ele>124</ele>
        <time>2022-04-15T13:32:54Z</time>
      </trkpt>
      <trkpt lat="43.49239" lon="6.22724">
        <ele>124</ele>
        <time>2022-04-15T13:32:55Z</time>
      </trkpt>
      <trkpt lat="43.4924" lon="6.22723">
        <ele>124</ele>
        <time>2022-04-15T13:32:56Z</time>
      </trkpt>
      <trkpt lat="43.4924" lon="6.22722">
        <ele>124</ele>
        <time>2022-04-15T13:32:57Z</time>
      </trkpt>
      <trkpt lat="43.49241" lon="6.2272">
        <ele>124</ele>
        <time>2022-04-15T13:32:58Z</time>
      </trkpt>
      <trkpt lat="43.49242" lon="6.22719">
        <ele>124</ele>
        <time>2022-04-15T13:32:59Z</time>
      </trkpt>
      <trkpt lat="43.49242" lon="6.22718">
        <ele>124</ele>
        <time>2022-04-15T13:33:00Z</time>
      </trkpt>
      <trkpt lat="43.49243" lon="6.22717">
        <ele>124</ele>
        <time>2022-04-15T13:33:01Z</time>
      </trkpt>
      <trkpt lat="43.49244" lon="6.22716">
        <ele>124</ele>
        <time>2022-04-15T13:33:02Z</time>
      </trkpt>
      <trkpt lat="43.49244" lon="6.22714">
        <ele>124</ele>
        <time>2022-04-15T13:33:03Z</time>
      </trkpt>
      <trkpt lat="43.49245" lon="6.22713">
        <ele>124</ele>
        <time>2022-04-15T13:33:04Z</time>
      </trkpt>
      <trkpt lat="43.49246" lon="6.22712">
        <ele>122</ele>
        <time>2022-04-15T13:33:05Z</time>
      </trkpt>
      <trkpt lat="43.49247" lon="6.22711">
        <ele>122</ele>
        <time>2022-04-15T13:33:06Z</time>
      </trkpt>
      <trkpt lat="43.49249" lon="6.22709">
        <ele>122</ele>
        <time>2022-04-15T13:33:07Z</time>
      </trkpt>
      <trkpt lat="43.4925" lon="6.22706">
        <ele>122</ele>
        <time>2022-04-15T13:33:08Z</time>
      </trkpt>
      <trkpt lat="43.49252" lon="6.22704">
        <ele>122</ele>
        <time>2022-04-15T13:33:09Z</time>
      </trkpt>
      <trkpt lat="43.49253" lon="6.22702">
        <ele>122</ele>
        <time>2022-04-15T13:33:10Z</time>
      </trkpt>
      <trkpt lat="43.49254" lon="6.22701">
        <ele>121</ele>
        <time>2022-04-15T13:33:11Z</time>
      </trkpt>
      <trkpt lat="43.49255" lon="6.22699">
        <ele>121</ele>
        <time>2022-04-15T13:33:12Z</time>
      </trkpt>
      <trkpt lat="43.49256" lon="6.22698">
        <ele>121</ele>
        <time>2022-04-15T13:33:13Z</time>
      </trkpt>
      <trkpt lat="43.49257" lon="6.22697">
        <ele>121</ele>
        <time>2022-04-15T13:33:14Z</time>
      </trkpt>
      <trkpt lat="43.49258" lon="6.22695">
        <ele>121</ele>
        <time>2022-04-15T13:33:15Z</time>
      </trkpt>
      <trkpt lat="43.49258" lon="6.22695">
        <ele>121</ele>
        <time>2022-04-15T13:33:16Z</time>
      </trkpt>
      <trkpt lat="43.49259" lon="6.22694">
        <ele>121</ele>
        <time>2022-04-15T13:33:17Z</time>
      </trkpt>
      <trkpt lat="43.49259" lon="6.22694">
        <ele>121</ele>
        <time>2022-04-15T13:33:18Z</time>
      </trkpt>
      <trkpt lat="43.4926" lon="6.22693">
        <ele>121</ele>
        <time>2022-04-15T13:33:19Z</time>
      </trkpt>
      <trkpt lat="43.4926" lon="6.22692">
        <ele>121</ele>
        <time>2022-04-15T13:33:20Z</time>
      </trkpt>
      <trkpt lat="43.49261" lon="6.22691">
        <ele>121</ele>
        <time>2022-04-15T13:33:21Z</time>
      </trkpt>
      <trkpt lat="43.49262" lon="6.2269">
        <ele>121</ele>
        <time>2022-04-15T13:33:22Z</time>
      </trkpt>
      <trkpt lat="43.49263" lon="6.22689">
        <ele>121</ele>
        <time>2022-04-15T13:33:23Z</time>
      </trkpt>
      <trkpt lat="43.49264" lon="6.22688">
        <ele>120</ele>
        <time>2022-04-15T13:33:24Z</time>
      </trkpt>
      <trkpt lat="43.49264" lon="6.22687">
        <ele>120</ele>
        <time>2022-04-15T13:33:25Z</time>
      </trkpt>
      <trkpt lat="43.49265" lon="6.22686">
        <ele>120</ele>
        <time>2022-04-15T13:33:26Z</time>
      </trkpt>
      <trkpt lat="43.49266" lon="6.22684">
        <ele>120</ele>
        <time>2022-04-15T13:33:27Z</time>
      </trkpt>
      <trkpt lat="43.49267" lon="6.22683">
        <ele>120</ele>
        <time>2022-04-15T13:33:28Z</time>
      </trkpt>
      <trkpt lat="43.49268" lon="6.22681">
        <ele>120</ele>
        <time>2022-04-15T13:33:29Z</time>
      </trkpt>
      <trkpt lat="43.49268" lon="6.22679">
        <ele>120</ele>
        <time>2022-04-15T13:33:30Z</time>
      </trkpt>
      <trkpt lat="43.49269" lon="6.22678">
        <ele>120</ele>
        <time>2022-04-15T13:33:31Z</time>
      </trkpt>
      <trkpt lat="43.4927" lon="6.22676">
        <ele>120</ele>
        <time>2022-04-15T13:33:32Z</time>
      </trkpt>
      <trkpt lat="43.4927" lon="6.22675">
        <ele>120</ele>
        <time>2022-04-15T13:33:33Z</time>
      </trkpt>
      <trkpt lat="43.49271" lon="6.22674">
        <ele>120</ele>
        <time>2022-04-15T13:33:34Z</time>
      </trkpt>
      <trkpt lat="43.49271" lon="6.22672">
        <ele>120</ele>
        <time>2022-04-15T13:33:35Z</time>
      </trkpt>
      <trkpt lat="43.49272" lon="6.22671">
        <ele>120</ele>
        <time>2022-04-15T13:33:36Z</time>
      </trkpt>
      <trkpt lat="43.49273" lon="6.22669">
        <ele>120</ele>
        <time>2022-04-15T13:33:37Z</time>
      </trkpt>
      <trkpt lat="43.49273" lon="6.22667">
        <ele>120</ele>
        <time>2022-04-15T13:33:38Z</time>
      </trkpt>
      <trkpt lat="43.49274" lon="6.22665">
        <ele>120</ele>
        <time>2022-04-15T13:33:39Z</time>
      </trkpt>
      <trkpt lat="43.49275" lon="6.22663">
        <ele>120</ele>
        <time>2022-04-15T13:33:40Z</time>
      </trkpt>
      <trkpt lat="43.49275" lon="6.22662">
        <ele>119</ele>
        <time>2022-04-15T13:33:41Z</time>
      </trkpt>
      <trkpt lat="43.49276" lon="6.2266">
        <ele>119</ele>
        <time>2022-04-15T13:33:42Z</time>
      </trkpt>
      <trkpt lat="43.49276" lon="6.22658">
        <ele>119</ele>
        <time>2022-04-15T13:33:43Z</time>
      </trkpt>
      <trkpt lat="43.49276" lon="6.22657">
        <ele>119</ele>
        <time>2022-04-15T13:33:44Z</time>
      </trkpt>
      <trkpt lat="43.49276" lon="6.22655">
        <ele>119</ele>
        <time>2022-04-15T13:33:45Z</time>
      </trkpt>
      <trkpt lat="43.49276" lon="6.22654">
        <ele>119</ele>
        <time>2022-04-15T13:33:46Z</time>
      </trkpt>
      <trkpt lat="43.49276" lon="6.22652">
        <ele>119</ele>
        <time>2022-04-15T13:33:47Z</time>
      </trkpt>
      <trkpt lat="43.49276" lon="6.22651">
        <ele>119</ele>
        <time>2022-04-15T13:33:48Z</time>
      </trkpt>
      <trkpt lat="43.49276" lon="6.22649">
        <ele>119</ele>
        <time>2022-04-15T13:33:49Z</time>
      </trkpt>
      <trkpt lat="43.49277" lon="6.22647">
        <ele>119</ele>
        <time>2022-04-15T13:33:50Z</time>
      </trkpt>
      <trkpt lat="43.49276" lon="6.22644">
        <ele>119</ele>
        <time>2022-04-15T13:33:51Z</time>
      </trkpt>
      <trkpt lat="43.49276" lon="6.22641">
        <ele>119</ele>
        <time>2022-04-15T13:33:52Z</time>
      </trkpt>
      <trkpt lat="43.49276" lon="6.22638">
        <ele>120</ele>
        <time>2022-04-15T13:33:53Z</time>
      </trkpt>
      <trkpt lat="43.49276" lon="6.22635">
        <ele>120</ele>
        <time>2022-04-15T13:33:54Z</time>
      </trkpt>
      <trkpt lat="43.49276" lon="6.22633">
        <ele>120</ele>
        <time>2022-04-15T13:33:55Z</time>
      </trkpt>
      <trkpt lat="43.49276" lon="6.22631">
        <ele>120</ele>
        <time>2022-04-15T13:33:56Z</time>
      </trkpt>
      <trkpt lat="43.49276" lon="6.22629">
        <ele>121</ele>
        <time>2022-04-15T13:33:57Z</time>
      </trkpt>
      <trkpt lat="43.49276" lon="6.22627">
        <ele>121</ele>
        <time>2022-04-15T13:33:58Z</time>
      </trkpt>
      <trkpt lat="43.49276" lon="6.22625">
        <ele>121</ele>
        <time>2022-04-15T13:33:59Z</time>
      </trkpt>
      <trkpt lat="43.49276" lon="6.22623">
        <ele>121</ele>
        <time>2022-04-15T13:34:00Z</time>
      </trkpt>
      <trkpt lat="43.49276" lon="6.22621">
        <ele>121</ele>
        <time>2022-04-15T13:34:01Z</time>
      </trkpt>
      <trkpt lat="43.49276" lon="6.2262">
        <ele>121</ele>
        <time>2022-04-15T13:34:02Z</time>
      </trkpt>
      <trkpt lat="43.49276" lon="6.22618">
        <ele>121</ele>
        <time>2022-04-15T13:34:03Z</time>
      </trkpt>
      <trkpt lat="43.49276" lon="6.22617">
        <ele>121</ele>
        <time>2022-04-15T13:34:04Z</time>
      </trkpt>
      <trkpt lat="43.49276" lon="6.22615">
        <ele>122</ele>
        <time>2022-04-15T13:34:05Z</time>
      </trkpt>
      <trkpt lat="43.49277" lon="6.22614">
        <ele>122</ele>
        <time>2022-04-15T13:34:06Z</time>
      </trkpt>
      <trkpt lat="43.49277" lon="6.22612">
        <ele>122</ele>
        <time>2022-04-15T13:34:07Z</time>
      </trkpt>
      <trkpt lat="43.49277" lon="6.2261">
        <ele>122</ele>
        <time>2022-04-15T13:34:08Z</time>
      </trkpt>
      <trkpt lat="43.49277" lon="6.22609">
        <ele>122</ele>
        <time>2022-04-15T13:34:09Z</time>
      </trkpt>
      <trkpt lat="43.49277" lon="6.22607">
        <ele>122</ele>
        <time>2022-04-15T13:34:10Z</time>
      </trkpt>
      <trkpt lat="43.49278" lon="6.22605">
        <ele>122</ele>
        <time>2022-04-15T13:34:11Z</time>
      </trkpt>
      <trkpt lat="43.49278" lon="6.22604">
        <ele>124</ele>
        <time>2022-04-15T13:34:12Z</time>
      </trkpt>
      <trkpt lat="43.49278" lon="6.22603">
        <ele>124</ele>
        <time>2022-04-15T13:34:13Z</time>
      </trkpt>
      <trkpt lat="43.49278" lon="6.22601">
        <ele>124</ele>
        <time>2022-04-15T13:34:14Z</time>
      </trkpt>
      <trkpt lat="43.49278" lon="6.226">
        <ele>124</ele>
        <time>2022-04-15T13:34:15Z</time>
      </trkpt>
      <trkpt lat="43.49278" lon="6.22598">
        <ele>124</ele>
        <time>2022-04-15T13:34:16Z</time>
      </trkpt>
      <trkpt lat="43.49278" lon="6.22596">
        <ele>124</ele>
        <time>2022-04-15T13:34:17Z</time>
      </trkpt>
      <trkpt lat="43.49279" lon="6.22595">
        <ele>124</ele>
        <time>2022-04-15T13:34:18Z</time>
      </trkpt>
      <trkpt lat="43.49279" lon="6.22593">
        <ele>124</ele>
        <time>2022-04-15T13:34:19Z</time>
      </trkpt>
      <trkpt lat="43.49279" lon="6.22591">
        <ele>124</ele>
        <time>2022-04-15T13:34:20Z</time>
      </trkpt>
      <trkpt lat="43.49279" lon="6.2259">
        <ele>124</ele>
        <time>2022-04-15T13:34:21Z</time>
      </trkpt>
      <trkpt lat="43.49279" lon="6.22588">
        <ele>124</ele>
        <time>2022-04-15T13:34:22Z</time>
      </trkpt>
      <trkpt lat="43.49278" lon="6.22587">
        <ele>124</ele>
        <time>2022-04-15T13:34:23Z</time>
      </trkpt>
      <trkpt lat="43.49278" lon="6.22585">
        <ele>124</ele>
        <time>2022-04-15T13:34:24Z</time>
      </trkpt>
      <trkpt lat="43.49278" lon="6.22584">
        <ele>124</ele>
        <time>2022-04-15T13:34:25Z</time>
      </trkpt>
      <trkpt lat="43.49278" lon="6.22582">
        <ele>124</ele>
        <time>2022-04-15T13:34:26Z</time>
      </trkpt>
      <trkpt lat="43.49278" lon="6.2258">
        <ele>124</ele>
        <time>2022-04-15T13:34:27Z</time>
      </trkpt>
      <trkpt lat="43.49278" lon="6.22578">
        <ele>124</ele>
        <time>2022-04-15T13:34:28Z</time>
      </trkpt>
      <trkpt lat="43.49277" lon="6.22576">
        <ele>124</ele>
        <time>2022-04-15T13:34:29Z</time>
      </trkpt>
      <trkpt lat="43.49277" lon="6.22575">
        <ele>124</ele>
        <time>2022-04-15T13:34:30Z</time>
      </trkpt>
      <trkpt lat="43.49277" lon="6.22574">
        <ele>124</ele>
        <time>2022-04-15T13:34:31Z</time>
      </trkpt>
      <trkpt lat="43.49277" lon="6.22573">
        <ele>124</ele>
        <time>2022-04-15T13:34:32Z</time>
      </trkpt>
      <trkpt lat="43.49276" lon="6.22571">
        <ele>124</ele>
        <time>2022-04-15T13:34:33Z</time>
      </trkpt>
      <trkpt lat="43.49276" lon="6.2257">
        <ele>124</ele>
        <time>2022-04-15T13:34:34Z</time>
      </trkpt>
      <trkpt lat="43.49276" lon="6.22568">
        <ele>124</ele>
        <time>2022-04-15T13:34:35Z</time>
      </trkpt>
      <trkpt lat="43.49276" lon="6.22567">
        <ele>124</ele>
        <time>2022-04-15T13:34:36Z</time>
      </trkpt>
      <trkpt lat="43.49276" lon="6.22565">
        <ele>124</ele>
        <time>2022-04-15T13:34:37Z</time>
      </trkpt>
      <trkpt lat="43.49276" lon="6.22564">
        <ele>124</ele>
        <time>2022-04-15T13:34:38Z</time>
      </trkpt>
      <trkpt lat="43.49275" lon="6.22562">
        <ele>124</ele>
        <time>2022-04-15T13:34:39Z</time>
      </trkpt>
      <trkpt lat="43.49275" lon="6.22561">
        <ele>124</ele>
        <time>2022-04-15T13:34:40Z</time>
      </trkpt>
      <trkpt lat="43.49275" lon="6.22559">
        <ele>124</ele>
        <time>2022-04-15T13:34:41Z</time>
      </trkpt>
      <trkpt lat="43.49275" lon="6.22558">
        <ele>124</ele>
        <time>2022-04-15T13:34:42Z</time>
      </trkpt>
      <trkpt lat="43.49275" lon="6.22556">
        <ele>124</ele>
        <time>2022-04-15T13:34:43Z</time>
      </trkpt>
      <trkpt lat="43.49274" lon="6.22555">
        <ele>124</ele>
        <time>2022-04-15T13:34:44Z</time>
      </trkpt>
      <trkpt lat="43.49274" lon="6.22553">
        <ele>124</ele>
        <time>2022-04-15T13:34:45Z</time>
      </trkpt>
      <trkpt lat="43.49274" lon="6.22552">
        <ele>124</ele>
        <time>2022-04-15T13:34:46Z</time>
      </trkpt>
      <trkpt lat="43.49274" lon="6.2255">
        <ele>124</ele>
        <time>2022-04-15T13:34:47Z</time>
      </trkpt>
      <trkpt lat="43.49274" lon="6.22548">
        <ele>124</ele>
        <time>2022-04-15T13:34:48Z</time>
      </trkpt>
      <trkpt lat="43.49274" lon="6.22546">
        <ele>124</ele>
        <time>2022-04-15T13:34:49Z</time>
      </trkpt>
      <trkpt lat="43.49273" lon="6.22545">
        <ele>124</ele>
        <time>2022-04-15T13:34:50Z</time>
      </trkpt>
      <trkpt lat="43.49273" lon="6.22543">
        <ele>124</ele>
        <time>2022-04-15T13:34:51Z</time>
      </trkpt>
      <trkpt lat="43.49273" lon="6.22541">
        <ele>124</ele>
        <time>2022-04-15T13:34:52Z</time>
      </trkpt>
      <trkpt lat="43.49273" lon="6.22539">
        <ele>124</ele>
        <time>2022-04-15T13:34:53Z</time>
      </trkpt>
      <trkpt lat="43.49273" lon="6.22538">
        <ele>124</ele>
        <time>2022-04-15T13:34:54Z</time>
      </trkpt>
      <trkpt lat="43.49273" lon="6.22537">
        <ele>124</ele>
        <time>2022-04-15T13:34:55Z</time>
      </trkpt>
      <trkpt lat="43.49274" lon="6.22535">
        <ele>124</ele>
        <time>2022-04-15T13:34:56Z</time>
      </trkpt>
      <trkpt lat="43.49274" lon="6.22533">
        <ele>124</ele>
        <time>2022-04-15T13:34:57Z</time>
      </trkpt>
      <trkpt lat="43.49274" lon="6.22531">
        <ele>124</ele>
        <time>2022-04-15T13:34:58Z</time>
      </trkpt>
      <trkpt lat="43.49274" lon="6.22529">
        <ele>124</ele>
        <time>2022-04-15T13:34:59Z</time>
      </trkpt>
      <trkpt lat="43.49274" lon="6.22528">
        <ele>124</ele>
        <time>2022-04-15T13:35:00Z</time>
      </trkpt>
      <trkpt lat="43.49274" lon="6.22526">
        <ele>124</ele>
        <time>2022-04-15T13:35:01Z</time>
      </trkpt>
      <trkpt lat="43.49274" lon="6.22524">
        <ele>124</ele>
        <time>2022-04-15T13:35:02Z</time>
      </trkpt>
      <trkpt lat="43.49274" lon="6.22522">
        <ele>124</ele>
        <time>2022-04-15T13:35:03Z</time>
      </trkpt>
      <trkpt lat="43.49274" lon="6.22521">
        <ele>124</ele>
        <time>2022-04-15T13:35:04Z</time>
      </trkpt>
      <trkpt lat="43.49273" lon="6.22519">
        <ele>124</ele>
        <time>2022-04-15T13:35:05Z</time>
      </trkpt>
      <trkpt lat="43.49273" lon="6.22518">
        <ele>124</ele>
        <time>2022-04-15T13:35:06Z</time>
      </trkpt>
      <trkpt lat="43.49272" lon="6.22516">
        <ele>124</ele>
        <time>2022-04-15T13:35:07Z</time>
      </trkpt>
      <trkpt lat="43.49272" lon="6.22515">
        <ele>123</ele>
        <time>2022-04-15T13:35:08Z</time>
      </trkpt>
      <trkpt lat="43.49271" lon="6.22514">
        <ele>123</ele>
        <time>2022-04-15T13:35:09Z</time>
      </trkpt>
      <trkpt lat="43.49271" lon="6.22513">
        <ele>123</ele>
        <time>2022-04-15T13:35:10Z</time>
      </trkpt>
      <trkpt lat="43.4927" lon="6.22512">
        <ele>123</ele>
        <time>2022-04-15T13:35:11Z</time>
      </trkpt>
      <trkpt lat="43.4927" lon="6.22511">
        <ele>123</ele>
        <time>2022-04-15T13:35:12Z</time>
      </trkpt>
      <trkpt lat="43.49269" lon="6.22511">
        <ele>123</ele>
        <time>2022-04-15T13:35:13Z</time>
      </trkpt>
      <trkpt lat="43.49268" lon="6.2251">
        <ele>123</ele>
        <time>2022-04-15T13:35:14Z</time>
      </trkpt>
      <trkpt lat="43.49267" lon="6.22509">
        <ele>123</ele>
        <time>2022-04-15T13:35:15Z</time>
      </trkpt>
      <trkpt lat="43.49266" lon="6.22508">
        <ele>123</ele>
        <time>2022-04-15T13:35:16Z</time>
      </trkpt>
      <trkpt lat="43.49265" lon="6.22508">
        <ele>123</ele>
        <time>2022-04-15T13:35:17Z</time>
      </trkpt>
      <trkpt lat="43.49264" lon="6.22508">
        <ele>123</ele>
        <time>2022-04-15T13:35:18Z</time>
      </trkpt>
      <trkpt lat="43.49263" lon="6.22507">
        <ele>123</ele>
        <time>2022-04-15T13:35:19Z</time>
      </trkpt>
      <trkpt lat="43.49263" lon="6.22507">
        <ele>123</ele>
        <time>2022-04-15T13:35:20Z</time>
      </trkpt>
      <trkpt lat="43.49262" lon="6.22508">
        <ele>123</ele>
        <time>2022-04-15T13:35:21Z</time>
      </trkpt>
      <trkpt lat="43.49261" lon="6.22509">
        <ele>123</ele>
        <time>2022-04-15T13:35:22Z</time>
      </trkpt>
      <trkpt lat="43.49261" lon="6.2251">
        <ele>123</ele>
        <time>2022-04-15T13:35:23Z</time>
      </trkpt>
      <trkpt lat="43.4926" lon="6.22511">
        <ele>123</ele>
        <time>2022-04-15T13:35:24Z</time>
      </trkpt>
      <trkpt lat="43.4926" lon="6.22512">
        <ele>124</ele>
        <time>2022-04-15T13:35:25Z</time>
      </trkpt>
      <trkpt lat="43.4926" lon="6.22512">
        <ele>124</ele>
        <time>2022-04-15T13:35:26Z</time>
      </trkpt>
      <trkpt lat="43.4926" lon="6.22513">
        <ele>124</ele>
        <time>2022-04-15T13:35:27Z</time>
      </trkpt>
      <trkpt lat="43.4926" lon="6.22513">
        <ele>124</ele>
        <time>2022-04-15T13:35:28Z</time>
      </trkpt>
      <trkpt lat="43.4926" lon="6.22513">
        <ele>124</ele>
        <time>2022-04-15T13:35:29Z</time>
      </trkpt>
      <trkpt lat="43.4926" lon="6.22513">
        <ele>124</ele>
        <time>2022-04-15T13:35:30Z</time>
      </trkpt>
      <trkpt lat="43.49259" lon="6.22513">
        <ele>124</ele>
        <time>2022-04-15T13:35:31Z</time>
      </trkpt>
      <trkpt lat="43.49259" lon="6.22513">
        <ele>124</ele>
        <time>2022-04-15T13:35:32Z</time>
      </trkpt>
      <trkpt lat="43.4926" lon="6.22513">
        <ele>124</ele>
        <time>2022-04-15T13:35:33Z</time>
      </trkpt>
      <trkpt lat="43.4926" lon="6.22512">
        <ele>124</ele>
        <time>2022-04-15T13:35:34Z</time>
      </trkpt>
      <trkpt lat="43.4926" lon="6.22512">
        <ele>124</ele>
        <time>2022-04-15T13:35:35Z</time>
      </trkpt>
      <trkpt lat="43.4926" lon="6.22512">
        <ele>124</ele>
        <time>2022-04-15T13:35:36Z</time>
      </trkpt>
      <trkpt lat="43.4926" lon="6.22512">
        <ele>124</ele>
        <time>2022-04-15T13:35:37Z</time>
      </trkpt>
      <trkpt lat="43.4926" lon="6.22512">
        <ele>124</ele>
        <time>2022-04-15T13:35:38Z</time>
      </trkpt>
      <trkpt lat="43.4926" lon="6.22512">
        <ele>124</ele>
        <time>2022-04-15T13:35:39Z</time>
      </trkpt>
      <trkpt lat="43.4926" lon="6.22512">
        <ele>124</ele>
        <time>2022-04-15T13:35:40Z</time>
      </trkpt>
      <trkpt lat="43.4926" lon="6.22512">
        <ele>124</ele>
        <time>2022-04-15T13:35:41Z</time>
      </trkpt>
      <trkpt lat="43.4926" lon="6.22512">
        <ele>124</ele>
        <time>2022-04-15T13:35:42Z</time>
      </trkpt>
      <trkpt lat="43.4926" lon="6.22512">
        <ele>124</ele>
        <time>2022-04-15T13:35:43Z</time>
      </trkpt>
      <trkpt lat="43.4926" lon="6.22512">
        <ele>124</ele>
        <time>2022-04-15T13:35:44Z</time>
      </trkpt>
      <trkpt lat="43.49263" lon="6.22509">
        <ele>124</ele>
        <time>2022-04-15T13:35:45Z</time>
      </trkpt>
      <trkpt lat="43.49263" lon="6.22508">
        <ele>124</ele>
        <time>2022-04-15T13:35:46Z</time>
      </trkpt>
      <trkpt lat="43.49263" lon="6.22508">
        <ele>124</ele>
        <time>2022-04-15T13:35:47Z</time>
      </trkpt>
      <trkpt lat="43.49263" lon="6.22508">
        <ele>124</ele>
        <time>2022-04-15T13:35:48Z</time>
      </trkpt>
      <trkpt lat="43.49263" lon="6.22508">
        <ele>124</ele>
        <time>2022-04-15T13:35:49Z</time>
      </trkpt>
      <trkpt lat="43.49263" lon="6.22508">
        <ele>124</ele>
        <time>2022-04-15T13:35:50Z</time>
      </trkpt>
      <trkpt lat="43.49263" lon="6.22508">
        <ele>124</ele>
        <time>2022-04-15T13:35:51Z</time>
      </trkpt>
      <trkpt lat="43.49263" lon="6.22508">
        <ele>124</ele>
        <time>2022-04-15T13:35:52Z</time>
      </trkpt>
      <trkpt lat="43.49263" lon="6.22508">
        <ele>124</ele>
        <time>2022-04-15T13:35:53Z</time>
      </trkpt>
      <trkpt lat="43.49263" lon="6.22508">
        <ele>124</ele>
        <time>2022-04-15T13:35:54Z</time>
      </trkpt>
      <trkpt lat="43.49263" lon="6.22508">
        <ele>124</ele>
        <time>2022-04-15T13:35:55Z</time>
      </trkpt>
      <trkpt lat="43.49263" lon="6.22508">
        <ele>124</ele>
        <time>2022-04-15T13:35:56Z</time>
      </trkpt>
      <trkpt lat="43.49263" lon="6.22508">
        <ele>124</ele>
        <time>2022-04-15T13:35:57Z</time>
      </trkpt>
      <trkpt lat="43.49263" lon="6.22508">
        <ele>124</ele>
        <time>2022-04-15T13:35:58Z</time>
      </trkpt>
      <trkpt lat="43.49263" lon="6.22508">
        <ele>124</ele>
        <time>2022-04-15T13:35:59Z</time>
      </trkpt>
      <trkpt lat="43.49263" lon="6.22508">
        <ele>124</ele>
        <time>2022-04-15T13:36:00Z</time>
      </trkpt>
      <trkpt lat="43.49263" lon="6.22508">
        <ele>124</ele>
        <time>2022-04-15T13:36:01Z</time>
      </trkpt>
      <trkpt lat="43.49263" lon="6.22508">
        <ele>124</ele>
        <time>2022-04-15T13:36:02Z</time>
      </trkpt>
      <trkpt lat="43.49263" lon="6.22508">
        <ele>124</ele>
        <time>2022-04-15T13:36:03Z</time>
      </trkpt>
      <trkpt lat="43.49263" lon="6.22508">
        <ele>124</ele>
        <time>2022-04-15T13:36:04Z</time>
      </trkpt>
      <trkpt lat="43.49263" lon="6.22508">
        <ele>124</ele>
        <time>2022-04-15T13:36:05Z</time>
      </trkpt>
      <trkpt lat="43.49263" lon="6.22508">
        <ele>124</ele>
        <time>2022-04-15T13:36:06Z</time>
      </trkpt>
      <trkpt lat="43.49263" lon="6.22508">
        <ele>124</ele>
        <time>2022-04-15T13:36:07Z</time>
      </trkpt>
      <trkpt lat="43.49263" lon="6.22508">
        <ele>124</ele>
        <time>2022-04-15T13:36:08Z</time>
      </trkpt>
      <trkpt lat="43.49263" lon="6.22508">
        <ele>124</ele>
        <time>2022-04-15T13:36:09Z</time>
      </trkpt>
      <trkpt lat="43.49263" lon="6.22508">
        <ele>124</ele>
        <time>2022-04-15T13:36:10Z</time>
      </trkpt>
      <trkpt lat="43.49263" lon="6.22508">
        <ele>124</ele>
        <time>2022-04-15T13:36:11Z</time>
      </trkpt>
      <trkpt lat="43.49263" lon="6.22508">
        <ele>124</ele>
        <time>2022-04-15T13:36:12Z</time>
      </trkpt>
      <trkpt lat="43.49263" lon="6.22508">
        <ele>124</ele>
        <time>2022-04-15T13:36:13Z</time>
      </trkpt>
      <trkpt lat="43.49263" lon="6.22508">
        <ele>124</ele>
        <time>2022-04-15T13:36:14Z</time>
      </trkpt>
      <trkpt lat="43.49263" lon="6.22508">
        <ele>124</ele>
        <time>2022-04-15T13:36:15Z</time>
      </trkpt>
      <trkpt lat="43.49263" lon="6.22508">
        <ele>124</ele>
        <time>2022-04-15T13:36:16Z</time>
      </trkpt>
      <trkpt lat="43.49263" lon="6.22508">
        <ele>124</ele>
        <time>2022-04-15T13:36:17Z</time>
      </trkpt>
      <trkpt lat="43.49263" lon="6.22508">
        <ele>124</ele>
        <time>2022-04-15T13:36:18Z</time>
      </trkpt>
      <trkpt lat="43.49263" lon="6.22508">
        <ele>124</ele>
        <time>2022-04-15T13:36:19Z</time>
      </trkpt>
      <trkpt lat="43.49263" lon="6.22508">
        <ele>124</ele>
        <time>2022-04-15T13:36:20Z</time>
      </trkpt>
      <trkpt lat="43.49263" lon="6.22508">
        <ele>124</ele>
        <time>2022-04-15T13:36:21Z</time>
      </trkpt>
      <trkpt lat="43.49263" lon="6.22508">
        <ele>124</ele>
        <time>2022-04-15T13:36:22Z</time>
      </trkpt>
      <trkpt lat="43.49263" lon="6.22508">
        <ele>124</ele>
        <time>2022-04-15T13:36:23Z</time>
      </trkpt>
      <trkpt lat="43.49263" lon="6.22508">
        <ele>124</ele>
        <time>2022-04-15T13:36:24Z</time>
      </trkpt>
      <trkpt lat="43.49263" lon="6.22508">
        <ele>124</ele>
        <time>2022-04-15T13:36:25Z</time>
      </trkpt>
      <trkpt lat="43.49263" lon="6.22508">
        <ele>124</ele>
        <time>2022-04-15T13:36:26Z</time>
      </trkpt>
      <trkpt lat="43.49263" lon="6.22508">
        <ele>124</ele>
        <time>2022-04-15T13:36:27Z</time>
      </trkpt>
      <trkpt lat="43.49263" lon="6.22508">
        <ele>124</ele>
        <time>2022-04-15T13:36:28Z</time>
      </trkpt>
      <trkpt lat="43.49263" lon="6.22508">
        <ele>124</ele>
        <time>2022-04-15T13:36:29Z</time>
      </trkpt>
      <trkpt lat="43.49263" lon="6.22508">
        <ele>124</ele>
        <time>2022-04-15T13:36:30Z</time>
      </trkpt>
      <trkpt lat="43.49263" lon="6.22508">
        <ele>124</ele>
        <time>2022-04-15T13:36:31Z</time>
      </trkpt>
      <trkpt lat="43.49263" lon="6.22508">
        <ele>124</ele>
        <time>2022-04-15T13:36:32Z</time>
      </trkpt>
      <trkpt lat="43.49263" lon="6.22508">
        <ele>124</ele>
        <time>2022-04-15T13:36:33Z</time>
      </trkpt>
      <trkpt lat="43.49263" lon="6.22508">
        <ele>124</ele>
        <time>2022-04-15T13:36:34Z</time>
      </trkpt>
      <trkpt lat="43.49263" lon="6.22508">
        <ele>124</ele>
        <time>2022-04-15T13:36:35Z</time>
      </trkpt>
      <trkpt lat="43.49263" lon="6.22508">
        <ele>124</ele>
        <time>2022-04-15T13:36:36Z</time>
      </trkpt>
      <trkpt lat="43.49263" lon="6.22508">
        <ele>124</ele>
        <time>2022-04-15T13:36:37Z</time>
      </trkpt>
      <trkpt lat="43.49263" lon="6.22508">
        <ele>124</ele>
        <time>2022-04-15T13:36:38Z</time>
      </trkpt>
      <trkpt lat="43.49263" lon="6.22508">
        <ele>124</ele>
        <time>2022-04-15T13:36:39Z</time>
      </trkpt>
      <trkpt lat="43.49263" lon="6.22508">
        <ele>124</ele>
        <time>2022-04-15T13:36:40Z</time>
      </trkpt>
      <trkpt lat="43.49263" lon="6.22508">
        <ele>124</ele>
        <time>2022-04-15T13:36:41Z</time>
      </trkpt>
      <trkpt lat="43.49263" lon="6.22508">
        <ele>124</ele>
        <time>2022-04-15T13:36:42Z</time>
      </trkpt>
      <trkpt lat="43.49265" lon="6.22506">
        <ele>124</ele>
        <time>2022-04-15T13:36:43Z</time>
      </trkpt>
      <trkpt lat="43.49265" lon="6.22506">
        <ele>124</ele>
        <time>2022-04-15T13:36:44Z</time>
      </trkpt>
      <trkpt lat="43.49265" lon="6.22506">
        <ele>124</ele>
        <time>2022-04-15T13:36:45Z</time>
      </trkpt>
      <trkpt lat="43.49264" lon="6.22506">
        <ele>124</ele>
        <time>2022-04-15T13:36:46Z</time>
      </trkpt>
      <trkpt lat="43.49264" lon="6.22506">
        <ele>124</ele>
        <time>2022-04-15T13:36:47Z</time>
      </trkpt>
      <trkpt lat="43.49264" lon="6.22506">
        <ele>124</ele>
        <time>2022-04-15T13:36:48Z</time>
      </trkpt>
      <trkpt lat="43.49264" lon="6.22506">
        <ele>124</ele>
        <time>2022-04-15T13:36:49Z</time>
      </trkpt>
      <trkpt lat="43.49264" lon="6.22506">
        <ele>124</ele>
        <time>2022-04-15T13:36:50Z</time>
      </trkpt>
      <trkpt lat="43.49264" lon="6.22506">
        <ele>124</ele>
        <time>2022-04-15T13:36:51Z</time>
      </trkpt>
      <trkpt lat="43.49264" lon="6.22506">
        <ele>124</ele>
        <time>2022-04-15T13:36:52Z</time>
      </trkpt>
      <trkpt lat="43.49264" lon="6.22506">
        <ele>124</ele>
        <time>2022-04-15T13:36:53Z</time>
      </trkpt>
      <trkpt lat="43.49264" lon="6.22506">
        <ele>124</ele>
        <time>2022-04-15T13:36:54Z</time>
      </trkpt>
      <trkpt lat="43.49264" lon="6.22506">
        <ele>124</ele>
        <time>2022-04-15T13:36:55Z</time>
      </trkpt>
      <trkpt lat="43.49264" lon="6.22506">
        <ele>124</ele>
        <time>2022-04-15T13:36:56Z</time>
      </trkpt>
      <trkpt lat="43.49264" lon="6.22506">
        <ele>124</ele>
        <time>2022-04-15T13:36:57Z</time>
      </trkpt>
      <trkpt lat="43.49264" lon="6.22506">
        <ele>124</ele>
        <time>2022-04-15T13:36:58Z</time>
      </trkpt>
      <trkpt lat="43.49264" lon="6.22506">
        <ele>124</ele>
        <time>2022-04-15T13:36:59Z</time>
      </trkpt>
      <trkpt lat="43.49264" lon="6.22506">
        <ele>124</ele>
        <time>2022-04-15T13:37:00Z</time>
      </trkpt>
      <trkpt lat="43.49264" lon="6.22506">
        <ele>124</ele>
        <time>2022-04-15T13:37:01Z</time>
      </trkpt>
      <trkpt lat="43.49264" lon="6.22506">
        <ele>124</ele>
        <time>2022-04-15T13:37:02Z</time>
      </trkpt>
      <trkpt lat="43.49264" lon="6.22506">
        <ele>124</ele>
        <time>2022-04-15T13:37:03Z</time>
      </trkpt>
      <trkpt lat="43.49264" lon="6.22506">
        <ele>124</ele>
        <time>2022-04-15T13:37:04Z</time>
      </trkpt>
      <trkpt lat="43.49264" lon="6.22506">
        <ele>124</ele>
        <time>2022-04-15T13:37:05Z</time>
      </trkpt>
      <trkpt lat="43.49264" lon="6.22506">
        <ele>124</ele>
        <time>2022-04-15T13:37:06Z</time>
      </trkpt>
      <trkpt lat="43.49264" lon="6.22506">
        <ele>124</ele>
        <time>2022-04-15T13:37:07Z</time>
      </trkpt>
      <trkpt lat="43.49264" lon="6.22506">
        <ele>124</ele>
        <time>2022-04-15T13:37:08Z</time>
      </trkpt>
      <trkpt lat="43.49264" lon="6.22506">
        <ele>124</ele>
        <time>2022-04-15T13:37:09Z</time>
      </trkpt>
      <trkpt lat="43.49265" lon="6.22506">
        <ele>124</ele>
        <time>2022-04-15T13:37:10Z</time>
      </trkpt>
      <trkpt lat="43.49264" lon="6.22506">
        <ele>124</ele>
        <time>2022-04-15T13:37:11Z</time>
      </trkpt>
      <trkpt lat="43.49264" lon="6.22506">
        <ele>124</ele>
        <time>2022-04-15T13:37:12Z</time>
      </trkpt>
      <trkpt lat="43.49263" lon="6.22506">
        <ele>124</ele>
        <time>2022-04-15T13:37:13Z</time>
      </trkpt>
      <trkpt lat="43.49263" lon="6.22506">
        <ele>124</ele>
        <time>2022-04-15T13:37:14Z</time>
      </trkpt>
      <trkpt lat="43.49263" lon="6.22506">
        <ele>124</ele>
        <time>2022-04-15T13:37:15Z</time>
      </trkpt>
      <trkpt lat="43.49263" lon="6.22506">
        <ele>124</ele>
        <time>2022-04-15T13:37:16Z</time>
      </trkpt>
      <trkpt lat="43.49262" lon="6.22507">
        <ele>124</ele>
        <time>2022-04-15T13:37:17Z</time>
      </trkpt>
      <trkpt lat="43.49262" lon="6.22507">
        <ele>124</ele>
        <time>2022-04-15T13:37:18Z</time>
      </trkpt>
      <trkpt lat="43.49262" lon="6.22507">
        <ele>124</ele>
        <time>2022-04-15T13:37:19Z</time>
      </trkpt>
      <trkpt lat="43.49262" lon="6.22507">
        <ele>124</ele>
        <time>2022-04-15T13:37:20Z</time>
      </trkpt>
      <trkpt lat="43.49262" lon="6.22507">
        <ele>124</ele>
        <time>2022-04-15T13:37:21Z</time>
      </trkpt>
      <trkpt lat="43.49262" lon="6.22507">
        <ele>124</ele>
        <time>2022-04-15T13:37:22Z</time>
      </trkpt>
      <trkpt lat="43.49262" lon="6.22507">
        <ele>124</ele>
        <time>2022-04-15T13:37:23Z</time>
      </trkpt>
      <trkpt lat="43.49262" lon="6.22507">
        <ele>124</ele>
        <time>2022-04-15T13:37:24Z</time>
      </trkpt>
      <trkpt lat="43.49262" lon="6.22507">
        <ele>124</ele>
        <time>2022-04-15T13:37:25Z</time>
      </trkpt>
      <trkpt lat="43.49262" lon="6.22507">
        <ele>124</ele>
        <time>2022-04-15T13:37:26Z</time>
      </trkpt>
      <trkpt lat="43.49262" lon="6.22507">
        <ele>123</ele>
        <time>2022-04-15T13:37:27Z</time>
      </trkpt>
      <trkpt lat="43.49262" lon="6.22507">
        <ele>123</ele>
        <time>2022-04-15T13:37:28Z</time>
      </trkpt>
      <trkpt lat="43.49262" lon="6.22507">
        <ele>123</ele>
        <time>2022-04-15T13:37:29Z</time>
      </trkpt>
      <trkpt lat="43.49262" lon="6.22507">
        <ele>123</ele>
        <time>2022-04-15T13:37:30Z</time>
      </trkpt>
      <trkpt lat="43.49262" lon="6.22507">
        <ele>123</ele>
        <time>2022-04-15T13:37:31Z</time>
      </trkpt>
      <trkpt lat="43.49262" lon="6.22507">
        <ele>123</ele>
        <time>2022-04-15T13:37:32Z</time>
      </trkpt>
      <trkpt lat="43.49262" lon="6.22507">
        <ele>123</ele>
        <time>2022-04-15T13:37:33Z</time>
      </trkpt>
      <trkpt lat="43.49262" lon="6.22507">
        <ele>123</ele>
        <time>2022-04-15T13:37:34Z</time>
      </trkpt>
      <trkpt lat="43.49262" lon="6.22507">
        <ele>123</ele>
        <time>2022-04-15T13:37:35Z</time>
      </trkpt>
      <trkpt lat="43.49262" lon="6.22507">
        <ele>123</ele>
        <time>2022-04-15T13:37:36Z</time>
      </trkpt>
      <trkpt lat="43.49262" lon="6.22507">
        <ele>123</ele>
        <time>2022-04-15T13:37:37Z</time>
      </trkpt>
      <trkpt lat="43.49262" lon="6.22507">
        <ele>123</ele>
        <time>2022-04-15T13:37:38Z</time>
      </trkpt>
      <trkpt lat="43.49262" lon="6.22507">
        <ele>123</ele>
        <time>2022-04-15T13:37:39Z</time>
      </trkpt>
      <trkpt lat="43.49262" lon="6.22507">
        <ele>123</ele>
        <time>2022-04-15T13:37:40Z</time>
      </trkpt>
      <trkpt lat="43.49262" lon="6.22507">
        <ele>123</ele>
        <time>2022-04-15T13:37:41Z</time>
      </trkpt>
      <trkpt lat="43.49262" lon="6.22507">
        <ele>123</ele>
        <time>2022-04-15T13:37:42Z</time>
      </trkpt>
      <trkpt lat="43.49262" lon="6.22507">
        <ele>123</ele>
        <time>2022-04-15T13:37:43Z</time>
      </trkpt>
      <trkpt lat="43.49262" lon="6.22507">
        <ele>123</ele>
        <time>2022-04-15T13:37:44Z</time>
      </trkpt>
      <trkpt lat="43.49262" lon="6.22507">
        <ele>123</ele>
        <time>2022-04-15T13:37:45Z</time>
      </trkpt>
      <trkpt lat="43.49262" lon="6.22507">
        <ele>123</ele>
        <time>2022-04-15T13:37:46Z</time>
      </trkpt>
      <trkpt lat="43.49262" lon="6.22507">
        <ele>123</ele>
        <time>2022-04-15T13:37:47Z</time>
      </trkpt>
      <trkpt lat="43.49262" lon="6.22507">
        <ele>123</ele>
        <time>2022-04-15T13:37:48Z</time>
      </trkpt>
      <trkpt lat="43.49262" lon="6.22507">
        <ele>123</ele>
        <time>2022-04-15T13:37:49Z</time>
      </trkpt>
      <trkpt lat="43.49262" lon="6.22507">
        <ele>123</ele>
        <time>2022-04-15T13:37:50Z</time>
      </trkpt>
      <trkpt lat="43.49262" lon="6.22507">
        <ele>123</ele>
        <time>2022-04-15T13:37:51Z</time>
      </trkpt>
      <trkpt lat="43.49262" lon="6.22507">
        <ele>123</ele>
        <time>2022-04-15T13:37:52Z</time>
      </trkpt>
      <trkpt lat="43.49262" lon="6.22507">
        <ele>123</ele>
        <time>2022-04-15T13:37:53Z</time>
      </trkpt>
      <trkpt lat="43.49262" lon="6.22507">
        <ele>123</ele>
        <time>2022-04-15T13:37:54Z</time>
      </trkpt>
      <trkpt lat="43.49262" lon="6.22507">
        <ele>123</ele>
        <time>2022-04-15T13:37:55Z</time>
      </trkpt>
      <trkpt lat="43.49262" lon="6.22507">
        <ele>123</ele>
        <time>2022-04-15T13:37:56Z</time>
      </trkpt>
      <trkpt lat="43.49262" lon="6.22507">
        <ele>123</ele>
        <time>2022-04-15T13:37:57Z</time>
      </trkpt>
      <trkpt lat="43.49262" lon="6.22507">
        <ele>123</ele>
        <time>2022-04-15T13:37:58Z</time>
      </trkpt>
      <trkpt lat="43.49261" lon="6.22508">
        <ele>123</ele>
        <time>2022-04-15T13:37:59Z</time>
      </trkpt>
      <trkpt lat="43.49261" lon="6.22508">
        <ele>123</ele>
        <time>2022-04-15T13:38:00Z</time>
      </trkpt>
      <trkpt lat="43.4926" lon="6.22508">
        <ele>123</ele>
        <time>2022-04-15T13:38:01Z</time>
      </trkpt>
      <trkpt lat="43.4926" lon="6.22508">
        <ele>123</ele>
        <time>2022-04-15T13:38:02Z</time>
      </trkpt>
      <trkpt lat="43.49259" lon="6.22509">
        <ele>123</ele>
        <time>2022-04-15T13:38:03Z</time>
      </trkpt>
      <trkpt lat="43.49259" lon="6.22509">
        <ele>123</ele>
        <time>2022-04-15T13:38:04Z</time>
      </trkpt>
      <trkpt lat="43.49258" lon="6.22509">
        <ele>123</ele>
        <time>2022-04-15T13:38:05Z</time>
      </trkpt>
      <trkpt lat="43.49258" lon="6.22509">
        <ele>123</ele>
        <time>2022-04-15T13:38:06Z</time>
      </trkpt>
      <trkpt lat="43.49258" lon="6.22509">
        <ele>123</ele>
        <time>2022-04-15T13:38:07Z</time>
      </trkpt>
      <trkpt lat="43.49257" lon="6.2251">
        <ele>123</ele>
        <time>2022-04-15T13:38:08Z</time>
      </trkpt>
      <trkpt lat="43.49257" lon="6.2251">
        <ele>123</ele>
        <time>2022-04-15T13:38:09Z</time>
      </trkpt>
      <trkpt lat="43.49257" lon="6.2251">
        <ele>123</ele>
        <time>2022-04-15T13:38:10Z</time>
      </trkpt>
      <trkpt lat="43.49257" lon="6.2251">
        <ele>123</ele>
        <time>2022-04-15T13:38:11Z</time>
      </trkpt>
      <trkpt lat="43.49257" lon="6.2251">
        <ele>123</ele>
        <time>2022-04-15T13:38:12Z</time>
      </trkpt>
      <trkpt lat="43.49257" lon="6.2251">
        <ele>123</ele>
        <time>2022-04-15T13:38:13Z</time>
      </trkpt>
      <trkpt lat="43.49257" lon="6.2251">
        <ele>123</ele>
        <time>2022-04-15T13:38:14Z</time>
      </trkpt>
      <trkpt lat="43.49257" lon="6.2251">
        <ele>123</ele>
        <time>2022-04-15T13:38:15Z</time>
      </trkpt>
      <trkpt lat="43.49257" lon="6.2251">
        <ele>123</ele>
        <time>2022-04-15T13:38:16Z</time>
      </trkpt>
      <trkpt lat="43.49257" lon="6.2251">
        <ele>123</ele>
        <time>2022-04-15T13:38:17Z</time>
      </trkpt>
      <trkpt lat="43.49257" lon="6.2251">
        <ele>123</ele>
        <time>2022-04-15T13:38:18Z</time>
      </trkpt>
      <trkpt lat="43.49257" lon="6.2251">
        <ele>124</ele>
        <time>2022-04-15T13:38:19Z</time>
      </trkpt>
      <trkpt lat="43.49257" lon="6.2251">
        <ele>124</ele>
        <time>2022-04-15T13:38:20Z</time>
      </trkpt>
      <trkpt lat="43.49257" lon="6.2251">
        <ele>124</ele>
        <time>2022-04-15T13:38:21Z</time>
      </trkpt>
      <trkpt lat="43.49257" lon="6.2251">
        <ele>124</ele>
        <time>2022-04-15T13:38:22Z</time>
      </trkpt>
      <trkpt lat="43.49257" lon="6.2251">
        <ele>124</ele>
        <time>2022-04-15T13:38:23Z</time>
      </trkpt>
      <trkpt lat="43.49257" lon="6.2251">
        <ele>124</ele>
        <time>2022-04-15T13:38:24Z</time>
      </trkpt>
      <trkpt lat="43.49257" lon="6.2251">
        <ele>124</ele>
        <time>2022-04-15T13:38:25Z</time>
      </trkpt>
      <trkpt lat="43.49257" lon="6.2251">
        <ele>124</ele>
        <time>2022-04-15T13:38:26Z</time>
      </trkpt>
      <trkpt lat="43.49257" lon="6.2251">
        <ele>124</ele>
        <time>2022-04-15T13:38:27Z</time>
      </trkpt>
      <trkpt lat="43.49257" lon="6.2251">
        <ele>124</ele>
        <time>2022-04-15T13:38:28Z</time>
      </trkpt>
      <trkpt lat="43.49257" lon="6.2251">
        <ele>124</ele>
        <time>2022-04-15T13:38:29Z</time>
      </trkpt>
      <trkpt lat="43.49257" lon="6.2251">
        <ele>124</ele>
        <time>2022-04-15T13:38:30Z</time>
      </trkpt>
      <trkpt lat="43.49257" lon="6.2251">
        <ele>124</ele>
        <time>2022-04-15T13:38:31Z</time>
      </trkpt>
      <trkpt lat="43.49257" lon="6.2251">
        <ele>124</ele>
        <time>2022-04-15T13:38:32Z</time>
      </trkpt>
      <trkpt lat="43.49257" lon="6.2251">
        <ele>124</ele>
        <time>2022-04-15T13:38:33Z</time>
      </trkpt>
      <trkpt lat="43.49257" lon="6.2251">
        <ele>124</ele>
        <time>2022-04-15T13:38:34Z</time>
      </trkpt>
      <trkpt lat="43.49257" lon="6.2251">
        <ele>124</ele>
        <time>2022-04-15T13:38:35Z</time>
      </trkpt>
      <trkpt lat="43.49257" lon="6.2251">
        <ele>124</ele>
        <time>2022-04-15T13:38:36Z</time>
      </trkpt>
      <trkpt lat="43.49257" lon="6.2251">
        <ele>124</ele>
        <time>2022-04-15T13:38:37Z</time>
      </trkpt>
      <trkpt lat="43.49257" lon="6.2251">
        <ele>124</ele>
        <time>2022-04-15T13:38:38Z</time>
      </trkpt>
      <trkpt lat="43.49257" lon="6.2251">
        <ele>124</ele>
        <time>2022-04-15T13:38:39Z</time>
      </trkpt>
      <trkpt lat="43.49257" lon="6.2251">
        <ele>124</ele>
        <time>2022-04-15T13:38:40Z</time>
      </trkpt>
      <trkpt lat="43.49257" lon="6.2251">
        <ele>124</ele>
        <time>2022-04-15T13:38:41Z</time>
      </trkpt>
      <trkpt lat="43.49257" lon="6.2251">
        <ele>124</ele>
        <time>2022-04-15T13:38:42Z</time>
      </trkpt>
      <trkpt lat="43.49257" lon="6.2251">
        <ele>124</ele>
        <time>2022-04-15T13:38:43Z</time>
      </trkpt>
      <trkpt lat="43.49257" lon="6.2251">
        <ele>124</ele>
        <time>2022-04-15T13:38:44Z</time>
      </trkpt>
      <trkpt lat="43.49257" lon="6.2251">
        <ele>124</ele>
        <time>2022-04-15T13:38:45Z</time>
      </trkpt>
      <trkpt lat="43.49257" lon="6.2251">
        <ele>124</ele>
        <time>2022-04-15T13:38:46Z</time>
      </trkpt>
      <trkpt lat="43.49257" lon="6.2251">
        <ele>124</ele>
        <time>2022-04-15T13:38:47Z</time>
      </trkpt>
      <trkpt lat="43.49257" lon="6.2251">
        <ele>124</ele>
        <time>2022-04-15T13:38:48Z</time>
      </trkpt>
      <trkpt lat="43.49257" lon="6.2251">
        <ele>124</ele>
        <time>2022-04-15T13:38:49Z</time>
      </trkpt>
      <trkpt lat="43.49257" lon="6.2251">
        <ele>124</ele>
        <time>2022-04-15T13:38:50Z</time>
      </trkpt>
      <trkpt lat="43.49257" lon="6.2251">
        <ele>124</ele>
        <time>2022-04-15T13:38:51Z</time>
      </trkpt>
      <trkpt lat="43.49257" lon="6.2251">
        <ele>124</ele>
        <time>2022-04-15T13:38:52Z</time>
      </trkpt>
      <trkpt lat="43.49257" lon="6.2251">
        <ele>124</ele>
        <time>2022-04-15T13:38:53Z</time>
      </trkpt>
      <trkpt lat="43.49257" lon="6.2251">
        <ele>124</ele>
        <time>2022-04-15T13:38:54Z</time>
      </trkpt>
      <trkpt lat="43.49257" lon="6.2251">
        <ele>124</ele>
        <time>2022-04-15T13:38:55Z</time>
      </trkpt>
      <trkpt lat="43.49257" lon="6.2251">
        <ele>124</ele>
        <time>2022-04-15T13:38:56Z</time>
      </trkpt>
      <trkpt lat="43.49257" lon="6.2251">
        <ele>124</ele>
        <time>2022-04-15T13:38:57Z</time>
      </trkpt>
      <trkpt lat="43.49257" lon="6.2251">
        <ele>124</ele>
        <time>2022-04-15T13:38:58Z</time>
      </trkpt>
      <trkpt lat="43.49257" lon="6.2251">
        <ele>124</ele>
        <time>2022-04-15T13:38:59Z</time>
      </trkpt>
      <trkpt lat="43.49257" lon="6.2251">
        <ele>124</ele>
        <time>2022-04-15T13:39:00Z</time>
      </trkpt>
      <trkpt lat="43.49257" lon="6.2251">
        <ele>124</ele>
        <time>2022-04-15T13:39:01Z</time>
      </trkpt>
      <trkpt lat="43.49257" lon="6.2251">
        <ele>124</ele>
        <time>2022-04-15T13:39:02Z</time>
      </trkpt>
      <trkpt lat="43.49257" lon="6.2251">
        <ele>124</ele>
        <time>2022-04-15T13:39:03Z</time>
      </trkpt>
      <trkpt lat="43.49257" lon="6.2251">
        <ele>124</ele>
        <time>2022-04-15T13:39:04Z</time>
      </trkpt>
      <trkpt lat="43.49257" lon="6.2251">
        <ele>124</ele>
        <time>2022-04-15T13:39:05Z</time>
      </trkpt>
      <trkpt lat="43.49257" lon="6.2251">
        <ele>124</ele>
        <time>2022-04-15T13:39:06Z</time>
      </trkpt>
      <trkpt lat="43.49257" lon="6.2251">
        <ele>124</ele>
        <time>2022-04-15T13:39:07Z</time>
      </trkpt>
      <trkpt lat="43.49257" lon="6.2251">
        <ele>124</ele>
        <time>2022-04-15T13:39:08Z</time>
      </trkpt>
      <trkpt lat="43.49257" lon="6.2251">
        <ele>124</ele>
        <time>2022-04-15T13:39:09Z</time>
      </trkpt>
      <trkpt lat="43.49257" lon="6.2251">
        <ele>124</ele>
        <time>2022-04-15T13:39:10Z</time>
      </trkpt>
      <trkpt lat="43.49257" lon="6.2251">
        <ele>124</ele>
        <time>2022-04-15T13:39:11Z</time>
      </trkpt>
      <trkpt lat="43.49257" lon="6.2251">
        <ele>124</ele>
        <time>2022-04-15T13:39:12Z</time>
      </trkpt>
      <trkpt lat="43.49257" lon="6.2251">
        <ele>124</ele>
        <time>2022-04-15T13:39:13Z</time>
      </trkpt>
      <trkpt lat="43.49257" lon="6.2251">
        <ele>124</ele>
        <time>2022-04-15T13:39:14Z</time>
      </trkpt>
      <trkpt lat="43.49257" lon="6.2251">
        <ele>124</ele>
        <time>2022-04-15T13:39:15Z</time>
      </trkpt>
      <trkpt lat="43.49257" lon="6.2251">
        <ele>124</ele>
        <time>2022-04-15T13:39:16Z</time>
      </trkpt>
      <trkpt lat="43.49257" lon="6.2251">
        <ele>124</ele>
        <time>2022-04-15T13:39:17Z</time>
      </trkpt>
      <trkpt lat="43.49257" lon="6.2251">
        <ele>124</ele>
        <time>2022-04-15T13:39:18Z</time>
      </trkpt>
      <trkpt lat="43.49257" lon="6.2251">
        <ele>124</ele>
        <time>2022-04-15T13:39:19Z</time>
      </trkpt>
      <trkpt lat="43.49257" lon="6.2251">
        <ele>124</ele>
        <time>2022-04-15T13:39:20Z</time>
      </trkpt>
      <trkpt lat="43.49257" lon="6.2251">
        <ele>124</ele>
        <time>2022-04-15T13:39:21Z</time>
      </trkpt>
      <trkpt lat="43.49257" lon="6.2251">
        <ele>124</ele>
        <time>2022-04-15T13:39:22Z</time>
      </trkpt>
      <trkpt lat="43.49256" lon="6.22512">
        <ele>124</ele>
        <time>2022-04-15T13:39:23Z</time>
      </trkpt>
      <trkpt lat="43.49256" lon="6.22512">
        <ele>124</ele>
        <time>2022-04-15T13:39:24Z</time>
      </trkpt>
      <trkpt lat="43.49256" lon="6.22512">
        <ele>124</ele>
        <time>2022-04-15T13:39:25Z</time>
      </trkpt>
      <trkpt lat="43.49256" lon="6.22512">
        <ele>124</ele>
        <time>2022-04-15T13:39:26Z</time>
      </trkpt>
      <trkpt lat="43.49256" lon="6.22511">
        <ele>124</ele>
        <time>2022-04-15T13:39:27Z</time>
      </trkpt>
      <trkpt lat="43.49256" lon="6.22511">
        <ele>124</ele>
        <time>2022-04-15T13:39:28Z</time>
      </trkpt>
      <trkpt lat="43.49256" lon="6.22511">
        <ele>124</ele>
        <time>2022-04-15T13:39:29Z</time>
      </trkpt>
      <trkpt lat="43.49256" lon="6.22511">
        <ele>124</ele>
        <time>2022-04-15T13:39:30Z</time>
      </trkpt>
      <trkpt lat="43.49256" lon="6.22511">
        <ele>124</ele>
        <time>2022-04-15T13:39:31Z</time>
      </trkpt>
      <trkpt lat="43.49256" lon="6.22511">
        <ele>124</ele>
        <time>2022-04-15T13:39:32Z</time>
      </trkpt>
      <trkpt lat="43.49256" lon="6.22511">
        <ele>124</ele>
        <time>2022-04-15T13:39:33Z</time>
      </trkpt>
      <trkpt lat="43.49256" lon="6.22511">
        <ele>124</ele>
        <time>2022-04-15T13:39:34Z</time>
      </trkpt>
      <trkpt lat="43.49256" lon="6.22511">
        <ele>124</ele>
        <time>2022-04-15T13:39:35Z</time>
      </trkpt>
      <trkpt lat="43.49256" lon="6.22511">
        <ele>124</ele>
        <time>2022-04-15T13:39:36Z</time>
      </trkpt>
      <trkpt lat="43.49256" lon="6.22511">
        <ele>124</ele>
        <time>2022-04-15T13:39:37Z</time>
      </trkpt>
      <trkpt lat="43.49256" lon="6.22511">
        <ele>124</ele>
        <time>2022-04-15T13:39:38Z</time>
      </trkpt>
      <trkpt lat="43.49256" lon="6.22511">
        <ele>124</ele>
        <time>2022-04-15T13:39:39Z</time>
      </trkpt>
      <trkpt lat="43.49256" lon="6.22511">
        <ele>124</ele>
        <time>2022-04-15T13:39:40Z</time>
      </trkpt>
      <trkpt lat="43.49256" lon="6.22511">
        <ele>124</ele>
        <time>2022-04-15T13:39:41Z</time>
      </trkpt>
      <trkpt lat="43.49256" lon="6.22511">
        <ele>124</ele>
        <time>2022-04-15T13:39:42Z</time>
      </trkpt>
      <trkpt lat="43.49256" lon="6.22511">
        <ele>124</ele>
        <time>2022-04-15T13:39:43Z</time>
      </trkpt>
      <trkpt lat="43.49256" lon="6.22511">
        <ele>124</ele>
        <time>2022-04-15T13:39:44Z</time>
      </trkpt>
      <trkpt lat="43.49256" lon="6.22511">
        <ele>124</ele>
        <time>2022-04-15T13:39:45Z</time>
      </trkpt>
      <trkpt lat="43.49256" lon="6.22511">
        <ele>124</ele>
        <time>2022-04-15T13:39:46Z</time>
      </trkpt>
      <trkpt lat="43.49256" lon="6.22511">
        <ele>124</ele>
        <time>2022-04-15T13:39:47Z</time>
      </trkpt>
      <trkpt lat="43.49256" lon="6.22511">
        <ele>124</ele>
        <time>2022-04-15T13:39:48Z</time>
      </trkpt>
      <trkpt lat="43.49256" lon="6.22511">
        <ele>124</ele>
        <time>2022-04-15T13:39:49Z</time>
      </trkpt>
      <trkpt lat="43.49256" lon="6.22511">
        <ele>124</ele>
        <time>2022-04-15T13:39:50Z</time>
      </trkpt>
      <trkpt lat="43.49256" lon="6.22511">
        <ele>124</ele>
        <time>2022-04-15T13:39:51Z</time>
      </trkpt>
      <trkpt lat="43.49256" lon="6.22511">
        <ele>124</ele>
        <time>2022-04-15T13:39:52Z</time>
      </trkpt>
      <trkpt lat="43.49256" lon="6.22511">
        <ele>124</ele>
        <time>2022-04-15T13:39:53Z</time>
      </trkpt>
      <trkpt lat="43.49256" lon="6.22511">
        <ele>124</ele>
        <time>2022-04-15T13:39:54Z</time>
      </trkpt>
      <trkpt lat="43.49256" lon="6.22511">
        <ele>124</ele>
        <time>2022-04-15T13:39:55Z</time>
      </trkpt>
      <trkpt lat="43.49256" lon="6.22511">
        <ele>124</ele>
        <time>2022-04-15T13:39:56Z</time>
      </trkpt>
      <trkpt lat="43.49256" lon="6.22511">
        <ele>124</ele>
        <time>2022-04-15T13:39:57Z</time>
      </trkpt>
      <trkpt lat="43.49256" lon="6.2251">
        <ele>124</ele>
        <time>2022-04-15T13:39:58Z</time>
      </trkpt>
      <trkpt lat="43.49257" lon="6.2251">
        <ele>124</ele>
        <time>2022-04-15T13:39:59Z</time>
      </trkpt>
      <trkpt lat="43.49257" lon="6.2251">
        <ele>124</ele>
        <time>2022-04-15T13:40:00Z</time>
      </trkpt>
      <trkpt lat="43.49257" lon="6.2251">
        <ele>124</ele>
        <time>2022-04-15T13:40:01Z</time>
      </trkpt>
      <trkpt lat="43.49257" lon="6.2251">
        <ele>124</ele>
        <time>2022-04-15T13:40:02Z</time>
      </trkpt>
      <trkpt lat="43.49257" lon="6.2251">
        <ele>124</ele>
        <time>2022-04-15T13:40:03Z</time>
      </trkpt>
      <trkpt lat="43.49257" lon="6.2251">
        <ele>124</ele>
        <time>2022-04-15T13:40:04Z</time>
      </trkpt>
      <trkpt lat="43.49257" lon="6.2251">
        <ele>124</ele>
        <time>2022-04-15T13:40:05Z</time>
      </trkpt>
      <trkpt lat="43.49257" lon="6.2251">
        <ele>124</ele>
        <time>2022-04-15T13:40:06Z</time>
      </trkpt>
      <trkpt lat="43.49257" lon="6.2251">
        <ele>124</ele>
        <time>2022-04-15T13:40:07Z</time>
      </trkpt>
      <trkpt lat="43.49257" lon="6.2251">
        <ele>124</ele>
        <time>2022-04-15T13:40:08Z</time>
      </trkpt>
      <trkpt lat="43.49257" lon="6.2251">
        <ele>124</ele>
        <time>2022-04-15T13:40:09Z</time>
      </trkpt>
      <trkpt lat="43.49257" lon="6.2251">
        <ele>124</ele>
        <time>2022-04-15T13:40:10Z</time>
      </trkpt>
      <trkpt lat="43.49257" lon="6.2251">
        <ele>124</ele>
        <time>2022-04-15T13:40:11Z</time>
      </trkpt>
      <trkpt lat="43.49257" lon="6.2251">
        <ele>124</ele>
        <time>2022-04-15T13:40:12Z</time>
      </trkpt>
      <trkpt lat="43.49257" lon="6.2251">
        <ele>124</ele>
        <time>2022-04-15T13:40:13Z</time>
      </trkpt>
      <trkpt lat="43.49257" lon="6.2251">
        <ele>124</ele>
        <time>2022-04-15T13:40:14Z</time>
      </trkpt>
      <trkpt lat="43.49257" lon="6.2251">
        <ele>124</ele>
        <time>2022-04-15T13:40:15Z</time>
      </trkpt>
      <trkpt lat="43.49257" lon="6.2251">
        <ele>124</ele>
        <time>2022-04-15T13:40:16Z</time>
      </trkpt>
      <trkpt lat="43.49257" lon="6.2251">
        <ele>124</ele>
        <time>2022-04-15T13:40:17Z</time>
      </trkpt>
      <trkpt lat="43.49257" lon="6.2251">
        <ele>124</ele>
        <time>2022-04-15T13:40:18Z</time>
      </trkpt>
      <trkpt lat="43.49257" lon="6.2251">
        <ele>124</ele>
        <time>2022-04-15T13:40:19Z</time>
      </trkpt>
      <trkpt lat="43.49257" lon="6.2251">
        <ele>124</ele>
        <time>2022-04-15T13:40:20Z</time>
      </trkpt>
      <trkpt lat="43.49258" lon="6.22509">
        <ele>124</ele>
        <time>2022-04-15T13:40:21Z</time>
      </trkpt>
      <trkpt lat="43.49258" lon="6.22509">
        <ele>124</ele>
        <time>2022-04-15T13:40:22Z</time>
      </trkpt>
      <trkpt lat="43.49258" lon="6.22509">
        <ele>124</ele>
        <time>2022-04-15T13:40:23Z</time>
      </trkpt>
      <trkpt lat="43.49258" lon="6.22509">
        <ele>124</ele>
        <time>2022-04-15T13:40:24Z</time>
      </trkpt>
      <trkpt lat="43.49258" lon="6.22509">
        <ele>124</ele>
        <time>2022-04-15T13:40:25Z</time>
      </trkpt>
      <trkpt lat="43.49258" lon="6.22509">
        <ele>124</ele>
        <time>2022-04-15T13:40:26Z</time>
      </trkpt>
      <trkpt lat="43.49258" lon="6.22509">
        <ele>124</ele>
        <time>2022-04-15T13:40:27Z</time>
      </trkpt>
      <trkpt lat="43.49257" lon="6.22509">
        <ele>124</ele>
        <time>2022-04-15T13:40:28Z</time>
      </trkpt>
      <trkpt lat="43.49257" lon="6.22509">
        <ele>124</ele>
        <time>2022-04-15T13:40:29Z</time>
      </trkpt>
      <trkpt lat="43.49257" lon="6.22509">
        <ele>124</ele>
        <time>2022-04-15T13:40:30Z</time>
      </trkpt>
      <trkpt lat="43.49257" lon="6.22509">
        <ele>124</ele>
        <time>2022-04-15T13:40:31Z</time>
      </trkpt>
      <trkpt lat="43.49257" lon="6.22509">
        <ele>124</ele>
        <time>2022-04-15T13:40:32Z</time>
      </trkpt>
      <trkpt lat="43.49257" lon="6.22509">
        <ele>124</ele>
        <time>2022-04-15T13:40:33Z</time>
      </trkpt>
      <trkpt lat="43.49257" lon="6.22509">
        <ele>124</ele>
        <time>2022-04-15T13:40:34Z</time>
      </trkpt>
      <trkpt lat="43.49257" lon="6.22509">
        <ele>124</ele>
        <time>2022-04-15T13:40:35Z</time>
      </trkpt>
      <trkpt lat="43.49257" lon="6.22509">
        <ele>124</ele>
        <time>2022-04-15T13:40:36Z</time>
      </trkpt>
      <trkpt lat="43.49257" lon="6.22509">
        <ele>124</ele>
        <time>2022-04-15T13:40:37Z</time>
      </trkpt>
      <trkpt lat="43.49258" lon="6.22509">
        <ele>124</ele>
        <time>2022-04-15T13:40:38Z</time>
      </trkpt>
      <trkpt lat="43.49258" lon="6.22509">
        <ele>124</ele>
        <time>2022-04-15T13:40:39Z</time>
      </trkpt>
      <trkpt lat="43.49258" lon="6.22509">
        <ele>124</ele>
        <time>2022-04-15T13:40:40Z</time>
      </trkpt>
      <trkpt lat="43.49258" lon="6.22509">
        <ele>124</ele>
        <time>2022-04-15T13:40:41Z</time>
      </trkpt>
      <trkpt lat="43.49258" lon="6.22509">
        <ele>124</ele>
        <time>2022-04-15T13:40:42Z</time>
      </trkpt>
      <trkpt lat="43.49258" lon="6.22509">
        <ele>124</ele>
        <time>2022-04-15T13:40:43Z</time>
      </trkpt>
      <trkpt lat="43.49258" lon="6.22509">
        <ele>124</ele>
        <time>2022-04-15T13:40:44Z</time>
      </trkpt>
      <trkpt lat="43.49258" lon="6.22509">
        <ele>124</ele>
        <time>2022-04-15T13:40:45Z</time>
      </trkpt>
      <trkpt lat="43.49258" lon="6.22509">
        <ele>124</ele>
        <time>2022-04-15T13:40:46Z</time>
      </trkpt>
      <trkpt lat="43.49257" lon="6.22509">
        <ele>124</ele>
        <time>2022-04-15T13:40:47Z</time>
      </trkpt>
      <trkpt lat="43.49257" lon="6.22509">
        <ele>124</ele>
        <time>2022-04-15T13:40:48Z</time>
      </trkpt>
      <trkpt lat="43.49256" lon="6.22509">
        <ele>124</ele>
        <time>2022-04-15T13:40:49Z</time>
      </trkpt>
      <trkpt lat="43.49255" lon="6.22509">
        <ele>124</ele>
        <time>2022-04-15T13:40:50Z</time>
      </trkpt>
      <trkpt lat="43.49255" lon="6.22509">
        <ele>124</ele>
        <time>2022-04-15T13:40:51Z</time>
      </trkpt>
      <trkpt lat="43.49254" lon="6.2251">
        <ele>124</ele>
        <time>2022-04-15T13:40:52Z</time>
      </trkpt>
      <trkpt lat="43.49254" lon="6.2251">
        <ele>124</ele>
        <time>2022-04-15T13:40:53Z</time>
      </trkpt>
      <trkpt lat="43.49254" lon="6.22511">
        <ele>124</ele>
        <time>2022-04-15T13:40:54Z</time>
      </trkpt>
      <trkpt lat="43.49253" lon="6.22511">
        <ele>124</ele>
        <time>2022-04-15T13:40:55Z</time>
      </trkpt>
      <trkpt lat="43.49253" lon="6.22512">
        <ele>124</ele>
        <time>2022-04-15T13:40:56Z</time>
      </trkpt>
      <trkpt lat="43.49253" lon="6.22512">
        <ele>124</ele>
        <time>2022-04-15T13:40:57Z</time>
      </trkpt>
      <trkpt lat="43.49252" lon="6.22513">
        <ele>124</ele>
        <time>2022-04-15T13:40:58Z</time>
      </trkpt>
      <trkpt lat="43.49252" lon="6.22513">
        <ele>124</ele>
        <time>2022-04-15T13:40:59Z</time>
      </trkpt>
      <trkpt lat="43.49251" lon="6.22514">
        <ele>124</ele>
        <time>2022-04-15T13:41:00Z</time>
      </trkpt>
      <trkpt lat="43.4925" lon="6.22515">
        <ele>124</ele>
        <time>2022-04-15T13:41:01Z</time>
      </trkpt>
      <trkpt lat="43.4925" lon="6.22516">
        <ele>124</ele>
        <time>2022-04-15T13:41:02Z</time>
      </trkpt>
      <trkpt lat="43.49249" lon="6.22517">
        <ele>123</ele>
        <time>2022-04-15T13:41:03Z</time>
      </trkpt>
      <trkpt lat="43.49249" lon="6.22518">
        <ele>122</ele>
        <time>2022-04-15T13:41:04Z</time>
      </trkpt>
      <trkpt lat="43.49249" lon="6.22519">
        <ele>122</ele>
        <time>2022-04-15T13:41:05Z</time>
      </trkpt>
      <trkpt lat="43.49249" lon="6.22519">
        <ele>122</ele>
        <time>2022-04-15T13:41:06Z</time>
      </trkpt>
      <trkpt lat="43.49249" lon="6.22519">
        <ele>122</ele>
        <time>2022-04-15T13:41:07Z</time>
      </trkpt>
      <trkpt lat="43.49249" lon="6.2252">
        <ele>122</ele>
        <time>2022-04-15T13:41:08Z</time>
      </trkpt>
      <trkpt lat="43.49248" lon="6.22521">
        <ele>122</ele>
        <time>2022-04-15T13:41:09Z</time>
      </trkpt>
      <trkpt lat="43.49248" lon="6.22522">
        <ele>122</ele>
        <time>2022-04-15T13:41:10Z</time>
      </trkpt>
      <trkpt lat="43.49247" lon="6.22523">
        <ele>122</ele>
        <time>2022-04-15T13:41:11Z</time>
      </trkpt>
      <trkpt lat="43.49247" lon="6.22525">
        <ele>122</ele>
        <time>2022-04-15T13:41:12Z</time>
      </trkpt>
      <trkpt lat="43.49246" lon="6.22526">
        <ele>122</ele>
        <time>2022-04-15T13:41:13Z</time>
      </trkpt>
      <trkpt lat="43.49245" lon="6.22527">
        <ele>122</ele>
        <time>2022-04-15T13:41:14Z</time>
      </trkpt>
      <trkpt lat="43.49245" lon="6.22528">
        <ele>122</ele>
        <time>2022-04-15T13:41:15Z</time>
      </trkpt>
      <trkpt lat="43.49244" lon="6.22528">
        <ele>122</ele>
        <time>2022-04-15T13:41:16Z</time>
      </trkpt>
      <trkpt lat="43.49244" lon="6.22529">
        <ele>122</ele>
        <time>2022-04-15T13:41:17Z</time>
      </trkpt>
      <trkpt lat="43.49243" lon="6.2253">
        <ele>122</ele>
        <time>2022-04-15T13:41:18Z</time>
      </trkpt>
      <trkpt lat="43.49243" lon="6.2253">
        <ele>122</ele>
        <time>2022-04-15T13:41:19Z</time>
      </trkpt>
      <trkpt lat="43.49241" lon="6.22532">
        <ele>122</ele>
        <time>2022-04-15T13:41:20Z</time>
      </trkpt>
      <trkpt lat="43.49239" lon="6.22534">
        <ele>122</ele>
        <time>2022-04-15T13:41:21Z</time>
      </trkpt>
      <trkpt lat="43.49238" lon="6.22536">
        <ele>123</ele>
        <time>2022-04-15T13:41:22Z</time>
      </trkpt>
      <trkpt lat="43.49236" lon="6.22537">
        <ele>123</ele>
        <time>2022-04-15T13:41:23Z</time>
      </trkpt>
      <trkpt lat="43.49234" lon="6.22538">
        <ele>123</ele>
        <time>2022-04-15T13:41:24Z</time>
      </trkpt>
      <trkpt lat="43.49233" lon="6.22539">
        <ele>123</ele>
        <time>2022-04-15T13:41:25Z</time>
      </trkpt>
      <trkpt lat="43.49231" lon="6.22539">
        <ele>123</ele>
        <time>2022-04-15T13:41:26Z</time>
      </trkpt>
      <trkpt lat="43.4923" lon="6.2254">
        <ele>123</ele>
        <time>2022-04-15T13:41:27Z</time>
      </trkpt>
      <trkpt lat="43.49229" lon="6.2254">
        <ele>123</ele>
        <time>2022-04-15T13:41:28Z</time>
      </trkpt>
      <trkpt lat="43.49228" lon="6.2254">
        <ele>123</ele>
        <time>2022-04-15T13:41:29Z</time>
      </trkpt>
      <trkpt lat="43.49227" lon="6.2254">
        <ele>124</ele>
        <time>2022-04-15T13:41:30Z</time>
      </trkpt>
      <trkpt lat="43.49227" lon="6.2254">
        <ele>124</ele>
        <time>2022-04-15T13:41:31Z</time>
      </trkpt>
      <trkpt lat="43.49227" lon="6.2254">
        <ele>124</ele>
        <time>2022-04-15T13:41:32Z</time>
      </trkpt>
      <trkpt lat="43.49226" lon="6.2254">
        <ele>124</ele>
        <time>2022-04-15T13:41:33Z</time>
      </trkpt>
      <trkpt lat="43.49226" lon="6.22541">
        <ele>124</ele>
        <time>2022-04-15T13:41:34Z</time>
      </trkpt>
      <trkpt lat="43.49226" lon="6.22541">
        <ele>124</ele>
        <time>2022-04-15T13:41:35Z</time>
      </trkpt>
      <trkpt lat="43.49224" lon="6.22542">
        <ele>124</ele>
        <time>2022-04-15T13:41:36Z</time>
      </trkpt>
      <trkpt lat="43.49224" lon="6.22542">
        <ele>124</ele>
        <time>2022-04-15T13:41:37Z</time>
      </trkpt>
      <trkpt lat="43.49223" lon="6.22543">
        <ele>124</ele>
        <time>2022-04-15T13:41:38Z</time>
      </trkpt>
      <trkpt lat="43.49222" lon="6.22543">
        <ele>124</ele>
        <time>2022-04-15T13:41:39Z</time>
      </trkpt>
      <trkpt lat="43.49222" lon="6.22544">
        <ele>123</ele>
        <time>2022-04-15T13:41:40Z</time>
      </trkpt>
      <trkpt lat="43.49221" lon="6.22544">
        <ele>123</ele>
        <time>2022-04-15T13:41:41Z</time>
      </trkpt>
      <trkpt lat="43.49221" lon="6.22544">
        <ele>123</ele>
        <time>2022-04-15T13:41:42Z</time>
      </trkpt>
      <trkpt lat="43.49221" lon="6.22545">
        <ele>123</ele>
        <time>2022-04-15T13:41:43Z</time>
      </trkpt>
      <trkpt lat="43.4922" lon="6.22545">
        <ele>123</ele>
        <time>2022-04-15T13:41:44Z</time>
      </trkpt>
      <trkpt lat="43.4922" lon="6.22545">
        <ele>123</ele>
        <time>2022-04-15T13:41:45Z</time>
      </trkpt>
      <trkpt lat="43.4922" lon="6.22545">
        <ele>123</ele>
        <time>2022-04-15T13:41:46Z</time>
      </trkpt>
      <trkpt lat="43.49219" lon="6.22545">
        <ele>123</ele>
        <time>2022-04-15T13:41:47Z</time>
      </trkpt>
      <trkpt lat="43.49219" lon="6.22546">
        <ele>123</ele>
        <time>2022-04-15T13:41:48Z</time>
      </trkpt>
      <trkpt lat="43.49218" lon="6.22546">
        <ele>123</ele>
        <time>2022-04-15T13:41:49Z</time>
      </trkpt>
      <trkpt lat="43.49218" lon="6.22547">
        <ele>124</ele>
        <time>2022-04-15T13:41:50Z</time>
      </trkpt>
      <trkpt lat="43.49218" lon="6.22547">
        <ele>124</ele>
        <time>2022-04-15T13:41:51Z</time>
      </trkpt>
      <trkpt lat="43.49218" lon="6.22547">
        <ele>124</ele>
        <time>2022-04-15T13:41:52Z</time>
      </trkpt>
      <trkpt lat="43.49218" lon="6.22547">
        <ele>124</ele>
        <time>2022-04-15T13:41:53Z</time>
      </trkpt>
      <trkpt lat="43.49218" lon="6.22548">
        <ele>124</ele>
        <time>2022-04-15T13:41:54Z</time>
      </trkpt>
      <trkpt lat="43.49217" lon="6.22549">
        <ele>124</ele>
        <time>2022-04-15T13:41:55Z</time>
      </trkpt>
      <trkpt lat="43.49216" lon="6.2255">
        <ele>124</ele>
        <time>2022-04-15T13:41:56Z</time>
      </trkpt>
      <trkpt lat="43.49216" lon="6.22552">
        <ele>124</ele>
        <time>2022-04-15T13:41:57Z</time>
      </trkpt>
      <trkpt lat="43.49215" lon="6.22553">
        <ele>124</ele>
        <time>2022-04-15T13:41:58Z</time>
      </trkpt>
      <trkpt lat="43.49215" lon="6.22554">
        <ele>124</ele>
        <time>2022-04-15T13:41:59Z</time>
      </trkpt>
      <trkpt lat="43.49214" lon="6.22557">
        <ele>124</ele>
        <time>2022-04-15T13:42:00Z</time>
      </trkpt>
      <trkpt lat="43.49213" lon="6.22558">
        <ele>124</ele>
        <time>2022-04-15T13:42:01Z</time>
      </trkpt>
      <trkpt lat="43.49212" lon="6.2256">
        <ele>124</ele>
        <time>2022-04-15T13:42:02Z</time>
      </trkpt>
      <trkpt lat="43.49211" lon="6.22562">
        <ele>124</ele>
        <time>2022-04-15T13:42:03Z</time>
      </trkpt>
      <trkpt lat="43.49211" lon="6.22564">
        <ele>124</ele>
        <time>2022-04-15T13:42:04Z</time>
      </trkpt>
      <trkpt lat="43.49211" lon="6.22565">
        <ele>125</ele>
        <time>2022-04-15T13:42:05Z</time>
      </trkpt>
      <trkpt lat="43.4921" lon="6.22566">
        <ele>125</ele>
        <time>2022-04-15T13:42:06Z</time>
      </trkpt>
      <trkpt lat="43.4921" lon="6.22567">
        <ele>125</ele>
        <time>2022-04-15T13:42:07Z</time>
      </trkpt>
      <trkpt lat="43.4921" lon="6.22568">
        <ele>125</ele>
        <time>2022-04-15T13:42:08Z</time>
      </trkpt>
      <trkpt lat="43.49209" lon="6.22569">
        <ele>124</ele>
        <time>2022-04-15T13:42:09Z</time>
      </trkpt>
      <trkpt lat="43.49209" lon="6.2257">
        <ele>124</ele>
        <time>2022-04-15T13:42:10Z</time>
      </trkpt>
      <trkpt lat="43.49208" lon="6.22572">
        <ele>124</ele>
        <time>2022-04-15T13:42:11Z</time>
      </trkpt>
      <trkpt lat="43.49208" lon="6.22573">
        <ele>124</ele>
        <time>2022-04-15T13:42:12Z</time>
      </trkpt>
      <trkpt lat="43.49207" lon="6.22574">
        <ele>124</ele>
        <time>2022-04-15T13:42:13Z</time>
      </trkpt>
      <trkpt lat="43.49207" lon="6.22576">
        <ele>124</ele>
        <time>2022-04-15T13:42:14Z</time>
      </trkpt>
      <trkpt lat="43.49206" lon="6.22577">
        <ele>124</ele>
        <time>2022-04-15T13:42:15Z</time>
      </trkpt>
      <trkpt lat="43.49206" lon="6.22579">
        <ele>124</ele>
        <time>2022-04-15T13:42:16Z</time>
      </trkpt>
      <trkpt lat="43.49205" lon="6.2258">
        <ele>124</ele>
        <time>2022-04-15T13:42:17Z</time>
      </trkpt>
      <trkpt lat="43.49205" lon="6.22581">
        <ele>124</ele>
        <time>2022-04-15T13:42:18Z</time>
      </trkpt>
      <trkpt lat="43.49204" lon="6.22583">
        <ele>124</ele>
        <time>2022-04-15T13:42:19Z</time>
      </trkpt>
      <trkpt lat="43.49204" lon="6.22584">
        <ele>124</ele>
        <time>2022-04-15T13:42:20Z</time>
      </trkpt>
      <trkpt lat="43.49204" lon="6.22586">
        <ele>124</ele>
        <time>2022-04-15T13:42:21Z</time>
      </trkpt>
      <trkpt lat="43.49203" lon="6.22587">
        <ele>124</ele>
        <time>2022-04-15T13:42:22Z</time>
      </trkpt>
      <trkpt lat="43.49202" lon="6.22588">
        <ele>124</ele>
        <time>2022-04-15T13:42:23Z</time>
      </trkpt>
      <trkpt lat="43.49201" lon="6.2259">
        <ele>124</ele>
        <time>2022-04-15T13:42:24Z</time>
      </trkpt>
      <trkpt lat="43.49201" lon="6.22591">
        <ele>124</ele>
        <time>2022-04-15T13:42:25Z</time>
      </trkpt>
      <trkpt lat="43.49201" lon="6.22593">
        <ele>124</ele>
        <time>2022-04-15T13:42:26Z</time>
      </trkpt>
      <trkpt lat="43.492" lon="6.22594">
        <ele>124</ele>
        <time>2022-04-15T13:42:27Z</time>
      </trkpt>
      <trkpt lat="43.492" lon="6.22596">
        <ele>124</ele>
        <time>2022-04-15T13:42:28Z</time>
      </trkpt>
      <trkpt lat="43.49199" lon="6.22597">
        <ele>124</ele>
        <time>2022-04-15T13:42:29Z</time>
      </trkpt>
      <trkpt lat="43.49199" lon="6.22599">
        <ele>124</ele>
        <time>2022-04-15T13:42:30Z</time>
      </trkpt>
      <trkpt lat="43.49198" lon="6.22601">
        <ele>124</ele>
        <time>2022-04-15T13:42:31Z</time>
      </trkpt>
      <trkpt lat="43.49198" lon="6.22603">
        <ele>123</ele>
        <time>2022-04-15T13:42:32Z</time>
      </trkpt>
      <trkpt lat="43.49197" lon="6.22605">
        <ele>123</ele>
        <time>2022-04-15T13:42:33Z</time>
      </trkpt>
      <trkpt lat="43.49197" lon="6.22606">
        <ele>123</ele>
        <time>2022-04-15T13:42:34Z</time>
      </trkpt>
      <trkpt lat="43.49196" lon="6.22608">
        <ele>123</ele>
        <time>2022-04-15T13:42:35Z</time>
      </trkpt>
      <trkpt lat="43.49196" lon="6.22609">
        <ele>123</ele>
        <time>2022-04-15T13:42:36Z</time>
      </trkpt>
      <trkpt lat="43.49195" lon="6.2261">
        <ele>123</ele>
        <time>2022-04-15T13:42:37Z</time>
      </trkpt>
      <trkpt lat="43.49195" lon="6.22612">
        <ele>123</ele>
        <time>2022-04-15T13:42:38Z</time>
      </trkpt>
      <trkpt lat="43.49194" lon="6.22613">
        <ele>123</ele>
        <time>2022-04-15T13:42:39Z</time>
      </trkpt>
      <trkpt lat="43.49194" lon="6.22615">
        <ele>123</ele>
        <time>2022-04-15T13:42:40Z</time>
      </trkpt>
      <trkpt lat="43.49194" lon="6.22616">
        <ele>123</ele>
        <time>2022-04-15T13:42:41Z</time>
      </trkpt>
      <trkpt lat="43.49193" lon="6.22617">
        <ele>123</ele>
        <time>2022-04-15T13:42:42Z</time>
      </trkpt>
      <trkpt lat="43.49193" lon="6.22619">
        <ele>123</ele>
        <time>2022-04-15T13:42:43Z</time>
      </trkpt>
      <trkpt lat="43.49192" lon="6.2262">
        <ele>123</ele>
        <time>2022-04-15T13:42:44Z</time>
      </trkpt>
      <trkpt lat="43.49192" lon="6.22621">
        <ele>123</ele>
        <time>2022-04-15T13:42:45Z</time>
      </trkpt>
      <trkpt lat="43.49192" lon="6.22623">
        <ele>123</ele>
        <time>2022-04-15T13:42:46Z</time>
      </trkpt>
      <trkpt lat="43.49191" lon="6.22624">
        <ele>123</ele>
        <time>2022-04-15T13:42:47Z</time>
      </trkpt>
      <trkpt lat="43.49191" lon="6.22626">
        <ele>123</ele>
        <time>2022-04-15T13:42:48Z</time>
      </trkpt>
      <trkpt lat="43.4919" lon="6.22627">
        <ele>123</ele>
        <time>2022-04-15T13:42:49Z</time>
      </trkpt>
      <trkpt lat="43.49189" lon="6.22629">
        <ele>123</ele>
        <time>2022-04-15T13:42:50Z</time>
      </trkpt>
      <trkpt lat="43.49189" lon="6.2263">
        <ele>123</ele>
        <time>2022-04-15T13:42:51Z</time>
      </trkpt>
      <trkpt lat="43.49188" lon="6.22631">
        <ele>123</ele>
        <time>2022-04-15T13:42:52Z</time>
      </trkpt>
      <trkpt lat="43.49187" lon="6.22632">
        <ele>123</ele>
        <time>2022-04-15T13:42:53Z</time>
      </trkpt>
      <trkpt lat="43.49186" lon="6.22633">
        <ele>123</ele>
        <time>2022-04-15T13:42:54Z</time>
      </trkpt>
      <trkpt lat="43.49186" lon="6.22634">
        <ele>123</ele>
        <time>2022-04-15T13:42:55Z</time>
      </trkpt>
      <trkpt lat="43.49185" lon="6.22635">
        <ele>123</ele>
        <time>2022-04-15T13:42:56Z</time>
      </trkpt>
      <trkpt lat="43.49185" lon="6.22636">
        <ele>123</ele>
        <time>2022-04-15T13:42:57Z</time>
      </trkpt>
      <trkpt lat="43.49185" lon="6.22637">
        <ele>123</ele>
        <time>2022-04-15T13:42:58Z</time>
      </trkpt>
      <trkpt lat="43.49184" lon="6.22638">
        <ele>123</ele>
        <time>2022-04-15T13:42:59Z</time>
      </trkpt>
      <trkpt lat="43.49184" lon="6.22639">
        <ele>123</ele>
        <time>2022-04-15T13:43:00Z</time>
      </trkpt>
      <trkpt lat="43.49183" lon="6.2264">
        <ele>123</ele>
        <time>2022-04-15T13:43:01Z</time>
      </trkpt>
      <trkpt lat="43.49183" lon="6.22641">
        <ele>123</ele>
        <time>2022-04-15T13:43:02Z</time>
      </trkpt>
      <trkpt lat="43.49183" lon="6.22642">
        <ele>123</ele>
        <time>2022-04-15T13:43:03Z</time>
      </trkpt>
      <trkpt lat="43.49184" lon="6.22642">
        <ele>124</ele>
        <time>2022-04-15T13:43:04Z</time>
      </trkpt>
      <trkpt lat="43.49184" lon="6.22643">
        <ele>124</ele>
        <time>2022-04-15T13:43:05Z</time>
      </trkpt>
      <trkpt lat="43.49184" lon="6.22643">
        <ele>124</ele>
        <time>2022-04-15T13:43:06Z</time>
      </trkpt>
      <trkpt lat="43.49184" lon="6.22643">
        <ele>124</ele>
        <time>2022-04-15T13:43:07Z</time>
      </trkpt>
      <trkpt lat="43.49184" lon="6.22643">
        <ele>124</ele>
        <time>2022-04-15T13:43:08Z</time>
      </trkpt>
      <trkpt lat="43.49183" lon="6.22643">
        <ele>124</ele>
        <time>2022-04-15T13:43:09Z</time>
      </trkpt>
      <trkpt lat="43.49183" lon="6.22644">
        <ele>124</ele>
        <time>2022-04-15T13:43:10Z</time>
      </trkpt>
      <trkpt lat="43.49182" lon="6.22644">
        <ele>124</ele>
        <time>2022-04-15T13:43:11Z</time>
      </trkpt>
      <trkpt lat="43.49182" lon="6.22645">
        <ele>124</ele>
        <time>2022-04-15T13:43:12Z</time>
      </trkpt>
      <trkpt lat="43.49181" lon="6.22646">
        <ele>124</ele>
        <time>2022-04-15T13:43:13Z</time>
      </trkpt>
      <trkpt lat="43.49181" lon="6.22647">
        <ele>124</ele>
        <time>2022-04-15T13:43:14Z</time>
      </trkpt>
      <trkpt lat="43.4918" lon="6.22647">
        <ele>124</ele>
        <time>2022-04-15T13:43:15Z</time>
      </trkpt>
      <trkpt lat="43.49179" lon="6.22647">
        <ele>123</ele>
        <time>2022-04-15T13:43:16Z</time>
      </trkpt>
      <trkpt lat="43.49178" lon="6.22647">
        <ele>123</ele>
        <time>2022-04-15T13:43:17Z</time>
      </trkpt>
      <trkpt lat="43.49177" lon="6.22648">
        <ele>123</ele>
        <time>2022-04-15T13:43:18Z</time>
      </trkpt>
      <trkpt lat="43.49176" lon="6.22648">
        <ele>123</ele>
        <time>2022-04-15T13:43:19Z</time>
      </trkpt>
      <trkpt lat="43.49175" lon="6.22649">
        <ele>123</ele>
        <time>2022-04-15T13:43:20Z</time>
      </trkpt>
      <trkpt lat="43.49174" lon="6.22649">
        <ele>123</ele>
        <time>2022-04-15T13:43:21Z</time>
      </trkpt>
      <trkpt lat="43.49173" lon="6.2265">
        <ele>123</ele>
        <time>2022-04-15T13:43:22Z</time>
      </trkpt>
      <trkpt lat="43.49172" lon="6.2265">
        <ele>123</ele>
        <time>2022-04-15T13:43:23Z</time>
      </trkpt>
      <trkpt lat="43.49172" lon="6.22651">
        <ele>123</ele>
        <time>2022-04-15T13:43:24Z</time>
      </trkpt>
      <trkpt lat="43.49171" lon="6.22652">
        <ele>123</ele>
        <time>2022-04-15T13:43:25Z</time>
      </trkpt>
      <trkpt lat="43.4917" lon="6.22652">
        <ele>123</ele>
        <time>2022-04-15T13:43:26Z</time>
      </trkpt>
      <trkpt lat="43.49169" lon="6.22653">
        <ele>123</ele>
        <time>2022-04-15T13:43:27Z</time>
      </trkpt>
      <trkpt lat="43.49168" lon="6.22654">
        <ele>123</ele>
        <time>2022-04-15T13:43:28Z</time>
      </trkpt>
      <trkpt lat="43.49167" lon="6.22654">
        <ele>123</ele>
        <time>2022-04-15T13:43:29Z</time>
      </trkpt>
      <trkpt lat="43.49167" lon="6.22654">
        <ele>123</ele>
        <time>2022-04-15T13:43:30Z</time>
      </trkpt>
      <trkpt lat="43.49166" lon="6.22655">
        <ele>123</ele>
        <time>2022-04-15T13:43:31Z</time>
      </trkpt>
      <trkpt lat="43.49165" lon="6.22655">
        <ele>123</ele>
        <time>2022-04-15T13:43:32Z</time>
      </trkpt>
      <trkpt lat="43.49164" lon="6.22656">
        <ele>123</ele>
        <time>2022-04-15T13:43:33Z</time>
      </trkpt>
      <trkpt lat="43.49163" lon="6.22656">
        <ele>123</ele>
        <time>2022-04-15T13:43:34Z</time>
      </trkpt>
      <trkpt lat="43.49162" lon="6.22657">
        <ele>123</ele>
        <time>2022-04-15T13:43:35Z</time>
      </trkpt>
      <trkpt lat="43.49161" lon="6.22657">
        <ele>123</ele>
        <time>2022-04-15T13:43:36Z</time>
      </trkpt>
      <trkpt lat="43.4916" lon="6.22658">
        <ele>123</ele>
        <time>2022-04-15T13:43:37Z</time>
      </trkpt>
      <trkpt lat="43.49159" lon="6.22658">
        <ele>123</ele>
        <time>2022-04-15T13:43:38Z</time>
      </trkpt>
      <trkpt lat="43.49158" lon="6.22659">
        <ele>123</ele>
        <time>2022-04-15T13:43:39Z</time>
      </trkpt>
      <trkpt lat="43.49157" lon="6.2266">
        <ele>123</ele>
        <time>2022-04-15T13:43:40Z</time>
      </trkpt>
      <trkpt lat="43.49156" lon="6.2266">
        <ele>123</ele>
        <time>2022-04-15T13:43:41Z</time>
      </trkpt>
      <trkpt lat="43.49155" lon="6.22661">
        <ele>123</ele>
        <time>2022-04-15T13:43:42Z</time>
      </trkpt>
      <trkpt lat="43.49154" lon="6.22662">
        <ele>123</ele>
        <time>2022-04-15T13:43:43Z</time>
      </trkpt>
      <trkpt lat="43.49153" lon="6.22662">
        <ele>123</ele>
        <time>2022-04-15T13:43:44Z</time>
      </trkpt>
      <trkpt lat="43.49152" lon="6.22663">
        <ele>123</ele>
        <time>2022-04-15T13:43:45Z</time>
      </trkpt>
      <trkpt lat="43.49151" lon="6.22664">
        <ele>123</ele>
        <time>2022-04-15T13:43:46Z</time>
      </trkpt>
      <trkpt lat="43.49151" lon="6.22665">
        <ele>124</ele>
        <time>2022-04-15T13:43:47Z</time>
      </trkpt>
      <trkpt lat="43.4915" lon="6.22666">
        <ele>124</ele>
        <time>2022-04-15T13:43:48Z</time>
      </trkpt>
      <trkpt lat="43.4915" lon="6.22666">
        <ele>124</ele>
        <time>2022-04-15T13:43:49Z</time>
      </trkpt>
      <trkpt lat="43.49149" lon="6.22667">
        <ele>124</ele>
        <time>2022-04-15T13:43:50Z</time>
      </trkpt>
      <trkpt lat="43.49149" lon="6.22667">
        <ele>124</ele>
        <time>2022-04-15T13:43:51Z</time>
      </trkpt>
      <trkpt lat="43.49148" lon="6.22667">
        <ele>124</ele>
        <time>2022-04-15T13:43:52Z</time>
      </trkpt>
      <trkpt lat="43.49148" lon="6.22667">
        <ele>124</ele>
        <time>2022-04-15T13:43:53Z</time>
      </trkpt>
      <trkpt lat="43.49148" lon="6.22667">
        <ele>124</ele>
        <time>2022-04-15T13:43:54Z</time>
      </trkpt>
      <trkpt lat="43.49148" lon="6.22667">
        <ele>124</ele>
        <time>2022-04-15T13:43:55Z</time>
      </trkpt>
      <trkpt lat="43.49148" lon="6.22667">
        <ele>124</ele>
        <time>2022-04-15T13:43:56Z</time>
      </trkpt>
      <trkpt lat="43.49148" lon="6.22667">
        <ele>124</ele>
        <time>2022-04-15T13:43:57Z</time>
      </trkpt>
      <trkpt lat="43.49148" lon="6.22667">
        <ele>124</ele>
        <time>2022-04-15T13:43:58Z</time>
      </trkpt>
      <trkpt lat="43.49148" lon="6.22666">
        <ele>124</ele>
        <time>2022-04-15T13:43:59Z</time>
      </trkpt>
      <trkpt lat="43.49147" lon="6.22666">
        <ele>124</ele>
        <time>2022-04-15T13:44:00Z</time>
      </trkpt>
      <trkpt lat="43.49147" lon="6.22666">
        <ele>124</ele>
        <time>2022-04-15T13:44:01Z</time>
      </trkpt>
      <trkpt lat="43.49147" lon="6.22666">
        <ele>124</ele>
        <time>2022-04-15T13:44:02Z</time>
      </trkpt>
      <trkpt lat="43.49147" lon="6.22667">
        <ele>124</ele>
        <time>2022-04-15T13:44:03Z</time>
      </trkpt>
      <trkpt lat="43.49147" lon="6.22667">
        <ele>124</ele>
        <time>2022-04-15T13:44:04Z</time>
      </trkpt>
      <trkpt lat="43.49147" lon="6.22667">
        <ele>124</ele>
        <time>2022-04-15T13:44:05Z</time>
      </trkpt>
      <trkpt lat="43.49147" lon="6.22667">
        <ele>124</ele>
        <time>2022-04-15T13:44:06Z</time>
      </trkpt>
      <trkpt lat="43.49147" lon="6.22667">
        <ele>124</ele>
        <time>2022-04-15T13:44:07Z</time>
      </trkpt>
      <trkpt lat="43.49147" lon="6.22667">
        <ele>124</ele>
        <time>2022-04-15T13:44:08Z</time>
      </trkpt>
      <trkpt lat="43.49147" lon="6.22667">
        <ele>124</ele>
        <time>2022-04-15T13:44:09Z</time>
      </trkpt>
      <trkpt lat="43.49147" lon="6.22667">
        <ele>124</ele>
        <time>2022-04-15T13:44:10Z</time>
      </trkpt>
      <trkpt lat="43.49147" lon="6.22666">
        <ele>124</ele>
        <time>2022-04-15T13:44:11Z</time>
      </trkpt>
      <trkpt lat="43.49147" lon="6.22666">
        <ele>124</ele>
        <time>2022-04-15T13:44:12Z</time>
      </trkpt>
      <trkpt lat="43.49147" lon="6.22667">
        <ele>124</ele>
        <time>2022-04-15T13:44:13Z</time>
      </trkpt>
      <trkpt lat="43.49147" lon="6.22667">
        <ele>124</ele>
        <time>2022-04-15T13:44:14Z</time>
      </trkpt>
      <trkpt lat="43.49146" lon="6.22667">
        <ele>124</ele>
        <time>2022-04-15T13:44:15Z</time>
      </trkpt>
      <trkpt lat="43.49145" lon="6.22668">
        <ele>124</ele>
        <time>2022-04-15T13:44:16Z</time>
      </trkpt>
      <trkpt lat="43.49144" lon="6.22669">
        <ele>124</ele>
        <time>2022-04-15T13:44:17Z</time>
      </trkpt>
      <trkpt lat="43.49143" lon="6.2267">
        <ele>124</ele>
        <time>2022-04-15T13:44:18Z</time>
      </trkpt>
      <trkpt lat="43.49142" lon="6.2267">
        <ele>124</ele>
        <time>2022-04-15T13:44:19Z</time>
      </trkpt>
      <trkpt lat="43.4914" lon="6.22671">
        <ele>124</ele>
        <time>2022-04-15T13:44:20Z</time>
      </trkpt>
      <trkpt lat="43.49139" lon="6.22672">
        <ele>124</ele>
        <time>2022-04-15T13:44:21Z</time>
      </trkpt>
      <trkpt lat="43.49137" lon="6.22672">
        <ele>124</ele>
        <time>2022-04-15T13:44:22Z</time>
      </trkpt>
      <trkpt lat="43.49136" lon="6.22672">
        <ele>124</ele>
        <time>2022-04-15T13:44:23Z</time>
      </trkpt>
      <trkpt lat="43.49135" lon="6.22672">
        <ele>125</ele>
        <time>2022-04-15T13:44:24Z</time>
      </trkpt>
      <trkpt lat="43.49133" lon="6.22672">
        <ele>126</ele>
        <time>2022-04-15T13:44:25Z</time>
      </trkpt>
      <trkpt lat="43.49131" lon="6.22672">
        <ele>126</ele>
        <time>2022-04-15T13:44:26Z</time>
      </trkpt>
      <trkpt lat="43.4913" lon="6.22671">
        <ele>126</ele>
        <time>2022-04-15T13:44:27Z</time>
      </trkpt>
      <trkpt lat="43.49128" lon="6.2267">
        <ele>126</ele>
        <time>2022-04-15T13:44:28Z</time>
      </trkpt>
      <trkpt lat="43.49126" lon="6.22669">
        <ele>126</ele>
        <time>2022-04-15T13:44:29Z</time>
      </trkpt>
      <trkpt lat="43.49125" lon="6.22668">
        <ele>126</ele>
        <time>2022-04-15T13:44:30Z</time>
      </trkpt>
      <trkpt lat="43.49124" lon="6.22667">
        <ele>126</ele>
        <time>2022-04-15T13:44:31Z</time>
      </trkpt>
      <trkpt lat="43.49124" lon="6.22666">
        <ele>126</ele>
        <time>2022-04-15T13:44:32Z</time>
      </trkpt>
      <trkpt lat="43.49123" lon="6.22665">
        <ele>126</ele>
        <time>2022-04-15T13:44:33Z</time>
      </trkpt>
      <trkpt lat="43.49122" lon="6.22663">
        <ele>126</ele>
        <time>2022-04-15T13:44:34Z</time>
      </trkpt>
      <trkpt lat="43.49121" lon="6.22662">
        <ele>126</ele>
        <time>2022-04-15T13:44:35Z</time>
      </trkpt>
      <trkpt lat="43.4912" lon="6.22661">
        <ele>125</ele>
        <time>2022-04-15T13:44:36Z</time>
      </trkpt>
      <trkpt lat="43.4912" lon="6.2266">
        <ele>125</ele>
        <time>2022-04-15T13:44:37Z</time>
      </trkpt>
      <trkpt lat="43.49119" lon="6.22659">
        <ele>125</ele>
        <time>2022-04-15T13:44:38Z</time>
      </trkpt>
      <trkpt lat="43.49119" lon="6.22658">
        <ele>125</ele>
        <time>2022-04-15T13:44:39Z</time>
      </trkpt>
      <trkpt lat="43.49118" lon="6.22656">
        <ele>125</ele>
        <time>2022-04-15T13:44:40Z</time>
      </trkpt>
      <trkpt lat="43.49118" lon="6.22655">
        <ele>125</ele>
        <time>2022-04-15T13:44:41Z</time>
      </trkpt>
      <trkpt lat="43.49117" lon="6.22653">
        <ele>125</ele>
        <time>2022-04-15T13:44:42Z</time>
      </trkpt>
      <trkpt lat="43.49117" lon="6.22652">
        <ele>125</ele>
        <time>2022-04-15T13:44:43Z</time>
      </trkpt>
      <trkpt lat="43.49116" lon="6.22651">
        <ele>124</ele>
        <time>2022-04-15T13:44:44Z</time>
      </trkpt>
      <trkpt lat="43.49115" lon="6.2265">
        <ele>124</ele>
        <time>2022-04-15T13:44:45Z</time>
      </trkpt>
      <trkpt lat="43.49114" lon="6.22649">
        <ele>124</ele>
        <time>2022-04-15T13:44:46Z</time>
      </trkpt>
      <trkpt lat="43.49113" lon="6.22648">
        <ele>124</ele>
        <time>2022-04-15T13:44:47Z</time>
      </trkpt>
      <trkpt lat="43.49112" lon="6.22648">
        <ele>124</ele>
        <time>2022-04-15T13:44:48Z</time>
      </trkpt>
      <trkpt lat="43.49112" lon="6.22648">
        <ele>124</ele>
        <time>2022-04-15T13:44:49Z</time>
      </trkpt>
      <trkpt lat="43.49111" lon="6.22648">
        <ele>124</ele>
        <time>2022-04-15T13:44:50Z</time>
      </trkpt>
      <trkpt lat="43.49111" lon="6.22648">
        <ele>124</ele>
        <time>2022-04-15T13:44:51Z</time>
      </trkpt>
      <trkpt lat="43.4911" lon="6.22647">
        <ele>124</ele>
        <time>2022-04-15T13:44:52Z</time>
      </trkpt>
      <trkpt lat="43.4911" lon="6.22647">
        <ele>124</ele>
        <time>2022-04-15T13:44:53Z</time>
      </trkpt>
      <trkpt lat="43.49109" lon="6.22647">
        <ele>124</ele>
        <time>2022-04-15T13:44:54Z</time>
      </trkpt>
      <trkpt lat="43.49108" lon="6.22647">
        <ele>124</ele>
        <time>2022-04-15T13:44:55Z</time>
      </trkpt>
      <trkpt lat="43.49107" lon="6.22646">
        <ele>124</ele>
        <time>2022-04-15T13:44:56Z</time>
      </trkpt>
      <trkpt lat="43.49107" lon="6.22646">
        <ele>124</ele>
        <time>2022-04-15T13:44:57Z</time>
      </trkpt>
      <trkpt lat="43.49106" lon="6.22646">
        <ele>124</ele>
        <time>2022-04-15T13:44:58Z</time>
      </trkpt>
      <trkpt lat="43.49105" lon="6.22646">
        <ele>124</ele>
        <time>2022-04-15T13:44:59Z</time>
      </trkpt>
      <trkpt lat="43.49104" lon="6.22646">
        <ele>124</ele>
        <time>2022-04-15T13:45:00Z</time>
      </trkpt>
      <trkpt lat="43.49103" lon="6.22646">
        <ele>124</ele>
        <time>2022-04-15T13:45:01Z</time>
      </trkpt>
      <trkpt lat="43.49102" lon="6.22646">
        <ele>124</ele>
        <time>2022-04-15T13:45:02Z</time>
      </trkpt>
      <trkpt lat="43.49101" lon="6.22646">
        <ele>124</ele>
        <time>2022-04-15T13:45:03Z</time>
      </trkpt>
      <trkpt lat="43.49099" lon="6.22646">
        <ele>124</ele>
        <time>2022-04-15T13:45:04Z</time>
      </trkpt>
      <trkpt lat="43.49098" lon="6.22646">
        <ele>124</ele>
        <time>2022-04-15T13:45:05Z</time>
      </trkpt>
      <trkpt lat="43.49097" lon="6.22647">
        <ele>124</ele>
        <time>2022-04-15T13:45:06Z</time>
      </trkpt>
      <trkpt lat="43.49095" lon="6.22647">
        <ele>124</ele>
        <time>2022-04-15T13:45:07Z</time>
      </trkpt>
      <trkpt lat="43.49094" lon="6.22647">
        <ele>124</ele>
        <time>2022-04-15T13:45:08Z</time>
      </trkpt>
      <trkpt lat="43.49093" lon="6.22646">
        <ele>124</ele>
        <time>2022-04-15T13:45:09Z</time>
      </trkpt>
      <trkpt lat="43.49091" lon="6.22646">
        <ele>123</ele>
        <time>2022-04-15T13:45:10Z</time>
      </trkpt>
      <trkpt lat="43.4909" lon="6.22646">
        <ele>123</ele>
        <time>2022-04-15T13:45:11Z</time>
      </trkpt>
      <trkpt lat="43.49089" lon="6.22646">
        <ele>123</ele>
        <time>2022-04-15T13:45:12Z</time>
      </trkpt>
      <trkpt lat="43.49088" lon="6.22645">
        <ele>123</ele>
        <time>2022-04-15T13:45:13Z</time>
      </trkpt>
      <trkpt lat="43.49087" lon="6.22645">
        <ele>123</ele>
        <time>2022-04-15T13:45:14Z</time>
      </trkpt>
      <trkpt lat="43.49086" lon="6.22645">
        <ele>123</ele>
        <time>2022-04-15T13:45:15Z</time>
      </trkpt>
      <trkpt lat="43.49084" lon="6.22645">
        <ele>123</ele>
        <time>2022-04-15T13:45:16Z</time>
      </trkpt>
      <trkpt lat="43.49083" lon="6.22644">
        <ele>123</ele>
        <time>2022-04-15T13:45:17Z</time>
      </trkpt>
      <trkpt lat="43.49083" lon="6.22643">
        <ele>123</ele>
        <time>2022-04-15T13:45:18Z</time>
      </trkpt>
      <trkpt lat="43.49083" lon="6.22642">
        <ele>123</ele>
        <time>2022-04-15T13:45:19Z</time>
      </trkpt>
      <trkpt lat="43.49083" lon="6.22642">
        <ele>123</ele>
        <time>2022-04-15T13:45:20Z</time>
      </trkpt>
      <trkpt lat="43.49082" lon="6.22642">
        <ele>123</ele>
        <time>2022-04-15T13:45:21Z</time>
      </trkpt>
      <trkpt lat="43.49081" lon="6.22642">
        <ele>123</ele>
        <time>2022-04-15T13:45:22Z</time>
      </trkpt>
      <trkpt lat="43.4908" lon="6.22642">
        <ele>123</ele>
        <time>2022-04-15T13:45:23Z</time>
      </trkpt>
      <trkpt lat="43.49079" lon="6.22642">
        <ele>123</ele>
        <time>2022-04-15T13:45:24Z</time>
      </trkpt>
      <trkpt lat="43.49078" lon="6.22642">
        <ele>123</ele>
        <time>2022-04-15T13:45:25Z</time>
      </trkpt>
      <trkpt lat="43.49077" lon="6.22642">
        <ele>123</ele>
        <time>2022-04-15T13:45:26Z</time>
      </trkpt>
      <trkpt lat="43.49076" lon="6.22642">
        <ele>123</ele>
        <time>2022-04-15T13:45:27Z</time>
      </trkpt>
      <trkpt lat="43.49075" lon="6.22643">
        <ele>122</ele>
        <time>2022-04-15T13:45:28Z</time>
      </trkpt>
      <trkpt lat="43.49073" lon="6.22643">
        <ele>122</ele>
        <time>2022-04-15T13:45:29Z</time>
      </trkpt>
      <trkpt lat="43.49072" lon="6.22642">
        <ele>121</ele>
        <time>2022-04-15T13:45:30Z</time>
      </trkpt>
      <trkpt lat="43.49071" lon="6.22642">
        <ele>121</ele>
        <time>2022-04-15T13:45:31Z</time>
      </trkpt>
      <trkpt lat="43.4907" lon="6.22641">
        <ele>121</ele>
        <time>2022-04-15T13:45:32Z</time>
      </trkpt>
      <trkpt lat="43.49069" lon="6.22641">
        <ele>121</ele>
        <time>2022-04-15T13:45:33Z</time>
      </trkpt>
      <trkpt lat="43.49068" lon="6.22641">
        <ele>121</ele>
        <time>2022-04-15T13:45:34Z</time>
      </trkpt>
      <trkpt lat="43.49068" lon="6.22641">
        <ele>121</ele>
        <time>2022-04-15T13:45:35Z</time>
      </trkpt>
      <trkpt lat="43.49067" lon="6.22641">
        <ele>121</ele>
        <time>2022-04-15T13:45:36Z</time>
      </trkpt>
      <trkpt lat="43.49066" lon="6.22641">
        <ele>121</ele>
        <time>2022-04-15T13:45:37Z</time>
      </trkpt>
      <trkpt lat="43.49065" lon="6.22641">
        <ele>121</ele>
        <time>2022-04-15T13:45:38Z</time>
      </trkpt>
      <trkpt lat="43.49064" lon="6.2264">
        <ele>121</ele>
        <time>2022-04-15T13:45:39Z</time>
      </trkpt>
      <trkpt lat="43.49062" lon="6.2264">
        <ele>121</ele>
        <time>2022-04-15T13:45:40Z</time>
      </trkpt>
      <trkpt lat="43.49061" lon="6.22639">
        <ele>121</ele>
        <time>2022-04-15T13:45:41Z</time>
      </trkpt>
      <trkpt lat="43.4906" lon="6.22639">
        <ele>120</ele>
        <time>2022-04-15T13:45:42Z</time>
      </trkpt>
      <trkpt lat="43.49059" lon="6.22639">
        <ele>119</ele>
        <time>2022-04-15T13:45:43Z</time>
      </trkpt>
      <trkpt lat="43.49058" lon="6.22639">
        <ele>119</ele>
        <time>2022-04-15T13:45:44Z</time>
      </trkpt>
      <trkpt lat="43.49057" lon="6.22638">
        <ele>119</ele>
        <time>2022-04-15T13:45:45Z</time>
      </trkpt>
      <trkpt lat="43.49056" lon="6.22638">
        <ele>119</ele>
        <time>2022-04-15T13:45:46Z</time>
      </trkpt>
      <trkpt lat="43.49055" lon="6.22637">
        <ele>119</ele>
        <time>2022-04-15T13:45:47Z</time>
      </trkpt>
      <trkpt lat="43.49053" lon="6.22636">
        <ele>119</ele>
        <time>2022-04-15T13:45:48Z</time>
      </trkpt>
      <trkpt lat="43.49051" lon="6.22635">
        <ele>119</ele>
        <time>2022-04-15T13:45:49Z</time>
      </trkpt>
      <trkpt lat="43.49049" lon="6.22634">
        <ele>119</ele>
        <time>2022-04-15T13:45:50Z</time>
      </trkpt>
      <trkpt lat="43.49048" lon="6.22633">
        <ele>119</ele>
        <time>2022-04-15T13:45:51Z</time>
      </trkpt>
      <trkpt lat="43.49046" lon="6.22632">
        <ele>119</ele>
        <time>2022-04-15T13:45:52Z</time>
      </trkpt>
      <trkpt lat="43.49045" lon="6.22631">
        <ele>119</ele>
        <time>2022-04-15T13:45:53Z</time>
      </trkpt>
      <trkpt lat="43.49044" lon="6.22631">
        <ele>119</ele>
        <time>2022-04-15T13:45:54Z</time>
      </trkpt>
      <trkpt lat="43.49042" lon="6.2263">
        <ele>118</ele>
        <time>2022-04-15T13:45:55Z</time>
      </trkpt>
      <trkpt lat="43.49041" lon="6.22629">
        <ele>118</ele>
        <time>2022-04-15T13:45:56Z</time>
      </trkpt>
      <trkpt lat="43.4904" lon="6.22628">
        <ele>118</ele>
        <time>2022-04-15T13:45:57Z</time>
      </trkpt>
      <trkpt lat="43.49039" lon="6.22628">
        <ele>118</ele>
        <time>2022-04-15T13:45:58Z</time>
      </trkpt>
      <trkpt lat="43.49038" lon="6.22628">
        <ele>118</ele>
        <time>2022-04-15T13:45:59Z</time>
      </trkpt>
      <trkpt lat="43.49037" lon="6.22627">
        <ele>118</ele>
        <time>2022-04-15T13:46:00Z</time>
      </trkpt>
      <trkpt lat="43.49036" lon="6.22627">
        <ele>118</ele>
        <time>2022-04-15T13:46:01Z</time>
      </trkpt>
      <trkpt lat="43.49035" lon="6.22626">
        <ele>118</ele>
        <time>2022-04-15T13:46:02Z</time>
      </trkpt>
      <trkpt lat="43.49034" lon="6.22625">
        <ele>118</ele>
        <time>2022-04-15T13:46:03Z</time>
      </trkpt>
      <trkpt lat="43.49033" lon="6.22624">
        <ele>118</ele>
        <time>2022-04-15T13:46:04Z</time>
      </trkpt>
      <trkpt lat="43.49032" lon="6.22623">
        <ele>118</ele>
        <time>2022-04-15T13:46:05Z</time>
      </trkpt>
      <trkpt lat="43.49031" lon="6.22623">
        <ele>118</ele>
        <time>2022-04-15T13:46:06Z</time>
      </trkpt>
      <trkpt lat="43.4903" lon="6.22622">
        <ele>118</ele>
        <time>2022-04-15T13:46:07Z</time>
      </trkpt>
      <trkpt lat="43.49029" lon="6.22621">
        <ele>118</ele>
        <time>2022-04-15T13:46:08Z</time>
      </trkpt>
      <trkpt lat="43.49028" lon="6.22621">
        <ele>118</ele>
        <time>2022-04-15T13:46:09Z</time>
      </trkpt>
      <trkpt lat="43.49027" lon="6.2262">
        <ele>118</ele>
        <time>2022-04-15T13:46:10Z</time>
      </trkpt>
      <trkpt lat="43.49026" lon="6.2262">
        <ele>118</ele>
        <time>2022-04-15T13:46:11Z</time>
      </trkpt>
      <trkpt lat="43.49025" lon="6.22619">
        <ele>118</ele>
        <time>2022-04-15T13:46:12Z</time>
      </trkpt>
      <trkpt lat="43.49024" lon="6.22619">
        <ele>118</ele>
        <time>2022-04-15T13:46:13Z</time>
      </trkpt>
      <trkpt lat="43.49023" lon="6.22619">
        <ele>118</ele>
        <time>2022-04-15T13:46:14Z</time>
      </trkpt>
      <trkpt lat="43.49022" lon="6.22618">
        <ele>118</ele>
        <time>2022-04-15T13:46:15Z</time>
      </trkpt>
      <trkpt lat="43.49021" lon="6.22617">
        <ele>119</ele>
        <time>2022-04-15T13:46:16Z</time>
      </trkpt>
      <trkpt lat="43.49021" lon="6.22617">
        <ele>119</ele>
        <time>2022-04-15T13:46:17Z</time>
      </trkpt>
      <trkpt lat="43.4902" lon="6.22616">
        <ele>119</ele>
        <time>2022-04-15T13:46:18Z</time>
      </trkpt>
      <trkpt lat="43.49019" lon="6.22616">
        <ele>119</ele>
        <time>2022-04-15T13:46:19Z</time>
      </trkpt>
      <trkpt lat="43.49019" lon="6.22615">
        <ele>119</ele>
        <time>2022-04-15T13:46:20Z</time>
      </trkpt>
      <trkpt lat="43.49018" lon="6.22614">
        <ele>119</ele>
        <time>2022-04-15T13:46:21Z</time>
      </trkpt>
      <trkpt lat="43.49017" lon="6.22613">
        <ele>119</ele>
        <time>2022-04-15T13:46:22Z</time>
      </trkpt>
      <trkpt lat="43.49016" lon="6.22612">
        <ele>119</ele>
        <time>2022-04-15T13:46:23Z</time>
      </trkpt>
      <trkpt lat="43.49015" lon="6.22611">
        <ele>119</ele>
        <time>2022-04-15T13:46:24Z</time>
      </trkpt>
      <trkpt lat="43.49014" lon="6.2261">
        <ele>119</ele>
        <time>2022-04-15T13:46:25Z</time>
      </trkpt>
      <trkpt lat="43.49014" lon="6.22609">
        <ele>119</ele>
        <time>2022-04-15T13:46:26Z</time>
      </trkpt>
      <trkpt lat="43.49013" lon="6.22608">
        <ele>119</ele>
        <time>2022-04-15T13:46:27Z</time>
      </trkpt>
      <trkpt lat="43.49013" lon="6.22607">
        <ele>119</ele>
        <time>2022-04-15T13:46:28Z</time>
      </trkpt>
      <trkpt lat="43.49012" lon="6.22606">
        <ele>119</ele>
        <time>2022-04-15T13:46:29Z</time>
      </trkpt>
      <trkpt lat="43.49011" lon="6.22605">
        <ele>119</ele>
        <time>2022-04-15T13:46:30Z</time>
      </trkpt>
      <trkpt lat="43.49011" lon="6.22604">
        <ele>119</ele>
        <time>2022-04-15T13:46:31Z</time>
      </trkpt>
      <trkpt lat="43.4901" lon="6.22603">
        <ele>119</ele>
        <time>2022-04-15T13:46:32Z</time>
      </trkpt>
      <trkpt lat="43.4901" lon="6.22602">
        <ele>119</ele>
        <time>2022-04-15T13:46:33Z</time>
      </trkpt>
      <trkpt lat="43.49009" lon="6.22601">
        <ele>119</ele>
        <time>2022-04-15T13:46:34Z</time>
      </trkpt>
      <trkpt lat="43.49008" lon="6.22599">
        <ele>119</ele>
        <time>2022-04-15T13:46:35Z</time>
      </trkpt>
      <trkpt lat="43.49008" lon="6.22598">
        <ele>119</ele>
        <time>2022-04-15T13:46:36Z</time>
      </trkpt>
      <trkpt lat="43.49008" lon="6.22596">
        <ele>119</ele>
        <time>2022-04-15T13:46:37Z</time>
      </trkpt>
      <trkpt lat="43.49007" lon="6.22595">
        <ele>120</ele>
        <time>2022-04-15T13:46:38Z</time>
      </trkpt>
      <trkpt lat="43.49007" lon="6.22593">
        <ele>120</ele>
        <time>2022-04-15T13:46:39Z</time>
      </trkpt>
      <trkpt lat="43.49007" lon="6.22592">
        <ele>120</ele>
        <time>2022-04-15T13:46:40Z</time>
      </trkpt>
      <trkpt lat="43.49006" lon="6.22591">
        <ele>120</ele>
        <time>2022-04-15T13:46:41Z</time>
      </trkpt>
      <trkpt lat="43.49006" lon="6.22589">
        <ele>120</ele>
        <time>2022-04-15T13:46:42Z</time>
      </trkpt>
      <trkpt lat="43.49006" lon="6.22588">
        <ele>121</ele>
        <time>2022-04-15T13:46:43Z</time>
      </trkpt>
      <trkpt lat="43.49006" lon="6.22586">
        <ele>121</ele>
        <time>2022-04-15T13:46:44Z</time>
      </trkpt>
      <trkpt lat="43.49006" lon="6.22585">
        <ele>121</ele>
        <time>2022-04-15T13:46:45Z</time>
      </trkpt>
      <trkpt lat="43.49006" lon="6.22583">
        <ele>121</ele>
        <time>2022-04-15T13:46:46Z</time>
      </trkpt>
      <trkpt lat="43.49007" lon="6.22582">
        <ele>121</ele>
        <time>2022-04-15T13:46:47Z</time>
      </trkpt>
      <trkpt lat="43.49007" lon="6.2258">
        <ele>122</ele>
        <time>2022-04-15T13:46:48Z</time>
      </trkpt>
      <trkpt lat="43.49007" lon="6.22579">
        <ele>122</ele>
        <time>2022-04-15T13:46:49Z</time>
      </trkpt>
      <trkpt lat="43.49007" lon="6.22577">
        <ele>122</ele>
        <time>2022-04-15T13:46:50Z</time>
      </trkpt>
      <trkpt lat="43.49008" lon="6.22575">
        <ele>122</ele>
        <time>2022-04-15T13:46:51Z</time>
      </trkpt>
      <trkpt lat="43.49008" lon="6.22573">
        <ele>122</ele>
        <time>2022-04-15T13:46:52Z</time>
      </trkpt>
      <trkpt lat="43.49009" lon="6.22571">
        <ele>122</ele>
        <time>2022-04-15T13:46:53Z</time>
      </trkpt>
      <trkpt lat="43.49009" lon="6.22569">
        <ele>123</ele>
        <time>2022-04-15T13:46:54Z</time>
      </trkpt>
      <trkpt lat="43.4901" lon="6.22567">
        <ele>125</ele>
        <time>2022-04-15T13:46:55Z</time>
      </trkpt>
      <trkpt lat="43.4901" lon="6.22566">
        <ele>126</ele>
        <time>2022-04-15T13:46:56Z</time>
      </trkpt>
      <trkpt lat="43.49011" lon="6.22564">
        <ele>127</ele>
        <time>2022-04-15T13:46:57Z</time>
      </trkpt>
      <trkpt lat="43.49011" lon="6.22563">
        <ele>127</ele>
        <time>2022-04-15T13:46:58Z</time>
      </trkpt>
      <trkpt lat="43.49012" lon="6.22561">
        <ele>127</ele>
        <time>2022-04-15T13:46:59Z</time>
      </trkpt>
      <trkpt lat="43.49012" lon="6.2256">
        <ele>127</ele>
        <time>2022-04-15T13:47:00Z</time>
      </trkpt>
      <trkpt lat="43.49013" lon="6.22558">
        <ele>128</ele>
        <time>2022-04-15T13:47:01Z</time>
      </trkpt>
      <trkpt lat="43.49013" lon="6.22557">
        <ele>128</ele>
        <time>2022-04-15T13:47:02Z</time>
      </trkpt>
      <trkpt lat="43.49014" lon="6.22556">
        <ele>128</ele>
        <time>2022-04-15T13:47:03Z</time>
      </trkpt>
      <trkpt lat="43.49015" lon="6.22555">
        <ele>128</ele>
        <time>2022-04-15T13:47:04Z</time>
      </trkpt>
      <trkpt lat="43.49015" lon="6.22554">
        <ele>129</ele>
        <time>2022-04-15T13:47:05Z</time>
      </trkpt>
      <trkpt lat="43.49016" lon="6.22553">
        <ele>129</ele>
        <time>2022-04-15T13:47:06Z</time>
      </trkpt>
      <trkpt lat="43.49016" lon="6.22552">
        <ele>129</ele>
        <time>2022-04-15T13:47:07Z</time>
      </trkpt>
      <trkpt lat="43.49017" lon="6.22551">
        <ele>129</ele>
        <time>2022-04-15T13:47:08Z</time>
      </trkpt>
      <trkpt lat="43.49017" lon="6.2255">
        <ele>129</ele>
        <time>2022-04-15T13:47:09Z</time>
      </trkpt>
      <trkpt lat="43.49018" lon="6.22549">
        <ele>129</ele>
        <time>2022-04-15T13:47:10Z</time>
      </trkpt>
      <trkpt lat="43.49018" lon="6.22548">
        <ele>131</ele>
        <time>2022-04-15T13:47:11Z</time>
      </trkpt>
      <trkpt lat="43.49018" lon="6.22547">
        <ele>131</ele>
        <time>2022-04-15T13:47:12Z</time>
      </trkpt>
      <trkpt lat="43.49019" lon="6.22546">
        <ele>132</ele>
        <time>2022-04-15T13:47:13Z</time>
      </trkpt>
      <trkpt lat="43.49019" lon="6.22545">
        <ele>132</ele>
        <time>2022-04-15T13:47:14Z</time>
      </trkpt>
      <trkpt lat="43.4902" lon="6.22544">
        <ele>132</ele>
        <time>2022-04-15T13:47:15Z</time>
      </trkpt>
      <trkpt lat="43.4902" lon="6.22544">
        <ele>132</ele>
        <time>2022-04-15T13:47:16Z</time>
      </trkpt>
      <trkpt lat="43.4902" lon="6.22543">
        <ele>132</ele>
        <time>2022-04-15T13:47:17Z</time>
      </trkpt>
      <trkpt lat="43.4902" lon="6.22542">
        <ele>132</ele>
        <time>2022-04-15T13:47:18Z</time>
      </trkpt>
      <trkpt lat="43.49021" lon="6.22541">
        <ele>132</ele>
        <time>2022-04-15T13:47:19Z</time>
      </trkpt>
      <trkpt lat="43.49021" lon="6.2254">
        <ele>132</ele>
        <time>2022-04-15T13:47:20Z</time>
      </trkpt>
      <trkpt lat="43.49022" lon="6.22539">
        <ele>132</ele>
        <time>2022-04-15T13:47:21Z</time>
      </trkpt>
      <trkpt lat="43.49022" lon="6.22537">
        <ele>132</ele>
        <time>2022-04-15T13:47:22Z</time>
      </trkpt>
      <trkpt lat="43.49022" lon="6.22536">
        <ele>132</ele>
        <time>2022-04-15T13:47:23Z</time>
      </trkpt>
      <trkpt lat="43.49023" lon="6.22534">
        <ele>132</ele>
        <time>2022-04-15T13:47:24Z</time>
      </trkpt>
      <trkpt lat="43.49023" lon="6.22532">
        <ele>131</ele>
        <time>2022-04-15T13:47:25Z</time>
      </trkpt>
      <trkpt lat="43.49023" lon="6.22531">
        <ele>131</ele>
        <time>2022-04-15T13:47:26Z</time>
      </trkpt>
      <trkpt lat="43.49023" lon="6.2253">
        <ele>131</ele>
        <time>2022-04-15T13:47:27Z</time>
      </trkpt>
      <trkpt lat="43.49023" lon="6.22529">
        <ele>131</ele>
        <time>2022-04-15T13:47:28Z</time>
      </trkpt>
      <trkpt lat="43.49023" lon="6.22528">
        <ele>131</ele>
        <time>2022-04-15T13:47:29Z</time>
      </trkpt>
      <trkpt lat="43.49024" lon="6.22527">
        <ele>131</ele>
        <time>2022-04-15T13:47:30Z</time>
      </trkpt>
      <trkpt lat="43.49024" lon="6.22526">
        <ele>131</ele>
        <time>2022-04-15T13:47:31Z</time>
      </trkpt>
      <trkpt lat="43.49024" lon="6.22525">
        <ele>131</ele>
        <time>2022-04-15T13:47:32Z</time>
      </trkpt>
      <trkpt lat="43.49024" lon="6.22525">
        <ele>131</ele>
        <time>2022-04-15T13:47:33Z</time>
      </trkpt>
      <trkpt lat="43.49024" lon="6.22524">
        <ele>131</ele>
        <time>2022-04-15T13:47:34Z</time>
      </trkpt>
      <trkpt lat="43.49024" lon="6.22524">
        <ele>131</ele>
        <time>2022-04-15T13:47:35Z</time>
      </trkpt>
      <trkpt lat="43.49024" lon="6.22523">
        <ele>131</ele>
        <time>2022-04-15T13:47:36Z</time>
      </trkpt>
      <trkpt lat="43.49024" lon="6.22522">
        <ele>131</ele>
        <time>2022-04-15T13:47:37Z</time>
      </trkpt>
      <trkpt lat="43.49024" lon="6.22521">
        <ele>131</ele>
        <time>2022-04-15T13:47:38Z</time>
      </trkpt>
      <trkpt lat="43.49024" lon="6.2252">
        <ele>131</ele>
        <time>2022-04-15T13:47:39Z</time>
      </trkpt>
      <trkpt lat="43.49024" lon="6.22519">
        <ele>131</ele>
        <time>2022-04-15T13:47:40Z</time>
      </trkpt>
      <trkpt lat="43.49024" lon="6.22518">
        <ele>131</ele>
        <time>2022-04-15T13:47:41Z</time>
      </trkpt>
      <trkpt lat="43.49024" lon="6.22518">
        <ele>131</ele>
        <time>2022-04-15T13:47:42Z</time>
      </trkpt>
      <trkpt lat="43.49024" lon="6.22517">
        <ele>131</ele>
        <time>2022-04-15T13:47:43Z</time>
      </trkpt>
      <trkpt lat="43.49024" lon="6.22517">
        <ele>131</ele>
        <time>2022-04-15T13:47:44Z</time>
      </trkpt>
      <trkpt lat="43.49024" lon="6.22516">
        <ele>131</ele>
        <time>2022-04-15T13:47:45Z</time>
      </trkpt>
      <trkpt lat="43.49024" lon="6.22515">
        <ele>133</ele>
        <time>2022-04-15T13:47:46Z</time>
      </trkpt>
      <trkpt lat="43.49024" lon="6.22514">
        <ele>133</ele>
        <time>2022-04-15T13:47:47Z</time>
      </trkpt>
      <trkpt lat="43.49025" lon="6.22514">
        <ele>133</ele>
        <time>2022-04-15T13:47:48Z</time>
      </trkpt>
      <trkpt lat="43.49025" lon="6.22513">
        <ele>133</ele>
        <time>2022-04-15T13:47:49Z</time>
      </trkpt>
      <trkpt lat="43.49025" lon="6.22513">
        <ele>133</ele>
        <time>2022-04-15T13:47:50Z</time>
      </trkpt>
      <trkpt lat="43.49025" lon="6.22512">
        <ele>133</ele>
        <time>2022-04-15T13:47:51Z</time>
      </trkpt>
      <trkpt lat="43.49025" lon="6.22512">
        <ele>134</ele>
        <time>2022-04-15T13:47:52Z</time>
      </trkpt>
      <trkpt lat="43.49025" lon="6.22511">
        <ele>134</ele>
        <time>2022-04-15T13:47:53Z</time>
      </trkpt>
      <trkpt lat="43.49025" lon="6.22511">
        <ele>134</ele>
        <time>2022-04-15T13:47:54Z</time>
      </trkpt>
      <trkpt lat="43.49025" lon="6.2251">
        <ele>134</ele>
        <time>2022-04-15T13:47:55Z</time>
      </trkpt>
      <trkpt lat="43.49025" lon="6.22509">
        <ele>134</ele>
        <time>2022-04-15T13:47:56Z</time>
      </trkpt>
      <trkpt lat="43.49025" lon="6.22508">
        <ele>134</ele>
        <time>2022-04-15T13:47:57Z</time>
      </trkpt>
      <trkpt lat="43.49025" lon="6.22507">
        <ele>134</ele>
        <time>2022-04-15T13:47:58Z</time>
      </trkpt>
      <trkpt lat="43.49025" lon="6.22506">
        <ele>134</ele>
        <time>2022-04-15T13:47:59Z</time>
      </trkpt>
      <trkpt lat="43.49025" lon="6.22505">
        <ele>134</ele>
        <time>2022-04-15T13:48:00Z</time>
      </trkpt>
      <trkpt lat="43.49025" lon="6.22504">
        <ele>134</ele>
        <time>2022-04-15T13:48:01Z</time>
      </trkpt>
      <trkpt lat="43.49026" lon="6.22503">
        <ele>134</ele>
        <time>2022-04-15T13:48:02Z</time>
      </trkpt>
      <trkpt lat="43.49026" lon="6.22502">
        <ele>134</ele>
        <time>2022-04-15T13:48:03Z</time>
      </trkpt>
      <trkpt lat="43.49026" lon="6.22501">
        <ele>134</ele>
        <time>2022-04-15T13:48:04Z</time>
      </trkpt>
      <trkpt lat="43.49026" lon="6.225">
        <ele>135</ele>
        <time>2022-04-15T13:48:05Z</time>
      </trkpt>
      <trkpt lat="43.49026" lon="6.22499">
        <ele>135</ele>
        <time>2022-04-15T13:48:06Z</time>
      </trkpt>
      <trkpt lat="43.49026" lon="6.22498">
        <ele>135</ele>
        <time>2022-04-15T13:48:07Z</time>
      </trkpt>
      <trkpt lat="43.49026" lon="6.22497">
        <ele>135</ele>
        <time>2022-04-15T13:48:08Z</time>
      </trkpt>
      <trkpt lat="43.49026" lon="6.22496">
        <ele>136</ele>
        <time>2022-04-15T13:48:09Z</time>
      </trkpt>
      <trkpt lat="43.49026" lon="6.22495">
        <ele>136</ele>
        <time>2022-04-15T13:48:10Z</time>
      </trkpt>
      <trkpt lat="43.49026" lon="6.22494">
        <ele>136</ele>
        <time>2022-04-15T13:48:11Z</time>
      </trkpt>
      <trkpt lat="43.49026" lon="6.22492">
        <ele>136</ele>
        <time>2022-04-15T13:48:12Z</time>
      </trkpt>
      <trkpt lat="43.49026" lon="6.22491">
        <ele>136</ele>
        <time>2022-04-15T13:48:13Z</time>
      </trkpt>
      <trkpt lat="43.49026" lon="6.22489">
        <ele>136</ele>
        <time>2022-04-15T13:48:14Z</time>
      </trkpt>
      <trkpt lat="43.49026" lon="6.22488">
        <ele>136</ele>
        <time>2022-04-15T13:48:15Z</time>
      </trkpt>
      <trkpt lat="43.49027" lon="6.22487">
        <ele>136</ele>
        <time>2022-04-15T13:48:16Z</time>
      </trkpt>
      <trkpt lat="43.49027" lon="6.22485">
        <ele>136</ele>
        <time>2022-04-15T13:48:17Z</time>
      </trkpt>
      <trkpt lat="43.49027" lon="6.22484">
        <ele>137</ele>
        <time>2022-04-15T13:48:18Z</time>
      </trkpt>
      <trkpt lat="43.49027" lon="6.22483">
        <ele>137</ele>
        <time>2022-04-15T13:48:19Z</time>
      </trkpt>
      <trkpt lat="43.49028" lon="6.22482">
        <ele>137</ele>
        <time>2022-04-15T13:48:20Z</time>
      </trkpt>
      <trkpt lat="43.49028" lon="6.22481">
        <ele>137</ele>
        <time>2022-04-15T13:48:21Z</time>
      </trkpt>
      <trkpt lat="43.49028" lon="6.22479">
        <ele>137</ele>
        <time>2022-04-15T13:48:22Z</time>
      </trkpt>
      <trkpt lat="43.49028" lon="6.22477">
        <ele>137</ele>
        <time>2022-04-15T13:48:23Z</time>
      </trkpt>
      <trkpt lat="43.49029" lon="6.22476">
        <ele>137</ele>
        <time>2022-04-15T13:48:24Z</time>
      </trkpt>
      <trkpt lat="43.49029" lon="6.22475">
        <ele>137</ele>
        <time>2022-04-15T13:48:25Z</time>
      </trkpt>
      <trkpt lat="43.49029" lon="6.22474">
        <ele>137</ele>
        <time>2022-04-15T13:48:26Z</time>
      </trkpt>
      <trkpt lat="43.4903" lon="6.22473">
        <ele>137</ele>
        <time>2022-04-15T13:48:27Z</time>
      </trkpt>
      <trkpt lat="43.4903" lon="6.22471">
        <ele>137</ele>
        <time>2022-04-15T13:48:28Z</time>
      </trkpt>
      <trkpt lat="43.49031" lon="6.2247">
        <ele>137</ele>
        <time>2022-04-15T13:48:29Z</time>
      </trkpt>
      <trkpt lat="43.49031" lon="6.22469">
        <ele>137</ele>
        <time>2022-04-15T13:48:30Z</time>
      </trkpt>
      <trkpt lat="43.49032" lon="6.22468">
        <ele>137</ele>
        <time>2022-04-15T13:48:31Z</time>
      </trkpt>
      <trkpt lat="43.49032" lon="6.22467">
        <ele>138</ele>
        <time>2022-04-15T13:48:32Z</time>
      </trkpt>
      <trkpt lat="43.49033" lon="6.22466">
        <ele>138</ele>
        <time>2022-04-15T13:48:33Z</time>
      </trkpt>
      <trkpt lat="43.49033" lon="6.22466">
        <ele>138</ele>
        <time>2022-04-15T13:48:34Z</time>
      </trkpt>
      <trkpt lat="43.49034" lon="6.22465">
        <ele>138</ele>
        <time>2022-04-15T13:48:35Z</time>
      </trkpt>
      <trkpt lat="43.49034" lon="6.22463">
        <ele>138</ele>
        <time>2022-04-15T13:48:36Z</time>
      </trkpt>
      <trkpt lat="43.49034" lon="6.22462">
        <ele>138</ele>
        <time>2022-04-15T13:48:37Z</time>
      </trkpt>
      <trkpt lat="43.49035" lon="6.22461">
        <ele>138</ele>
        <time>2022-04-15T13:48:38Z</time>
      </trkpt>
      <trkpt lat="43.49035" lon="6.22459">
        <ele>138</ele>
        <time>2022-04-15T13:48:39Z</time>
      </trkpt>
      <trkpt lat="43.49036" lon="6.22458">
        <ele>139</ele>
        <time>2022-04-15T13:48:40Z</time>
      </trkpt>
      <trkpt lat="43.49037" lon="6.22457">
        <ele>139</ele>
        <time>2022-04-15T13:48:41Z</time>
      </trkpt>
      <trkpt lat="43.49038" lon="6.22456">
        <ele>139</ele>
        <time>2022-04-15T13:48:42Z</time>
      </trkpt>
      <trkpt lat="43.49038" lon="6.22454">
        <ele>140</ele>
        <time>2022-04-15T13:48:43Z</time>
      </trkpt>
      <trkpt lat="43.49039" lon="6.22453">
        <ele>141</ele>
        <time>2022-04-15T13:48:44Z</time>
      </trkpt>
      <trkpt lat="43.4904" lon="6.22451">
        <ele>141</ele>
        <time>2022-04-15T13:48:45Z</time>
      </trkpt>
      <trkpt lat="43.4904" lon="6.2245">
        <ele>141</ele>
        <time>2022-04-15T13:48:46Z</time>
      </trkpt>
      <trkpt lat="43.49041" lon="6.22449">
        <ele>142</ele>
        <time>2022-04-15T13:48:47Z</time>
      </trkpt>
      <trkpt lat="43.49042" lon="6.22448">
        <ele>142</ele>
        <time>2022-04-15T13:48:48Z</time>
      </trkpt>
      <trkpt lat="43.49042" lon="6.22446">
        <ele>142</ele>
        <time>2022-04-15T13:48:49Z</time>
      </trkpt>
      <trkpt lat="43.49043" lon="6.22445">
        <ele>142</ele>
        <time>2022-04-15T13:48:50Z</time>
      </trkpt>
      <trkpt lat="43.49044" lon="6.22444">
        <ele>142</ele>
        <time>2022-04-15T13:48:51Z</time>
      </trkpt>
      <trkpt lat="43.49045" lon="6.22442">
        <ele>142</ele>
        <time>2022-04-15T13:48:52Z</time>
      </trkpt>
      <trkpt lat="43.49045" lon="6.22441">
        <ele>142</ele>
        <time>2022-04-15T13:48:53Z</time>
      </trkpt>
      <trkpt lat="43.49046" lon="6.22439">
        <ele>142</ele>
        <time>2022-04-15T13:48:54Z</time>
      </trkpt>
      <trkpt lat="43.49047" lon="6.22438">
        <ele>142</ele>
        <time>2022-04-15T13:48:55Z</time>
      </trkpt>
      <trkpt lat="43.49047" lon="6.22437">
        <ele>142</ele>
        <time>2022-04-15T13:48:56Z</time>
      </trkpt>
      <trkpt lat="43.49048" lon="6.22435">
        <ele>142</ele>
        <time>2022-04-15T13:48:57Z</time>
      </trkpt>
      <trkpt lat="43.49049" lon="6.22433">
        <ele>142</ele>
        <time>2022-04-15T13:48:58Z</time>
      </trkpt>
      <trkpt lat="43.49049" lon="6.22431">
        <ele>142</ele>
        <time>2022-04-15T13:48:59Z</time>
      </trkpt>
      <trkpt lat="43.4905" lon="6.22429">
        <ele>142</ele>
        <time>2022-04-15T13:49:00Z</time>
      </trkpt>
      <trkpt lat="43.49051" lon="6.22427">
        <ele>142</ele>
        <time>2022-04-15T13:49:01Z</time>
      </trkpt>
      <trkpt lat="43.49051" lon="6.22426">
        <ele>142</ele>
        <time>2022-04-15T13:49:02Z</time>
      </trkpt>
      <trkpt lat="43.49052" lon="6.22424">
        <ele>141</ele>
        <time>2022-04-15T13:49:03Z</time>
      </trkpt>
      <trkpt lat="43.49053" lon="6.22422">
        <ele>141</ele>
        <time>2022-04-15T13:49:04Z</time>
      </trkpt>
      <trkpt lat="43.49053" lon="6.22421">
        <ele>141</ele>
        <time>2022-04-15T13:49:05Z</time>
      </trkpt>
      <trkpt lat="43.49054" lon="6.2242">
        <ele>141</ele>
        <time>2022-04-15T13:49:06Z</time>
      </trkpt>
      <trkpt lat="43.49054" lon="6.22418">
        <ele>141</ele>
        <time>2022-04-15T13:49:07Z</time>
      </trkpt>
      <trkpt lat="43.49055" lon="6.22417">
        <ele>141</ele>
        <time>2022-04-15T13:49:08Z</time>
      </trkpt>
      <trkpt lat="43.49055" lon="6.22416">
        <ele>141</ele>
        <time>2022-04-15T13:49:09Z</time>
      </trkpt>
      <trkpt lat="43.49056" lon="6.22414">
        <ele>142</ele>
        <time>2022-04-15T13:49:10Z</time>
      </trkpt>
      <trkpt lat="43.49056" lon="6.22413">
        <ele>142</ele>
        <time>2022-04-15T13:49:11Z</time>
      </trkpt>
      <trkpt lat="43.49057" lon="6.22412">
        <ele>142</ele>
        <time>2022-04-15T13:49:12Z</time>
      </trkpt>
      <trkpt lat="43.49057" lon="6.22411">
        <ele>142</ele>
        <time>2022-04-15T13:49:13Z</time>
      </trkpt>
      <trkpt lat="43.49058" lon="6.22409">
        <ele>142</ele>
        <time>2022-04-15T13:49:14Z</time>
      </trkpt>
      <trkpt lat="43.49058" lon="6.22408">
        <ele>142</ele>
        <time>2022-04-15T13:49:15Z</time>
      </trkpt>
      <trkpt lat="43.49059" lon="6.22407">
        <ele>142</ele>
        <time>2022-04-15T13:49:16Z</time>
      </trkpt>
      <trkpt lat="43.49059" lon="6.22406">
        <ele>142</ele>
        <time>2022-04-15T13:49:17Z</time>
      </trkpt>
      <trkpt lat="43.4906" lon="6.22405">
        <ele>142</ele>
        <time>2022-04-15T13:49:18Z</time>
      </trkpt>
      <trkpt lat="43.4906" lon="6.22404">
        <ele>142</ele>
        <time>2022-04-15T13:49:19Z</time>
      </trkpt>
      <trkpt lat="43.4906" lon="6.22403">
        <ele>143</ele>
        <time>2022-04-15T13:49:20Z</time>
      </trkpt>
      <trkpt lat="43.49061" lon="6.22401">
        <ele>143</ele>
        <time>2022-04-15T13:49:21Z</time>
      </trkpt>
      <trkpt lat="43.49062" lon="6.224">
        <ele>143</ele>
        <time>2022-04-15T13:49:22Z</time>
      </trkpt>
      <trkpt lat="43.49062" lon="6.22399">
        <ele>144</ele>
        <time>2022-04-15T13:49:23Z</time>
      </trkpt>
      <trkpt lat="43.49063" lon="6.22398">
        <ele>144</ele>
        <time>2022-04-15T13:49:24Z</time>
      </trkpt>
      <trkpt lat="43.49064" lon="6.22396">
        <ele>144</ele>
        <time>2022-04-15T13:49:25Z</time>
      </trkpt>
      <trkpt lat="43.49064" lon="6.22395">
        <ele>144</ele>
        <time>2022-04-15T13:49:26Z</time>
      </trkpt>
      <trkpt lat="43.49065" lon="6.22394">
        <ele>144</ele>
        <time>2022-04-15T13:49:27Z</time>
      </trkpt>
      <trkpt lat="43.49065" lon="6.22393">
        <ele>144</ele>
        <time>2022-04-15T13:49:28Z</time>
      </trkpt>
      <trkpt lat="43.49066" lon="6.22392">
        <ele>144</ele>
        <time>2022-04-15T13:49:29Z</time>
      </trkpt>
      <trkpt lat="43.49066" lon="6.22391">
        <ele>144</ele>
        <time>2022-04-15T13:49:30Z</time>
      </trkpt>
      <trkpt lat="43.49067" lon="6.22389">
        <ele>144</ele>
        <time>2022-04-15T13:49:31Z</time>
      </trkpt>
      <trkpt lat="43.49067" lon="6.22388">
        <ele>144</ele>
        <time>2022-04-15T13:49:32Z</time>
      </trkpt>
      <trkpt lat="43.49068" lon="6.22387">
        <ele>144</ele>
        <time>2022-04-15T13:49:33Z</time>
      </trkpt>
      <trkpt lat="43.49068" lon="6.22386">
        <ele>144</ele>
        <time>2022-04-15T13:49:34Z</time>
      </trkpt>
      <trkpt lat="43.49069" lon="6.22385">
        <ele>144</ele>
        <time>2022-04-15T13:49:35Z</time>
      </trkpt>
      <trkpt lat="43.49069" lon="6.22384">
        <ele>144</ele>
        <time>2022-04-15T13:49:36Z</time>
      </trkpt>
      <trkpt lat="43.4907" lon="6.22382">
        <ele>144</ele>
        <time>2022-04-15T13:49:37Z</time>
      </trkpt>
      <trkpt lat="43.4907" lon="6.22381">
        <ele>144</ele>
        <time>2022-04-15T13:49:38Z</time>
      </trkpt>
      <trkpt lat="43.49071" lon="6.22379">
        <ele>144</ele>
        <time>2022-04-15T13:49:39Z</time>
      </trkpt>
      <trkpt lat="43.49071" lon="6.22377">
        <ele>144</ele>
        <time>2022-04-15T13:49:40Z</time>
      </trkpt>
      <trkpt lat="43.49072" lon="6.22375">
        <ele>144</ele>
        <time>2022-04-15T13:49:41Z</time>
      </trkpt>
      <trkpt lat="43.49072" lon="6.22374">
        <ele>144</ele>
        <time>2022-04-15T13:49:42Z</time>
      </trkpt>
      <trkpt lat="43.49072" lon="6.22372">
        <ele>144</ele>
        <time>2022-04-15T13:49:43Z</time>
      </trkpt>
      <trkpt lat="43.49072" lon="6.22371">
        <ele>144</ele>
        <time>2022-04-15T13:49:44Z</time>
      </trkpt>
      <trkpt lat="43.49072" lon="6.22371">
        <ele>144</ele>
        <time>2022-04-15T13:49:45Z</time>
      </trkpt>
      <trkpt lat="43.49072" lon="6.22371">
        <ele>144</ele>
        <time>2022-04-15T13:49:46Z</time>
      </trkpt>
      <trkpt lat="43.49072" lon="6.22371">
        <ele>144</ele>
        <time>2022-04-15T13:49:47Z</time>
      </trkpt>
      <trkpt lat="43.49072" lon="6.22371">
        <ele>144</ele>
        <time>2022-04-15T13:49:48Z</time>
      </trkpt>
      <trkpt lat="43.49072" lon="6.22371">
        <ele>144</ele>
        <time>2022-04-15T13:49:49Z</time>
      </trkpt>
      <trkpt lat="43.49072" lon="6.22371">
        <ele>144</ele>
        <time>2022-04-15T13:49:50Z</time>
      </trkpt>
      <trkpt lat="43.49072" lon="6.22371">
        <ele>144</ele>
        <time>2022-04-15T13:49:51Z</time>
      </trkpt>
      <trkpt lat="43.49072" lon="6.22371">
        <ele>144</ele>
        <time>2022-04-15T13:49:52Z</time>
      </trkpt>
      <trkpt lat="43.49072" lon="6.22371">
        <ele>144</ele>
        <time>2022-04-15T13:49:53Z</time>
      </trkpt>
      <trkpt lat="43.49072" lon="6.22371">
        <ele>144</ele>
        <time>2022-04-15T13:49:54Z</time>
      </trkpt>
      <trkpt lat="43.49072" lon="6.22371">
        <ele>144</ele>
        <time>2022-04-15T13:49:55Z</time>
      </trkpt>
      <trkpt lat="43.49072" lon="6.22371">
        <ele>144</ele>
        <time>2022-04-15T13:49:56Z</time>
      </trkpt>
      <trkpt lat="43.49072" lon="6.22371">
        <ele>144</ele>
        <time>2022-04-15T13:49:57Z</time>
      </trkpt>
      <trkpt lat="43.49072" lon="6.22371">
        <ele>144</ele>
        <time>2022-04-15T13:49:58Z</time>
      </trkpt>
      <trkpt lat="43.49072" lon="6.22371">
        <ele>144</ele>
        <time>2022-04-15T13:49:59Z</time>
      </trkpt>
      <trkpt lat="43.49072" lon="6.22371">
        <ele>144</ele>
        <time>2022-04-15T13:50:00Z</time>
      </trkpt>
      <trkpt lat="43.49072" lon="6.22371">
        <ele>144</ele>
        <time>2022-04-15T13:50:01Z</time>
      </trkpt>
      <trkpt lat="43.49072" lon="6.22371">
        <ele>144</ele>
        <time>2022-04-15T13:50:02Z</time>
      </trkpt>
      <trkpt lat="43.49072" lon="6.22371">
        <ele>144</ele>
        <time>2022-04-15T13:50:03Z</time>
      </trkpt>
      <trkpt lat="43.49072" lon="6.22371">
        <ele>144</ele>
        <time>2022-04-15T13:50:04Z</time>
      </trkpt>
      <trkpt lat="43.49072" lon="6.22371">
        <ele>144</ele>
        <time>2022-04-15T13:50:05Z</time>
      </trkpt>
      <trkpt lat="43.49072" lon="6.22371">
        <ele>144</ele>
        <time>2022-04-15T13:50:06Z</time>
      </trkpt>
      <trkpt lat="43.49072" lon="6.22371">
        <ele>144</ele>
        <time>2022-04-15T13:50:07Z</time>
      </trkpt>
      <trkpt lat="43.49072" lon="6.22371">
        <ele>144</ele>
        <time>2022-04-15T13:50:08Z</time>
      </trkpt>
      <trkpt lat="43.49072" lon="6.22371">
        <ele>144</ele>
        <time>2022-04-15T13:50:09Z</time>
      </trkpt>
      <trkpt lat="43.49072" lon="6.22371">
        <ele>144</ele>
        <time>2022-04-15T13:50:10Z</time>
      </trkpt>
      <trkpt lat="43.49072" lon="6.22371">
        <ele>144</ele>
        <time>2022-04-15T13:50:11Z</time>
      </trkpt>
      <trkpt lat="43.49072" lon="6.22371">
        <ele>145</ele>
        <time>2022-04-15T13:50:12Z</time>
      </trkpt>
      <trkpt lat="43.49072" lon="6.22371">
        <ele>145</ele>
        <time>2022-04-15T13:50:13Z</time>
      </trkpt>
      <trkpt lat="43.49072" lon="6.22371">
        <ele>145</ele>
        <time>2022-04-15T13:50:14Z</time>
      </trkpt>
      <trkpt lat="43.49072" lon="6.22371">
        <ele>145</ele>
        <time>2022-04-15T13:50:15Z</time>
      </trkpt>
      <trkpt lat="43.49072" lon="6.22371">
        <ele>145</ele>
        <time>2022-04-15T13:50:16Z</time>
      </trkpt>
      <trkpt lat="43.49072" lon="6.22371">
        <ele>145</ele>
        <time>2022-04-15T13:50:17Z</time>
      </trkpt>
      <trkpt lat="43.49072" lon="6.22371">
        <ele>145</ele>
        <time>2022-04-15T13:50:18Z</time>
      </trkpt>
      <trkpt lat="43.49072" lon="6.22371">
        <ele>145</ele>
        <time>2022-04-15T13:50:19Z</time>
      </trkpt>
      <trkpt lat="43.49072" lon="6.22371">
        <ele>145</ele>
        <time>2022-04-15T13:50:20Z</time>
      </trkpt>
      <trkpt lat="43.49072" lon="6.22371">
        <ele>145</ele>
        <time>2022-04-15T13:50:21Z</time>
      </trkpt>
      <trkpt lat="43.49072" lon="6.22371">
        <ele>145</ele>
        <time>2022-04-15T13:50:22Z</time>
      </trkpt>
      <trkpt lat="43.49072" lon="6.22371">
        <ele>145</ele>
        <time>2022-04-15T13:50:23Z</time>
      </trkpt>
      <trkpt lat="43.49072" lon="6.22371">
        <ele>145</ele>
        <time>2022-04-15T13:50:24Z</time>
      </trkpt>
      <trkpt lat="43.49072" lon="6.22371">
        <ele>145</ele>
        <time>2022-04-15T13:50:25Z</time>
      </trkpt>
      <trkpt lat="43.49072" lon="6.22371">
        <ele>145</ele>
        <time>2022-04-15T13:50:26Z</time>
      </trkpt>
      <trkpt lat="43.49072" lon="6.22371">
        <ele>145</ele>
        <time>2022-04-15T13:50:27Z</time>
      </trkpt>
      <trkpt lat="43.49072" lon="6.22371">
        <ele>145</ele>
        <time>2022-04-15T13:50:28Z</time>
      </trkpt>
      <trkpt lat="43.49072" lon="6.22371">
        <ele>145</ele>
        <time>2022-04-15T13:50:29Z</time>
      </trkpt>
      <trkpt lat="43.49072" lon="6.22371">
        <ele>145</ele>
        <time>2022-04-15T13:50:30Z</time>
      </trkpt>
      <trkpt lat="43.49072" lon="6.22371">
        <ele>145</ele>
        <time>2022-04-15T13:50:31Z</time>
      </trkpt>
      <trkpt lat="43.49072" lon="6.22371">
        <ele>145</ele>
        <time>2022-04-15T13:50:32Z</time>
      </trkpt>
      <trkpt lat="43.49072" lon="6.22371">
        <ele>145</ele>
        <time>2022-04-15T13:50:33Z</time>
      </trkpt>
      <trkpt lat="43.49072" lon="6.22371">
        <ele>145</ele>
        <time>2022-04-15T13:50:34Z</time>
      </trkpt>
      <trkpt lat="43.49072" lon="6.22371">
        <ele>145</ele>
        <time>2022-04-15T13:50:35Z</time>
      </trkpt>
      <trkpt lat="43.49072" lon="6.22371">
        <ele>145</ele>
        <time>2022-04-15T13:50:36Z</time>
      </trkpt>
      <trkpt lat="43.49072" lon="6.22371">
        <ele>145</ele>
        <time>2022-04-15T13:50:37Z</time>
      </trkpt>
      <trkpt lat="43.49072" lon="6.22371">
        <ele>145</ele>
        <time>2022-04-15T13:50:38Z</time>
      </trkpt>
      <trkpt lat="43.49072" lon="6.22371">
        <ele>145</ele>
        <time>2022-04-15T13:50:39Z</time>
      </trkpt>
      <trkpt lat="43.49072" lon="6.22371">
        <ele>145</ele>
        <time>2022-04-15T13:50:40Z</time>
      </trkpt>
      <trkpt lat="43.49072" lon="6.22371">
        <ele>145</ele>
        <time>2022-04-15T13:50:41Z</time>
      </trkpt>
      <trkpt lat="43.49072" lon="6.22371">
        <ele>145</ele>
        <time>2022-04-15T13:50:42Z</time>
      </trkpt>
      <trkpt lat="43.49072" lon="6.22371">
        <ele>145</ele>
        <time>2022-04-15T13:50:43Z</time>
      </trkpt>
      <trkpt lat="43.49072" lon="6.22371">
        <ele>145</ele>
        <time>2022-04-15T13:50:44Z</time>
      </trkpt>
      <trkpt lat="43.49072" lon="6.22371">
        <ele>145</ele>
        <time>2022-04-15T13:50:45Z</time>
      </trkpt>
      <trkpt lat="43.49072" lon="6.22371">
        <ele>145</ele>
        <time>2022-04-15T13:50:46Z</time>
      </trkpt>
      <trkpt lat="43.49072" lon="6.22371">
        <ele>145</ele>
        <time>2022-04-15T13:50:47Z</time>
      </trkpt>
      <trkpt lat="43.49072" lon="6.22371">
        <ele>145</ele>
        <time>2022-04-15T13:50:48Z</time>
      </trkpt>
      <trkpt lat="43.49072" lon="6.22371">
        <ele>145</ele>
        <time>2022-04-15T13:50:49Z</time>
      </trkpt>
      <trkpt lat="43.49072" lon="6.22371">
        <ele>145</ele>
        <time>2022-04-15T13:50:50Z</time>
      </trkpt>
      <trkpt lat="43.49072" lon="6.22371">
        <ele>145</ele>
        <time>2022-04-15T13:50:51Z</time>
      </trkpt>
      <trkpt lat="43.49072" lon="6.22371">
        <ele>145</ele>
        <time>2022-04-15T13:50:52Z</time>
      </trkpt>
      <trkpt lat="43.49072" lon="6.22371">
        <ele>145</ele>
        <time>2022-04-15T13:50:53Z</time>
      </trkpt>
      <trkpt lat="43.49072" lon="6.22371">
        <ele>145</ele>
        <time>2022-04-15T13:50:54Z</time>
      </trkpt>
      <trkpt lat="43.49072" lon="6.22371">
        <ele>145</ele>
        <time>2022-04-15T13:50:55Z</time>
      </trkpt>
      <trkpt lat="43.49072" lon="6.22371">
        <ele>145</ele>
        <time>2022-04-15T13:50:56Z</time>
      </trkpt>
      <trkpt lat="43.49072" lon="6.22371">
        <ele>145</ele>
        <time>2022-04-15T13:50:57Z</time>
      </trkpt>
      <trkpt lat="43.49072" lon="6.22371">
        <ele>145</ele>
        <time>2022-04-15T13:50:58Z</time>
      </trkpt>
      <trkpt lat="43.49072" lon="6.22371">
        <ele>145</ele>
        <time>2022-04-15T13:50:59Z</time>
      </trkpt>
      <trkpt lat="43.49072" lon="6.22371">
        <ele>145</ele>
        <time>2022-04-15T13:51:00Z</time>
      </trkpt>
      <trkpt lat="43.49072" lon="6.22371">
        <ele>145</ele>
        <time>2022-04-15T13:51:01Z</time>
      </trkpt>
      <trkpt lat="43.49072" lon="6.22371">
        <ele>145</ele>
        <time>2022-04-15T13:51:02Z</time>
      </trkpt>
      <trkpt lat="43.49072" lon="6.22371">
        <ele>145</ele>
        <time>2022-04-15T13:51:03Z</time>
      </trkpt>
      <trkpt lat="43.49072" lon="6.22371">
        <ele>145</ele>
        <time>2022-04-15T13:51:04Z</time>
      </trkpt>
      <trkpt lat="43.49072" lon="6.22371">
        <ele>145</ele>
        <time>2022-04-15T13:51:05Z</time>
      </trkpt>
      <trkpt lat="43.49072" lon="6.22371">
        <ele>145</ele>
        <time>2022-04-15T13:51:06Z</time>
      </trkpt>
      <trkpt lat="43.49072" lon="6.22371">
        <ele>145</ele>
        <time>2022-04-15T13:51:07Z</time>
      </trkpt>
      <trkpt lat="43.49072" lon="6.22371">
        <ele>145</ele>
        <time>2022-04-15T13:51:08Z</time>
      </trkpt>
      <trkpt lat="43.49072" lon="6.22371">
        <ele>145</ele>
        <time>2022-04-15T13:51:09Z</time>
      </trkpt>
      <trkpt lat="43.49072" lon="6.22371">
        <ele>145</ele>
        <time>2022-04-15T13:51:10Z</time>
      </trkpt>
      <trkpt lat="43.49072" lon="6.22371">
        <ele>145</ele>
        <time>2022-04-15T13:51:11Z</time>
      </trkpt>
      <trkpt lat="43.49072" lon="6.22371">
        <ele>145</ele>
        <time>2022-04-15T13:51:12Z</time>
      </trkpt>
      <trkpt lat="43.49072" lon="6.22371">
        <ele>145</ele>
        <time>2022-04-15T13:51:13Z</time>
      </trkpt>
      <trkpt lat="43.49072" lon="6.22371">
        <ele>145</ele>
        <time>2022-04-15T13:51:14Z</time>
      </trkpt>
      <trkpt lat="43.49072" lon="6.22371">
        <ele>145</ele>
        <time>2022-04-15T13:51:15Z</time>
      </trkpt>
      <trkpt lat="43.49072" lon="6.22371">
        <ele>145</ele>
        <time>2022-04-15T13:51:16Z</time>
      </trkpt>
      <trkpt lat="43.49072" lon="6.22371">
        <ele>145</ele>
        <time>2022-04-15T13:51:17Z</time>
      </trkpt>
      <trkpt lat="43.49072" lon="6.22371">
        <ele>145</ele>
        <time>2022-04-15T13:51:18Z</time>
      </trkpt>
      <trkpt lat="43.49072" lon="6.22371">
        <ele>145</ele>
        <time>2022-04-15T13:51:19Z</time>
      </trkpt>
      <trkpt lat="43.49072" lon="6.22371">
        <ele>145</ele>
        <time>2022-04-15T13:51:20Z</time>
      </trkpt>
      <trkpt lat="43.49072" lon="6.22371">
        <ele>145</ele>
        <time>2022-04-15T13:51:21Z</time>
      </trkpt>
      <trkpt lat="43.49072" lon="6.22371">
        <ele>145</ele>
        <time>2022-04-15T13:51:22Z</time>
      </trkpt>
      <trkpt lat="43.49071" lon="6.22372">
        <ele>145</ele>
        <time>2022-04-15T13:51:23Z</time>
      </trkpt>
      <trkpt lat="43.49071" lon="6.22372">
        <ele>145</ele>
        <time>2022-04-15T13:51:24Z</time>
      </trkpt>
      <trkpt lat="43.49071" lon="6.22373">
        <ele>145</ele>
        <time>2022-04-15T13:51:25Z</time>
      </trkpt>
      <trkpt lat="43.4907" lon="6.22374">
        <ele>145</ele>
        <time>2022-04-15T13:51:26Z</time>
      </trkpt>
      <trkpt lat="43.4907" lon="6.22375">
        <ele>145</ele>
        <time>2022-04-15T13:51:27Z</time>
      </trkpt>
      <trkpt lat="43.49069" lon="6.22376">
        <ele>145</ele>
        <time>2022-04-15T13:51:28Z</time>
      </trkpt>
      <trkpt lat="43.49069" lon="6.22377">
        <ele>145</ele>
        <time>2022-04-15T13:51:29Z</time>
      </trkpt>
      <trkpt lat="43.49068" lon="6.22377">
        <ele>145</ele>
        <time>2022-04-15T13:51:30Z</time>
      </trkpt>
      <trkpt lat="43.49068" lon="6.22378">
        <ele>145</ele>
        <time>2022-04-15T13:51:31Z</time>
      </trkpt>
      <trkpt lat="43.49067" lon="6.22378">
        <ele>145</ele>
        <time>2022-04-15T13:51:32Z</time>
      </trkpt>
      <trkpt lat="43.49067" lon="6.22378">
        <ele>145</ele>
        <time>2022-04-15T13:51:33Z</time>
      </trkpt>
      <trkpt lat="43.49067" lon="6.22378">
        <ele>145</ele>
        <time>2022-04-15T13:51:34Z</time>
      </trkpt>
      <trkpt lat="43.49067" lon="6.22378">
        <ele>145</ele>
        <time>2022-04-15T13:51:35Z</time>
      </trkpt>
      <trkpt lat="43.49067" lon="6.22378">
        <ele>145</ele>
        <time>2022-04-15T13:51:36Z</time>
      </trkpt>
      <trkpt lat="43.49067" lon="6.22378">
        <ele>145</ele>
        <time>2022-04-15T13:51:37Z</time>
      </trkpt>
      <trkpt lat="43.49067" lon="6.22378">
        <ele>145</ele>
        <time>2022-04-15T13:51:38Z</time>
      </trkpt>
      <trkpt lat="43.49067" lon="6.22378">
        <ele>145</ele>
        <time>2022-04-15T13:51:39Z</time>
      </trkpt>
      <trkpt lat="43.49067" lon="6.22378">
        <ele>145</ele>
        <time>2022-04-15T13:51:40Z</time>
      </trkpt>
      <trkpt lat="43.49067" lon="6.22378">
        <ele>145</ele>
        <time>2022-04-15T13:51:41Z</time>
      </trkpt>
      <trkpt lat="43.49067" lon="6.22378">
        <ele>145</ele>
        <time>2022-04-15T13:51:42Z</time>
      </trkpt>
      <trkpt lat="43.49067" lon="6.22378">
        <ele>145</ele>
        <time>2022-04-15T13:51:43Z</time>
      </trkpt>
      <trkpt lat="43.49067" lon="6.22378">
        <ele>145</ele>
        <time>2022-04-15T13:51:44Z</time>
      </trkpt>
      <trkpt lat="43.49067" lon="6.22378">
        <ele>145</ele>
        <time>2022-04-15T13:51:45Z</time>
      </trkpt>
      <trkpt lat="43.49067" lon="6.22378">
        <ele>145</ele>
        <time>2022-04-15T13:51:46Z</time>
      </trkpt>
      <trkpt lat="43.49067" lon="6.22378">
        <ele>145</ele>
        <time>2022-04-15T13:51:47Z</time>
      </trkpt>
      <trkpt lat="43.49067" lon="6.22378">
        <ele>145</ele>
        <time>2022-04-15T13:51:48Z</time>
      </trkpt>
      <trkpt lat="43.49067" lon="6.22378">
        <ele>145</ele>
        <time>2022-04-15T13:51:49Z</time>
      </trkpt>
      <trkpt lat="43.49065" lon="6.2238">
        <ele>145</ele>
        <time>2022-04-15T13:51:50Z</time>
      </trkpt>
      <trkpt lat="43.49064" lon="6.2238">
        <ele>145</ele>
        <time>2022-04-15T13:51:51Z</time>
      </trkpt>
      <trkpt lat="43.49063" lon="6.22381">
        <ele>145</ele>
        <time>2022-04-15T13:51:52Z</time>
      </trkpt>
      <trkpt lat="43.49063" lon="6.22382">
        <ele>145</ele>
        <time>2022-04-15T13:51:53Z</time>
      </trkpt>
      <trkpt lat="43.49062" lon="6.22383">
        <ele>145</ele>
        <time>2022-04-15T13:51:54Z</time>
      </trkpt>
      <trkpt lat="43.49061" lon="6.22384">
        <ele>145</ele>
        <time>2022-04-15T13:51:55Z</time>
      </trkpt>
      <trkpt lat="43.49061" lon="6.22385">
        <ele>145</ele>
        <time>2022-04-15T13:51:56Z</time>
      </trkpt>
      <trkpt lat="43.4906" lon="6.22385">
        <ele>145</ele>
        <time>2022-04-15T13:51:57Z</time>
      </trkpt>
      <trkpt lat="43.4906" lon="6.22386">
        <ele>145</ele>
        <time>2022-04-15T13:51:58Z</time>
      </trkpt>
      <trkpt lat="43.4906" lon="6.22386">
        <ele>145</ele>
        <time>2022-04-15T13:51:59Z</time>
      </trkpt>
      <trkpt lat="43.49059" lon="6.22387">
        <ele>145</ele>
        <time>2022-04-15T13:52:00Z</time>
      </trkpt>
      <trkpt lat="43.49059" lon="6.22387">
        <ele>145</ele>
        <time>2022-04-15T13:52:01Z</time>
      </trkpt>
      <trkpt lat="43.49059" lon="6.22388">
        <ele>145</ele>
        <time>2022-04-15T13:52:02Z</time>
      </trkpt>
      <trkpt lat="43.49058" lon="6.2239">
        <ele>145</ele>
        <time>2022-04-15T13:52:03Z</time>
      </trkpt>
      <trkpt lat="43.49057" lon="6.22391">
        <ele>145</ele>
        <time>2022-04-15T13:52:04Z</time>
      </trkpt>
      <trkpt lat="43.49057" lon="6.22392">
        <ele>145</ele>
        <time>2022-04-15T13:52:05Z</time>
      </trkpt>
      <trkpt lat="43.49056" lon="6.22393">
        <ele>145</ele>
        <time>2022-04-15T13:52:06Z</time>
      </trkpt>
      <trkpt lat="43.49055" lon="6.22394">
        <ele>145</ele>
        <time>2022-04-15T13:52:07Z</time>
      </trkpt>
      <trkpt lat="43.49054" lon="6.22395">
        <ele>145</ele>
        <time>2022-04-15T13:52:08Z</time>
      </trkpt>
      <trkpt lat="43.49054" lon="6.22396">
        <ele>145</ele>
        <time>2022-04-15T13:52:09Z</time>
      </trkpt>
      <trkpt lat="43.49053" lon="6.22397">
        <ele>145</ele>
        <time>2022-04-15T13:52:10Z</time>
      </trkpt>
      <trkpt lat="43.49053" lon="6.22397">
        <ele>145</ele>
        <time>2022-04-15T13:52:11Z</time>
      </trkpt>
      <trkpt lat="43.49052" lon="6.22398">
        <ele>146</ele>
        <time>2022-04-15T13:52:12Z</time>
      </trkpt>
      <trkpt lat="43.49052" lon="6.22399">
        <ele>146</ele>
        <time>2022-04-15T13:52:13Z</time>
      </trkpt>
      <trkpt lat="43.49051" lon="6.224">
        <ele>146</ele>
        <time>2022-04-15T13:52:14Z</time>
      </trkpt>
      <trkpt lat="43.49049" lon="6.22402">
        <ele>146</ele>
        <time>2022-04-15T13:52:15Z</time>
      </trkpt>
      <trkpt lat="43.49048" lon="6.22403">
        <ele>146</ele>
        <time>2022-04-15T13:52:16Z</time>
      </trkpt>
      <trkpt lat="43.49046" lon="6.22405">
        <ele>146</ele>
        <time>2022-04-15T13:52:17Z</time>
      </trkpt>
      <trkpt lat="43.49045" lon="6.22407">
        <ele>147</ele>
        <time>2022-04-15T13:52:18Z</time>
      </trkpt>
      <trkpt lat="43.49043" lon="6.22408">
        <ele>148</ele>
        <time>2022-04-15T13:52:19Z</time>
      </trkpt>
      <trkpt lat="43.49042" lon="6.22409">
        <ele>148</ele>
        <time>2022-04-15T13:52:20Z</time>
      </trkpt>
      <trkpt lat="43.49041" lon="6.2241">
        <ele>148</ele>
        <time>2022-04-15T13:52:21Z</time>
      </trkpt>
      <trkpt lat="43.49041" lon="6.22411">
        <ele>148</ele>
        <time>2022-04-15T13:52:22Z</time>
      </trkpt>
      <trkpt lat="43.4904" lon="6.22412">
        <ele>149</ele>
        <time>2022-04-15T13:52:23Z</time>
      </trkpt>
      <trkpt lat="43.49039" lon="6.22412">
        <ele>149</ele>
        <time>2022-04-15T13:52:24Z</time>
      </trkpt>
      <trkpt lat="43.49039" lon="6.22413">
        <ele>149</ele>
        <time>2022-04-15T13:52:25Z</time>
      </trkpt>
      <trkpt lat="43.49038" lon="6.22414">
        <ele>149</ele>
        <time>2022-04-15T13:52:26Z</time>
      </trkpt>
      <trkpt lat="43.49037" lon="6.22415">
        <ele>149</ele>
        <time>2022-04-15T13:52:27Z</time>
      </trkpt>
      <trkpt lat="43.49035" lon="6.22416">
        <ele>149</ele>
        <time>2022-04-15T13:52:28Z</time>
      </trkpt>
      <trkpt lat="43.49033" lon="6.22419">
        <ele>149</ele>
        <time>2022-04-15T13:52:29Z</time>
      </trkpt>
      <trkpt lat="43.49031" lon="6.22421">
        <ele>149</ele>
        <time>2022-04-15T13:52:30Z</time>
      </trkpt>
      <trkpt lat="43.4903" lon="6.22423">
        <ele>150</ele>
        <time>2022-04-15T13:52:31Z</time>
      </trkpt>
      <trkpt lat="43.49028" lon="6.22424">
        <ele>151</ele>
        <time>2022-04-15T13:52:32Z</time>
      </trkpt>
      <trkpt lat="43.49027" lon="6.22425">
        <ele>151</ele>
        <time>2022-04-15T13:52:33Z</time>
      </trkpt>
      <trkpt lat="43.49026" lon="6.22426">
        <ele>151</ele>
        <time>2022-04-15T13:52:34Z</time>
      </trkpt>
      <trkpt lat="43.49026" lon="6.22427">
        <ele>151</ele>
        <time>2022-04-15T13:52:35Z</time>
      </trkpt>
      <trkpt lat="43.49025" lon="6.22428">
        <ele>151</ele>
        <time>2022-04-15T13:52:36Z</time>
      </trkpt>
      <trkpt lat="43.49024" lon="6.22429">
        <ele>151</ele>
        <time>2022-04-15T13:52:37Z</time>
      </trkpt>
      <trkpt lat="43.49023" lon="6.2243">
        <ele>151</ele>
        <time>2022-04-15T13:52:38Z</time>
      </trkpt>
      <trkpt lat="43.49022" lon="6.22431">
        <ele>151</ele>
        <time>2022-04-15T13:52:39Z</time>
      </trkpt>
      <trkpt lat="43.49021" lon="6.22432">
        <ele>151</ele>
        <time>2022-04-15T13:52:40Z</time>
      </trkpt>
      <trkpt lat="43.4902" lon="6.22433">
        <ele>151</ele>
        <time>2022-04-15T13:52:41Z</time>
      </trkpt>
      <trkpt lat="43.49019" lon="6.22435">
        <ele>152</ele>
        <time>2022-04-15T13:52:42Z</time>
      </trkpt>
      <trkpt lat="43.49017" lon="6.22436">
        <ele>152</ele>
        <time>2022-04-15T13:52:43Z</time>
      </trkpt>
      <trkpt lat="43.49016" lon="6.22437">
        <ele>152</ele>
        <time>2022-04-15T13:52:44Z</time>
      </trkpt>
      <trkpt lat="43.49015" lon="6.22438">
        <ele>152</ele>
        <time>2022-04-15T13:52:45Z</time>
      </trkpt>
      <trkpt lat="43.49014" lon="6.22439">
        <ele>152</ele>
        <time>2022-04-15T13:52:46Z</time>
      </trkpt>
      <trkpt lat="43.49014" lon="6.2244">
        <ele>152</ele>
        <time>2022-04-15T13:52:47Z</time>
      </trkpt>
      <trkpt lat="43.49013" lon="6.2244">
        <ele>152</ele>
        <time>2022-04-15T13:52:48Z</time>
      </trkpt>
      <trkpt lat="43.49012" lon="6.22441">
        <ele>152</ele>
        <time>2022-04-15T13:52:49Z</time>
      </trkpt>
      <trkpt lat="43.49011" lon="6.22442">
        <ele>152</ele>
        <time>2022-04-15T13:52:50Z</time>
      </trkpt>
      <trkpt lat="43.4901" lon="6.22443">
        <ele>152</ele>
        <time>2022-04-15T13:52:51Z</time>
      </trkpt>
      <trkpt lat="43.49009" lon="6.22444">
        <ele>153</ele>
        <time>2022-04-15T13:52:52Z</time>
      </trkpt>
      <trkpt lat="43.49007" lon="6.22445">
        <ele>153</ele>
        <time>2022-04-15T13:52:53Z</time>
      </trkpt>
      <trkpt lat="43.49006" lon="6.22446">
        <ele>153</ele>
        <time>2022-04-15T13:52:54Z</time>
      </trkpt>
      <trkpt lat="43.49005" lon="6.22447">
        <ele>153</ele>
        <time>2022-04-15T13:52:55Z</time>
      </trkpt>
      <trkpt lat="43.49004" lon="6.22448">
        <ele>153</ele>
        <time>2022-04-15T13:52:56Z</time>
      </trkpt>
      <trkpt lat="43.49003" lon="6.22449">
        <ele>153</ele>
        <time>2022-04-15T13:52:57Z</time>
      </trkpt>
      <trkpt lat="43.49002" lon="6.2245">
        <ele>153</ele>
        <time>2022-04-15T13:52:58Z</time>
      </trkpt>
      <trkpt lat="43.49002" lon="6.22451">
        <ele>153</ele>
        <time>2022-04-15T13:52:59Z</time>
      </trkpt>
      <trkpt lat="43.49001" lon="6.22452">
        <ele>154</ele>
        <time>2022-04-15T13:53:00Z</time>
      </trkpt>
      <trkpt lat="43.49" lon="6.22453">
        <ele>154</ele>
        <time>2022-04-15T13:53:01Z</time>
      </trkpt>
      <trkpt lat="43.48999" lon="6.22454">
        <ele>154</ele>
        <time>2022-04-15T13:53:02Z</time>
      </trkpt>
      <trkpt lat="43.48998" lon="6.22455">
        <ele>154</ele>
        <time>2022-04-15T13:53:03Z</time>
      </trkpt>
      <trkpt lat="43.48997" lon="6.22455">
        <ele>155</ele>
        <time>2022-04-15T13:53:04Z</time>
      </trkpt>
      <trkpt lat="43.48997" lon="6.22456">
        <ele>156</ele>
        <time>2022-04-15T13:53:05Z</time>
      </trkpt>
      <trkpt lat="43.48996" lon="6.22457">
        <ele>156</ele>
        <time>2022-04-15T13:53:06Z</time>
      </trkpt>
      <trkpt lat="43.48995" lon="6.22458">
        <ele>156</ele>
        <time>2022-04-15T13:53:07Z</time>
      </trkpt>
      <trkpt lat="43.48995" lon="6.22459">
        <ele>156</ele>
        <time>2022-04-15T13:53:08Z</time>
      </trkpt>
      <trkpt lat="43.48994" lon="6.2246">
        <ele>157</ele>
        <time>2022-04-15T13:53:09Z</time>
      </trkpt>
      <trkpt lat="43.48993" lon="6.22462">
        <ele>157</ele>
        <time>2022-04-15T13:53:10Z</time>
      </trkpt>
      <trkpt lat="43.48992" lon="6.22463">
        <ele>157</ele>
        <time>2022-04-15T13:53:11Z</time>
      </trkpt>
      <trkpt lat="43.48992" lon="6.22464">
        <ele>157</ele>
        <time>2022-04-15T13:53:12Z</time>
      </trkpt>
      <trkpt lat="43.48992" lon="6.22465">
        <ele>157</ele>
        <time>2022-04-15T13:53:13Z</time>
      </trkpt>
      <trkpt lat="43.48991" lon="6.22466">
        <ele>158</ele>
        <time>2022-04-15T13:53:14Z</time>
      </trkpt>
      <trkpt lat="43.48991" lon="6.22467">
        <ele>158</ele>
        <time>2022-04-15T13:53:15Z</time>
      </trkpt>
      <trkpt lat="43.4899" lon="6.22468">
        <ele>158</ele>
        <time>2022-04-15T13:53:16Z</time>
      </trkpt>
      <trkpt lat="43.4899" lon="6.22469">
        <ele>158</ele>
        <time>2022-04-15T13:53:17Z</time>
      </trkpt>
      <trkpt lat="43.48989" lon="6.2247">
        <ele>158</ele>
        <time>2022-04-15T13:53:18Z</time>
      </trkpt>
      <trkpt lat="43.48989" lon="6.22471">
        <ele>158</ele>
        <time>2022-04-15T13:53:19Z</time>
      </trkpt>
      <trkpt lat="43.48988" lon="6.22472">
        <ele>158</ele>
        <time>2022-04-15T13:53:20Z</time>
      </trkpt>
      <trkpt lat="43.48988" lon="6.22473">
        <ele>158</ele>
        <time>2022-04-15T13:53:21Z</time>
      </trkpt>
      <trkpt lat="43.48987" lon="6.22474">
        <ele>158</ele>
        <time>2022-04-15T13:53:22Z</time>
      </trkpt>
      <trkpt lat="43.48987" lon="6.22476">
        <ele>158</ele>
        <time>2022-04-15T13:53:23Z</time>
      </trkpt>
      <trkpt lat="43.48986" lon="6.22477">
        <ele>158</ele>
        <time>2022-04-15T13:53:24Z</time>
      </trkpt>
      <trkpt lat="43.48986" lon="6.22478">
        <ele>159</ele>
        <time>2022-04-15T13:53:25Z</time>
      </trkpt>
      <trkpt lat="43.48985" lon="6.22479">
        <ele>159</ele>
        <time>2022-04-15T13:53:26Z</time>
      </trkpt>
      <trkpt lat="43.48984" lon="6.2248">
        <ele>159</ele>
        <time>2022-04-15T13:53:27Z</time>
      </trkpt>
      <trkpt lat="43.48983" lon="6.22482">
        <ele>159</ele>
        <time>2022-04-15T13:53:28Z</time>
      </trkpt>
      <trkpt lat="43.48982" lon="6.22483">
        <ele>159</ele>
        <time>2022-04-15T13:53:29Z</time>
      </trkpt>
      <trkpt lat="43.48982" lon="6.22484">
        <ele>159</ele>
        <time>2022-04-15T13:53:30Z</time>
      </trkpt>
      <trkpt lat="43.48981" lon="6.22485">
        <ele>159</ele>
        <time>2022-04-15T13:53:31Z</time>
      </trkpt>
      <trkpt lat="43.4898" lon="6.22486">
        <ele>159</ele>
        <time>2022-04-15T13:53:32Z</time>
      </trkpt>
      <trkpt lat="43.4898" lon="6.22486">
        <ele>159</ele>
        <time>2022-04-15T13:53:33Z</time>
      </trkpt>
      <trkpt lat="43.48979" lon="6.22487">
        <ele>159</ele>
        <time>2022-04-15T13:53:34Z</time>
      </trkpt>
      <trkpt lat="43.48978" lon="6.22488">
        <ele>159</ele>
        <time>2022-04-15T13:53:35Z</time>
      </trkpt>
      <trkpt lat="43.48977" lon="6.22489">
        <ele>159</ele>
        <time>2022-04-15T13:53:36Z</time>
      </trkpt>
      <trkpt lat="43.48976" lon="6.2249">
        <ele>159</ele>
        <time>2022-04-15T13:53:37Z</time>
      </trkpt>
      <trkpt lat="43.48975" lon="6.22492">
        <ele>159</ele>
        <time>2022-04-15T13:53:38Z</time>
      </trkpt>
      <trkpt lat="43.48974" lon="6.22493">
        <ele>160</ele>
        <time>2022-04-15T13:53:39Z</time>
      </trkpt>
      <trkpt lat="43.48974" lon="6.22494">
        <ele>160</ele>
        <time>2022-04-15T13:53:40Z</time>
      </trkpt>
      <trkpt lat="43.48973" lon="6.22494">
        <ele>160</ele>
        <time>2022-04-15T13:53:41Z</time>
      </trkpt>
      <trkpt lat="43.48973" lon="6.22495">
        <ele>160</ele>
        <time>2022-04-15T13:53:42Z</time>
      </trkpt>
      <trkpt lat="43.48972" lon="6.22496">
        <ele>160</ele>
        <time>2022-04-15T13:53:43Z</time>
      </trkpt>
      <trkpt lat="43.48972" lon="6.22496">
        <ele>160</ele>
        <time>2022-04-15T13:53:44Z</time>
      </trkpt>
      <trkpt lat="43.48971" lon="6.22497">
        <ele>160</ele>
        <time>2022-04-15T13:53:45Z</time>
      </trkpt>
      <trkpt lat="43.48971" lon="6.22498">
        <ele>161</ele>
        <time>2022-04-15T13:53:46Z</time>
      </trkpt>
      <trkpt lat="43.4897" lon="6.22499">
        <ele>161</ele>
        <time>2022-04-15T13:53:47Z</time>
      </trkpt>
      <trkpt lat="43.4897" lon="6.225">
        <ele>161</ele>
        <time>2022-04-15T13:53:48Z</time>
      </trkpt>
      <trkpt lat="43.48969" lon="6.22501">
        <ele>161</ele>
        <time>2022-04-15T13:53:49Z</time>
      </trkpt>
      <trkpt lat="43.48969" lon="6.22502">
        <ele>161</ele>
        <time>2022-04-15T13:53:50Z</time>
      </trkpt>
      <trkpt lat="43.48968" lon="6.22503">
        <ele>161</ele>
        <time>2022-04-15T13:53:51Z</time>
      </trkpt>
      <trkpt lat="43.48968" lon="6.22504">
        <ele>162</ele>
        <time>2022-04-15T13:53:52Z</time>
      </trkpt>
      <trkpt lat="43.48967" lon="6.22505">
        <ele>162</ele>
        <time>2022-04-15T13:53:53Z</time>
      </trkpt>
      <trkpt lat="43.48967" lon="6.22507">
        <ele>162</ele>
        <time>2022-04-15T13:53:54Z</time>
      </trkpt>
      <trkpt lat="43.48966" lon="6.22508">
        <ele>162</ele>
        <time>2022-04-15T13:53:55Z</time>
      </trkpt>
      <trkpt lat="43.48965" lon="6.2251">
        <ele>162</ele>
        <time>2022-04-15T13:53:56Z</time>
      </trkpt>
      <trkpt lat="43.48964" lon="6.22512">
        <ele>162</ele>
        <time>2022-04-15T13:53:57Z</time>
      </trkpt>
      <trkpt lat="43.48963" lon="6.22514">
        <ele>162</ele>
        <time>2022-04-15T13:53:58Z</time>
      </trkpt>
      <trkpt lat="43.48962" lon="6.22516">
        <ele>162</ele>
        <time>2022-04-15T13:53:59Z</time>
      </trkpt>
      <trkpt lat="43.48961" lon="6.22517">
        <ele>162</ele>
        <time>2022-04-15T13:54:00Z</time>
      </trkpt>
      <trkpt lat="43.4896" lon="6.22519">
        <ele>162</ele>
        <time>2022-04-15T13:54:01Z</time>
      </trkpt>
      <trkpt lat="43.48959" lon="6.2252">
        <ele>162</ele>
        <time>2022-04-15T13:54:02Z</time>
      </trkpt>
      <trkpt lat="43.48959" lon="6.22521">
        <ele>162</ele>
        <time>2022-04-15T13:54:03Z</time>
      </trkpt>
      <trkpt lat="43.48958" lon="6.22522">
        <ele>162</ele>
        <time>2022-04-15T13:54:04Z</time>
      </trkpt>
      <trkpt lat="43.48957" lon="6.22523">
        <ele>162</ele>
        <time>2022-04-15T13:54:05Z</time>
      </trkpt>
      <trkpt lat="43.48957" lon="6.22524">
        <ele>162</ele>
        <time>2022-04-15T13:54:06Z</time>
      </trkpt>
      <trkpt lat="43.48956" lon="6.22524">
        <ele>162</ele>
        <time>2022-04-15T13:54:07Z</time>
      </trkpt>
      <trkpt lat="43.48955" lon="6.22525">
        <ele>162</ele>
        <time>2022-04-15T13:54:08Z</time>
      </trkpt>
      <trkpt lat="43.48955" lon="6.22526">
        <ele>162</ele>
        <time>2022-04-15T13:54:09Z</time>
      </trkpt>
      <trkpt lat="43.48954" lon="6.22526">
        <ele>162</ele>
        <time>2022-04-15T13:54:10Z</time>
      </trkpt>
      <trkpt lat="43.48954" lon="6.22526">
        <ele>162</ele>
        <time>2022-04-15T13:54:11Z</time>
      </trkpt>
      <trkpt lat="43.48953" lon="6.22527">
        <ele>162</ele>
        <time>2022-04-15T13:54:12Z</time>
      </trkpt>
      <trkpt lat="43.48952" lon="6.22527">
        <ele>162</ele>
        <time>2022-04-15T13:54:13Z</time>
      </trkpt>
      <trkpt lat="43.48952" lon="6.22527">
        <ele>162</ele>
        <time>2022-04-15T13:54:14Z</time>
      </trkpt>
      <trkpt lat="43.48951" lon="6.22528">
        <ele>161</ele>
        <time>2022-04-15T13:54:15Z</time>
      </trkpt>
      <trkpt lat="43.48951" lon="6.22528">
        <ele>161</ele>
        <time>2022-04-15T13:54:16Z</time>
      </trkpt>
      <trkpt lat="43.4895" lon="6.22529">
        <ele>161</ele>
        <time>2022-04-15T13:54:17Z</time>
      </trkpt>
      <trkpt lat="43.48949" lon="6.22529">
        <ele>161</ele>
        <time>2022-04-15T13:54:18Z</time>
      </trkpt>
      <trkpt lat="43.48948" lon="6.22529">
        <ele>161</ele>
        <time>2022-04-15T13:54:19Z</time>
      </trkpt>
      <trkpt lat="43.48948" lon="6.2253">
        <ele>161</ele>
        <time>2022-04-15T13:54:20Z</time>
      </trkpt>
      <trkpt lat="43.48947" lon="6.22531">
        <ele>160</ele>
        <time>2022-04-15T13:54:21Z</time>
      </trkpt>
      <trkpt lat="43.48946" lon="6.22531">
        <ele>160</ele>
        <time>2022-04-15T13:54:22Z</time>
      </trkpt>
      <trkpt lat="43.48945" lon="6.22532">
        <ele>160</ele>
        <time>2022-04-15T13:54:23Z</time>
      </trkpt>
      <trkpt lat="43.48944" lon="6.22532">
        <ele>160</ele>
        <time>2022-04-15T13:54:24Z</time>
      </trkpt>
      <trkpt lat="43.48943" lon="6.22533">
        <ele>160</ele>
        <time>2022-04-15T13:54:25Z</time>
      </trkpt>
      <trkpt lat="43.48942" lon="6.22533">
        <ele>160</ele>
        <time>2022-04-15T13:54:26Z</time>
      </trkpt>
      <trkpt lat="43.48941" lon="6.22534">
        <ele>160</ele>
        <time>2022-04-15T13:54:27Z</time>
      </trkpt>
      <trkpt lat="43.48941" lon="6.22534">
        <ele>160</ele>
        <time>2022-04-15T13:54:28Z</time>
      </trkpt>
      <trkpt lat="43.4894" lon="6.22534">
        <ele>160</ele>
        <time>2022-04-15T13:54:29Z</time>
      </trkpt>
      <trkpt lat="43.48939" lon="6.22535">
        <ele>160</ele>
        <time>2022-04-15T13:54:30Z</time>
      </trkpt>
      <trkpt lat="43.48938" lon="6.22535">
        <ele>160</ele>
        <time>2022-04-15T13:54:31Z</time>
      </trkpt>
      <trkpt lat="43.48937" lon="6.22536">
        <ele>160</ele>
        <time>2022-04-15T13:54:32Z</time>
      </trkpt>
      <trkpt lat="43.48936" lon="6.22536">
        <ele>160</ele>
        <time>2022-04-15T13:54:33Z</time>
      </trkpt>
      <trkpt lat="43.48935" lon="6.22536">
        <ele>160</ele>
        <time>2022-04-15T13:54:34Z</time>
      </trkpt>
      <trkpt lat="43.48934" lon="6.22537">
        <ele>160</ele>
        <time>2022-04-15T13:54:35Z</time>
      </trkpt>
      <trkpt lat="43.48934" lon="6.22537">
        <ele>160</ele>
        <time>2022-04-15T13:54:36Z</time>
      </trkpt>
      <trkpt lat="43.48933" lon="6.22537">
        <ele>160</ele>
        <time>2022-04-15T13:54:37Z</time>
      </trkpt>
      <trkpt lat="43.48932" lon="6.22537">
        <ele>160</ele>
        <time>2022-04-15T13:54:38Z</time>
      </trkpt>
      <trkpt lat="43.48931" lon="6.22538">
        <ele>160</ele>
        <time>2022-04-15T13:54:39Z</time>
      </trkpt>
      <trkpt lat="43.4893" lon="6.22539">
        <ele>160</ele>
        <time>2022-04-15T13:54:40Z</time>
      </trkpt>
      <trkpt lat="43.48929" lon="6.22539">
        <ele>160</ele>
        <time>2022-04-15T13:54:41Z</time>
      </trkpt>
      <trkpt lat="43.48928" lon="6.22539">
        <ele>160</ele>
        <time>2022-04-15T13:54:42Z</time>
      </trkpt>
      <trkpt lat="43.48927" lon="6.22539">
        <ele>160</ele>
        <time>2022-04-15T13:54:43Z</time>
      </trkpt>
      <trkpt lat="43.48926" lon="6.22539">
        <ele>161</ele>
        <time>2022-04-15T13:54:44Z</time>
      </trkpt>
      <trkpt lat="43.48926" lon="6.22539">
        <ele>161</ele>
        <time>2022-04-15T13:54:45Z</time>
      </trkpt>
      <trkpt lat="43.48926" lon="6.22539">
        <ele>161</ele>
        <time>2022-04-15T13:54:46Z</time>
      </trkpt>
      <trkpt lat="43.48926" lon="6.22539">
        <ele>161</ele>
        <time>2022-04-15T13:54:47Z</time>
      </trkpt>
      <trkpt lat="43.48926" lon="6.2254">
        <ele>161</ele>
        <time>2022-04-15T13:54:48Z</time>
      </trkpt>
      <trkpt lat="43.48925" lon="6.2254">
        <ele>161</ele>
        <time>2022-04-15T13:54:49Z</time>
      </trkpt>
      <trkpt lat="43.48925" lon="6.2254">
        <ele>161</ele>
        <time>2022-04-15T13:54:50Z</time>
      </trkpt>
      <trkpt lat="43.48924" lon="6.2254">
        <ele>161</ele>
        <time>2022-04-15T13:54:51Z</time>
      </trkpt>
      <trkpt lat="43.48923" lon="6.2254">
        <ele>161</ele>
        <time>2022-04-15T13:54:52Z</time>
      </trkpt>
      <trkpt lat="43.48923" lon="6.22541">
        <ele>161</ele>
        <time>2022-04-15T13:54:53Z</time>
      </trkpt>
      <trkpt lat="43.48922" lon="6.22541">
        <ele>161</ele>
        <time>2022-04-15T13:54:54Z</time>
      </trkpt>
      <trkpt lat="43.48922" lon="6.22541">
        <ele>161</ele>
        <time>2022-04-15T13:54:55Z</time>
      </trkpt>
      <trkpt lat="43.48922" lon="6.22541">
        <ele>161</ele>
        <time>2022-04-15T13:54:56Z</time>
      </trkpt>
      <trkpt lat="43.48921" lon="6.22541">
        <ele>161</ele>
        <time>2022-04-15T13:54:57Z</time>
      </trkpt>
      <trkpt lat="43.48921" lon="6.22541">
        <ele>161</ele>
        <time>2022-04-15T13:54:58Z</time>
      </trkpt>
      <trkpt lat="43.4892" lon="6.22541">
        <ele>161</ele>
        <time>2022-04-15T13:54:59Z</time>
      </trkpt>
      <trkpt lat="43.48919" lon="6.22541">
        <ele>161</ele>
        <time>2022-04-15T13:55:00Z</time>
      </trkpt>
      <trkpt lat="43.48918" lon="6.22541">
        <ele>162</ele>
        <time>2022-04-15T13:55:01Z</time>
      </trkpt>
      <trkpt lat="43.48918" lon="6.22542">
        <ele>162</ele>
        <time>2022-04-15T13:55:02Z</time>
      </trkpt>
      <trkpt lat="43.48917" lon="6.22542">
        <ele>162</ele>
        <time>2022-04-15T13:55:03Z</time>
      </trkpt>
      <trkpt lat="43.48917" lon="6.22542">
        <ele>162</ele>
        <time>2022-04-15T13:55:04Z</time>
      </trkpt>
      <trkpt lat="43.48916" lon="6.22543">
        <ele>162</ele>
        <time>2022-04-15T13:55:05Z</time>
      </trkpt>
      <trkpt lat="43.48915" lon="6.22543">
        <ele>162</ele>
        <time>2022-04-15T13:55:06Z</time>
      </trkpt>
      <trkpt lat="43.48914" lon="6.22543">
        <ele>162</ele>
        <time>2022-04-15T13:55:07Z</time>
      </trkpt>
      <trkpt lat="43.48914" lon="6.22543">
        <ele>162</ele>
        <time>2022-04-15T13:55:08Z</time>
      </trkpt>
      <trkpt lat="43.48913" lon="6.22543">
        <ele>162</ele>
        <time>2022-04-15T13:55:09Z</time>
      </trkpt>
      <trkpt lat="43.48911" lon="6.22544">
        <ele>162</ele>
        <time>2022-04-15T13:55:10Z</time>
      </trkpt>
      <trkpt lat="43.48909" lon="6.22545">
        <ele>162</ele>
        <time>2022-04-15T13:55:11Z</time>
      </trkpt>
      <trkpt lat="43.48908" lon="6.22546">
        <ele>162</ele>
        <time>2022-04-15T13:55:12Z</time>
      </trkpt>
      <trkpt lat="43.48907" lon="6.22546">
        <ele>163</ele>
        <time>2022-04-15T13:55:13Z</time>
      </trkpt>
      <trkpt lat="43.48906" lon="6.22547">
        <ele>164</ele>
        <time>2022-04-15T13:55:14Z</time>
      </trkpt>
      <trkpt lat="43.48904" lon="6.22548">
        <ele>164</ele>
        <time>2022-04-15T13:55:15Z</time>
      </trkpt>
      <trkpt lat="43.48904" lon="6.22548">
        <ele>164</ele>
        <time>2022-04-15T13:55:16Z</time>
      </trkpt>
      <trkpt lat="43.48903" lon="6.22549">
        <ele>164</ele>
        <time>2022-04-15T13:55:17Z</time>
      </trkpt>
      <trkpt lat="43.48903" lon="6.2255">
        <ele>164</ele>
        <time>2022-04-15T13:55:18Z</time>
      </trkpt>
      <trkpt lat="43.48902" lon="6.22551">
        <ele>164</ele>
        <time>2022-04-15T13:55:19Z</time>
      </trkpt>
      <trkpt lat="43.48901" lon="6.22552">
        <ele>164</ele>
        <time>2022-04-15T13:55:20Z</time>
      </trkpt>
      <trkpt lat="43.48901" lon="6.22553">
        <ele>165</ele>
        <time>2022-04-15T13:55:21Z</time>
      </trkpt>
      <trkpt lat="43.489" lon="6.22554">
        <ele>165</ele>
        <time>2022-04-15T13:55:22Z</time>
      </trkpt>
      <trkpt lat="43.489" lon="6.22555">
        <ele>165</ele>
        <time>2022-04-15T13:55:23Z</time>
      </trkpt>
      <trkpt lat="43.48899" lon="6.22556">
        <ele>165</ele>
        <time>2022-04-15T13:55:24Z</time>
      </trkpt>
      <trkpt lat="43.48898" lon="6.22557">
        <ele>165</ele>
        <time>2022-04-15T13:55:25Z</time>
      </trkpt>
      <trkpt lat="43.48898" lon="6.22558">
        <ele>165</ele>
        <time>2022-04-15T13:55:26Z</time>
      </trkpt>
      <trkpt lat="43.48897" lon="6.22558">
        <ele>165</ele>
        <time>2022-04-15T13:55:27Z</time>
      </trkpt>
      <trkpt lat="43.48896" lon="6.22559">
        <ele>166</ele>
        <time>2022-04-15T13:55:28Z</time>
      </trkpt>
      <trkpt lat="43.48896" lon="6.2256">
        <ele>166</ele>
        <time>2022-04-15T13:55:29Z</time>
      </trkpt>
      <trkpt lat="43.48895" lon="6.2256">
        <ele>166</ele>
        <time>2022-04-15T13:55:30Z</time>
      </trkpt>
      <trkpt lat="43.48894" lon="6.22561">
        <ele>166</ele>
        <time>2022-04-15T13:55:31Z</time>
      </trkpt>
      <trkpt lat="43.48894" lon="6.22561">
        <ele>168</ele>
        <time>2022-04-15T13:55:32Z</time>
      </trkpt>
      <trkpt lat="43.48894" lon="6.22561">
        <ele>168</ele>
        <time>2022-04-15T13:55:33Z</time>
      </trkpt>
      <trkpt lat="43.48893" lon="6.22561">
        <ele>168</ele>
        <time>2022-04-15T13:55:34Z</time>
      </trkpt>
      <trkpt lat="43.48893" lon="6.22561">
        <ele>169</ele>
        <time>2022-04-15T13:55:35Z</time>
      </trkpt>
      <trkpt lat="43.48892" lon="6.22561">
        <ele>169</ele>
        <time>2022-04-15T13:55:36Z</time>
      </trkpt>
      <trkpt lat="43.48891" lon="6.22561">
        <ele>169</ele>
        <time>2022-04-15T13:55:37Z</time>
      </trkpt>
      <trkpt lat="43.4889" lon="6.22561">
        <ele>169</ele>
        <time>2022-04-15T13:55:38Z</time>
      </trkpt>
      <trkpt lat="43.48888" lon="6.2256">
        <ele>169</ele>
        <time>2022-04-15T13:55:39Z</time>
      </trkpt>
      <trkpt lat="43.48887" lon="6.22559">
        <ele>169</ele>
        <time>2022-04-15T13:55:40Z</time>
      </trkpt>
      <trkpt lat="43.48886" lon="6.22559">
        <ele>169</ele>
        <time>2022-04-15T13:55:41Z</time>
      </trkpt>
      <trkpt lat="43.48885" lon="6.22558">
        <ele>169</ele>
        <time>2022-04-15T13:55:42Z</time>
      </trkpt>
      <trkpt lat="43.48885" lon="6.22557">
        <ele>169</ele>
        <time>2022-04-15T13:55:43Z</time>
      </trkpt>
      <trkpt lat="43.48884" lon="6.22557">
        <ele>169</ele>
        <time>2022-04-15T13:55:44Z</time>
      </trkpt>
      <trkpt lat="43.48883" lon="6.22556">
        <ele>169</ele>
        <time>2022-04-15T13:55:45Z</time>
      </trkpt>
      <trkpt lat="43.48883" lon="6.22555">
        <ele>169</ele>
        <time>2022-04-15T13:55:46Z</time>
      </trkpt>
      <trkpt lat="43.48882" lon="6.22554">
        <ele>169</ele>
        <time>2022-04-15T13:55:47Z</time>
      </trkpt>
      <trkpt lat="43.48881" lon="6.22554">
        <ele>169</ele>
        <time>2022-04-15T13:55:48Z</time>
      </trkpt>
      <trkpt lat="43.48881" lon="6.22553">
        <ele>169</ele>
        <time>2022-04-15T13:55:49Z</time>
      </trkpt>
      <trkpt lat="43.48881" lon="6.22553">
        <ele>169</ele>
        <time>2022-04-15T13:55:50Z</time>
      </trkpt>
      <trkpt lat="43.4888" lon="6.22553">
        <ele>169</ele>
        <time>2022-04-15T13:55:51Z</time>
      </trkpt>
      <trkpt lat="43.4888" lon="6.22553">
        <ele>169</ele>
        <time>2022-04-15T13:55:52Z</time>
      </trkpt>
      <trkpt lat="43.4888" lon="6.22552">
        <ele>169</ele>
        <time>2022-04-15T13:55:53Z</time>
      </trkpt>
      <trkpt lat="43.4888" lon="6.22552">
        <ele>169</ele>
        <time>2022-04-15T13:55:54Z</time>
      </trkpt>
      <trkpt lat="43.48879" lon="6.22552">
        <ele>169</ele>
        <time>2022-04-15T13:55:55Z</time>
      </trkpt>
      <trkpt lat="43.48879" lon="6.22551">
        <ele>169</ele>
        <time>2022-04-15T13:55:56Z</time>
      </trkpt>
      <trkpt lat="43.48879" lon="6.22551">
        <ele>169</ele>
        <time>2022-04-15T13:55:57Z</time>
      </trkpt>
      <trkpt lat="43.48879" lon="6.22551">
        <ele>169</ele>
        <time>2022-04-15T13:55:58Z</time>
      </trkpt>
      <trkpt lat="43.48879" lon="6.22551">
        <ele>169</ele>
        <time>2022-04-15T13:55:59Z</time>
      </trkpt>
      <trkpt lat="43.48879" lon="6.22551">
        <ele>169</ele>
        <time>2022-04-15T13:56:00Z</time>
      </trkpt>
      <trkpt lat="43.48879" lon="6.22551">
        <ele>169</ele>
        <time>2022-04-15T13:56:01Z</time>
      </trkpt>
      <trkpt lat="43.48879" lon="6.22551">
        <ele>169</ele>
        <time>2022-04-15T13:56:02Z</time>
      </trkpt>
      <trkpt lat="43.48879" lon="6.22551">
        <ele>169</ele>
        <time>2022-04-15T13:56:03Z</time>
      </trkpt>
      <trkpt lat="43.48879" lon="6.22551">
        <ele>169</ele>
        <time>2022-04-15T13:56:04Z</time>
      </trkpt>
      <trkpt lat="43.48879" lon="6.22551">
        <ele>169</ele>
        <time>2022-04-15T13:56:05Z</time>
      </trkpt>
      <trkpt lat="43.48879" lon="6.22551">
        <ele>169</ele>
        <time>2022-04-15T13:56:06Z</time>
      </trkpt>
      <trkpt lat="43.48879" lon="6.22551">
        <ele>169</ele>
        <time>2022-04-15T13:56:07Z</time>
      </trkpt>
      <trkpt lat="43.48877" lon="6.2255">
        <ele>169</ele>
        <time>2022-04-15T13:56:08Z</time>
      </trkpt>
      <trkpt lat="43.48877" lon="6.2255">
        <ele>169</ele>
        <time>2022-04-15T13:56:09Z</time>
      </trkpt>
      <trkpt lat="43.48877" lon="6.2255">
        <ele>169</ele>
        <time>2022-04-15T13:56:10Z</time>
      </trkpt>
      <trkpt lat="43.48876" lon="6.2255">
        <ele>169</ele>
        <time>2022-04-15T13:56:11Z</time>
      </trkpt>
      <trkpt lat="43.48876" lon="6.2255">
        <ele>169</ele>
        <time>2022-04-15T13:56:12Z</time>
      </trkpt>
      <trkpt lat="43.48875" lon="6.22551">
        <ele>169</ele>
        <time>2022-04-15T13:56:13Z</time>
      </trkpt>
      <trkpt lat="43.48874" lon="6.22551">
        <ele>169</ele>
        <time>2022-04-15T13:56:14Z</time>
      </trkpt>
      <trkpt lat="43.48873" lon="6.22551">
        <ele>169</ele>
        <time>2022-04-15T13:56:15Z</time>
      </trkpt>
      <trkpt lat="43.48873" lon="6.22552">
        <ele>169</ele>
        <time>2022-04-15T13:56:16Z</time>
      </trkpt>
      <trkpt lat="43.48872" lon="6.22552">
        <ele>169</ele>
        <time>2022-04-15T13:56:17Z</time>
      </trkpt>
      <trkpt lat="43.48872" lon="6.22552">
        <ele>169</ele>
        <time>2022-04-15T13:56:18Z</time>
      </trkpt>
      <trkpt lat="43.48872" lon="6.22552">
        <ele>168</ele>
        <time>2022-04-15T13:56:19Z</time>
      </trkpt>
      <trkpt lat="43.48871" lon="6.22552">
        <ele>168</ele>
        <time>2022-04-15T13:56:20Z</time>
      </trkpt>
      <trkpt lat="43.48871" lon="6.22553">
        <ele>168</ele>
        <time>2022-04-15T13:56:21Z</time>
      </trkpt>
      <trkpt lat="43.48871" lon="6.22553">
        <ele>168</ele>
        <time>2022-04-15T13:56:22Z</time>
      </trkpt>
      <trkpt lat="43.48871" lon="6.22553">
        <ele>168</ele>
        <time>2022-04-15T13:56:23Z</time>
      </trkpt>
      <trkpt lat="43.4887" lon="6.22553">
        <ele>168</ele>
        <time>2022-04-15T13:56:24Z</time>
      </trkpt>
      <trkpt lat="43.4887" lon="6.22553">
        <ele>168</ele>
        <time>2022-04-15T13:56:25Z</time>
      </trkpt>
      <trkpt lat="43.4887" lon="6.22553">
        <ele>168</ele>
        <time>2022-04-15T13:56:26Z</time>
      </trkpt>
      <trkpt lat="43.4887" lon="6.22553">
        <ele>168</ele>
        <time>2022-04-15T13:56:27Z</time>
      </trkpt>
      <trkpt lat="43.48869" lon="6.22553">
        <ele>168</ele>
        <time>2022-04-15T13:56:28Z</time>
      </trkpt>
      <trkpt lat="43.48869" lon="6.22553">
        <ele>168</ele>
        <time>2022-04-15T13:56:29Z</time>
      </trkpt>
      <trkpt lat="43.48869" lon="6.22553">
        <ele>168</ele>
        <time>2022-04-15T13:56:30Z</time>
      </trkpt>
      <trkpt lat="43.48869" lon="6.22553">
        <ele>168</ele>
        <time>2022-04-15T13:56:31Z</time>
      </trkpt>
      <trkpt lat="43.48869" lon="6.22553">
        <ele>168</ele>
        <time>2022-04-15T13:56:32Z</time>
      </trkpt>
      <trkpt lat="43.48869" lon="6.22553">
        <ele>168</ele>
        <time>2022-04-15T13:56:33Z</time>
      </trkpt>
      <trkpt lat="43.48869" lon="6.22553">
        <ele>168</ele>
        <time>2022-04-15T13:56:34Z</time>
      </trkpt>
      <trkpt lat="43.48869" lon="6.22553">
        <ele>168</ele>
        <time>2022-04-15T13:56:35Z</time>
      </trkpt>
      <trkpt lat="43.48868" lon="6.22553">
        <ele>168</ele>
        <time>2022-04-15T13:56:36Z</time>
      </trkpt>
      <trkpt lat="43.48868" lon="6.22553">
        <ele>168</ele>
        <time>2022-04-15T13:56:37Z</time>
      </trkpt>
      <trkpt lat="43.48868" lon="6.22553">
        <ele>168</ele>
        <time>2022-04-15T13:56:38Z</time>
      </trkpt>
      <trkpt lat="43.48868" lon="6.22553">
        <ele>168</ele>
        <time>2022-04-15T13:56:39Z</time>
      </trkpt>
      <trkpt lat="43.48868" lon="6.22553">
        <ele>168</ele>
        <time>2022-04-15T13:56:40Z</time>
      </trkpt>
      <trkpt lat="43.48868" lon="6.22553">
        <ele>168</ele>
        <time>2022-04-15T13:56:41Z</time>
      </trkpt>
      <trkpt lat="43.48868" lon="6.22553">
        <ele>168</ele>
        <time>2022-04-15T13:56:42Z</time>
      </trkpt>
      <trkpt lat="43.48868" lon="6.22553">
        <ele>168</ele>
        <time>2022-04-15T13:56:43Z</time>
      </trkpt>
      <trkpt lat="43.48868" lon="6.22553">
        <ele>168</ele>
        <time>2022-04-15T13:56:44Z</time>
      </trkpt>
      <trkpt lat="43.48868" lon="6.22553">
        <ele>168</ele>
        <time>2022-04-15T13:56:45Z</time>
      </trkpt>
      <trkpt lat="43.48868" lon="6.22553">
        <ele>168</ele>
        <time>2022-04-15T13:56:46Z</time>
      </trkpt>
      <trkpt lat="43.48868" lon="6.22553">
        <ele>168</ele>
        <time>2022-04-15T13:56:47Z</time>
      </trkpt>
      <trkpt lat="43.48868" lon="6.22553">
        <ele>168</ele>
        <time>2022-04-15T13:56:48Z</time>
      </trkpt>
      <trkpt lat="43.48868" lon="6.22553">
        <ele>168</ele>
        <time>2022-04-15T13:56:49Z</time>
      </trkpt>
      <trkpt lat="43.48868" lon="6.22553">
        <ele>168</ele>
        <time>2022-04-15T13:56:50Z</time>
      </trkpt>
      <trkpt lat="43.48868" lon="6.22553">
        <ele>168</ele>
        <time>2022-04-15T13:56:51Z</time>
      </trkpt>
      <trkpt lat="43.48868" lon="6.22553">
        <ele>168</ele>
        <time>2022-04-15T13:56:52Z</time>
      </trkpt>
      <trkpt lat="43.48868" lon="6.22553">
        <ele>168</ele>
        <time>2022-04-15T13:56:53Z</time>
      </trkpt>
      <trkpt lat="43.48868" lon="6.22553">
        <ele>168</ele>
        <time>2022-04-15T13:56:54Z</time>
      </trkpt>
      <trkpt lat="43.48868" lon="6.22553">
        <ele>168</ele>
        <time>2022-04-15T13:56:55Z</time>
      </trkpt>
      <trkpt lat="43.48868" lon="6.22553">
        <ele>168</ele>
        <time>2022-04-15T13:56:56Z</time>
      </trkpt>
      <trkpt lat="43.48868" lon="6.22553">
        <ele>168</ele>
        <time>2022-04-15T13:56:57Z</time>
      </trkpt>
      <trkpt lat="43.48868" lon="6.22553">
        <ele>168</ele>
        <time>2022-04-15T13:56:58Z</time>
      </trkpt>
      <trkpt lat="43.48868" lon="6.22553">
        <ele>168</ele>
        <time>2022-04-15T13:56:59Z</time>
      </trkpt>
      <trkpt lat="43.48868" lon="6.22553">
        <ele>168</ele>
        <time>2022-04-15T13:57:00Z</time>
      </trkpt>
      <trkpt lat="43.48868" lon="6.22553">
        <ele>168</ele>
        <time>2022-04-15T13:57:01Z</time>
      </trkpt>
      <trkpt lat="43.48868" lon="6.22553">
        <ele>168</ele>
        <time>2022-04-15T13:57:02Z</time>
      </trkpt>
      <trkpt lat="43.48868" lon="6.22553">
        <ele>168</ele>
        <time>2022-04-15T13:57:03Z</time>
      </trkpt>
      <trkpt lat="43.48868" lon="6.22553">
        <ele>168</ele>
        <time>2022-04-15T13:57:04Z</time>
      </trkpt>
      <trkpt lat="43.48868" lon="6.22553">
        <ele>168</ele>
        <time>2022-04-15T13:57:05Z</time>
      </trkpt>
      <trkpt lat="43.48868" lon="6.22553">
        <ele>168</ele>
        <time>2022-04-15T13:57:06Z</time>
      </trkpt>
      <trkpt lat="43.48868" lon="6.22553">
        <ele>168</ele>
        <time>2022-04-15T13:57:07Z</time>
      </trkpt>
      <trkpt lat="43.48868" lon="6.22553">
        <ele>168</ele>
        <time>2022-04-15T13:57:08Z</time>
      </trkpt>
      <trkpt lat="43.48868" lon="6.22553">
        <ele>168</ele>
        <time>2022-04-15T13:57:09Z</time>
      </trkpt>
      <trkpt lat="43.48868" lon="6.22553">
        <ele>168</ele>
        <time>2022-04-15T13:57:10Z</time>
      </trkpt>
      <trkpt lat="43.48868" lon="6.22553">
        <ele>168</ele>
        <time>2022-04-15T13:57:11Z</time>
      </trkpt>
      <trkpt lat="43.48868" lon="6.22553">
        <ele>168</ele>
        <time>2022-04-15T13:57:12Z</time>
      </trkpt>
      <trkpt lat="43.48868" lon="6.22553">
        <ele>168</ele>
        <time>2022-04-15T13:57:13Z</time>
      </trkpt>
      <trkpt lat="43.48868" lon="6.22553">
        <ele>168</ele>
        <time>2022-04-15T13:57:14Z</time>
      </trkpt>
      <trkpt lat="43.48868" lon="6.22553">
        <ele>168</ele>
        <time>2022-04-15T13:57:15Z</time>
      </trkpt>
      <trkpt lat="43.48868" lon="6.22553">
        <ele>168</ele>
        <time>2022-04-15T13:57:16Z</time>
      </trkpt>
      <trkpt lat="43.48868" lon="6.22553">
        <ele>168</ele>
        <time>2022-04-15T13:57:17Z</time>
      </trkpt>
      <trkpt lat="43.48868" lon="6.22553">
        <ele>168</ele>
        <time>2022-04-15T13:57:18Z</time>
      </trkpt>
      <trkpt lat="43.48868" lon="6.22553">
        <ele>168</ele>
        <time>2022-04-15T13:57:19Z</time>
      </trkpt>
      <trkpt lat="43.48868" lon="6.22553">
        <ele>168</ele>
        <time>2022-04-15T13:57:20Z</time>
      </trkpt>
      <trkpt lat="43.48868" lon="6.22553">
        <ele>168</ele>
        <time>2022-04-15T13:57:21Z</time>
      </trkpt>
      <trkpt lat="43.48868" lon="6.22553">
        <ele>168</ele>
        <time>2022-04-15T13:57:22Z</time>
      </trkpt>
      <trkpt lat="43.48868" lon="6.22553">
        <ele>168</ele>
        <time>2022-04-15T13:57:23Z</time>
      </trkpt>
      <trkpt lat="43.48868" lon="6.22553">
        <ele>168</ele>
        <time>2022-04-15T13:57:24Z</time>
      </trkpt>
      <trkpt lat="43.48868" lon="6.22553">
        <ele>168</ele>
        <time>2022-04-15T13:57:25Z</time>
      </trkpt>
      <trkpt lat="43.48868" lon="6.22553">
        <ele>168</ele>
        <time>2022-04-15T13:57:26Z</time>
      </trkpt>
      <trkpt lat="43.48868" lon="6.22553">
        <ele>168</ele>
        <time>2022-04-15T13:57:27Z</time>
      </trkpt>
      <trkpt lat="43.48868" lon="6.22553">
        <ele>168</ele>
        <time>2022-04-15T13:57:28Z</time>
      </trkpt>
      <trkpt lat="43.48868" lon="6.22553">
        <ele>168</ele>
        <time>2022-04-15T13:57:29Z</time>
      </trkpt>
      <trkpt lat="43.48868" lon="6.22553">
        <ele>168</ele>
        <time>2022-04-15T13:57:30Z</time>
      </trkpt>
      <trkpt lat="43.48868" lon="6.22553">
        <ele>168</ele>
        <time>2022-04-15T13:57:31Z</time>
      </trkpt>
      <trkpt lat="43.48868" lon="6.22553">
        <ele>168</ele>
        <time>2022-04-15T13:57:32Z</time>
      </trkpt>
      <trkpt lat="43.48868" lon="6.22553">
        <ele>168</ele>
        <time>2022-04-15T13:57:33Z</time>
      </trkpt>
      <trkpt lat="43.48868" lon="6.22553">
        <ele>168</ele>
        <time>2022-04-15T13:57:34Z</time>
      </trkpt>
      <trkpt lat="43.48868" lon="6.22553">
        <ele>168</ele>
        <time>2022-04-15T13:57:35Z</time>
      </trkpt>
      <trkpt lat="43.48868" lon="6.22553">
        <ele>168</ele>
        <time>2022-04-15T13:57:36Z</time>
      </trkpt>
      <trkpt lat="43.48868" lon="6.22553">
        <ele>168</ele>
        <time>2022-04-15T13:57:37Z</time>
      </trkpt>
      <trkpt lat="43.48868" lon="6.22553">
        <ele>168</ele>
        <time>2022-04-15T13:57:38Z</time>
      </trkpt>
      <trkpt lat="43.48868" lon="6.22553">
        <ele>168</ele>
        <time>2022-04-15T13:57:39Z</time>
      </trkpt>
      <trkpt lat="43.48868" lon="6.22553">
        <ele>168</ele>
        <time>2022-04-15T13:57:40Z</time>
      </trkpt>
      <trkpt lat="43.48868" lon="6.22553">
        <ele>168</ele>
        <time>2022-04-15T13:57:41Z</time>
      </trkpt>
      <trkpt lat="43.48868" lon="6.22553">
        <ele>168</ele>
        <time>2022-04-15T13:57:42Z</time>
      </trkpt>
      <trkpt lat="43.48868" lon="6.22554">
        <ele>168</ele>
        <time>2022-04-15T13:57:43Z</time>
      </trkpt>
      <trkpt lat="43.48868" lon="6.22554">
        <ele>168</ele>
        <time>2022-04-15T13:57:44Z</time>
      </trkpt>
      <trkpt lat="43.48868" lon="6.22554">
        <ele>168</ele>
        <time>2022-04-15T13:57:45Z</time>
      </trkpt>
      <trkpt lat="43.48868" lon="6.22553">
        <ele>168</ele>
        <time>2022-04-15T13:57:46Z</time>
      </trkpt>
      <trkpt lat="43.48868" lon="6.22553">
        <ele>168</ele>
        <time>2022-04-15T13:57:47Z</time>
      </trkpt>
      <trkpt lat="43.48868" lon="6.22553">
        <ele>168</ele>
        <time>2022-04-15T13:57:48Z</time>
      </trkpt>
      <trkpt lat="43.48868" lon="6.22553">
        <ele>168</ele>
        <time>2022-04-15T13:57:49Z</time>
      </trkpt>
      <trkpt lat="43.48868" lon="6.22553">
        <ele>168</ele>
        <time>2022-04-15T13:57:50Z</time>
      </trkpt>
      <trkpt lat="43.48868" lon="6.22553">
        <ele>168</ele>
        <time>2022-04-15T13:57:51Z</time>
      </trkpt>
      <trkpt lat="43.48868" lon="6.22553">
        <ele>168</ele>
        <time>2022-04-15T13:57:52Z</time>
      </trkpt>
      <trkpt lat="43.48868" lon="6.22553">
        <ele>168</ele>
        <time>2022-04-15T13:57:53Z</time>
      </trkpt>
      <trkpt lat="43.48868" lon="6.22553">
        <ele>168</ele>
        <time>2022-04-15T13:57:54Z</time>
      </trkpt>
      <trkpt lat="43.48868" lon="6.22553">
        <ele>168</ele>
        <time>2022-04-15T13:57:55Z</time>
      </trkpt>
      <trkpt lat="43.48868" lon="6.22553">
        <ele>168</ele>
        <time>2022-04-15T13:57:56Z</time>
      </trkpt>
      <trkpt lat="43.48868" lon="6.22553">
        <ele>168</ele>
        <time>2022-04-15T13:57:57Z</time>
      </trkpt>
      <trkpt lat="43.48868" lon="6.22553">
        <ele>168</ele>
        <time>2022-04-15T13:57:58Z</time>
      </trkpt>
      <trkpt lat="43.48868" lon="6.22553">
        <ele>168</ele>
        <time>2022-04-15T13:57:59Z</time>
      </trkpt>
      <trkpt lat="43.48868" lon="6.22553">
        <ele>168</ele>
        <time>2022-04-15T13:58:00Z</time>
      </trkpt>
      <trkpt lat="43.48868" lon="6.22553">
        <ele>168</ele>
        <time>2022-04-15T13:58:01Z</time>
      </trkpt>
      <trkpt lat="43.48868" lon="6.22553">
        <ele>168</ele>
        <time>2022-04-15T13:58:02Z</time>
      </trkpt>
      <trkpt lat="43.48868" lon="6.22553">
        <ele>168</ele>
        <time>2022-04-15T13:58:03Z</time>
      </trkpt>
      <trkpt lat="43.48868" lon="6.22553">
        <ele>168</ele>
        <time>2022-04-15T13:58:04Z</time>
      </trkpt>
      <trkpt lat="43.48868" lon="6.22553">
        <ele>168</ele>
        <time>2022-04-15T13:58:05Z</time>
      </trkpt>
      <trkpt lat="43.48868" lon="6.22553">
        <ele>168</ele>
        <time>2022-04-15T13:58:06Z</time>
      </trkpt>
      <trkpt lat="43.48868" lon="6.22553">
        <ele>168</ele>
        <time>2022-04-15T13:58:07Z</time>
      </trkpt>
      <trkpt lat="43.48868" lon="6.22553">
        <ele>168</ele>
        <time>2022-04-15T13:58:08Z</time>
      </trkpt>
      <trkpt lat="43.48868" lon="6.22553">
        <ele>168</ele>
        <time>2022-04-15T13:58:09Z</time>
      </trkpt>
      <trkpt lat="43.48868" lon="6.22553">
        <ele>168</ele>
        <time>2022-04-15T13:58:10Z</time>
      </trkpt>
      <trkpt lat="43.48868" lon="6.22553">
        <ele>168</ele>
        <time>2022-04-15T13:58:11Z</time>
      </trkpt>
      <trkpt lat="43.48868" lon="6.22553">
        <ele>168</ele>
        <time>2022-04-15T13:58:12Z</time>
      </trkpt>
      <trkpt lat="43.48868" lon="6.22553">
        <ele>168</ele>
        <time>2022-04-15T13:58:13Z</time>
      </trkpt>
      <trkpt lat="43.48868" lon="6.22553">
        <ele>168</ele>
        <time>2022-04-15T13:58:14Z</time>
      </trkpt>
      <trkpt lat="43.48868" lon="6.22553">
        <ele>168</ele>
        <time>2022-04-15T13:58:15Z</time>
      </trkpt>
      <trkpt lat="43.48868" lon="6.22553">
        <ele>168</ele>
        <time>2022-04-15T13:58:16Z</time>
      </trkpt>
      <trkpt lat="43.48868" lon="6.22553">
        <ele>168</ele>
        <time>2022-04-15T13:58:17Z</time>
      </trkpt>
      <trkpt lat="43.48868" lon="6.22553">
        <ele>168</ele>
        <time>2022-04-15T13:58:18Z</time>
      </trkpt>
      <trkpt lat="43.48868" lon="6.22553">
        <ele>168</ele>
        <time>2022-04-15T13:58:19Z</time>
      </trkpt>
      <trkpt lat="43.48868" lon="6.22553">
        <ele>168</ele>
        <time>2022-04-15T13:58:20Z</time>
      </trkpt>
      <trkpt lat="43.48868" lon="6.22553">
        <ele>168</ele>
        <time>2022-04-15T13:58:21Z</time>
      </trkpt>
      <trkpt lat="43.48868" lon="6.22553">
        <ele>168</ele>
        <time>2022-04-15T13:58:22Z</time>
      </trkpt>
      <trkpt lat="43.48868" lon="6.22553">
        <ele>168</ele>
        <time>2022-04-15T13:58:23Z</time>
      </trkpt>
      <trkpt lat="43.48868" lon="6.22553">
        <ele>168</ele>
        <time>2022-04-15T13:58:24Z</time>
      </trkpt>
      <trkpt lat="43.48868" lon="6.22553">
        <ele>168</ele>
        <time>2022-04-15T13:58:25Z</time>
      </trkpt>
      <trkpt lat="43.48868" lon="6.22553">
        <ele>168</ele>
        <time>2022-04-15T13:58:26Z</time>
      </trkpt>
      <trkpt lat="43.48868" lon="6.22553">
        <ele>168</ele>
        <time>2022-04-15T13:58:27Z</time>
      </trkpt>
      <trkpt lat="43.48868" lon="6.22553">
        <ele>168</ele>
        <time>2022-04-15T13:58:28Z</time>
      </trkpt>
      <trkpt lat="43.48868" lon="6.22553">
        <ele>168</ele>
        <time>2022-04-15T13:58:29Z</time>
      </trkpt>
      <trkpt lat="43.48868" lon="6.22553">
        <ele>168</ele>
        <time>2022-04-15T13:58:30Z</time>
      </trkpt>
      <trkpt lat="43.48868" lon="6.22553">
        <ele>168</ele>
        <time>2022-04-15T13:58:31Z</time>
      </trkpt>
      <trkpt lat="43.48868" lon="6.22553">
        <ele>168</ele>
        <time>2022-04-15T13:58:32Z</time>
      </trkpt>
      <trkpt lat="43.48868" lon="6.22553">
        <ele>168</ele>
        <time>2022-04-15T13:58:33Z</time>
      </trkpt>
      <trkpt lat="43.48868" lon="6.22553">
        <ele>168</ele>
        <time>2022-04-15T13:58:34Z</time>
      </trkpt>
      <trkpt lat="43.48868" lon="6.22553">
        <ele>168</ele>
        <time>2022-04-15T13:58:35Z</time>
      </trkpt>
      <trkpt lat="43.48868" lon="6.22553">
        <ele>168</ele>
        <time>2022-04-15T13:58:36Z</time>
      </trkpt>
      <trkpt lat="43.48868" lon="6.22553">
        <ele>168</ele>
        <time>2022-04-15T13:58:37Z</time>
      </trkpt>
      <trkpt lat="43.48868" lon="6.22553">
        <ele>168</ele>
        <time>2022-04-15T13:58:38Z</time>
      </trkpt>
      <trkpt lat="43.48868" lon="6.22553">
        <ele>168</ele>
        <time>2022-04-15T13:58:39Z</time>
      </trkpt>
      <trkpt lat="43.48868" lon="6.22553">
        <ele>168</ele>
        <time>2022-04-15T13:58:40Z</time>
      </trkpt>
      <trkpt lat="43.48868" lon="6.22553">
        <ele>168</ele>
        <time>2022-04-15T13:58:41Z</time>
      </trkpt>
      <trkpt lat="43.48868" lon="6.22553">
        <ele>168</ele>
        <time>2022-04-15T13:58:42Z</time>
      </trkpt>
      <trkpt lat="43.48868" lon="6.22553">
        <ele>168</ele>
        <time>2022-04-15T13:58:43Z</time>
      </trkpt>
      <trkpt lat="43.48868" lon="6.22553">
        <ele>168</ele>
        <time>2022-04-15T13:58:44Z</time>
      </trkpt>
      <trkpt lat="43.48868" lon="6.22553">
        <ele>168</ele>
        <time>2022-04-15T13:58:45Z</time>
      </trkpt>
      <trkpt lat="43.48868" lon="6.22553">
        <ele>168</ele>
        <time>2022-04-15T13:58:46Z</time>
      </trkpt>
      <trkpt lat="43.48868" lon="6.22553">
        <ele>168</ele>
        <time>2022-04-15T13:58:47Z</time>
      </trkpt>
      <trkpt lat="43.48868" lon="6.22553">
        <ele>168</ele>
        <time>2022-04-15T13:58:48Z</time>
      </trkpt>
      <trkpt lat="43.48868" lon="6.22553">
        <ele>168</ele>
        <time>2022-04-15T13:58:49Z</time>
      </trkpt>
      <trkpt lat="43.48868" lon="6.22553">
        <ele>168</ele>
        <time>2022-04-15T13:58:50Z</time>
      </trkpt>
      <trkpt lat="43.48868" lon="6.22553">
        <ele>168</ele>
        <time>2022-04-15T13:58:51Z</time>
      </trkpt>
      <trkpt lat="43.48868" lon="6.22553">
        <ele>168</ele>
        <time>2022-04-15T13:58:52Z</time>
      </trkpt>
      <trkpt lat="43.48868" lon="6.22553">
        <ele>168</ele>
        <time>2022-04-15T13:58:53Z</time>
      </trkpt>
      <trkpt lat="43.48868" lon="6.22553">
        <ele>168</ele>
        <time>2022-04-15T13:58:54Z</time>
      </trkpt>
      <trkpt lat="43.48868" lon="6.22553">
        <ele>168</ele>
        <time>2022-04-15T13:58:55Z</time>
      </trkpt>
      <trkpt lat="43.48868" lon="6.22553">
        <ele>168</ele>
        <time>2022-04-15T13:58:56Z</time>
      </trkpt>
      <trkpt lat="43.48868" lon="6.22553">
        <ele>168</ele>
        <time>2022-04-15T13:58:57Z</time>
      </trkpt>
      <trkpt lat="43.48868" lon="6.22553">
        <ele>168</ele>
        <time>2022-04-15T13:58:58Z</time>
      </trkpt>
      <trkpt lat="43.48868" lon="6.22553">
        <ele>168</ele>
        <time>2022-04-15T13:58:59Z</time>
      </trkpt>
      <trkpt lat="43.48868" lon="6.22553">
        <ele>168</ele>
        <time>2022-04-15T13:59:00Z</time>
      </trkpt>
      <trkpt lat="43.48868" lon="6.22553">
        <ele>168</ele>
        <time>2022-04-15T13:59:01Z</time>
      </trkpt>
      <trkpt lat="43.48868" lon="6.22553">
        <ele>168</ele>
        <time>2022-04-15T13:59:02Z</time>
      </trkpt>
      <trkpt lat="43.48868" lon="6.22553">
        <ele>168</ele>
        <time>2022-04-15T13:59:03Z</time>
      </trkpt>
      <trkpt lat="43.48868" lon="6.22553">
        <ele>168</ele>
        <time>2022-04-15T13:59:04Z</time>
      </trkpt>
      <trkpt lat="43.48868" lon="6.22553">
        <ele>168</ele>
        <time>2022-04-15T13:59:05Z</time>
      </trkpt>
      <trkpt lat="43.48868" lon="6.22553">
        <ele>168</ele>
        <time>2022-04-15T13:59:06Z</time>
      </trkpt>
      <trkpt lat="43.48868" lon="6.22553">
        <ele>168</ele>
        <time>2022-04-15T13:59:07Z</time>
      </trkpt>
      <trkpt lat="43.48868" lon="6.22553">
        <ele>168</ele>
        <time>2022-04-15T13:59:08Z</time>
      </trkpt>
      <trkpt lat="43.48868" lon="6.22553">
        <ele>168</ele>
        <time>2022-04-15T13:59:09Z</time>
      </trkpt>
      <trkpt lat="43.48868" lon="6.22553">
        <ele>168</ele>
        <time>2022-04-15T13:59:10Z</time>
      </trkpt>
      <trkpt lat="43.48868" lon="6.22553">
        <ele>168</ele>
        <time>2022-04-15T13:59:11Z</time>
      </trkpt>
      <trkpt lat="43.48868" lon="6.22553">
        <ele>168</ele>
        <time>2022-04-15T13:59:12Z</time>
      </trkpt>
      <trkpt lat="43.48868" lon="6.22553">
        <ele>168</ele>
        <time>2022-04-15T13:59:13Z</time>
      </trkpt>
      <trkpt lat="43.48868" lon="6.22553">
        <ele>168</ele>
        <time>2022-04-15T13:59:14Z</time>
      </trkpt>
      <trkpt lat="43.48868" lon="6.22553">
        <ele>168</ele>
        <time>2022-04-15T13:59:15Z</time>
      </trkpt>
      <trkpt lat="43.48868" lon="6.22553">
        <ele>168</ele>
        <time>2022-04-15T13:59:16Z</time>
      </trkpt>
      <trkpt lat="43.48868" lon="6.22553">
        <ele>168</ele>
        <time>2022-04-15T13:59:17Z</time>
      </trkpt>
      <trkpt lat="43.48868" lon="6.22553">
        <ele>168</ele>
        <time>2022-04-15T13:59:18Z</time>
      </trkpt>
      <trkpt lat="43.48868" lon="6.22553">
        <ele>168</ele>
        <time>2022-04-15T13:59:19Z</time>
      </trkpt>
      <trkpt lat="43.48868" lon="6.22553">
        <ele>168</ele>
        <time>2022-04-15T13:59:20Z</time>
      </trkpt>
      <trkpt lat="43.48868" lon="6.22553">
        <ele>168</ele>
        <time>2022-04-15T13:59:21Z</time>
      </trkpt>
      <trkpt lat="43.48868" lon="6.22553">
        <ele>168</ele>
        <time>2022-04-15T13:59:22Z</time>
      </trkpt>
      <trkpt lat="43.48868" lon="6.22553">
        <ele>168</ele>
        <time>2022-04-15T13:59:23Z</time>
      </trkpt>
      <trkpt lat="43.48868" lon="6.22553">
        <ele>168</ele>
        <time>2022-04-15T13:59:24Z</time>
      </trkpt>
      <trkpt lat="43.48868" lon="6.22553">
        <ele>168</ele>
        <time>2022-04-15T13:59:25Z</time>
      </trkpt>
      <trkpt lat="43.48868" lon="6.22553">
        <ele>168</ele>
        <time>2022-04-15T13:59:26Z</time>
      </trkpt>
      <trkpt lat="43.48868" lon="6.22553">
        <ele>168</ele>
        <time>2022-04-15T13:59:27Z</time>
      </trkpt>
      <trkpt lat="43.48868" lon="6.22553">
        <ele>168</ele>
        <time>2022-04-15T13:59:28Z</time>
      </trkpt>
      <trkpt lat="43.48868" lon="6.22553">
        <ele>168</ele>
        <time>2022-04-15T13:59:29Z</time>
      </trkpt>
      <trkpt lat="43.48868" lon="6.22553">
        <ele>168</ele>
        <time>2022-04-15T13:59:30Z</time>
      </trkpt>
      <trkpt lat="43.48868" lon="6.22553">
        <ele>168</ele>
        <time>2022-04-15T13:59:31Z</time>
      </trkpt>
      <trkpt lat="43.48868" lon="6.22553">
        <ele>168</ele>
        <time>2022-04-15T13:59:32Z</time>
      </trkpt>
      <trkpt lat="43.48868" lon="6.22553">
        <ele>168</ele>
        <time>2022-04-15T13:59:33Z</time>
      </trkpt>
      <trkpt lat="43.48868" lon="6.22553">
        <ele>168</ele>
        <time>2022-04-15T13:59:34Z</time>
      </trkpt>
      <trkpt lat="43.48868" lon="6.22553">
        <ele>168</ele>
        <time>2022-04-15T13:59:35Z</time>
      </trkpt>
      <trkpt lat="43.48868" lon="6.22553">
        <ele>168</ele>
        <time>2022-04-15T13:59:36Z</time>
      </trkpt>
      <trkpt lat="43.48868" lon="6.22553">
        <ele>168</ele>
        <time>2022-04-15T13:59:37Z</time>
      </trkpt>
      <trkpt lat="43.48868" lon="6.22553">
        <ele>168</ele>
        <time>2022-04-15T13:59:38Z</time>
      </trkpt>
      <trkpt lat="43.48868" lon="6.22553">
        <ele>168</ele>
        <time>2022-04-15T13:59:39Z</time>
      </trkpt>
      <trkpt lat="43.48868" lon="6.22553">
        <ele>168</ele>
        <time>2022-04-15T13:59:40Z</time>
      </trkpt>
      <trkpt lat="43.48868" lon="6.22553">
        <ele>168</ele>
        <time>2022-04-15T13:59:41Z</time>
      </trkpt>
      <trkpt lat="43.48868" lon="6.22553">
        <ele>168</ele>
        <time>2022-04-15T13:59:42Z</time>
      </trkpt>
      <trkpt lat="43.48868" lon="6.22553">
        <ele>168</ele>
        <time>2022-04-15T13:59:43Z</time>
      </trkpt>
      <trkpt lat="43.48868" lon="6.22552">
        <ele>168</ele>
        <time>2022-04-15T13:59:44Z</time>
      </trkpt>
      <trkpt lat="43.48867" lon="6.22552">
        <ele>168</ele>
        <time>2022-04-15T13:59:45Z</time>
      </trkpt>
      <trkpt lat="43.48867" lon="6.22552">
        <ele>168</ele>
        <time>2022-04-15T13:59:46Z</time>
      </trkpt>
      <trkpt lat="43.48867" lon="6.22551">
        <ele>168</ele>
        <time>2022-04-15T13:59:47Z</time>
      </trkpt>
      <trkpt lat="43.48867" lon="6.22551">
        <ele>168</ele>
        <time>2022-04-15T13:59:48Z</time>
      </trkpt>
      <trkpt lat="43.48867" lon="6.22551">
        <ele>168</ele>
        <time>2022-04-15T13:59:49Z</time>
      </trkpt>
      <trkpt lat="43.48867" lon="6.22551">
        <ele>168</ele>
        <time>2022-04-15T13:59:50Z</time>
      </trkpt>
      <trkpt lat="43.48867" lon="6.22551">
        <ele>168</ele>
        <time>2022-04-15T13:59:51Z</time>
      </trkpt>
      <trkpt lat="43.48867" lon="6.22551">
        <ele>168</ele>
        <time>2022-04-15T13:59:52Z</time>
      </trkpt>
      <trkpt lat="43.48867" lon="6.22551">
        <ele>168</ele>
        <time>2022-04-15T13:59:53Z</time>
      </trkpt>
      <trkpt lat="43.48867" lon="6.22551">
        <ele>168</ele>
        <time>2022-04-15T13:59:54Z</time>
      </trkpt>
      <trkpt lat="43.48867" lon="6.22551">
        <ele>168</ele>
        <time>2022-04-15T13:59:55Z</time>
      </trkpt>
      <trkpt lat="43.48867" lon="6.22551">
        <ele>168</ele>
        <time>2022-04-15T13:59:56Z</time>
      </trkpt>
      <trkpt lat="43.48867" lon="6.22551">
        <ele>168</ele>
        <time>2022-04-15T13:59:57Z</time>
      </trkpt>
      <trkpt lat="43.48867" lon="6.22551">
        <ele>168</ele>
        <time>2022-04-15T13:59:58Z</time>
      </trkpt>
      <trkpt lat="43.48867" lon="6.22551">
        <ele>168</ele>
        <time>2022-04-15T13:59:59Z</time>
      </trkpt>
      <trkpt lat="43.48867" lon="6.22551">
        <ele>168</ele>
        <time>2022-04-15T14:00:00Z</time>
      </trkpt>
      <trkpt lat="43.48867" lon="6.22551">
        <ele>168</ele>
        <time>2022-04-15T14:00:01Z</time>
      </trkpt>
      <trkpt lat="43.48867" lon="6.22551">
        <ele>168</ele>
        <time>2022-04-15T14:00:02Z</time>
      </trkpt>
      <trkpt lat="43.48867" lon="6.22551">
        <ele>168</ele>
        <time>2022-04-15T14:00:03Z</time>
      </trkpt>
      <trkpt lat="43.48867" lon="6.22551">
        <ele>168</ele>
        <time>2022-04-15T14:00:04Z</time>
      </trkpt>
      <trkpt lat="43.48867" lon="6.22551">
        <ele>168</ele>
        <time>2022-04-15T14:00:05Z</time>
      </trkpt>
      <trkpt lat="43.48867" lon="6.22551">
        <ele>168</ele>
        <time>2022-04-15T14:00:06Z</time>
      </trkpt>
      <trkpt lat="43.48867" lon="6.22551">
        <ele>168</ele>
        <time>2022-04-15T14:00:07Z</time>
      </trkpt>
      <trkpt lat="43.48867" lon="6.22551">
        <ele>168</ele>
        <time>2022-04-15T14:00:08Z</time>
      </trkpt>
      <trkpt lat="43.48867" lon="6.22551">
        <ele>168</ele>
        <time>2022-04-15T14:00:09Z</time>
      </trkpt>
      <trkpt lat="43.48867" lon="6.22551">
        <ele>168</ele>
        <time>2022-04-15T14:00:10Z</time>
      </trkpt>
      <trkpt lat="43.48867" lon="6.22551">
        <ele>168</ele>
        <time>2022-04-15T14:00:11Z</time>
      </trkpt>
      <trkpt lat="43.48867" lon="6.22551">
        <ele>168</ele>
        <time>2022-04-15T14:00:12Z</time>
      </trkpt>
      <trkpt lat="43.48867" lon="6.22551">
        <ele>168</ele>
        <time>2022-04-15T14:00:13Z</time>
      </trkpt>
      <trkpt lat="43.48867" lon="6.22551">
        <ele>168</ele>
        <time>2022-04-15T14:00:14Z</time>
      </trkpt>
      <trkpt lat="43.48867" lon="6.22551">
        <ele>168</ele>
        <time>2022-04-15T14:00:15Z</time>
      </trkpt>
      <trkpt lat="43.48867" lon="6.22551">
        <ele>168</ele>
        <time>2022-04-15T14:00:16Z</time>
      </trkpt>
      <trkpt lat="43.48867" lon="6.22551">
        <ele>168</ele>
        <time>2022-04-15T14:00:17Z</time>
      </trkpt>
      <trkpt lat="43.48867" lon="6.22551">
        <ele>168</ele>
        <time>2022-04-15T14:00:18Z</time>
      </trkpt>
      <trkpt lat="43.48867" lon="6.22551">
        <ele>168</ele>
        <time>2022-04-15T14:00:19Z</time>
      </trkpt>
      <trkpt lat="43.48867" lon="6.22551">
        <ele>168</ele>
        <time>2022-04-15T14:00:20Z</time>
      </trkpt>
      <trkpt lat="43.48867" lon="6.22551">
        <ele>168</ele>
        <time>2022-04-15T14:00:21Z</time>
      </trkpt>
      <trkpt lat="43.48867" lon="6.22551">
        <ele>168</ele>
        <time>2022-04-15T14:00:22Z</time>
      </trkpt>
      <trkpt lat="43.48867" lon="6.22551">
        <ele>168</ele>
        <time>2022-04-15T14:00:23Z</time>
      </trkpt>
      <trkpt lat="43.48867" lon="6.22551">
        <ele>168</ele>
        <time>2022-04-15T14:00:24Z</time>
      </trkpt>
      <trkpt lat="43.48867" lon="6.22551">
        <ele>168</ele>
        <time>2022-04-15T14:00:25Z</time>
      </trkpt>
      <trkpt lat="43.48867" lon="6.22551">
        <ele>168</ele>
        <time>2022-04-15T14:00:26Z</time>
      </trkpt>
      <trkpt lat="43.48869" lon="6.22549">
        <ele>168</ele>
        <time>2022-04-15T14:00:27Z</time>
      </trkpt>
      <trkpt lat="43.48869" lon="6.22549">
        <ele>168</ele>
        <time>2022-04-15T14:00:28Z</time>
      </trkpt>
      <trkpt lat="43.48869" lon="6.22549">
        <ele>168</ele>
        <time>2022-04-15T14:00:29Z</time>
      </trkpt>
      <trkpt lat="43.48869" lon="6.22549">
        <ele>168</ele>
        <time>2022-04-15T14:00:30Z</time>
      </trkpt>
      <trkpt lat="43.48869" lon="6.22549">
        <ele>168</ele>
        <time>2022-04-15T14:00:31Z</time>
      </trkpt>
      <trkpt lat="43.48869" lon="6.22549">
        <ele>168</ele>
        <time>2022-04-15T14:00:32Z</time>
      </trkpt>
      <trkpt lat="43.4887" lon="6.22548">
        <ele>168</ele>
        <time>2022-04-15T14:00:33Z</time>
      </trkpt>
      <trkpt lat="43.4887" lon="6.22548">
        <ele>168</ele>
        <time>2022-04-15T14:00:34Z</time>
      </trkpt>
      <trkpt lat="43.4887" lon="6.22548">
        <ele>168</ele>
        <time>2022-04-15T14:00:35Z</time>
      </trkpt>
      <trkpt lat="43.4887" lon="6.22548">
        <ele>168</ele>
        <time>2022-04-15T14:00:36Z</time>
      </trkpt>
      <trkpt lat="43.4887" lon="6.22547">
        <ele>168</ele>
        <time>2022-04-15T14:00:37Z</time>
      </trkpt>
      <trkpt lat="43.4887" lon="6.22547">
        <ele>168</ele>
        <time>2022-04-15T14:00:38Z</time>
      </trkpt>
      <trkpt lat="43.4887" lon="6.22547">
        <ele>168</ele>
        <time>2022-04-15T14:00:39Z</time>
      </trkpt>
      <trkpt lat="43.4887" lon="6.22547">
        <ele>168</ele>
        <time>2022-04-15T14:00:40Z</time>
      </trkpt>
      <trkpt lat="43.48871" lon="6.22547">
        <ele>168</ele>
        <time>2022-04-15T14:00:41Z</time>
      </trkpt>
      <trkpt lat="43.48871" lon="6.22547">
        <ele>168</ele>
        <time>2022-04-15T14:00:42Z</time>
      </trkpt>
      <trkpt lat="43.48871" lon="6.22547">
        <ele>168</ele>
        <time>2022-04-15T14:00:43Z</time>
      </trkpt>
      <trkpt lat="43.48871" lon="6.22547">
        <ele>168</ele>
        <time>2022-04-15T14:00:44Z</time>
      </trkpt>
      <trkpt lat="43.48871" lon="6.22547">
        <ele>168</ele>
        <time>2022-04-15T14:00:45Z</time>
      </trkpt>
      <trkpt lat="43.48871" lon="6.22547">
        <ele>168</ele>
        <time>2022-04-15T14:00:46Z</time>
      </trkpt>
      <trkpt lat="43.48872" lon="6.22547">
        <ele>168</ele>
        <time>2022-04-15T14:00:47Z</time>
      </trkpt>
      <trkpt lat="43.48872" lon="6.22547">
        <ele>168</ele>
        <time>2022-04-15T14:00:48Z</time>
      </trkpt>
      <trkpt lat="43.48872" lon="6.22547">
        <ele>168</ele>
        <time>2022-04-15T14:00:49Z</time>
      </trkpt>
      <trkpt lat="43.48872" lon="6.22547">
        <ele>168</ele>
        <time>2022-04-15T14:00:50Z</time>
      </trkpt>
      <trkpt lat="43.48872" lon="6.22547">
        <ele>168</ele>
        <time>2022-04-15T14:00:51Z</time>
      </trkpt>
      <trkpt lat="43.48872" lon="6.22547">
        <ele>168</ele>
        <time>2022-04-15T14:00:52Z</time>
      </trkpt>
      <trkpt lat="43.48872" lon="6.22547">
        <ele>168</ele>
        <time>2022-04-15T14:00:53Z</time>
      </trkpt>
      <trkpt lat="43.48872" lon="6.22547">
        <ele>168</ele>
        <time>2022-04-15T14:00:54Z</time>
      </trkpt>
      <trkpt lat="43.48872" lon="6.22547">
        <ele>168</ele>
        <time>2022-04-15T14:00:55Z</time>
      </trkpt>
      <trkpt lat="43.48872" lon="6.22547">
        <ele>168</ele>
        <time>2022-04-15T14:00:56Z</time>
      </trkpt>
      <trkpt lat="43.48872" lon="6.22548">
        <ele>168</ele>
        <time>2022-04-15T14:00:57Z</time>
      </trkpt>
      <trkpt lat="43.48872" lon="6.22548">
        <ele>168</ele>
        <time>2022-04-15T14:00:58Z</time>
      </trkpt>
      <trkpt lat="43.48871" lon="6.22548">
        <ele>168</ele>
        <time>2022-04-15T14:00:59Z</time>
      </trkpt>
      <trkpt lat="43.48871" lon="6.22549">
        <ele>168</ele>
        <time>2022-04-15T14:01:00Z</time>
      </trkpt>
      <trkpt lat="43.4887" lon="6.2255">
        <ele>168</ele>
        <time>2022-04-15T14:01:01Z</time>
      </trkpt>
      <trkpt lat="43.48869" lon="6.2255">
        <ele>168</ele>
        <time>2022-04-15T14:01:02Z</time>
      </trkpt>
      <trkpt lat="43.48869" lon="6.22551">
        <ele>168</ele>
        <time>2022-04-15T14:01:03Z</time>
      </trkpt>
      <trkpt lat="43.48868" lon="6.22552">
        <ele>168</ele>
        <time>2022-04-15T14:01:04Z</time>
      </trkpt>
      <trkpt lat="43.48868" lon="6.22553">
        <ele>168</ele>
        <time>2022-04-15T14:01:05Z</time>
      </trkpt>
      <trkpt lat="43.48867" lon="6.22553">
        <ele>168</ele>
        <time>2022-04-15T14:01:06Z</time>
      </trkpt>
      <trkpt lat="43.48867" lon="6.22553">
        <ele>168</ele>
        <time>2022-04-15T14:01:07Z</time>
      </trkpt>
      <trkpt lat="43.48867" lon="6.22554">
        <ele>168</ele>
        <time>2022-04-15T14:01:08Z</time>
      </trkpt>
      <trkpt lat="43.48867" lon="6.22554">
        <ele>168</ele>
        <time>2022-04-15T14:01:09Z</time>
      </trkpt>
      <trkpt lat="43.48866" lon="6.22555">
        <ele>168</ele>
        <time>2022-04-15T14:01:10Z</time>
      </trkpt>
      <trkpt lat="43.48866" lon="6.22555">
        <ele>168</ele>
        <time>2022-04-15T14:01:11Z</time>
      </trkpt>
      <trkpt lat="43.48865" lon="6.22557">
        <ele>168</ele>
        <time>2022-04-15T14:01:12Z</time>
      </trkpt>
      <trkpt lat="43.48865" lon="6.22558">
        <ele>168</ele>
        <time>2022-04-15T14:01:13Z</time>
      </trkpt>
      <trkpt lat="43.48865" lon="6.22559">
        <ele>168</ele>
        <time>2022-04-15T14:01:14Z</time>
      </trkpt>
      <trkpt lat="43.48864" lon="6.2256">
        <ele>168</ele>
        <time>2022-04-15T14:01:15Z</time>
      </trkpt>
      <trkpt lat="43.48864" lon="6.22561">
        <ele>167</ele>
        <time>2022-04-15T14:01:16Z</time>
      </trkpt>
      <trkpt lat="43.48864" lon="6.22562">
        <ele>167</ele>
        <time>2022-04-15T14:01:17Z</time>
      </trkpt>
      <trkpt lat="43.48864" lon="6.22562">
        <ele>167</ele>
        <time>2022-04-15T14:01:18Z</time>
      </trkpt>
      <trkpt lat="43.48864" lon="6.22563">
        <ele>167</ele>
        <time>2022-04-15T14:01:19Z</time>
      </trkpt>
      <trkpt lat="43.48864" lon="6.22563">
        <ele>167</ele>
        <time>2022-04-15T14:01:20Z</time>
      </trkpt>
      <trkpt lat="43.48864" lon="6.22563">
        <ele>167</ele>
        <time>2022-04-15T14:01:21Z</time>
      </trkpt>
      <trkpt lat="43.48864" lon="6.22563">
        <ele>167</ele>
        <time>2022-04-15T14:01:22Z</time>
      </trkpt>
      <trkpt lat="43.48864" lon="6.22563">
        <ele>167</ele>
        <time>2022-04-15T14:01:23Z</time>
      </trkpt>
      <trkpt lat="43.48864" lon="6.22563">
        <ele>167</ele>
        <time>2022-04-15T14:01:24Z</time>
      </trkpt>
      <trkpt lat="43.48863" lon="6.22565">
        <ele>167</ele>
        <time>2022-04-15T14:01:25Z</time>
      </trkpt>
      <trkpt lat="43.48863" lon="6.22565">
        <ele>167</ele>
        <time>2022-04-15T14:01:26Z</time>
      </trkpt>
      <trkpt lat="43.48863" lon="6.22565">
        <ele>167</ele>
        <time>2022-04-15T14:01:27Z</time>
      </trkpt>
      <trkpt lat="43.48863" lon="6.22565">
        <ele>167</ele>
        <time>2022-04-15T14:01:28Z</time>
      </trkpt>
      <trkpt lat="43.48863" lon="6.22566">
        <ele>167</ele>
        <time>2022-04-15T14:01:29Z</time>
      </trkpt>
      <trkpt lat="43.48863" lon="6.22566">
        <ele>167</ele>
        <time>2022-04-15T14:01:30Z</time>
      </trkpt>
      <trkpt lat="43.48863" lon="6.22566">
        <ele>167</ele>
        <time>2022-04-15T14:01:31Z</time>
      </trkpt>
      <trkpt lat="43.48863" lon="6.22566">
        <ele>167</ele>
        <time>2022-04-15T14:01:32Z</time>
      </trkpt>
      <trkpt lat="43.48863" lon="6.22566">
        <ele>167</ele>
        <time>2022-04-15T14:01:33Z</time>
      </trkpt>
      <trkpt lat="43.48863" lon="6.22566">
        <ele>167</ele>
        <time>2022-04-15T14:01:34Z</time>
      </trkpt>
      <trkpt lat="43.48863" lon="6.22566">
        <ele>167</ele>
        <time>2022-04-15T14:01:35Z</time>
      </trkpt>
      <trkpt lat="43.48863" lon="6.22566">
        <ele>167</ele>
        <time>2022-04-15T14:01:36Z</time>
      </trkpt>
      <trkpt lat="43.48863" lon="6.22566">
        <ele>167</ele>
        <time>2022-04-15T14:01:37Z</time>
      </trkpt>
      <trkpt lat="43.48863" lon="6.22566">
        <ele>167</ele>
        <time>2022-04-15T14:01:38Z</time>
      </trkpt>
      <trkpt lat="43.48863" lon="6.22566">
        <ele>167</ele>
        <time>2022-04-15T14:01:39Z</time>
      </trkpt>
      <trkpt lat="43.48863" lon="6.22566">
        <ele>167</ele>
        <time>2022-04-15T14:01:40Z</time>
      </trkpt>
      <trkpt lat="43.48863" lon="6.22566">
        <ele>167</ele>
        <time>2022-04-15T14:01:41Z</time>
      </trkpt>
      <trkpt lat="43.48863" lon="6.22566">
        <ele>167</ele>
        <time>2022-04-15T14:01:42Z</time>
      </trkpt>
      <trkpt lat="43.48863" lon="6.22566">
        <ele>167</ele>
        <time>2022-04-15T14:01:43Z</time>
      </trkpt>
      <trkpt lat="43.48863" lon="6.22566">
        <ele>167</ele>
        <time>2022-04-15T14:01:44Z</time>
      </trkpt>
      <trkpt lat="43.48863" lon="6.22566">
        <ele>167</ele>
        <time>2022-04-15T14:01:45Z</time>
      </trkpt>
      <trkpt lat="43.48863" lon="6.22566">
        <ele>167</ele>
        <time>2022-04-15T14:01:46Z</time>
      </trkpt>
      <trkpt lat="43.48863" lon="6.22566">
        <ele>167</ele>
        <time>2022-04-15T14:01:47Z</time>
      </trkpt>
      <trkpt lat="43.48863" lon="6.22566">
        <ele>167</ele>
        <time>2022-04-15T14:01:48Z</time>
      </trkpt>
      <trkpt lat="43.48863" lon="6.22566">
        <ele>167</ele>
        <time>2022-04-15T14:01:49Z</time>
      </trkpt>
      <trkpt lat="43.48863" lon="6.22567">
        <ele>167</ele>
        <time>2022-04-15T14:01:50Z</time>
      </trkpt>
      <trkpt lat="43.48863" lon="6.22567">
        <ele>167</ele>
        <time>2022-04-15T14:01:51Z</time>
      </trkpt>
      <trkpt lat="43.48863" lon="6.22568">
        <ele>167</ele>
        <time>2022-04-15T14:01:52Z</time>
      </trkpt>
      <trkpt lat="43.48862" lon="6.2257">
        <ele>167</ele>
        <time>2022-04-15T14:01:53Z</time>
      </trkpt>
      <trkpt lat="43.48862" lon="6.22571">
        <ele>167</ele>
        <time>2022-04-15T14:01:54Z</time>
      </trkpt>
      <trkpt lat="43.48862" lon="6.22572">
        <ele>167</ele>
        <time>2022-04-15T14:01:55Z</time>
      </trkpt>
      <trkpt lat="43.48862" lon="6.22573">
        <ele>166</ele>
        <time>2022-04-15T14:01:56Z</time>
      </trkpt>
      <trkpt lat="43.48861" lon="6.22574">
        <ele>166</ele>
        <time>2022-04-15T14:01:57Z</time>
      </trkpt>
      <trkpt lat="43.48861" lon="6.22575">
        <ele>166</ele>
        <time>2022-04-15T14:01:58Z</time>
      </trkpt>
      <trkpt lat="43.48861" lon="6.22575">
        <ele>166</ele>
        <time>2022-04-15T14:01:59Z</time>
      </trkpt>
      <trkpt lat="43.48861" lon="6.22576">
        <ele>166</ele>
        <time>2022-04-15T14:02:00Z</time>
      </trkpt>
      <trkpt lat="43.48861" lon="6.22577">
        <ele>166</ele>
        <time>2022-04-15T14:02:01Z</time>
      </trkpt>
      <trkpt lat="43.4886" lon="6.22577">
        <ele>166</ele>
        <time>2022-04-15T14:02:02Z</time>
      </trkpt>
      <trkpt lat="43.4886" lon="6.22577">
        <ele>166</ele>
        <time>2022-04-15T14:02:03Z</time>
      </trkpt>
      <trkpt lat="43.4886" lon="6.22578">
        <ele>166</ele>
        <time>2022-04-15T14:02:04Z</time>
      </trkpt>
      <trkpt lat="43.4886" lon="6.22578">
        <ele>166</ele>
        <time>2022-04-15T14:02:05Z</time>
      </trkpt>
      <trkpt lat="43.4886" lon="6.22578">
        <ele>166</ele>
        <time>2022-04-15T14:02:06Z</time>
      </trkpt>
      <trkpt lat="43.4886" lon="6.22578">
        <ele>166</ele>
        <time>2022-04-15T14:02:07Z</time>
      </trkpt>
      <trkpt lat="43.4886" lon="6.22578">
        <ele>166</ele>
        <time>2022-04-15T14:02:08Z</time>
      </trkpt>
      <trkpt lat="43.4886" lon="6.22579">
        <ele>166</ele>
        <time>2022-04-15T14:02:09Z</time>
      </trkpt>
      <trkpt lat="43.4886" lon="6.22579">
        <ele>166</ele>
        <time>2022-04-15T14:02:10Z</time>
      </trkpt>
      <trkpt lat="43.4886" lon="6.2258">
        <ele>166</ele>
        <time>2022-04-15T14:02:11Z</time>
      </trkpt>
      <trkpt lat="43.48859" lon="6.22581">
        <ele>166</ele>
        <time>2022-04-15T14:02:12Z</time>
      </trkpt>
      <trkpt lat="43.48859" lon="6.22582">
        <ele>166</ele>
        <time>2022-04-15T14:02:13Z</time>
      </trkpt>
      <trkpt lat="43.48858" lon="6.22583">
        <ele>166</ele>
        <time>2022-04-15T14:02:14Z</time>
      </trkpt>
      <trkpt lat="43.48858" lon="6.22583">
        <ele>166</ele>
        <time>2022-04-15T14:02:15Z</time>
      </trkpt>
      <trkpt lat="43.48857" lon="6.22584">
        <ele>167</ele>
        <time>2022-04-15T14:02:16Z</time>
      </trkpt>
      <trkpt lat="43.48857" lon="6.22584">
        <ele>167</ele>
        <time>2022-04-15T14:02:17Z</time>
      </trkpt>
      <trkpt lat="43.48857" lon="6.22584">
        <ele>167</ele>
        <time>2022-04-15T14:02:18Z</time>
      </trkpt>
      <trkpt lat="43.48857" lon="6.22584">
        <ele>167</ele>
        <time>2022-04-15T14:02:19Z</time>
      </trkpt>
      <trkpt lat="43.48857" lon="6.22584">
        <ele>167</ele>
        <time>2022-04-15T14:02:20Z</time>
      </trkpt>
      <trkpt lat="43.48857" lon="6.22584">
        <ele>167</ele>
        <time>2022-04-15T14:02:21Z</time>
      </trkpt>
      <trkpt lat="43.48857" lon="6.22584">
        <ele>167</ele>
        <time>2022-04-15T14:02:22Z</time>
      </trkpt>
      <trkpt lat="43.48856" lon="6.22588">
        <ele>167</ele>
        <time>2022-04-15T14:02:23Z</time>
      </trkpt>
      <trkpt lat="43.48855" lon="6.22588">
        <ele>167</ele>
        <time>2022-04-15T14:02:24Z</time>
      </trkpt>
      <trkpt lat="43.48855" lon="6.22589">
        <ele>167</ele>
        <time>2022-04-15T14:02:25Z</time>
      </trkpt>
      <trkpt lat="43.48855" lon="6.22589">
        <ele>167</ele>
        <time>2022-04-15T14:02:26Z</time>
      </trkpt>
      <trkpt lat="43.48854" lon="6.2259">
        <ele>167</ele>
        <time>2022-04-15T14:02:27Z</time>
      </trkpt>
      <trkpt lat="43.48854" lon="6.2259">
        <ele>167</ele>
        <time>2022-04-15T14:02:28Z</time>
      </trkpt>
      <trkpt lat="43.48854" lon="6.22591">
        <ele>167</ele>
        <time>2022-04-15T14:02:29Z</time>
      </trkpt>
      <trkpt lat="43.48854" lon="6.22592">
        <ele>167</ele>
        <time>2022-04-15T14:02:30Z</time>
      </trkpt>
      <trkpt lat="43.48854" lon="6.22592">
        <ele>166</ele>
        <time>2022-04-15T14:02:31Z</time>
      </trkpt>
      <trkpt lat="43.48853" lon="6.22593">
        <ele>166</ele>
        <time>2022-04-15T14:02:32Z</time>
      </trkpt>
      <trkpt lat="43.48853" lon="6.22594">
        <ele>166</ele>
        <time>2022-04-15T14:02:33Z</time>
      </trkpt>
      <trkpt lat="43.48853" lon="6.22595">
        <ele>166</ele>
        <time>2022-04-15T14:02:34Z</time>
      </trkpt>
      <trkpt lat="43.48853" lon="6.22596">
        <ele>164</ele>
        <time>2022-04-15T14:02:35Z</time>
      </trkpt>
      <trkpt lat="43.48853" lon="6.22597">
        <ele>164</ele>
        <time>2022-04-15T14:02:36Z</time>
      </trkpt>
      <trkpt lat="43.48853" lon="6.22599">
        <ele>163</ele>
        <time>2022-04-15T14:02:37Z</time>
      </trkpt>
      <trkpt lat="43.48853" lon="6.226">
        <ele>163</ele>
        <time>2022-04-15T14:02:38Z</time>
      </trkpt>
      <trkpt lat="43.48853" lon="6.22603">
        <ele>163</ele>
        <time>2022-04-15T14:02:39Z</time>
      </trkpt>
      <trkpt lat="43.48853" lon="6.22605">
        <ele>163</ele>
        <time>2022-04-15T14:02:40Z</time>
      </trkpt>
      <trkpt lat="43.48854" lon="6.22607">
        <ele>162</ele>
        <time>2022-04-15T14:02:41Z</time>
      </trkpt>
      <trkpt lat="43.48854" lon="6.22609">
        <ele>162</ele>
        <time>2022-04-15T14:02:42Z</time>
      </trkpt>
      <trkpt lat="43.48854" lon="6.22611">
        <ele>162</ele>
        <time>2022-04-15T14:02:43Z</time>
      </trkpt>
      <trkpt lat="43.48854" lon="6.22613">
        <ele>162</ele>
        <time>2022-04-15T14:02:44Z</time>
      </trkpt>
      <trkpt lat="43.48855" lon="6.22614">
        <ele>162</ele>
        <time>2022-04-15T14:02:45Z</time>
      </trkpt>
      <trkpt lat="43.48855" lon="6.22616">
        <ele>162</ele>
        <time>2022-04-15T14:02:46Z</time>
      </trkpt>
      <trkpt lat="43.48855" lon="6.22617">
        <ele>162</ele>
        <time>2022-04-15T14:02:47Z</time>
      </trkpt>
      <trkpt lat="43.48856" lon="6.22619">
        <ele>161</ele>
        <time>2022-04-15T14:02:48Z</time>
      </trkpt>
      <trkpt lat="43.48856" lon="6.2262">
        <ele>161</ele>
        <time>2022-04-15T14:02:49Z</time>
      </trkpt>
      <trkpt lat="43.48856" lon="6.22621">
        <ele>159</ele>
        <time>2022-04-15T14:02:50Z</time>
      </trkpt>
      <trkpt lat="43.48857" lon="6.22622">
        <ele>158</ele>
        <time>2022-04-15T14:02:51Z</time>
      </trkpt>
      <trkpt lat="43.48857" lon="6.22623">
        <ele>158</ele>
        <time>2022-04-15T14:02:52Z</time>
      </trkpt>
      <trkpt lat="43.48858" lon="6.22624">
        <ele>157</ele>
        <time>2022-04-15T14:02:53Z</time>
      </trkpt>
      <trkpt lat="43.48858" lon="6.22624">
        <ele>157</ele>
        <time>2022-04-15T14:02:54Z</time>
      </trkpt>
      <trkpt lat="43.48858" lon="6.22625">
        <ele>156</ele>
        <time>2022-04-15T14:02:55Z</time>
      </trkpt>
      <trkpt lat="43.48859" lon="6.22626">
        <ele>156</ele>
        <time>2022-04-15T14:02:56Z</time>
      </trkpt>
      <trkpt lat="43.48859" lon="6.22627">
        <ele>156</ele>
        <time>2022-04-15T14:02:57Z</time>
      </trkpt>
      <trkpt lat="43.48859" lon="6.22628">
        <ele>155</ele>
        <time>2022-04-15T14:02:58Z</time>
      </trkpt>
      <trkpt lat="43.48859" lon="6.22629">
        <ele>155</ele>
        <time>2022-04-15T14:02:59Z</time>
      </trkpt>
      <trkpt lat="43.4886" lon="6.2263">
        <ele>155</ele>
        <time>2022-04-15T14:03:00Z</time>
      </trkpt>
      <trkpt lat="43.4886" lon="6.22631">
        <ele>155</ele>
        <time>2022-04-15T14:03:01Z</time>
      </trkpt>
      <trkpt lat="43.4886" lon="6.22633">
        <ele>154</ele>
        <time>2022-04-15T14:03:02Z</time>
      </trkpt>
      <trkpt lat="43.4886" lon="6.22634">
        <ele>154</ele>
        <time>2022-04-15T14:03:03Z</time>
      </trkpt>
      <trkpt lat="43.48859" lon="6.22635">
        <ele>154</ele>
        <time>2022-04-15T14:03:04Z</time>
      </trkpt>
      <trkpt lat="43.48859" lon="6.22636">
        <ele>154</ele>
        <time>2022-04-15T14:03:05Z</time>
      </trkpt>
      <trkpt lat="43.48859" lon="6.22637">
        <ele>154</ele>
        <time>2022-04-15T14:03:06Z</time>
      </trkpt>
      <trkpt lat="43.48859" lon="6.22638">
        <ele>154</ele>
        <time>2022-04-15T14:03:07Z</time>
      </trkpt>
      <trkpt lat="43.48859" lon="6.22639">
        <ele>153</ele>
        <time>2022-04-15T14:03:08Z</time>
      </trkpt>
      <trkpt lat="43.48858" lon="6.2264">
        <ele>153</ele>
        <time>2022-04-15T14:03:09Z</time>
      </trkpt>
      <trkpt lat="43.48858" lon="6.22642">
        <ele>153</ele>
        <time>2022-04-15T14:03:10Z</time>
      </trkpt>
      <trkpt lat="43.48858" lon="6.22643">
        <ele>153</ele>
        <time>2022-04-15T14:03:11Z</time>
      </trkpt>
      <trkpt lat="43.48857" lon="6.22645">
        <ele>153</ele>
        <time>2022-04-15T14:03:12Z</time>
      </trkpt>
      <trkpt lat="43.48857" lon="6.22648">
        <ele>151</ele>
        <time>2022-04-15T14:03:13Z</time>
      </trkpt>
      <trkpt lat="43.48857" lon="6.22651">
        <ele>150</ele>
        <time>2022-04-15T14:03:14Z</time>
      </trkpt>
      <trkpt lat="43.48856" lon="6.22653">
        <ele>150</ele>
        <time>2022-04-15T14:03:15Z</time>
      </trkpt>
      <trkpt lat="43.48856" lon="6.22655">
        <ele>150</ele>
        <time>2022-04-15T14:03:16Z</time>
      </trkpt>
      <trkpt lat="43.48855" lon="6.22657">
        <ele>150</ele>
        <time>2022-04-15T14:03:17Z</time>
      </trkpt>
      <trkpt lat="43.48855" lon="6.2266">
        <ele>149</ele>
        <time>2022-04-15T14:03:18Z</time>
      </trkpt>
      <trkpt lat="43.48855" lon="6.22662">
        <ele>149</ele>
        <time>2022-04-15T14:03:19Z</time>
      </trkpt>
      <trkpt lat="43.48854" lon="6.22664">
        <ele>149</ele>
        <time>2022-04-15T14:03:20Z</time>
      </trkpt>
      <trkpt lat="43.48854" lon="6.22666">
        <ele>149</ele>
        <time>2022-04-15T14:03:21Z</time>
      </trkpt>
      <trkpt lat="43.48854" lon="6.22667">
        <ele>149</ele>
        <time>2022-04-15T14:03:22Z</time>
      </trkpt>
      <trkpt lat="43.48853" lon="6.22669">
        <ele>149</ele>
        <time>2022-04-15T14:03:23Z</time>
      </trkpt>
      <trkpt lat="43.48853" lon="6.22671">
        <ele>148</ele>
        <time>2022-04-15T14:03:24Z</time>
      </trkpt>
      <trkpt lat="43.48853" lon="6.22673">
        <ele>148</ele>
        <time>2022-04-15T14:03:25Z</time>
      </trkpt>
      <trkpt lat="43.48852" lon="6.22674">
        <ele>148</ele>
        <time>2022-04-15T14:03:26Z</time>
      </trkpt>
      <trkpt lat="43.48852" lon="6.22675">
        <ele>148</ele>
        <time>2022-04-15T14:03:27Z</time>
      </trkpt>
      <trkpt lat="43.48852" lon="6.22677">
        <ele>148</ele>
        <time>2022-04-15T14:03:28Z</time>
      </trkpt>
      <trkpt lat="43.48852" lon="6.22678">
        <ele>148</ele>
        <time>2022-04-15T14:03:29Z</time>
      </trkpt>
      <trkpt lat="43.48852" lon="6.22679">
        <ele>147</ele>
        <time>2022-04-15T14:03:30Z</time>
      </trkpt>
      <trkpt lat="43.48852" lon="6.22681">
        <ele>147</ele>
        <time>2022-04-15T14:03:31Z</time>
      </trkpt>
      <trkpt lat="43.48852" lon="6.22683">
        <ele>147</ele>
        <time>2022-04-15T14:03:32Z</time>
      </trkpt>
      <trkpt lat="43.48852" lon="6.22684">
        <ele>147</ele>
        <time>2022-04-15T14:03:33Z</time>
      </trkpt>
      <trkpt lat="43.48852" lon="6.22687">
        <ele>147</ele>
        <time>2022-04-15T14:03:34Z</time>
      </trkpt>
      <trkpt lat="43.48852" lon="6.22689">
        <ele>147</ele>
        <time>2022-04-15T14:03:35Z</time>
      </trkpt>
      <trkpt lat="43.48852" lon="6.22691">
        <ele>147</ele>
        <time>2022-04-15T14:03:36Z</time>
      </trkpt>
      <trkpt lat="43.48852" lon="6.22692">
        <ele>146</ele>
        <time>2022-04-15T14:03:37Z</time>
      </trkpt>
      <trkpt lat="43.48851" lon="6.22694">
        <ele>146</ele>
        <time>2022-04-15T14:03:38Z</time>
      </trkpt>
      <trkpt lat="43.48851" lon="6.22695">
        <ele>146</ele>
        <time>2022-04-15T14:03:39Z</time>
      </trkpt>
      <trkpt lat="43.48851" lon="6.22697">
        <ele>146</ele>
        <time>2022-04-15T14:03:40Z</time>
      </trkpt>
      <trkpt lat="43.48851" lon="6.22698">
        <ele>145</ele>
        <time>2022-04-15T14:03:41Z</time>
      </trkpt>
      <trkpt lat="43.48851" lon="6.227">
        <ele>145</ele>
        <time>2022-04-15T14:03:42Z</time>
      </trkpt>
      <trkpt lat="43.4885" lon="6.22701">
        <ele>145</ele>
        <time>2022-04-15T14:03:43Z</time>
      </trkpt>
      <trkpt lat="43.4885" lon="6.22702">
        <ele>145</ele>
        <time>2022-04-15T14:03:44Z</time>
      </trkpt>
      <trkpt lat="43.4885" lon="6.22704">
        <ele>145</ele>
        <time>2022-04-15T14:03:45Z</time>
      </trkpt>
      <trkpt lat="43.4885" lon="6.22705">
        <ele>145</ele>
        <time>2022-04-15T14:03:46Z</time>
      </trkpt>
      <trkpt lat="43.48849" lon="6.22706">
        <ele>145</ele>
        <time>2022-04-15T14:03:47Z</time>
      </trkpt>
      <trkpt lat="43.48849" lon="6.22708">
        <ele>145</ele>
        <time>2022-04-15T14:03:48Z</time>
      </trkpt>
      <trkpt lat="43.48849" lon="6.22709">
        <ele>145</ele>
        <time>2022-04-15T14:03:49Z</time>
      </trkpt>
      <trkpt lat="43.48849" lon="6.2271">
        <ele>145</ele>
        <time>2022-04-15T14:03:50Z</time>
      </trkpt>
      <trkpt lat="43.48849" lon="6.22711">
        <ele>145</ele>
        <time>2022-04-15T14:03:51Z</time>
      </trkpt>
      <trkpt lat="43.48848" lon="6.22712">
        <ele>145</ele>
        <time>2022-04-15T14:03:52Z</time>
      </trkpt>
      <trkpt lat="43.48848" lon="6.22713">
        <ele>145</ele>
        <time>2022-04-15T14:03:53Z</time>
      </trkpt>
      <trkpt lat="43.48848" lon="6.22714">
        <ele>145</ele>
        <time>2022-04-15T14:03:54Z</time>
      </trkpt>
      <trkpt lat="43.48848" lon="6.22715">
        <ele>145</ele>
        <time>2022-04-15T14:03:55Z</time>
      </trkpt>
      <trkpt lat="43.48848" lon="6.22716">
        <ele>145</ele>
        <time>2022-04-15T14:03:56Z</time>
      </trkpt>
      <trkpt lat="43.48848" lon="6.22718">
        <ele>146</ele>
        <time>2022-04-15T14:03:57Z</time>
      </trkpt>
      <trkpt lat="43.48848" lon="6.22719">
        <ele>146</ele>
        <time>2022-04-15T14:03:58Z</time>
      </trkpt>
      <trkpt lat="43.48848" lon="6.2272">
        <ele>146</ele>
        <time>2022-04-15T14:03:59Z</time>
      </trkpt>
      <trkpt lat="43.48848" lon="6.22722">
        <ele>146</ele>
        <time>2022-04-15T14:04:00Z</time>
      </trkpt>
      <trkpt lat="43.48847" lon="6.22723">
        <ele>146</ele>
        <time>2022-04-15T14:04:01Z</time>
      </trkpt>
      <trkpt lat="43.48847" lon="6.22724">
        <ele>146</ele>
        <time>2022-04-15T14:04:02Z</time>
      </trkpt>
      <trkpt lat="43.48847" lon="6.22725">
        <ele>146</ele>
        <time>2022-04-15T14:04:03Z</time>
      </trkpt>
      <trkpt lat="43.48847" lon="6.22727">
        <ele>146</ele>
        <time>2022-04-15T14:04:04Z</time>
      </trkpt>
      <trkpt lat="43.48847" lon="6.22728">
        <ele>147</ele>
        <time>2022-04-15T14:04:05Z</time>
      </trkpt>
      <trkpt lat="43.48846" lon="6.2273">
        <ele>147</ele>
        <time>2022-04-15T14:04:06Z</time>
      </trkpt>
      <trkpt lat="43.48846" lon="6.22731">
        <ele>147</ele>
        <time>2022-04-15T14:04:07Z</time>
      </trkpt>
      <trkpt lat="43.48846" lon="6.22732">
        <ele>147</ele>
        <time>2022-04-15T14:04:08Z</time>
      </trkpt>
      <trkpt lat="43.48846" lon="6.22733">
        <ele>147</ele>
        <time>2022-04-15T14:04:09Z</time>
      </trkpt>
      <trkpt lat="43.48846" lon="6.22735">
        <ele>147</ele>
        <time>2022-04-15T14:04:10Z</time>
      </trkpt>
      <trkpt lat="43.48846" lon="6.22736">
        <ele>147</ele>
        <time>2022-04-15T14:04:11Z</time>
      </trkpt>
      <trkpt lat="43.48846" lon="6.22737">
        <ele>147</ele>
        <time>2022-04-15T14:04:12Z</time>
      </trkpt>
      <trkpt lat="43.48847" lon="6.22739">
        <ele>147</ele>
        <time>2022-04-15T14:04:13Z</time>
      </trkpt>
      <trkpt lat="43.48847" lon="6.2274">
        <ele>147</ele>
        <time>2022-04-15T14:04:14Z</time>
      </trkpt>
      <trkpt lat="43.48847" lon="6.22742">
        <ele>147</ele>
        <time>2022-04-15T14:04:15Z</time>
      </trkpt>
      <trkpt lat="43.48847" lon="6.22743">
        <ele>147</ele>
        <time>2022-04-15T14:04:16Z</time>
      </trkpt>
      <trkpt lat="43.48847" lon="6.22744">
        <ele>147</ele>
        <time>2022-04-15T14:04:17Z</time>
      </trkpt>
      <trkpt lat="43.48847" lon="6.22746">
        <ele>147</ele>
        <time>2022-04-15T14:04:18Z</time>
      </trkpt>
      <trkpt lat="43.48847" lon="6.22747">
        <ele>147</ele>
        <time>2022-04-15T14:04:19Z</time>
      </trkpt>
      <trkpt lat="43.48847" lon="6.22748">
        <ele>147</ele>
        <time>2022-04-15T14:04:20Z</time>
      </trkpt>
      <trkpt lat="43.48847" lon="6.2275">
        <ele>146</ele>
        <time>2022-04-15T14:04:21Z</time>
      </trkpt>
      <trkpt lat="43.48847" lon="6.22751">
        <ele>146</ele>
        <time>2022-04-15T14:04:22Z</time>
      </trkpt>
      <trkpt lat="43.48847" lon="6.22752">
        <ele>146</ele>
        <time>2022-04-15T14:04:23Z</time>
      </trkpt>
      <trkpt lat="43.48847" lon="6.22754">
        <ele>146</ele>
        <time>2022-04-15T14:04:24Z</time>
      </trkpt>
      <trkpt lat="43.48846" lon="6.22755">
        <ele>146</ele>
        <time>2022-04-15T14:04:25Z</time>
      </trkpt>
      <trkpt lat="43.48846" lon="6.22757">
        <ele>146</ele>
        <time>2022-04-15T14:04:26Z</time>
      </trkpt>
      <trkpt lat="43.48845" lon="6.22758">
        <ele>146</ele>
        <time>2022-04-15T14:04:27Z</time>
      </trkpt>
      <trkpt lat="43.48845" lon="6.2276">
        <ele>146</ele>
        <time>2022-04-15T14:04:28Z</time>
      </trkpt>
      <trkpt lat="43.48844" lon="6.22761">
        <ele>146</ele>
        <time>2022-04-15T14:04:29Z</time>
      </trkpt>
      <trkpt lat="43.48844" lon="6.22762">
        <ele>146</ele>
        <time>2022-04-15T14:04:30Z</time>
      </trkpt>
      <trkpt lat="43.48843" lon="6.22764">
        <ele>145</ele>
        <time>2022-04-15T14:04:31Z</time>
      </trkpt>
      <trkpt lat="43.48843" lon="6.22765">
        <ele>145</ele>
        <time>2022-04-15T14:04:32Z</time>
      </trkpt>
      <trkpt lat="43.48842" lon="6.22766">
        <ele>145</ele>
        <time>2022-04-15T14:04:33Z</time>
      </trkpt>
      <trkpt lat="43.48841" lon="6.22768">
        <ele>145</ele>
        <time>2022-04-15T14:04:34Z</time>
      </trkpt>
      <trkpt lat="43.48841" lon="6.22769">
        <ele>145</ele>
        <time>2022-04-15T14:04:35Z</time>
      </trkpt>
      <trkpt lat="43.4884" lon="6.22771">
        <ele>145</ele>
        <time>2022-04-15T14:04:36Z</time>
      </trkpt>
      <trkpt lat="43.4884" lon="6.22772">
        <ele>145</ele>
        <time>2022-04-15T14:04:37Z</time>
      </trkpt>
      <trkpt lat="43.48839" lon="6.22773">
        <ele>145</ele>
        <time>2022-04-15T14:04:38Z</time>
      </trkpt>
      <trkpt lat="43.48839" lon="6.22775">
        <ele>145</ele>
        <time>2022-04-15T14:04:39Z</time>
      </trkpt>
      <trkpt lat="43.48838" lon="6.22777">
        <ele>145</ele>
        <time>2022-04-15T14:04:40Z</time>
      </trkpt>
      <trkpt lat="43.48837" lon="6.22778">
        <ele>146</ele>
        <time>2022-04-15T14:04:41Z</time>
      </trkpt>
      <trkpt lat="43.48837" lon="6.2278">
        <ele>146</ele>
        <time>2022-04-15T14:04:42Z</time>
      </trkpt>
      <trkpt lat="43.48837" lon="6.22781">
        <ele>146</ele>
        <time>2022-04-15T14:04:43Z</time>
      </trkpt>
      <trkpt lat="43.48837" lon="6.22783">
        <ele>146</ele>
        <time>2022-04-15T14:04:44Z</time>
      </trkpt>
      <trkpt lat="43.48837" lon="6.22784">
        <ele>146</ele>
        <time>2022-04-15T14:04:45Z</time>
      </trkpt>
      <trkpt lat="43.48837" lon="6.22786">
        <ele>146</ele>
        <time>2022-04-15T14:04:46Z</time>
      </trkpt>
      <trkpt lat="43.48837" lon="6.22787">
        <ele>146</ele>
        <time>2022-04-15T14:04:47Z</time>
      </trkpt>
      <trkpt lat="43.48837" lon="6.22789">
        <ele>146</ele>
        <time>2022-04-15T14:04:48Z</time>
      </trkpt>
      <trkpt lat="43.48837" lon="6.2279">
        <ele>146</ele>
        <time>2022-04-15T14:04:49Z</time>
      </trkpt>
      <trkpt lat="43.48836" lon="6.22791">
        <ele>146</ele>
        <time>2022-04-15T14:04:50Z</time>
      </trkpt>
      <trkpt lat="43.48836" lon="6.22793">
        <ele>146</ele>
        <time>2022-04-15T14:04:51Z</time>
      </trkpt>
      <trkpt lat="43.48836" lon="6.22794">
        <ele>146</ele>
        <time>2022-04-15T14:04:52Z</time>
      </trkpt>
      <trkpt lat="43.48836" lon="6.22795">
        <ele>147</ele>
        <time>2022-04-15T14:04:53Z</time>
      </trkpt>
      <trkpt lat="43.48836" lon="6.22796">
        <ele>147</ele>
        <time>2022-04-15T14:04:54Z</time>
      </trkpt>
      <trkpt lat="43.48835" lon="6.22798">
        <ele>147</ele>
        <time>2022-04-15T14:04:55Z</time>
      </trkpt>
      <trkpt lat="43.48835" lon="6.22799">
        <ele>147</ele>
        <time>2022-04-15T14:04:56Z</time>
      </trkpt>
      <trkpt lat="43.48835" lon="6.228">
        <ele>147</ele>
        <time>2022-04-15T14:04:57Z</time>
      </trkpt>
      <trkpt lat="43.48835" lon="6.22801">
        <ele>147</ele>
        <time>2022-04-15T14:04:58Z</time>
      </trkpt>
      <trkpt lat="43.48834" lon="6.22802">
        <ele>147</ele>
        <time>2022-04-15T14:04:59Z</time>
      </trkpt>
      <trkpt lat="43.48834" lon="6.22803">
        <ele>147</ele>
        <time>2022-04-15T14:05:00Z</time>
      </trkpt>
      <trkpt lat="43.48834" lon="6.22804">
        <ele>147</ele>
        <time>2022-04-15T14:05:01Z</time>
      </trkpt>
      <trkpt lat="43.48833" lon="6.22806">
        <ele>148</ele>
        <time>2022-04-15T14:05:02Z</time>
      </trkpt>
      <trkpt lat="43.48833" lon="6.22808">
        <ele>148</ele>
        <time>2022-04-15T14:05:03Z</time>
      </trkpt>
      <trkpt lat="43.48832" lon="6.22809">
        <ele>148</ele>
        <time>2022-04-15T14:05:04Z</time>
      </trkpt>
      <trkpt lat="43.48832" lon="6.22811">
        <ele>148</ele>
        <time>2022-04-15T14:05:05Z</time>
      </trkpt>
      <trkpt lat="43.48831" lon="6.22812">
        <ele>148</ele>
        <time>2022-04-15T14:05:06Z</time>
      </trkpt>
      <trkpt lat="43.48831" lon="6.22813">
        <ele>149</ele>
        <time>2022-04-15T14:05:07Z</time>
      </trkpt>
      <trkpt lat="43.48831" lon="6.22815">
        <ele>149</ele>
        <time>2022-04-15T14:05:08Z</time>
      </trkpt>
      <trkpt lat="43.4883" lon="6.22816">
        <ele>149</ele>
        <time>2022-04-15T14:05:09Z</time>
      </trkpt>
      <trkpt lat="43.48829" lon="6.22817">
        <ele>149</ele>
        <time>2022-04-15T14:05:10Z</time>
      </trkpt>
      <trkpt lat="43.48829" lon="6.22819">
        <ele>149</ele>
        <time>2022-04-15T14:05:11Z</time>
      </trkpt>
      <trkpt lat="43.48829" lon="6.2282">
        <ele>151</ele>
        <time>2022-04-15T14:05:12Z</time>
      </trkpt>
      <trkpt lat="43.48828" lon="6.22821">
        <ele>152</ele>
        <time>2022-04-15T14:05:13Z</time>
      </trkpt>
      <trkpt lat="43.48827" lon="6.22822">
        <ele>153</ele>
        <time>2022-04-15T14:05:14Z</time>
      </trkpt>
      <trkpt lat="43.48827" lon="6.22823">
        <ele>153</ele>
        <time>2022-04-15T14:05:15Z</time>
      </trkpt>
      <trkpt lat="43.48826" lon="6.22825">
        <ele>153</ele>
        <time>2022-04-15T14:05:16Z</time>
      </trkpt>
      <trkpt lat="43.48825" lon="6.22826">
        <ele>153</ele>
        <time>2022-04-15T14:05:17Z</time>
      </trkpt>
      <trkpt lat="43.48825" lon="6.22828">
        <ele>153</ele>
        <time>2022-04-15T14:05:18Z</time>
      </trkpt>
      <trkpt lat="43.48824" lon="6.22829">
        <ele>153</ele>
        <time>2022-04-15T14:05:19Z</time>
      </trkpt>
      <trkpt lat="43.48823" lon="6.2283">
        <ele>153</ele>
        <time>2022-04-15T14:05:20Z</time>
      </trkpt>
      <trkpt lat="43.48823" lon="6.22831">
        <ele>153</ele>
        <time>2022-04-15T14:05:21Z</time>
      </trkpt>
      <trkpt lat="43.48822" lon="6.22832">
        <ele>153</ele>
        <time>2022-04-15T14:05:22Z</time>
      </trkpt>
      <trkpt lat="43.48821" lon="6.22833">
        <ele>153</ele>
        <time>2022-04-15T14:05:23Z</time>
      </trkpt>
      <trkpt lat="43.4882" lon="6.22835">
        <ele>153</ele>
        <time>2022-04-15T14:05:24Z</time>
      </trkpt>
      <trkpt lat="43.4882" lon="6.22836">
        <ele>153</ele>
        <time>2022-04-15T14:05:25Z</time>
      </trkpt>
      <trkpt lat="43.48819" lon="6.22837">
        <ele>153</ele>
        <time>2022-04-15T14:05:26Z</time>
      </trkpt>
      <trkpt lat="43.48819" lon="6.22838">
        <ele>153</ele>
        <time>2022-04-15T14:05:27Z</time>
      </trkpt>
      <trkpt lat="43.48818" lon="6.22839">
        <ele>153</ele>
        <time>2022-04-15T14:05:28Z</time>
      </trkpt>
      <trkpt lat="43.48818" lon="6.2284">
        <ele>153</ele>
        <time>2022-04-15T14:05:29Z</time>
      </trkpt>
      <trkpt lat="43.48817" lon="6.22841">
        <ele>153</ele>
        <time>2022-04-15T14:05:30Z</time>
      </trkpt>
      <trkpt lat="43.48817" lon="6.22842">
        <ele>153</ele>
        <time>2022-04-15T14:05:31Z</time>
      </trkpt>
      <trkpt lat="43.48816" lon="6.22844">
        <ele>153</ele>
        <time>2022-04-15T14:05:32Z</time>
      </trkpt>
      <trkpt lat="43.48816" lon="6.22845">
        <ele>153</ele>
        <time>2022-04-15T14:05:33Z</time>
      </trkpt>
      <trkpt lat="43.48816" lon="6.22845">
        <ele>153</ele>
        <time>2022-04-15T14:05:34Z</time>
      </trkpt>
      <trkpt lat="43.48816" lon="6.22847">
        <ele>153</ele>
        <time>2022-04-15T14:05:35Z</time>
      </trkpt>
      <trkpt lat="43.48815" lon="6.22848">
        <ele>153</ele>
        <time>2022-04-15T14:05:36Z</time>
      </trkpt>
      <trkpt lat="43.48815" lon="6.22849">
        <ele>153</ele>
        <time>2022-04-15T14:05:37Z</time>
      </trkpt>
      <trkpt lat="43.48815" lon="6.2285">
        <ele>153</ele>
        <time>2022-04-15T14:05:38Z</time>
      </trkpt>
      <trkpt lat="43.48814" lon="6.22851">
        <ele>153</ele>
        <time>2022-04-15T14:05:39Z</time>
      </trkpt>
      <trkpt lat="43.48814" lon="6.22852">
        <ele>153</ele>
        <time>2022-04-15T14:05:40Z</time>
      </trkpt>
      <trkpt lat="43.48814" lon="6.22854">
        <ele>152</ele>
        <time>2022-04-15T14:05:41Z</time>
      </trkpt>
      <trkpt lat="43.48813" lon="6.22855">
        <ele>152</ele>
        <time>2022-04-15T14:05:42Z</time>
      </trkpt>
      <trkpt lat="43.48812" lon="6.22856">
        <ele>152</ele>
        <time>2022-04-15T14:05:43Z</time>
      </trkpt>
      <trkpt lat="43.48811" lon="6.22856">
        <ele>152</ele>
        <time>2022-04-15T14:05:44Z</time>
      </trkpt>
      <trkpt lat="43.48811" lon="6.22857">
        <ele>153</ele>
        <time>2022-04-15T14:05:45Z</time>
      </trkpt>
      <trkpt lat="43.4881" lon="6.22858">
        <ele>153</ele>
        <time>2022-04-15T14:05:46Z</time>
      </trkpt>
      <trkpt lat="43.48809" lon="6.22859">
        <ele>153</ele>
        <time>2022-04-15T14:05:47Z</time>
      </trkpt>
      <trkpt lat="43.48809" lon="6.2286">
        <ele>153</ele>
        <time>2022-04-15T14:05:48Z</time>
      </trkpt>
      <trkpt lat="43.48808" lon="6.22861">
        <ele>153</ele>
        <time>2022-04-15T14:05:49Z</time>
      </trkpt>
      <trkpt lat="43.48807" lon="6.22862">
        <ele>153</ele>
        <time>2022-04-15T14:05:50Z</time>
      </trkpt>
      <trkpt lat="43.48807" lon="6.22864">
        <ele>153</ele>
        <time>2022-04-15T14:05:51Z</time>
      </trkpt>
      <trkpt lat="43.48806" lon="6.22865">
        <ele>153</ele>
        <time>2022-04-15T14:05:52Z</time>
      </trkpt>
      <trkpt lat="43.48805" lon="6.22866">
        <ele>153</ele>
        <time>2022-04-15T14:05:53Z</time>
      </trkpt>
      <trkpt lat="43.48805" lon="6.22867">
        <ele>153</ele>
        <time>2022-04-15T14:05:54Z</time>
      </trkpt>
      <trkpt lat="43.48804" lon="6.22869">
        <ele>154</ele>
        <time>2022-04-15T14:05:55Z</time>
      </trkpt>
      <trkpt lat="43.48804" lon="6.2287">
        <ele>155</ele>
        <time>2022-04-15T14:05:56Z</time>
      </trkpt>
      <trkpt lat="43.48803" lon="6.22871">
        <ele>155</ele>
        <time>2022-04-15T14:05:57Z</time>
      </trkpt>
      <trkpt lat="43.48803" lon="6.22873">
        <ele>155</ele>
        <time>2022-04-15T14:05:58Z</time>
      </trkpt>
      <trkpt lat="43.48803" lon="6.22874">
        <ele>155</ele>
        <time>2022-04-15T14:05:59Z</time>
      </trkpt>
      <trkpt lat="43.48803" lon="6.22875">
        <ele>155</ele>
        <time>2022-04-15T14:06:00Z</time>
      </trkpt>
      <trkpt lat="43.48802" lon="6.22877">
        <ele>155</ele>
        <time>2022-04-15T14:06:01Z</time>
      </trkpt>
      <trkpt lat="43.48802" lon="6.22879">
        <ele>155</ele>
        <time>2022-04-15T14:06:02Z</time>
      </trkpt>
      <trkpt lat="43.48801" lon="6.2288">
        <ele>155</ele>
        <time>2022-04-15T14:06:03Z</time>
      </trkpt>
      <trkpt lat="43.48801" lon="6.22882">
        <ele>155</ele>
        <time>2022-04-15T14:06:04Z</time>
      </trkpt>
      <trkpt lat="43.488" lon="6.22883">
        <ele>154</ele>
        <time>2022-04-15T14:06:05Z</time>
      </trkpt>
      <trkpt lat="43.488" lon="6.22885">
        <ele>153</ele>
        <time>2022-04-15T14:06:06Z</time>
      </trkpt>
      <trkpt lat="43.488" lon="6.22886">
        <ele>153</ele>
        <time>2022-04-15T14:06:07Z</time>
      </trkpt>
      <trkpt lat="43.48799" lon="6.22887">
        <ele>153</ele>
        <time>2022-04-15T14:06:08Z</time>
      </trkpt>
      <trkpt lat="43.48799" lon="6.22888">
        <ele>153</ele>
        <time>2022-04-15T14:06:09Z</time>
      </trkpt>
      <trkpt lat="43.48799" lon="6.22889">
        <ele>153</ele>
        <time>2022-04-15T14:06:10Z</time>
      </trkpt>
      <trkpt lat="43.48799" lon="6.2289">
        <ele>153</ele>
        <time>2022-04-15T14:06:11Z</time>
      </trkpt>
      <trkpt lat="43.48798" lon="6.22891">
        <ele>153</ele>
        <time>2022-04-15T14:06:12Z</time>
      </trkpt>
      <trkpt lat="43.48798" lon="6.22893">
        <ele>153</ele>
        <time>2022-04-15T14:06:13Z</time>
      </trkpt>
      <trkpt lat="43.48797" lon="6.22894">
        <ele>153</ele>
        <time>2022-04-15T14:06:14Z</time>
      </trkpt>
      <trkpt lat="43.48797" lon="6.22895">
        <ele>153</ele>
        <time>2022-04-15T14:06:15Z</time>
      </trkpt>
      <trkpt lat="43.48796" lon="6.22896">
        <ele>153</ele>
        <time>2022-04-15T14:06:16Z</time>
      </trkpt>
      <trkpt lat="43.48796" lon="6.22897">
        <ele>153</ele>
        <time>2022-04-15T14:06:17Z</time>
      </trkpt>
      <trkpt lat="43.48796" lon="6.22898">
        <ele>153</ele>
        <time>2022-04-15T14:06:18Z</time>
      </trkpt>
      <trkpt lat="43.48795" lon="6.22899">
        <ele>153</ele>
        <time>2022-04-15T14:06:19Z</time>
      </trkpt>
      <trkpt lat="43.48795" lon="6.229">
        <ele>153</ele>
        <time>2022-04-15T14:06:20Z</time>
      </trkpt>
      <trkpt lat="43.48795" lon="6.22902">
        <ele>153</ele>
        <time>2022-04-15T14:06:21Z</time>
      </trkpt>
      <trkpt lat="43.48795" lon="6.22903">
        <ele>153</ele>
        <time>2022-04-15T14:06:22Z</time>
      </trkpt>
      <trkpt lat="43.48794" lon="6.22904">
        <ele>152</ele>
        <time>2022-04-15T14:06:23Z</time>
      </trkpt>
      <trkpt lat="43.48794" lon="6.22905">
        <ele>151</ele>
        <time>2022-04-15T14:06:24Z</time>
      </trkpt>
      <trkpt lat="43.48793" lon="6.22906">
        <ele>151</ele>
        <time>2022-04-15T14:06:25Z</time>
      </trkpt>
      <trkpt lat="43.48792" lon="6.22906">
        <ele>150</ele>
        <time>2022-04-15T14:06:26Z</time>
      </trkpt>
      <trkpt lat="43.48792" lon="6.22906">
        <ele>150</ele>
        <time>2022-04-15T14:06:27Z</time>
      </trkpt>
      <trkpt lat="43.48791" lon="6.22907">
        <ele>150</ele>
        <time>2022-04-15T14:06:28Z</time>
      </trkpt>
      <trkpt lat="43.48791" lon="6.22908">
        <ele>150</ele>
        <time>2022-04-15T14:06:29Z</time>
      </trkpt>
      <trkpt lat="43.4879" lon="6.22909">
        <ele>150</ele>
        <time>2022-04-15T14:06:30Z</time>
      </trkpt>
      <trkpt lat="43.4879" lon="6.2291">
        <ele>150</ele>
        <time>2022-04-15T14:06:31Z</time>
      </trkpt>
      <trkpt lat="43.48789" lon="6.22912">
        <ele>150</ele>
        <time>2022-04-15T14:06:32Z</time>
      </trkpt>
      <trkpt lat="43.48789" lon="6.22913">
        <ele>149</ele>
        <time>2022-04-15T14:06:33Z</time>
      </trkpt>
      <trkpt lat="43.48788" lon="6.22914">
        <ele>149</ele>
        <time>2022-04-15T14:06:34Z</time>
      </trkpt>
      <trkpt lat="43.48788" lon="6.22915">
        <ele>149</ele>
        <time>2022-04-15T14:06:35Z</time>
      </trkpt>
      <trkpt lat="43.48787" lon="6.22916">
        <ele>149</ele>
        <time>2022-04-15T14:06:36Z</time>
      </trkpt>
      <trkpt lat="43.48787" lon="6.22918">
        <ele>149</ele>
        <time>2022-04-15T14:06:37Z</time>
      </trkpt>
      <trkpt lat="43.48786" lon="6.22919">
        <ele>149</ele>
        <time>2022-04-15T14:06:38Z</time>
      </trkpt>
      <trkpt lat="43.48786" lon="6.22921">
        <ele>149</ele>
        <time>2022-04-15T14:06:39Z</time>
      </trkpt>
      <trkpt lat="43.48785" lon="6.22922">
        <ele>148</ele>
        <time>2022-04-15T14:06:40Z</time>
      </trkpt>
      <trkpt lat="43.48785" lon="6.22923">
        <ele>148</ele>
        <time>2022-04-15T14:06:41Z</time>
      </trkpt>
      <trkpt lat="43.48784" lon="6.22925">
        <ele>148</ele>
        <time>2022-04-15T14:06:42Z</time>
      </trkpt>
      <trkpt lat="43.48784" lon="6.22926">
        <ele>147</ele>
        <time>2022-04-15T14:06:43Z</time>
      </trkpt>
      <trkpt lat="43.48783" lon="6.22928">
        <ele>147</ele>
        <time>2022-04-15T14:06:44Z</time>
      </trkpt>
      <trkpt lat="43.48783" lon="6.22929">
        <ele>147</ele>
        <time>2022-04-15T14:06:45Z</time>
      </trkpt>
      <trkpt lat="43.48782" lon="6.22931">
        <ele>147</ele>
        <time>2022-04-15T14:06:46Z</time>
      </trkpt>
      <trkpt lat="43.48782" lon="6.22932">
        <ele>147</ele>
        <time>2022-04-15T14:06:47Z</time>
      </trkpt>
      <trkpt lat="43.48781" lon="6.22934">
        <ele>147</ele>
        <time>2022-04-15T14:06:48Z</time>
      </trkpt>
      <trkpt lat="43.4878" lon="6.22935">
        <ele>147</ele>
        <time>2022-04-15T14:06:49Z</time>
      </trkpt>
      <trkpt lat="43.4878" lon="6.22936">
        <ele>147</ele>
        <time>2022-04-15T14:06:50Z</time>
      </trkpt>
      <trkpt lat="43.48779" lon="6.22937">
        <ele>147</ele>
        <time>2022-04-15T14:06:51Z</time>
      </trkpt>
      <trkpt lat="43.48779" lon="6.22939">
        <ele>147</ele>
        <time>2022-04-15T14:06:52Z</time>
      </trkpt>
      <trkpt lat="43.48778" lon="6.2294">
        <ele>147</ele>
        <time>2022-04-15T14:06:53Z</time>
      </trkpt>
      <trkpt lat="43.48778" lon="6.22941">
        <ele>147</ele>
        <time>2022-04-15T14:06:54Z</time>
      </trkpt>
      <trkpt lat="43.48777" lon="6.22942">
        <ele>148</ele>
        <time>2022-04-15T14:06:55Z</time>
      </trkpt>
      <trkpt lat="43.48777" lon="6.22943">
        <ele>148</ele>
        <time>2022-04-15T14:06:56Z</time>
      </trkpt>
      <trkpt lat="43.48776" lon="6.22944">
        <ele>148</ele>
        <time>2022-04-15T14:06:57Z</time>
      </trkpt>
      <trkpt lat="43.48776" lon="6.22945">
        <ele>148</ele>
        <time>2022-04-15T14:06:58Z</time>
      </trkpt>
      <trkpt lat="43.48776" lon="6.22946">
        <ele>148</ele>
        <time>2022-04-15T14:06:59Z</time>
      </trkpt>
      <trkpt lat="43.48775" lon="6.22947">
        <ele>149</ele>
        <time>2022-04-15T14:07:00Z</time>
      </trkpt>
      <trkpt lat="43.48775" lon="6.22948">
        <ele>149</ele>
        <time>2022-04-15T14:07:01Z</time>
      </trkpt>
      <trkpt lat="43.48775" lon="6.22949">
        <ele>149</ele>
        <time>2022-04-15T14:07:02Z</time>
      </trkpt>
      <trkpt lat="43.48774" lon="6.2295">
        <ele>150</ele>
        <time>2022-04-15T14:07:03Z</time>
      </trkpt>
      <trkpt lat="43.48774" lon="6.22951">
        <ele>150</ele>
        <time>2022-04-15T14:07:04Z</time>
      </trkpt>
      <trkpt lat="43.48774" lon="6.22951">
        <ele>150</ele>
        <time>2022-04-15T14:07:05Z</time>
      </trkpt>
      <trkpt lat="43.48774" lon="6.22952">
        <ele>150</ele>
        <time>2022-04-15T14:07:06Z</time>
      </trkpt>
      <trkpt lat="43.48774" lon="6.22952">
        <ele>150</ele>
        <time>2022-04-15T14:07:07Z</time>
      </trkpt>
      <trkpt lat="43.48773" lon="6.22952">
        <ele>150</ele>
        <time>2022-04-15T14:07:08Z</time>
      </trkpt>
      <trkpt lat="43.48773" lon="6.22952">
        <ele>150</ele>
        <time>2022-04-15T14:07:09Z</time>
      </trkpt>
      <trkpt lat="43.48773" lon="6.22952">
        <ele>150</ele>
        <time>2022-04-15T14:07:10Z</time>
      </trkpt>
      <trkpt lat="43.48774" lon="6.22953">
        <ele>150</ele>
        <time>2022-04-15T14:07:11Z</time>
      </trkpt>
      <trkpt lat="43.48774" lon="6.22953">
        <ele>150</ele>
        <time>2022-04-15T14:07:12Z</time>
      </trkpt>
      <trkpt lat="43.48773" lon="6.22953">
        <ele>150</ele>
        <time>2022-04-15T14:07:13Z</time>
      </trkpt>
      <trkpt lat="43.48772" lon="6.22952">
        <ele>150</ele>
        <time>2022-04-15T14:07:14Z</time>
      </trkpt>
      <trkpt lat="43.48771" lon="6.22951">
        <ele>150</ele>
        <time>2022-04-15T14:07:15Z</time>
      </trkpt>
      <trkpt lat="43.4877" lon="6.22951">
        <ele>150</ele>
        <time>2022-04-15T14:07:16Z</time>
      </trkpt>
      <trkpt lat="43.48769" lon="6.22951">
        <ele>150</ele>
        <time>2022-04-15T14:07:17Z</time>
      </trkpt>
      <trkpt lat="43.48769" lon="6.2295">
        <ele>150</ele>
        <time>2022-04-15T14:07:18Z</time>
      </trkpt>
      <trkpt lat="43.4877" lon="6.2295">
        <ele>151</ele>
        <time>2022-04-15T14:07:19Z</time>
      </trkpt>
      <trkpt lat="43.4877" lon="6.22949">
        <ele>151</ele>
        <time>2022-04-15T14:07:20Z</time>
      </trkpt>
      <trkpt lat="43.4877" lon="6.22949">
        <ele>151</ele>
        <time>2022-04-15T14:07:21Z</time>
      </trkpt>
      <trkpt lat="43.48771" lon="6.22949">
        <ele>151</ele>
        <time>2022-04-15T14:07:22Z</time>
      </trkpt>
      <trkpt lat="43.48771" lon="6.22948">
        <ele>151</ele>
        <time>2022-04-15T14:07:23Z</time>
      </trkpt>
      <trkpt lat="43.48771" lon="6.22948">
        <ele>151</ele>
        <time>2022-04-15T14:07:24Z</time>
      </trkpt>
      <trkpt lat="43.48771" lon="6.22948">
        <ele>151</ele>
        <time>2022-04-15T14:07:25Z</time>
      </trkpt>
      <trkpt lat="43.48772" lon="6.22948">
        <ele>151</ele>
        <time>2022-04-15T14:07:26Z</time>
      </trkpt>
      <trkpt lat="43.48772" lon="6.22948">
        <ele>151</ele>
        <time>2022-04-15T14:07:27Z</time>
      </trkpt>
      <trkpt lat="43.48772" lon="6.22948">
        <ele>151</ele>
        <time>2022-04-15T14:07:28Z</time>
      </trkpt>
      <trkpt lat="43.48772" lon="6.22948">
        <ele>151</ele>
        <time>2022-04-15T14:07:29Z</time>
      </trkpt>
      <trkpt lat="43.48773" lon="6.22948">
        <ele>151</ele>
        <time>2022-04-15T14:07:30Z</time>
      </trkpt>
      <trkpt lat="43.48773" lon="6.22948">
        <ele>151</ele>
        <time>2022-04-15T14:07:31Z</time>
      </trkpt>
      <trkpt lat="43.48773" lon="6.22948">
        <ele>151</ele>
        <time>2022-04-15T14:07:32Z</time>
      </trkpt>
      <trkpt lat="43.48773" lon="6.22948">
        <ele>151</ele>
        <time>2022-04-15T14:07:33Z</time>
      </trkpt>
      <trkpt lat="43.48773" lon="6.22948">
        <ele>151</ele>
        <time>2022-04-15T14:07:34Z</time>
      </trkpt>
      <trkpt lat="43.48773" lon="6.22948">
        <ele>151</ele>
        <time>2022-04-15T14:07:35Z</time>
      </trkpt>
      <trkpt lat="43.48773" lon="6.22948">
        <ele>151</ele>
        <time>2022-04-15T14:07:36Z</time>
      </trkpt>
      <trkpt lat="43.48774" lon="6.22948">
        <ele>151</ele>
        <time>2022-04-15T14:07:37Z</time>
      </trkpt>
      <trkpt lat="43.48774" lon="6.22948">
        <ele>151</ele>
        <time>2022-04-15T14:07:38Z</time>
      </trkpt>
      <trkpt lat="43.48774" lon="6.22948">
        <ele>151</ele>
        <time>2022-04-15T14:07:39Z</time>
      </trkpt>
      <trkpt lat="43.48774" lon="6.22948">
        <ele>151</ele>
        <time>2022-04-15T14:07:40Z</time>
      </trkpt>
      <trkpt lat="43.48774" lon="6.22948">
        <ele>152</ele>
        <time>2022-04-15T14:07:41Z</time>
      </trkpt>
      <trkpt lat="43.48774" lon="6.22948">
        <ele>152</ele>
        <time>2022-04-15T14:07:42Z</time>
      </trkpt>
      <trkpt lat="43.48774" lon="6.22948">
        <ele>152</ele>
        <time>2022-04-15T14:07:43Z</time>
      </trkpt>
      <trkpt lat="43.48774" lon="6.22948">
        <ele>152</ele>
        <time>2022-04-15T14:07:44Z</time>
      </trkpt>
      <trkpt lat="43.48774" lon="6.22948">
        <ele>152</ele>
        <time>2022-04-15T14:07:45Z</time>
      </trkpt>
      <trkpt lat="43.48774" lon="6.22948">
        <ele>152</ele>
        <time>2022-04-15T14:07:46Z</time>
      </trkpt>
      <trkpt lat="43.48774" lon="6.22948">
        <ele>152</ele>
        <time>2022-04-15T14:07:47Z</time>
      </trkpt>
      <trkpt lat="43.48774" lon="6.22948">
        <ele>152</ele>
        <time>2022-04-15T14:07:48Z</time>
      </trkpt>
      <trkpt lat="43.48774" lon="6.22948">
        <ele>152</ele>
        <time>2022-04-15T14:07:49Z</time>
      </trkpt>
      <trkpt lat="43.48774" lon="6.22948">
        <ele>152</ele>
        <time>2022-04-15T14:07:50Z</time>
      </trkpt>
      <trkpt lat="43.48774" lon="6.22948">
        <ele>152</ele>
        <time>2022-04-15T14:07:51Z</time>
      </trkpt>
      <trkpt lat="43.48774" lon="6.22948">
        <ele>152</ele>
        <time>2022-04-15T14:07:52Z</time>
      </trkpt>
      <trkpt lat="43.48775" lon="6.22949">
        <ele>152</ele>
        <time>2022-04-15T14:07:53Z</time>
      </trkpt>
      <trkpt lat="43.48775" lon="6.22949">
        <ele>152</ele>
        <time>2022-04-15T14:07:54Z</time>
      </trkpt>
      <trkpt lat="43.48775" lon="6.2295">
        <ele>152</ele>
        <time>2022-04-15T14:07:55Z</time>
      </trkpt>
      <trkpt lat="43.48774" lon="6.2295">
        <ele>152</ele>
        <time>2022-04-15T14:07:56Z</time>
      </trkpt>
      <trkpt lat="43.48774" lon="6.22951">
        <ele>152</ele>
        <time>2022-04-15T14:07:57Z</time>
      </trkpt>
      <trkpt lat="43.48774" lon="6.22952">
        <ele>152</ele>
        <time>2022-04-15T14:07:58Z</time>
      </trkpt>
      <trkpt lat="43.48774" lon="6.22953">
        <ele>152</ele>
        <time>2022-04-15T14:07:59Z</time>
      </trkpt>
      <trkpt lat="43.48773" lon="6.22954">
        <ele>152</ele>
        <time>2022-04-15T14:08:00Z</time>
      </trkpt>
      <trkpt lat="43.48772" lon="6.22956">
        <ele>152</ele>
        <time>2022-04-15T14:08:01Z</time>
      </trkpt>
      <trkpt lat="43.48771" lon="6.22958">
        <ele>152</ele>
        <time>2022-04-15T14:08:02Z</time>
      </trkpt>
      <trkpt lat="43.4877" lon="6.2296">
        <ele>152</ele>
        <time>2022-04-15T14:08:03Z</time>
      </trkpt>
      <trkpt lat="43.48769" lon="6.22961">
        <ele>153</ele>
        <time>2022-04-15T14:08:04Z</time>
      </trkpt>
      <trkpt lat="43.48769" lon="6.22962">
        <ele>153</ele>
        <time>2022-04-15T14:08:05Z</time>
      </trkpt>
      <trkpt lat="43.48768" lon="6.22963">
        <ele>153</ele>
        <time>2022-04-15T14:08:06Z</time>
      </trkpt>
      <trkpt lat="43.48768" lon="6.22964">
        <ele>153</ele>
        <time>2022-04-15T14:08:07Z</time>
      </trkpt>
      <trkpt lat="43.48768" lon="6.22964">
        <ele>153</ele>
        <time>2022-04-15T14:08:08Z</time>
      </trkpt>
      <trkpt lat="43.48768" lon="6.22964">
        <ele>153</ele>
        <time>2022-04-15T14:08:09Z</time>
      </trkpt>
      <trkpt lat="43.48768" lon="6.22965">
        <ele>153</ele>
        <time>2022-04-15T14:08:10Z</time>
      </trkpt>
      <trkpt lat="43.48767" lon="6.22966">
        <ele>153</ele>
        <time>2022-04-15T14:08:11Z</time>
      </trkpt>
      <trkpt lat="43.48767" lon="6.22967">
        <ele>153</ele>
        <time>2022-04-15T14:08:12Z</time>
      </trkpt>
      <trkpt lat="43.48766" lon="6.22968">
        <ele>153</ele>
        <time>2022-04-15T14:08:13Z</time>
      </trkpt>
      <trkpt lat="43.48765" lon="6.22971">
        <ele>153</ele>
        <time>2022-04-15T14:08:14Z</time>
      </trkpt>
      <trkpt lat="43.48765" lon="6.22974">
        <ele>153</ele>
        <time>2022-04-15T14:08:15Z</time>
      </trkpt>
      <trkpt lat="43.48764" lon="6.22977">
        <ele>153</ele>
        <time>2022-04-15T14:08:16Z</time>
      </trkpt>
      <trkpt lat="43.48764" lon="6.22979">
        <ele>153</ele>
        <time>2022-04-15T14:08:17Z</time>
      </trkpt>
      <trkpt lat="43.48764" lon="6.2298">
        <ele>153</ele>
        <time>2022-04-15T14:08:18Z</time>
      </trkpt>
      <trkpt lat="43.48764" lon="6.22981">
        <ele>153</ele>
        <time>2022-04-15T14:08:19Z</time>
      </trkpt>
      <trkpt lat="43.48764" lon="6.22982">
        <ele>153</ele>
        <time>2022-04-15T14:08:20Z</time>
      </trkpt>
      <trkpt lat="43.48764" lon="6.22984">
        <ele>153</ele>
        <time>2022-04-15T14:08:21Z</time>
      </trkpt>
      <trkpt lat="43.48764" lon="6.22986">
        <ele>153</ele>
        <time>2022-04-15T14:08:22Z</time>
      </trkpt>
      <trkpt lat="43.48763" lon="6.22989">
        <ele>153</ele>
        <time>2022-04-15T14:08:23Z</time>
      </trkpt>
      <trkpt lat="43.48763" lon="6.2299">
        <ele>153</ele>
        <time>2022-04-15T14:08:24Z</time>
      </trkpt>
      <trkpt lat="43.48763" lon="6.22991">
        <ele>154</ele>
        <time>2022-04-15T14:08:25Z</time>
      </trkpt>
      <trkpt lat="43.48763" lon="6.22992">
        <ele>154</ele>
        <time>2022-04-15T14:08:26Z</time>
      </trkpt>
      <trkpt lat="43.48763" lon="6.22993">
        <ele>154</ele>
        <time>2022-04-15T14:08:27Z</time>
      </trkpt>
      <trkpt lat="43.48763" lon="6.22993">
        <ele>154</ele>
        <time>2022-04-15T14:08:28Z</time>
      </trkpt>
      <trkpt lat="43.48763" lon="6.22994">
        <ele>154</ele>
        <time>2022-04-15T14:08:29Z</time>
      </trkpt>
      <trkpt lat="43.48763" lon="6.22994">
        <ele>154</ele>
        <time>2022-04-15T14:08:30Z</time>
      </trkpt>
      <trkpt lat="43.48762" lon="6.22995">
        <ele>154</ele>
        <time>2022-04-15T14:08:31Z</time>
      </trkpt>
      <trkpt lat="43.48762" lon="6.22995">
        <ele>154</ele>
        <time>2022-04-15T14:08:32Z</time>
      </trkpt>
      <trkpt lat="43.48762" lon="6.22996">
        <ele>154</ele>
        <time>2022-04-15T14:08:33Z</time>
      </trkpt>
      <trkpt lat="43.48761" lon="6.22999">
        <ele>154</ele>
        <time>2022-04-15T14:08:34Z</time>
      </trkpt>
      <trkpt lat="43.48761" lon="6.23001">
        <ele>154</ele>
        <time>2022-04-15T14:08:35Z</time>
      </trkpt>
      <trkpt lat="43.48761" lon="6.23003">
        <ele>154</ele>
        <time>2022-04-15T14:08:36Z</time>
      </trkpt>
      <trkpt lat="43.4876" lon="6.23005">
        <ele>154</ele>
        <time>2022-04-15T14:08:37Z</time>
      </trkpt>
      <trkpt lat="43.4876" lon="6.23006">
        <ele>154</ele>
        <time>2022-04-15T14:08:38Z</time>
      </trkpt>
      <trkpt lat="43.4876" lon="6.23008">
        <ele>154</ele>
        <time>2022-04-15T14:08:39Z</time>
      </trkpt>
      <trkpt lat="43.48759" lon="6.23009">
        <ele>154</ele>
        <time>2022-04-15T14:08:40Z</time>
      </trkpt>
      <trkpt lat="43.48759" lon="6.2301">
        <ele>153</ele>
        <time>2022-04-15T14:08:41Z</time>
      </trkpt>
      <trkpt lat="43.48759" lon="6.23011">
        <ele>153</ele>
        <time>2022-04-15T14:08:42Z</time>
      </trkpt>
      <trkpt lat="43.48759" lon="6.23012">
        <ele>153</ele>
        <time>2022-04-15T14:08:43Z</time>
      </trkpt>
      <trkpt lat="43.48758" lon="6.23013">
        <ele>153</ele>
        <time>2022-04-15T14:08:44Z</time>
      </trkpt>
      <trkpt lat="43.48758" lon="6.23014">
        <ele>153</ele>
        <time>2022-04-15T14:08:45Z</time>
      </trkpt>
      <trkpt lat="43.48758" lon="6.23016">
        <ele>153</ele>
        <time>2022-04-15T14:08:46Z</time>
      </trkpt>
      <trkpt lat="43.48757" lon="6.23018">
        <ele>153</ele>
        <time>2022-04-15T14:08:47Z</time>
      </trkpt>
      <trkpt lat="43.48756" lon="6.2302">
        <ele>153</ele>
        <time>2022-04-15T14:08:48Z</time>
      </trkpt>
      <trkpt lat="43.48756" lon="6.23022">
        <ele>153</ele>
        <time>2022-04-15T14:08:49Z</time>
      </trkpt>
      <trkpt lat="43.48756" lon="6.23024">
        <ele>153</ele>
        <time>2022-04-15T14:08:50Z</time>
      </trkpt>
      <trkpt lat="43.48756" lon="6.23025">
        <ele>153</ele>
        <time>2022-04-15T14:08:51Z</time>
      </trkpt>
      <trkpt lat="43.48755" lon="6.23026">
        <ele>153</ele>
        <time>2022-04-15T14:08:52Z</time>
      </trkpt>
      <trkpt lat="43.48755" lon="6.23027">
        <ele>152</ele>
        <time>2022-04-15T14:08:53Z</time>
      </trkpt>
      <trkpt lat="43.48755" lon="6.23027">
        <ele>152</ele>
        <time>2022-04-15T14:08:54Z</time>
      </trkpt>
      <trkpt lat="43.48755" lon="6.23028">
        <ele>152</ele>
        <time>2022-04-15T14:08:55Z</time>
      </trkpt>
      <trkpt lat="43.48755" lon="6.23029">
        <ele>152</ele>
        <time>2022-04-15T14:08:56Z</time>
      </trkpt>
      <trkpt lat="43.48755" lon="6.23031">
        <ele>152</ele>
        <time>2022-04-15T14:08:57Z</time>
      </trkpt>
      <trkpt lat="43.48755" lon="6.23033">
        <ele>152</ele>
        <time>2022-04-15T14:08:58Z</time>
      </trkpt>
      <trkpt lat="43.48755" lon="6.23034">
        <ele>152</ele>
        <time>2022-04-15T14:08:59Z</time>
      </trkpt>
      <trkpt lat="43.48755" lon="6.23036">
        <ele>151</ele>
        <time>2022-04-15T14:09:00Z</time>
      </trkpt>
      <trkpt lat="43.48755" lon="6.23038">
        <ele>151</ele>
        <time>2022-04-15T14:09:01Z</time>
      </trkpt>
      <trkpt lat="43.48755" lon="6.2304">
        <ele>151</ele>
        <time>2022-04-15T14:09:02Z</time>
      </trkpt>
      <trkpt lat="43.48755" lon="6.23042">
        <ele>151</ele>
        <time>2022-04-15T14:09:03Z</time>
      </trkpt>
      <trkpt lat="43.48755" lon="6.23043">
        <ele>151</ele>
        <time>2022-04-15T14:09:04Z</time>
      </trkpt>
      <trkpt lat="43.48755" lon="6.23045">
        <ele>151</ele>
        <time>2022-04-15T14:09:05Z</time>
      </trkpt>
      <trkpt lat="43.48755" lon="6.23046">
        <ele>151</ele>
        <time>2022-04-15T14:09:06Z</time>
      </trkpt>
      <trkpt lat="43.48755" lon="6.23047">
        <ele>151</ele>
        <time>2022-04-15T14:09:07Z</time>
      </trkpt>
      <trkpt lat="43.48755" lon="6.23048">
        <ele>151</ele>
        <time>2022-04-15T14:09:08Z</time>
      </trkpt>
      <trkpt lat="43.48755" lon="6.23049">
        <ele>151</ele>
        <time>2022-04-15T14:09:09Z</time>
      </trkpt>
      <trkpt lat="43.48755" lon="6.23051">
        <ele>151</ele>
        <time>2022-04-15T14:09:10Z</time>
      </trkpt>
      <trkpt lat="43.48755" lon="6.23052">
        <ele>150</ele>
        <time>2022-04-15T14:09:11Z</time>
      </trkpt>
      <trkpt lat="43.48755" lon="6.23053">
        <ele>150</ele>
        <time>2022-04-15T14:09:12Z</time>
      </trkpt>
      <trkpt lat="43.48755" lon="6.23054">
        <ele>150</ele>
        <time>2022-04-15T14:09:13Z</time>
      </trkpt>
      <trkpt lat="43.48755" lon="6.23055">
        <ele>150</ele>
        <time>2022-04-15T14:09:14Z</time>
      </trkpt>
      <trkpt lat="43.48755" lon="6.23056">
        <ele>150</ele>
        <time>2022-04-15T14:09:15Z</time>
      </trkpt>
      <trkpt lat="43.48755" lon="6.23057">
        <ele>150</ele>
        <time>2022-04-15T14:09:16Z</time>
      </trkpt>
      <trkpt lat="43.48755" lon="6.23058">
        <ele>150</ele>
        <time>2022-04-15T14:09:17Z</time>
      </trkpt>
      <trkpt lat="43.48755" lon="6.23059">
        <ele>150</ele>
        <time>2022-04-15T14:09:18Z</time>
      </trkpt>
      <trkpt lat="43.48755" lon="6.23061">
        <ele>150</ele>
        <time>2022-04-15T14:09:19Z</time>
      </trkpt>
      <trkpt lat="43.48755" lon="6.23062">
        <ele>149</ele>
        <time>2022-04-15T14:09:20Z</time>
      </trkpt>
      <trkpt lat="43.48754" lon="6.23063">
        <ele>148</ele>
        <time>2022-04-15T14:09:21Z</time>
      </trkpt>
      <trkpt lat="43.48754" lon="6.23065">
        <ele>148</ele>
        <time>2022-04-15T14:09:22Z</time>
      </trkpt>
      <trkpt lat="43.48754" lon="6.23066">
        <ele>148</ele>
        <time>2022-04-15T14:09:23Z</time>
      </trkpt>
      <trkpt lat="43.48754" lon="6.23068">
        <ele>148</ele>
        <time>2022-04-15T14:09:24Z</time>
      </trkpt>
      <trkpt lat="43.48754" lon="6.2307">
        <ele>147</ele>
        <time>2022-04-15T14:09:25Z</time>
      </trkpt>
      <trkpt lat="43.48754" lon="6.23071">
        <ele>147</ele>
        <time>2022-04-15T14:09:26Z</time>
      </trkpt>
      <trkpt lat="43.48754" lon="6.23072">
        <ele>147</ele>
        <time>2022-04-15T14:09:27Z</time>
      </trkpt>
      <trkpt lat="43.48754" lon="6.23073">
        <ele>147</ele>
        <time>2022-04-15T14:09:28Z</time>
      </trkpt>
      <trkpt lat="43.48753" lon="6.23075">
        <ele>147</ele>
        <time>2022-04-15T14:09:29Z</time>
      </trkpt>
      <trkpt lat="43.48753" lon="6.23076">
        <ele>147</ele>
        <time>2022-04-15T14:09:30Z</time>
      </trkpt>
      <trkpt lat="43.48753" lon="6.23078">
        <ele>147</ele>
        <time>2022-04-15T14:09:31Z</time>
      </trkpt>
      <trkpt lat="43.48753" lon="6.23079">
        <ele>147</ele>
        <time>2022-04-15T14:09:32Z</time>
      </trkpt>
      <trkpt lat="43.48753" lon="6.23081">
        <ele>147</ele>
        <time>2022-04-15T14:09:33Z</time>
      </trkpt>
      <trkpt lat="43.48752" lon="6.23082">
        <ele>146</ele>
        <time>2022-04-15T14:09:34Z</time>
      </trkpt>
      <trkpt lat="43.48752" lon="6.23084">
        <ele>146</ele>
        <time>2022-04-15T14:09:35Z</time>
      </trkpt>
      <trkpt lat="43.48751" lon="6.23086">
        <ele>146</ele>
        <time>2022-04-15T14:09:36Z</time>
      </trkpt>
      <trkpt lat="43.48751" lon="6.23087">
        <ele>146</ele>
        <time>2022-04-15T14:09:37Z</time>
      </trkpt>
      <trkpt lat="43.48751" lon="6.23088">
        <ele>146</ele>
        <time>2022-04-15T14:09:38Z</time>
      </trkpt>
      <trkpt lat="43.48751" lon="6.23089">
        <ele>145</ele>
        <time>2022-04-15T14:09:39Z</time>
      </trkpt>
      <trkpt lat="43.48751" lon="6.23091">
        <ele>145</ele>
        <time>2022-04-15T14:09:40Z</time>
      </trkpt>
      <trkpt lat="43.4875" lon="6.23092">
        <ele>145</ele>
        <time>2022-04-15T14:09:41Z</time>
      </trkpt>
      <trkpt lat="43.4875" lon="6.23093">
        <ele>145</ele>
        <time>2022-04-15T14:09:42Z</time>
      </trkpt>
      <trkpt lat="43.48749" lon="6.23094">
        <ele>145</ele>
        <time>2022-04-15T14:09:43Z</time>
      </trkpt>
      <trkpt lat="43.48749" lon="6.23095">
        <ele>145</ele>
        <time>2022-04-15T14:09:44Z</time>
      </trkpt>
      <trkpt lat="43.48748" lon="6.23095">
        <ele>145</ele>
        <time>2022-04-15T14:09:45Z</time>
      </trkpt>
      <trkpt lat="43.48748" lon="6.23095">
        <ele>145</ele>
        <time>2022-04-15T14:09:46Z</time>
      </trkpt>
      <trkpt lat="43.48747" lon="6.23095">
        <ele>145</ele>
        <time>2022-04-15T14:09:47Z</time>
      </trkpt>
      <trkpt lat="43.48747" lon="6.23096">
        <ele>145</ele>
        <time>2022-04-15T14:09:48Z</time>
      </trkpt>
      <trkpt lat="43.48747" lon="6.23097">
        <ele>145</ele>
        <time>2022-04-15T14:09:49Z</time>
      </trkpt>
      <trkpt lat="43.48748" lon="6.23098">
        <ele>145</ele>
        <time>2022-04-15T14:09:50Z</time>
      </trkpt>
      <trkpt lat="43.48748" lon="6.23099">
        <ele>145</ele>
        <time>2022-04-15T14:09:51Z</time>
      </trkpt>
      <trkpt lat="43.48748" lon="6.231">
        <ele>145</ele>
        <time>2022-04-15T14:09:52Z</time>
      </trkpt>
      <trkpt lat="43.48749" lon="6.23102">
        <ele>145</ele>
        <time>2022-04-15T14:09:53Z</time>
      </trkpt>
      <trkpt lat="43.48749" lon="6.23103">
        <ele>145</ele>
        <time>2022-04-15T14:09:54Z</time>
      </trkpt>
      <trkpt lat="43.4875" lon="6.23104">
        <ele>145</ele>
        <time>2022-04-15T14:09:55Z</time>
      </trkpt>
      <trkpt lat="43.4875" lon="6.23106">
        <ele>145</ele>
        <time>2022-04-15T14:09:56Z</time>
      </trkpt>
      <trkpt lat="43.48751" lon="6.23107">
        <ele>145</ele>
        <time>2022-04-15T14:09:57Z</time>
      </trkpt>
      <trkpt lat="43.48751" lon="6.23108">
        <ele>145</ele>
        <time>2022-04-15T14:09:58Z</time>
      </trkpt>
      <trkpt lat="43.48752" lon="6.2311">
        <ele>145</ele>
        <time>2022-04-15T14:09:59Z</time>
      </trkpt>
      <trkpt lat="43.48752" lon="6.23111">
        <ele>144</ele>
        <time>2022-04-15T14:10:00Z</time>
      </trkpt>
      <trkpt lat="43.48752" lon="6.23112">
        <ele>143</ele>
        <time>2022-04-15T14:10:01Z</time>
      </trkpt>
      <trkpt lat="43.48752" lon="6.23113">
        <ele>142</ele>
        <time>2022-04-15T14:10:02Z</time>
      </trkpt>
      <trkpt lat="43.48753" lon="6.23114">
        <ele>142</ele>
        <time>2022-04-15T14:10:03Z</time>
      </trkpt>
      <trkpt lat="43.48754" lon="6.23114">
        <ele>142</ele>
        <time>2022-04-15T14:10:04Z</time>
      </trkpt>
      <trkpt lat="43.48755" lon="6.23115">
        <ele>141</ele>
        <time>2022-04-15T14:10:05Z</time>
      </trkpt>
      <trkpt lat="43.48756" lon="6.23115">
        <ele>141</ele>
        <time>2022-04-15T14:10:06Z</time>
      </trkpt>
      <trkpt lat="43.48756" lon="6.23115">
        <ele>141</ele>
        <time>2022-04-15T14:10:07Z</time>
      </trkpt>
      <trkpt lat="43.48756" lon="6.23115">
        <ele>141</ele>
        <time>2022-04-15T14:10:08Z</time>
      </trkpt>
      <trkpt lat="43.48756" lon="6.23116">
        <ele>141</ele>
        <time>2022-04-15T14:10:09Z</time>
      </trkpt>
      <trkpt lat="43.48756" lon="6.23116">
        <ele>141</ele>
        <time>2022-04-15T14:10:10Z</time>
      </trkpt>
      <trkpt lat="43.48755" lon="6.23116">
        <ele>141</ele>
        <time>2022-04-15T14:10:11Z</time>
      </trkpt>
      <trkpt lat="43.48755" lon="6.23117">
        <ele>141</ele>
        <time>2022-04-15T14:10:12Z</time>
      </trkpt>
      <trkpt lat="43.48754" lon="6.23118">
        <ele>141</ele>
        <time>2022-04-15T14:10:13Z</time>
      </trkpt>
      <trkpt lat="43.48754" lon="6.23119">
        <ele>141</ele>
        <time>2022-04-15T14:10:14Z</time>
      </trkpt>
      <trkpt lat="43.48754" lon="6.23121">
        <ele>141</ele>
        <time>2022-04-15T14:10:15Z</time>
      </trkpt>
      <trkpt lat="43.48753" lon="6.23122">
        <ele>141</ele>
        <time>2022-04-15T14:10:16Z</time>
      </trkpt>
      <trkpt lat="43.48753" lon="6.23123">
        <ele>141</ele>
        <time>2022-04-15T14:10:17Z</time>
      </trkpt>
      <trkpt lat="43.48752" lon="6.23124">
        <ele>141</ele>
        <time>2022-04-15T14:10:18Z</time>
      </trkpt>
      <trkpt lat="43.48752" lon="6.23125">
        <ele>141</ele>
        <time>2022-04-15T14:10:19Z</time>
      </trkpt>
      <trkpt lat="43.48751" lon="6.23127">
        <ele>141</ele>
        <time>2022-04-15T14:10:20Z</time>
      </trkpt>
      <trkpt lat="43.48751" lon="6.23129">
        <ele>141</ele>
        <time>2022-04-15T14:10:21Z</time>
      </trkpt>
      <trkpt lat="43.4875" lon="6.2313">
        <ele>141</ele>
        <time>2022-04-15T14:10:22Z</time>
      </trkpt>
      <trkpt lat="43.4875" lon="6.23132">
        <ele>141</ele>
        <time>2022-04-15T14:10:23Z</time>
      </trkpt>
      <trkpt lat="43.4875" lon="6.23134">
        <ele>141</ele>
        <time>2022-04-15T14:10:24Z</time>
      </trkpt>
      <trkpt lat="43.4875" lon="6.23136">
        <ele>141</ele>
        <time>2022-04-15T14:10:25Z</time>
      </trkpt>
      <trkpt lat="43.48749" lon="6.23137">
        <ele>140</ele>
        <time>2022-04-15T14:10:26Z</time>
      </trkpt>
      <trkpt lat="43.48749" lon="6.23139">
        <ele>140</ele>
        <time>2022-04-15T14:10:27Z</time>
      </trkpt>
      <trkpt lat="43.48749" lon="6.2314">
        <ele>140</ele>
        <time>2022-04-15T14:10:28Z</time>
      </trkpt>
      <trkpt lat="43.48749" lon="6.23142">
        <ele>140</ele>
        <time>2022-04-15T14:10:29Z</time>
      </trkpt>
      <trkpt lat="43.48749" lon="6.23143">
        <ele>140</ele>
        <time>2022-04-15T14:10:30Z</time>
      </trkpt>
      <trkpt lat="43.48749" lon="6.23144">
        <ele>140</ele>
        <time>2022-04-15T14:10:31Z</time>
      </trkpt>
      <trkpt lat="43.48749" lon="6.23146">
        <ele>140</ele>
        <time>2022-04-15T14:10:32Z</time>
      </trkpt>
      <trkpt lat="43.48749" lon="6.23147">
        <ele>140</ele>
        <time>2022-04-15T14:10:33Z</time>
      </trkpt>
      <trkpt lat="43.48749" lon="6.23149">
        <ele>140</ele>
        <time>2022-04-15T14:10:34Z</time>
      </trkpt>
      <trkpt lat="43.48749" lon="6.2315">
        <ele>139</ele>
        <time>2022-04-15T14:10:35Z</time>
      </trkpt>
      <trkpt lat="43.4875" lon="6.23152">
        <ele>139</ele>
        <time>2022-04-15T14:10:36Z</time>
      </trkpt>
      <trkpt lat="43.4875" lon="6.23153">
        <ele>138</ele>
        <time>2022-04-15T14:10:37Z</time>
      </trkpt>
      <trkpt lat="43.48751" lon="6.23153">
        <ele>138</ele>
        <time>2022-04-15T14:10:38Z</time>
      </trkpt>
      <trkpt lat="43.48751" lon="6.23152">
        <ele>138</ele>
        <time>2022-04-15T14:10:39Z</time>
      </trkpt>
      <trkpt lat="43.48752" lon="6.2315">
        <ele>138</ele>
        <time>2022-04-15T14:10:40Z</time>
      </trkpt>
      <trkpt lat="43.48753" lon="6.2315">
        <ele>138</ele>
        <time>2022-04-15T14:10:41Z</time>
      </trkpt>
      <trkpt lat="43.48753" lon="6.23149">
        <ele>138</ele>
        <time>2022-04-15T14:10:42Z</time>
      </trkpt>
      <trkpt lat="43.48754" lon="6.23149">
        <ele>139</ele>
        <time>2022-04-15T14:10:43Z</time>
      </trkpt>
      <trkpt lat="43.48754" lon="6.23149">
        <ele>139</ele>
        <time>2022-04-15T14:10:44Z</time>
      </trkpt>
      <trkpt lat="43.48754" lon="6.23149">
        <ele>139</ele>
        <time>2022-04-15T14:10:45Z</time>
      </trkpt>
      <trkpt lat="43.48754" lon="6.2315">
        <ele>139</ele>
        <time>2022-04-15T14:10:46Z</time>
      </trkpt>
      <trkpt lat="43.48754" lon="6.2315">
        <ele>139</ele>
        <time>2022-04-15T14:10:47Z</time>
      </trkpt>
      <trkpt lat="43.48754" lon="6.2315">
        <ele>139</ele>
        <time>2022-04-15T14:10:48Z</time>
      </trkpt>
      <trkpt lat="43.48754" lon="6.2315">
        <ele>139</ele>
        <time>2022-04-15T14:10:49Z</time>
      </trkpt>
      <trkpt lat="43.48754" lon="6.2315">
        <ele>139</ele>
        <time>2022-04-15T14:10:50Z</time>
      </trkpt>
      <trkpt lat="43.48754" lon="6.2315">
        <ele>139</ele>
        <time>2022-04-15T14:10:51Z</time>
      </trkpt>
      <trkpt lat="43.48754" lon="6.2315">
        <ele>139</ele>
        <time>2022-04-15T14:10:52Z</time>
      </trkpt>
      <trkpt lat="43.48754" lon="6.2315">
        <ele>139</ele>
        <time>2022-04-15T14:10:53Z</time>
      </trkpt>
      <trkpt lat="43.48754" lon="6.2315">
        <ele>139</ele>
        <time>2022-04-15T14:10:54Z</time>
      </trkpt>
      <trkpt lat="43.48754" lon="6.2315">
        <ele>139</ele>
        <time>2022-04-15T14:10:55Z</time>
      </trkpt>
      <trkpt lat="43.48754" lon="6.2315">
        <ele>139</ele>
        <time>2022-04-15T14:10:56Z</time>
      </trkpt>
      <trkpt lat="43.48754" lon="6.2315">
        <ele>139</ele>
        <time>2022-04-15T14:10:57Z</time>
      </trkpt>
      <trkpt lat="43.48754" lon="6.2315">
        <ele>139</ele>
        <time>2022-04-15T14:10:58Z</time>
      </trkpt>
      <trkpt lat="43.48754" lon="6.2315">
        <ele>139</ele>
        <time>2022-04-15T14:10:59Z</time>
      </trkpt>
      <trkpt lat="43.48754" lon="6.2315">
        <ele>139</ele>
        <time>2022-04-15T14:11:00Z</time>
      </trkpt>
      <trkpt lat="43.48754" lon="6.2315">
        <ele>139</ele>
        <time>2022-04-15T14:11:01Z</time>
      </trkpt>
      <trkpt lat="43.48754" lon="6.2315">
        <ele>139</ele>
        <time>2022-04-15T14:11:02Z</time>
      </trkpt>
      <trkpt lat="43.48754" lon="6.2315">
        <ele>139</ele>
        <time>2022-04-15T14:11:03Z</time>
      </trkpt>
      <trkpt lat="43.48754" lon="6.2315">
        <ele>139</ele>
        <time>2022-04-15T14:11:04Z</time>
      </trkpt>
      <trkpt lat="43.48754" lon="6.2315">
        <ele>139</ele>
        <time>2022-04-15T14:11:05Z</time>
      </trkpt>
      <trkpt lat="43.48754" lon="6.2315">
        <ele>139</ele>
        <time>2022-04-15T14:11:06Z</time>
      </trkpt>
      <trkpt lat="43.48754" lon="6.2315">
        <ele>139</ele>
        <time>2022-04-15T14:11:07Z</time>
      </trkpt>
      <trkpt lat="43.48754" lon="6.2315">
        <ele>139</ele>
        <time>2022-04-15T14:11:08Z</time>
      </trkpt>
      <trkpt lat="43.48754" lon="6.2315">
        <ele>139</ele>
        <time>2022-04-15T14:11:09Z</time>
      </trkpt>
      <trkpt lat="43.48754" lon="6.2315">
        <ele>139</ele>
        <time>2022-04-15T14:11:10Z</time>
      </trkpt>
      <trkpt lat="43.48754" lon="6.2315">
        <ele>139</ele>
        <time>2022-04-15T14:11:11Z</time>
      </trkpt>
      <trkpt lat="43.48754" lon="6.2315">
        <ele>139</ele>
        <time>2022-04-15T14:11:12Z</time>
      </trkpt>
      <trkpt lat="43.48754" lon="6.2315">
        <ele>139</ele>
        <time>2022-04-15T14:11:13Z</time>
      </trkpt>
      <trkpt lat="43.48754" lon="6.2315">
        <ele>139</ele>
        <time>2022-04-15T14:11:14Z</time>
      </trkpt>
      <trkpt lat="43.48754" lon="6.2315">
        <ele>139</ele>
        <time>2022-04-15T14:11:15Z</time>
      </trkpt>
      <trkpt lat="43.48754" lon="6.2315">
        <ele>139</ele>
        <time>2022-04-15T14:11:16Z</time>
      </trkpt>
      <trkpt lat="43.48754" lon="6.2315">
        <ele>139</ele>
        <time>2022-04-15T14:11:17Z</time>
      </trkpt>
      <trkpt lat="43.48754" lon="6.2315">
        <ele>139</ele>
        <time>2022-04-15T14:11:18Z</time>
      </trkpt>
      <trkpt lat="43.48754" lon="6.2315">
        <ele>139</ele>
        <time>2022-04-15T14:11:19Z</time>
      </trkpt>
      <trkpt lat="43.48754" lon="6.2315">
        <ele>139</ele>
        <time>2022-04-15T14:11:20Z</time>
      </trkpt>
      <trkpt lat="43.48754" lon="6.2315">
        <ele>139</ele>
        <time>2022-04-15T14:11:21Z</time>
      </trkpt>
      <trkpt lat="43.48754" lon="6.2315">
        <ele>139</ele>
        <time>2022-04-15T14:11:22Z</time>
      </trkpt>
      <trkpt lat="43.48754" lon="6.2315">
        <ele>139</ele>
        <time>2022-04-15T14:11:23Z</time>
      </trkpt>
      <trkpt lat="43.48754" lon="6.2315">
        <ele>139</ele>
        <time>2022-04-15T14:11:24Z</time>
      </trkpt>
      <trkpt lat="43.48749" lon="6.2315">
        <ele>139</ele>
        <time>2022-04-15T14:11:25Z</time>
      </trkpt>
      <trkpt lat="43.48748" lon="6.2315">
        <ele>139</ele>
        <time>2022-04-15T14:11:26Z</time>
      </trkpt>
      <trkpt lat="43.48748" lon="6.2315">
        <ele>139</ele>
        <time>2022-04-15T14:11:27Z</time>
      </trkpt>
      <trkpt lat="43.48748" lon="6.23151">
        <ele>139</ele>
        <time>2022-04-15T14:11:28Z</time>
      </trkpt>
      <trkpt lat="43.48748" lon="6.23151">
        <ele>139</ele>
        <time>2022-04-15T14:11:29Z</time>
      </trkpt>
      <trkpt lat="43.48748" lon="6.23151">
        <ele>139</ele>
        <time>2022-04-15T14:11:30Z</time>
      </trkpt>
      <trkpt lat="43.48748" lon="6.23152">
        <ele>139</ele>
        <time>2022-04-15T14:11:31Z</time>
      </trkpt>
      <trkpt lat="43.48748" lon="6.23152">
        <ele>139</ele>
        <time>2022-04-15T14:11:32Z</time>
      </trkpt>
      <trkpt lat="43.48748" lon="6.23152">
        <ele>139</ele>
        <time>2022-04-15T14:11:33Z</time>
      </trkpt>
      <trkpt lat="43.48748" lon="6.23152">
        <ele>139</ele>
        <time>2022-04-15T14:11:34Z</time>
      </trkpt>
      <trkpt lat="43.48748" lon="6.23152">
        <ele>139</ele>
        <time>2022-04-15T14:11:35Z</time>
      </trkpt>
      <trkpt lat="43.48748" lon="6.23152">
        <ele>139</ele>
        <time>2022-04-15T14:11:36Z</time>
      </trkpt>
      <trkpt lat="43.48748" lon="6.23152">
        <ele>139</ele>
        <time>2022-04-15T14:11:37Z</time>
      </trkpt>
      <trkpt lat="43.48748" lon="6.23152">
        <ele>139</ele>
        <time>2022-04-15T14:11:38Z</time>
      </trkpt>
      <trkpt lat="43.48748" lon="6.23152">
        <ele>139</ele>
        <time>2022-04-15T14:11:39Z</time>
      </trkpt>
      <trkpt lat="43.48748" lon="6.23152">
        <ele>139</ele>
        <time>2022-04-15T14:11:40Z</time>
      </trkpt>
      <trkpt lat="43.48748" lon="6.23152">
        <ele>139</ele>
        <time>2022-04-15T14:11:41Z</time>
      </trkpt>
      <trkpt lat="43.48748" lon="6.23153">
        <ele>139</ele>
        <time>2022-04-15T14:11:42Z</time>
      </trkpt>
      <trkpt lat="43.48747" lon="6.23153">
        <ele>139</ele>
        <time>2022-04-15T14:11:43Z</time>
      </trkpt>
      <trkpt lat="43.48747" lon="6.23154">
        <ele>139</ele>
        <time>2022-04-15T14:11:44Z</time>
      </trkpt>
      <trkpt lat="43.48747" lon="6.23155">
        <ele>139</ele>
        <time>2022-04-15T14:11:45Z</time>
      </trkpt>
      <trkpt lat="43.48747" lon="6.23156">
        <ele>139</ele>
        <time>2022-04-15T14:11:46Z</time>
      </trkpt>
      <trkpt lat="43.48747" lon="6.23156">
        <ele>139</ele>
        <time>2022-04-15T14:11:47Z</time>
      </trkpt>
      <trkpt lat="43.48747" lon="6.23157">
        <ele>139</ele>
        <time>2022-04-15T14:11:48Z</time>
      </trkpt>
      <trkpt lat="43.48747" lon="6.23158">
        <ele>139</ele>
        <time>2022-04-15T14:11:49Z</time>
      </trkpt>
      <trkpt lat="43.48747" lon="6.23158">
        <ele>139</ele>
        <time>2022-04-15T14:11:50Z</time>
      </trkpt>
      <trkpt lat="43.48747" lon="6.23159">
        <ele>139</ele>
        <time>2022-04-15T14:11:51Z</time>
      </trkpt>
      <trkpt lat="43.48747" lon="6.2316">
        <ele>139</ele>
        <time>2022-04-15T14:11:52Z</time>
      </trkpt>
      <trkpt lat="43.48747" lon="6.23161">
        <ele>139</ele>
        <time>2022-04-15T14:11:53Z</time>
      </trkpt>
      <trkpt lat="43.48746" lon="6.23162">
        <ele>139</ele>
        <time>2022-04-15T14:11:54Z</time>
      </trkpt>
      <trkpt lat="43.48746" lon="6.23162">
        <ele>139</ele>
        <time>2022-04-15T14:11:55Z</time>
      </trkpt>
      <trkpt lat="43.48746" lon="6.23163">
        <ele>139</ele>
        <time>2022-04-15T14:11:56Z</time>
      </trkpt>
      <trkpt lat="43.48746" lon="6.23164">
        <ele>139</ele>
        <time>2022-04-15T14:11:57Z</time>
      </trkpt>
      <trkpt lat="43.48745" lon="6.23166">
        <ele>139</ele>
        <time>2022-04-15T14:11:58Z</time>
      </trkpt>
      <trkpt lat="43.48745" lon="6.23168">
        <ele>139</ele>
        <time>2022-04-15T14:11:59Z</time>
      </trkpt>
      <trkpt lat="43.48745" lon="6.23169">
        <ele>139</ele>
        <time>2022-04-15T14:12:00Z</time>
      </trkpt>
      <trkpt lat="43.48745" lon="6.2317">
        <ele>139</ele>
        <time>2022-04-15T14:12:01Z</time>
      </trkpt>
      <trkpt lat="43.48745" lon="6.23171">
        <ele>139</ele>
        <time>2022-04-15T14:12:02Z</time>
      </trkpt>
      <trkpt lat="43.48745" lon="6.23172">
        <ele>139</ele>
        <time>2022-04-15T14:12:03Z</time>
      </trkpt>
      <trkpt lat="43.48745" lon="6.23173">
        <ele>139</ele>
        <time>2022-04-15T14:12:04Z</time>
      </trkpt>
      <trkpt lat="43.48745" lon="6.23174">
        <ele>138</ele>
        <time>2022-04-15T14:12:05Z</time>
      </trkpt>
      <trkpt lat="43.48745" lon="6.23175">
        <ele>138</ele>
        <time>2022-04-15T14:12:06Z</time>
      </trkpt>
      <trkpt lat="43.48745" lon="6.23176">
        <ele>138</ele>
        <time>2022-04-15T14:12:07Z</time>
      </trkpt>
      <trkpt lat="43.48745" lon="6.23178">
        <ele>138</ele>
        <time>2022-04-15T14:12:08Z</time>
      </trkpt>
      <trkpt lat="43.48745" lon="6.23179">
        <ele>138</ele>
        <time>2022-04-15T14:12:09Z</time>
      </trkpt>
      <trkpt lat="43.48745" lon="6.2318">
        <ele>137</ele>
        <time>2022-04-15T14:12:10Z</time>
      </trkpt>
      <trkpt lat="43.48744" lon="6.23182">
        <ele>137</ele>
        <time>2022-04-15T14:12:11Z</time>
      </trkpt>
      <trkpt lat="43.48744" lon="6.23183">
        <ele>137</ele>
        <time>2022-04-15T14:12:12Z</time>
      </trkpt>
      <trkpt lat="43.48744" lon="6.23184">
        <ele>137</ele>
        <time>2022-04-15T14:12:13Z</time>
      </trkpt>
      <trkpt lat="43.48744" lon="6.23185">
        <ele>137</ele>
        <time>2022-04-15T14:12:14Z</time>
      </trkpt>
      <trkpt lat="43.48744" lon="6.23187">
        <ele>137</ele>
        <time>2022-04-15T14:12:15Z</time>
      </trkpt>
      <trkpt lat="43.48743" lon="6.23188">
        <ele>137</ele>
        <time>2022-04-15T14:12:16Z</time>
      </trkpt>
      <trkpt lat="43.48743" lon="6.23188">
        <ele>137</ele>
        <time>2022-04-15T14:12:17Z</time>
      </trkpt>
      <trkpt lat="43.48743" lon="6.23189">
        <ele>137</ele>
        <time>2022-04-15T14:12:18Z</time>
      </trkpt>
      <trkpt lat="43.48744" lon="6.23189">
        <ele>137</ele>
        <time>2022-04-15T14:12:19Z</time>
      </trkpt>
      <trkpt lat="43.48744" lon="6.2319">
        <ele>137</ele>
        <time>2022-04-15T14:12:20Z</time>
      </trkpt>
      <trkpt lat="43.48744" lon="6.2319">
        <ele>137</ele>
        <time>2022-04-15T14:12:21Z</time>
      </trkpt>
      <trkpt lat="43.48743" lon="6.23191">
        <ele>138</ele>
        <time>2022-04-15T14:12:22Z</time>
      </trkpt>
      <trkpt lat="43.48743" lon="6.23192">
        <ele>138</ele>
        <time>2022-04-15T14:12:23Z</time>
      </trkpt>
      <trkpt lat="43.48743" lon="6.23194">
        <ele>138</ele>
        <time>2022-04-15T14:12:24Z</time>
      </trkpt>
      <trkpt lat="43.48743" lon="6.23196">
        <ele>138</ele>
        <time>2022-04-15T14:12:25Z</time>
      </trkpt>
      <trkpt lat="43.48743" lon="6.23197">
        <ele>138</ele>
        <time>2022-04-15T14:12:26Z</time>
      </trkpt>
      <trkpt lat="43.48743" lon="6.23199">
        <ele>138</ele>
        <time>2022-04-15T14:12:27Z</time>
      </trkpt>
      <trkpt lat="43.48743" lon="6.23201">
        <ele>138</ele>
        <time>2022-04-15T14:12:28Z</time>
      </trkpt>
      <trkpt lat="43.48743" lon="6.23202">
        <ele>138</ele>
        <time>2022-04-15T14:12:29Z</time>
      </trkpt>
      <trkpt lat="43.48743" lon="6.23204">
        <ele>138</ele>
        <time>2022-04-15T14:12:30Z</time>
      </trkpt>
      <trkpt lat="43.48743" lon="6.23205">
        <ele>138</ele>
        <time>2022-04-15T14:12:31Z</time>
      </trkpt>
      <trkpt lat="43.48742" lon="6.23207">
        <ele>138</ele>
        <time>2022-04-15T14:12:32Z</time>
      </trkpt>
      <trkpt lat="43.48742" lon="6.23209">
        <ele>139</ele>
        <time>2022-04-15T14:12:33Z</time>
      </trkpt>
      <trkpt lat="43.48742" lon="6.2321">
        <ele>139</ele>
        <time>2022-04-15T14:12:34Z</time>
      </trkpt>
      <trkpt lat="43.48742" lon="6.23211">
        <ele>139</ele>
        <time>2022-04-15T14:12:35Z</time>
      </trkpt>
      <trkpt lat="43.48742" lon="6.23213">
        <ele>139</ele>
        <time>2022-04-15T14:12:36Z</time>
      </trkpt>
      <trkpt lat="43.48743" lon="6.23215">
        <ele>139</ele>
        <time>2022-04-15T14:12:37Z</time>
      </trkpt>
      <trkpt lat="43.48743" lon="6.23217">
        <ele>139</ele>
        <time>2022-04-15T14:12:38Z</time>
      </trkpt>
      <trkpt lat="43.48743" lon="6.23219">
        <ele>139</ele>
        <time>2022-04-15T14:12:39Z</time>
      </trkpt>
      <trkpt lat="43.48743" lon="6.23221">
        <ele>139</ele>
        <time>2022-04-15T14:12:40Z</time>
      </trkpt>
      <trkpt lat="43.48743" lon="6.23223">
        <ele>139</ele>
        <time>2022-04-15T14:12:41Z</time>
      </trkpt>
      <trkpt lat="43.48744" lon="6.23225">
        <ele>138</ele>
        <time>2022-04-15T14:12:42Z</time>
      </trkpt>
      <trkpt lat="43.48744" lon="6.23227">
        <ele>138</ele>
        <time>2022-04-15T14:12:43Z</time>
      </trkpt>
      <trkpt lat="43.48744" lon="6.23229">
        <ele>138</ele>
        <time>2022-04-15T14:12:44Z</time>
      </trkpt>
      <trkpt lat="43.48744" lon="6.2323">
        <ele>138</ele>
        <time>2022-04-15T14:12:45Z</time>
      </trkpt>
      <trkpt lat="43.48744" lon="6.23232">
        <ele>138</ele>
        <time>2022-04-15T14:12:46Z</time>
      </trkpt>
      <trkpt lat="43.48744" lon="6.23233">
        <ele>138</ele>
        <time>2022-04-15T14:12:47Z</time>
      </trkpt>
      <trkpt lat="43.48744" lon="6.23235">
        <ele>138</ele>
        <time>2022-04-15T14:12:48Z</time>
      </trkpt>
      <trkpt lat="43.48744" lon="6.23237">
        <ele>138</ele>
        <time>2022-04-15T14:12:49Z</time>
      </trkpt>
      <trkpt lat="43.48744" lon="6.23238">
        <ele>139</ele>
        <time>2022-04-15T14:12:50Z</time>
      </trkpt>
      <trkpt lat="43.48744" lon="6.2324">
        <ele>139</ele>
        <time>2022-04-15T14:12:51Z</time>
      </trkpt>
      <trkpt lat="43.48744" lon="6.23242">
        <ele>139</ele>
        <time>2022-04-15T14:12:52Z</time>
      </trkpt>
      <trkpt lat="43.48744" lon="6.23243">
        <ele>139</ele>
        <time>2022-04-15T14:12:53Z</time>
      </trkpt>
      <trkpt lat="43.48744" lon="6.23245">
        <ele>139</ele>
        <time>2022-04-15T14:12:54Z</time>
      </trkpt>
      <trkpt lat="43.48744" lon="6.23247">
        <ele>139</ele>
        <time>2022-04-15T14:12:55Z</time>
      </trkpt>
      <trkpt lat="43.48744" lon="6.23248">
        <ele>139</ele>
        <time>2022-04-15T14:12:56Z</time>
      </trkpt>
      <trkpt lat="43.48744" lon="6.2325">
        <ele>139</ele>
        <time>2022-04-15T14:12:57Z</time>
      </trkpt>
      <trkpt lat="43.48745" lon="6.23251">
        <ele>139</ele>
        <time>2022-04-15T14:12:58Z</time>
      </trkpt>
      <trkpt lat="43.48745" lon="6.23253">
        <ele>140</ele>
        <time>2022-04-15T14:12:59Z</time>
      </trkpt>
      <trkpt lat="43.48744" lon="6.23254">
        <ele>140</ele>
        <time>2022-04-15T14:13:00Z</time>
      </trkpt>
      <trkpt lat="43.48745" lon="6.23255">
        <ele>140</ele>
        <time>2022-04-15T14:13:01Z</time>
      </trkpt>
      <trkpt lat="43.48745" lon="6.23257">
        <ele>141</ele>
        <time>2022-04-15T14:13:02Z</time>
      </trkpt>
      <trkpt lat="43.48745" lon="6.23258">
        <ele>141</ele>
        <time>2022-04-15T14:13:03Z</time>
      </trkpt>
      <trkpt lat="43.48745" lon="6.2326">
        <ele>141</ele>
        <time>2022-04-15T14:13:04Z</time>
      </trkpt>
      <trkpt lat="43.48745" lon="6.23262">
        <ele>142</ele>
        <time>2022-04-15T14:13:05Z</time>
      </trkpt>
      <trkpt lat="43.48745" lon="6.23263">
        <ele>142</ele>
        <time>2022-04-15T14:13:06Z</time>
      </trkpt>
      <trkpt lat="43.48746" lon="6.23264">
        <ele>142</ele>
        <time>2022-04-15T14:13:07Z</time>
      </trkpt>
      <trkpt lat="43.48747" lon="6.23265">
        <ele>142</ele>
        <time>2022-04-15T14:13:08Z</time>
      </trkpt>
      <trkpt lat="43.48747" lon="6.23266">
        <ele>142</ele>
        <time>2022-04-15T14:13:09Z</time>
      </trkpt>
      <trkpt lat="43.48748" lon="6.23267">
        <ele>143</ele>
        <time>2022-04-15T14:13:10Z</time>
      </trkpt>
      <trkpt lat="43.48748" lon="6.23268">
        <ele>143</ele>
        <time>2022-04-15T14:13:11Z</time>
      </trkpt>
      <trkpt lat="43.48749" lon="6.23269">
        <ele>143</ele>
        <time>2022-04-15T14:13:12Z</time>
      </trkpt>
      <trkpt lat="43.4875" lon="6.2327">
        <ele>143</ele>
        <time>2022-04-15T14:13:13Z</time>
      </trkpt>
      <trkpt lat="43.4875" lon="6.2327">
        <ele>143</ele>
        <time>2022-04-15T14:13:14Z</time>
      </trkpt>
      <trkpt lat="43.48751" lon="6.23271">
        <ele>143</ele>
        <time>2022-04-15T14:13:15Z</time>
      </trkpt>
      <trkpt lat="43.48752" lon="6.23272">
        <ele>144</ele>
        <time>2022-04-15T14:13:16Z</time>
      </trkpt>
      <trkpt lat="43.48752" lon="6.23272">
        <ele>144</ele>
        <time>2022-04-15T14:13:17Z</time>
      </trkpt>
      <trkpt lat="43.48753" lon="6.23273">
        <ele>144</ele>
        <time>2022-04-15T14:13:18Z</time>
      </trkpt>
      <trkpt lat="43.48753" lon="6.23274">
        <ele>144</ele>
        <time>2022-04-15T14:13:19Z</time>
      </trkpt>
      <trkpt lat="43.48754" lon="6.23275">
        <ele>144</ele>
        <time>2022-04-15T14:13:20Z</time>
      </trkpt>
      <trkpt lat="43.48754" lon="6.23276">
        <ele>145</ele>
        <time>2022-04-15T14:13:21Z</time>
      </trkpt>
      <trkpt lat="43.48754" lon="6.23277">
        <ele>145</ele>
        <time>2022-04-15T14:13:22Z</time>
      </trkpt>
      <trkpt lat="43.48755" lon="6.23278">
        <ele>147</ele>
        <time>2022-04-15T14:13:23Z</time>
      </trkpt>
      <trkpt lat="43.48756" lon="6.23279">
        <ele>148</ele>
        <time>2022-04-15T14:13:24Z</time>
      </trkpt>
      <trkpt lat="43.48756" lon="6.2328">
        <ele>148</ele>
        <time>2022-04-15T14:13:25Z</time>
      </trkpt>
      <trkpt lat="43.48757" lon="6.23281">
        <ele>148</ele>
        <time>2022-04-15T14:13:26Z</time>
      </trkpt>
      <trkpt lat="43.48757" lon="6.23282">
        <ele>149</ele>
        <time>2022-04-15T14:13:27Z</time>
      </trkpt>
      <trkpt lat="43.48758" lon="6.23283">
        <ele>149</ele>
        <time>2022-04-15T14:13:28Z</time>
      </trkpt>
      <trkpt lat="43.48758" lon="6.23284">
        <ele>149</ele>
        <time>2022-04-15T14:13:29Z</time>
      </trkpt>
      <trkpt lat="43.48759" lon="6.23285">
        <ele>149</ele>
        <time>2022-04-15T14:13:30Z</time>
      </trkpt>
      <trkpt lat="43.48759" lon="6.23286">
        <ele>149</ele>
        <time>2022-04-15T14:13:31Z</time>
      </trkpt>
      <trkpt lat="43.48759" lon="6.23287">
        <ele>149</ele>
        <time>2022-04-15T14:13:32Z</time>
      </trkpt>
      <trkpt lat="43.48759" lon="6.23289">
        <ele>149</ele>
        <time>2022-04-15T14:13:33Z</time>
      </trkpt>
      <trkpt lat="43.4876" lon="6.2329">
        <ele>149</ele>
        <time>2022-04-15T14:13:34Z</time>
      </trkpt>
      <trkpt lat="43.4876" lon="6.23291">
        <ele>149</ele>
        <time>2022-04-15T14:13:35Z</time>
      </trkpt>
      <trkpt lat="43.48761" lon="6.23292">
        <ele>149</ele>
        <time>2022-04-15T14:13:36Z</time>
      </trkpt>
      <trkpt lat="43.48761" lon="6.23293">
        <ele>149</ele>
        <time>2022-04-15T14:13:37Z</time>
      </trkpt>
      <trkpt lat="43.48761" lon="6.23294">
        <ele>150</ele>
        <time>2022-04-15T14:13:38Z</time>
      </trkpt>
      <trkpt lat="43.48761" lon="6.23295">
        <ele>150</ele>
        <time>2022-04-15T14:13:39Z</time>
      </trkpt>
      <trkpt lat="43.48761" lon="6.23296">
        <ele>150</ele>
        <time>2022-04-15T14:13:40Z</time>
      </trkpt>
      <trkpt lat="43.48761" lon="6.23297">
        <ele>150</ele>
        <time>2022-04-15T14:13:41Z</time>
      </trkpt>
      <trkpt lat="43.48761" lon="6.23298">
        <ele>150</ele>
        <time>2022-04-15T14:13:42Z</time>
      </trkpt>
      <trkpt lat="43.48762" lon="6.23299">
        <ele>150</ele>
        <time>2022-04-15T14:13:43Z</time>
      </trkpt>
      <trkpt lat="43.48762" lon="6.233">
        <ele>151</ele>
        <time>2022-04-15T14:13:44Z</time>
      </trkpt>
      <trkpt lat="43.48762" lon="6.23301">
        <ele>151</ele>
        <time>2022-04-15T14:13:45Z</time>
      </trkpt>
      <trkpt lat="43.48763" lon="6.23302">
        <ele>151</ele>
        <time>2022-04-15T14:13:46Z</time>
      </trkpt>
      <trkpt lat="43.48763" lon="6.23303">
        <ele>151</ele>
        <time>2022-04-15T14:13:47Z</time>
      </trkpt>
      <trkpt lat="43.48763" lon="6.23304">
        <ele>151</ele>
        <time>2022-04-15T14:13:48Z</time>
      </trkpt>
      <trkpt lat="43.48762" lon="6.23305">
        <ele>151</ele>
        <time>2022-04-15T14:13:49Z</time>
      </trkpt>
      <trkpt lat="43.48762" lon="6.23306">
        <ele>151</ele>
        <time>2022-04-15T14:13:50Z</time>
      </trkpt>
      <trkpt lat="43.48762" lon="6.23307">
        <ele>152</ele>
        <time>2022-04-15T14:13:51Z</time>
      </trkpt>
      <trkpt lat="43.48763" lon="6.23308">
        <ele>152</ele>
        <time>2022-04-15T14:13:52Z</time>
      </trkpt>
      <trkpt lat="43.48763" lon="6.23309">
        <ele>152</ele>
        <time>2022-04-15T14:13:53Z</time>
      </trkpt>
      <trkpt lat="43.48764" lon="6.2331">
        <ele>152</ele>
        <time>2022-04-15T14:13:54Z</time>
      </trkpt>
      <trkpt lat="43.48764" lon="6.2331">
        <ele>152</ele>
        <time>2022-04-15T14:13:55Z</time>
      </trkpt>
      <trkpt lat="43.48764" lon="6.23312">
        <ele>152</ele>
        <time>2022-04-15T14:13:56Z</time>
      </trkpt>
      <trkpt lat="43.48764" lon="6.23313">
        <ele>152</ele>
        <time>2022-04-15T14:13:57Z</time>
      </trkpt>
      <trkpt lat="43.48764" lon="6.23314">
        <ele>152</ele>
        <time>2022-04-15T14:13:58Z</time>
      </trkpt>
      <trkpt lat="43.48765" lon="6.23315">
        <ele>153</ele>
        <time>2022-04-15T14:13:59Z</time>
      </trkpt>
      <trkpt lat="43.48765" lon="6.23316">
        <ele>153</ele>
        <time>2022-04-15T14:14:00Z</time>
      </trkpt>
      <trkpt lat="43.48766" lon="6.23317">
        <ele>153</ele>
        <time>2022-04-15T14:14:01Z</time>
      </trkpt>
      <trkpt lat="43.48766" lon="6.23318">
        <ele>153</ele>
        <time>2022-04-15T14:14:02Z</time>
      </trkpt>
      <trkpt lat="43.48766" lon="6.23318">
        <ele>153</ele>
        <time>2022-04-15T14:14:03Z</time>
      </trkpt>
      <trkpt lat="43.48766" lon="6.23319">
        <ele>153</ele>
        <time>2022-04-15T14:14:04Z</time>
      </trkpt>
      <trkpt lat="43.48767" lon="6.23319">
        <ele>153</ele>
        <time>2022-04-15T14:14:05Z</time>
      </trkpt>
      <trkpt lat="43.48767" lon="6.2332">
        <ele>153</ele>
        <time>2022-04-15T14:14:06Z</time>
      </trkpt>
      <trkpt lat="43.48766" lon="6.2332">
        <ele>153</ele>
        <time>2022-04-15T14:14:07Z</time>
      </trkpt>
      <trkpt lat="43.48766" lon="6.2332">
        <ele>153</ele>
        <time>2022-04-15T14:14:08Z</time>
      </trkpt>
      <trkpt lat="43.48766" lon="6.2332">
        <ele>153</ele>
        <time>2022-04-15T14:14:09Z</time>
      </trkpt>
      <trkpt lat="43.48766" lon="6.2332">
        <ele>153</ele>
        <time>2022-04-15T14:14:10Z</time>
      </trkpt>
      <trkpt lat="43.48766" lon="6.2332">
        <ele>153</ele>
        <time>2022-04-15T14:14:11Z</time>
      </trkpt>
      <trkpt lat="43.48766" lon="6.2332">
        <ele>153</ele>
        <time>2022-04-15T14:14:12Z</time>
      </trkpt>
      <trkpt lat="43.48766" lon="6.2332">
        <ele>153</ele>
        <time>2022-04-15T14:14:13Z</time>
      </trkpt>
      <trkpt lat="43.48766" lon="6.2332">
        <ele>153</ele>
        <time>2022-04-15T14:14:14Z</time>
      </trkpt>
      <trkpt lat="43.48766" lon="6.2332">
        <ele>153</ele>
        <time>2022-04-15T14:14:15Z</time>
      </trkpt>
      <trkpt lat="43.48766" lon="6.2332">
        <ele>153</ele>
        <time>2022-04-15T14:14:16Z</time>
      </trkpt>
      <trkpt lat="43.48766" lon="6.2332">
        <ele>153</ele>
        <time>2022-04-15T14:14:17Z</time>
      </trkpt>
      <trkpt lat="43.48766" lon="6.2332">
        <ele>153</ele>
        <time>2022-04-15T14:14:18Z</time>
      </trkpt>
      <trkpt lat="43.48766" lon="6.2332">
        <ele>153</ele>
        <time>2022-04-15T14:14:19Z</time>
      </trkpt>
      <trkpt lat="43.48766" lon="6.2332">
        <ele>153</ele>
        <time>2022-04-15T14:14:20Z</time>
      </trkpt>
      <trkpt lat="43.48766" lon="6.2332">
        <ele>153</ele>
        <time>2022-04-15T14:14:21Z</time>
      </trkpt>
      <trkpt lat="43.48766" lon="6.2332">
        <ele>153</ele>
        <time>2022-04-15T14:14:22Z</time>
      </trkpt>
      <trkpt lat="43.48766" lon="6.2332">
        <ele>153</ele>
        <time>2022-04-15T14:14:23Z</time>
      </trkpt>
      <trkpt lat="43.48766" lon="6.2332">
        <ele>153</ele>
        <time>2022-04-15T14:14:24Z</time>
      </trkpt>
      <trkpt lat="43.48766" lon="6.2332">
        <ele>153</ele>
        <time>2022-04-15T14:14:25Z</time>
      </trkpt>
      <trkpt lat="43.48766" lon="6.2332">
        <ele>153</ele>
        <time>2022-04-15T14:14:26Z</time>
      </trkpt>
      <trkpt lat="43.48766" lon="6.2332">
        <ele>153</ele>
        <time>2022-04-15T14:14:27Z</time>
      </trkpt>
      <trkpt lat="43.48766" lon="6.2332">
        <ele>153</ele>
        <time>2022-04-15T14:14:28Z</time>
      </trkpt>
      <trkpt lat="43.48766" lon="6.2332">
        <ele>153</ele>
        <time>2022-04-15T14:14:29Z</time>
      </trkpt>
      <trkpt lat="43.48766" lon="6.2332">
        <ele>153</ele>
        <time>2022-04-15T14:14:30Z</time>
      </trkpt>
      <trkpt lat="43.48766" lon="6.2332">
        <ele>153</ele>
        <time>2022-04-15T14:14:31Z</time>
      </trkpt>
      <trkpt lat="43.48766" lon="6.2332">
        <ele>153</ele>
        <time>2022-04-15T14:14:32Z</time>
      </trkpt>
      <trkpt lat="43.48766" lon="6.2332">
        <ele>153</ele>
        <time>2022-04-15T14:14:33Z</time>
      </trkpt>
      <trkpt lat="43.48763" lon="6.23319">
        <ele>153</ele>
        <time>2022-04-15T14:14:34Z</time>
      </trkpt>
      <trkpt lat="43.48763" lon="6.2332">
        <ele>153</ele>
        <time>2022-04-15T14:14:35Z</time>
      </trkpt>
      <trkpt lat="43.48764" lon="6.2332">
        <ele>153</ele>
        <time>2022-04-15T14:14:36Z</time>
      </trkpt>
      <trkpt lat="43.48764" lon="6.23321">
        <ele>153</ele>
        <time>2022-04-15T14:14:37Z</time>
      </trkpt>
      <trkpt lat="43.48765" lon="6.23321">
        <ele>153</ele>
        <time>2022-04-15T14:14:38Z</time>
      </trkpt>
      <trkpt lat="43.48765" lon="6.23321">
        <ele>153</ele>
        <time>2022-04-15T14:14:39Z</time>
      </trkpt>
      <trkpt lat="43.48766" lon="6.23321">
        <ele>153</ele>
        <time>2022-04-15T14:14:40Z</time>
      </trkpt>
      <trkpt lat="43.48766" lon="6.23321">
        <ele>153</ele>
        <time>2022-04-15T14:14:41Z</time>
      </trkpt>
      <trkpt lat="43.48766" lon="6.23321">
        <ele>153</ele>
        <time>2022-04-15T14:14:42Z</time>
      </trkpt>
      <trkpt lat="43.48766" lon="6.23321">
        <ele>153</ele>
        <time>2022-04-15T14:14:43Z</time>
      </trkpt>
      <trkpt lat="43.48766" lon="6.23321">
        <ele>153</ele>
        <time>2022-04-15T14:14:44Z</time>
      </trkpt>
      <trkpt lat="43.48766" lon="6.23321">
        <ele>153</ele>
        <time>2022-04-15T14:14:45Z</time>
      </trkpt>
      <trkpt lat="43.48766" lon="6.23321">
        <ele>153</ele>
        <time>2022-04-15T14:14:46Z</time>
      </trkpt>
      <trkpt lat="43.48766" lon="6.23321">
        <ele>153</ele>
        <time>2022-04-15T14:14:47Z</time>
      </trkpt>
      <trkpt lat="43.48766" lon="6.23321">
        <ele>153</ele>
        <time>2022-04-15T14:14:48Z</time>
      </trkpt>
      <trkpt lat="43.48766" lon="6.23321">
        <ele>153</ele>
        <time>2022-04-15T14:14:49Z</time>
      </trkpt>
      <trkpt lat="43.48766" lon="6.23321">
        <ele>153</ele>
        <time>2022-04-15T14:14:50Z</time>
      </trkpt>
      <trkpt lat="43.48766" lon="6.23321">
        <ele>153</ele>
        <time>2022-04-15T14:14:51Z</time>
      </trkpt>
      <trkpt lat="43.48765" lon="6.23321">
        <ele>153</ele>
        <time>2022-04-15T14:14:52Z</time>
      </trkpt>
      <trkpt lat="43.48764" lon="6.23321">
        <ele>153</ele>
        <time>2022-04-15T14:14:53Z</time>
      </trkpt>
      <trkpt lat="43.48764" lon="6.23322">
        <ele>153</ele>
        <time>2022-04-15T14:14:54Z</time>
      </trkpt>
      <trkpt lat="43.48763" lon="6.23322">
        <ele>153</ele>
        <time>2022-04-15T14:14:55Z</time>
      </trkpt>
      <trkpt lat="43.48763" lon="6.23322">
        <ele>153</ele>
        <time>2022-04-15T14:14:56Z</time>
      </trkpt>
      <trkpt lat="43.48762" lon="6.23322">
        <ele>153</ele>
        <time>2022-04-15T14:14:57Z</time>
      </trkpt>
      <trkpt lat="43.48762" lon="6.23322">
        <ele>153</ele>
        <time>2022-04-15T14:14:58Z</time>
      </trkpt>
      <trkpt lat="43.48762" lon="6.23323">
        <ele>153</ele>
        <time>2022-04-15T14:14:59Z</time>
      </trkpt>
      <trkpt lat="43.48762" lon="6.23323">
        <ele>153</ele>
        <time>2022-04-15T14:15:00Z</time>
      </trkpt>
      <trkpt lat="43.48763" lon="6.23324">
        <ele>153</ele>
        <time>2022-04-15T14:15:01Z</time>
      </trkpt>
      <trkpt lat="43.48763" lon="6.23325">
        <ele>153</ele>
        <time>2022-04-15T14:15:02Z</time>
      </trkpt>
      <trkpt lat="43.48762" lon="6.23325">
        <ele>153</ele>
        <time>2022-04-15T14:15:03Z</time>
      </trkpt>
      <trkpt lat="43.48762" lon="6.23326">
        <ele>154</ele>
        <time>2022-04-15T14:15:04Z</time>
      </trkpt>
      <trkpt lat="43.48762" lon="6.23326">
        <ele>155</ele>
        <time>2022-04-15T14:15:05Z</time>
      </trkpt>
      <trkpt lat="43.48762" lon="6.23327">
        <ele>155</ele>
        <time>2022-04-15T14:15:06Z</time>
      </trkpt>
      <trkpt lat="43.48762" lon="6.23327">
        <ele>155</ele>
        <time>2022-04-15T14:15:07Z</time>
      </trkpt>
      <trkpt lat="43.48761" lon="6.23328">
        <ele>155</ele>
        <time>2022-04-15T14:15:08Z</time>
      </trkpt>
      <trkpt lat="43.48761" lon="6.23328">
        <ele>155</ele>
        <time>2022-04-15T14:15:09Z</time>
      </trkpt>
      <trkpt lat="43.48761" lon="6.23328">
        <ele>155</ele>
        <time>2022-04-15T14:15:10Z</time>
      </trkpt>
      <trkpt lat="43.48761" lon="6.23328">
        <ele>155</ele>
        <time>2022-04-15T14:15:11Z</time>
      </trkpt>
      <trkpt lat="43.48761" lon="6.23328">
        <ele>155</ele>
        <time>2022-04-15T14:15:12Z</time>
      </trkpt>
      <trkpt lat="43.48761" lon="6.23328">
        <ele>155</ele>
        <time>2022-04-15T14:15:13Z</time>
      </trkpt>
      <trkpt lat="43.48761" lon="6.23328">
        <ele>155</ele>
        <time>2022-04-15T14:15:14Z</time>
      </trkpt>
      <trkpt lat="43.48761" lon="6.23328">
        <ele>155</ele>
        <time>2022-04-15T14:15:15Z</time>
      </trkpt>
      <trkpt lat="43.48761" lon="6.23328">
        <ele>155</ele>
        <time>2022-04-15T14:15:16Z</time>
      </trkpt>
      <trkpt lat="43.48761" lon="6.23328">
        <ele>155</ele>
        <time>2022-04-15T14:15:17Z</time>
      </trkpt>
      <trkpt lat="43.48761" lon="6.23328">
        <ele>155</ele>
        <time>2022-04-15T14:15:18Z</time>
      </trkpt>
      <trkpt lat="43.48761" lon="6.23328">
        <ele>155</ele>
        <time>2022-04-15T14:15:19Z</time>
      </trkpt>
      <trkpt lat="43.48761" lon="6.23328">
        <ele>155</ele>
        <time>2022-04-15T14:15:20Z</time>
      </trkpt>
      <trkpt lat="43.48761" lon="6.23328">
        <ele>155</ele>
        <time>2022-04-15T14:15:21Z</time>
      </trkpt>
      <trkpt lat="43.48761" lon="6.23328">
        <ele>155</ele>
        <time>2022-04-15T14:15:22Z</time>
      </trkpt>
      <trkpt lat="43.48761" lon="6.23328">
        <ele>155</ele>
        <time>2022-04-15T14:15:23Z</time>
      </trkpt>
      <trkpt lat="43.48761" lon="6.23328">
        <ele>155</ele>
        <time>2022-04-15T14:15:24Z</time>
      </trkpt>
      <trkpt lat="43.48761" lon="6.23328">
        <ele>155</ele>
        <time>2022-04-15T14:15:25Z</time>
      </trkpt>
      <trkpt lat="43.48761" lon="6.23328">
        <ele>155</ele>
        <time>2022-04-15T14:15:26Z</time>
      </trkpt>
      <trkpt lat="43.48761" lon="6.23331">
        <ele>155</ele>
        <time>2022-04-15T14:15:27Z</time>
      </trkpt>
      <trkpt lat="43.48761" lon="6.23332">
        <ele>155</ele>
        <time>2022-04-15T14:15:28Z</time>
      </trkpt>
      <trkpt lat="43.48761" lon="6.23332">
        <ele>155</ele>
        <time>2022-04-15T14:15:29Z</time>
      </trkpt>
      <trkpt lat="43.4876" lon="6.23333">
        <ele>155</ele>
        <time>2022-04-15T14:15:30Z</time>
      </trkpt>
      <trkpt lat="43.4876" lon="6.23334">
        <ele>155</ele>
        <time>2022-04-15T14:15:31Z</time>
      </trkpt>
      <trkpt lat="43.48759" lon="6.23335">
        <ele>156</ele>
        <time>2022-04-15T14:15:32Z</time>
      </trkpt>
      <trkpt lat="43.48759" lon="6.23335">
        <ele>156</ele>
        <time>2022-04-15T14:15:33Z</time>
      </trkpt>
      <trkpt lat="43.48759" lon="6.23336">
        <ele>156</ele>
        <time>2022-04-15T14:15:34Z</time>
      </trkpt>
      <trkpt lat="43.48758" lon="6.23337">
        <ele>156</ele>
        <time>2022-04-15T14:15:35Z</time>
      </trkpt>
      <trkpt lat="43.48758" lon="6.23337">
        <ele>156</ele>
        <time>2022-04-15T14:15:36Z</time>
      </trkpt>
      <trkpt lat="43.48757" lon="6.23338">
        <ele>156</ele>
        <time>2022-04-15T14:15:37Z</time>
      </trkpt>
      <trkpt lat="43.48757" lon="6.23338">
        <ele>156</ele>
        <time>2022-04-15T14:15:38Z</time>
      </trkpt>
      <trkpt lat="43.48756" lon="6.23338">
        <ele>156</ele>
        <time>2022-04-15T14:15:39Z</time>
      </trkpt>
      <trkpt lat="43.48756" lon="6.23338">
        <ele>158</ele>
        <time>2022-04-15T14:15:40Z</time>
      </trkpt>
      <trkpt lat="43.48756" lon="6.23339">
        <ele>158</ele>
        <time>2022-04-15T14:15:41Z</time>
      </trkpt>
      <trkpt lat="43.48755" lon="6.23339">
        <ele>159</ele>
        <time>2022-04-15T14:15:42Z</time>
      </trkpt>
      <trkpt lat="43.48755" lon="6.23339">
        <ele>159</ele>
        <time>2022-04-15T14:15:43Z</time>
      </trkpt>
      <trkpt lat="43.48755" lon="6.23339">
        <ele>159</ele>
        <time>2022-04-15T14:15:44Z</time>
      </trkpt>
      <trkpt lat="43.48755" lon="6.23339">
        <ele>159</ele>
        <time>2022-04-15T14:15:45Z</time>
      </trkpt>
      <trkpt lat="43.48754" lon="6.23339">
        <ele>159</ele>
        <time>2022-04-15T14:15:46Z</time>
      </trkpt>
      <trkpt lat="43.48754" lon="6.23339">
        <ele>159</ele>
        <time>2022-04-15T14:15:47Z</time>
      </trkpt>
      <trkpt lat="43.48754" lon="6.23339">
        <ele>159</ele>
        <time>2022-04-15T14:15:48Z</time>
      </trkpt>
      <trkpt lat="43.48754" lon="6.23339">
        <ele>159</ele>
        <time>2022-04-15T14:15:49Z</time>
      </trkpt>
      <trkpt lat="43.48754" lon="6.23339">
        <ele>159</ele>
        <time>2022-04-15T14:15:50Z</time>
      </trkpt>
      <trkpt lat="43.48754" lon="6.23339">
        <ele>159</ele>
        <time>2022-04-15T14:15:51Z</time>
      </trkpt>
      <trkpt lat="43.48753" lon="6.23339">
        <ele>159</ele>
        <time>2022-04-15T14:15:52Z</time>
      </trkpt>
      <trkpt lat="43.48752" lon="6.23339">
        <ele>159</ele>
        <time>2022-04-15T14:15:53Z</time>
      </trkpt>
      <trkpt lat="43.48752" lon="6.23339">
        <ele>159</ele>
        <time>2022-04-15T14:15:54Z</time>
      </trkpt>
      <trkpt lat="43.48751" lon="6.23339">
        <ele>160</ele>
        <time>2022-04-15T14:15:55Z</time>
      </trkpt>
      <trkpt lat="43.48751" lon="6.23339">
        <ele>160</ele>
        <time>2022-04-15T14:15:56Z</time>
      </trkpt>
      <trkpt lat="43.4875" lon="6.23339">
        <ele>160</ele>
        <time>2022-04-15T14:15:57Z</time>
      </trkpt>
      <trkpt lat="43.4875" lon="6.23339">
        <ele>160</ele>
        <time>2022-04-15T14:15:58Z</time>
      </trkpt>
      <trkpt lat="43.48749" lon="6.23339">
        <ele>160</ele>
        <time>2022-04-15T14:15:59Z</time>
      </trkpt>
      <trkpt lat="43.48749" lon="6.23339">
        <ele>160</ele>
        <time>2022-04-15T14:16:00Z</time>
      </trkpt>
      <trkpt lat="43.48748" lon="6.23339">
        <ele>160</ele>
        <time>2022-04-15T14:16:01Z</time>
      </trkpt>
      <trkpt lat="43.48748" lon="6.23339">
        <ele>161</ele>
        <time>2022-04-15T14:16:02Z</time>
      </trkpt>
      <trkpt lat="43.48747" lon="6.23339">
        <ele>161</ele>
        <time>2022-04-15T14:16:03Z</time>
      </trkpt>
      <trkpt lat="43.48747" lon="6.23339">
        <ele>161</ele>
        <time>2022-04-15T14:16:04Z</time>
      </trkpt>
      <trkpt lat="43.48746" lon="6.2334">
        <ele>161</ele>
        <time>2022-04-15T14:16:05Z</time>
      </trkpt>
      <trkpt lat="43.48745" lon="6.2334">
        <ele>161</ele>
        <time>2022-04-15T14:16:06Z</time>
      </trkpt>
      <trkpt lat="43.48745" lon="6.2334">
        <ele>161</ele>
        <time>2022-04-15T14:16:07Z</time>
      </trkpt>
      <trkpt lat="43.48744" lon="6.2334">
        <ele>161</ele>
        <time>2022-04-15T14:16:08Z</time>
      </trkpt>
      <trkpt lat="43.48744" lon="6.2334">
        <ele>162</ele>
        <time>2022-04-15T14:16:09Z</time>
      </trkpt>
      <trkpt lat="43.48743" lon="6.2334">
        <ele>162</ele>
        <time>2022-04-15T14:16:10Z</time>
      </trkpt>
      <trkpt lat="43.48742" lon="6.23341">
        <ele>162</ele>
        <time>2022-04-15T14:16:11Z</time>
      </trkpt>
      <trkpt lat="43.48741" lon="6.23341">
        <ele>162</ele>
        <time>2022-04-15T14:16:12Z</time>
      </trkpt>
      <trkpt lat="43.48741" lon="6.23341">
        <ele>162</ele>
        <time>2022-04-15T14:16:13Z</time>
      </trkpt>
      <trkpt lat="43.4874" lon="6.23342">
        <ele>162</ele>
        <time>2022-04-15T14:16:14Z</time>
      </trkpt>
      <trkpt lat="43.4874" lon="6.23342">
        <ele>164</ele>
        <time>2022-04-15T14:16:15Z</time>
      </trkpt>
      <trkpt lat="43.4874" lon="6.23342">
        <ele>164</ele>
        <time>2022-04-15T14:16:16Z</time>
      </trkpt>
      <trkpt lat="43.4874" lon="6.23342">
        <ele>165</ele>
        <time>2022-04-15T14:16:17Z</time>
      </trkpt>
      <trkpt lat="43.4874" lon="6.23342">
        <ele>165</ele>
        <time>2022-04-15T14:16:18Z</time>
      </trkpt>
      <trkpt lat="43.4874" lon="6.23343">
        <ele>165</ele>
        <time>2022-04-15T14:16:19Z</time>
      </trkpt>
      <trkpt lat="43.4874" lon="6.23343">
        <ele>165</ele>
        <time>2022-04-15T14:16:20Z</time>
      </trkpt>
      <trkpt lat="43.48739" lon="6.23343">
        <ele>165</ele>
        <time>2022-04-15T14:16:21Z</time>
      </trkpt>
      <trkpt lat="43.48739" lon="6.23343">
        <ele>165</ele>
        <time>2022-04-15T14:16:22Z</time>
      </trkpt>
      <trkpt lat="43.48738" lon="6.23344">
        <ele>165</ele>
        <time>2022-04-15T14:16:23Z</time>
      </trkpt>
      <trkpt lat="43.48738" lon="6.23345">
        <ele>165</ele>
        <time>2022-04-15T14:16:24Z</time>
      </trkpt>
      <trkpt lat="43.48737" lon="6.23345">
        <ele>165</ele>
        <time>2022-04-15T14:16:25Z</time>
      </trkpt>
      <trkpt lat="43.48737" lon="6.23346">
        <ele>165</ele>
        <time>2022-04-15T14:16:26Z</time>
      </trkpt>
      <trkpt lat="43.48736" lon="6.23346">
        <ele>165</ele>
        <time>2022-04-15T14:16:27Z</time>
      </trkpt>
      <trkpt lat="43.48736" lon="6.23346">
        <ele>165</ele>
        <time>2022-04-15T14:16:28Z</time>
      </trkpt>
      <trkpt lat="43.48736" lon="6.23347">
        <ele>165</ele>
        <time>2022-04-15T14:16:29Z</time>
      </trkpt>
      <trkpt lat="43.48736" lon="6.23347">
        <ele>165</ele>
        <time>2022-04-15T14:16:30Z</time>
      </trkpt>
      <trkpt lat="43.48735" lon="6.23347">
        <ele>165</ele>
        <time>2022-04-15T14:16:31Z</time>
      </trkpt>
      <trkpt lat="43.48735" lon="6.23347">
        <ele>165</ele>
        <time>2022-04-15T14:16:32Z</time>
      </trkpt>
      <trkpt lat="43.48735" lon="6.23348">
        <ele>165</ele>
        <time>2022-04-15T14:16:33Z</time>
      </trkpt>
      <trkpt lat="43.48735" lon="6.23348">
        <ele>165</ele>
        <time>2022-04-15T14:16:34Z</time>
      </trkpt>
      <trkpt lat="43.48735" lon="6.23348">
        <ele>165</ele>
        <time>2022-04-15T14:16:35Z</time>
      </trkpt>
      <trkpt lat="43.48735" lon="6.23348">
        <ele>165</ele>
        <time>2022-04-15T14:16:36Z</time>
      </trkpt>
      <trkpt lat="43.48735" lon="6.23348">
        <ele>165</ele>
        <time>2022-04-15T14:16:37Z</time>
      </trkpt>
      <trkpt lat="43.48735" lon="6.23348">
        <ele>165</ele>
        <time>2022-04-15T14:16:38Z</time>
      </trkpt>
      <trkpt lat="43.48734" lon="6.23349">
        <ele>165</ele>
        <time>2022-04-15T14:16:39Z</time>
      </trkpt>
      <trkpt lat="43.48734" lon="6.23349">
        <ele>165</ele>
        <time>2022-04-15T14:16:40Z</time>
      </trkpt>
      <trkpt lat="43.48734" lon="6.2335">
        <ele>165</ele>
        <time>2022-04-15T14:16:41Z</time>
      </trkpt>
      <trkpt lat="43.48734" lon="6.2335">
        <ele>165</ele>
        <time>2022-04-15T14:16:42Z</time>
      </trkpt>
      <trkpt lat="43.48734" lon="6.23351">
        <ele>165</ele>
        <time>2022-04-15T14:16:43Z</time>
      </trkpt>
      <trkpt lat="43.48734" lon="6.23351">
        <ele>166</ele>
        <time>2022-04-15T14:16:44Z</time>
      </trkpt>
      <trkpt lat="43.48734" lon="6.23352">
        <ele>166</ele>
        <time>2022-04-15T14:16:45Z</time>
      </trkpt>
      <trkpt lat="43.48734" lon="6.23352">
        <ele>166</ele>
        <time>2022-04-15T14:16:46Z</time>
      </trkpt>
      <trkpt lat="43.48734" lon="6.23353">
        <ele>166</ele>
        <time>2022-04-15T14:16:47Z</time>
      </trkpt>
      <trkpt lat="43.48734" lon="6.23353">
        <ele>166</ele>
        <time>2022-04-15T14:16:48Z</time>
      </trkpt>
      <trkpt lat="43.48734" lon="6.23353">
        <ele>166</ele>
        <time>2022-04-15T14:16:49Z</time>
      </trkpt>
      <trkpt lat="43.48733" lon="6.23354">
        <ele>166</ele>
        <time>2022-04-15T14:16:50Z</time>
      </trkpt>
      <trkpt lat="43.48733" lon="6.23355">
        <ele>166</ele>
        <time>2022-04-15T14:16:51Z</time>
      </trkpt>
      <trkpt lat="43.48732" lon="6.23356">
        <ele>166</ele>
        <time>2022-04-15T14:16:52Z</time>
      </trkpt>
      <trkpt lat="43.48731" lon="6.23357">
        <ele>166</ele>
        <time>2022-04-15T14:16:53Z</time>
      </trkpt>
      <trkpt lat="43.4873" lon="6.23358">
        <ele>166</ele>
        <time>2022-04-15T14:16:54Z</time>
      </trkpt>
      <trkpt lat="43.48729" lon="6.23359">
        <ele>166</ele>
        <time>2022-04-15T14:16:55Z</time>
      </trkpt>
      <trkpt lat="43.48728" lon="6.2336">
        <ele>166</ele>
        <time>2022-04-15T14:16:56Z</time>
      </trkpt>
      <trkpt lat="43.48728" lon="6.23361">
        <ele>165</ele>
        <time>2022-04-15T14:16:57Z</time>
      </trkpt>
      <trkpt lat="43.48727" lon="6.23362">
        <ele>165</ele>
        <time>2022-04-15T14:16:58Z</time>
      </trkpt>
      <trkpt lat="43.48727" lon="6.23362">
        <ele>165</ele>
        <time>2022-04-15T14:16:59Z</time>
      </trkpt>
      <trkpt lat="43.48726" lon="6.23362">
        <ele>165</ele>
        <time>2022-04-15T14:17:00Z</time>
      </trkpt>
      <trkpt lat="43.48726" lon="6.23363">
        <ele>165</ele>
        <time>2022-04-15T14:17:01Z</time>
      </trkpt>
      <trkpt lat="43.48725" lon="6.23364">
        <ele>165</ele>
        <time>2022-04-15T14:17:02Z</time>
      </trkpt>
      <trkpt lat="43.48724" lon="6.23365">
        <ele>165</ele>
        <time>2022-04-15T14:17:03Z</time>
      </trkpt>
      <trkpt lat="43.48723" lon="6.23366">
        <ele>165</ele>
        <time>2022-04-15T14:17:04Z</time>
      </trkpt>
      <trkpt lat="43.48723" lon="6.23366">
        <ele>165</ele>
        <time>2022-04-15T14:17:05Z</time>
      </trkpt>
      <trkpt lat="43.48722" lon="6.23367">
        <ele>165</ele>
        <time>2022-04-15T14:17:06Z</time>
      </trkpt>
      <trkpt lat="43.48722" lon="6.23367">
        <ele>165</ele>
        <time>2022-04-15T14:17:07Z</time>
      </trkpt>
      <trkpt lat="43.48722" lon="6.23368">
        <ele>165</ele>
        <time>2022-04-15T14:17:08Z</time>
      </trkpt>
      <trkpt lat="43.48721" lon="6.23368">
        <ele>165</ele>
        <time>2022-04-15T14:17:09Z</time>
      </trkpt>
      <trkpt lat="43.48721" lon="6.23368">
        <ele>164</ele>
        <time>2022-04-15T14:17:10Z</time>
      </trkpt>
      <trkpt lat="43.48721" lon="6.23368">
        <ele>164</ele>
        <time>2022-04-15T14:17:11Z</time>
      </trkpt>
      <trkpt lat="43.48721" lon="6.23368">
        <ele>164</ele>
        <time>2022-04-15T14:17:12Z</time>
      </trkpt>
      <trkpt lat="43.48721" lon="6.23368">
        <ele>164</ele>
        <time>2022-04-15T14:17:13Z</time>
      </trkpt>
      <trkpt lat="43.4872" lon="6.23369">
        <ele>164</ele>
        <time>2022-04-15T14:17:14Z</time>
      </trkpt>
      <trkpt lat="43.48719" lon="6.2337">
        <ele>164</ele>
        <time>2022-04-15T14:17:15Z</time>
      </trkpt>
      <trkpt lat="43.48718" lon="6.23371">
        <ele>164</ele>
        <time>2022-04-15T14:17:16Z</time>
      </trkpt>
      <trkpt lat="43.48717" lon="6.23371">
        <ele>164</ele>
        <time>2022-04-15T14:17:17Z</time>
      </trkpt>
      <trkpt lat="43.48717" lon="6.23372">
        <ele>164</ele>
        <time>2022-04-15T14:17:18Z</time>
      </trkpt>
      <trkpt lat="43.48716" lon="6.23373">
        <ele>163</ele>
        <time>2022-04-15T14:17:19Z</time>
      </trkpt>
      <trkpt lat="43.48716" lon="6.23373">
        <ele>163</ele>
        <time>2022-04-15T14:17:20Z</time>
      </trkpt>
      <trkpt lat="43.48716" lon="6.23373">
        <ele>163</ele>
        <time>2022-04-15T14:17:21Z</time>
      </trkpt>
      <trkpt lat="43.48715" lon="6.23373">
        <ele>163</ele>
        <time>2022-04-15T14:17:22Z</time>
      </trkpt>
      <trkpt lat="43.48715" lon="6.23374">
        <ele>163</ele>
        <time>2022-04-15T14:17:23Z</time>
      </trkpt>
      <trkpt lat="43.48715" lon="6.23374">
        <ele>163</ele>
        <time>2022-04-15T14:17:24Z</time>
      </trkpt>
      <trkpt lat="43.48715" lon="6.23374">
        <ele>163</ele>
        <time>2022-04-15T14:17:25Z</time>
      </trkpt>
      <trkpt lat="43.48714" lon="6.23374">
        <ele>163</ele>
        <time>2022-04-15T14:17:26Z</time>
      </trkpt>
      <trkpt lat="43.48714" lon="6.23374">
        <ele>163</ele>
        <time>2022-04-15T14:17:27Z</time>
      </trkpt>
      <trkpt lat="43.48713" lon="6.23375">
        <ele>163</ele>
        <time>2022-04-15T14:17:28Z</time>
      </trkpt>
      <trkpt lat="43.48713" lon="6.23376">
        <ele>163</ele>
        <time>2022-04-15T14:17:29Z</time>
      </trkpt>
      <trkpt lat="43.48712" lon="6.23377">
        <ele>163</ele>
        <time>2022-04-15T14:17:30Z</time>
      </trkpt>
      <trkpt lat="43.48711" lon="6.23378">
        <ele>163</ele>
        <time>2022-04-15T14:17:31Z</time>
      </trkpt>
      <trkpt lat="43.4871" lon="6.23379">
        <ele>163</ele>
        <time>2022-04-15T14:17:32Z</time>
      </trkpt>
      <trkpt lat="43.4871" lon="6.2338">
        <ele>162</ele>
        <time>2022-04-15T14:17:33Z</time>
      </trkpt>
      <trkpt lat="43.48709" lon="6.23381">
        <ele>161</ele>
        <time>2022-04-15T14:17:34Z</time>
      </trkpt>
      <trkpt lat="43.48708" lon="6.23382">
        <ele>161</ele>
        <time>2022-04-15T14:17:35Z</time>
      </trkpt>
      <trkpt lat="43.48707" lon="6.23384">
        <ele>161</ele>
        <time>2022-04-15T14:17:36Z</time>
      </trkpt>
      <trkpt lat="43.48706" lon="6.23385">
        <ele>160</ele>
        <time>2022-04-15T14:17:37Z</time>
      </trkpt>
      <trkpt lat="43.48706" lon="6.23386">
        <ele>160</ele>
        <time>2022-04-15T14:17:38Z</time>
      </trkpt>
      <trkpt lat="43.48705" lon="6.23386">
        <ele>160</ele>
        <time>2022-04-15T14:17:39Z</time>
      </trkpt>
      <trkpt lat="43.48705" lon="6.23387">
        <ele>160</ele>
        <time>2022-04-15T14:17:40Z</time>
      </trkpt>
      <trkpt lat="43.48704" lon="6.23388">
        <ele>159</ele>
        <time>2022-04-15T14:17:41Z</time>
      </trkpt>
      <trkpt lat="43.48703" lon="6.23389">
        <ele>159</ele>
        <time>2022-04-15T14:17:42Z</time>
      </trkpt>
      <trkpt lat="43.48703" lon="6.23389">
        <ele>159</ele>
        <time>2022-04-15T14:17:43Z</time>
      </trkpt>
      <trkpt lat="43.48703" lon="6.2339">
        <ele>159</ele>
        <time>2022-04-15T14:17:44Z</time>
      </trkpt>
      <trkpt lat="43.48702" lon="6.2339">
        <ele>159</ele>
        <time>2022-04-15T14:17:45Z</time>
      </trkpt>
      <trkpt lat="43.48702" lon="6.2339">
        <ele>157</ele>
        <time>2022-04-15T14:17:46Z</time>
      </trkpt>
      <trkpt lat="43.48701" lon="6.2339">
        <ele>157</ele>
        <time>2022-04-15T14:17:47Z</time>
      </trkpt>
      <trkpt lat="43.48701" lon="6.23391">
        <ele>157</ele>
        <time>2022-04-15T14:17:48Z</time>
      </trkpt>
      <trkpt lat="43.487" lon="6.23391">
        <ele>157</ele>
        <time>2022-04-15T14:17:49Z</time>
      </trkpt>
      <trkpt lat="43.487" lon="6.23391">
        <ele>157</ele>
        <time>2022-04-15T14:17:50Z</time>
      </trkpt>
      <trkpt lat="43.487" lon="6.23391">
        <ele>157</ele>
        <time>2022-04-15T14:17:51Z</time>
      </trkpt>
      <trkpt lat="43.48699" lon="6.23391">
        <ele>157</ele>
        <time>2022-04-15T14:17:52Z</time>
      </trkpt>
      <trkpt lat="43.48699" lon="6.23391">
        <ele>157</ele>
        <time>2022-04-15T14:17:53Z</time>
      </trkpt>
      <trkpt lat="43.48699" lon="6.23391">
        <ele>156</ele>
        <time>2022-04-15T14:17:54Z</time>
      </trkpt>
      <trkpt lat="43.48699" lon="6.23392">
        <ele>156</ele>
        <time>2022-04-15T14:17:55Z</time>
      </trkpt>
      <trkpt lat="43.48699" lon="6.23392">
        <ele>156</ele>
        <time>2022-04-15T14:17:56Z</time>
      </trkpt>
      <trkpt lat="43.48699" lon="6.23392">
        <ele>156</ele>
        <time>2022-04-15T14:17:57Z</time>
      </trkpt>
      <trkpt lat="43.48699" lon="6.23392">
        <ele>156</ele>
        <time>2022-04-15T14:17:58Z</time>
      </trkpt>
      <trkpt lat="43.48699" lon="6.23392">
        <ele>156</ele>
        <time>2022-04-15T14:17:59Z</time>
      </trkpt>
      <trkpt lat="43.48698" lon="6.23392">
        <ele>156</ele>
        <time>2022-04-15T14:18:00Z</time>
      </trkpt>
      <trkpt lat="43.48698" lon="6.23392">
        <ele>156</ele>
        <time>2022-04-15T14:18:01Z</time>
      </trkpt>
      <trkpt lat="43.48698" lon="6.23392">
        <ele>156</ele>
        <time>2022-04-15T14:18:02Z</time>
      </trkpt>
      <trkpt lat="43.48697" lon="6.23391">
        <ele>156</ele>
        <time>2022-04-15T14:18:03Z</time>
      </trkpt>
      <trkpt lat="43.48697" lon="6.23391">
        <ele>156</ele>
        <time>2022-04-15T14:18:04Z</time>
      </trkpt>
      <trkpt lat="43.48697" lon="6.2339">
        <ele>156</ele>
        <time>2022-04-15T14:18:05Z</time>
      </trkpt>
      <trkpt lat="43.48696" lon="6.23389">
        <ele>156</ele>
        <time>2022-04-15T14:18:06Z</time>
      </trkpt>
      <trkpt lat="43.48696" lon="6.23388">
        <ele>156</ele>
        <time>2022-04-15T14:18:07Z</time>
      </trkpt>
      <trkpt lat="43.48696" lon="6.23388">
        <ele>156</ele>
        <time>2022-04-15T14:18:08Z</time>
      </trkpt>
      <trkpt lat="43.48695" lon="6.23388">
        <ele>156</ele>
        <time>2022-04-15T14:18:09Z</time>
      </trkpt>
      <trkpt lat="43.48695" lon="6.23388">
        <ele>156</ele>
        <time>2022-04-15T14:18:10Z</time>
      </trkpt>
      <trkpt lat="43.48695" lon="6.23388">
        <ele>156</ele>
        <time>2022-04-15T14:18:11Z</time>
      </trkpt>
      <trkpt lat="43.48694" lon="6.23387">
        <ele>156</ele>
        <time>2022-04-15T14:18:12Z</time>
      </trkpt>
      <trkpt lat="43.48694" lon="6.23387">
        <ele>156</ele>
        <time>2022-04-15T14:18:13Z</time>
      </trkpt>
      <trkpt lat="43.48694" lon="6.23386">
        <ele>156</ele>
        <time>2022-04-15T14:18:14Z</time>
      </trkpt>
      <trkpt lat="43.48694" lon="6.23385">
        <ele>156</ele>
        <time>2022-04-15T14:18:15Z</time>
      </trkpt>
      <trkpt lat="43.48694" lon="6.23384">
        <ele>154</ele>
        <time>2022-04-15T14:18:16Z</time>
      </trkpt>
      <trkpt lat="43.48694" lon="6.23384">
        <ele>154</ele>
        <time>2022-04-15T14:18:17Z</time>
      </trkpt>
      <trkpt lat="43.48694" lon="6.23383">
        <ele>154</ele>
        <time>2022-04-15T14:18:18Z</time>
      </trkpt>
      <trkpt lat="43.48694" lon="6.23382">
        <ele>153</ele>
        <time>2022-04-15T14:18:19Z</time>
      </trkpt>
      <trkpt lat="43.48694" lon="6.23382">
        <ele>153</ele>
        <time>2022-04-15T14:18:20Z</time>
      </trkpt>
      <trkpt lat="43.48693" lon="6.23381">
        <ele>153</ele>
        <time>2022-04-15T14:18:21Z</time>
      </trkpt>
      <trkpt lat="43.48693" lon="6.2338">
        <ele>153</ele>
        <time>2022-04-15T14:18:22Z</time>
      </trkpt>
      <trkpt lat="43.48693" lon="6.23379">
        <ele>153</ele>
        <time>2022-04-15T14:18:23Z</time>
      </trkpt>
      <trkpt lat="43.48693" lon="6.23377">
        <ele>153</ele>
        <time>2022-04-15T14:18:24Z</time>
      </trkpt>
      <trkpt lat="43.48693" lon="6.23375">
        <ele>152</ele>
        <time>2022-04-15T14:18:25Z</time>
      </trkpt>
      <trkpt lat="43.48693" lon="6.23374">
        <ele>152</ele>
        <time>2022-04-15T14:18:26Z</time>
      </trkpt>
      <trkpt lat="43.48693" lon="6.23374">
        <ele>152</ele>
        <time>2022-04-15T14:18:27Z</time>
      </trkpt>
      <trkpt lat="43.48693" lon="6.23373">
        <ele>152</ele>
        <time>2022-04-15T14:18:28Z</time>
      </trkpt>
      <trkpt lat="43.48693" lon="6.23372">
        <ele>152</ele>
        <time>2022-04-15T14:18:29Z</time>
      </trkpt>
      <trkpt lat="43.48693" lon="6.23372">
        <ele>152</ele>
        <time>2022-04-15T14:18:30Z</time>
      </trkpt>
      <trkpt lat="43.48693" lon="6.23372">
        <ele>152</ele>
        <time>2022-04-15T14:18:31Z</time>
      </trkpt>
      <trkpt lat="43.48693" lon="6.23371">
        <ele>152</ele>
        <time>2022-04-15T14:18:32Z</time>
      </trkpt>
      <trkpt lat="43.48693" lon="6.23371">
        <ele>152</ele>
        <time>2022-04-15T14:18:33Z</time>
      </trkpt>
      <trkpt lat="43.48693" lon="6.2337">
        <ele>152</ele>
        <time>2022-04-15T14:18:34Z</time>
      </trkpt>
      <trkpt lat="43.48692" lon="6.2337">
        <ele>152</ele>
        <time>2022-04-15T14:18:35Z</time>
      </trkpt>
      <trkpt lat="43.48692" lon="6.23368">
        <ele>151</ele>
        <time>2022-04-15T14:18:36Z</time>
      </trkpt>
      <trkpt lat="43.48692" lon="6.23367">
        <ele>151</ele>
        <time>2022-04-15T14:18:37Z</time>
      </trkpt>
      <trkpt lat="43.48691" lon="6.23366">
        <ele>151</ele>
        <time>2022-04-15T14:18:38Z</time>
      </trkpt>
      <trkpt lat="43.48691" lon="6.23365">
        <ele>151</ele>
        <time>2022-04-15T14:18:39Z</time>
      </trkpt>
      <trkpt lat="43.48691" lon="6.23364">
        <ele>151</ele>
        <time>2022-04-15T14:18:40Z</time>
      </trkpt>
      <trkpt lat="43.48691" lon="6.23364">
        <ele>151</ele>
        <time>2022-04-15T14:18:41Z</time>
      </trkpt>
      <trkpt lat="43.48691" lon="6.23363">
        <ele>151</ele>
        <time>2022-04-15T14:18:42Z</time>
      </trkpt>
      <trkpt lat="43.48691" lon="6.23362">
        <ele>151</ele>
        <time>2022-04-15T14:18:43Z</time>
      </trkpt>
      <trkpt lat="43.4869" lon="6.23361">
        <ele>151</ele>
        <time>2022-04-15T14:18:44Z</time>
      </trkpt>
      <trkpt lat="43.4869" lon="6.23359">
        <ele>150</ele>
        <time>2022-04-15T14:18:45Z</time>
      </trkpt>
      <trkpt lat="43.4869" lon="6.23358">
        <ele>150</ele>
        <time>2022-04-15T14:18:46Z</time>
      </trkpt>
      <trkpt lat="43.48689" lon="6.23356">
        <ele>150</ele>
        <time>2022-04-15T14:18:47Z</time>
      </trkpt>
      <trkpt lat="43.48689" lon="6.23355">
        <ele>150</ele>
        <time>2022-04-15T14:18:48Z</time>
      </trkpt>
      <trkpt lat="43.48689" lon="6.23354">
        <ele>150</ele>
        <time>2022-04-15T14:18:49Z</time>
      </trkpt>
      <trkpt lat="43.48688" lon="6.23352">
        <ele>150</ele>
        <time>2022-04-15T14:18:50Z</time>
      </trkpt>
      <trkpt lat="43.48687" lon="6.2335">
        <ele>150</ele>
        <time>2022-04-15T14:18:51Z</time>
      </trkpt>
      <trkpt lat="43.48687" lon="6.23347">
        <ele>150</ele>
        <time>2022-04-15T14:18:52Z</time>
      </trkpt>
      <trkpt lat="43.48686" lon="6.23345">
        <ele>150</ele>
        <time>2022-04-15T14:18:53Z</time>
      </trkpt>
      <trkpt lat="43.48686" lon="6.23343">
        <ele>150</ele>
        <time>2022-04-15T14:18:54Z</time>
      </trkpt>
      <trkpt lat="43.48685" lon="6.23342">
        <ele>150</ele>
        <time>2022-04-15T14:18:55Z</time>
      </trkpt>
      <trkpt lat="43.48685" lon="6.23341">
        <ele>150</ele>
        <time>2022-04-15T14:18:56Z</time>
      </trkpt>
      <trkpt lat="43.48685" lon="6.23339">
        <ele>150</ele>
        <time>2022-04-15T14:18:57Z</time>
      </trkpt>
      <trkpt lat="43.48684" lon="6.23338">
        <ele>150</ele>
        <time>2022-04-15T14:18:58Z</time>
      </trkpt>
      <trkpt lat="43.48684" lon="6.23336">
        <ele>149</ele>
        <time>2022-04-15T14:18:59Z</time>
      </trkpt>
      <trkpt lat="43.48684" lon="6.23333">
        <ele>149</ele>
        <time>2022-04-15T14:19:00Z</time>
      </trkpt>
      <trkpt lat="43.48684" lon="6.2333">
        <ele>149</ele>
        <time>2022-04-15T14:19:01Z</time>
      </trkpt>
      <trkpt lat="43.48683" lon="6.23328">
        <ele>149</ele>
        <time>2022-04-15T14:19:02Z</time>
      </trkpt>
      <trkpt lat="43.48683" lon="6.23325">
        <ele>149</ele>
        <time>2022-04-15T14:19:03Z</time>
      </trkpt>
      <trkpt lat="43.48683" lon="6.23324">
        <ele>149</ele>
        <time>2022-04-15T14:19:04Z</time>
      </trkpt>
      <trkpt lat="43.48683" lon="6.23323">
        <ele>149</ele>
        <time>2022-04-15T14:19:05Z</time>
      </trkpt>
      <trkpt lat="43.48682" lon="6.23321">
        <ele>149</ele>
        <time>2022-04-15T14:19:06Z</time>
      </trkpt>
      <trkpt lat="43.48682" lon="6.23319">
        <ele>149</ele>
        <time>2022-04-15T14:19:07Z</time>
      </trkpt>
      <trkpt lat="43.48682" lon="6.23317">
        <ele>149</ele>
        <time>2022-04-15T14:19:08Z</time>
      </trkpt>
      <trkpt lat="43.48681" lon="6.23315">
        <ele>148</ele>
        <time>2022-04-15T14:19:09Z</time>
      </trkpt>
      <trkpt lat="43.48681" lon="6.23314">
        <ele>147</ele>
        <time>2022-04-15T14:19:10Z</time>
      </trkpt>
      <trkpt lat="43.48681" lon="6.23313">
        <ele>147</ele>
        <time>2022-04-15T14:19:11Z</time>
      </trkpt>
      <trkpt lat="43.48681" lon="6.23313">
        <ele>147</ele>
        <time>2022-04-15T14:19:12Z</time>
      </trkpt>
      <trkpt lat="43.48681" lon="6.23311">
        <ele>147</ele>
        <time>2022-04-15T14:19:13Z</time>
      </trkpt>
      <trkpt lat="43.48681" lon="6.2331">
        <ele>147</ele>
        <time>2022-04-15T14:19:14Z</time>
      </trkpt>
      <trkpt lat="43.4868" lon="6.23309">
        <ele>147</ele>
        <time>2022-04-15T14:19:15Z</time>
      </trkpt>
      <trkpt lat="43.4868" lon="6.23308">
        <ele>147</ele>
        <time>2022-04-15T14:19:16Z</time>
      </trkpt>
      <trkpt lat="43.4868" lon="6.23307">
        <ele>147</ele>
        <time>2022-04-15T14:19:17Z</time>
      </trkpt>
      <trkpt lat="43.4868" lon="6.23307">
        <ele>147</ele>
        <time>2022-04-15T14:19:18Z</time>
      </trkpt>
      <trkpt lat="43.4868" lon="6.23306">
        <ele>147</ele>
        <time>2022-04-15T14:19:19Z</time>
      </trkpt>
      <trkpt lat="43.4868" lon="6.23306">
        <ele>147</ele>
        <time>2022-04-15T14:19:20Z</time>
      </trkpt>
      <trkpt lat="43.4868" lon="6.23305">
        <ele>147</ele>
        <time>2022-04-15T14:19:21Z</time>
      </trkpt>
      <trkpt lat="43.4868" lon="6.23305">
        <ele>147</ele>
        <time>2022-04-15T14:19:22Z</time>
      </trkpt>
      <trkpt lat="43.4868" lon="6.23304">
        <ele>147</ele>
        <time>2022-04-15T14:19:23Z</time>
      </trkpt>
      <trkpt lat="43.4868" lon="6.23302">
        <ele>146</ele>
        <time>2022-04-15T14:19:24Z</time>
      </trkpt>
      <trkpt lat="43.4868" lon="6.23301">
        <ele>146</ele>
        <time>2022-04-15T14:19:25Z</time>
      </trkpt>
      <trkpt lat="43.4868" lon="6.23299">
        <ele>146</ele>
        <time>2022-04-15T14:19:26Z</time>
      </trkpt>
      <trkpt lat="43.4868" lon="6.23296">
        <ele>146</ele>
        <time>2022-04-15T14:19:27Z</time>
      </trkpt>
      <trkpt lat="43.4868" lon="6.23294">
        <ele>146</ele>
        <time>2022-04-15T14:19:28Z</time>
      </trkpt>
      <trkpt lat="43.4868" lon="6.23291">
        <ele>146</ele>
        <time>2022-04-15T14:19:29Z</time>
      </trkpt>
      <trkpt lat="43.4868" lon="6.23289">
        <ele>146</ele>
        <time>2022-04-15T14:19:30Z</time>
      </trkpt>
      <trkpt lat="43.4868" lon="6.23288">
        <ele>145</ele>
        <time>2022-04-15T14:19:31Z</time>
      </trkpt>
      <trkpt lat="43.4868" lon="6.23286">
        <ele>144</ele>
        <time>2022-04-15T14:19:32Z</time>
      </trkpt>
      <trkpt lat="43.4868" lon="6.23285">
        <ele>144</ele>
        <time>2022-04-15T14:19:33Z</time>
      </trkpt>
      <trkpt lat="43.4868" lon="6.23285">
        <ele>144</ele>
        <time>2022-04-15T14:19:34Z</time>
      </trkpt>
      <trkpt lat="43.4868" lon="6.23284">
        <ele>144</ele>
        <time>2022-04-15T14:19:35Z</time>
      </trkpt>
      <trkpt lat="43.4868" lon="6.23283">
        <ele>144</ele>
        <time>2022-04-15T14:19:36Z</time>
      </trkpt>
      <trkpt lat="43.4868" lon="6.23283">
        <ele>144</ele>
        <time>2022-04-15T14:19:37Z</time>
      </trkpt>
      <trkpt lat="43.48679" lon="6.23282">
        <ele>144</ele>
        <time>2022-04-15T14:19:38Z</time>
      </trkpt>
      <trkpt lat="43.48679" lon="6.23281">
        <ele>144</ele>
        <time>2022-04-15T14:19:39Z</time>
      </trkpt>
      <trkpt lat="43.48679" lon="6.2328">
        <ele>144</ele>
        <time>2022-04-15T14:19:40Z</time>
      </trkpt>
      <trkpt lat="43.48678" lon="6.23279">
        <ele>144</ele>
        <time>2022-04-15T14:19:41Z</time>
      </trkpt>
      <trkpt lat="43.48678" lon="6.23277">
        <ele>144</ele>
        <time>2022-04-15T14:19:42Z</time>
      </trkpt>
      <trkpt lat="43.48678" lon="6.23276">
        <ele>144</ele>
        <time>2022-04-15T14:19:43Z</time>
      </trkpt>
      <trkpt lat="43.48677" lon="6.23275">
        <ele>144</ele>
        <time>2022-04-15T14:19:44Z</time>
      </trkpt>
      <trkpt lat="43.48677" lon="6.23274">
        <ele>144</ele>
        <time>2022-04-15T14:19:45Z</time>
      </trkpt>
      <trkpt lat="43.48676" lon="6.23274">
        <ele>144</ele>
        <time>2022-04-15T14:19:46Z</time>
      </trkpt>
      <trkpt lat="43.48676" lon="6.23273">
        <ele>144</ele>
        <time>2022-04-15T14:19:47Z</time>
      </trkpt>
      <trkpt lat="43.48676" lon="6.23272">
        <ele>144</ele>
        <time>2022-04-15T14:19:48Z</time>
      </trkpt>
      <trkpt lat="43.48675" lon="6.23271">
        <ele>144</ele>
        <time>2022-04-15T14:19:49Z</time>
      </trkpt>
      <trkpt lat="43.48675" lon="6.2327">
        <ele>144</ele>
        <time>2022-04-15T14:19:50Z</time>
      </trkpt>
      <trkpt lat="43.48674" lon="6.2327">
        <ele>144</ele>
        <time>2022-04-15T14:19:51Z</time>
      </trkpt>
      <trkpt lat="43.48673" lon="6.23269">
        <ele>144</ele>
        <time>2022-04-15T14:19:52Z</time>
      </trkpt>
      <trkpt lat="43.48672" lon="6.23268">
        <ele>144</ele>
        <time>2022-04-15T14:19:53Z</time>
      </trkpt>
      <trkpt lat="43.48671" lon="6.23266">
        <ele>144</ele>
        <time>2022-04-15T14:19:54Z</time>
      </trkpt>
      <trkpt lat="43.4867" lon="6.23265">
        <ele>144</ele>
        <time>2022-04-15T14:19:55Z</time>
      </trkpt>
      <trkpt lat="43.48668" lon="6.23263">
        <ele>144</ele>
        <time>2022-04-15T14:19:56Z</time>
      </trkpt>
      <trkpt lat="43.48666" lon="6.23261">
        <ele>144</ele>
        <time>2022-04-15T14:19:57Z</time>
      </trkpt>
      <trkpt lat="43.48664" lon="6.23259">
        <ele>144</ele>
        <time>2022-04-15T14:19:58Z</time>
      </trkpt>
      <trkpt lat="43.48662" lon="6.23257">
        <ele>144</ele>
        <time>2022-04-15T14:19:59Z</time>
      </trkpt>
      <trkpt lat="43.48661" lon="6.23255">
        <ele>144</ele>
        <time>2022-04-15T14:20:00Z</time>
      </trkpt>
      <trkpt lat="43.4866" lon="6.23254">
        <ele>144</ele>
        <time>2022-04-15T14:20:01Z</time>
      </trkpt>
      <trkpt lat="43.48659" lon="6.23254">
        <ele>144</ele>
        <time>2022-04-15T14:20:02Z</time>
      </trkpt>
      <trkpt lat="43.48659" lon="6.23253">
        <ele>144</ele>
        <time>2022-04-15T14:20:03Z</time>
      </trkpt>
      <trkpt lat="43.48658" lon="6.23253">
        <ele>144</ele>
        <time>2022-04-15T14:20:04Z</time>
      </trkpt>
      <trkpt lat="43.48658" lon="6.23252">
        <ele>144</ele>
        <time>2022-04-15T14:20:05Z</time>
      </trkpt>
      <trkpt lat="43.48657" lon="6.23252">
        <ele>143</ele>
        <time>2022-04-15T14:20:06Z</time>
      </trkpt>
      <trkpt lat="43.48656" lon="6.23252">
        <ele>142</ele>
        <time>2022-04-15T14:20:07Z</time>
      </trkpt>
      <trkpt lat="43.48656" lon="6.23252">
        <ele>142</ele>
        <time>2022-04-15T14:20:08Z</time>
      </trkpt>
      <trkpt lat="43.48656" lon="6.23252">
        <ele>142</ele>
        <time>2022-04-15T14:20:09Z</time>
      </trkpt>
      <trkpt lat="43.48655" lon="6.23252">
        <ele>142</ele>
        <time>2022-04-15T14:20:10Z</time>
      </trkpt>
      <trkpt lat="43.48655" lon="6.23252">
        <ele>142</ele>
        <time>2022-04-15T14:20:11Z</time>
      </trkpt>
      <trkpt lat="43.48654" lon="6.23252">
        <ele>142</ele>
        <time>2022-04-15T14:20:12Z</time>
      </trkpt>
      <trkpt lat="43.48654" lon="6.23252">
        <ele>142</ele>
        <time>2022-04-15T14:20:13Z</time>
      </trkpt>
      <trkpt lat="43.48654" lon="6.23252">
        <ele>142</ele>
        <time>2022-04-15T14:20:14Z</time>
      </trkpt>
      <trkpt lat="43.48653" lon="6.23253">
        <ele>141</ele>
        <time>2022-04-15T14:20:15Z</time>
      </trkpt>
      <trkpt lat="43.48653" lon="6.23255">
        <ele>141</ele>
        <time>2022-04-15T14:20:16Z</time>
      </trkpt>
      <trkpt lat="43.48653" lon="6.23255">
        <ele>141</ele>
        <time>2022-04-15T14:20:17Z</time>
      </trkpt>
      <trkpt lat="43.48653" lon="6.23256">
        <ele>141</ele>
        <time>2022-04-15T14:20:18Z</time>
      </trkpt>
      <trkpt lat="43.48653" lon="6.23257">
        <ele>140</ele>
        <time>2022-04-15T14:20:19Z</time>
      </trkpt>
      <trkpt lat="43.48653" lon="6.23257">
        <ele>140</ele>
        <time>2022-04-15T14:20:20Z</time>
      </trkpt>
      <trkpt lat="43.48652" lon="6.23258">
        <ele>140</ele>
        <time>2022-04-15T14:20:21Z</time>
      </trkpt>
      <trkpt lat="43.48652" lon="6.23259">
        <ele>139</ele>
        <time>2022-04-15T14:20:22Z</time>
      </trkpt>
      <trkpt lat="43.48652" lon="6.23261">
        <ele>139</ele>
        <time>2022-04-15T14:20:23Z</time>
      </trkpt>
      <trkpt lat="43.48652" lon="6.23262">
        <ele>139</ele>
        <time>2022-04-15T14:20:24Z</time>
      </trkpt>
      <trkpt lat="43.48652" lon="6.23264">
        <ele>139</ele>
        <time>2022-04-15T14:20:25Z</time>
      </trkpt>
      <trkpt lat="43.48652" lon="6.23265">
        <ele>138</ele>
        <time>2022-04-15T14:20:26Z</time>
      </trkpt>
      <trkpt lat="43.48652" lon="6.23266">
        <ele>138</ele>
        <time>2022-04-15T14:20:27Z</time>
      </trkpt>
      <trkpt lat="43.48652" lon="6.23268">
        <ele>138</ele>
        <time>2022-04-15T14:20:28Z</time>
      </trkpt>
      <trkpt lat="43.48652" lon="6.23269">
        <ele>138</ele>
        <time>2022-04-15T14:20:29Z</time>
      </trkpt>
      <trkpt lat="43.48652" lon="6.23271">
        <ele>138</ele>
        <time>2022-04-15T14:20:30Z</time>
      </trkpt>
      <trkpt lat="43.48652" lon="6.23274">
        <ele>137</ele>
        <time>2022-04-15T14:20:31Z</time>
      </trkpt>
      <trkpt lat="43.48652" lon="6.23275">
        <ele>137</ele>
        <time>2022-04-15T14:20:32Z</time>
      </trkpt>
      <trkpt lat="43.48652" lon="6.23277">
        <ele>137</ele>
        <time>2022-04-15T14:20:33Z</time>
      </trkpt>
      <trkpt lat="43.48652" lon="6.23278">
        <ele>137</ele>
        <time>2022-04-15T14:20:34Z</time>
      </trkpt>
      <trkpt lat="43.48652" lon="6.23279">
        <ele>137</ele>
        <time>2022-04-15T14:20:35Z</time>
      </trkpt>
      <trkpt lat="43.48653" lon="6.2328">
        <ele>137</ele>
        <time>2022-04-15T14:20:36Z</time>
      </trkpt>
      <trkpt lat="43.48653" lon="6.23282">
        <ele>136</ele>
        <time>2022-04-15T14:20:37Z</time>
      </trkpt>
      <trkpt lat="43.48653" lon="6.23283">
        <ele>136</ele>
        <time>2022-04-15T14:20:38Z</time>
      </trkpt>
      <trkpt lat="43.48652" lon="6.23285">
        <ele>134</ele>
        <time>2022-04-15T14:20:39Z</time>
      </trkpt>
      <trkpt lat="43.48652" lon="6.23288">
        <ele>133</ele>
        <time>2022-04-15T14:20:40Z</time>
      </trkpt>
      <trkpt lat="43.48652" lon="6.2329">
        <ele>133</ele>
        <time>2022-04-15T14:20:41Z</time>
      </trkpt>
      <trkpt lat="43.48652" lon="6.23292">
        <ele>133</ele>
        <time>2022-04-15T14:20:42Z</time>
      </trkpt>
      <trkpt lat="43.48652" lon="6.23294">
        <ele>132</ele>
        <time>2022-04-15T14:20:43Z</time>
      </trkpt>
      <trkpt lat="43.48652" lon="6.23295">
        <ele>132</ele>
        <time>2022-04-15T14:20:44Z</time>
      </trkpt>
      <trkpt lat="43.48652" lon="6.23297">
        <ele>132</ele>
        <time>2022-04-15T14:20:45Z</time>
      </trkpt>
      <trkpt lat="43.48653" lon="6.23298">
        <ele>132</ele>
        <time>2022-04-15T14:20:46Z</time>
      </trkpt>
      <trkpt lat="43.48653" lon="6.233">
        <ele>132</ele>
        <time>2022-04-15T14:20:47Z</time>
      </trkpt>
      <trkpt lat="43.48653" lon="6.23302">
        <ele>132</ele>
        <time>2022-04-15T14:20:48Z</time>
      </trkpt>
      <trkpt lat="43.48653" lon="6.23304">
        <ele>132</ele>
        <time>2022-04-15T14:20:49Z</time>
      </trkpt>
      <trkpt lat="43.48653" lon="6.23305">
        <ele>132</ele>
        <time>2022-04-15T14:20:50Z</time>
      </trkpt>
      <trkpt lat="43.48653" lon="6.23307">
        <ele>132</ele>
        <time>2022-04-15T14:20:51Z</time>
      </trkpt>
      <trkpt lat="43.48653" lon="6.23309">
        <ele>133</ele>
        <time>2022-04-15T14:20:52Z</time>
      </trkpt>
      <trkpt lat="43.48654" lon="6.2331">
        <ele>133</ele>
        <time>2022-04-15T14:20:53Z</time>
      </trkpt>
      <trkpt lat="43.48654" lon="6.23312">
        <ele>133</ele>
        <time>2022-04-15T14:20:54Z</time>
      </trkpt>
      <trkpt lat="43.48654" lon="6.23315">
        <ele>133</ele>
        <time>2022-04-15T14:20:55Z</time>
      </trkpt>
      <trkpt lat="43.48655" lon="6.23318">
        <ele>133</ele>
        <time>2022-04-15T14:20:56Z</time>
      </trkpt>
      <trkpt lat="43.48655" lon="6.2332">
        <ele>133</ele>
        <time>2022-04-15T14:20:57Z</time>
      </trkpt>
      <trkpt lat="43.48656" lon="6.23323">
        <ele>133</ele>
        <time>2022-04-15T14:20:58Z</time>
      </trkpt>
      <trkpt lat="43.48656" lon="6.23325">
        <ele>133</ele>
        <time>2022-04-15T14:20:59Z</time>
      </trkpt>
      <trkpt lat="43.48657" lon="6.23327">
        <ele>133</ele>
        <time>2022-04-15T14:21:00Z</time>
      </trkpt>
      <trkpt lat="43.48657" lon="6.23329">
        <ele>133</ele>
        <time>2022-04-15T14:21:01Z</time>
      </trkpt>
      <trkpt lat="43.48658" lon="6.2333">
        <ele>133</ele>
        <time>2022-04-15T14:21:02Z</time>
      </trkpt>
      <trkpt lat="43.48658" lon="6.23332">
        <ele>133</ele>
        <time>2022-04-15T14:21:03Z</time>
      </trkpt>
      <trkpt lat="43.48658" lon="6.23334">
        <ele>132</ele>
        <time>2022-04-15T14:21:04Z</time>
      </trkpt>
      <trkpt lat="43.48658" lon="6.23335">
        <ele>132</ele>
        <time>2022-04-15T14:21:05Z</time>
      </trkpt>
      <trkpt lat="43.48658" lon="6.23336">
        <ele>132</ele>
        <time>2022-04-15T14:21:06Z</time>
      </trkpt>
      <trkpt lat="43.48659" lon="6.23338">
        <ele>132</ele>
        <time>2022-04-15T14:21:07Z</time>
      </trkpt>
      <trkpt lat="43.48659" lon="6.23339">
        <ele>132</ele>
        <time>2022-04-15T14:21:08Z</time>
      </trkpt>
      <trkpt lat="43.48659" lon="6.23341">
        <ele>131</ele>
        <time>2022-04-15T14:21:09Z</time>
      </trkpt>
      <trkpt lat="43.48659" lon="6.23342">
        <ele>131</ele>
        <time>2022-04-15T14:21:10Z</time>
      </trkpt>
      <trkpt lat="43.48659" lon="6.23343">
        <ele>131</ele>
        <time>2022-04-15T14:21:11Z</time>
      </trkpt>
      <trkpt lat="43.48659" lon="6.23344">
        <ele>131</ele>
        <time>2022-04-15T14:21:12Z</time>
      </trkpt>
      <trkpt lat="43.48659" lon="6.23345">
        <ele>131</ele>
        <time>2022-04-15T14:21:13Z</time>
      </trkpt>
      <trkpt lat="43.48659" lon="6.23346">
        <ele>131</ele>
        <time>2022-04-15T14:21:14Z</time>
      </trkpt>
      <trkpt lat="43.48659" lon="6.23347">
        <ele>130</ele>
        <time>2022-04-15T14:21:15Z</time>
      </trkpt>
      <trkpt lat="43.48659" lon="6.23348">
        <ele>130</ele>
        <time>2022-04-15T14:21:16Z</time>
      </trkpt>
      <trkpt lat="43.48659" lon="6.23349">
        <ele>130</ele>
        <time>2022-04-15T14:21:17Z</time>
      </trkpt>
      <trkpt lat="43.4866" lon="6.2335">
        <ele>129</ele>
        <time>2022-04-15T14:21:18Z</time>
      </trkpt>
      <trkpt lat="43.4866" lon="6.23351">
        <ele>128</ele>
        <time>2022-04-15T14:21:19Z</time>
      </trkpt>
      <trkpt lat="43.4866" lon="6.23352">
        <ele>128</ele>
        <time>2022-04-15T14:21:20Z</time>
      </trkpt>
      <trkpt lat="43.4866" lon="6.23353">
        <ele>128</ele>
        <time>2022-04-15T14:21:21Z</time>
      </trkpt>
      <trkpt lat="43.4866" lon="6.23354">
        <ele>128</ele>
        <time>2022-04-15T14:21:22Z</time>
      </trkpt>
      <trkpt lat="43.4866" lon="6.23355">
        <ele>128</ele>
        <time>2022-04-15T14:21:23Z</time>
      </trkpt>
      <trkpt lat="43.4866" lon="6.23357">
        <ele>128</ele>
        <time>2022-04-15T14:21:24Z</time>
      </trkpt>
      <trkpt lat="43.4866" lon="6.23358">
        <ele>128</ele>
        <time>2022-04-15T14:21:25Z</time>
      </trkpt>
      <trkpt lat="43.4866" lon="6.2336">
        <ele>128</ele>
        <time>2022-04-15T14:21:26Z</time>
      </trkpt>
      <trkpt lat="43.48661" lon="6.23361">
        <ele>128</ele>
        <time>2022-04-15T14:21:27Z</time>
      </trkpt>
      <trkpt lat="43.48661" lon="6.23362">
        <ele>128</ele>
        <time>2022-04-15T14:21:28Z</time>
      </trkpt>
      <trkpt lat="43.48661" lon="6.23364">
        <ele>127</ele>
        <time>2022-04-15T14:21:29Z</time>
      </trkpt>
      <trkpt lat="43.48661" lon="6.23365">
        <ele>127</ele>
        <time>2022-04-15T14:21:30Z</time>
      </trkpt>
      <trkpt lat="43.48662" lon="6.23366">
        <ele>127</ele>
        <time>2022-04-15T14:21:31Z</time>
      </trkpt>
      <trkpt lat="43.48662" lon="6.23367">
        <ele>127</ele>
        <time>2022-04-15T14:21:32Z</time>
      </trkpt>
      <trkpt lat="43.48662" lon="6.23368">
        <ele>126</ele>
        <time>2022-04-15T14:21:33Z</time>
      </trkpt>
      <trkpt lat="43.48662" lon="6.23369">
        <ele>126</ele>
        <time>2022-04-15T14:21:34Z</time>
      </trkpt>
      <trkpt lat="43.48662" lon="6.2337">
        <ele>126</ele>
        <time>2022-04-15T14:21:35Z</time>
      </trkpt>
      <trkpt lat="43.48662" lon="6.23371">
        <ele>126</ele>
        <time>2022-04-15T14:21:36Z</time>
      </trkpt>
      <trkpt lat="43.48662" lon="6.23372">
        <ele>126</ele>
        <time>2022-04-15T14:21:37Z</time>
      </trkpt>
      <trkpt lat="43.48662" lon="6.23374">
        <ele>126</ele>
        <time>2022-04-15T14:21:38Z</time>
      </trkpt>
      <trkpt lat="43.48662" lon="6.23375">
        <ele>126</ele>
        <time>2022-04-15T14:21:39Z</time>
      </trkpt>
      <trkpt lat="43.48662" lon="6.23376">
        <ele>126</ele>
        <time>2022-04-15T14:21:40Z</time>
      </trkpt>
      <trkpt lat="43.48663" lon="6.23377">
        <ele>126</ele>
        <time>2022-04-15T14:21:41Z</time>
      </trkpt>
      <trkpt lat="43.48663" lon="6.23378">
        <ele>125</ele>
        <time>2022-04-15T14:21:42Z</time>
      </trkpt>
      <trkpt lat="43.48663" lon="6.2338">
        <ele>125</ele>
        <time>2022-04-15T14:21:43Z</time>
      </trkpt>
      <trkpt lat="43.48664" lon="6.23381">
        <ele>125</ele>
        <time>2022-04-15T14:21:44Z</time>
      </trkpt>
      <trkpt lat="43.48664" lon="6.23382">
        <ele>125</ele>
        <time>2022-04-15T14:21:45Z</time>
      </trkpt>
      <trkpt lat="43.48664" lon="6.23383">
        <ele>125</ele>
        <time>2022-04-15T14:21:46Z</time>
      </trkpt>
      <trkpt lat="43.48665" lon="6.23385">
        <ele>125</ele>
        <time>2022-04-15T14:21:47Z</time>
      </trkpt>
      <trkpt lat="43.48665" lon="6.23386">
        <ele>125</ele>
        <time>2022-04-15T14:21:48Z</time>
      </trkpt>
      <trkpt lat="43.48665" lon="6.23387">
        <ele>125</ele>
        <time>2022-04-15T14:21:49Z</time>
      </trkpt>
      <trkpt lat="43.48665" lon="6.23388">
        <ele>125</ele>
        <time>2022-04-15T14:21:50Z</time>
      </trkpt>
      <trkpt lat="43.48665" lon="6.2339">
        <ele>125</ele>
        <time>2022-04-15T14:21:51Z</time>
      </trkpt>
      <trkpt lat="43.48666" lon="6.23391">
        <ele>126</ele>
        <time>2022-04-15T14:21:52Z</time>
      </trkpt>
      <trkpt lat="43.48666" lon="6.23392">
        <ele>126</ele>
        <time>2022-04-15T14:21:53Z</time>
      </trkpt>
      <trkpt lat="43.48666" lon="6.23394">
        <ele>127</ele>
        <time>2022-04-15T14:21:54Z</time>
      </trkpt>
      <trkpt lat="43.48666" lon="6.23395">
        <ele>128</ele>
        <time>2022-04-15T14:21:55Z</time>
      </trkpt>
      <trkpt lat="43.48666" lon="6.23397">
        <ele>128</ele>
        <time>2022-04-15T14:21:56Z</time>
      </trkpt>
      <trkpt lat="43.48666" lon="6.23399">
        <ele>128</ele>
        <time>2022-04-15T14:21:57Z</time>
      </trkpt>
      <trkpt lat="43.48666" lon="6.23401">
        <ele>129</ele>
        <time>2022-04-15T14:21:58Z</time>
      </trkpt>
      <trkpt lat="43.48667" lon="6.23403">
        <ele>129</ele>
        <time>2022-04-15T14:21:59Z</time>
      </trkpt>
      <trkpt lat="43.48667" lon="6.23404">
        <ele>129</ele>
        <time>2022-04-15T14:22:00Z</time>
      </trkpt>
      <trkpt lat="43.48667" lon="6.23406">
        <ele>129</ele>
        <time>2022-04-15T14:22:01Z</time>
      </trkpt>
      <trkpt lat="43.48667" lon="6.23407">
        <ele>129</ele>
        <time>2022-04-15T14:22:02Z</time>
      </trkpt>
      <trkpt lat="43.48667" lon="6.23409">
        <ele>129</ele>
        <time>2022-04-15T14:22:03Z</time>
      </trkpt>
      <trkpt lat="43.48668" lon="6.2341">
        <ele>129</ele>
        <time>2022-04-15T14:22:04Z</time>
      </trkpt>
      <trkpt lat="43.48668" lon="6.23412">
        <ele>130</ele>
        <time>2022-04-15T14:22:05Z</time>
      </trkpt>
      <trkpt lat="43.48668" lon="6.23413">
        <ele>130</ele>
        <time>2022-04-15T14:22:06Z</time>
      </trkpt>
      <trkpt lat="43.48668" lon="6.23414">
        <ele>130</ele>
        <time>2022-04-15T14:22:07Z</time>
      </trkpt>
      <trkpt lat="43.48668" lon="6.23416">
        <ele>130</ele>
        <time>2022-04-15T14:22:08Z</time>
      </trkpt>
      <trkpt lat="43.48669" lon="6.23417">
        <ele>130</ele>
        <time>2022-04-15T14:22:09Z</time>
      </trkpt>
      <trkpt lat="43.48669" lon="6.23418">
        <ele>130</ele>
        <time>2022-04-15T14:22:10Z</time>
      </trkpt>
      <trkpt lat="43.48669" lon="6.2342">
        <ele>130</ele>
        <time>2022-04-15T14:22:11Z</time>
      </trkpt>
      <trkpt lat="43.48669" lon="6.23421">
        <ele>130</ele>
        <time>2022-04-15T14:22:12Z</time>
      </trkpt>
      <trkpt lat="43.48669" lon="6.23423">
        <ele>130</ele>
        <time>2022-04-15T14:22:13Z</time>
      </trkpt>
      <trkpt lat="43.4867" lon="6.23425">
        <ele>132</ele>
        <time>2022-04-15T14:22:14Z</time>
      </trkpt>
      <trkpt lat="43.4867" lon="6.23427">
        <ele>133</ele>
        <time>2022-04-15T14:22:15Z</time>
      </trkpt>
      <trkpt lat="43.4867" lon="6.23429">
        <ele>133</ele>
        <time>2022-04-15T14:22:16Z</time>
      </trkpt>
      <trkpt lat="43.4867" lon="6.2343">
        <ele>134</ele>
        <time>2022-04-15T14:22:17Z</time>
      </trkpt>
      <trkpt lat="43.4867" lon="6.23431">
        <ele>134</ele>
        <time>2022-04-15T14:22:18Z</time>
      </trkpt>
      <trkpt lat="43.4867" lon="6.23433">
        <ele>134</ele>
        <time>2022-04-15T14:22:19Z</time>
      </trkpt>
      <trkpt lat="43.4867" lon="6.23434">
        <ele>135</ele>
        <time>2022-04-15T14:22:20Z</time>
      </trkpt>
      <trkpt lat="43.4867" lon="6.23436">
        <ele>135</ele>
        <time>2022-04-15T14:22:21Z</time>
      </trkpt>
      <trkpt lat="43.4867" lon="6.23437">
        <ele>135</ele>
        <time>2022-04-15T14:22:22Z</time>
      </trkpt>
      <trkpt lat="43.4867" lon="6.23439">
        <ele>136</ele>
        <time>2022-04-15T14:22:23Z</time>
      </trkpt>
      <trkpt lat="43.4867" lon="6.2344">
        <ele>136</ele>
        <time>2022-04-15T14:22:24Z</time>
      </trkpt>
      <trkpt lat="43.4867" lon="6.23442">
        <ele>136</ele>
        <time>2022-04-15T14:22:25Z</time>
      </trkpt>
      <trkpt lat="43.48669" lon="6.23443">
        <ele>136</ele>
        <time>2022-04-15T14:22:26Z</time>
      </trkpt>
      <trkpt lat="43.48669" lon="6.23445">
        <ele>137</ele>
        <time>2022-04-15T14:22:27Z</time>
      </trkpt>
      <trkpt lat="43.48668" lon="6.23446">
        <ele>137</ele>
        <time>2022-04-15T14:22:28Z</time>
      </trkpt>
      <trkpt lat="43.48667" lon="6.23448">
        <ele>137</ele>
        <time>2022-04-15T14:22:29Z</time>
      </trkpt>
      <trkpt lat="43.48667" lon="6.23449">
        <ele>137</ele>
        <time>2022-04-15T14:22:30Z</time>
      </trkpt>
      <trkpt lat="43.48666" lon="6.23451">
        <ele>138</ele>
        <time>2022-04-15T14:22:31Z</time>
      </trkpt>
      <trkpt lat="43.48666" lon="6.23452">
        <ele>140</ele>
        <time>2022-04-15T14:22:32Z</time>
      </trkpt>
      <trkpt lat="43.48665" lon="6.23453">
        <ele>140</ele>
        <time>2022-04-15T14:22:33Z</time>
      </trkpt>
      <trkpt lat="43.48665" lon="6.23454">
        <ele>141</ele>
        <time>2022-04-15T14:22:34Z</time>
      </trkpt>
      <trkpt lat="43.48665" lon="6.23455">
        <ele>141</ele>
        <time>2022-04-15T14:22:35Z</time>
      </trkpt>
      <trkpt lat="43.48664" lon="6.23455">
        <ele>141</ele>
        <time>2022-04-15T14:22:36Z</time>
      </trkpt>
      <trkpt lat="43.48663" lon="6.23455">
        <ele>141</ele>
        <time>2022-04-15T14:22:37Z</time>
      </trkpt>
      <trkpt lat="43.48662" lon="6.23455">
        <ele>141</ele>
        <time>2022-04-15T14:22:38Z</time>
      </trkpt>
      <trkpt lat="43.48662" lon="6.23456">
        <ele>141</ele>
        <time>2022-04-15T14:22:39Z</time>
      </trkpt>
      <trkpt lat="43.48662" lon="6.23457">
        <ele>141</ele>
        <time>2022-04-15T14:22:40Z</time>
      </trkpt>
      <trkpt lat="43.48662" lon="6.23457">
        <ele>141</ele>
        <time>2022-04-15T14:22:41Z</time>
      </trkpt>
      <trkpt lat="43.48661" lon="6.23458">
        <ele>141</ele>
        <time>2022-04-15T14:22:42Z</time>
      </trkpt>
      <trkpt lat="43.48661" lon="6.23458">
        <ele>141</ele>
        <time>2022-04-15T14:22:43Z</time>
      </trkpt>
      <trkpt lat="43.4866" lon="6.23458">
        <ele>141</ele>
        <time>2022-04-15T14:22:44Z</time>
      </trkpt>
      <trkpt lat="43.4866" lon="6.23458">
        <ele>141</ele>
        <time>2022-04-15T14:22:45Z</time>
      </trkpt>
      <trkpt lat="43.4866" lon="6.23459">
        <ele>141</ele>
        <time>2022-04-15T14:22:46Z</time>
      </trkpt>
      <trkpt lat="43.48659" lon="6.2346">
        <ele>141</ele>
        <time>2022-04-15T14:22:47Z</time>
      </trkpt>
      <trkpt lat="43.4866" lon="6.2346">
        <ele>141</ele>
        <time>2022-04-15T14:22:48Z</time>
      </trkpt>
      <trkpt lat="43.48659" lon="6.23461">
        <ele>140</ele>
        <time>2022-04-15T14:22:49Z</time>
      </trkpt>
      <trkpt lat="43.48659" lon="6.23462">
        <ele>140</ele>
        <time>2022-04-15T14:22:50Z</time>
      </trkpt>
      <trkpt lat="43.48659" lon="6.23462">
        <ele>140</ele>
        <time>2022-04-15T14:22:51Z</time>
      </trkpt>
      <trkpt lat="43.48659" lon="6.23462">
        <ele>140</ele>
        <time>2022-04-15T14:22:52Z</time>
      </trkpt>
      <trkpt lat="43.48658" lon="6.23462">
        <ele>140</ele>
        <time>2022-04-15T14:22:53Z</time>
      </trkpt>
      <trkpt lat="43.48657" lon="6.23462">
        <ele>140</ele>
        <time>2022-04-15T14:22:54Z</time>
      </trkpt>
      <trkpt lat="43.48657" lon="6.23461">
        <ele>140</ele>
        <time>2022-04-15T14:22:55Z</time>
      </trkpt>
      <trkpt lat="43.48657" lon="6.23459">
        <ele>140</ele>
        <time>2022-04-15T14:22:56Z</time>
      </trkpt>
      <trkpt lat="43.48657" lon="6.23457">
        <ele>140</ele>
        <time>2022-04-15T14:22:57Z</time>
      </trkpt>
      <trkpt lat="43.48657" lon="6.23456">
        <ele>140</ele>
        <time>2022-04-15T14:22:58Z</time>
      </trkpt>
      <trkpt lat="43.48658" lon="6.23454">
        <ele>140</ele>
        <time>2022-04-15T14:22:59Z</time>
      </trkpt>
      <trkpt lat="43.48658" lon="6.23453">
        <ele>140</ele>
        <time>2022-04-15T14:23:00Z</time>
      </trkpt>
      <trkpt lat="43.48658" lon="6.23452">
        <ele>139</ele>
        <time>2022-04-15T14:23:01Z</time>
      </trkpt>
      <trkpt lat="43.48657" lon="6.23452">
        <ele>139</ele>
        <time>2022-04-15T14:23:02Z</time>
      </trkpt>
      <trkpt lat="43.48657" lon="6.23452">
        <ele>139</ele>
        <time>2022-04-15T14:23:03Z</time>
      </trkpt>
      <trkpt lat="43.48656" lon="6.23453">
        <ele>139</ele>
        <time>2022-04-15T14:23:04Z</time>
      </trkpt>
      <trkpt lat="43.48656" lon="6.23455">
        <ele>139</ele>
        <time>2022-04-15T14:23:05Z</time>
      </trkpt>
      <trkpt lat="43.48656" lon="6.23457">
        <ele>139</ele>
        <time>2022-04-15T14:23:06Z</time>
      </trkpt>
      <trkpt lat="43.48657" lon="6.23458">
        <ele>139</ele>
        <time>2022-04-15T14:23:07Z</time>
      </trkpt>
      <trkpt lat="43.48657" lon="6.23459">
        <ele>139</ele>
        <time>2022-04-15T14:23:08Z</time>
      </trkpt>
      <trkpt lat="43.48657" lon="6.23461">
        <ele>139</ele>
        <time>2022-04-15T14:23:09Z</time>
      </trkpt>
      <trkpt lat="43.48657" lon="6.23462">
        <ele>139</ele>
        <time>2022-04-15T14:23:10Z</time>
      </trkpt>
      <trkpt lat="43.48657" lon="6.23462">
        <ele>139</ele>
        <time>2022-04-15T14:23:11Z</time>
      </trkpt>
      <trkpt lat="43.48657" lon="6.23463">
        <ele>139</ele>
        <time>2022-04-15T14:23:12Z</time>
      </trkpt>
      <trkpt lat="43.48657" lon="6.23463">
        <ele>139</ele>
        <time>2022-04-15T14:23:13Z</time>
      </trkpt>
      <trkpt lat="43.48657" lon="6.23463">
        <ele>139</ele>
        <time>2022-04-15T14:23:14Z</time>
      </trkpt>
      <trkpt lat="43.48657" lon="6.23463">
        <ele>138</ele>
        <time>2022-04-15T14:23:15Z</time>
      </trkpt>
      <trkpt lat="43.48656" lon="6.23461">
        <ele>138</ele>
        <time>2022-04-15T14:23:16Z</time>
      </trkpt>
      <trkpt lat="43.48654" lon="6.23458">
        <ele>138</ele>
        <time>2022-04-15T14:23:17Z</time>
      </trkpt>
      <trkpt lat="43.48653" lon="6.23456">
        <ele>138</ele>
        <time>2022-04-15T14:23:18Z</time>
      </trkpt>
      <trkpt lat="43.48653" lon="6.23455">
        <ele>138</ele>
        <time>2022-04-15T14:23:19Z</time>
      </trkpt>
      <trkpt lat="43.48653" lon="6.23455">
        <ele>138</ele>
        <time>2022-04-15T14:23:20Z</time>
      </trkpt>
      <trkpt lat="43.48652" lon="6.23455">
        <ele>138</ele>
        <time>2022-04-15T14:23:21Z</time>
      </trkpt>
      <trkpt lat="43.48652" lon="6.23454">
        <ele>138</ele>
        <time>2022-04-15T14:23:22Z</time>
      </trkpt>
      <trkpt lat="43.48652" lon="6.23454">
        <ele>138</ele>
        <time>2022-04-15T14:23:23Z</time>
      </trkpt>
      <trkpt lat="43.48652" lon="6.23454">
        <ele>138</ele>
        <time>2022-04-15T14:23:24Z</time>
      </trkpt>
      <trkpt lat="43.48652" lon="6.23454">
        <ele>138</ele>
        <time>2022-04-15T14:23:25Z</time>
      </trkpt>
      <trkpt lat="43.48651" lon="6.23454">
        <ele>138</ele>
        <time>2022-04-15T14:23:26Z</time>
      </trkpt>
      <trkpt lat="43.48651" lon="6.23454">
        <ele>138</ele>
        <time>2022-04-15T14:23:27Z</time>
      </trkpt>
      <trkpt lat="43.48651" lon="6.23454">
        <ele>138</ele>
        <time>2022-04-15T14:23:28Z</time>
      </trkpt>
      <trkpt lat="43.48651" lon="6.23454">
        <ele>138</ele>
        <time>2022-04-15T14:23:29Z</time>
      </trkpt>
      <trkpt lat="43.48651" lon="6.23454">
        <ele>138</ele>
        <time>2022-04-15T14:23:30Z</time>
      </trkpt>
      <trkpt lat="43.48651" lon="6.23454">
        <ele>138</ele>
        <time>2022-04-15T14:23:31Z</time>
      </trkpt>
      <trkpt lat="43.48651" lon="6.23454">
        <ele>138</ele>
        <time>2022-04-15T14:23:32Z</time>
      </trkpt>
      <trkpt lat="43.48651" lon="6.23454">
        <ele>138</ele>
        <time>2022-04-15T14:23:33Z</time>
      </trkpt>
    </trkseg>
  </trk>
</gpx>